<?xml version="1.0" encoding="UTF-8" standalone="no" ?>
<gpx xmlns="http://www.topografix.com/GPX/1/1" xmlns:xsi="http://www.w3.org/2001/XMLSchema-instance" xsi:schemaLocation="http://www.topografix.com/GPX/1/1 http://www.topografix.com/GPX/1/1/gpx.xsd" version="1.1" creator="VisuGPX - https://www.visugpx.com">
  <metadata>
    <name>Boucle Bois de Sauvagnon - Lacs du Balaing et de Serres Castet</name>
  </metadata>
  <trk>
    <name><![CDATA[Boucle du 14 oct. 2021]]></name>
    <trkseg>
      <trkpt lat="43.40465" lon="-0.3903">
        <ele>206.2</ele>
        <time>2021-10-14T06:29:55Z</time>
      </trkpt>
      <trkpt lat="43.40453" lon="-0.39039">
        <ele>184.5</ele>
        <time>2021-10-14T06:29:56Z</time>
      </trkpt>
      <trkpt lat="43.40448" lon="-0.39046">
        <ele>181.3</ele>
        <time>2021-10-14T06:29:57Z</time>
      </trkpt>
      <trkpt lat="43.40449" lon="-0.39046">
        <ele>190.2</ele>
        <time>2021-10-14T06:29:57Z</time>
      </trkpt>
      <trkpt lat="43.40452" lon="-0.39044">
        <ele>200.1</ele>
        <time>2021-10-14T06:29:59Z</time>
      </trkpt>
      <trkpt lat="43.40452" lon="-0.39043">
        <ele>201.7</ele>
        <time>2021-10-14T06:30:01Z</time>
      </trkpt>
      <trkpt lat="43.40451" lon="-0.39045">
        <ele>195.5</ele>
        <time>2021-10-14T06:30:02Z</time>
      </trkpt>
      <trkpt lat="43.40451" lon="-0.39046">
        <ele>192.4</ele>
        <time>2021-10-14T06:30:03Z</time>
      </trkpt>
      <trkpt lat="43.40452" lon="-0.39049">
        <ele>191.6</ele>
        <time>2021-10-14T06:30:04Z</time>
      </trkpt>
      <trkpt lat="43.40454" lon="-0.39051">
        <ele>200.1</ele>
        <time>2021-10-14T06:30:05Z</time>
      </trkpt>
      <trkpt lat="43.40455" lon="-0.39053">
        <ele>198.9</ele>
        <time>2021-10-14T06:30:06Z</time>
      </trkpt>
      <trkpt lat="43.40457" lon="-0.39055">
        <ele>197.2</ele>
        <time>2021-10-14T06:30:07Z</time>
      </trkpt>
      <trkpt lat="43.40459" lon="-0.39058">
        <ele>198.6</ele>
        <time>2021-10-14T06:30:09Z</time>
      </trkpt>
      <trkpt lat="43.40461" lon="-0.39059">
        <ele>197.5</ele>
        <time>2021-10-14T06:30:10Z</time>
      </trkpt>
      <trkpt lat="43.40466" lon="-0.3906">
        <ele>198.3</ele>
        <time>2021-10-14T06:30:13Z</time>
      </trkpt>
      <trkpt lat="43.40469" lon="-0.39062">
        <ele>196.3</ele>
        <time>2021-10-14T06:30:15Z</time>
      </trkpt>
      <trkpt lat="43.4047" lon="-0.39062">
        <ele>196</ele>
        <time>2021-10-14T06:30:16Z</time>
      </trkpt>
      <trkpt lat="43.40473" lon="-0.39062">
        <ele>194.6</ele>
        <time>2021-10-14T06:30:20Z</time>
      </trkpt>
      <trkpt lat="43.40474" lon="-0.39063">
        <ele>193.8</ele>
        <time>2021-10-14T06:30:22Z</time>
      </trkpt>
      <trkpt lat="43.40475" lon="-0.39063">
        <ele>194.8</ele>
        <time>2021-10-14T06:30:23Z</time>
      </trkpt>
      <trkpt lat="43.40476" lon="-0.39063">
        <ele>193.8</ele>
        <time>2021-10-14T06:30:24Z</time>
      </trkpt>
      <trkpt lat="43.40477" lon="-0.39062">
        <ele>195.2</ele>
        <time>2021-10-14T06:30:25Z</time>
      </trkpt>
      <trkpt lat="43.40478" lon="-0.39061">
        <ele>194.3</ele>
        <time>2021-10-14T06:30:26Z</time>
      </trkpt>
      <trkpt lat="43.40479" lon="-0.39059">
        <ele>193.9</ele>
        <time>2021-10-14T06:30:27Z</time>
      </trkpt>
      <trkpt lat="43.4048" lon="-0.39057">
        <ele>194.1</ele>
        <time>2021-10-14T06:30:28Z</time>
      </trkpt>
      <trkpt lat="43.4048" lon="-0.39055">
        <ele>194.4</ele>
        <time>2021-10-14T06:30:29Z</time>
      </trkpt>
      <trkpt lat="43.40481" lon="-0.39053">
        <ele>194.2</ele>
        <time>2021-10-14T06:30:30Z</time>
      </trkpt>
      <trkpt lat="43.4048" lon="-0.39052">
        <ele>194.5</ele>
        <time>2021-10-14T06:30:31Z</time>
      </trkpt>
      <trkpt lat="43.40481" lon="-0.39045">
        <ele>193.6</ele>
        <time>2021-10-14T06:30:36Z</time>
      </trkpt>
      <trkpt lat="43.40481" lon="-0.39043">
        <ele>194</ele>
        <time>2021-10-14T06:30:37Z</time>
      </trkpt>
      <trkpt lat="43.4048" lon="-0.39042">
        <ele>194.2</ele>
        <time>2021-10-14T06:30:38Z</time>
      </trkpt>
      <trkpt lat="43.4048" lon="-0.39041">
        <ele>194.1</ele>
        <time>2021-10-14T06:30:39Z</time>
      </trkpt>
      <trkpt lat="43.40481" lon="-0.39041">
        <ele>194</ele>
        <time>2021-10-14T06:30:41Z</time>
      </trkpt>
      <trkpt lat="43.40481" lon="-0.39041">
        <ele>194.2</ele>
        <time>2021-10-14T06:30:42Z</time>
      </trkpt>
      <trkpt lat="43.40481" lon="-0.39041">
        <ele>194</ele>
        <time>2021-10-14T06:30:43Z</time>
      </trkpt>
      <trkpt lat="43.40481" lon="-0.39041">
        <ele>194</ele>
        <time>2021-10-14T06:30:44Z</time>
      </trkpt>
      <trkpt lat="43.40481" lon="-0.39042">
        <ele>193.9</ele>
        <time>2021-10-14T06:30:45Z</time>
      </trkpt>
      <trkpt lat="43.40481" lon="-0.39042">
        <ele>194</ele>
        <time>2021-10-14T06:30:46Z</time>
      </trkpt>
      <trkpt lat="43.40481" lon="-0.39042">
        <ele>194.2</ele>
        <time>2021-10-14T06:30:47Z</time>
      </trkpt>
      <trkpt lat="43.40481" lon="-0.39042">
        <ele>194.2</ele>
        <time>2021-10-14T06:30:48Z</time>
      </trkpt>
      <trkpt lat="43.40481" lon="-0.39042">
        <ele>194.3</ele>
        <time>2021-10-14T06:30:52Z</time>
      </trkpt>
      <trkpt lat="43.4048" lon="-0.39041">
        <ele>194.1</ele>
        <time>2021-10-14T06:30:55Z</time>
      </trkpt>
      <trkpt lat="43.40476" lon="-0.39036">
        <ele>196.9</ele>
        <time>2021-10-14T06:31:00Z</time>
      </trkpt>
      <trkpt lat="43.40475" lon="-0.39036">
        <ele>197.3</ele>
        <time>2021-10-14T06:31:01Z</time>
      </trkpt>
      <trkpt lat="43.40475" lon="-0.39037">
        <ele>196.9</ele>
        <time>2021-10-14T06:31:02Z</time>
      </trkpt>
      <trkpt lat="43.40475" lon="-0.39037">
        <ele>196.8</ele>
        <time>2021-10-14T06:31:03Z</time>
      </trkpt>
      <trkpt lat="43.40475" lon="-0.39037">
        <ele>196.5</ele>
        <time>2021-10-14T06:31:04Z</time>
      </trkpt>
      <trkpt lat="43.40475" lon="-0.39037">
        <ele>196.9</ele>
        <time>2021-10-14T06:31:05Z</time>
      </trkpt>
      <trkpt lat="43.40475" lon="-0.39037">
        <ele>196.6</ele>
        <time>2021-10-14T06:31:06Z</time>
      </trkpt>
      <trkpt lat="43.40475" lon="-0.39037">
        <ele>197.1</ele>
        <time>2021-10-14T06:31:07Z</time>
      </trkpt>
      <trkpt lat="43.40475" lon="-0.39037">
        <ele>197.2</ele>
        <time>2021-10-14T06:31:08Z</time>
      </trkpt>
      <trkpt lat="43.40475" lon="-0.39037">
        <ele>197.1</ele>
        <time>2021-10-14T06:31:09Z</time>
      </trkpt>
      <trkpt lat="43.40475" lon="-0.39037">
        <ele>197.2</ele>
        <time>2021-10-14T06:31:11Z</time>
      </trkpt>
      <trkpt lat="43.40475" lon="-0.39037">
        <ele>197</ele>
        <time>2021-10-14T06:31:12Z</time>
      </trkpt>
      <trkpt lat="43.40475" lon="-0.39037">
        <ele>197.1</ele>
        <time>2021-10-14T06:34:04Z</time>
      </trkpt>
      <trkpt lat="43.40479" lon="-0.39012">
        <ele>199.6</ele>
        <time>2021-10-14T06:44:50Z</time>
      </trkpt>
      <trkpt lat="43.40475" lon="-0.39027">
        <ele>194</ele>
        <time>2021-10-14T06:44:50Z</time>
      </trkpt>
      <trkpt lat="43.40476" lon="-0.39029">
        <ele>200.2</ele>
        <time>2021-10-14T06:44:52Z</time>
      </trkpt>
      <trkpt lat="43.40479" lon="-0.39029">
        <ele>208.4</ele>
        <time>2021-10-14T06:44:52Z</time>
      </trkpt>
      <trkpt lat="43.40479" lon="-0.39029">
        <ele>193.3</ele>
        <time>2021-10-14T06:44:54Z</time>
      </trkpt>
      <trkpt lat="43.40479" lon="-0.39027">
        <ele>203.5</ele>
        <time>2021-10-14T06:44:54Z</time>
      </trkpt>
      <trkpt lat="43.40479" lon="-0.39026">
        <ele>204.1</ele>
        <time>2021-10-14T06:44:56Z</time>
      </trkpt>
      <trkpt lat="43.40478" lon="-0.39025">
        <ele>201.9</ele>
        <time>2021-10-14T06:44:58Z</time>
      </trkpt>
      <trkpt lat="43.40477" lon="-0.39025">
        <ele>202.2</ele>
        <time>2021-10-14T06:44:59Z</time>
      </trkpt>
      <trkpt lat="43.40478" lon="-0.39024">
        <ele>203.1</ele>
        <time>2021-10-14T06:45:00Z</time>
      </trkpt>
      <trkpt lat="43.40477" lon="-0.39023">
        <ele>204.1</ele>
        <time>2021-10-14T06:45:01Z</time>
      </trkpt>
      <trkpt lat="43.40476" lon="-0.39022">
        <ele>203.2</ele>
        <time>2021-10-14T06:45:03Z</time>
      </trkpt>
      <trkpt lat="43.40476" lon="-0.39022">
        <ele>203.8</ele>
        <time>2021-10-14T06:45:04Z</time>
      </trkpt>
      <trkpt lat="43.40476" lon="-0.39022">
        <ele>204.1</ele>
        <time>2021-10-14T06:45:05Z</time>
      </trkpt>
      <trkpt lat="43.40476" lon="-0.39022">
        <ele>203.8</ele>
        <time>2021-10-14T06:45:06Z</time>
      </trkpt>
      <trkpt lat="43.40476" lon="-0.39022">
        <ele>204.2</ele>
        <time>2021-10-14T06:45:07Z</time>
      </trkpt>
      <trkpt lat="43.40476" lon="-0.39022">
        <ele>203.6</ele>
        <time>2021-10-14T06:45:08Z</time>
      </trkpt>
      <trkpt lat="43.40476" lon="-0.39022">
        <ele>203.9</ele>
        <time>2021-10-14T06:45:09Z</time>
      </trkpt>
      <trkpt lat="43.40476" lon="-0.39022">
        <ele>203.9</ele>
        <time>2021-10-14T06:45:12Z</time>
      </trkpt>
      <trkpt lat="43.40475" lon="-0.39017">
        <ele>205.7</ele>
        <time>2021-10-14T06:45:25Z</time>
      </trkpt>
      <trkpt lat="43.40475" lon="-0.39014">
        <ele>206.1</ele>
        <time>2021-10-14T06:45:27Z</time>
      </trkpt>
      <trkpt lat="43.40473" lon="-0.3901">
        <ele>207.3</ele>
        <time>2021-10-14T06:45:31Z</time>
      </trkpt>
      <trkpt lat="43.40472" lon="-0.39009">
        <ele>207</ele>
        <time>2021-10-14T06:45:32Z</time>
      </trkpt>
      <trkpt lat="43.40471" lon="-0.39006">
        <ele>208.2</ele>
        <time>2021-10-14T06:45:34Z</time>
      </trkpt>
      <trkpt lat="43.4047" lon="-0.39005">
        <ele>208</ele>
        <time>2021-10-14T06:45:35Z</time>
      </trkpt>
      <trkpt lat="43.40469" lon="-0.39005">
        <ele>207.7</ele>
        <time>2021-10-14T06:45:36Z</time>
      </trkpt>
      <trkpt lat="43.40469" lon="-0.39004">
        <ele>209.1</ele>
        <time>2021-10-14T06:45:37Z</time>
      </trkpt>
      <trkpt lat="43.40469" lon="-0.39004">
        <ele>209.1</ele>
        <time>2021-10-14T06:45:38Z</time>
      </trkpt>
      <trkpt lat="43.40469" lon="-0.39003">
        <ele>209</ele>
        <time>2021-10-14T06:45:39Z</time>
      </trkpt>
      <trkpt lat="43.40468" lon="-0.39002">
        <ele>210.1</ele>
        <time>2021-10-14T06:45:41Z</time>
      </trkpt>
      <trkpt lat="43.40468" lon="-0.39001">
        <ele>210.1</ele>
        <time>2021-10-14T06:45:42Z</time>
      </trkpt>
      <trkpt lat="43.40467" lon="-0.39">
        <ele>210.3</ele>
        <time>2021-10-14T06:45:43Z</time>
      </trkpt>
      <trkpt lat="43.40467" lon="-0.39">
        <ele>210</ele>
        <time>2021-10-14T06:45:44Z</time>
      </trkpt>
      <trkpt lat="43.40467" lon="-0.39">
        <ele>210</ele>
        <time>2021-10-14T06:45:45Z</time>
      </trkpt>
      <trkpt lat="43.40467" lon="-0.39">
        <ele>209.9</ele>
        <time>2021-10-14T06:45:46Z</time>
      </trkpt>
      <trkpt lat="43.40467" lon="-0.39">
        <ele>210.1</ele>
        <time>2021-10-14T06:45:47Z</time>
      </trkpt>
      <trkpt lat="43.40468" lon="-0.39">
        <ele>211.1</ele>
        <time>2021-10-14T06:45:48Z</time>
      </trkpt>
      <trkpt lat="43.40468" lon="-0.39">
        <ele>211.1</ele>
        <time>2021-10-14T06:45:49Z</time>
      </trkpt>
      <trkpt lat="43.40468" lon="-0.39">
        <ele>211</ele>
        <time>2021-10-14T06:45:50Z</time>
      </trkpt>
      <trkpt lat="43.40468" lon="-0.39">
        <ele>211</ele>
        <time>2021-10-14T06:45:51Z</time>
      </trkpt>
      <trkpt lat="43.40468" lon="-0.39">
        <ele>210.9</ele>
        <time>2021-10-14T06:45:52Z</time>
      </trkpt>
      <trkpt lat="43.40468" lon="-0.39">
        <ele>210.9</ele>
        <time>2021-10-14T06:45:54Z</time>
      </trkpt>
      <trkpt lat="43.40468" lon="-0.39">
        <ele>211.1</ele>
        <time>2021-10-14T06:45:55Z</time>
      </trkpt>
      <trkpt lat="43.40468" lon="-0.39">
        <ele>211</ele>
        <time>2021-10-14T06:46:00Z</time>
      </trkpt>
      <trkpt lat="43.40468" lon="-0.39">
        <ele>211</ele>
        <time>2021-10-14T06:46:01Z</time>
      </trkpt>
      <trkpt lat="43.40468" lon="-0.39">
        <ele>211</ele>
        <time>2021-10-14T06:46:02Z</time>
      </trkpt>
      <trkpt lat="43.40468" lon="-0.39">
        <ele>211.1</ele>
        <time>2021-10-14T06:46:03Z</time>
      </trkpt>
      <trkpt lat="43.40468" lon="-0.39">
        <ele>210.9</ele>
        <time>2021-10-14T06:46:04Z</time>
      </trkpt>
      <trkpt lat="43.40468" lon="-0.39">
        <ele>211.4</ele>
        <time>2021-10-14T06:46:05Z</time>
      </trkpt>
      <trkpt lat="43.40468" lon="-0.39">
        <ele>211.1</ele>
        <time>2021-10-14T06:46:06Z</time>
      </trkpt>
      <trkpt lat="43.40468" lon="-0.39">
        <ele>211.3</ele>
        <time>2021-10-14T06:46:07Z</time>
      </trkpt>
      <trkpt lat="43.40468" lon="-0.39">
        <ele>211</ele>
        <time>2021-10-14T06:47:22Z</time>
      </trkpt>
      <trkpt lat="43.40468" lon="-0.39">
        <ele>211.2</ele>
        <time>2021-10-14T06:47:23Z</time>
      </trkpt>
      <trkpt lat="43.40468" lon="-0.38999">
        <ele>210.9</ele>
        <time>2021-10-14T06:47:24Z</time>
      </trkpt>
      <trkpt lat="43.40468" lon="-0.38998">
        <ele>211.1</ele>
        <time>2021-10-14T06:47:25Z</time>
      </trkpt>
      <trkpt lat="43.40468" lon="-0.38998">
        <ele>211.4</ele>
        <time>2021-10-14T06:47:26Z</time>
      </trkpt>
      <trkpt lat="43.40468" lon="-0.38999">
        <ele>211</ele>
        <time>2021-10-14T06:47:27Z</time>
      </trkpt>
      <trkpt lat="43.40468" lon="-0.38999">
        <ele>211.3</ele>
        <time>2021-10-14T06:47:28Z</time>
      </trkpt>
      <trkpt lat="43.40468" lon="-0.38999">
        <ele>210.9</ele>
        <time>2021-10-14T06:47:29Z</time>
      </trkpt>
      <trkpt lat="43.40468" lon="-0.38999">
        <ele>210.8</ele>
        <time>2021-10-14T06:47:30Z</time>
      </trkpt>
      <trkpt lat="43.40468" lon="-0.38999">
        <ele>211</ele>
        <time>2021-10-14T06:47:35Z</time>
      </trkpt>
      <trkpt lat="43.40468" lon="-0.38998">
        <ele>211.3</ele>
        <time>2021-10-14T06:47:36Z</time>
      </trkpt>
      <trkpt lat="43.40469" lon="-0.38997">
        <ele>211</ele>
        <time>2021-10-14T06:47:37Z</time>
      </trkpt>
      <trkpt lat="43.40469" lon="-0.38995">
        <ele>211.3</ele>
        <time>2021-10-14T06:47:38Z</time>
      </trkpt>
      <trkpt lat="43.40469" lon="-0.38992">
        <ele>211.2</ele>
        <time>2021-10-14T06:47:39Z</time>
      </trkpt>
      <trkpt lat="43.40468" lon="-0.3899">
        <ele>210.8</ele>
        <time>2021-10-14T06:47:40Z</time>
      </trkpt>
      <trkpt lat="43.40467" lon="-0.38988">
        <ele>210.6</ele>
        <time>2021-10-14T06:47:41Z</time>
      </trkpt>
      <trkpt lat="43.40466" lon="-0.38986">
        <ele>211.2</ele>
        <time>2021-10-14T06:47:42Z</time>
      </trkpt>
      <trkpt lat="43.40464" lon="-0.38979">
        <ele>210.8</ele>
        <time>2021-10-14T06:47:45Z</time>
      </trkpt>
      <trkpt lat="43.40461" lon="-0.38971">
        <ele>211.5</ele>
        <time>2021-10-14T06:47:49Z</time>
      </trkpt>
      <trkpt lat="43.4046" lon="-0.38969">
        <ele>211.2</ele>
        <time>2021-10-14T06:47:50Z</time>
      </trkpt>
      <trkpt lat="43.40459" lon="-0.38967">
        <ele>211.1</ele>
        <time>2021-10-14T06:47:51Z</time>
      </trkpt>
      <trkpt lat="43.40459" lon="-0.38965">
        <ele>212.7</ele>
        <time>2021-10-14T06:47:52Z</time>
      </trkpt>
      <trkpt lat="43.40458" lon="-0.3896">
        <ele>211.8</ele>
        <time>2021-10-14T06:47:54Z</time>
      </trkpt>
      <trkpt lat="43.40458" lon="-0.38958">
        <ele>212</ele>
        <time>2021-10-14T06:47:55Z</time>
      </trkpt>
      <trkpt lat="43.40457" lon="-0.38953">
        <ele>212.5</ele>
        <time>2021-10-14T06:47:57Z</time>
      </trkpt>
      <trkpt lat="43.40456" lon="-0.38951">
        <ele>211.6</ele>
        <time>2021-10-14T06:47:58Z</time>
      </trkpt>
      <trkpt lat="43.40455" lon="-0.38949">
        <ele>212.1</ele>
        <time>2021-10-14T06:47:59Z</time>
      </trkpt>
      <trkpt lat="43.40455" lon="-0.38947">
        <ele>211.4</ele>
        <time>2021-10-14T06:48:00Z</time>
      </trkpt>
      <trkpt lat="43.40454" lon="-0.38946">
        <ele>212.2</ele>
        <time>2021-10-14T06:48:01Z</time>
      </trkpt>
      <trkpt lat="43.40454" lon="-0.38944">
        <ele>212</ele>
        <time>2021-10-14T06:48:02Z</time>
      </trkpt>
      <trkpt lat="43.40454" lon="-0.38941">
        <ele>212.3</ele>
        <time>2021-10-14T06:48:03Z</time>
      </trkpt>
      <trkpt lat="43.40453" lon="-0.38939">
        <ele>212.7</ele>
        <time>2021-10-14T06:48:04Z</time>
      </trkpt>
      <trkpt lat="43.40453" lon="-0.38938">
        <ele>213</ele>
        <time>2021-10-14T06:48:05Z</time>
      </trkpt>
      <trkpt lat="43.40452" lon="-0.38936">
        <ele>212.9</ele>
        <time>2021-10-14T06:48:06Z</time>
      </trkpt>
      <trkpt lat="43.40451" lon="-0.38934">
        <ele>214.2</ele>
        <time>2021-10-14T06:48:07Z</time>
      </trkpt>
      <trkpt lat="43.4045" lon="-0.38927">
        <ele>212.9</ele>
        <time>2021-10-14T06:48:10Z</time>
      </trkpt>
      <trkpt lat="43.40449" lon="-0.38923">
        <ele>213.9</ele>
        <time>2021-10-14T06:48:12Z</time>
      </trkpt>
      <trkpt lat="43.40446" lon="-0.38913">
        <ele>215.3</ele>
        <time>2021-10-14T06:48:17Z</time>
      </trkpt>
      <trkpt lat="43.40445" lon="-0.38909">
        <ele>215.9</ele>
        <time>2021-10-14T06:48:19Z</time>
      </trkpt>
      <trkpt lat="43.40444" lon="-0.38903">
        <ele>216.3</ele>
        <time>2021-10-14T06:48:22Z</time>
      </trkpt>
      <trkpt lat="43.40444" lon="-0.38901">
        <ele>216.4</ele>
        <time>2021-10-14T06:48:23Z</time>
      </trkpt>
      <trkpt lat="43.40444" lon="-0.38898">
        <ele>216.5</ele>
        <time>2021-10-14T06:48:24Z</time>
      </trkpt>
      <trkpt lat="43.40443" lon="-0.38896">
        <ele>217.4</ele>
        <time>2021-10-14T06:48:25Z</time>
      </trkpt>
      <trkpt lat="43.40443" lon="-0.38894">
        <ele>217.4</ele>
        <time>2021-10-14T06:48:26Z</time>
      </trkpt>
      <trkpt lat="43.40443" lon="-0.3889">
        <ele>217.1</ele>
        <time>2021-10-14T06:48:28Z</time>
      </trkpt>
      <trkpt lat="43.40443" lon="-0.38884">
        <ele>217.8</ele>
        <time>2021-10-14T06:48:31Z</time>
      </trkpt>
      <trkpt lat="43.40442" lon="-0.38882">
        <ele>218.1</ele>
        <time>2021-10-14T06:48:32Z</time>
      </trkpt>
      <trkpt lat="43.40443" lon="-0.38868">
        <ele>220.4</ele>
        <time>2021-10-14T06:48:39Z</time>
      </trkpt>
      <trkpt lat="43.40443" lon="-0.38866">
        <ele>219.9</ele>
        <time>2021-10-14T06:48:40Z</time>
      </trkpt>
      <trkpt lat="43.40443" lon="-0.38862">
        <ele>219.8</ele>
        <time>2021-10-14T06:48:42Z</time>
      </trkpt>
      <trkpt lat="43.40444" lon="-0.38858">
        <ele>220.6</ele>
        <time>2021-10-14T06:48:44Z</time>
      </trkpt>
      <trkpt lat="43.40444" lon="-0.38852">
        <ele>222.2</ele>
        <time>2021-10-14T06:48:47Z</time>
      </trkpt>
      <trkpt lat="43.40444" lon="-0.3885">
        <ele>222.3</ele>
        <time>2021-10-14T06:48:48Z</time>
      </trkpt>
      <trkpt lat="43.40444" lon="-0.38849">
        <ele>222.7</ele>
        <time>2021-10-14T06:48:49Z</time>
      </trkpt>
      <trkpt lat="43.40445" lon="-0.38847">
        <ele>222.2</ele>
        <time>2021-10-14T06:48:50Z</time>
      </trkpt>
      <trkpt lat="43.40445" lon="-0.38843">
        <ele>223</ele>
        <time>2021-10-14T06:48:52Z</time>
      </trkpt>
      <trkpt lat="43.40445" lon="-0.38842">
        <ele>223.4</ele>
        <time>2021-10-14T06:48:53Z</time>
      </trkpt>
      <trkpt lat="43.40445" lon="-0.3884">
        <ele>223.1</ele>
        <time>2021-10-14T06:48:54Z</time>
      </trkpt>
      <trkpt lat="43.40445" lon="-0.38839">
        <ele>223</ele>
        <time>2021-10-14T06:48:55Z</time>
      </trkpt>
      <trkpt lat="43.40446" lon="-0.38837">
        <ele>223.2</ele>
        <time>2021-10-14T06:48:56Z</time>
      </trkpt>
      <trkpt lat="43.40446" lon="-0.38837">
        <ele>222.5</ele>
        <time>2021-10-14T06:48:57Z</time>
      </trkpt>
      <trkpt lat="43.40447" lon="-0.38835">
        <ele>223.3</ele>
        <time>2021-10-14T06:48:58Z</time>
      </trkpt>
      <trkpt lat="43.40448" lon="-0.38833">
        <ele>223.1</ele>
        <time>2021-10-14T06:48:59Z</time>
      </trkpt>
      <trkpt lat="43.40455" lon="-0.38819">
        <ele>224.2</ele>
        <time>2021-10-14T06:49:06Z</time>
      </trkpt>
      <trkpt lat="43.40456" lon="-0.38818">
        <ele>224.1</ele>
        <time>2021-10-14T06:49:07Z</time>
      </trkpt>
      <trkpt lat="43.40458" lon="-0.38814">
        <ele>224.2</ele>
        <time>2021-10-14T06:49:09Z</time>
      </trkpt>
      <trkpt lat="43.40459" lon="-0.38812">
        <ele>223.9</ele>
        <time>2021-10-14T06:49:10Z</time>
      </trkpt>
      <trkpt lat="43.40461" lon="-0.38805">
        <ele>224.7</ele>
        <time>2021-10-14T06:49:13Z</time>
      </trkpt>
      <trkpt lat="43.40462" lon="-0.38803">
        <ele>224.7</ele>
        <time>2021-10-14T06:49:14Z</time>
      </trkpt>
      <trkpt lat="43.40462" lon="-0.38801">
        <ele>225.2</ele>
        <time>2021-10-14T06:49:15Z</time>
      </trkpt>
      <trkpt lat="43.40465" lon="-0.38796">
        <ele>226</ele>
        <time>2021-10-14T06:49:18Z</time>
      </trkpt>
      <trkpt lat="43.40466" lon="-0.38793">
        <ele>226.1</ele>
        <time>2021-10-14T06:49:19Z</time>
      </trkpt>
      <trkpt lat="43.40466" lon="-0.38791">
        <ele>226</ele>
        <time>2021-10-14T06:49:20Z</time>
      </trkpt>
      <trkpt lat="43.40465" lon="-0.38788">
        <ele>226.7</ele>
        <time>2021-10-14T06:49:21Z</time>
      </trkpt>
      <trkpt lat="43.40466" lon="-0.38789">
        <ele>226.1</ele>
        <time>2021-10-14T06:49:22Z</time>
      </trkpt>
      <trkpt lat="43.40465" lon="-0.38788">
        <ele>226.2</ele>
        <time>2021-10-14T06:49:23Z</time>
      </trkpt>
      <trkpt lat="43.40464" lon="-0.38787">
        <ele>226.1</ele>
        <time>2021-10-14T06:49:24Z</time>
      </trkpt>
      <trkpt lat="43.40464" lon="-0.38787">
        <ele>226.9</ele>
        <time>2021-10-14T06:49:25Z</time>
      </trkpt>
      <trkpt lat="43.40464" lon="-0.38787">
        <ele>227.5</ele>
        <time>2021-10-14T06:49:26Z</time>
      </trkpt>
      <trkpt lat="43.40464" lon="-0.38787">
        <ele>226.7</ele>
        <time>2021-10-14T06:49:41Z</time>
      </trkpt>
      <trkpt lat="43.40464" lon="-0.38787">
        <ele>227.3</ele>
        <time>2021-10-14T06:50:02Z</time>
      </trkpt>
      <trkpt lat="43.40464" lon="-0.38787">
        <ele>227</ele>
        <time>2021-10-14T06:50:03Z</time>
      </trkpt>
      <trkpt lat="43.40464" lon="-0.38787">
        <ele>227.7</ele>
        <time>2021-10-14T06:50:04Z</time>
      </trkpt>
      <trkpt lat="43.40464" lon="-0.38787">
        <ele>226.9</ele>
        <time>2021-10-14T06:50:05Z</time>
      </trkpt>
      <trkpt lat="43.40464" lon="-0.38787">
        <ele>226.8</ele>
        <time>2021-10-14T06:50:06Z</time>
      </trkpt>
      <trkpt lat="43.40464" lon="-0.38787">
        <ele>227.2</ele>
        <time>2021-10-14T06:50:07Z</time>
      </trkpt>
      <trkpt lat="43.40464" lon="-0.38788">
        <ele>227.8</ele>
        <time>2021-10-14T06:50:14Z</time>
      </trkpt>
      <trkpt lat="43.40464" lon="-0.38789">
        <ele>227.8</ele>
        <time>2021-10-14T06:50:15Z</time>
      </trkpt>
      <trkpt lat="43.40465" lon="-0.3879">
        <ele>227.5</ele>
        <time>2021-10-14T06:50:16Z</time>
      </trkpt>
      <trkpt lat="43.40466" lon="-0.38792">
        <ele>228.5</ele>
        <time>2021-10-14T06:50:18Z</time>
      </trkpt>
      <trkpt lat="43.40466" lon="-0.38793">
        <ele>228.3</ele>
        <time>2021-10-14T06:50:19Z</time>
      </trkpt>
      <trkpt lat="43.40466" lon="-0.38793">
        <ele>226.9</ele>
        <time>2021-10-14T06:50:20Z</time>
      </trkpt>
      <trkpt lat="43.40466" lon="-0.38793">
        <ele>227.6</ele>
        <time>2021-10-14T06:50:21Z</time>
      </trkpt>
      <trkpt lat="43.40466" lon="-0.38793">
        <ele>227</ele>
        <time>2021-10-14T06:50:22Z</time>
      </trkpt>
      <trkpt lat="43.40466" lon="-0.38793">
        <ele>226.6</ele>
        <time>2021-10-14T06:50:23Z</time>
      </trkpt>
      <trkpt lat="43.40465" lon="-0.38793">
        <ele>226.2</ele>
        <time>2021-10-14T06:50:24Z</time>
      </trkpt>
      <trkpt lat="43.40464" lon="-0.38792">
        <ele>225.7</ele>
        <time>2021-10-14T06:50:25Z</time>
      </trkpt>
      <trkpt lat="43.40464" lon="-0.3879">
        <ele>227</ele>
        <time>2021-10-14T06:50:26Z</time>
      </trkpt>
      <trkpt lat="43.40465" lon="-0.38789">
        <ele>227.3</ele>
        <time>2021-10-14T06:50:27Z</time>
      </trkpt>
      <trkpt lat="43.40464" lon="-0.38789">
        <ele>226.9</ele>
        <time>2021-10-14T06:50:28Z</time>
      </trkpt>
      <trkpt lat="43.40464" lon="-0.38789">
        <ele>227.1</ele>
        <time>2021-10-14T06:50:30Z</time>
      </trkpt>
      <trkpt lat="43.40464" lon="-0.38789">
        <ele>228.1</ele>
        <time>2021-10-14T06:50:31Z</time>
      </trkpt>
      <trkpt lat="43.40464" lon="-0.38789">
        <ele>227.9</ele>
        <time>2021-10-14T06:50:32Z</time>
      </trkpt>
      <trkpt lat="43.40463" lon="-0.38789">
        <ele>227.7</ele>
        <time>2021-10-14T06:50:33Z</time>
      </trkpt>
      <trkpt lat="43.40463" lon="-0.38789">
        <ele>228</ele>
        <time>2021-10-14T06:50:34Z</time>
      </trkpt>
      <trkpt lat="43.40463" lon="-0.38789">
        <ele>228.4</ele>
        <time>2021-10-14T06:50:35Z</time>
      </trkpt>
      <trkpt lat="43.40463" lon="-0.38789">
        <ele>228</ele>
        <time>2021-10-14T06:50:36Z</time>
      </trkpt>
      <trkpt lat="43.40463" lon="-0.38789">
        <ele>228</ele>
        <time>2021-10-14T06:50:37Z</time>
      </trkpt>
      <trkpt lat="43.40463" lon="-0.38789">
        <ele>228.1</ele>
        <time>2021-10-14T06:50:39Z</time>
      </trkpt>
      <trkpt lat="43.40463" lon="-0.38789">
        <ele>228.3</ele>
        <time>2021-10-14T06:50:40Z</time>
      </trkpt>
      <trkpt lat="43.40463" lon="-0.38789">
        <ele>228</ele>
        <time>2021-10-14T06:50:42Z</time>
      </trkpt>
      <trkpt lat="43.40463" lon="-0.38789">
        <ele>228.2</ele>
        <time>2021-10-14T06:51:56Z</time>
      </trkpt>
      <trkpt lat="43.40464" lon="-0.38789">
        <ele>227.8</ele>
        <time>2021-10-14T06:51:57Z</time>
      </trkpt>
      <trkpt lat="43.40464" lon="-0.38789">
        <ele>227.9</ele>
        <time>2021-10-14T06:51:58Z</time>
      </trkpt>
      <trkpt lat="43.40464" lon="-0.38789">
        <ele>227.9</ele>
        <time>2021-10-14T06:51:59Z</time>
      </trkpt>
      <trkpt lat="43.40464" lon="-0.38789">
        <ele>228.3</ele>
        <time>2021-10-14T06:52:00Z</time>
      </trkpt>
      <trkpt lat="43.40464" lon="-0.38789">
        <ele>227.5</ele>
        <time>2021-10-14T06:52:02Z</time>
      </trkpt>
      <trkpt lat="43.40464" lon="-0.38789">
        <ele>228.3</ele>
        <time>2021-10-14T06:52:36Z</time>
      </trkpt>
      <trkpt lat="43.40464" lon="-0.38789">
        <ele>228.1</ele>
        <time>2021-10-14T06:52:38Z</time>
      </trkpt>
      <trkpt lat="43.40464" lon="-0.38789">
        <ele>228</ele>
        <time>2021-10-14T06:52:39Z</time>
      </trkpt>
      <trkpt lat="43.40464" lon="-0.38789">
        <ele>227.8</ele>
        <time>2021-10-14T06:52:40Z</time>
      </trkpt>
      <trkpt lat="43.40464" lon="-0.38789">
        <ele>227.9</ele>
        <time>2021-10-14T06:52:41Z</time>
      </trkpt>
      <trkpt lat="43.40464" lon="-0.3879">
        <ele>228</ele>
        <time>2021-10-14T06:53:02Z</time>
      </trkpt>
      <trkpt lat="43.40464" lon="-0.3879">
        <ele>228.1</ele>
        <time>2021-10-14T06:53:03Z</time>
      </trkpt>
      <trkpt lat="43.40464" lon="-0.3879">
        <ele>227.8</ele>
        <time>2021-10-14T06:53:04Z</time>
      </trkpt>
      <trkpt lat="43.40464" lon="-0.3879">
        <ele>228.6</ele>
        <time>2021-10-14T06:53:05Z</time>
      </trkpt>
      <trkpt lat="43.40464" lon="-0.3879">
        <ele>228.2</ele>
        <time>2021-10-14T06:53:07Z</time>
      </trkpt>
      <trkpt lat="43.40464" lon="-0.3879">
        <ele>227.9</ele>
        <time>2021-10-14T06:53:08Z</time>
      </trkpt>
      <trkpt lat="43.40464" lon="-0.3879">
        <ele>228.6</ele>
        <time>2021-10-14T06:53:10Z</time>
      </trkpt>
      <trkpt lat="43.40464" lon="-0.3879">
        <ele>227.8</ele>
        <time>2021-10-14T06:53:11Z</time>
      </trkpt>
      <trkpt lat="43.40464" lon="-0.3879">
        <ele>228.8</ele>
        <time>2021-10-14T06:53:12Z</time>
      </trkpt>
      <trkpt lat="43.40464" lon="-0.38789">
        <ele>230.4</ele>
        <time>2021-10-14T06:53:13Z</time>
      </trkpt>
      <trkpt lat="43.40464" lon="-0.38789">
        <ele>230.2</ele>
        <time>2021-10-14T06:53:14Z</time>
      </trkpt>
      <trkpt lat="43.40464" lon="-0.38789">
        <ele>230.4</ele>
        <time>2021-10-14T06:53:15Z</time>
      </trkpt>
      <trkpt lat="43.40464" lon="-0.38789">
        <ele>230.2</ele>
        <time>2021-10-14T06:53:16Z</time>
      </trkpt>
      <trkpt lat="43.40465" lon="-0.38789">
        <ele>229.6</ele>
        <time>2021-10-14T06:53:17Z</time>
      </trkpt>
      <trkpt lat="43.40465" lon="-0.38789">
        <ele>229.9</ele>
        <time>2021-10-14T06:53:19Z</time>
      </trkpt>
      <trkpt lat="43.40465" lon="-0.38789">
        <ele>230</ele>
        <time>2021-10-14T06:53:20Z</time>
      </trkpt>
      <trkpt lat="43.40465" lon="-0.38789">
        <ele>230.3</ele>
        <time>2021-10-14T06:55:06Z</time>
      </trkpt>
      <trkpt lat="43.40464" lon="-0.38787">
        <ele>230.9</ele>
        <time>2021-10-14T06:55:07Z</time>
      </trkpt>
      <trkpt lat="43.40464" lon="-0.38786">
        <ele>231.1</ele>
        <time>2021-10-14T06:55:08Z</time>
      </trkpt>
      <trkpt lat="43.40464" lon="-0.38785">
        <ele>231</ele>
        <time>2021-10-14T06:55:09Z</time>
      </trkpt>
      <trkpt lat="43.40464" lon="-0.38785">
        <ele>230.7</ele>
        <time>2021-10-14T06:55:10Z</time>
      </trkpt>
      <trkpt lat="43.40464" lon="-0.38784">
        <ele>230.6</ele>
        <time>2021-10-14T06:55:11Z</time>
      </trkpt>
      <trkpt lat="43.40463" lon="-0.38782">
        <ele>230.6</ele>
        <time>2021-10-14T06:55:12Z</time>
      </trkpt>
      <trkpt lat="43.40462" lon="-0.38781">
        <ele>231.1</ele>
        <time>2021-10-14T06:55:13Z</time>
      </trkpt>
      <trkpt lat="43.40461" lon="-0.38781">
        <ele>231.1</ele>
        <time>2021-10-14T06:55:14Z</time>
      </trkpt>
      <trkpt lat="43.40461" lon="-0.38781">
        <ele>232.1</ele>
        <time>2021-10-14T06:55:15Z</time>
      </trkpt>
      <trkpt lat="43.40462" lon="-0.38781">
        <ele>232.1</ele>
        <time>2021-10-14T06:55:16Z</time>
      </trkpt>
      <trkpt lat="43.40461" lon="-0.38779">
        <ele>232.2</ele>
        <time>2021-10-14T06:55:17Z</time>
      </trkpt>
      <trkpt lat="43.40459" lon="-0.38778">
        <ele>232.8</ele>
        <time>2021-10-14T06:55:18Z</time>
      </trkpt>
      <trkpt lat="43.40458" lon="-0.38776">
        <ele>232.1</ele>
        <time>2021-10-14T06:55:19Z</time>
      </trkpt>
      <trkpt lat="43.40456" lon="-0.38774">
        <ele>230.7</ele>
        <time>2021-10-14T06:55:20Z</time>
      </trkpt>
      <trkpt lat="43.40452" lon="-0.38766">
        <ele>229.9</ele>
        <time>2021-10-14T06:55:24Z</time>
      </trkpt>
      <trkpt lat="43.40451" lon="-0.38764">
        <ele>229.8</ele>
        <time>2021-10-14T06:55:25Z</time>
      </trkpt>
      <trkpt lat="43.40449" lon="-0.38762">
        <ele>229.9</ele>
        <time>2021-10-14T06:55:26Z</time>
      </trkpt>
      <trkpt lat="43.40447" lon="-0.38761">
        <ele>229.9</ele>
        <time>2021-10-14T06:55:27Z</time>
      </trkpt>
      <trkpt lat="43.40444" lon="-0.38757">
        <ele>229.4</ele>
        <time>2021-10-14T06:55:29Z</time>
      </trkpt>
      <trkpt lat="43.4044" lon="-0.38751">
        <ele>229.9</ele>
        <time>2021-10-14T06:55:32Z</time>
      </trkpt>
      <trkpt lat="43.40435" lon="-0.38746">
        <ele>230.8</ele>
        <time>2021-10-14T06:55:36Z</time>
      </trkpt>
      <trkpt lat="43.40434" lon="-0.38745">
        <ele>230.2</ele>
        <time>2021-10-14T06:55:37Z</time>
      </trkpt>
      <trkpt lat="43.40433" lon="-0.38743">
        <ele>230.2</ele>
        <time>2021-10-14T06:55:38Z</time>
      </trkpt>
      <trkpt lat="43.40432" lon="-0.38741">
        <ele>230.1</ele>
        <time>2021-10-14T06:55:39Z</time>
      </trkpt>
      <trkpt lat="43.40431" lon="-0.38739">
        <ele>229.8</ele>
        <time>2021-10-14T06:55:40Z</time>
      </trkpt>
      <trkpt lat="43.40429" lon="-0.38733">
        <ele>229.2</ele>
        <time>2021-10-14T06:55:42Z</time>
      </trkpt>
      <trkpt lat="43.40428" lon="-0.3873">
        <ele>227.7</ele>
        <time>2021-10-14T06:55:43Z</time>
      </trkpt>
      <trkpt lat="43.40429" lon="-0.38727">
        <ele>227.9</ele>
        <time>2021-10-14T06:55:44Z</time>
      </trkpt>
      <trkpt lat="43.4043" lon="-0.38724">
        <ele>227.4</ele>
        <time>2021-10-14T06:55:45Z</time>
      </trkpt>
      <trkpt lat="43.40432" lon="-0.38722">
        <ele>228.6</ele>
        <time>2021-10-14T06:55:46Z</time>
      </trkpt>
      <trkpt lat="43.40436" lon="-0.38719">
        <ele>229.2</ele>
        <time>2021-10-14T06:55:48Z</time>
      </trkpt>
      <trkpt lat="43.40449" lon="-0.38708">
        <ele>225.4</ele>
        <time>2021-10-14T06:55:53Z</time>
      </trkpt>
      <trkpt lat="43.40451" lon="-0.38706">
        <ele>226.1</ele>
        <time>2021-10-14T06:55:54Z</time>
      </trkpt>
      <trkpt lat="43.40457" lon="-0.387">
        <ele>227</ele>
        <time>2021-10-14T06:55:56Z</time>
      </trkpt>
      <trkpt lat="43.40466" lon="-0.38687">
        <ele>226.6</ele>
        <time>2021-10-14T06:56:00Z</time>
      </trkpt>
      <trkpt lat="43.40467" lon="-0.38685">
        <ele>227.2</ele>
        <time>2021-10-14T06:56:01Z</time>
      </trkpt>
      <trkpt lat="43.40467" lon="-0.38685">
        <ele>226.9</ele>
        <time>2021-10-14T06:56:02Z</time>
      </trkpt>
      <trkpt lat="43.40466" lon="-0.38685">
        <ele>227.2</ele>
        <time>2021-10-14T06:56:03Z</time>
      </trkpt>
      <trkpt lat="43.4047" lon="-0.38675">
        <ele>226.8</ele>
        <time>2021-10-14T06:56:07Z</time>
      </trkpt>
      <trkpt lat="43.40488" lon="-0.38641">
        <ele>226.1</ele>
        <time>2021-10-14T06:56:15Z</time>
      </trkpt>
      <trkpt lat="43.40508" lon="-0.38592">
        <ele>225.4</ele>
        <time>2021-10-14T06:56:25Z</time>
      </trkpt>
      <trkpt lat="43.40513" lon="-0.38583">
        <ele>226.7</ele>
        <time>2021-10-14T06:56:27Z</time>
      </trkpt>
      <trkpt lat="43.40513" lon="-0.38582">
        <ele>226.9</ele>
        <time>2021-10-14T06:56:28Z</time>
      </trkpt>
      <trkpt lat="43.40516" lon="-0.38577">
        <ele>226.8</ele>
        <time>2021-10-14T06:56:29Z</time>
      </trkpt>
      <trkpt lat="43.40519" lon="-0.38572">
        <ele>226.8</ele>
        <time>2021-10-14T06:56:30Z</time>
      </trkpt>
      <trkpt lat="43.40529" lon="-0.38543">
        <ele>227.1</ele>
        <time>2021-10-14T06:56:36Z</time>
      </trkpt>
      <trkpt lat="43.4053" lon="-0.3854">
        <ele>227.4</ele>
        <time>2021-10-14T06:56:37Z</time>
      </trkpt>
      <trkpt lat="43.40531" lon="-0.38536">
        <ele>227.1</ele>
        <time>2021-10-14T06:56:38Z</time>
      </trkpt>
      <trkpt lat="43.40531" lon="-0.38532">
        <ele>227.3</ele>
        <time>2021-10-14T06:56:39Z</time>
      </trkpt>
      <trkpt lat="43.40531" lon="-0.38529">
        <ele>226.6</ele>
        <time>2021-10-14T06:56:40Z</time>
      </trkpt>
      <trkpt lat="43.40531" lon="-0.38526">
        <ele>227</ele>
        <time>2021-10-14T06:56:41Z</time>
      </trkpt>
      <trkpt lat="43.40534" lon="-0.38523">
        <ele>226.9</ele>
        <time>2021-10-14T06:56:43Z</time>
      </trkpt>
      <trkpt lat="43.40535" lon="-0.38521">
        <ele>227</ele>
        <time>2021-10-14T06:56:44Z</time>
      </trkpt>
      <trkpt lat="43.40535" lon="-0.38518">
        <ele>226.5</ele>
        <time>2021-10-14T06:56:45Z</time>
      </trkpt>
      <trkpt lat="43.40536" lon="-0.38515">
        <ele>227.3</ele>
        <time>2021-10-14T06:56:46Z</time>
      </trkpt>
      <trkpt lat="43.40536" lon="-0.38512">
        <ele>227</ele>
        <time>2021-10-14T06:56:47Z</time>
      </trkpt>
      <trkpt lat="43.40542" lon="-0.38498">
        <ele>226.9</ele>
        <time>2021-10-14T06:56:51Z</time>
      </trkpt>
      <trkpt lat="43.40541" lon="-0.38496">
        <ele>227.2</ele>
        <time>2021-10-14T06:56:52Z</time>
      </trkpt>
      <trkpt lat="43.40547" lon="-0.38484">
        <ele>227.2</ele>
        <time>2021-10-14T06:56:55Z</time>
      </trkpt>
      <trkpt lat="43.4055" lon="-0.3848">
        <ele>227</ele>
        <time>2021-10-14T06:56:56Z</time>
      </trkpt>
      <trkpt lat="43.40569" lon="-0.38445">
        <ele>229.1</ele>
        <time>2021-10-14T06:57:06Z</time>
      </trkpt>
      <trkpt lat="43.40581" lon="-0.38417">
        <ele>230.1</ele>
        <time>2021-10-14T06:57:13Z</time>
      </trkpt>
      <trkpt lat="43.40585" lon="-0.38404">
        <ele>230.2</ele>
        <time>2021-10-14T06:57:16Z</time>
      </trkpt>
      <trkpt lat="43.40586" lon="-0.38405">
        <ele>230</ele>
        <time>2021-10-14T06:57:17Z</time>
      </trkpt>
      <trkpt lat="43.40587" lon="-0.38399">
        <ele>230.5</ele>
        <time>2021-10-14T06:57:18Z</time>
      </trkpt>
      <trkpt lat="43.40587" lon="-0.38394">
        <ele>231.3</ele>
        <time>2021-10-14T06:57:19Z</time>
      </trkpt>
      <trkpt lat="43.40581" lon="-0.38337">
        <ele>230.8</ele>
        <time>2021-10-14T06:57:29Z</time>
      </trkpt>
      <trkpt lat="43.40578" lon="-0.38321">
        <ele>229.9</ele>
        <time>2021-10-14T06:57:32Z</time>
      </trkpt>
      <trkpt lat="43.40577" lon="-0.38312">
        <ele>230.3</ele>
        <time>2021-10-14T06:57:34Z</time>
      </trkpt>
      <trkpt lat="43.40577" lon="-0.38308">
        <ele>230.4</ele>
        <time>2021-10-14T06:57:35Z</time>
      </trkpt>
      <trkpt lat="43.40579" lon="-0.38305">
        <ele>229.9</ele>
        <time>2021-10-14T06:57:36Z</time>
      </trkpt>
      <trkpt lat="43.40582" lon="-0.38303">
        <ele>231.1</ele>
        <time>2021-10-14T06:57:37Z</time>
      </trkpt>
      <trkpt lat="43.40586" lon="-0.38305">
        <ele>231</ele>
        <time>2021-10-14T06:57:38Z</time>
      </trkpt>
      <trkpt lat="43.40589" lon="-0.38308">
        <ele>231.4</ele>
        <time>2021-10-14T06:57:39Z</time>
      </trkpt>
      <trkpt lat="43.40591" lon="-0.38309">
        <ele>230.8</ele>
        <time>2021-10-14T06:57:40Z</time>
      </trkpt>
      <trkpt lat="43.40595" lon="-0.3831">
        <ele>230.7</ele>
        <time>2021-10-14T06:57:41Z</time>
      </trkpt>
      <trkpt lat="43.40602" lon="-0.38308">
        <ele>229.5</ele>
        <time>2021-10-14T06:57:44Z</time>
      </trkpt>
      <trkpt lat="43.40608" lon="-0.38305">
        <ele>230.1</ele>
        <time>2021-10-14T06:57:47Z</time>
      </trkpt>
      <trkpt lat="43.4061" lon="-0.38305">
        <ele>229.7</ele>
        <time>2021-10-14T06:57:48Z</time>
      </trkpt>
      <trkpt lat="43.40612" lon="-0.38304">
        <ele>229.1</ele>
        <time>2021-10-14T06:57:49Z</time>
      </trkpt>
      <trkpt lat="43.4062" lon="-0.38303">
        <ele>229.1</ele>
        <time>2021-10-14T06:57:54Z</time>
      </trkpt>
      <trkpt lat="43.4062" lon="-0.38303">
        <ele>229.2</ele>
        <time>2021-10-14T06:57:55Z</time>
      </trkpt>
      <trkpt lat="43.4062" lon="-0.38302">
        <ele>228.4</ele>
        <time>2021-10-14T06:57:56Z</time>
      </trkpt>
      <trkpt lat="43.4062" lon="-0.38302">
        <ele>227.9</ele>
        <time>2021-10-14T06:57:57Z</time>
      </trkpt>
      <trkpt lat="43.4062" lon="-0.38302">
        <ele>228.1</ele>
        <time>2021-10-14T06:57:58Z</time>
      </trkpt>
      <trkpt lat="43.4062" lon="-0.38302">
        <ele>227.6</ele>
        <time>2021-10-14T06:57:59Z</time>
      </trkpt>
      <trkpt lat="43.40619" lon="-0.38302">
        <ele>228.1</ele>
        <time>2021-10-14T06:58:00Z</time>
      </trkpt>
      <trkpt lat="43.4062" lon="-0.38302">
        <ele>227.9</ele>
        <time>2021-10-14T06:58:01Z</time>
      </trkpt>
      <trkpt lat="43.4062" lon="-0.38302">
        <ele>228.8</ele>
        <time>2021-10-14T06:58:02Z</time>
      </trkpt>
      <trkpt lat="43.40626" lon="-0.383">
        <ele>228.3</ele>
        <time>2021-10-14T06:58:05Z</time>
      </trkpt>
      <trkpt lat="43.40649" lon="-0.38297">
        <ele>227.4</ele>
        <time>2021-10-14T06:58:11Z</time>
      </trkpt>
      <trkpt lat="43.40669" lon="-0.38287">
        <ele>224.9</ele>
        <time>2021-10-14T06:58:16Z</time>
      </trkpt>
      <trkpt lat="43.40677" lon="-0.38285">
        <ele>225.2</ele>
        <time>2021-10-14T06:58:18Z</time>
      </trkpt>
      <trkpt lat="43.40681" lon="-0.38283">
        <ele>224.8</ele>
        <time>2021-10-14T06:58:19Z</time>
      </trkpt>
      <trkpt lat="43.40683" lon="-0.3828">
        <ele>225.2</ele>
        <time>2021-10-14T06:58:20Z</time>
      </trkpt>
      <trkpt lat="43.40687" lon="-0.38276">
        <ele>225.1</ele>
        <time>2021-10-14T06:58:21Z</time>
      </trkpt>
      <trkpt lat="43.4069" lon="-0.38271">
        <ele>224.1</ele>
        <time>2021-10-14T06:58:22Z</time>
      </trkpt>
      <trkpt lat="43.40703" lon="-0.38229">
        <ele>224.2</ele>
        <time>2021-10-14T06:58:30Z</time>
      </trkpt>
      <trkpt lat="43.40704" lon="-0.38222">
        <ele>224.4</ele>
        <time>2021-10-14T06:58:32Z</time>
      </trkpt>
      <trkpt lat="43.40704" lon="-0.38219">
        <ele>224</ele>
        <time>2021-10-14T06:58:33Z</time>
      </trkpt>
      <trkpt lat="43.40707" lon="-0.38214">
        <ele>224.7</ele>
        <time>2021-10-14T06:58:35Z</time>
      </trkpt>
      <trkpt lat="43.40712" lon="-0.38196">
        <ele>226.2</ele>
        <time>2021-10-14T06:58:42Z</time>
      </trkpt>
      <trkpt lat="43.40713" lon="-0.38189">
        <ele>227.2</ele>
        <time>2021-10-14T06:58:45Z</time>
      </trkpt>
      <trkpt lat="43.40713" lon="-0.38184">
        <ele>227.6</ele>
        <time>2021-10-14T06:58:47Z</time>
      </trkpt>
      <trkpt lat="43.40713" lon="-0.38182">
        <ele>227.6</ele>
        <time>2021-10-14T06:58:48Z</time>
      </trkpt>
      <trkpt lat="43.40723" lon="-0.38146">
        <ele>230.8</ele>
        <time>2021-10-14T06:59:03Z</time>
      </trkpt>
      <trkpt lat="43.40727" lon="-0.38122">
        <ele>231.3</ele>
        <time>2021-10-14T06:59:12Z</time>
      </trkpt>
      <trkpt lat="43.4073" lon="-0.38108">
        <ele>232.2</ele>
        <time>2021-10-14T06:59:17Z</time>
      </trkpt>
      <trkpt lat="43.40737" lon="-0.38087">
        <ele>234.2</ele>
        <time>2021-10-14T06:59:25Z</time>
      </trkpt>
      <trkpt lat="43.40738" lon="-0.38085">
        <ele>234.2</ele>
        <time>2021-10-14T06:59:26Z</time>
      </trkpt>
      <trkpt lat="43.40748" lon="-0.38055">
        <ele>235.6</ele>
        <time>2021-10-14T06:59:37Z</time>
      </trkpt>
      <trkpt lat="43.4075" lon="-0.38047">
        <ele>235.9</ele>
        <time>2021-10-14T06:59:40Z</time>
      </trkpt>
      <trkpt lat="43.4075" lon="-0.38045">
        <ele>236.5</ele>
        <time>2021-10-14T06:59:41Z</time>
      </trkpt>
      <trkpt lat="43.40759" lon="-0.38028">
        <ele>236.2</ele>
        <time>2021-10-14T06:59:49Z</time>
      </trkpt>
      <trkpt lat="43.40759" lon="-0.38026">
        <ele>236.7</ele>
        <time>2021-10-14T06:59:50Z</time>
      </trkpt>
      <trkpt lat="43.4076" lon="-0.38023">
        <ele>235.7</ele>
        <time>2021-10-14T06:59:51Z</time>
      </trkpt>
      <trkpt lat="43.4076" lon="-0.3802">
        <ele>236.4</ele>
        <time>2021-10-14T06:59:52Z</time>
      </trkpt>
      <trkpt lat="43.4076" lon="-0.38018">
        <ele>236.6</ele>
        <time>2021-10-14T06:59:53Z</time>
      </trkpt>
      <trkpt lat="43.4076" lon="-0.38014">
        <ele>237</ele>
        <time>2021-10-14T06:59:55Z</time>
      </trkpt>
      <trkpt lat="43.40759" lon="-0.38012">
        <ele>238.2</ele>
        <time>2021-10-14T06:59:56Z</time>
      </trkpt>
      <trkpt lat="43.40758" lon="-0.38011">
        <ele>236.7</ele>
        <time>2021-10-14T06:59:57Z</time>
      </trkpt>
      <trkpt lat="43.40757" lon="-0.38008">
        <ele>237.4</ele>
        <time>2021-10-14T06:59:59Z</time>
      </trkpt>
      <trkpt lat="43.40754" lon="-0.38005">
        <ele>236.2</ele>
        <time>2021-10-14T07:00:01Z</time>
      </trkpt>
      <trkpt lat="43.40753" lon="-0.38004">
        <ele>236.2</ele>
        <time>2021-10-14T07:00:02Z</time>
      </trkpt>
      <trkpt lat="43.40752" lon="-0.38003">
        <ele>235.5</ele>
        <time>2021-10-14T07:00:03Z</time>
      </trkpt>
      <trkpt lat="43.40752" lon="-0.38002">
        <ele>236.1</ele>
        <time>2021-10-14T07:00:04Z</time>
      </trkpt>
      <trkpt lat="43.40753" lon="-0.38">
        <ele>235.8</ele>
        <time>2021-10-14T07:00:05Z</time>
      </trkpt>
      <trkpt lat="43.4076" lon="-0.37999">
        <ele>237.4</ele>
        <time>2021-10-14T07:00:09Z</time>
      </trkpt>
      <trkpt lat="43.40762" lon="-0.37998">
        <ele>236.4</ele>
        <time>2021-10-14T07:00:11Z</time>
      </trkpt>
      <trkpt lat="43.40762" lon="-0.37999">
        <ele>237.9</ele>
        <time>2021-10-14T07:00:12Z</time>
      </trkpt>
      <trkpt lat="43.40765" lon="-0.37998">
        <ele>237.3</ele>
        <time>2021-10-14T07:00:14Z</time>
      </trkpt>
      <trkpt lat="43.4077" lon="-0.37998">
        <ele>237</ele>
        <time>2021-10-14T07:00:17Z</time>
      </trkpt>
      <trkpt lat="43.40771" lon="-0.37997">
        <ele>238.1</ele>
        <time>2021-10-14T07:00:18Z</time>
      </trkpt>
      <trkpt lat="43.40772" lon="-0.37996">
        <ele>239.4</ele>
        <time>2021-10-14T07:00:19Z</time>
      </trkpt>
      <trkpt lat="43.40773" lon="-0.37996">
        <ele>239</ele>
        <time>2021-10-14T07:00:20Z</time>
      </trkpt>
      <trkpt lat="43.40774" lon="-0.37995">
        <ele>238.9</ele>
        <time>2021-10-14T07:00:21Z</time>
      </trkpt>
      <trkpt lat="43.40776" lon="-0.37994">
        <ele>240.2</ele>
        <time>2021-10-14T07:00:24Z</time>
      </trkpt>
      <trkpt lat="43.40777" lon="-0.37994">
        <ele>241.4</ele>
        <time>2021-10-14T07:00:25Z</time>
      </trkpt>
      <trkpt lat="43.40778" lon="-0.37993">
        <ele>242</ele>
        <time>2021-10-14T07:00:26Z</time>
      </trkpt>
      <trkpt lat="43.40779" lon="-0.37993">
        <ele>242.1</ele>
        <time>2021-10-14T07:00:27Z</time>
      </trkpt>
      <trkpt lat="43.4078" lon="-0.37992">
        <ele>242.2</ele>
        <time>2021-10-14T07:00:28Z</time>
      </trkpt>
      <trkpt lat="43.40781" lon="-0.37992">
        <ele>242.4</ele>
        <time>2021-10-14T07:00:29Z</time>
      </trkpt>
      <trkpt lat="43.40783" lon="-0.37992">
        <ele>242.1</ele>
        <time>2021-10-14T07:00:30Z</time>
      </trkpt>
      <trkpt lat="43.40787" lon="-0.37988">
        <ele>244.5</ele>
        <time>2021-10-14T07:00:34Z</time>
      </trkpt>
      <trkpt lat="43.40788" lon="-0.37988">
        <ele>244.6</ele>
        <time>2021-10-14T07:00:35Z</time>
      </trkpt>
      <trkpt lat="43.40789" lon="-0.37987">
        <ele>244.6</ele>
        <time>2021-10-14T07:00:36Z</time>
      </trkpt>
      <trkpt lat="43.40789" lon="-0.37985">
        <ele>244.7</ele>
        <time>2021-10-14T07:00:37Z</time>
      </trkpt>
      <trkpt lat="43.40789" lon="-0.37984">
        <ele>245.8</ele>
        <time>2021-10-14T07:00:38Z</time>
      </trkpt>
      <trkpt lat="43.40789" lon="-0.37984">
        <ele>245.2</ele>
        <time>2021-10-14T07:00:39Z</time>
      </trkpt>
      <trkpt lat="43.4079" lon="-0.37983">
        <ele>245</ele>
        <time>2021-10-14T07:00:40Z</time>
      </trkpt>
      <trkpt lat="43.40791" lon="-0.3798">
        <ele>243.7</ele>
        <time>2021-10-14T07:00:41Z</time>
      </trkpt>
      <trkpt lat="43.40793" lon="-0.37976">
        <ele>244.7</ele>
        <time>2021-10-14T07:00:43Z</time>
      </trkpt>
      <trkpt lat="43.40795" lon="-0.37972">
        <ele>245.6</ele>
        <time>2021-10-14T07:00:45Z</time>
      </trkpt>
      <trkpt lat="43.40795" lon="-0.37971">
        <ele>245</ele>
        <time>2021-10-14T07:00:46Z</time>
      </trkpt>
      <trkpt lat="43.40796" lon="-0.37966">
        <ele>245.7</ele>
        <time>2021-10-14T07:00:49Z</time>
      </trkpt>
      <trkpt lat="43.40798" lon="-0.37961">
        <ele>246.4</ele>
        <time>2021-10-14T07:00:52Z</time>
      </trkpt>
      <trkpt lat="43.408" lon="-0.37952">
        <ele>248.3</ele>
        <time>2021-10-14T07:00:57Z</time>
      </trkpt>
      <trkpt lat="43.40801" lon="-0.3795">
        <ele>247.8</ele>
        <time>2021-10-14T07:00:58Z</time>
      </trkpt>
      <trkpt lat="43.40802" lon="-0.37947">
        <ele>247.8</ele>
        <time>2021-10-14T07:01:00Z</time>
      </trkpt>
      <trkpt lat="43.40803" lon="-0.37946">
        <ele>248.2</ele>
        <time>2021-10-14T07:01:01Z</time>
      </trkpt>
      <trkpt lat="43.40803" lon="-0.37945">
        <ele>248.4</ele>
        <time>2021-10-14T07:01:02Z</time>
      </trkpt>
      <trkpt lat="43.40803" lon="-0.37944">
        <ele>248.2</ele>
        <time>2021-10-14T07:01:03Z</time>
      </trkpt>
      <trkpt lat="43.40805" lon="-0.37942">
        <ele>248.2</ele>
        <time>2021-10-14T07:01:05Z</time>
      </trkpt>
      <trkpt lat="43.40807" lon="-0.37938">
        <ele>249</ele>
        <time>2021-10-14T07:01:07Z</time>
      </trkpt>
      <trkpt lat="43.40808" lon="-0.37936">
        <ele>250.2</ele>
        <time>2021-10-14T07:01:08Z</time>
      </trkpt>
      <trkpt lat="43.40808" lon="-0.37934">
        <ele>250.1</ele>
        <time>2021-10-14T07:01:09Z</time>
      </trkpt>
      <trkpt lat="43.40809" lon="-0.37932">
        <ele>249</ele>
        <time>2021-10-14T07:01:10Z</time>
      </trkpt>
      <trkpt lat="43.40809" lon="-0.3793">
        <ele>249.3</ele>
        <time>2021-10-14T07:01:11Z</time>
      </trkpt>
      <trkpt lat="43.40809" lon="-0.37929">
        <ele>249.5</ele>
        <time>2021-10-14T07:01:12Z</time>
      </trkpt>
      <trkpt lat="43.40809" lon="-0.37927">
        <ele>248.9</ele>
        <time>2021-10-14T07:01:13Z</time>
      </trkpt>
      <trkpt lat="43.4081" lon="-0.37923">
        <ele>248.7</ele>
        <time>2021-10-14T07:01:15Z</time>
      </trkpt>
      <trkpt lat="43.40811" lon="-0.37921">
        <ele>248.8</ele>
        <time>2021-10-14T07:01:16Z</time>
      </trkpt>
      <trkpt lat="43.40818" lon="-0.37901">
        <ele>247.5</ele>
        <time>2021-10-14T07:01:26Z</time>
      </trkpt>
      <trkpt lat="43.4082" lon="-0.379">
        <ele>246.1</ele>
        <time>2021-10-14T07:01:29Z</time>
      </trkpt>
      <trkpt lat="43.40821" lon="-0.37899">
        <ele>247.3</ele>
        <time>2021-10-14T07:01:30Z</time>
      </trkpt>
      <trkpt lat="43.40823" lon="-0.37898">
        <ele>246.5</ele>
        <time>2021-10-14T07:01:31Z</time>
      </trkpt>
      <trkpt lat="43.40828" lon="-0.37887">
        <ele>247.9</ele>
        <time>2021-10-14T07:01:36Z</time>
      </trkpt>
      <trkpt lat="43.40829" lon="-0.37884">
        <ele>249.6</ele>
        <time>2021-10-14T07:01:38Z</time>
      </trkpt>
      <trkpt lat="43.4083" lon="-0.37882">
        <ele>249.3</ele>
        <time>2021-10-14T07:01:39Z</time>
      </trkpt>
      <trkpt lat="43.40831" lon="-0.37878">
        <ele>250.4</ele>
        <time>2021-10-14T07:01:41Z</time>
      </trkpt>
      <trkpt lat="43.40832" lon="-0.37874">
        <ele>248.8</ele>
        <time>2021-10-14T07:01:43Z</time>
      </trkpt>
      <trkpt lat="43.40833" lon="-0.37871">
        <ele>249.3</ele>
        <time>2021-10-14T07:01:45Z</time>
      </trkpt>
      <trkpt lat="43.40833" lon="-0.37869">
        <ele>250.6</ele>
        <time>2021-10-14T07:01:46Z</time>
      </trkpt>
      <trkpt lat="43.40834" lon="-0.37865">
        <ele>252.9</ele>
        <time>2021-10-14T07:01:48Z</time>
      </trkpt>
      <trkpt lat="43.40834" lon="-0.37863">
        <ele>252.8</ele>
        <time>2021-10-14T07:01:49Z</time>
      </trkpt>
      <trkpt lat="43.40834" lon="-0.37861">
        <ele>253.3</ele>
        <time>2021-10-14T07:01:50Z</time>
      </trkpt>
      <trkpt lat="43.40833" lon="-0.37859">
        <ele>255</ele>
        <time>2021-10-14T07:01:51Z</time>
      </trkpt>
      <trkpt lat="43.40834" lon="-0.37858">
        <ele>255.5</ele>
        <time>2021-10-14T07:01:52Z</time>
      </trkpt>
      <trkpt lat="43.40834" lon="-0.37858">
        <ele>254.4</ele>
        <time>2021-10-14T07:01:53Z</time>
      </trkpt>
      <trkpt lat="43.40834" lon="-0.37857">
        <ele>255.3</ele>
        <time>2021-10-14T07:01:54Z</time>
      </trkpt>
      <trkpt lat="43.40834" lon="-0.37856">
        <ele>255.7</ele>
        <time>2021-10-14T07:01:55Z</time>
      </trkpt>
      <trkpt lat="43.40833" lon="-0.37853">
        <ele>256.5</ele>
        <time>2021-10-14T07:01:56Z</time>
      </trkpt>
      <trkpt lat="43.40832" lon="-0.37851">
        <ele>255.6</ele>
        <time>2021-10-14T07:01:57Z</time>
      </trkpt>
      <trkpt lat="43.40825" lon="-0.37841">
        <ele>256.1</ele>
        <time>2021-10-14T07:02:03Z</time>
      </trkpt>
      <trkpt lat="43.40822" lon="-0.37834">
        <ele>257.8</ele>
        <time>2021-10-14T07:02:08Z</time>
      </trkpt>
      <trkpt lat="43.40815" lon="-0.37814">
        <ele>258.9</ele>
        <time>2021-10-14T07:02:20Z</time>
      </trkpt>
      <trkpt lat="43.40814" lon="-0.37813">
        <ele>259.5</ele>
        <time>2021-10-14T07:02:21Z</time>
      </trkpt>
      <trkpt lat="43.40812" lon="-0.37811">
        <ele>261.2</ele>
        <time>2021-10-14T07:02:23Z</time>
      </trkpt>
      <trkpt lat="43.40811" lon="-0.3781">
        <ele>261.1</ele>
        <time>2021-10-14T07:02:24Z</time>
      </trkpt>
      <trkpt lat="43.4081" lon="-0.37808">
        <ele>261.7</ele>
        <time>2021-10-14T07:02:25Z</time>
      </trkpt>
      <trkpt lat="43.4081" lon="-0.37807">
        <ele>261</ele>
        <time>2021-10-14T07:02:26Z</time>
      </trkpt>
      <trkpt lat="43.40807" lon="-0.378">
        <ele>260</ele>
        <time>2021-10-14T07:02:30Z</time>
      </trkpt>
      <trkpt lat="43.40805" lon="-0.37795">
        <ele>261.8</ele>
        <time>2021-10-14T07:02:33Z</time>
      </trkpt>
      <trkpt lat="43.40804" lon="-0.37793">
        <ele>260.4</ele>
        <time>2021-10-14T07:02:34Z</time>
      </trkpt>
      <trkpt lat="43.40804" lon="-0.3779">
        <ele>261.8</ele>
        <time>2021-10-14T07:02:35Z</time>
      </trkpt>
      <trkpt lat="43.40804" lon="-0.37785">
        <ele>262</ele>
        <time>2021-10-14T07:02:37Z</time>
      </trkpt>
      <trkpt lat="43.40804" lon="-0.37781">
        <ele>261.5</ele>
        <time>2021-10-14T07:02:39Z</time>
      </trkpt>
      <trkpt lat="43.40804" lon="-0.37779">
        <ele>262.8</ele>
        <time>2021-10-14T07:02:40Z</time>
      </trkpt>
      <trkpt lat="43.40805" lon="-0.37777">
        <ele>263.2</ele>
        <time>2021-10-14T07:02:41Z</time>
      </trkpt>
      <trkpt lat="43.40805" lon="-0.37775">
        <ele>263.3</ele>
        <time>2021-10-14T07:02:42Z</time>
      </trkpt>
      <trkpt lat="43.40805" lon="-0.37774">
        <ele>263</ele>
        <time>2021-10-14T07:02:43Z</time>
      </trkpt>
      <trkpt lat="43.40806" lon="-0.37773">
        <ele>262.9</ele>
        <time>2021-10-14T07:02:44Z</time>
      </trkpt>
      <trkpt lat="43.40806" lon="-0.37772">
        <ele>262.9</ele>
        <time>2021-10-14T07:02:45Z</time>
      </trkpt>
      <trkpt lat="43.40807" lon="-0.37769">
        <ele>262</ele>
        <time>2021-10-14T07:02:46Z</time>
      </trkpt>
      <trkpt lat="43.40807" lon="-0.37766">
        <ele>262.1</ele>
        <time>2021-10-14T07:02:47Z</time>
      </trkpt>
      <trkpt lat="43.40807" lon="-0.37761">
        <ele>261.6</ele>
        <time>2021-10-14T07:02:49Z</time>
      </trkpt>
      <trkpt lat="43.40807" lon="-0.37759">
        <ele>262.2</ele>
        <time>2021-10-14T07:02:50Z</time>
      </trkpt>
      <trkpt lat="43.40807" lon="-0.37757">
        <ele>263.2</ele>
        <time>2021-10-14T07:02:51Z</time>
      </trkpt>
      <trkpt lat="43.40806" lon="-0.37756">
        <ele>261.6</ele>
        <time>2021-10-14T07:02:52Z</time>
      </trkpt>
      <trkpt lat="43.40806" lon="-0.37753">
        <ele>261.9</ele>
        <time>2021-10-14T07:02:53Z</time>
      </trkpt>
      <trkpt lat="43.40808" lon="-0.37741">
        <ele>262.9</ele>
        <time>2021-10-14T07:03:01Z</time>
      </trkpt>
      <trkpt lat="43.4081" lon="-0.37732">
        <ele>266.1</ele>
        <time>2021-10-14T07:03:06Z</time>
      </trkpt>
      <trkpt lat="43.4081" lon="-0.37731">
        <ele>265.4</ele>
        <time>2021-10-14T07:03:07Z</time>
      </trkpt>
      <trkpt lat="43.4081" lon="-0.37731">
        <ele>265.8</ele>
        <time>2021-10-14T07:03:08Z</time>
      </trkpt>
      <trkpt lat="43.40811" lon="-0.3773">
        <ele>266.4</ele>
        <time>2021-10-14T07:03:09Z</time>
      </trkpt>
      <trkpt lat="43.40811" lon="-0.3773">
        <ele>266.5</ele>
        <time>2021-10-14T07:03:10Z</time>
      </trkpt>
      <trkpt lat="43.40811" lon="-0.37723">
        <ele>266.2</ele>
        <time>2021-10-14T07:03:12Z</time>
      </trkpt>
      <trkpt lat="43.40809" lon="-0.37715">
        <ele>268.9</ele>
        <time>2021-10-14T07:03:16Z</time>
      </trkpt>
      <trkpt lat="43.40808" lon="-0.37707">
        <ele>268.6</ele>
        <time>2021-10-14T07:03:21Z</time>
      </trkpt>
      <trkpt lat="43.40808" lon="-0.37705">
        <ele>269.4</ele>
        <time>2021-10-14T07:03:22Z</time>
      </trkpt>
      <trkpt lat="43.40808" lon="-0.37703">
        <ele>268.7</ele>
        <time>2021-10-14T07:03:23Z</time>
      </trkpt>
      <trkpt lat="43.40809" lon="-0.37702">
        <ele>270</ele>
        <time>2021-10-14T07:03:24Z</time>
      </trkpt>
      <trkpt lat="43.40813" lon="-0.37691">
        <ele>271.1</ele>
        <time>2021-10-14T07:03:29Z</time>
      </trkpt>
      <trkpt lat="43.40814" lon="-0.3769">
        <ele>271.3</ele>
        <time>2021-10-14T07:03:30Z</time>
      </trkpt>
      <trkpt lat="43.40815" lon="-0.37688">
        <ele>271.8</ele>
        <time>2021-10-14T07:03:31Z</time>
      </trkpt>
      <trkpt lat="43.40815" lon="-0.37687">
        <ele>272</ele>
        <time>2021-10-14T07:03:32Z</time>
      </trkpt>
      <trkpt lat="43.40815" lon="-0.37686">
        <ele>270.9</ele>
        <time>2021-10-14T07:03:33Z</time>
      </trkpt>
      <trkpt lat="43.40816" lon="-0.37685">
        <ele>271.3</ele>
        <time>2021-10-14T07:03:34Z</time>
      </trkpt>
      <trkpt lat="43.40817" lon="-0.37684">
        <ele>270.8</ele>
        <time>2021-10-14T07:03:35Z</time>
      </trkpt>
      <trkpt lat="43.40818" lon="-0.37682">
        <ele>271.4</ele>
        <time>2021-10-14T07:03:36Z</time>
      </trkpt>
      <trkpt lat="43.4083" lon="-0.37653">
        <ele>272.2</ele>
        <time>2021-10-14T07:03:49Z</time>
      </trkpt>
      <trkpt lat="43.40834" lon="-0.37639">
        <ele>272.2</ele>
        <time>2021-10-14T07:03:56Z</time>
      </trkpt>
      <trkpt lat="43.40834" lon="-0.37638">
        <ele>271.3</ele>
        <time>2021-10-14T07:03:57Z</time>
      </trkpt>
      <trkpt lat="43.40833" lon="-0.37639">
        <ele>272.4</ele>
        <time>2021-10-14T07:03:58Z</time>
      </trkpt>
      <trkpt lat="43.40834" lon="-0.37636">
        <ele>272.5</ele>
        <time>2021-10-14T07:03:59Z</time>
      </trkpt>
      <trkpt lat="43.40836" lon="-0.3763">
        <ele>272.6</ele>
        <time>2021-10-14T07:04:01Z</time>
      </trkpt>
      <trkpt lat="43.40839" lon="-0.3762">
        <ele>274.2</ele>
        <time>2021-10-14T07:04:06Z</time>
      </trkpt>
      <trkpt lat="43.40854" lon="-0.37586">
        <ele>278.2</ele>
        <time>2021-10-14T07:04:21Z</time>
      </trkpt>
      <trkpt lat="43.40854" lon="-0.37586">
        <ele>275.5</ele>
        <time>2021-10-14T07:04:22Z</time>
      </trkpt>
      <trkpt lat="43.4087" lon="-0.37552">
        <ele>275.9</ele>
        <time>2021-10-14T07:04:36Z</time>
      </trkpt>
      <trkpt lat="43.40871" lon="-0.3755">
        <ele>276.3</ele>
        <time>2021-10-14T07:04:37Z</time>
      </trkpt>
      <trkpt lat="43.40873" lon="-0.37547">
        <ele>276.4</ele>
        <time>2021-10-14T07:04:39Z</time>
      </trkpt>
      <trkpt lat="43.40877" lon="-0.37542">
        <ele>277.4</ele>
        <time>2021-10-14T07:04:42Z</time>
      </trkpt>
      <trkpt lat="43.40878" lon="-0.3754">
        <ele>276.8</ele>
        <time>2021-10-14T07:04:43Z</time>
      </trkpt>
      <trkpt lat="43.40881" lon="-0.37537">
        <ele>277.3</ele>
        <time>2021-10-14T07:04:45Z</time>
      </trkpt>
      <trkpt lat="43.40883" lon="-0.37536">
        <ele>277.1</ele>
        <time>2021-10-14T07:04:47Z</time>
      </trkpt>
      <trkpt lat="43.40889" lon="-0.37532">
        <ele>278.2</ele>
        <time>2021-10-14T07:04:51Z</time>
      </trkpt>
      <trkpt lat="43.4089" lon="-0.37531">
        <ele>278.7</ele>
        <time>2021-10-14T07:04:52Z</time>
      </trkpt>
      <trkpt lat="43.40896" lon="-0.37525">
        <ele>278.4</ele>
        <time>2021-10-14T07:04:57Z</time>
      </trkpt>
      <trkpt lat="43.40901" lon="-0.37519">
        <ele>279.7</ele>
        <time>2021-10-14T07:05:01Z</time>
      </trkpt>
      <trkpt lat="43.40909" lon="-0.37507">
        <ele>281.4</ele>
        <time>2021-10-14T07:05:08Z</time>
      </trkpt>
      <trkpt lat="43.4091" lon="-0.37505">
        <ele>281.1</ele>
        <time>2021-10-14T07:05:09Z</time>
      </trkpt>
      <trkpt lat="43.40911" lon="-0.37503">
        <ele>280.8</ele>
        <time>2021-10-14T07:05:10Z</time>
      </trkpt>
      <trkpt lat="43.40912" lon="-0.37502">
        <ele>280.6</ele>
        <time>2021-10-14T07:05:11Z</time>
      </trkpt>
      <trkpt lat="43.40912" lon="-0.37501">
        <ele>282</ele>
        <time>2021-10-14T07:05:12Z</time>
      </trkpt>
      <trkpt lat="43.40913" lon="-0.37499">
        <ele>281.4</ele>
        <time>2021-10-14T07:05:13Z</time>
      </trkpt>
      <trkpt lat="43.40915" lon="-0.37498">
        <ele>281.2</ele>
        <time>2021-10-14T07:05:14Z</time>
      </trkpt>
      <trkpt lat="43.40916" lon="-0.37497">
        <ele>281.9</ele>
        <time>2021-10-14T07:05:15Z</time>
      </trkpt>
      <trkpt lat="43.40917" lon="-0.37495">
        <ele>281.3</ele>
        <time>2021-10-14T07:05:16Z</time>
      </trkpt>
      <trkpt lat="43.40918" lon="-0.37494">
        <ele>280.8</ele>
        <time>2021-10-14T07:05:17Z</time>
      </trkpt>
      <trkpt lat="43.40923" lon="-0.3749">
        <ele>281.2</ele>
        <time>2021-10-14T07:05:21Z</time>
      </trkpt>
      <trkpt lat="43.40925" lon="-0.37489">
        <ele>281.2</ele>
        <time>2021-10-14T07:05:22Z</time>
      </trkpt>
      <trkpt lat="43.40926" lon="-0.37488">
        <ele>281</ele>
        <time>2021-10-14T07:05:23Z</time>
      </trkpt>
      <trkpt lat="43.40927" lon="-0.37487">
        <ele>280.9</ele>
        <time>2021-10-14T07:05:24Z</time>
      </trkpt>
      <trkpt lat="43.40928" lon="-0.37485">
        <ele>281.6</ele>
        <time>2021-10-14T07:05:25Z</time>
      </trkpt>
      <trkpt lat="43.40928" lon="-0.37483">
        <ele>281.6</ele>
        <time>2021-10-14T07:05:26Z</time>
      </trkpt>
      <trkpt lat="43.40941" lon="-0.37468">
        <ele>284.1</ele>
        <time>2021-10-14T07:05:37Z</time>
      </trkpt>
      <trkpt lat="43.40941" lon="-0.37467">
        <ele>284.2</ele>
        <time>2021-10-14T07:05:38Z</time>
      </trkpt>
      <trkpt lat="43.40941" lon="-0.37467">
        <ele>284.5</ele>
        <time>2021-10-14T07:05:39Z</time>
      </trkpt>
      <trkpt lat="43.40945" lon="-0.37463">
        <ele>284.1</ele>
        <time>2021-10-14T07:05:41Z</time>
      </trkpt>
      <trkpt lat="43.40958" lon="-0.37446">
        <ele>285.4</ele>
        <time>2021-10-14T07:05:51Z</time>
      </trkpt>
      <trkpt lat="43.40967" lon="-0.37437">
        <ele>285.6</ele>
        <time>2021-10-14T07:05:58Z</time>
      </trkpt>
      <trkpt lat="43.4097" lon="-0.37432">
        <ele>285.1</ele>
        <time>2021-10-14T07:06:01Z</time>
      </trkpt>
      <trkpt lat="43.40971" lon="-0.37431">
        <ele>285.1</ele>
        <time>2021-10-14T07:06:02Z</time>
      </trkpt>
      <trkpt lat="43.40971" lon="-0.37431">
        <ele>284.8</ele>
        <time>2021-10-14T07:06:03Z</time>
      </trkpt>
      <trkpt lat="43.40972" lon="-0.37432">
        <ele>285.4</ele>
        <time>2021-10-14T07:06:04Z</time>
      </trkpt>
      <trkpt lat="43.40973" lon="-0.3743">
        <ele>285.7</ele>
        <time>2021-10-14T07:06:05Z</time>
      </trkpt>
      <trkpt lat="43.40976" lon="-0.37425">
        <ele>286.4</ele>
        <time>2021-10-14T07:06:06Z</time>
      </trkpt>
      <trkpt lat="43.40978" lon="-0.37423">
        <ele>286.4</ele>
        <time>2021-10-14T07:06:07Z</time>
      </trkpt>
      <trkpt lat="43.4098" lon="-0.3742">
        <ele>286.4</ele>
        <time>2021-10-14T07:06:09Z</time>
      </trkpt>
      <trkpt lat="43.4099" lon="-0.37406">
        <ele>287.2</ele>
        <time>2021-10-14T07:06:18Z</time>
      </trkpt>
      <trkpt lat="43.40991" lon="-0.37404">
        <ele>286.8</ele>
        <time>2021-10-14T07:06:19Z</time>
      </trkpt>
      <trkpt lat="43.40992" lon="-0.37402">
        <ele>287.2</ele>
        <time>2021-10-14T07:06:20Z</time>
      </trkpt>
      <trkpt lat="43.40997" lon="-0.37396">
        <ele>286</ele>
        <time>2021-10-14T07:06:23Z</time>
      </trkpt>
      <trkpt lat="43.41002" lon="-0.37386">
        <ele>285.8</ele>
        <time>2021-10-14T07:06:26Z</time>
      </trkpt>
      <trkpt lat="43.41003" lon="-0.37384">
        <ele>286</ele>
        <time>2021-10-14T07:06:27Z</time>
      </trkpt>
      <trkpt lat="43.41005" lon="-0.37381">
        <ele>286.8</ele>
        <time>2021-10-14T07:06:28Z</time>
      </trkpt>
      <trkpt lat="43.41009" lon="-0.37377">
        <ele>286.1</ele>
        <time>2021-10-14T07:06:30Z</time>
      </trkpt>
      <trkpt lat="43.41011" lon="-0.37374">
        <ele>286.1</ele>
        <time>2021-10-14T07:06:31Z</time>
      </trkpt>
      <trkpt lat="43.41012" lon="-0.37372">
        <ele>284.9</ele>
        <time>2021-10-14T07:06:32Z</time>
      </trkpt>
      <trkpt lat="43.41012" lon="-0.3737">
        <ele>285.9</ele>
        <time>2021-10-14T07:06:33Z</time>
      </trkpt>
      <trkpt lat="43.41011" lon="-0.37368">
        <ele>284.5</ele>
        <time>2021-10-14T07:06:34Z</time>
      </trkpt>
      <trkpt lat="43.41009" lon="-0.37366">
        <ele>284.3</ele>
        <time>2021-10-14T07:06:35Z</time>
      </trkpt>
      <trkpt lat="43.41007" lon="-0.37363">
        <ele>283.7</ele>
        <time>2021-10-14T07:06:36Z</time>
      </trkpt>
      <trkpt lat="43.41008" lon="-0.37359">
        <ele>283.4</ele>
        <time>2021-10-14T07:06:37Z</time>
      </trkpt>
      <trkpt lat="43.4101" lon="-0.37354">
        <ele>283</ele>
        <time>2021-10-14T07:06:38Z</time>
      </trkpt>
      <trkpt lat="43.41011" lon="-0.37352">
        <ele>281.8</ele>
        <time>2021-10-14T07:06:39Z</time>
      </trkpt>
      <trkpt lat="43.41013" lon="-0.37349">
        <ele>283.2</ele>
        <time>2021-10-14T07:06:40Z</time>
      </trkpt>
      <trkpt lat="43.41015" lon="-0.37347">
        <ele>280.6</ele>
        <time>2021-10-14T07:06:41Z</time>
      </trkpt>
      <trkpt lat="43.41026" lon="-0.37314">
        <ele>280.6</ele>
        <time>2021-10-14T07:06:49Z</time>
      </trkpt>
      <trkpt lat="43.41029" lon="-0.37308">
        <ele>280.2</ele>
        <time>2021-10-14T07:06:51Z</time>
      </trkpt>
      <trkpt lat="43.41028" lon="-0.37306">
        <ele>279.4</ele>
        <time>2021-10-14T07:06:52Z</time>
      </trkpt>
      <trkpt lat="43.41029" lon="-0.37304">
        <ele>279.9</ele>
        <time>2021-10-14T07:06:53Z</time>
      </trkpt>
      <trkpt lat="43.41037" lon="-0.37295">
        <ele>278.5</ele>
        <time>2021-10-14T07:06:56Z</time>
      </trkpt>
      <trkpt lat="43.41053" lon="-0.37271">
        <ele>279.1</ele>
        <time>2021-10-14T07:07:04Z</time>
      </trkpt>
      <trkpt lat="43.41058" lon="-0.37264">
        <ele>279.3</ele>
        <time>2021-10-14T07:07:07Z</time>
      </trkpt>
      <trkpt lat="43.41061" lon="-0.37259">
        <ele>278.5</ele>
        <time>2021-10-14T07:07:09Z</time>
      </trkpt>
      <trkpt lat="43.41067" lon="-0.37252">
        <ele>279.5</ele>
        <time>2021-10-14T07:07:12Z</time>
      </trkpt>
      <trkpt lat="43.41073" lon="-0.37247">
        <ele>281.4</ele>
        <time>2021-10-14T07:07:15Z</time>
      </trkpt>
      <trkpt lat="43.41074" lon="-0.37245">
        <ele>281.6</ele>
        <time>2021-10-14T07:07:16Z</time>
      </trkpt>
      <trkpt lat="43.41074" lon="-0.37246">
        <ele>281</ele>
        <time>2021-10-14T07:07:17Z</time>
      </trkpt>
      <trkpt lat="43.41079" lon="-0.3724">
        <ele>280.8</ele>
        <time>2021-10-14T07:07:20Z</time>
      </trkpt>
      <trkpt lat="43.41085" lon="-0.37235">
        <ele>281.2</ele>
        <time>2021-10-14T07:07:22Z</time>
      </trkpt>
      <trkpt lat="43.41087" lon="-0.37234">
        <ele>282.5</ele>
        <time>2021-10-14T07:07:23Z</time>
      </trkpt>
      <trkpt lat="43.41089" lon="-0.37234">
        <ele>282</ele>
        <time>2021-10-14T07:07:24Z</time>
      </trkpt>
      <trkpt lat="43.41091" lon="-0.37233">
        <ele>281.5</ele>
        <time>2021-10-14T07:07:25Z</time>
      </trkpt>
      <trkpt lat="43.41094" lon="-0.37232">
        <ele>281.2</ele>
        <time>2021-10-14T07:07:26Z</time>
      </trkpt>
      <trkpt lat="43.41112" lon="-0.37221">
        <ele>279.9</ele>
        <time>2021-10-14T07:07:33Z</time>
      </trkpt>
      <trkpt lat="43.41115" lon="-0.3722">
        <ele>280.2</ele>
        <time>2021-10-14T07:07:34Z</time>
      </trkpt>
      <trkpt lat="43.41117" lon="-0.3722">
        <ele>280.2</ele>
        <time>2021-10-14T07:07:35Z</time>
      </trkpt>
      <trkpt lat="43.41118" lon="-0.37221">
        <ele>278.6</ele>
        <time>2021-10-14T07:07:36Z</time>
      </trkpt>
      <trkpt lat="43.41119" lon="-0.37224">
        <ele>277.3</ele>
        <time>2021-10-14T07:07:37Z</time>
      </trkpt>
      <trkpt lat="43.41119" lon="-0.37227">
        <ele>277.7</ele>
        <time>2021-10-14T07:07:38Z</time>
      </trkpt>
      <trkpt lat="43.41119" lon="-0.37229">
        <ele>275.9</ele>
        <time>2021-10-14T07:07:39Z</time>
      </trkpt>
      <trkpt lat="43.41119" lon="-0.37231">
        <ele>276.5</ele>
        <time>2021-10-14T07:07:40Z</time>
      </trkpt>
      <trkpt lat="43.41119" lon="-0.37232">
        <ele>276.8</ele>
        <time>2021-10-14T07:07:41Z</time>
      </trkpt>
      <trkpt lat="43.41119" lon="-0.37233">
        <ele>277.1</ele>
        <time>2021-10-14T07:07:42Z</time>
      </trkpt>
      <trkpt lat="43.41119" lon="-0.37233">
        <ele>277.1</ele>
        <time>2021-10-14T07:07:43Z</time>
      </trkpt>
      <trkpt lat="43.4112" lon="-0.37232">
        <ele>277.8</ele>
        <time>2021-10-14T07:07:44Z</time>
      </trkpt>
      <trkpt lat="43.41121" lon="-0.37232">
        <ele>276.9</ele>
        <time>2021-10-14T07:07:45Z</time>
      </trkpt>
      <trkpt lat="43.41121" lon="-0.37232">
        <ele>277</ele>
        <time>2021-10-14T07:07:49Z</time>
      </trkpt>
      <trkpt lat="43.41121" lon="-0.37232">
        <ele>276.8</ele>
        <time>2021-10-14T07:07:50Z</time>
      </trkpt>
      <trkpt lat="43.41121" lon="-0.37232">
        <ele>276.9</ele>
        <time>2021-10-14T07:07:51Z</time>
      </trkpt>
      <trkpt lat="43.41121" lon="-0.37232">
        <ele>277.2</ele>
        <time>2021-10-14T07:08:29Z</time>
      </trkpt>
      <trkpt lat="43.41121" lon="-0.37233">
        <ele>276.4</ele>
        <time>2021-10-14T07:08:30Z</time>
      </trkpt>
      <trkpt lat="43.41121" lon="-0.37235">
        <ele>276.5</ele>
        <time>2021-10-14T07:08:31Z</time>
      </trkpt>
      <trkpt lat="43.41121" lon="-0.37237">
        <ele>276</ele>
        <time>2021-10-14T07:08:32Z</time>
      </trkpt>
      <trkpt lat="43.41121" lon="-0.3724">
        <ele>275.9</ele>
        <time>2021-10-14T07:08:33Z</time>
      </trkpt>
      <trkpt lat="43.41121" lon="-0.37243">
        <ele>275.3</ele>
        <time>2021-10-14T07:08:34Z</time>
      </trkpt>
      <trkpt lat="43.41122" lon="-0.37246">
        <ele>276.2</ele>
        <time>2021-10-14T07:08:35Z</time>
      </trkpt>
      <trkpt lat="43.41122" lon="-0.37249">
        <ele>275.3</ele>
        <time>2021-10-14T07:08:36Z</time>
      </trkpt>
      <trkpt lat="43.41122" lon="-0.37253">
        <ele>275.8</ele>
        <time>2021-10-14T07:08:37Z</time>
      </trkpt>
      <trkpt lat="43.41122" lon="-0.37256">
        <ele>274.4</ele>
        <time>2021-10-14T07:08:38Z</time>
      </trkpt>
      <trkpt lat="43.4112" lon="-0.37259">
        <ele>274.2</ele>
        <time>2021-10-14T07:08:39Z</time>
      </trkpt>
      <trkpt lat="43.41119" lon="-0.37262">
        <ele>274.7</ele>
        <time>2021-10-14T07:08:40Z</time>
      </trkpt>
      <trkpt lat="43.41112" lon="-0.37269">
        <ele>274.1</ele>
        <time>2021-10-14T07:08:43Z</time>
      </trkpt>
      <trkpt lat="43.41111" lon="-0.37272">
        <ele>272.4</ele>
        <time>2021-10-14T07:08:44Z</time>
      </trkpt>
      <trkpt lat="43.41109" lon="-0.3728">
        <ele>273.6</ele>
        <time>2021-10-14T07:08:47Z</time>
      </trkpt>
      <trkpt lat="43.41109" lon="-0.37283">
        <ele>273.4</ele>
        <time>2021-10-14T07:08:48Z</time>
      </trkpt>
      <trkpt lat="43.41109" lon="-0.37295">
        <ele>271.5</ele>
        <time>2021-10-14T07:08:52Z</time>
      </trkpt>
      <trkpt lat="43.4111" lon="-0.37299">
        <ele>270.6</ele>
        <time>2021-10-14T07:08:53Z</time>
      </trkpt>
      <trkpt lat="43.4111" lon="-0.37302">
        <ele>270.6</ele>
        <time>2021-10-14T07:08:54Z</time>
      </trkpt>
      <trkpt lat="43.41112" lon="-0.37305">
        <ele>270.1</ele>
        <time>2021-10-14T07:08:55Z</time>
      </trkpt>
      <trkpt lat="43.41117" lon="-0.37313">
        <ele>268.8</ele>
        <time>2021-10-14T07:08:58Z</time>
      </trkpt>
      <trkpt lat="43.41118" lon="-0.37316">
        <ele>267.9</ele>
        <time>2021-10-14T07:08:59Z</time>
      </trkpt>
      <trkpt lat="43.4112" lon="-0.37322">
        <ele>268.2</ele>
        <time>2021-10-14T07:09:01Z</time>
      </trkpt>
      <trkpt lat="43.41123" lon="-0.37327">
        <ele>268.1</ele>
        <time>2021-10-14T07:09:03Z</time>
      </trkpt>
      <trkpt lat="43.41139" lon="-0.37355">
        <ele>265.9</ele>
        <time>2021-10-14T07:09:11Z</time>
      </trkpt>
      <trkpt lat="43.41141" lon="-0.37359">
        <ele>266</ele>
        <time>2021-10-14T07:09:12Z</time>
      </trkpt>
      <trkpt lat="43.41143" lon="-0.37362">
        <ele>266</ele>
        <time>2021-10-14T07:09:13Z</time>
      </trkpt>
      <trkpt lat="43.41145" lon="-0.37366">
        <ele>266.6</ele>
        <time>2021-10-14T07:09:14Z</time>
      </trkpt>
      <trkpt lat="43.41148" lon="-0.37368">
        <ele>264.4</ele>
        <time>2021-10-14T07:09:15Z</time>
      </trkpt>
      <trkpt lat="43.41149" lon="-0.37374">
        <ele>265.4</ele>
        <time>2021-10-14T07:09:17Z</time>
      </trkpt>
      <trkpt lat="43.41153" lon="-0.37377">
        <ele>264.9</ele>
        <time>2021-10-14T07:09:18Z</time>
      </trkpt>
      <trkpt lat="43.41162" lon="-0.3738">
        <ele>264.6</ele>
        <time>2021-10-14T07:09:21Z</time>
      </trkpt>
      <trkpt lat="43.41164" lon="-0.37382">
        <ele>264.3</ele>
        <time>2021-10-14T07:09:22Z</time>
      </trkpt>
      <trkpt lat="43.41191" lon="-0.37414">
        <ele>265.1</ele>
        <time>2021-10-14T07:09:40Z</time>
      </trkpt>
      <trkpt lat="43.41194" lon="-0.37416">
        <ele>265.9</ele>
        <time>2021-10-14T07:09:41Z</time>
      </trkpt>
      <trkpt lat="43.41203" lon="-0.3742">
        <ele>265.6</ele>
        <time>2021-10-14T07:09:44Z</time>
      </trkpt>
      <trkpt lat="43.41209" lon="-0.37422">
        <ele>266.8</ele>
        <time>2021-10-14T07:09:46Z</time>
      </trkpt>
      <trkpt lat="43.4121" lon="-0.37423">
        <ele>268.1</ele>
        <time>2021-10-14T07:09:47Z</time>
      </trkpt>
      <trkpt lat="43.41211" lon="-0.37425">
        <ele>267.1</ele>
        <time>2021-10-14T07:09:48Z</time>
      </trkpt>
      <trkpt lat="43.41217" lon="-0.37424">
        <ele>269.7</ele>
        <time>2021-10-14T07:09:51Z</time>
      </trkpt>
      <trkpt lat="43.41237" lon="-0.37434">
        <ele>267.6</ele>
        <time>2021-10-14T07:10:08Z</time>
      </trkpt>
      <trkpt lat="43.41238" lon="-0.37435">
        <ele>267.2</ele>
        <time>2021-10-14T07:10:09Z</time>
      </trkpt>
      <trkpt lat="43.41239" lon="-0.37436">
        <ele>267.3</ele>
        <time>2021-10-14T07:10:10Z</time>
      </trkpt>
      <trkpt lat="43.41244" lon="-0.37441">
        <ele>265.2</ele>
        <time>2021-10-14T07:10:13Z</time>
      </trkpt>
      <trkpt lat="43.41245" lon="-0.37443">
        <ele>264.6</ele>
        <time>2021-10-14T07:10:14Z</time>
      </trkpt>
      <trkpt lat="43.41248" lon="-0.37447">
        <ele>262.7</ele>
        <time>2021-10-14T07:10:16Z</time>
      </trkpt>
      <trkpt lat="43.41258" lon="-0.37466">
        <ele>262</ele>
        <time>2021-10-14T07:10:23Z</time>
      </trkpt>
      <trkpt lat="43.41261" lon="-0.37469">
        <ele>262.6</ele>
        <time>2021-10-14T07:10:24Z</time>
      </trkpt>
      <trkpt lat="43.41287" lon="-0.37485">
        <ele>261.8</ele>
        <time>2021-10-14T07:10:36Z</time>
      </trkpt>
      <trkpt lat="43.41288" lon="-0.37485">
        <ele>261.5</ele>
        <time>2021-10-14T07:10:37Z</time>
      </trkpt>
      <trkpt lat="43.41289" lon="-0.37486">
        <ele>261.1</ele>
        <time>2021-10-14T07:10:38Z</time>
      </trkpt>
      <trkpt lat="43.41289" lon="-0.37489">
        <ele>260.8</ele>
        <time>2021-10-14T07:10:39Z</time>
      </trkpt>
      <trkpt lat="43.4129" lon="-0.37492">
        <ele>260.4</ele>
        <time>2021-10-14T07:10:40Z</time>
      </trkpt>
      <trkpt lat="43.41291" lon="-0.37498">
        <ele>261.5</ele>
        <time>2021-10-14T07:10:41Z</time>
      </trkpt>
      <trkpt lat="43.41291" lon="-0.37502">
        <ele>260.7</ele>
        <time>2021-10-14T07:10:42Z</time>
      </trkpt>
      <trkpt lat="43.41292" lon="-0.37504">
        <ele>260.6</ele>
        <time>2021-10-14T07:10:43Z</time>
      </trkpt>
      <trkpt lat="43.41292" lon="-0.37507">
        <ele>260.6</ele>
        <time>2021-10-14T07:10:44Z</time>
      </trkpt>
      <trkpt lat="43.41294" lon="-0.37508">
        <ele>258.7</ele>
        <time>2021-10-14T07:10:45Z</time>
      </trkpt>
      <trkpt lat="43.41294" lon="-0.3751">
        <ele>259.3</ele>
        <time>2021-10-14T07:10:46Z</time>
      </trkpt>
      <trkpt lat="43.41295" lon="-0.37512">
        <ele>259.4</ele>
        <time>2021-10-14T07:10:47Z</time>
      </trkpt>
      <trkpt lat="43.41297" lon="-0.37517">
        <ele>260.6</ele>
        <time>2021-10-14T07:10:49Z</time>
      </trkpt>
      <trkpt lat="43.41303" lon="-0.37525">
        <ele>257.8</ele>
        <time>2021-10-14T07:10:53Z</time>
      </trkpt>
      <trkpt lat="43.41304" lon="-0.37527">
        <ele>257.6</ele>
        <time>2021-10-14T07:10:54Z</time>
      </trkpt>
      <trkpt lat="43.41306" lon="-0.37532">
        <ele>257.5</ele>
        <time>2021-10-14T07:10:56Z</time>
      </trkpt>
      <trkpt lat="43.4131" lon="-0.37538">
        <ele>257.3</ele>
        <time>2021-10-14T07:10:58Z</time>
      </trkpt>
      <trkpt lat="43.41313" lon="-0.37541">
        <ele>255</ele>
        <time>2021-10-14T07:10:59Z</time>
      </trkpt>
      <trkpt lat="43.41316" lon="-0.37545">
        <ele>256</ele>
        <time>2021-10-14T07:11:01Z</time>
      </trkpt>
      <trkpt lat="43.41316" lon="-0.37547">
        <ele>256.4</ele>
        <time>2021-10-14T07:11:02Z</time>
      </trkpt>
      <trkpt lat="43.41319" lon="-0.37552">
        <ele>256</ele>
        <time>2021-10-14T07:11:04Z</time>
      </trkpt>
      <trkpt lat="43.4132" lon="-0.37554">
        <ele>254</ele>
        <time>2021-10-14T07:11:05Z</time>
      </trkpt>
      <trkpt lat="43.41325" lon="-0.37563">
        <ele>254.1</ele>
        <time>2021-10-14T07:11:08Z</time>
      </trkpt>
      <trkpt lat="43.41326" lon="-0.37564">
        <ele>254.6</ele>
        <time>2021-10-14T07:11:09Z</time>
      </trkpt>
      <trkpt lat="43.41327" lon="-0.37565">
        <ele>252.8</ele>
        <time>2021-10-14T07:11:10Z</time>
      </trkpt>
      <trkpt lat="43.41327" lon="-0.37566">
        <ele>253.2</ele>
        <time>2021-10-14T07:11:11Z</time>
      </trkpt>
      <trkpt lat="43.41327" lon="-0.37566">
        <ele>252.2</ele>
        <time>2021-10-14T07:11:12Z</time>
      </trkpt>
      <trkpt lat="43.41328" lon="-0.37567">
        <ele>252.2</ele>
        <time>2021-10-14T07:11:14Z</time>
      </trkpt>
      <trkpt lat="43.41328" lon="-0.37567">
        <ele>252</ele>
        <time>2021-10-14T07:11:15Z</time>
      </trkpt>
      <trkpt lat="43.41328" lon="-0.37567">
        <ele>251.5</ele>
        <time>2021-10-14T07:11:16Z</time>
      </trkpt>
      <trkpt lat="43.41328" lon="-0.37567">
        <ele>252.7</ele>
        <time>2021-10-14T07:11:18Z</time>
      </trkpt>
      <trkpt lat="43.41328" lon="-0.37567">
        <ele>252</ele>
        <time>2021-10-14T07:11:46Z</time>
      </trkpt>
      <trkpt lat="43.41328" lon="-0.37568">
        <ele>248.6</ele>
        <time>2021-10-14T07:11:47Z</time>
      </trkpt>
      <trkpt lat="43.41328" lon="-0.37568">
        <ele>249.9</ele>
        <time>2021-10-14T07:11:48Z</time>
      </trkpt>
      <trkpt lat="43.41328" lon="-0.37569">
        <ele>250.2</ele>
        <time>2021-10-14T07:11:49Z</time>
      </trkpt>
      <trkpt lat="43.41328" lon="-0.37569">
        <ele>249.7</ele>
        <time>2021-10-14T07:11:50Z</time>
      </trkpt>
      <trkpt lat="43.41328" lon="-0.37569">
        <ele>249.9</ele>
        <time>2021-10-14T07:11:51Z</time>
      </trkpt>
      <trkpt lat="43.41328" lon="-0.37569">
        <ele>250.3</ele>
        <time>2021-10-14T07:11:52Z</time>
      </trkpt>
      <trkpt lat="43.41328" lon="-0.37569">
        <ele>249.8</ele>
        <time>2021-10-14T07:11:53Z</time>
      </trkpt>
      <trkpt lat="43.41328" lon="-0.37569">
        <ele>250</ele>
        <time>2021-10-14T07:11:54Z</time>
      </trkpt>
      <trkpt lat="43.41328" lon="-0.37569">
        <ele>250.2</ele>
        <time>2021-10-14T07:11:55Z</time>
      </trkpt>
      <trkpt lat="43.41328" lon="-0.37569">
        <ele>249.9</ele>
        <time>2021-10-14T07:12:02Z</time>
      </trkpt>
      <trkpt lat="43.41328" lon="-0.37571">
        <ele>249</ele>
        <time>2021-10-14T07:12:03Z</time>
      </trkpt>
      <trkpt lat="43.41329" lon="-0.37574">
        <ele>248.4</ele>
        <time>2021-10-14T07:12:06Z</time>
      </trkpt>
      <trkpt lat="43.41329" lon="-0.37574">
        <ele>248.6</ele>
        <time>2021-10-14T07:12:07Z</time>
      </trkpt>
      <trkpt lat="43.41329" lon="-0.37574">
        <ele>247.8</ele>
        <time>2021-10-14T07:12:08Z</time>
      </trkpt>
      <trkpt lat="43.41331" lon="-0.37576">
        <ele>247.1</ele>
        <time>2021-10-14T07:12:10Z</time>
      </trkpt>
      <trkpt lat="43.41335" lon="-0.37581">
        <ele>248.3</ele>
        <time>2021-10-14T07:12:14Z</time>
      </trkpt>
      <trkpt lat="43.41336" lon="-0.37582">
        <ele>247.3</ele>
        <time>2021-10-14T07:12:15Z</time>
      </trkpt>
      <trkpt lat="43.41336" lon="-0.37583">
        <ele>246.7</ele>
        <time>2021-10-14T07:12:16Z</time>
      </trkpt>
      <trkpt lat="43.41336" lon="-0.37583">
        <ele>246.8</ele>
        <time>2021-10-14T07:12:17Z</time>
      </trkpt>
      <trkpt lat="43.41336" lon="-0.37583">
        <ele>247.3</ele>
        <time>2021-10-14T07:12:18Z</time>
      </trkpt>
      <trkpt lat="43.41336" lon="-0.37583">
        <ele>246.9</ele>
        <time>2021-10-14T07:12:19Z</time>
      </trkpt>
      <trkpt lat="43.41337" lon="-0.37583">
        <ele>247.4</ele>
        <time>2021-10-14T07:12:20Z</time>
      </trkpt>
      <trkpt lat="43.41337" lon="-0.37583">
        <ele>248</ele>
        <time>2021-10-14T07:12:21Z</time>
      </trkpt>
      <trkpt lat="43.4134" lon="-0.37586">
        <ele>246.1</ele>
        <time>2021-10-14T07:12:37Z</time>
      </trkpt>
      <trkpt lat="43.4134" lon="-0.37586">
        <ele>245.8</ele>
        <time>2021-10-14T07:12:38Z</time>
      </trkpt>
      <trkpt lat="43.41345" lon="-0.37588">
        <ele>246.4</ele>
        <time>2021-10-14T07:12:41Z</time>
      </trkpt>
      <trkpt lat="43.41346" lon="-0.37589">
        <ele>246</ele>
        <time>2021-10-14T07:12:42Z</time>
      </trkpt>
      <trkpt lat="43.41348" lon="-0.37591">
        <ele>246.1</ele>
        <time>2021-10-14T07:12:43Z</time>
      </trkpt>
      <trkpt lat="43.41351" lon="-0.37594">
        <ele>246.7</ele>
        <time>2021-10-14T07:12:45Z</time>
      </trkpt>
      <trkpt lat="43.41351" lon="-0.37597">
        <ele>247.1</ele>
        <time>2021-10-14T07:12:46Z</time>
      </trkpt>
      <trkpt lat="43.41352" lon="-0.37599">
        <ele>247.4</ele>
        <time>2021-10-14T07:12:47Z</time>
      </trkpt>
      <trkpt lat="43.41352" lon="-0.37602">
        <ele>246.1</ele>
        <time>2021-10-14T07:12:48Z</time>
      </trkpt>
      <trkpt lat="43.41358" lon="-0.37617">
        <ele>246.2</ele>
        <time>2021-10-14T07:12:53Z</time>
      </trkpt>
      <trkpt lat="43.41362" lon="-0.3766">
        <ele>245.1</ele>
        <time>2021-10-14T07:13:06Z</time>
      </trkpt>
      <trkpt lat="43.41361" lon="-0.37661">
        <ele>244.9</ele>
        <time>2021-10-14T07:13:07Z</time>
      </trkpt>
      <trkpt lat="43.4136" lon="-0.37662">
        <ele>245.8</ele>
        <time>2021-10-14T07:13:08Z</time>
      </trkpt>
      <trkpt lat="43.4136" lon="-0.37667">
        <ele>246.5</ele>
        <time>2021-10-14T07:13:09Z</time>
      </trkpt>
      <trkpt lat="43.41362" lon="-0.3768">
        <ele>246.1</ele>
        <time>2021-10-14T07:13:11Z</time>
      </trkpt>
      <trkpt lat="43.4137" lon="-0.37713">
        <ele>243.3</ele>
        <time>2021-10-14T07:13:17Z</time>
      </trkpt>
      <trkpt lat="43.41373" lon="-0.37737">
        <ele>243.8</ele>
        <time>2021-10-14T07:13:22Z</time>
      </trkpt>
      <trkpt lat="43.41373" lon="-0.37755">
        <ele>243</ele>
        <time>2021-10-14T07:13:25Z</time>
      </trkpt>
      <trkpt lat="43.41377" lon="-0.37794">
        <ele>239.4</ele>
        <time>2021-10-14T07:13:31Z</time>
      </trkpt>
      <trkpt lat="43.41375" lon="-0.37798">
        <ele>239.5</ele>
        <time>2021-10-14T07:13:32Z</time>
      </trkpt>
      <trkpt lat="43.41375" lon="-0.37805">
        <ele>238.1</ele>
        <time>2021-10-14T07:13:33Z</time>
      </trkpt>
      <trkpt lat="43.41383" lon="-0.37832">
        <ele>238.5</ele>
        <time>2021-10-14T07:13:37Z</time>
      </trkpt>
      <trkpt lat="43.41387" lon="-0.37843">
        <ele>238.4</ele>
        <time>2021-10-14T07:13:39Z</time>
      </trkpt>
      <trkpt lat="43.41401" lon="-0.37872">
        <ele>235.1</ele>
        <time>2021-10-14T07:13:45Z</time>
      </trkpt>
      <trkpt lat="43.41405" lon="-0.37879">
        <ele>235.2</ele>
        <time>2021-10-14T07:13:47Z</time>
      </trkpt>
      <trkpt lat="43.41407" lon="-0.37882">
        <ele>233.9</ele>
        <time>2021-10-14T07:13:48Z</time>
      </trkpt>
      <trkpt lat="43.41407" lon="-0.37886">
        <ele>233.8</ele>
        <time>2021-10-14T07:13:49Z</time>
      </trkpt>
      <trkpt lat="43.41409" lon="-0.37896">
        <ele>234.9</ele>
        <time>2021-10-14T07:13:51Z</time>
      </trkpt>
      <trkpt lat="43.4141" lon="-0.379">
        <ele>234.1</ele>
        <time>2021-10-14T07:13:52Z</time>
      </trkpt>
      <trkpt lat="43.41411" lon="-0.37904">
        <ele>234.5</ele>
        <time>2021-10-14T07:13:53Z</time>
      </trkpt>
      <trkpt lat="43.41413" lon="-0.37907">
        <ele>233.4</ele>
        <time>2021-10-14T07:13:54Z</time>
      </trkpt>
      <trkpt lat="43.41415" lon="-0.3791">
        <ele>233.2</ele>
        <time>2021-10-14T07:13:55Z</time>
      </trkpt>
      <trkpt lat="43.41417" lon="-0.37912">
        <ele>233</ele>
        <time>2021-10-14T07:13:56Z</time>
      </trkpt>
      <trkpt lat="43.41416" lon="-0.37915">
        <ele>232.8</ele>
        <time>2021-10-14T07:13:57Z</time>
      </trkpt>
      <trkpt lat="43.41423" lon="-0.37921">
        <ele>232.1</ele>
        <time>2021-10-14T07:14:00Z</time>
      </trkpt>
      <trkpt lat="43.41428" lon="-0.37933">
        <ele>230.8</ele>
        <time>2021-10-14T07:14:03Z</time>
      </trkpt>
      <trkpt lat="43.41433" lon="-0.37943">
        <ele>232.5</ele>
        <time>2021-10-14T07:14:06Z</time>
      </trkpt>
      <trkpt lat="43.41435" lon="-0.37947">
        <ele>231.7</ele>
        <time>2021-10-14T07:14:07Z</time>
      </trkpt>
      <trkpt lat="43.41437" lon="-0.3795">
        <ele>232.1</ele>
        <time>2021-10-14T07:14:08Z</time>
      </trkpt>
      <trkpt lat="43.41445" lon="-0.37959">
        <ele>231.5</ele>
        <time>2021-10-14T07:14:11Z</time>
      </trkpt>
      <trkpt lat="43.41447" lon="-0.37962">
        <ele>232.2</ele>
        <time>2021-10-14T07:14:12Z</time>
      </trkpt>
      <trkpt lat="43.41451" lon="-0.3797">
        <ele>231.9</ele>
        <time>2021-10-14T07:14:14Z</time>
      </trkpt>
      <trkpt lat="43.41455" lon="-0.37979">
        <ele>233.7</ele>
        <time>2021-10-14T07:14:16Z</time>
      </trkpt>
      <trkpt lat="43.41461" lon="-0.37994">
        <ele>234.6</ele>
        <time>2021-10-14T07:14:19Z</time>
      </trkpt>
      <trkpt lat="43.41464" lon="-0.38003">
        <ele>234.4</ele>
        <time>2021-10-14T07:14:21Z</time>
      </trkpt>
      <trkpt lat="43.41467" lon="-0.38005">
        <ele>234.4</ele>
        <time>2021-10-14T07:14:22Z</time>
      </trkpt>
      <trkpt lat="43.41472" lon="-0.38016">
        <ele>234.2</ele>
        <time>2021-10-14T07:14:25Z</time>
      </trkpt>
      <trkpt lat="43.41475" lon="-0.38024">
        <ele>232.7</ele>
        <time>2021-10-14T07:14:26Z</time>
      </trkpt>
      <trkpt lat="43.41479" lon="-0.38032">
        <ele>233.2</ele>
        <time>2021-10-14T07:14:28Z</time>
      </trkpt>
      <trkpt lat="43.41488" lon="-0.38044">
        <ele>231.5</ele>
        <time>2021-10-14T07:14:34Z</time>
      </trkpt>
      <trkpt lat="43.41489" lon="-0.38047">
        <ele>232.2</ele>
        <time>2021-10-14T07:14:35Z</time>
      </trkpt>
      <trkpt lat="43.4149" lon="-0.38049">
        <ele>231.7</ele>
        <time>2021-10-14T07:14:36Z</time>
      </trkpt>
      <trkpt lat="43.4149" lon="-0.38052">
        <ele>231.5</ele>
        <time>2021-10-14T07:14:37Z</time>
      </trkpt>
      <trkpt lat="43.41489" lon="-0.38055">
        <ele>231.3</ele>
        <time>2021-10-14T07:14:38Z</time>
      </trkpt>
      <trkpt lat="43.41488" lon="-0.38063">
        <ele>229.8</ele>
        <time>2021-10-14T07:14:40Z</time>
      </trkpt>
      <trkpt lat="43.41485" lon="-0.38071">
        <ele>230.3</ele>
        <time>2021-10-14T07:14:42Z</time>
      </trkpt>
      <trkpt lat="43.41482" lon="-0.38078">
        <ele>229.5</ele>
        <time>2021-10-14T07:14:44Z</time>
      </trkpt>
      <trkpt lat="43.4148" lon="-0.38085">
        <ele>228.5</ele>
        <time>2021-10-14T07:14:46Z</time>
      </trkpt>
      <trkpt lat="43.41479" lon="-0.38088">
        <ele>229</ele>
        <time>2021-10-14T07:14:47Z</time>
      </trkpt>
      <trkpt lat="43.41473" lon="-0.38113">
        <ele>225.8</ele>
        <time>2021-10-14T07:14:54Z</time>
      </trkpt>
      <trkpt lat="43.41473" lon="-0.38116">
        <ele>225.5</ele>
        <time>2021-10-14T07:14:55Z</time>
      </trkpt>
      <trkpt lat="43.41474" lon="-0.38119">
        <ele>224.9</ele>
        <time>2021-10-14T07:14:56Z</time>
      </trkpt>
      <trkpt lat="43.41475" lon="-0.38122">
        <ele>225.3</ele>
        <time>2021-10-14T07:14:57Z</time>
      </trkpt>
      <trkpt lat="43.41476" lon="-0.38124">
        <ele>224.7</ele>
        <time>2021-10-14T07:14:58Z</time>
      </trkpt>
      <trkpt lat="43.41478" lon="-0.38124">
        <ele>224.2</ele>
        <time>2021-10-14T07:14:59Z</time>
      </trkpt>
      <trkpt lat="43.4148" lon="-0.38125">
        <ele>223.9</ele>
        <time>2021-10-14T07:15:00Z</time>
      </trkpt>
      <trkpt lat="43.41482" lon="-0.38125">
        <ele>222.5</ele>
        <time>2021-10-14T07:15:01Z</time>
      </trkpt>
      <trkpt lat="43.41488" lon="-0.38123">
        <ele>222.2</ele>
        <time>2021-10-14T07:15:04Z</time>
      </trkpt>
      <trkpt lat="43.41506" lon="-0.3812">
        <ele>221.3</ele>
        <time>2021-10-14T07:15:11Z</time>
      </trkpt>
      <trkpt lat="43.41506" lon="-0.38119">
        <ele>221.6</ele>
        <time>2021-10-14T07:15:12Z</time>
      </trkpt>
      <trkpt lat="43.41515" lon="-0.38119">
        <ele>222.1</ele>
        <time>2021-10-14T07:15:15Z</time>
      </trkpt>
      <trkpt lat="43.4153" lon="-0.38116">
        <ele>222.1</ele>
        <time>2021-10-14T07:15:19Z</time>
      </trkpt>
      <trkpt lat="43.41547" lon="-0.38108">
        <ele>221</ele>
        <time>2021-10-14T07:15:26Z</time>
      </trkpt>
      <trkpt lat="43.4155" lon="-0.38107">
        <ele>221.5</ele>
        <time>2021-10-14T07:15:27Z</time>
      </trkpt>
      <trkpt lat="43.41555" lon="-0.38102">
        <ele>220.4</ele>
        <time>2021-10-14T07:15:30Z</time>
      </trkpt>
      <trkpt lat="43.41557" lon="-0.38101">
        <ele>221</ele>
        <time>2021-10-14T07:15:31Z</time>
      </trkpt>
      <trkpt lat="43.41562" lon="-0.38099">
        <ele>220</ele>
        <time>2021-10-14T07:15:33Z</time>
      </trkpt>
      <trkpt lat="43.41564" lon="-0.38098">
        <ele>220.1</ele>
        <time>2021-10-14T07:15:34Z</time>
      </trkpt>
      <trkpt lat="43.41569" lon="-0.38096">
        <ele>221.6</ele>
        <time>2021-10-14T07:15:36Z</time>
      </trkpt>
      <trkpt lat="43.41571" lon="-0.38095">
        <ele>221.7</ele>
        <time>2021-10-14T07:15:37Z</time>
      </trkpt>
      <trkpt lat="43.41596" lon="-0.3808">
        <ele>221.6</ele>
        <time>2021-10-14T07:15:47Z</time>
      </trkpt>
      <trkpt lat="43.41601" lon="-0.38075">
        <ele>221.7</ele>
        <time>2021-10-14T07:15:50Z</time>
      </trkpt>
      <trkpt lat="43.41608" lon="-0.38068">
        <ele>222.3</ele>
        <time>2021-10-14T07:15:53Z</time>
      </trkpt>
      <trkpt lat="43.41621" lon="-0.38057">
        <ele>222.5</ele>
        <time>2021-10-14T07:15:59Z</time>
      </trkpt>
      <trkpt lat="43.41623" lon="-0.38054">
        <ele>222.1</ele>
        <time>2021-10-14T07:16:00Z</time>
      </trkpt>
      <trkpt lat="43.41625" lon="-0.38052">
        <ele>221.9</ele>
        <time>2021-10-14T07:16:01Z</time>
      </trkpt>
      <trkpt lat="43.41624" lon="-0.38053">
        <ele>221.5</ele>
        <time>2021-10-14T07:16:02Z</time>
      </trkpt>
      <trkpt lat="43.4164" lon="-0.38036">
        <ele>221</ele>
        <time>2021-10-14T07:16:08Z</time>
      </trkpt>
      <trkpt lat="43.41642" lon="-0.38035">
        <ele>221.2</ele>
        <time>2021-10-14T07:16:09Z</time>
      </trkpt>
      <trkpt lat="43.41644" lon="-0.38034">
        <ele>221.7</ele>
        <time>2021-10-14T07:16:10Z</time>
      </trkpt>
      <trkpt lat="43.41646" lon="-0.38032">
        <ele>221.3</ele>
        <time>2021-10-14T07:16:11Z</time>
      </trkpt>
      <trkpt lat="43.41675" lon="-0.38003">
        <ele>225.2</ele>
        <time>2021-10-14T07:16:26Z</time>
      </trkpt>
      <trkpt lat="43.41674" lon="-0.38003">
        <ele>225.6</ele>
        <time>2021-10-14T07:16:27Z</time>
      </trkpt>
      <trkpt lat="43.41691" lon="-0.37989">
        <ele>226.7</ele>
        <time>2021-10-14T07:16:35Z</time>
      </trkpt>
      <trkpt lat="43.41693" lon="-0.37988">
        <ele>225.4</ele>
        <time>2021-10-14T07:16:36Z</time>
      </trkpt>
      <trkpt lat="43.41694" lon="-0.37987">
        <ele>227.1</ele>
        <time>2021-10-14T07:16:37Z</time>
      </trkpt>
      <trkpt lat="43.41696" lon="-0.37986">
        <ele>226.3</ele>
        <time>2021-10-14T07:16:38Z</time>
      </trkpt>
      <trkpt lat="43.41698" lon="-0.37985">
        <ele>225.9</ele>
        <time>2021-10-14T07:16:39Z</time>
      </trkpt>
      <trkpt lat="43.41699" lon="-0.37985">
        <ele>226.9</ele>
        <time>2021-10-14T07:16:40Z</time>
      </trkpt>
      <trkpt lat="43.41705" lon="-0.37987">
        <ele>227.4</ele>
        <time>2021-10-14T07:16:44Z</time>
      </trkpt>
      <trkpt lat="43.41708" lon="-0.37987">
        <ele>228.6</ele>
        <time>2021-10-14T07:16:46Z</time>
      </trkpt>
      <trkpt lat="43.4171" lon="-0.37987">
        <ele>230.9</ele>
        <time>2021-10-14T07:16:48Z</time>
      </trkpt>
      <trkpt lat="43.41712" lon="-0.37986">
        <ele>231</ele>
        <time>2021-10-14T07:16:49Z</time>
      </trkpt>
      <trkpt lat="43.41714" lon="-0.37985">
        <ele>230.9</ele>
        <time>2021-10-14T07:16:51Z</time>
      </trkpt>
      <trkpt lat="43.41715" lon="-0.37983">
        <ele>232.5</ele>
        <time>2021-10-14T07:16:52Z</time>
      </trkpt>
      <trkpt lat="43.41719" lon="-0.37981">
        <ele>233.1</ele>
        <time>2021-10-14T07:16:55Z</time>
      </trkpt>
      <trkpt lat="43.41726" lon="-0.37975">
        <ele>233.6</ele>
        <time>2021-10-14T07:16:59Z</time>
      </trkpt>
      <trkpt lat="43.41727" lon="-0.37974">
        <ele>233.4</ele>
        <time>2021-10-14T07:17:00Z</time>
      </trkpt>
      <trkpt lat="43.41729" lon="-0.37973">
        <ele>234.1</ele>
        <time>2021-10-14T07:17:01Z</time>
      </trkpt>
      <trkpt lat="43.41736" lon="-0.37964">
        <ele>235</ele>
        <time>2021-10-14T07:17:07Z</time>
      </trkpt>
      <trkpt lat="43.41737" lon="-0.37962">
        <ele>234.9</ele>
        <time>2021-10-14T07:17:08Z</time>
      </trkpt>
      <trkpt lat="43.41744" lon="-0.37946">
        <ele>236.8</ele>
        <time>2021-10-14T07:17:16Z</time>
      </trkpt>
      <trkpt lat="43.41745" lon="-0.37946">
        <ele>236.2</ele>
        <time>2021-10-14T07:17:17Z</time>
      </trkpt>
      <trkpt lat="43.41746" lon="-0.37944">
        <ele>235.7</ele>
        <time>2021-10-14T07:17:18Z</time>
      </trkpt>
      <trkpt lat="43.4175" lon="-0.37929">
        <ele>235.9</ele>
        <time>2021-10-14T07:17:24Z</time>
      </trkpt>
      <trkpt lat="43.41751" lon="-0.37927">
        <ele>235.6</ele>
        <time>2021-10-14T07:17:25Z</time>
      </trkpt>
      <trkpt lat="43.41753" lon="-0.37923">
        <ele>237</ele>
        <time>2021-10-14T07:17:27Z</time>
      </trkpt>
      <trkpt lat="43.41756" lon="-0.37915">
        <ele>235.9</ele>
        <time>2021-10-14T07:17:31Z</time>
      </trkpt>
      <trkpt lat="43.41757" lon="-0.37911">
        <ele>236</ele>
        <time>2021-10-14T07:17:33Z</time>
      </trkpt>
      <trkpt lat="43.41764" lon="-0.37895">
        <ele>235.2</ele>
        <time>2021-10-14T07:17:41Z</time>
      </trkpt>
      <trkpt lat="43.41765" lon="-0.37896">
        <ele>234.1</ele>
        <time>2021-10-14T07:17:42Z</time>
      </trkpt>
      <trkpt lat="43.41766" lon="-0.37889">
        <ele>232.4</ele>
        <time>2021-10-14T07:17:45Z</time>
      </trkpt>
      <trkpt lat="43.4177" lon="-0.37878">
        <ele>231.2</ele>
        <time>2021-10-14T07:17:49Z</time>
      </trkpt>
      <trkpt lat="43.41773" lon="-0.37871">
        <ele>231.7</ele>
        <time>2021-10-14T07:17:52Z</time>
      </trkpt>
      <trkpt lat="43.41774" lon="-0.37869">
        <ele>230.6</ele>
        <time>2021-10-14T07:17:53Z</time>
      </trkpt>
      <trkpt lat="43.41775" lon="-0.37864">
        <ele>229.9</ele>
        <time>2021-10-14T07:17:55Z</time>
      </trkpt>
      <trkpt lat="43.41776" lon="-0.37862">
        <ele>229.1</ele>
        <time>2021-10-14T07:17:56Z</time>
      </trkpt>
      <trkpt lat="43.41777" lon="-0.37855">
        <ele>228.2</ele>
        <time>2021-10-14T07:17:58Z</time>
      </trkpt>
      <trkpt lat="43.41778" lon="-0.37851">
        <ele>228.3</ele>
        <time>2021-10-14T07:17:59Z</time>
      </trkpt>
      <trkpt lat="43.41783" lon="-0.37839">
        <ele>226.8</ele>
        <time>2021-10-14T07:18:03Z</time>
      </trkpt>
      <trkpt lat="43.41786" lon="-0.37831">
        <ele>226.8</ele>
        <time>2021-10-14T07:18:06Z</time>
      </trkpt>
      <trkpt lat="43.41785" lon="-0.37831">
        <ele>224.9</ele>
        <time>2021-10-14T07:18:07Z</time>
      </trkpt>
      <trkpt lat="43.4179" lon="-0.37817">
        <ele>226.2</ele>
        <time>2021-10-14T07:18:11Z</time>
      </trkpt>
      <trkpt lat="43.41794" lon="-0.37808">
        <ele>225.7</ele>
        <time>2021-10-14T07:18:16Z</time>
      </trkpt>
      <trkpt lat="43.41797" lon="-0.37802">
        <ele>225</ele>
        <time>2021-10-14T07:18:18Z</time>
      </trkpt>
      <trkpt lat="43.41799" lon="-0.37796">
        <ele>224.1</ele>
        <time>2021-10-14T07:18:20Z</time>
      </trkpt>
      <trkpt lat="43.41802" lon="-0.37792">
        <ele>221.9</ele>
        <time>2021-10-14T07:18:22Z</time>
      </trkpt>
      <trkpt lat="43.41802" lon="-0.37789">
        <ele>221.8</ele>
        <time>2021-10-14T07:18:23Z</time>
      </trkpt>
      <trkpt lat="43.41803" lon="-0.37787">
        <ele>222.1</ele>
        <time>2021-10-14T07:18:24Z</time>
      </trkpt>
      <trkpt lat="43.41803" lon="-0.37784">
        <ele>222.6</ele>
        <time>2021-10-14T07:18:25Z</time>
      </trkpt>
      <trkpt lat="43.41804" lon="-0.37782">
        <ele>222</ele>
        <time>2021-10-14T07:18:26Z</time>
      </trkpt>
      <trkpt lat="43.41804" lon="-0.37769">
        <ele>221.7</ele>
        <time>2021-10-14T07:18:30Z</time>
      </trkpt>
      <trkpt lat="43.41804" lon="-0.37767">
        <ele>221.1</ele>
        <time>2021-10-14T07:18:31Z</time>
      </trkpt>
      <trkpt lat="43.41805" lon="-0.37766">
        <ele>220.7</ele>
        <time>2021-10-14T07:18:32Z</time>
      </trkpt>
      <trkpt lat="43.41805" lon="-0.37764">
        <ele>221.2</ele>
        <time>2021-10-14T07:18:33Z</time>
      </trkpt>
      <trkpt lat="43.41805" lon="-0.37753">
        <ele>221.3</ele>
        <time>2021-10-14T07:18:36Z</time>
      </trkpt>
      <trkpt lat="43.41806" lon="-0.37741">
        <ele>222.6</ele>
        <time>2021-10-14T07:18:40Z</time>
      </trkpt>
      <trkpt lat="43.41807" lon="-0.37738">
        <ele>222.7</ele>
        <time>2021-10-14T07:18:41Z</time>
      </trkpt>
      <trkpt lat="43.41809" lon="-0.37732">
        <ele>222.8</ele>
        <time>2021-10-14T07:18:43Z</time>
      </trkpt>
      <trkpt lat="43.4181" lon="-0.37729">
        <ele>222.5</ele>
        <time>2021-10-14T07:18:44Z</time>
      </trkpt>
      <trkpt lat="43.41811" lon="-0.37724">
        <ele>221.7</ele>
        <time>2021-10-14T07:18:46Z</time>
      </trkpt>
      <trkpt lat="43.41816" lon="-0.3771">
        <ele>221.8</ele>
        <time>2021-10-14T07:18:51Z</time>
      </trkpt>
      <trkpt lat="43.41818" lon="-0.37706">
        <ele>222.8</ele>
        <time>2021-10-14T07:18:53Z</time>
      </trkpt>
      <trkpt lat="43.41819" lon="-0.37704">
        <ele>222</ele>
        <time>2021-10-14T07:18:54Z</time>
      </trkpt>
      <trkpt lat="43.4182" lon="-0.37702">
        <ele>222</ele>
        <time>2021-10-14T07:18:55Z</time>
      </trkpt>
      <trkpt lat="43.41823" lon="-0.37699">
        <ele>222.1</ele>
        <time>2021-10-14T07:18:57Z</time>
      </trkpt>
      <trkpt lat="43.41823" lon="-0.37697">
        <ele>222.1</ele>
        <time>2021-10-14T07:18:58Z</time>
      </trkpt>
      <trkpt lat="43.41824" lon="-0.37695">
        <ele>223.3</ele>
        <time>2021-10-14T07:18:59Z</time>
      </trkpt>
      <trkpt lat="43.41824" lon="-0.37693">
        <ele>223.2</ele>
        <time>2021-10-14T07:19:00Z</time>
      </trkpt>
      <trkpt lat="43.41825" lon="-0.37686">
        <ele>222.2</ele>
        <time>2021-10-14T07:19:02Z</time>
      </trkpt>
      <trkpt lat="43.41824" lon="-0.37683">
        <ele>222.1</ele>
        <time>2021-10-14T07:19:03Z</time>
      </trkpt>
      <trkpt lat="43.41824" lon="-0.3768">
        <ele>221.2</ele>
        <time>2021-10-14T07:19:04Z</time>
      </trkpt>
      <trkpt lat="43.41825" lon="-0.37677">
        <ele>221.1</ele>
        <time>2021-10-14T07:19:05Z</time>
      </trkpt>
      <trkpt lat="43.41825" lon="-0.37664">
        <ele>222.4</ele>
        <time>2021-10-14T07:19:08Z</time>
      </trkpt>
      <trkpt lat="43.41824" lon="-0.37659">
        <ele>222.6</ele>
        <time>2021-10-14T07:19:09Z</time>
      </trkpt>
      <trkpt lat="43.41823" lon="-0.37655">
        <ele>222.2</ele>
        <time>2021-10-14T07:19:10Z</time>
      </trkpt>
      <trkpt lat="43.41821" lon="-0.37646">
        <ele>221.9</ele>
        <time>2021-10-14T07:19:12Z</time>
      </trkpt>
      <trkpt lat="43.4182" lon="-0.37642">
        <ele>221.8</ele>
        <time>2021-10-14T07:19:13Z</time>
      </trkpt>
      <trkpt lat="43.41819" lon="-0.37638">
        <ele>222.8</ele>
        <time>2021-10-14T07:19:14Z</time>
      </trkpt>
      <trkpt lat="43.41819" lon="-0.37634">
        <ele>223.1</ele>
        <time>2021-10-14T07:19:15Z</time>
      </trkpt>
      <trkpt lat="43.41822" lon="-0.3761">
        <ele>224.1</ele>
        <time>2021-10-14T07:19:21Z</time>
      </trkpt>
      <trkpt lat="43.41823" lon="-0.37606">
        <ele>224</ele>
        <time>2021-10-14T07:19:22Z</time>
      </trkpt>
      <trkpt lat="43.41822" lon="-0.37567">
        <ele>225.7</ele>
        <time>2021-10-14T07:19:29Z</time>
      </trkpt>
      <trkpt lat="43.41818" lon="-0.37542">
        <ele>224.7</ele>
        <time>2021-10-14T07:19:33Z</time>
      </trkpt>
      <trkpt lat="43.41815" lon="-0.37528">
        <ele>225.7</ele>
        <time>2021-10-14T07:19:35Z</time>
      </trkpt>
      <trkpt lat="43.41814" lon="-0.37522">
        <ele>227.1</ele>
        <time>2021-10-14T07:19:36Z</time>
      </trkpt>
      <trkpt lat="43.41814" lon="-0.37516">
        <ele>226.3</ele>
        <time>2021-10-14T07:19:37Z</time>
      </trkpt>
      <trkpt lat="43.41815" lon="-0.37512">
        <ele>225.8</ele>
        <time>2021-10-14T07:19:38Z</time>
      </trkpt>
      <trkpt lat="43.41824" lon="-0.37484">
        <ele>226.1</ele>
        <time>2021-10-14T07:19:46Z</time>
      </trkpt>
      <trkpt lat="43.41823" lon="-0.37481">
        <ele>226.2</ele>
        <time>2021-10-14T07:19:47Z</time>
      </trkpt>
      <trkpt lat="43.41825" lon="-0.37476">
        <ele>225.8</ele>
        <time>2021-10-14T07:19:49Z</time>
      </trkpt>
      <trkpt lat="43.41826" lon="-0.37473">
        <ele>227</ele>
        <time>2021-10-14T07:19:50Z</time>
      </trkpt>
      <trkpt lat="43.41827" lon="-0.3747">
        <ele>226.1</ele>
        <time>2021-10-14T07:19:51Z</time>
      </trkpt>
      <trkpt lat="43.41828" lon="-0.37467">
        <ele>226.4</ele>
        <time>2021-10-14T07:19:52Z</time>
      </trkpt>
      <trkpt lat="43.4183" lon="-0.37455">
        <ele>227.3</ele>
        <time>2021-10-14T07:19:56Z</time>
      </trkpt>
      <trkpt lat="43.4183" lon="-0.37453">
        <ele>227.4</ele>
        <time>2021-10-14T07:19:57Z</time>
      </trkpt>
      <trkpt lat="43.41829" lon="-0.37448">
        <ele>227.1</ele>
        <time>2021-10-14T07:19:59Z</time>
      </trkpt>
      <trkpt lat="43.41827" lon="-0.37443">
        <ele>227.5</ele>
        <time>2021-10-14T07:20:01Z</time>
      </trkpt>
      <trkpt lat="43.41826" lon="-0.37438">
        <ele>227.3</ele>
        <time>2021-10-14T07:20:03Z</time>
      </trkpt>
      <trkpt lat="43.41825" lon="-0.37431">
        <ele>225.8</ele>
        <time>2021-10-14T07:20:05Z</time>
      </trkpt>
      <trkpt lat="43.41824" lon="-0.37425">
        <ele>227.7</ele>
        <time>2021-10-14T07:20:07Z</time>
      </trkpt>
      <trkpt lat="43.41824" lon="-0.37422">
        <ele>227.4</ele>
        <time>2021-10-14T07:20:08Z</time>
      </trkpt>
      <trkpt lat="43.41824" lon="-0.37413">
        <ele>227.9</ele>
        <time>2021-10-14T07:20:11Z</time>
      </trkpt>
      <trkpt lat="43.41826" lon="-0.37411">
        <ele>228.1</ele>
        <time>2021-10-14T07:20:12Z</time>
      </trkpt>
      <trkpt lat="43.41828" lon="-0.37397">
        <ele>228.9</ele>
        <time>2021-10-14T07:20:16Z</time>
      </trkpt>
      <trkpt lat="43.41828" lon="-0.37391">
        <ele>228</ele>
        <time>2021-10-14T07:20:18Z</time>
      </trkpt>
      <trkpt lat="43.41829" lon="-0.37384">
        <ele>230.2</ele>
        <time>2021-10-14T07:20:21Z</time>
      </trkpt>
      <trkpt lat="43.4183" lon="-0.3738">
        <ele>230.3</ele>
        <time>2021-10-14T07:20:23Z</time>
      </trkpt>
      <trkpt lat="43.41831" lon="-0.37359">
        <ele>231.6</ele>
        <time>2021-10-14T07:20:30Z</time>
      </trkpt>
      <trkpt lat="43.41832" lon="-0.37351">
        <ele>231.1</ele>
        <time>2021-10-14T07:20:33Z</time>
      </trkpt>
      <trkpt lat="43.41833" lon="-0.37348">
        <ele>231</ele>
        <time>2021-10-14T07:20:34Z</time>
      </trkpt>
      <trkpt lat="43.41832" lon="-0.37343">
        <ele>230.9</ele>
        <time>2021-10-14T07:20:36Z</time>
      </trkpt>
      <trkpt lat="43.41831" lon="-0.37343">
        <ele>231.2</ele>
        <time>2021-10-14T07:20:37Z</time>
      </trkpt>
      <trkpt lat="43.4183" lon="-0.37334">
        <ele>231.7</ele>
        <time>2021-10-14T07:20:40Z</time>
      </trkpt>
      <trkpt lat="43.41829" lon="-0.37319">
        <ele>233.4</ele>
        <time>2021-10-14T07:20:44Z</time>
      </trkpt>
      <trkpt lat="43.41828" lon="-0.37312">
        <ele>233.2</ele>
        <time>2021-10-14T07:20:47Z</time>
      </trkpt>
      <trkpt lat="43.41826" lon="-0.37274">
        <ele>231.5</ele>
        <time>2021-10-14T07:21:01Z</time>
      </trkpt>
      <trkpt lat="43.41825" lon="-0.37274">
        <ele>232</ele>
        <time>2021-10-14T07:21:02Z</time>
      </trkpt>
      <trkpt lat="43.41832" lon="-0.37242">
        <ele>232.5</ele>
        <time>2021-10-14T07:21:10Z</time>
      </trkpt>
      <trkpt lat="43.41832" lon="-0.37238">
        <ele>233.7</ele>
        <time>2021-10-14T07:21:11Z</time>
      </trkpt>
      <trkpt lat="43.41833" lon="-0.37231">
        <ele>234.1</ele>
        <time>2021-10-14T07:21:13Z</time>
      </trkpt>
      <trkpt lat="43.41838" lon="-0.37211">
        <ele>236.9</ele>
        <time>2021-10-14T07:21:19Z</time>
      </trkpt>
      <trkpt lat="43.41839" lon="-0.37208">
        <ele>238.5</ele>
        <time>2021-10-14T07:21:20Z</time>
      </trkpt>
      <trkpt lat="43.41842" lon="-0.37202">
        <ele>237.2</ele>
        <time>2021-10-14T07:21:22Z</time>
      </trkpt>
      <trkpt lat="43.41843" lon="-0.37199">
        <ele>237.8</ele>
        <time>2021-10-14T07:21:23Z</time>
      </trkpt>
      <trkpt lat="43.41844" lon="-0.37196">
        <ele>238</ele>
        <time>2021-10-14T07:21:24Z</time>
      </trkpt>
      <trkpt lat="43.41845" lon="-0.3719">
        <ele>238.3</ele>
        <time>2021-10-14T07:21:27Z</time>
      </trkpt>
      <trkpt lat="43.41845" lon="-0.37185">
        <ele>239.6</ele>
        <time>2021-10-14T07:21:29Z</time>
      </trkpt>
      <trkpt lat="43.41844" lon="-0.37183">
        <ele>238.6</ele>
        <time>2021-10-14T07:21:30Z</time>
      </trkpt>
      <trkpt lat="43.41844" lon="-0.37181">
        <ele>239</ele>
        <time>2021-10-14T07:21:31Z</time>
      </trkpt>
      <trkpt lat="43.41843" lon="-0.37177">
        <ele>238.8</ele>
        <time>2021-10-14T07:21:33Z</time>
      </trkpt>
      <trkpt lat="43.41842" lon="-0.37175">
        <ele>238.9</ele>
        <time>2021-10-14T07:21:34Z</time>
      </trkpt>
      <trkpt lat="43.41842" lon="-0.37173">
        <ele>238.6</ele>
        <time>2021-10-14T07:21:35Z</time>
      </trkpt>
      <trkpt lat="43.41842" lon="-0.37171">
        <ele>239.1</ele>
        <time>2021-10-14T07:21:36Z</time>
      </trkpt>
      <trkpt lat="43.41842" lon="-0.37169">
        <ele>240.1</ele>
        <time>2021-10-14T07:21:37Z</time>
      </trkpt>
      <trkpt lat="43.41842" lon="-0.37167">
        <ele>239.1</ele>
        <time>2021-10-14T07:21:38Z</time>
      </trkpt>
      <trkpt lat="43.41842" lon="-0.37165">
        <ele>237.7</ele>
        <time>2021-10-14T07:21:39Z</time>
      </trkpt>
      <trkpt lat="43.41841" lon="-0.37158">
        <ele>238.9</ele>
        <time>2021-10-14T07:21:42Z</time>
      </trkpt>
      <trkpt lat="43.41841" lon="-0.37154">
        <ele>240.4</ele>
        <time>2021-10-14T07:21:44Z</time>
      </trkpt>
      <trkpt lat="43.41839" lon="-0.37139">
        <ele>239.4</ele>
        <time>2021-10-14T07:21:51Z</time>
      </trkpt>
      <trkpt lat="43.41839" lon="-0.37137">
        <ele>238.3</ele>
        <time>2021-10-14T07:21:52Z</time>
      </trkpt>
      <trkpt lat="43.41839" lon="-0.37135">
        <ele>238.5</ele>
        <time>2021-10-14T07:21:53Z</time>
      </trkpt>
      <trkpt lat="43.41837" lon="-0.37128">
        <ele>240.3</ele>
        <time>2021-10-14T07:21:56Z</time>
      </trkpt>
      <trkpt lat="43.41834" lon="-0.37117">
        <ele>238.6</ele>
        <time>2021-10-14T07:22:01Z</time>
      </trkpt>
      <trkpt lat="43.41832" lon="-0.37106">
        <ele>238.6</ele>
        <time>2021-10-14T07:22:06Z</time>
      </trkpt>
      <trkpt lat="43.41832" lon="-0.37104">
        <ele>239.4</ele>
        <time>2021-10-14T07:22:07Z</time>
      </trkpt>
      <trkpt lat="43.41831" lon="-0.37101">
        <ele>237.8</ele>
        <time>2021-10-14T07:22:08Z</time>
      </trkpt>
      <trkpt lat="43.41831" lon="-0.37096">
        <ele>238.3</ele>
        <time>2021-10-14T07:22:10Z</time>
      </trkpt>
      <trkpt lat="43.4183" lon="-0.37094">
        <ele>238.1</ele>
        <time>2021-10-14T07:22:11Z</time>
      </trkpt>
      <trkpt lat="43.41829" lon="-0.37087">
        <ele>237.9</ele>
        <time>2021-10-14T07:22:14Z</time>
      </trkpt>
      <trkpt lat="43.41829" lon="-0.37084">
        <ele>238.3</ele>
        <time>2021-10-14T07:22:15Z</time>
      </trkpt>
      <trkpt lat="43.41829" lon="-0.37082">
        <ele>238.5</ele>
        <time>2021-10-14T07:22:16Z</time>
      </trkpt>
      <trkpt lat="43.4183" lon="-0.3708">
        <ele>237.7</ele>
        <time>2021-10-14T07:22:17Z</time>
      </trkpt>
      <trkpt lat="43.41826" lon="-0.37046">
        <ele>238.6</ele>
        <time>2021-10-14T07:22:29Z</time>
      </trkpt>
      <trkpt lat="43.41825" lon="-0.37044">
        <ele>239.4</ele>
        <time>2021-10-14T07:22:30Z</time>
      </trkpt>
      <trkpt lat="43.41824" lon="-0.37039">
        <ele>238.9</ele>
        <time>2021-10-14T07:22:32Z</time>
      </trkpt>
      <trkpt lat="43.41823" lon="-0.37037">
        <ele>238.9</ele>
        <time>2021-10-14T07:22:33Z</time>
      </trkpt>
      <trkpt lat="43.41823" lon="-0.37035">
        <ele>239</ele>
        <time>2021-10-14T07:22:34Z</time>
      </trkpt>
      <trkpt lat="43.41822" lon="-0.37017">
        <ele>238.1</ele>
        <time>2021-10-14T07:22:41Z</time>
      </trkpt>
      <trkpt lat="43.41823" lon="-0.37016">
        <ele>238.5</ele>
        <time>2021-10-14T07:22:42Z</time>
      </trkpt>
      <trkpt lat="43.41824" lon="-0.37014">
        <ele>238</ele>
        <time>2021-10-14T07:22:43Z</time>
      </trkpt>
      <trkpt lat="43.41825" lon="-0.37009">
        <ele>239</ele>
        <time>2021-10-14T07:22:45Z</time>
      </trkpt>
      <trkpt lat="43.41825" lon="-0.36991">
        <ele>241.8</ele>
        <time>2021-10-14T07:22:52Z</time>
      </trkpt>
      <trkpt lat="43.41825" lon="-0.36989">
        <ele>241.8</ele>
        <time>2021-10-14T07:22:53Z</time>
      </trkpt>
      <trkpt lat="43.41826" lon="-0.36984">
        <ele>242.1</ele>
        <time>2021-10-14T07:22:55Z</time>
      </trkpt>
      <trkpt lat="43.41827" lon="-0.36974">
        <ele>244.6</ele>
        <time>2021-10-14T07:23:00Z</time>
      </trkpt>
      <trkpt lat="43.41827" lon="-0.36973">
        <ele>244.7</ele>
        <time>2021-10-14T07:23:01Z</time>
      </trkpt>
      <trkpt lat="43.41828" lon="-0.36967">
        <ele>245.2</ele>
        <time>2021-10-14T07:23:04Z</time>
      </trkpt>
      <trkpt lat="43.41828" lon="-0.36965">
        <ele>245.1</ele>
        <time>2021-10-14T07:23:05Z</time>
      </trkpt>
      <trkpt lat="43.41827" lon="-0.36964">
        <ele>245.7</ele>
        <time>2021-10-14T07:23:06Z</time>
      </trkpt>
      <trkpt lat="43.41827" lon="-0.36964">
        <ele>246.6</ele>
        <time>2021-10-14T07:23:07Z</time>
      </trkpt>
      <trkpt lat="43.41826" lon="-0.36958">
        <ele>246.3</ele>
        <time>2021-10-14T07:23:10Z</time>
      </trkpt>
      <trkpt lat="43.41826" lon="-0.36955">
        <ele>246.4</ele>
        <time>2021-10-14T07:23:11Z</time>
      </trkpt>
      <trkpt lat="43.41827" lon="-0.36945">
        <ele>248.6</ele>
        <time>2021-10-14T07:23:16Z</time>
      </trkpt>
      <trkpt lat="43.41828" lon="-0.36941">
        <ele>247.5</ele>
        <time>2021-10-14T07:23:18Z</time>
      </trkpt>
      <trkpt lat="43.41828" lon="-0.36938">
        <ele>248.8</ele>
        <time>2021-10-14T07:23:19Z</time>
      </trkpt>
      <trkpt lat="43.41828" lon="-0.36936">
        <ele>248.6</ele>
        <time>2021-10-14T07:23:20Z</time>
      </trkpt>
      <trkpt lat="43.41828" lon="-0.36935">
        <ele>249.3</ele>
        <time>2021-10-14T07:23:21Z</time>
      </trkpt>
      <trkpt lat="43.41828" lon="-0.36933">
        <ele>248.9</ele>
        <time>2021-10-14T07:23:22Z</time>
      </trkpt>
      <trkpt lat="43.41828" lon="-0.36931">
        <ele>250.1</ele>
        <time>2021-10-14T07:23:23Z</time>
      </trkpt>
      <trkpt lat="43.41829" lon="-0.36927">
        <ele>250.9</ele>
        <time>2021-10-14T07:23:25Z</time>
      </trkpt>
      <trkpt lat="43.4183" lon="-0.36925">
        <ele>250.2</ele>
        <time>2021-10-14T07:23:26Z</time>
      </trkpt>
      <trkpt lat="43.41831" lon="-0.36924">
        <ele>250.3</ele>
        <time>2021-10-14T07:23:27Z</time>
      </trkpt>
      <trkpt lat="43.41832" lon="-0.36923">
        <ele>250.5</ele>
        <time>2021-10-14T07:23:28Z</time>
      </trkpt>
      <trkpt lat="43.41834" lon="-0.36923">
        <ele>249.7</ele>
        <time>2021-10-14T07:23:29Z</time>
      </trkpt>
      <trkpt lat="43.41837" lon="-0.36922">
        <ele>250.6</ele>
        <time>2021-10-14T07:23:31Z</time>
      </trkpt>
      <trkpt lat="43.41839" lon="-0.36922">
        <ele>250</ele>
        <time>2021-10-14T07:23:32Z</time>
      </trkpt>
      <trkpt lat="43.4184" lon="-0.36922">
        <ele>250.3</ele>
        <time>2021-10-14T07:23:33Z</time>
      </trkpt>
      <trkpt lat="43.41842" lon="-0.36922">
        <ele>251.3</ele>
        <time>2021-10-14T07:23:34Z</time>
      </trkpt>
      <trkpt lat="43.41845" lon="-0.36922">
        <ele>252.4</ele>
        <time>2021-10-14T07:23:36Z</time>
      </trkpt>
      <trkpt lat="43.4185" lon="-0.36922">
        <ele>253.1</ele>
        <time>2021-10-14T07:23:39Z</time>
      </trkpt>
      <trkpt lat="43.41852" lon="-0.36923">
        <ele>253</ele>
        <time>2021-10-14T07:23:40Z</time>
      </trkpt>
      <trkpt lat="43.41855" lon="-0.36923">
        <ele>254.4</ele>
        <time>2021-10-14T07:23:42Z</time>
      </trkpt>
      <trkpt lat="43.41856" lon="-0.36924">
        <ele>253.6</ele>
        <time>2021-10-14T07:23:43Z</time>
      </trkpt>
      <trkpt lat="43.41858" lon="-0.36924">
        <ele>254.2</ele>
        <time>2021-10-14T07:23:44Z</time>
      </trkpt>
      <trkpt lat="43.41859" lon="-0.36924">
        <ele>255.3</ele>
        <time>2021-10-14T07:23:45Z</time>
      </trkpt>
      <trkpt lat="43.41861" lon="-0.36923">
        <ele>255.1</ele>
        <time>2021-10-14T07:23:46Z</time>
      </trkpt>
      <trkpt lat="43.41862" lon="-0.36922">
        <ele>255.7</ele>
        <time>2021-10-14T07:23:47Z</time>
      </trkpt>
      <trkpt lat="43.41863" lon="-0.36921">
        <ele>257.1</ele>
        <time>2021-10-14T07:23:48Z</time>
      </trkpt>
      <trkpt lat="43.41865" lon="-0.36921">
        <ele>258.7</ele>
        <time>2021-10-14T07:23:49Z</time>
      </trkpt>
      <trkpt lat="43.41866" lon="-0.36921">
        <ele>258.4</ele>
        <time>2021-10-14T07:23:50Z</time>
      </trkpt>
      <trkpt lat="43.41867" lon="-0.36922">
        <ele>259.9</ele>
        <time>2021-10-14T07:23:51Z</time>
      </trkpt>
      <trkpt lat="43.41868" lon="-0.36922">
        <ele>259.6</ele>
        <time>2021-10-14T07:23:52Z</time>
      </trkpt>
      <trkpt lat="43.41871" lon="-0.36924">
        <ele>260.9</ele>
        <time>2021-10-14T07:23:55Z</time>
      </trkpt>
      <trkpt lat="43.41871" lon="-0.36925">
        <ele>261.5</ele>
        <time>2021-10-14T07:23:56Z</time>
      </trkpt>
      <trkpt lat="43.41871" lon="-0.36926">
        <ele>260.3</ele>
        <time>2021-10-14T07:23:58Z</time>
      </trkpt>
      <trkpt lat="43.41872" lon="-0.36927">
        <ele>260.1</ele>
        <time>2021-10-14T07:23:59Z</time>
      </trkpt>
      <trkpt lat="43.41872" lon="-0.36927">
        <ele>260.4</ele>
        <time>2021-10-14T07:24:00Z</time>
      </trkpt>
      <trkpt lat="43.41873" lon="-0.36928">
        <ele>260.6</ele>
        <time>2021-10-14T07:24:01Z</time>
      </trkpt>
      <trkpt lat="43.41873" lon="-0.36928">
        <ele>259.6</ele>
        <time>2021-10-14T07:24:02Z</time>
      </trkpt>
      <trkpt lat="43.41874" lon="-0.36928">
        <ele>260.1</ele>
        <time>2021-10-14T07:24:03Z</time>
      </trkpt>
      <trkpt lat="43.41874" lon="-0.36928">
        <ele>259.7</ele>
        <time>2021-10-14T07:24:04Z</time>
      </trkpt>
      <trkpt lat="43.41874" lon="-0.36928">
        <ele>259.7</ele>
        <time>2021-10-14T07:24:05Z</time>
      </trkpt>
      <trkpt lat="43.41874" lon="-0.36928">
        <ele>259.8</ele>
        <time>2021-10-14T07:24:06Z</time>
      </trkpt>
      <trkpt lat="43.41874" lon="-0.36928">
        <ele>260.5</ele>
        <time>2021-10-14T07:24:07Z</time>
      </trkpt>
      <trkpt lat="43.41874" lon="-0.36928">
        <ele>260.2</ele>
        <time>2021-10-14T07:24:26Z</time>
      </trkpt>
      <trkpt lat="43.41874" lon="-0.36928">
        <ele>261.1</ele>
        <time>2021-10-14T07:24:27Z</time>
      </trkpt>
      <trkpt lat="43.41873" lon="-0.36928">
        <ele>262.6</ele>
        <time>2021-10-14T07:24:29Z</time>
      </trkpt>
      <trkpt lat="43.41873" lon="-0.36927">
        <ele>261.7</ele>
        <time>2021-10-14T07:24:32Z</time>
      </trkpt>
      <trkpt lat="43.41873" lon="-0.36927">
        <ele>262.2</ele>
        <time>2021-10-14T07:24:33Z</time>
      </trkpt>
      <trkpt lat="43.41873" lon="-0.36927">
        <ele>262.5</ele>
        <time>2021-10-14T07:24:34Z</time>
      </trkpt>
      <trkpt lat="43.41873" lon="-0.36927">
        <ele>262.7</ele>
        <time>2021-10-14T07:24:48Z</time>
      </trkpt>
      <trkpt lat="43.41873" lon="-0.36927">
        <ele>262.4</ele>
        <time>2021-10-14T07:24:51Z</time>
      </trkpt>
      <trkpt lat="43.41873" lon="-0.36927">
        <ele>262.3</ele>
        <time>2021-10-14T07:24:52Z</time>
      </trkpt>
      <trkpt lat="43.41873" lon="-0.36927">
        <ele>262.7</ele>
        <time>2021-10-14T07:24:54Z</time>
      </trkpt>
      <trkpt lat="43.41873" lon="-0.36927">
        <ele>261.8</ele>
        <time>2021-10-14T07:25:05Z</time>
      </trkpt>
      <trkpt lat="43.41873" lon="-0.36927">
        <ele>261.3</ele>
        <time>2021-10-14T07:25:06Z</time>
      </trkpt>
      <trkpt lat="43.41873" lon="-0.36927">
        <ele>260.7</ele>
        <time>2021-10-14T07:25:07Z</time>
      </trkpt>
      <trkpt lat="43.41873" lon="-0.36927">
        <ele>261.7</ele>
        <time>2021-10-14T07:25:08Z</time>
      </trkpt>
      <trkpt lat="43.41873" lon="-0.36927">
        <ele>261.9</ele>
        <time>2021-10-14T07:25:10Z</time>
      </trkpt>
      <trkpt lat="43.41873" lon="-0.36927">
        <ele>261.4</ele>
        <time>2021-10-14T07:25:11Z</time>
      </trkpt>
      <trkpt lat="43.41873" lon="-0.36928">
        <ele>262.9</ele>
        <time>2021-10-14T07:25:12Z</time>
      </trkpt>
      <trkpt lat="43.41873" lon="-0.36928">
        <ele>263.3</ele>
        <time>2021-10-14T07:25:13Z</time>
      </trkpt>
      <trkpt lat="43.41873" lon="-0.36928">
        <ele>262.6</ele>
        <time>2021-10-14T07:25:14Z</time>
      </trkpt>
      <trkpt lat="43.41872" lon="-0.36928">
        <ele>263.4</ele>
        <time>2021-10-14T07:25:16Z</time>
      </trkpt>
      <trkpt lat="43.41872" lon="-0.36928">
        <ele>264.7</ele>
        <time>2021-10-14T07:25:18Z</time>
      </trkpt>
      <trkpt lat="43.41872" lon="-0.36928">
        <ele>263.7</ele>
        <time>2021-10-14T07:25:20Z</time>
      </trkpt>
      <trkpt lat="43.41872" lon="-0.36928">
        <ele>264.6</ele>
        <time>2021-10-14T07:28:14Z</time>
      </trkpt>
      <trkpt lat="43.41872" lon="-0.36927">
        <ele>265.2</ele>
        <time>2021-10-14T07:28:16Z</time>
      </trkpt>
      <trkpt lat="43.41872" lon="-0.36927">
        <ele>264.8</ele>
        <time>2021-10-14T07:28:17Z</time>
      </trkpt>
      <trkpt lat="43.41872" lon="-0.36927">
        <ele>265.6</ele>
        <time>2021-10-14T07:28:18Z</time>
      </trkpt>
      <trkpt lat="43.41872" lon="-0.36927">
        <ele>264.9</ele>
        <time>2021-10-14T07:28:19Z</time>
      </trkpt>
      <trkpt lat="43.41872" lon="-0.36927">
        <ele>265.1</ele>
        <time>2021-10-14T07:28:20Z</time>
      </trkpt>
      <trkpt lat="43.41872" lon="-0.36927">
        <ele>265.7</ele>
        <time>2021-10-14T07:28:55Z</time>
      </trkpt>
      <trkpt lat="43.41872" lon="-0.36927">
        <ele>266.7</ele>
        <time>2021-10-14T07:28:56Z</time>
      </trkpt>
      <trkpt lat="43.41872" lon="-0.36926">
        <ele>266.7</ele>
        <time>2021-10-14T07:28:57Z</time>
      </trkpt>
      <trkpt lat="43.41872" lon="-0.36926">
        <ele>266.8</ele>
        <time>2021-10-14T07:28:58Z</time>
      </trkpt>
      <trkpt lat="43.41872" lon="-0.36925">
        <ele>267.8</ele>
        <time>2021-10-14T07:28:59Z</time>
      </trkpt>
      <trkpt lat="43.41871" lon="-0.36922">
        <ele>268.1</ele>
        <time>2021-10-14T07:29:06Z</time>
      </trkpt>
      <trkpt lat="43.41871" lon="-0.36922">
        <ele>269.5</ele>
        <time>2021-10-14T07:29:07Z</time>
      </trkpt>
      <trkpt lat="43.41871" lon="-0.36922">
        <ele>268.8</ele>
        <time>2021-10-14T07:29:08Z</time>
      </trkpt>
      <trkpt lat="43.41871" lon="-0.36922">
        <ele>268.6</ele>
        <time>2021-10-14T07:29:33Z</time>
      </trkpt>
      <trkpt lat="43.41873" lon="-0.36923">
        <ele>270.2</ele>
        <time>2021-10-14T07:29:35Z</time>
      </trkpt>
      <trkpt lat="43.41873" lon="-0.36923">
        <ele>271.1</ele>
        <time>2021-10-14T07:29:36Z</time>
      </trkpt>
      <trkpt lat="43.41873" lon="-0.36923">
        <ele>270.8</ele>
        <time>2021-10-14T07:29:37Z</time>
      </trkpt>
      <trkpt lat="43.41874" lon="-0.36924">
        <ele>270.5</ele>
        <time>2021-10-14T07:29:38Z</time>
      </trkpt>
      <trkpt lat="43.41875" lon="-0.36927">
        <ele>271.7</ele>
        <time>2021-10-14T07:29:40Z</time>
      </trkpt>
      <trkpt lat="43.41877" lon="-0.36929">
        <ele>270.5</ele>
        <time>2021-10-14T07:29:42Z</time>
      </trkpt>
      <trkpt lat="43.41878" lon="-0.36931">
        <ele>271.2</ele>
        <time>2021-10-14T07:29:43Z</time>
      </trkpt>
      <trkpt lat="43.4188" lon="-0.36934">
        <ele>271.4</ele>
        <time>2021-10-14T07:29:46Z</time>
      </trkpt>
      <trkpt lat="43.41881" lon="-0.36935">
        <ele>271.2</ele>
        <time>2021-10-14T07:29:47Z</time>
      </trkpt>
      <trkpt lat="43.41882" lon="-0.36936">
        <ele>271.4</ele>
        <time>2021-10-14T07:29:48Z</time>
      </trkpt>
      <trkpt lat="43.41883" lon="-0.36938">
        <ele>271.3</ele>
        <time>2021-10-14T07:29:49Z</time>
      </trkpt>
      <trkpt lat="43.41884" lon="-0.36939">
        <ele>271.8</ele>
        <time>2021-10-14T07:29:50Z</time>
      </trkpt>
      <trkpt lat="43.41889" lon="-0.36944">
        <ele>272.4</ele>
        <time>2021-10-14T07:29:54Z</time>
      </trkpt>
      <trkpt lat="43.41894" lon="-0.36948">
        <ele>273.9</ele>
        <time>2021-10-14T07:29:57Z</time>
      </trkpt>
      <trkpt lat="43.41907" lon="-0.36965">
        <ele>275.1</ele>
        <time>2021-10-14T07:30:05Z</time>
      </trkpt>
      <trkpt lat="43.41918" lon="-0.36976">
        <ele>276.8</ele>
        <time>2021-10-14T07:30:11Z</time>
      </trkpt>
      <trkpt lat="43.41918" lon="-0.36977">
        <ele>276.5</ele>
        <time>2021-10-14T07:30:12Z</time>
      </trkpt>
      <trkpt lat="43.41918" lon="-0.36978">
        <ele>277.9</ele>
        <time>2021-10-14T07:30:13Z</time>
      </trkpt>
      <trkpt lat="43.41923" lon="-0.36982">
        <ele>277.5</ele>
        <time>2021-10-14T07:30:15Z</time>
      </trkpt>
      <trkpt lat="43.41929" lon="-0.36986">
        <ele>277.1</ele>
        <time>2021-10-14T07:30:16Z</time>
      </trkpt>
      <trkpt lat="43.41939" lon="-0.36995">
        <ele>277</ele>
        <time>2021-10-14T07:30:20Z</time>
      </trkpt>
      <trkpt lat="43.41943" lon="-0.36999">
        <ele>279.2</ele>
        <time>2021-10-14T07:30:22Z</time>
      </trkpt>
      <trkpt lat="43.41946" lon="-0.37001">
        <ele>279.4</ele>
        <time>2021-10-14T07:30:23Z</time>
      </trkpt>
      <trkpt lat="43.41951" lon="-0.37005">
        <ele>280.6</ele>
        <time>2021-10-14T07:30:25Z</time>
      </trkpt>
      <trkpt lat="43.41953" lon="-0.37008">
        <ele>280.5</ele>
        <time>2021-10-14T07:30:26Z</time>
      </trkpt>
      <trkpt lat="43.41957" lon="-0.37013">
        <ele>280.8</ele>
        <time>2021-10-14T07:30:28Z</time>
      </trkpt>
      <trkpt lat="43.41978" lon="-0.37036">
        <ele>281.3</ele>
        <time>2021-10-14T07:30:36Z</time>
      </trkpt>
      <trkpt lat="43.41978" lon="-0.37035">
        <ele>280.8</ele>
        <time>2021-10-14T07:30:37Z</time>
      </trkpt>
      <trkpt lat="43.42003" lon="-0.37083">
        <ele>282.3</ele>
        <time>2021-10-14T07:30:46Z</time>
      </trkpt>
      <trkpt lat="43.42004" lon="-0.37087">
        <ele>282.2</ele>
        <time>2021-10-14T07:30:47Z</time>
      </trkpt>
      <trkpt lat="43.42007" lon="-0.37098">
        <ele>282.9</ele>
        <time>2021-10-14T07:30:50Z</time>
      </trkpt>
      <trkpt lat="43.42008" lon="-0.37106">
        <ele>281.6</ele>
        <time>2021-10-14T07:30:52Z</time>
      </trkpt>
      <trkpt lat="43.42009" lon="-0.37125">
        <ele>282</ele>
        <time>2021-10-14T07:30:57Z</time>
      </trkpt>
      <trkpt lat="43.42009" lon="-0.37132">
        <ele>282</ele>
        <time>2021-10-14T07:30:59Z</time>
      </trkpt>
      <trkpt lat="43.42008" lon="-0.37139">
        <ele>281.9</ele>
        <time>2021-10-14T07:31:01Z</time>
      </trkpt>
      <trkpt lat="43.42007" lon="-0.37142">
        <ele>281.9</ele>
        <time>2021-10-14T07:31:02Z</time>
      </trkpt>
      <trkpt lat="43.42001" lon="-0.37162">
        <ele>282</ele>
        <time>2021-10-14T07:31:06Z</time>
      </trkpt>
      <trkpt lat="43.42" lon="-0.37167">
        <ele>281.1</ele>
        <time>2021-10-14T07:31:07Z</time>
      </trkpt>
      <trkpt lat="43.42" lon="-0.37181">
        <ele>280.6</ele>
        <time>2021-10-14T07:31:10Z</time>
      </trkpt>
      <trkpt lat="43.42" lon="-0.37185">
        <ele>280.4</ele>
        <time>2021-10-14T07:31:11Z</time>
      </trkpt>
      <trkpt lat="43.42001" lon="-0.37196">
        <ele>281.4</ele>
        <time>2021-10-14T07:31:13Z</time>
      </trkpt>
      <trkpt lat="43.42004" lon="-0.37208">
        <ele>281.9</ele>
        <time>2021-10-14T07:31:15Z</time>
      </trkpt>
      <trkpt lat="43.42015" lon="-0.37239">
        <ele>281</ele>
        <time>2021-10-14T07:31:20Z</time>
      </trkpt>
      <trkpt lat="43.42014" lon="-0.37241">
        <ele>281.3</ele>
        <time>2021-10-14T07:31:21Z</time>
      </trkpt>
      <trkpt lat="43.42017" lon="-0.37253">
        <ele>281.6</ele>
        <time>2021-10-14T07:31:23Z</time>
      </trkpt>
      <trkpt lat="43.42018" lon="-0.37258">
        <ele>279.7</ele>
        <time>2021-10-14T07:31:24Z</time>
      </trkpt>
      <trkpt lat="43.42018" lon="-0.37261">
        <ele>280.2</ele>
        <time>2021-10-14T07:31:25Z</time>
      </trkpt>
      <trkpt lat="43.42018" lon="-0.37265">
        <ele>280.2</ele>
        <time>2021-10-14T07:31:26Z</time>
      </trkpt>
      <trkpt lat="43.42019" lon="-0.37268">
        <ele>281.3</ele>
        <time>2021-10-14T07:31:27Z</time>
      </trkpt>
      <trkpt lat="43.42037" lon="-0.37306">
        <ele>282.1</ele>
        <time>2021-10-14T07:31:39Z</time>
      </trkpt>
      <trkpt lat="43.42049" lon="-0.37325">
        <ele>280.3</ele>
        <time>2021-10-14T07:31:45Z</time>
      </trkpt>
      <trkpt lat="43.42051" lon="-0.37329">
        <ele>280.3</ele>
        <time>2021-10-14T07:31:46Z</time>
      </trkpt>
      <trkpt lat="43.42052" lon="-0.37333">
        <ele>281.3</ele>
        <time>2021-10-14T07:31:47Z</time>
      </trkpt>
      <trkpt lat="43.42052" lon="-0.37337">
        <ele>279.3</ele>
        <time>2021-10-14T07:31:48Z</time>
      </trkpt>
      <trkpt lat="43.42051" lon="-0.37343">
        <ele>280.2</ele>
        <time>2021-10-14T07:31:50Z</time>
      </trkpt>
      <trkpt lat="43.42051" lon="-0.37347">
        <ele>279.4</ele>
        <time>2021-10-14T07:31:51Z</time>
      </trkpt>
      <trkpt lat="43.42053" lon="-0.37348">
        <ele>279.3</ele>
        <time>2021-10-14T07:31:52Z</time>
      </trkpt>
      <trkpt lat="43.42054" lon="-0.37364">
        <ele>277.9</ele>
        <time>2021-10-14T07:31:55Z</time>
      </trkpt>
      <trkpt lat="43.42056" lon="-0.37387">
        <ele>276.6</ele>
        <time>2021-10-14T07:32:00Z</time>
      </trkpt>
      <trkpt lat="43.42056" lon="-0.37398">
        <ele>277</ele>
        <time>2021-10-14T07:32:03Z</time>
      </trkpt>
      <trkpt lat="43.42056" lon="-0.37401">
        <ele>276.8</ele>
        <time>2021-10-14T07:32:04Z</time>
      </trkpt>
      <trkpt lat="43.42057" lon="-0.37412">
        <ele>277.2</ele>
        <time>2021-10-14T07:32:07Z</time>
      </trkpt>
      <trkpt lat="43.42056" lon="-0.37436">
        <ele>276.2</ele>
        <time>2021-10-14T07:32:13Z</time>
      </trkpt>
      <trkpt lat="43.42055" lon="-0.37445">
        <ele>275.9</ele>
        <time>2021-10-14T07:32:16Z</time>
      </trkpt>
      <trkpt lat="43.42057" lon="-0.37445">
        <ele>276.9</ele>
        <time>2021-10-14T07:32:17Z</time>
      </trkpt>
      <trkpt lat="43.42056" lon="-0.37448">
        <ele>276</ele>
        <time>2021-10-14T07:32:18Z</time>
      </trkpt>
      <trkpt lat="43.42054" lon="-0.37458">
        <ele>276.5</ele>
        <time>2021-10-14T07:32:21Z</time>
      </trkpt>
      <trkpt lat="43.42053" lon="-0.37461">
        <ele>276.7</ele>
        <time>2021-10-14T07:32:22Z</time>
      </trkpt>
      <trkpt lat="43.42053" lon="-0.37464">
        <ele>275.2</ele>
        <time>2021-10-14T07:32:23Z</time>
      </trkpt>
      <trkpt lat="43.42051" lon="-0.37468">
        <ele>274.8</ele>
        <time>2021-10-14T07:32:25Z</time>
      </trkpt>
      <trkpt lat="43.42049" lon="-0.37473">
        <ele>274.9</ele>
        <time>2021-10-14T07:32:27Z</time>
      </trkpt>
      <trkpt lat="43.42048" lon="-0.37476">
        <ele>275.9</ele>
        <time>2021-10-14T07:32:28Z</time>
      </trkpt>
      <trkpt lat="43.42047" lon="-0.37478">
        <ele>274.8</ele>
        <time>2021-10-14T07:32:29Z</time>
      </trkpt>
      <trkpt lat="43.42042" lon="-0.37485">
        <ele>275.7</ele>
        <time>2021-10-14T07:32:32Z</time>
      </trkpt>
      <trkpt lat="43.42035" lon="-0.37492">
        <ele>273.4</ele>
        <time>2021-10-14T07:32:35Z</time>
      </trkpt>
      <trkpt lat="43.42032" lon="-0.37494">
        <ele>273</ele>
        <time>2021-10-14T07:32:36Z</time>
      </trkpt>
      <trkpt lat="43.42026" lon="-0.37498">
        <ele>273.1</ele>
        <time>2021-10-14T07:32:38Z</time>
      </trkpt>
      <trkpt lat="43.41999" lon="-0.3752">
        <ele>271.4</ele>
        <time>2021-10-14T07:32:47Z</time>
      </trkpt>
      <trkpt lat="43.4199" lon="-0.37524">
        <ele>271.2</ele>
        <time>2021-10-14T07:32:50Z</time>
      </trkpt>
      <trkpt lat="43.41988" lon="-0.37525">
        <ele>270.9</ele>
        <time>2021-10-14T07:32:51Z</time>
      </trkpt>
      <trkpt lat="43.41987" lon="-0.37528">
        <ele>271.3</ele>
        <time>2021-10-14T07:32:52Z</time>
      </trkpt>
      <trkpt lat="43.41987" lon="-0.37533">
        <ele>271.4</ele>
        <time>2021-10-14T07:32:53Z</time>
      </trkpt>
      <trkpt lat="43.41988" lon="-0.37537">
        <ele>270.6</ele>
        <time>2021-10-14T07:32:54Z</time>
      </trkpt>
      <trkpt lat="43.4199" lon="-0.3754">
        <ele>272</ele>
        <time>2021-10-14T07:32:55Z</time>
      </trkpt>
      <trkpt lat="43.41991" lon="-0.37542">
        <ele>270.7</ele>
        <time>2021-10-14T07:32:56Z</time>
      </trkpt>
      <trkpt lat="43.41992" lon="-0.37542">
        <ele>270.8</ele>
        <time>2021-10-14T07:32:57Z</time>
      </trkpt>
      <trkpt lat="43.42012" lon="-0.37538">
        <ele>271.3</ele>
        <time>2021-10-14T07:33:06Z</time>
      </trkpt>
      <trkpt lat="43.42013" lon="-0.3754">
        <ele>272.5</ele>
        <time>2021-10-14T07:33:07Z</time>
      </trkpt>
      <trkpt lat="43.42015" lon="-0.37539">
        <ele>272.4</ele>
        <time>2021-10-14T07:33:08Z</time>
      </trkpt>
      <trkpt lat="43.42019" lon="-0.37538">
        <ele>272</ele>
        <time>2021-10-14T07:33:10Z</time>
      </trkpt>
      <trkpt lat="43.42021" lon="-0.37536">
        <ele>272.6</ele>
        <time>2021-10-14T07:33:11Z</time>
      </trkpt>
      <trkpt lat="43.42024" lon="-0.37535">
        <ele>271.6</ele>
        <time>2021-10-14T07:33:12Z</time>
      </trkpt>
      <trkpt lat="43.42026" lon="-0.37535">
        <ele>271.1</ele>
        <time>2021-10-14T07:33:13Z</time>
      </trkpt>
      <trkpt lat="43.42029" lon="-0.37535">
        <ele>271.5</ele>
        <time>2021-10-14T07:33:14Z</time>
      </trkpt>
      <trkpt lat="43.42031" lon="-0.37535">
        <ele>271.2</ele>
        <time>2021-10-14T07:33:15Z</time>
      </trkpt>
      <trkpt lat="43.42037" lon="-0.37535">
        <ele>270.5</ele>
        <time>2021-10-14T07:33:17Z</time>
      </trkpt>
      <trkpt lat="43.42052" lon="-0.37531">
        <ele>269.2</ele>
        <time>2021-10-14T07:33:23Z</time>
      </trkpt>
      <trkpt lat="43.42069" lon="-0.3753">
        <ele>269.7</ele>
        <time>2021-10-14T07:33:31Z</time>
      </trkpt>
      <trkpt lat="43.42069" lon="-0.37531">
        <ele>269</ele>
        <time>2021-10-14T07:33:32Z</time>
      </trkpt>
      <trkpt lat="43.42081" lon="-0.37529">
        <ele>271.1</ele>
        <time>2021-10-14T07:33:37Z</time>
      </trkpt>
      <trkpt lat="43.42083" lon="-0.37528">
        <ele>271</ele>
        <time>2021-10-14T07:33:38Z</time>
      </trkpt>
      <trkpt lat="43.42085" lon="-0.37527">
        <ele>272.1</ele>
        <time>2021-10-14T07:33:39Z</time>
      </trkpt>
      <trkpt lat="43.42087" lon="-0.37527">
        <ele>272.7</ele>
        <time>2021-10-14T07:33:40Z</time>
      </trkpt>
      <trkpt lat="43.42089" lon="-0.37527">
        <ele>272.9</ele>
        <time>2021-10-14T07:33:41Z</time>
      </trkpt>
      <trkpt lat="43.42091" lon="-0.37527">
        <ele>272.8</ele>
        <time>2021-10-14T07:33:42Z</time>
      </trkpt>
      <trkpt lat="43.42093" lon="-0.37526">
        <ele>272.9</ele>
        <time>2021-10-14T07:33:43Z</time>
      </trkpt>
      <trkpt lat="43.42095" lon="-0.37526">
        <ele>273.1</ele>
        <time>2021-10-14T07:33:44Z</time>
      </trkpt>
      <trkpt lat="43.42107" lon="-0.37523">
        <ele>273.9</ele>
        <time>2021-10-14T07:33:50Z</time>
      </trkpt>
      <trkpt lat="43.4211" lon="-0.37523">
        <ele>274.1</ele>
        <time>2021-10-14T07:33:51Z</time>
      </trkpt>
      <trkpt lat="43.4212" lon="-0.37517">
        <ele>275.1</ele>
        <time>2021-10-14T07:33:55Z</time>
      </trkpt>
      <trkpt lat="43.42123" lon="-0.37516">
        <ele>275.4</ele>
        <time>2021-10-14T07:33:56Z</time>
      </trkpt>
      <trkpt lat="43.42126" lon="-0.37515">
        <ele>275.1</ele>
        <time>2021-10-14T07:33:57Z</time>
      </trkpt>
      <trkpt lat="43.42173" lon="-0.37513">
        <ele>274.2</ele>
        <time>2021-10-14T07:34:12Z</time>
      </trkpt>
      <trkpt lat="43.42174" lon="-0.37512">
        <ele>273</ele>
        <time>2021-10-14T07:34:13Z</time>
      </trkpt>
      <trkpt lat="43.42174" lon="-0.37512">
        <ele>274.3</ele>
        <time>2021-10-14T07:34:14Z</time>
      </trkpt>
      <trkpt lat="43.42174" lon="-0.37511">
        <ele>274.4</ele>
        <time>2021-10-14T07:34:15Z</time>
      </trkpt>
      <trkpt lat="43.42174" lon="-0.37511">
        <ele>274.1</ele>
        <time>2021-10-14T07:34:16Z</time>
      </trkpt>
      <trkpt lat="43.42173" lon="-0.37512">
        <ele>273.5</ele>
        <time>2021-10-14T07:34:18Z</time>
      </trkpt>
      <trkpt lat="43.42173" lon="-0.37512">
        <ele>273.3</ele>
        <time>2021-10-14T07:34:19Z</time>
      </trkpt>
      <trkpt lat="43.42173" lon="-0.37512">
        <ele>272.9</ele>
        <time>2021-10-14T07:34:20Z</time>
      </trkpt>
      <trkpt lat="43.42173" lon="-0.37512">
        <ele>273.2</ele>
        <time>2021-10-14T07:34:21Z</time>
      </trkpt>
      <trkpt lat="43.42173" lon="-0.37512">
        <ele>272.8</ele>
        <time>2021-10-14T07:34:22Z</time>
      </trkpt>
      <trkpt lat="43.42173" lon="-0.37512">
        <ele>272.8</ele>
        <time>2021-10-14T07:34:23Z</time>
      </trkpt>
      <trkpt lat="43.42174" lon="-0.37512">
        <ele>272.6</ele>
        <time>2021-10-14T07:34:24Z</time>
      </trkpt>
      <trkpt lat="43.42175" lon="-0.37512">
        <ele>272.8</ele>
        <time>2021-10-14T07:34:25Z</time>
      </trkpt>
      <trkpt lat="43.42178" lon="-0.3751">
        <ele>273</ele>
        <time>2021-10-14T07:34:26Z</time>
      </trkpt>
      <trkpt lat="43.42179" lon="-0.37508">
        <ele>273.4</ele>
        <time>2021-10-14T07:34:27Z</time>
      </trkpt>
      <trkpt lat="43.4218" lon="-0.37505">
        <ele>273.3</ele>
        <time>2021-10-14T07:34:28Z</time>
      </trkpt>
      <trkpt lat="43.4218" lon="-0.37501">
        <ele>272.9</ele>
        <time>2021-10-14T07:34:29Z</time>
      </trkpt>
      <trkpt lat="43.4218" lon="-0.37498">
        <ele>273.4</ele>
        <time>2021-10-14T07:34:30Z</time>
      </trkpt>
      <trkpt lat="43.42182" lon="-0.37491">
        <ele>273.1</ele>
        <time>2021-10-14T07:34:32Z</time>
      </trkpt>
      <trkpt lat="43.42188" lon="-0.37442">
        <ele>273</ele>
        <time>2021-10-14T07:34:44Z</time>
      </trkpt>
      <trkpt lat="43.4219" lon="-0.37439">
        <ele>273.3</ele>
        <time>2021-10-14T07:34:45Z</time>
      </trkpt>
      <trkpt lat="43.42192" lon="-0.37437">
        <ele>272.2</ele>
        <time>2021-10-14T07:34:46Z</time>
      </trkpt>
      <trkpt lat="43.42194" lon="-0.37435">
        <ele>271.8</ele>
        <time>2021-10-14T07:34:47Z</time>
      </trkpt>
      <trkpt lat="43.42205" lon="-0.37434">
        <ele>270.9</ele>
        <time>2021-10-14T07:34:50Z</time>
      </trkpt>
      <trkpt lat="43.42296" lon="-0.37416">
        <ele>266.1</ele>
        <time>2021-10-14T07:35:14Z</time>
      </trkpt>
      <trkpt lat="43.42308" lon="-0.37413">
        <ele>265</ele>
        <time>2021-10-14T07:35:17Z</time>
      </trkpt>
      <trkpt lat="43.42327" lon="-0.37406">
        <ele>264.1</ele>
        <time>2021-10-14T07:35:22Z</time>
      </trkpt>
      <trkpt lat="43.42333" lon="-0.37402">
        <ele>264.2</ele>
        <time>2021-10-14T07:35:24Z</time>
      </trkpt>
      <trkpt lat="43.42336" lon="-0.374">
        <ele>264.1</ele>
        <time>2021-10-14T07:35:25Z</time>
      </trkpt>
      <trkpt lat="43.42338" lon="-0.37396">
        <ele>264.1</ele>
        <time>2021-10-14T07:35:26Z</time>
      </trkpt>
      <trkpt lat="43.42355" lon="-0.37366">
        <ele>262.2</ele>
        <time>2021-10-14T07:35:33Z</time>
      </trkpt>
      <trkpt lat="43.42361" lon="-0.37358">
        <ele>261.8</ele>
        <time>2021-10-14T07:35:35Z</time>
      </trkpt>
      <trkpt lat="43.42363" lon="-0.3736">
        <ele>262.1</ele>
        <time>2021-10-14T07:35:36Z</time>
      </trkpt>
      <trkpt lat="43.42366" lon="-0.37355">
        <ele>261.5</ele>
        <time>2021-10-14T07:35:37Z</time>
      </trkpt>
      <trkpt lat="43.42378" lon="-0.37335">
        <ele>259.8</ele>
        <time>2021-10-14T07:35:41Z</time>
      </trkpt>
      <trkpt lat="43.42381" lon="-0.37332">
        <ele>261.1</ele>
        <time>2021-10-14T07:35:42Z</time>
      </trkpt>
      <trkpt lat="43.42389" lon="-0.37331">
        <ele>261.2</ele>
        <time>2021-10-14T07:35:44Z</time>
      </trkpt>
      <trkpt lat="43.42403" lon="-0.37332">
        <ele>261</ele>
        <time>2021-10-14T07:35:47Z</time>
      </trkpt>
      <trkpt lat="43.42408" lon="-0.37331">
        <ele>262.2</ele>
        <time>2021-10-14T07:35:48Z</time>
      </trkpt>
      <trkpt lat="43.42419" lon="-0.37326">
        <ele>261.7</ele>
        <time>2021-10-14T07:35:51Z</time>
      </trkpt>
      <trkpt lat="43.42422" lon="-0.37325">
        <ele>262</ele>
        <time>2021-10-14T07:35:52Z</time>
      </trkpt>
      <trkpt lat="43.42424" lon="-0.37325">
        <ele>262.2</ele>
        <time>2021-10-14T07:35:53Z</time>
      </trkpt>
      <trkpt lat="43.42429" lon="-0.37327">
        <ele>263.3</ele>
        <time>2021-10-14T07:35:55Z</time>
      </trkpt>
      <trkpt lat="43.42431" lon="-0.37327">
        <ele>263.2</ele>
        <time>2021-10-14T07:35:56Z</time>
      </trkpt>
      <trkpt lat="43.42433" lon="-0.37327">
        <ele>263.5</ele>
        <time>2021-10-14T07:35:57Z</time>
      </trkpt>
      <trkpt lat="43.42435" lon="-0.37327">
        <ele>262.2</ele>
        <time>2021-10-14T07:35:58Z</time>
      </trkpt>
      <trkpt lat="43.42436" lon="-0.37328">
        <ele>262.2</ele>
        <time>2021-10-14T07:35:59Z</time>
      </trkpt>
      <trkpt lat="43.42436" lon="-0.37328">
        <ele>261.9</ele>
        <time>2021-10-14T07:36:00Z</time>
      </trkpt>
      <trkpt lat="43.42436" lon="-0.37328">
        <ele>262</ele>
        <time>2021-10-14T07:36:01Z</time>
      </trkpt>
      <trkpt lat="43.42436" lon="-0.37328">
        <ele>262.5</ele>
        <time>2021-10-14T07:36:02Z</time>
      </trkpt>
      <trkpt lat="43.42437" lon="-0.37328">
        <ele>262.4</ele>
        <time>2021-10-14T07:36:03Z</time>
      </trkpt>
      <trkpt lat="43.4244" lon="-0.37329">
        <ele>261</ele>
        <time>2021-10-14T07:36:05Z</time>
      </trkpt>
      <trkpt lat="43.42442" lon="-0.37328">
        <ele>261.7</ele>
        <time>2021-10-14T07:36:06Z</time>
      </trkpt>
      <trkpt lat="43.42444" lon="-0.37327">
        <ele>261.3</ele>
        <time>2021-10-14T07:36:07Z</time>
      </trkpt>
      <trkpt lat="43.42446" lon="-0.37326">
        <ele>260.5</ele>
        <time>2021-10-14T07:36:08Z</time>
      </trkpt>
      <trkpt lat="43.42448" lon="-0.37326">
        <ele>262.3</ele>
        <time>2021-10-14T07:36:09Z</time>
      </trkpt>
      <trkpt lat="43.42449" lon="-0.37325">
        <ele>262.3</ele>
        <time>2021-10-14T07:36:10Z</time>
      </trkpt>
      <trkpt lat="43.42451" lon="-0.37325">
        <ele>261.8</ele>
        <time>2021-10-14T07:36:11Z</time>
      </trkpt>
      <trkpt lat="43.4246" lon="-0.37326">
        <ele>262.4</ele>
        <time>2021-10-14T07:36:15Z</time>
      </trkpt>
      <trkpt lat="43.42467" lon="-0.37328">
        <ele>262.1</ele>
        <time>2021-10-14T07:36:18Z</time>
      </trkpt>
      <trkpt lat="43.42469" lon="-0.37328">
        <ele>261.1</ele>
        <time>2021-10-14T07:36:19Z</time>
      </trkpt>
      <trkpt lat="43.42486" lon="-0.37336">
        <ele>261.5</ele>
        <time>2021-10-14T07:36:28Z</time>
      </trkpt>
      <trkpt lat="43.42493" lon="-0.37339">
        <ele>262.4</ele>
        <time>2021-10-14T07:36:32Z</time>
      </trkpt>
      <trkpt lat="43.42497" lon="-0.3734">
        <ele>262.2</ele>
        <time>2021-10-14T07:36:34Z</time>
      </trkpt>
      <trkpt lat="43.42499" lon="-0.3734">
        <ele>262.2</ele>
        <time>2021-10-14T07:36:35Z</time>
      </trkpt>
      <trkpt lat="43.425" lon="-0.3734">
        <ele>262.1</ele>
        <time>2021-10-14T07:36:36Z</time>
      </trkpt>
      <trkpt lat="43.42512" lon="-0.37343">
        <ele>263.1</ele>
        <time>2021-10-14T07:36:43Z</time>
      </trkpt>
      <trkpt lat="43.42524" lon="-0.37343">
        <ele>267.2</ele>
        <time>2021-10-14T07:36:51Z</time>
      </trkpt>
      <trkpt lat="43.42524" lon="-0.37344">
        <ele>267.2</ele>
        <time>2021-10-14T07:36:52Z</time>
      </trkpt>
      <trkpt lat="43.42524" lon="-0.37344">
        <ele>266.9</ele>
        <time>2021-10-14T07:36:53Z</time>
      </trkpt>
      <trkpt lat="43.42524" lon="-0.37344">
        <ele>268.3</ele>
        <time>2021-10-14T07:36:54Z</time>
      </trkpt>
      <trkpt lat="43.42525" lon="-0.37343">
        <ele>268</ele>
        <time>2021-10-14T07:36:55Z</time>
      </trkpt>
      <trkpt lat="43.42527" lon="-0.37343">
        <ele>269.1</ele>
        <time>2021-10-14T07:36:56Z</time>
      </trkpt>
      <trkpt lat="43.4253" lon="-0.37343">
        <ele>269.1</ele>
        <time>2021-10-14T07:36:57Z</time>
      </trkpt>
      <trkpt lat="43.42532" lon="-0.37342">
        <ele>269.1</ele>
        <time>2021-10-14T07:36:58Z</time>
      </trkpt>
      <trkpt lat="43.42538" lon="-0.37343">
        <ele>271.2</ele>
        <time>2021-10-14T07:37:02Z</time>
      </trkpt>
      <trkpt lat="43.42541" lon="-0.37342">
        <ele>271.1</ele>
        <time>2021-10-14T07:37:04Z</time>
      </trkpt>
      <trkpt lat="43.42554" lon="-0.37338">
        <ele>271</ele>
        <time>2021-10-14T07:37:12Z</time>
      </trkpt>
      <trkpt lat="43.42556" lon="-0.37337">
        <ele>271.2</ele>
        <time>2021-10-14T07:37:13Z</time>
      </trkpt>
      <trkpt lat="43.42557" lon="-0.37335">
        <ele>270.6</ele>
        <time>2021-10-14T07:37:14Z</time>
      </trkpt>
      <trkpt lat="43.42559" lon="-0.37332">
        <ele>270</ele>
        <time>2021-10-14T07:37:16Z</time>
      </trkpt>
      <trkpt lat="43.4256" lon="-0.3733">
        <ele>271.1</ele>
        <time>2021-10-14T07:37:18Z</time>
      </trkpt>
      <trkpt lat="43.42559" lon="-0.37325">
        <ele>270.8</ele>
        <time>2021-10-14T07:37:20Z</time>
      </trkpt>
      <trkpt lat="43.42558" lon="-0.37323">
        <ele>270.2</ele>
        <time>2021-10-14T07:37:21Z</time>
      </trkpt>
      <trkpt lat="43.42557" lon="-0.37314">
        <ele>268.1</ele>
        <time>2021-10-14T07:37:24Z</time>
      </trkpt>
      <trkpt lat="43.42556" lon="-0.3731">
        <ele>269.2</ele>
        <time>2021-10-14T07:37:25Z</time>
      </trkpt>
      <trkpt lat="43.42556" lon="-0.37302">
        <ele>269.1</ele>
        <time>2021-10-14T07:37:27Z</time>
      </trkpt>
      <trkpt lat="43.42555" lon="-0.37298">
        <ele>269</ele>
        <time>2021-10-14T07:37:28Z</time>
      </trkpt>
      <trkpt lat="43.42555" lon="-0.37294">
        <ele>269.2</ele>
        <time>2021-10-14T07:37:29Z</time>
      </trkpt>
      <trkpt lat="43.42555" lon="-0.3729">
        <ele>269</ele>
        <time>2021-10-14T07:37:30Z</time>
      </trkpt>
      <trkpt lat="43.42556" lon="-0.37286">
        <ele>269</ele>
        <time>2021-10-14T07:37:31Z</time>
      </trkpt>
      <trkpt lat="43.42557" lon="-0.37283">
        <ele>268.7</ele>
        <time>2021-10-14T07:37:32Z</time>
      </trkpt>
      <trkpt lat="43.42559" lon="-0.37281">
        <ele>269.4</ele>
        <time>2021-10-14T07:37:33Z</time>
      </trkpt>
      <trkpt lat="43.42561" lon="-0.3728">
        <ele>269</ele>
        <time>2021-10-14T07:37:34Z</time>
      </trkpt>
      <trkpt lat="43.42561" lon="-0.3728">
        <ele>270.4</ele>
        <time>2021-10-14T07:37:35Z</time>
      </trkpt>
      <trkpt lat="43.42561" lon="-0.37281">
        <ele>269.4</ele>
        <time>2021-10-14T07:37:36Z</time>
      </trkpt>
      <trkpt lat="43.42561" lon="-0.37281">
        <ele>269</ele>
        <time>2021-10-14T07:37:37Z</time>
      </trkpt>
      <trkpt lat="43.4256" lon="-0.37281">
        <ele>269.1</ele>
        <time>2021-10-14T07:37:38Z</time>
      </trkpt>
      <trkpt lat="43.4256" lon="-0.37281">
        <ele>269.5</ele>
        <time>2021-10-14T07:37:39Z</time>
      </trkpt>
      <trkpt lat="43.4256" lon="-0.37281">
        <ele>269.6</ele>
        <time>2021-10-14T07:37:40Z</time>
      </trkpt>
      <trkpt lat="43.4256" lon="-0.37281">
        <ele>268.8</ele>
        <time>2021-10-14T07:37:42Z</time>
      </trkpt>
      <trkpt lat="43.4256" lon="-0.37281">
        <ele>269</ele>
        <time>2021-10-14T07:37:45Z</time>
      </trkpt>
      <trkpt lat="43.4256" lon="-0.37283">
        <ele>269.2</ele>
        <time>2021-10-14T07:37:47Z</time>
      </trkpt>
      <trkpt lat="43.4256" lon="-0.37283">
        <ele>269.1</ele>
        <time>2021-10-14T07:37:48Z</time>
      </trkpt>
      <trkpt lat="43.4256" lon="-0.37283">
        <ele>269.9</ele>
        <time>2021-10-14T07:37:49Z</time>
      </trkpt>
      <trkpt lat="43.42559" lon="-0.37283">
        <ele>269.9</ele>
        <time>2021-10-14T07:37:50Z</time>
      </trkpt>
      <trkpt lat="43.4256" lon="-0.37283">
        <ele>270.4</ele>
        <time>2021-10-14T07:37:51Z</time>
      </trkpt>
      <trkpt lat="43.42562" lon="-0.3728">
        <ele>269.8</ele>
        <time>2021-10-14T07:37:53Z</time>
      </trkpt>
      <trkpt lat="43.42564" lon="-0.37279">
        <ele>270.5</ele>
        <time>2021-10-14T07:37:54Z</time>
      </trkpt>
      <trkpt lat="43.42567" lon="-0.37279">
        <ele>270.3</ele>
        <time>2021-10-14T07:37:55Z</time>
      </trkpt>
      <trkpt lat="43.42569" lon="-0.3728">
        <ele>270.1</ele>
        <time>2021-10-14T07:37:56Z</time>
      </trkpt>
      <trkpt lat="43.42572" lon="-0.37281">
        <ele>269.8</ele>
        <time>2021-10-14T07:37:57Z</time>
      </trkpt>
      <trkpt lat="43.42576" lon="-0.37284">
        <ele>270.2</ele>
        <time>2021-10-14T07:37:59Z</time>
      </trkpt>
      <trkpt lat="43.42585" lon="-0.37289">
        <ele>271.4</ele>
        <time>2021-10-14T07:38:03Z</time>
      </trkpt>
      <trkpt lat="43.42587" lon="-0.3729">
        <ele>271.3</ele>
        <time>2021-10-14T07:38:04Z</time>
      </trkpt>
      <trkpt lat="43.42589" lon="-0.37292">
        <ele>272</ele>
        <time>2021-10-14T07:38:05Z</time>
      </trkpt>
      <trkpt lat="43.42591" lon="-0.37293">
        <ele>272.5</ele>
        <time>2021-10-14T07:38:06Z</time>
      </trkpt>
      <trkpt lat="43.42593" lon="-0.37295">
        <ele>272.2</ele>
        <time>2021-10-14T07:38:07Z</time>
      </trkpt>
      <trkpt lat="43.426" lon="-0.37299">
        <ele>274.4</ele>
        <time>2021-10-14T07:38:11Z</time>
      </trkpt>
      <trkpt lat="43.42604" lon="-0.37302">
        <ele>274.1</ele>
        <time>2021-10-14T07:38:13Z</time>
      </trkpt>
      <trkpt lat="43.4261" lon="-0.37305">
        <ele>273.9</ele>
        <time>2021-10-14T07:38:16Z</time>
      </trkpt>
      <trkpt lat="43.42612" lon="-0.37307">
        <ele>273.4</ele>
        <time>2021-10-14T07:38:17Z</time>
      </trkpt>
      <trkpt lat="43.42614" lon="-0.37309">
        <ele>274.1</ele>
        <time>2021-10-14T07:38:18Z</time>
      </trkpt>
      <trkpt lat="43.42616" lon="-0.3731">
        <ele>273.8</ele>
        <time>2021-10-14T07:38:19Z</time>
      </trkpt>
      <trkpt lat="43.42619" lon="-0.37312">
        <ele>275</ele>
        <time>2021-10-14T07:38:21Z</time>
      </trkpt>
      <trkpt lat="43.42621" lon="-0.37313">
        <ele>275.1</ele>
        <time>2021-10-14T07:38:22Z</time>
      </trkpt>
      <trkpt lat="43.42625" lon="-0.37315">
        <ele>275.1</ele>
        <time>2021-10-14T07:38:24Z</time>
      </trkpt>
      <trkpt lat="43.42627" lon="-0.37316">
        <ele>275.3</ele>
        <time>2021-10-14T07:38:25Z</time>
      </trkpt>
      <trkpt lat="43.42628" lon="-0.37316">
        <ele>275</ele>
        <time>2021-10-14T07:38:26Z</time>
      </trkpt>
      <trkpt lat="43.4263" lon="-0.37316">
        <ele>275.9</ele>
        <time>2021-10-14T07:38:27Z</time>
      </trkpt>
      <trkpt lat="43.42631" lon="-0.37316">
        <ele>275.8</ele>
        <time>2021-10-14T07:38:28Z</time>
      </trkpt>
      <trkpt lat="43.42634" lon="-0.37313">
        <ele>276.5</ele>
        <time>2021-10-14T07:38:30Z</time>
      </trkpt>
      <trkpt lat="43.42634" lon="-0.37314">
        <ele>276</ele>
        <time>2021-10-14T07:38:31Z</time>
      </trkpt>
      <trkpt lat="43.42636" lon="-0.37312">
        <ele>276.1</ele>
        <time>2021-10-14T07:38:32Z</time>
      </trkpt>
      <trkpt lat="43.42638" lon="-0.37309">
        <ele>274.6</ele>
        <time>2021-10-14T07:38:33Z</time>
      </trkpt>
      <trkpt lat="43.4264" lon="-0.37307">
        <ele>276.1</ele>
        <time>2021-10-14T07:38:34Z</time>
      </trkpt>
      <trkpt lat="43.42655" lon="-0.37296">
        <ele>276.6</ele>
        <time>2021-10-14T07:38:40Z</time>
      </trkpt>
      <trkpt lat="43.42657" lon="-0.37294">
        <ele>277</ele>
        <time>2021-10-14T07:38:41Z</time>
      </trkpt>
      <trkpt lat="43.42659" lon="-0.37292">
        <ele>276.8</ele>
        <time>2021-10-14T07:38:42Z</time>
      </trkpt>
      <trkpt lat="43.42683" lon="-0.37267">
        <ele>280.4</ele>
        <time>2021-10-14T07:38:56Z</time>
      </trkpt>
      <trkpt lat="43.42684" lon="-0.37265">
        <ele>280</ele>
        <time>2021-10-14T07:38:57Z</time>
      </trkpt>
      <trkpt lat="43.42686" lon="-0.37263">
        <ele>279.7</ele>
        <time>2021-10-14T07:38:58Z</time>
      </trkpt>
      <trkpt lat="43.42693" lon="-0.3726">
        <ele>280.2</ele>
        <time>2021-10-14T07:39:01Z</time>
      </trkpt>
      <trkpt lat="43.42695" lon="-0.37259">
        <ele>281.5</ele>
        <time>2021-10-14T07:39:02Z</time>
      </trkpt>
      <trkpt lat="43.42706" lon="-0.3725">
        <ele>280</ele>
        <time>2021-10-14T07:39:08Z</time>
      </trkpt>
      <trkpt lat="43.42707" lon="-0.37249">
        <ele>279.6</ele>
        <time>2021-10-14T07:39:09Z</time>
      </trkpt>
      <trkpt lat="43.42716" lon="-0.37241">
        <ele>279.6</ele>
        <time>2021-10-14T07:39:14Z</time>
      </trkpt>
      <trkpt lat="43.4272" lon="-0.37239">
        <ele>279.7</ele>
        <time>2021-10-14T07:39:16Z</time>
      </trkpt>
      <trkpt lat="43.4273" lon="-0.37231">
        <ele>280</ele>
        <time>2021-10-14T07:39:21Z</time>
      </trkpt>
      <trkpt lat="43.42732" lon="-0.37231">
        <ele>280.6</ele>
        <time>2021-10-14T07:39:22Z</time>
      </trkpt>
      <trkpt lat="43.42746" lon="-0.37219">
        <ele>281.1</ele>
        <time>2021-10-14T07:39:29Z</time>
      </trkpt>
      <trkpt lat="43.4275" lon="-0.37216">
        <ele>281.7</ele>
        <time>2021-10-14T07:39:31Z</time>
      </trkpt>
      <trkpt lat="43.42755" lon="-0.37211">
        <ele>281</ele>
        <time>2021-10-14T07:39:34Z</time>
      </trkpt>
      <trkpt lat="43.42759" lon="-0.37208">
        <ele>281.2</ele>
        <time>2021-10-14T07:39:36Z</time>
      </trkpt>
      <trkpt lat="43.42826" lon="-0.37135">
        <ele>279.6</ele>
        <time>2021-10-14T07:40:11Z</time>
      </trkpt>
      <trkpt lat="43.42827" lon="-0.37136">
        <ele>279.6</ele>
        <time>2021-10-14T07:40:12Z</time>
      </trkpt>
      <trkpt lat="43.42841" lon="-0.37117">
        <ele>278.5</ele>
        <time>2021-10-14T07:40:19Z</time>
      </trkpt>
      <trkpt lat="43.42846" lon="-0.37111">
        <ele>278.3</ele>
        <time>2021-10-14T07:40:22Z</time>
      </trkpt>
      <trkpt lat="43.42847" lon="-0.37109">
        <ele>278.4</ele>
        <time>2021-10-14T07:40:23Z</time>
      </trkpt>
      <trkpt lat="43.42848" lon="-0.37106">
        <ele>277.9</ele>
        <time>2021-10-14T07:40:24Z</time>
      </trkpt>
      <trkpt lat="43.42847" lon="-0.37102">
        <ele>278.9</ele>
        <time>2021-10-14T07:40:25Z</time>
      </trkpt>
      <trkpt lat="43.42838" lon="-0.37085">
        <ele>279.4</ele>
        <time>2021-10-14T07:40:30Z</time>
      </trkpt>
      <trkpt lat="43.42836" lon="-0.37083">
        <ele>278.7</ele>
        <time>2021-10-14T07:40:31Z</time>
      </trkpt>
      <trkpt lat="43.4283" lon="-0.3707">
        <ele>278.4</ele>
        <time>2021-10-14T07:40:35Z</time>
      </trkpt>
      <trkpt lat="43.42828" lon="-0.37068">
        <ele>277.7</ele>
        <time>2021-10-14T07:40:36Z</time>
      </trkpt>
      <trkpt lat="43.42827" lon="-0.37064">
        <ele>278.4</ele>
        <time>2021-10-14T07:40:37Z</time>
      </trkpt>
      <trkpt lat="43.42827" lon="-0.37061">
        <ele>278.1</ele>
        <time>2021-10-14T07:40:38Z</time>
      </trkpt>
      <trkpt lat="43.42828" lon="-0.37058">
        <ele>278.1</ele>
        <time>2021-10-14T07:40:39Z</time>
      </trkpt>
      <trkpt lat="43.42829" lon="-0.37055">
        <ele>278.3</ele>
        <time>2021-10-14T07:40:40Z</time>
      </trkpt>
      <trkpt lat="43.42833" lon="-0.37053">
        <ele>279</ele>
        <time>2021-10-14T07:40:42Z</time>
      </trkpt>
      <trkpt lat="43.42854" lon="-0.37036">
        <ele>281.2</ele>
        <time>2021-10-14T07:40:51Z</time>
      </trkpt>
      <trkpt lat="43.42856" lon="-0.37033">
        <ele>281.3</ele>
        <time>2021-10-14T07:40:52Z</time>
      </trkpt>
      <trkpt lat="43.42879" lon="-0.37015">
        <ele>281</ele>
        <time>2021-10-14T07:41:01Z</time>
      </trkpt>
      <trkpt lat="43.42879" lon="-0.37015">
        <ele>282.5</ele>
        <time>2021-10-14T07:41:02Z</time>
      </trkpt>
      <trkpt lat="43.42901" lon="-0.36995">
        <ele>280.2</ele>
        <time>2021-10-14T07:41:09Z</time>
      </trkpt>
      <trkpt lat="43.42904" lon="-0.36992">
        <ele>280</ele>
        <time>2021-10-14T07:41:10Z</time>
      </trkpt>
      <trkpt lat="43.42906" lon="-0.36989">
        <ele>280.2</ele>
        <time>2021-10-14T07:41:11Z</time>
      </trkpt>
      <trkpt lat="43.42908" lon="-0.36985">
        <ele>280.4</ele>
        <time>2021-10-14T07:41:12Z</time>
      </trkpt>
      <trkpt lat="43.42912" lon="-0.36976">
        <ele>280.1</ele>
        <time>2021-10-14T07:41:14Z</time>
      </trkpt>
      <trkpt lat="43.42917" lon="-0.36957">
        <ele>279.2</ele>
        <time>2021-10-14T07:41:18Z</time>
      </trkpt>
      <trkpt lat="43.42919" lon="-0.36953">
        <ele>279.1</ele>
        <time>2021-10-14T07:41:19Z</time>
      </trkpt>
      <trkpt lat="43.42921" lon="-0.36948">
        <ele>279</ele>
        <time>2021-10-14T07:41:20Z</time>
      </trkpt>
      <trkpt lat="43.42926" lon="-0.36941">
        <ele>279</ele>
        <time>2021-10-14T07:41:22Z</time>
      </trkpt>
      <trkpt lat="43.42928" lon="-0.36937">
        <ele>278.3</ele>
        <time>2021-10-14T07:41:23Z</time>
      </trkpt>
      <trkpt lat="43.42937" lon="-0.36928">
        <ele>277.2</ele>
        <time>2021-10-14T07:41:26Z</time>
      </trkpt>
      <trkpt lat="43.42939" lon="-0.3693">
        <ele>276.3</ele>
        <time>2021-10-14T07:41:27Z</time>
      </trkpt>
      <trkpt lat="43.42942" lon="-0.36926">
        <ele>275.3</ele>
        <time>2021-10-14T07:41:28Z</time>
      </trkpt>
      <trkpt lat="43.42953" lon="-0.36913">
        <ele>274.1</ele>
        <time>2021-10-14T07:41:31Z</time>
      </trkpt>
      <trkpt lat="43.42968" lon="-0.36897">
        <ele>272.2</ele>
        <time>2021-10-14T07:41:35Z</time>
      </trkpt>
      <trkpt lat="43.43032" lon="-0.36814">
        <ele>266.2</ele>
        <time>2021-10-14T07:41:49Z</time>
      </trkpt>
      <trkpt lat="43.43053" lon="-0.3678">
        <ele>267.1</ele>
        <time>2021-10-14T07:41:54Z</time>
      </trkpt>
      <trkpt lat="43.43057" lon="-0.36774">
        <ele>267.1</ele>
        <time>2021-10-14T07:41:55Z</time>
      </trkpt>
      <trkpt lat="43.43061" lon="-0.3677">
        <ele>267.2</ele>
        <time>2021-10-14T07:41:56Z</time>
      </trkpt>
      <trkpt lat="43.4315" lon="-0.36727">
        <ele>272.2</ele>
        <time>2021-10-14T07:42:18Z</time>
      </trkpt>
      <trkpt lat="43.43158" lon="-0.36723">
        <ele>271.9</ele>
        <time>2021-10-14T07:42:20Z</time>
      </trkpt>
      <trkpt lat="43.43189" lon="-0.36712">
        <ele>274.2</ele>
        <time>2021-10-14T07:42:27Z</time>
      </trkpt>
      <trkpt lat="43.43281" lon="-0.36703">
        <ele>276.2</ele>
        <time>2021-10-14T07:42:45Z</time>
      </trkpt>
      <trkpt lat="43.4331" lon="-0.36694">
        <ele>275.1</ele>
        <time>2021-10-14T07:42:51Z</time>
      </trkpt>
      <trkpt lat="43.43315" lon="-0.36693">
        <ele>275.2</ele>
        <time>2021-10-14T07:42:52Z</time>
      </trkpt>
      <trkpt lat="43.43325" lon="-0.36693">
        <ele>276.1</ele>
        <time>2021-10-14T07:42:54Z</time>
      </trkpt>
      <trkpt lat="43.43348" lon="-0.36695">
        <ele>277</ele>
        <time>2021-10-14T07:42:59Z</time>
      </trkpt>
      <trkpt lat="43.43356" lon="-0.36698">
        <ele>276.2</ele>
        <time>2021-10-14T07:43:01Z</time>
      </trkpt>
      <trkpt lat="43.43442" lon="-0.36751">
        <ele>272.1</ele>
        <time>2021-10-14T07:43:19Z</time>
      </trkpt>
      <trkpt lat="43.43527" lon="-0.36798">
        <ele>273</ele>
        <time>2021-10-14T07:43:37Z</time>
      </trkpt>
      <trkpt lat="43.43548" lon="-0.36809">
        <ele>272.3</ele>
        <time>2021-10-14T07:43:41Z</time>
      </trkpt>
      <trkpt lat="43.4363" lon="-0.36863">
        <ele>272.2</ele>
        <time>2021-10-14T07:43:56Z</time>
      </trkpt>
      <trkpt lat="43.43719" lon="-0.36894">
        <ele>274.2</ele>
        <time>2021-10-14T07:44:13Z</time>
      </trkpt>
      <trkpt lat="43.43742" lon="-0.36898">
        <ele>273.5</ele>
        <time>2021-10-14T07:44:18Z</time>
      </trkpt>
      <trkpt lat="43.4375" lon="-0.36897">
        <ele>273.2</ele>
        <time>2021-10-14T07:44:20Z</time>
      </trkpt>
      <trkpt lat="43.43784" lon="-0.36893">
        <ele>271.7</ele>
        <time>2021-10-14T07:44:28Z</time>
      </trkpt>
      <trkpt lat="43.4383" lon="-0.36892">
        <ele>271.2</ele>
        <time>2021-10-14T07:44:39Z</time>
      </trkpt>
      <trkpt lat="43.43837" lon="-0.3689">
        <ele>271.2</ele>
        <time>2021-10-14T07:44:41Z</time>
      </trkpt>
      <trkpt lat="43.4384" lon="-0.36889">
        <ele>271.4</ele>
        <time>2021-10-14T07:44:42Z</time>
      </trkpt>
      <trkpt lat="43.43843" lon="-0.36887">
        <ele>271.3</ele>
        <time>2021-10-14T07:44:43Z</time>
      </trkpt>
      <trkpt lat="43.43855" lon="-0.36879">
        <ele>270.5</ele>
        <time>2021-10-14T07:44:47Z</time>
      </trkpt>
      <trkpt lat="43.43862" lon="-0.36872">
        <ele>269.1</ele>
        <time>2021-10-14T07:44:49Z</time>
      </trkpt>
      <trkpt lat="43.43865" lon="-0.36868">
        <ele>268.6</ele>
        <time>2021-10-14T07:44:50Z</time>
      </trkpt>
      <trkpt lat="43.43867" lon="-0.36865">
        <ele>267.3</ele>
        <time>2021-10-14T07:44:51Z</time>
      </trkpt>
      <trkpt lat="43.43872" lon="-0.36857">
        <ele>266.1</ele>
        <time>2021-10-14T07:44:53Z</time>
      </trkpt>
      <trkpt lat="43.43877" lon="-0.36847">
        <ele>265</ele>
        <time>2021-10-14T07:44:55Z</time>
      </trkpt>
      <trkpt lat="43.43892" lon="-0.36819">
        <ele>264.3</ele>
        <time>2021-10-14T07:45:01Z</time>
      </trkpt>
      <trkpt lat="43.43899" lon="-0.36809">
        <ele>262.1</ele>
        <time>2021-10-14T07:45:03Z</time>
      </trkpt>
      <trkpt lat="43.43904" lon="-0.36805">
        <ele>261.1</ele>
        <time>2021-10-14T07:45:04Z</time>
      </trkpt>
      <trkpt lat="43.43908" lon="-0.368">
        <ele>260.1</ele>
        <time>2021-10-14T07:45:05Z</time>
      </trkpt>
      <trkpt lat="43.43913" lon="-0.36796">
        <ele>259.2</ele>
        <time>2021-10-14T07:45:06Z</time>
      </trkpt>
      <trkpt lat="43.43924" lon="-0.3679">
        <ele>257.4</ele>
        <time>2021-10-14T07:45:08Z</time>
      </trkpt>
      <trkpt lat="43.4393" lon="-0.36787">
        <ele>255</ele>
        <time>2021-10-14T07:45:09Z</time>
      </trkpt>
      <trkpt lat="43.44022" lon="-0.36759">
        <ele>250.2</ele>
        <time>2021-10-14T07:45:24Z</time>
      </trkpt>
      <trkpt lat="43.44037" lon="-0.36753">
        <ele>249.2</ele>
        <time>2021-10-14T07:45:27Z</time>
      </trkpt>
      <trkpt lat="43.44047" lon="-0.36748">
        <ele>247.2</ele>
        <time>2021-10-14T07:45:29Z</time>
      </trkpt>
      <trkpt lat="43.44065" lon="-0.36735">
        <ele>246.1</ele>
        <time>2021-10-14T07:45:33Z</time>
      </trkpt>
      <trkpt lat="43.44092" lon="-0.36706">
        <ele>241.4</ele>
        <time>2021-10-14T07:45:41Z</time>
      </trkpt>
      <trkpt lat="43.44098" lon="-0.36698">
        <ele>241.1</ele>
        <time>2021-10-14T07:45:43Z</time>
      </trkpt>
      <trkpt lat="43.4411" lon="-0.36686">
        <ele>238.2</ele>
        <time>2021-10-14T07:45:46Z</time>
      </trkpt>
      <trkpt lat="43.44122" lon="-0.36676">
        <ele>236.3</ele>
        <time>2021-10-14T07:45:49Z</time>
      </trkpt>
      <trkpt lat="43.44179" lon="-0.36639">
        <ele>233.2</ele>
        <time>2021-10-14T07:46:03Z</time>
      </trkpt>
      <trkpt lat="43.44204" lon="-0.36618">
        <ele>230</ele>
        <time>2021-10-14T07:46:10Z</time>
      </trkpt>
      <trkpt lat="43.44213" lon="-0.36614">
        <ele>230.3</ele>
        <time>2021-10-14T07:46:12Z</time>
      </trkpt>
      <trkpt lat="43.44217" lon="-0.36613">
        <ele>230.6</ele>
        <time>2021-10-14T07:46:13Z</time>
      </trkpt>
      <trkpt lat="43.44229" lon="-0.36611">
        <ele>230.2</ele>
        <time>2021-10-14T07:46:16Z</time>
      </trkpt>
      <trkpt lat="43.44247" lon="-0.36611">
        <ele>229.3</ele>
        <time>2021-10-14T07:46:20Z</time>
      </trkpt>
      <trkpt lat="43.44256" lon="-0.3661">
        <ele>229.4</ele>
        <time>2021-10-14T07:46:22Z</time>
      </trkpt>
      <trkpt lat="43.4426" lon="-0.36609">
        <ele>228</ele>
        <time>2021-10-14T07:46:23Z</time>
      </trkpt>
      <trkpt lat="43.44264" lon="-0.36607">
        <ele>227.1</ele>
        <time>2021-10-14T07:46:24Z</time>
      </trkpt>
      <trkpt lat="43.44267" lon="-0.36605">
        <ele>226.2</ele>
        <time>2021-10-14T07:46:25Z</time>
      </trkpt>
      <trkpt lat="43.4427" lon="-0.36602">
        <ele>226</ele>
        <time>2021-10-14T07:46:26Z</time>
      </trkpt>
      <trkpt lat="43.44281" lon="-0.3659">
        <ele>226.3</ele>
        <time>2021-10-14T07:46:30Z</time>
      </trkpt>
      <trkpt lat="43.44287" lon="-0.36575">
        <ele>224.3</ele>
        <time>2021-10-14T07:46:33Z</time>
      </trkpt>
      <trkpt lat="43.44295" lon="-0.36548">
        <ele>221</ele>
        <time>2021-10-14T07:46:38Z</time>
      </trkpt>
      <trkpt lat="43.443" lon="-0.36528">
        <ele>218.2</ele>
        <time>2021-10-14T07:46:42Z</time>
      </trkpt>
      <trkpt lat="43.443" lon="-0.36522">
        <ele>218.3</ele>
        <time>2021-10-14T07:46:43Z</time>
      </trkpt>
      <trkpt lat="43.44299" lon="-0.36517">
        <ele>218</ele>
        <time>2021-10-14T07:46:44Z</time>
      </trkpt>
      <trkpt lat="43.44298" lon="-0.36512">
        <ele>217.3</ele>
        <time>2021-10-14T07:46:45Z</time>
      </trkpt>
      <trkpt lat="43.44295" lon="-0.36502">
        <ele>216</ele>
        <time>2021-10-14T07:46:47Z</time>
      </trkpt>
      <trkpt lat="43.44271" lon="-0.36462">
        <ele>211.6</ele>
        <time>2021-10-14T07:46:57Z</time>
      </trkpt>
      <trkpt lat="43.44232" lon="-0.36372">
        <ele>204.3</ele>
        <time>2021-10-14T07:47:15Z</time>
      </trkpt>
      <trkpt lat="43.4423" lon="-0.36358">
        <ele>203.2</ele>
        <time>2021-10-14T07:47:17Z</time>
      </trkpt>
      <trkpt lat="43.44229" lon="-0.36345">
        <ele>201.9</ele>
        <time>2021-10-14T07:47:19Z</time>
      </trkpt>
      <trkpt lat="43.44226" lon="-0.36341">
        <ele>202</ele>
        <time>2021-10-14T07:47:20Z</time>
      </trkpt>
      <trkpt lat="43.44237" lon="-0.36319">
        <ele>201</ele>
        <time>2021-10-14T07:47:23Z</time>
      </trkpt>
      <trkpt lat="43.44241" lon="-0.36314">
        <ele>201</ele>
        <time>2021-10-14T07:47:24Z</time>
      </trkpt>
      <trkpt lat="43.44245" lon="-0.36309">
        <ele>201.6</ele>
        <time>2021-10-14T07:47:25Z</time>
      </trkpt>
      <trkpt lat="43.4425" lon="-0.36304">
        <ele>201</ele>
        <time>2021-10-14T07:47:26Z</time>
      </trkpt>
      <trkpt lat="43.44277" lon="-0.36284">
        <ele>202.8</ele>
        <time>2021-10-14T07:47:32Z</time>
      </trkpt>
      <trkpt lat="43.44285" lon="-0.36277">
        <ele>204.3</ele>
        <time>2021-10-14T07:47:34Z</time>
      </trkpt>
      <trkpt lat="43.44288" lon="-0.36273">
        <ele>204.4</ele>
        <time>2021-10-14T07:47:35Z</time>
      </trkpt>
      <trkpt lat="43.44305" lon="-0.36248">
        <ele>200.4</ele>
        <time>2021-10-14T07:47:41Z</time>
      </trkpt>
      <trkpt lat="43.44327" lon="-0.3622">
        <ele>196.2</ele>
        <time>2021-10-14T07:47:49Z</time>
      </trkpt>
      <trkpt lat="43.4434" lon="-0.36201">
        <ele>191.3</ele>
        <time>2021-10-14T07:47:54Z</time>
      </trkpt>
      <trkpt lat="43.44346" lon="-0.36194">
        <ele>190.2</ele>
        <time>2021-10-14T07:47:56Z</time>
      </trkpt>
      <trkpt lat="43.44353" lon="-0.36189">
        <ele>188.3</ele>
        <time>2021-10-14T07:47:58Z</time>
      </trkpt>
      <trkpt lat="43.44361" lon="-0.36184">
        <ele>186.1</ele>
        <time>2021-10-14T07:48:00Z</time>
      </trkpt>
      <trkpt lat="43.44402" lon="-0.3617">
        <ele>179.2</ele>
        <time>2021-10-14T07:48:09Z</time>
      </trkpt>
      <trkpt lat="43.44419" lon="-0.3616">
        <ele>177.3</ele>
        <time>2021-10-14T07:48:13Z</time>
      </trkpt>
      <trkpt lat="43.44423" lon="-0.36157">
        <ele>176.3</ele>
        <time>2021-10-14T07:48:14Z</time>
      </trkpt>
      <trkpt lat="43.44426" lon="-0.36154">
        <ele>175.2</ele>
        <time>2021-10-14T07:48:15Z</time>
      </trkpt>
      <trkpt lat="43.44428" lon="-0.36151">
        <ele>175.3</ele>
        <time>2021-10-14T07:48:16Z</time>
      </trkpt>
      <trkpt lat="43.4443" lon="-0.36146">
        <ele>174.3</ele>
        <time>2021-10-14T07:48:17Z</time>
      </trkpt>
      <trkpt lat="43.44431" lon="-0.36141">
        <ele>174.2</ele>
        <time>2021-10-14T07:48:18Z</time>
      </trkpt>
      <trkpt lat="43.44431" lon="-0.36136">
        <ele>173.1</ele>
        <time>2021-10-14T07:48:19Z</time>
      </trkpt>
      <trkpt lat="43.4443" lon="-0.36131">
        <ele>173.4</ele>
        <time>2021-10-14T07:48:20Z</time>
      </trkpt>
      <trkpt lat="43.44428" lon="-0.36127">
        <ele>172.2</ele>
        <time>2021-10-14T07:48:21Z</time>
      </trkpt>
      <trkpt lat="43.44426" lon="-0.36123">
        <ele>171</ele>
        <time>2021-10-14T07:48:22Z</time>
      </trkpt>
      <trkpt lat="43.44415" lon="-0.36111">
        <ele>169</ele>
        <time>2021-10-14T07:48:26Z</time>
      </trkpt>
      <trkpt lat="43.44396" lon="-0.36094">
        <ele>168.2</ele>
        <time>2021-10-14T07:48:32Z</time>
      </trkpt>
      <trkpt lat="43.4439" lon="-0.36088">
        <ele>167.3</ele>
        <time>2021-10-14T07:48:34Z</time>
      </trkpt>
      <trkpt lat="43.4438" lon="-0.36075">
        <ele>167.3</ele>
        <time>2021-10-14T07:48:38Z</time>
      </trkpt>
      <trkpt lat="43.44377" lon="-0.36073">
        <ele>168.3</ele>
        <time>2021-10-14T07:48:39Z</time>
      </trkpt>
      <trkpt lat="43.4437" lon="-0.36069">
        <ele>168.2</ele>
        <time>2021-10-14T07:48:41Z</time>
      </trkpt>
      <trkpt lat="43.44366" lon="-0.36068">
        <ele>168.1</ele>
        <time>2021-10-14T07:48:42Z</time>
      </trkpt>
      <trkpt lat="43.44317" lon="-0.36052">
        <ele>168</ele>
        <time>2021-10-14T07:48:59Z</time>
      </trkpt>
      <trkpt lat="43.44313" lon="-0.36049">
        <ele>168.1</ele>
        <time>2021-10-14T07:49:01Z</time>
      </trkpt>
      <trkpt lat="43.44307" lon="-0.3604">
        <ele>167.1</ele>
        <time>2021-10-14T07:49:17Z</time>
      </trkpt>
      <trkpt lat="43.44307" lon="-0.36041">
        <ele>167.8</ele>
        <time>2021-10-14T07:49:18Z</time>
      </trkpt>
      <trkpt lat="43.44307" lon="-0.36043">
        <ele>167.7</ele>
        <time>2021-10-14T07:49:21Z</time>
      </trkpt>
      <trkpt lat="43.44307" lon="-0.36043">
        <ele>167.4</ele>
        <time>2021-10-14T07:49:22Z</time>
      </trkpt>
      <trkpt lat="43.44307" lon="-0.36043">
        <ele>167.5</ele>
        <time>2021-10-14T07:49:23Z</time>
      </trkpt>
      <trkpt lat="43.44307" lon="-0.36045">
        <ele>167</ele>
        <time>2021-10-14T07:49:28Z</time>
      </trkpt>
      <trkpt lat="43.44307" lon="-0.36045">
        <ele>167.4</ele>
        <time>2021-10-14T07:49:29Z</time>
      </trkpt>
      <trkpt lat="43.44307" lon="-0.36045">
        <ele>167.4</ele>
        <time>2021-10-14T07:49:30Z</time>
      </trkpt>
      <trkpt lat="43.44307" lon="-0.36045">
        <ele>167.2</ele>
        <time>2021-10-14T07:49:40Z</time>
      </trkpt>
      <trkpt lat="43.44306" lon="-0.36044">
        <ele>168.3</ele>
        <time>2021-10-14T07:49:42Z</time>
      </trkpt>
      <trkpt lat="43.44306" lon="-0.36044">
        <ele>168.4</ele>
        <time>2021-10-14T07:49:43Z</time>
      </trkpt>
      <trkpt lat="43.44306" lon="-0.36044">
        <ele>168</ele>
        <time>2021-10-14T07:49:44Z</time>
      </trkpt>
      <trkpt lat="43.44306" lon="-0.36044">
        <ele>168</ele>
        <time>2021-10-14T07:49:46Z</time>
      </trkpt>
      <trkpt lat="43.44306" lon="-0.36044">
        <ele>168.2</ele>
        <time>2021-10-14T07:50:04Z</time>
      </trkpt>
      <trkpt lat="43.44306" lon="-0.36044">
        <ele>168.5</ele>
        <time>2021-10-14T07:50:05Z</time>
      </trkpt>
      <trkpt lat="43.44306" lon="-0.36044">
        <ele>168.3</ele>
        <time>2021-10-14T07:50:06Z</time>
      </trkpt>
      <trkpt lat="43.44306" lon="-0.36044">
        <ele>168.2</ele>
        <time>2021-10-14T07:50:07Z</time>
      </trkpt>
      <trkpt lat="43.44306" lon="-0.36044">
        <ele>168.3</ele>
        <time>2021-10-14T07:50:08Z</time>
      </trkpt>
      <trkpt lat="43.44306" lon="-0.36044">
        <ele>168.1</ele>
        <time>2021-10-14T07:50:09Z</time>
      </trkpt>
      <trkpt lat="43.44306" lon="-0.36044">
        <ele>168.2</ele>
        <time>2021-10-14T07:50:13Z</time>
      </trkpt>
      <trkpt lat="43.44306" lon="-0.36044">
        <ele>168.2</ele>
        <time>2021-10-14T07:50:14Z</time>
      </trkpt>
      <trkpt lat="43.44306" lon="-0.36044">
        <ele>169.8</ele>
        <time>2021-10-14T07:50:15Z</time>
      </trkpt>
      <trkpt lat="43.44306" lon="-0.36044">
        <ele>169</ele>
        <time>2021-10-14T07:50:16Z</time>
      </trkpt>
      <trkpt lat="43.44306" lon="-0.36044">
        <ele>169.2</ele>
        <time>2021-10-14T07:50:17Z</time>
      </trkpt>
      <trkpt lat="43.44306" lon="-0.36044">
        <ele>169.3</ele>
        <time>2021-10-14T07:50:18Z</time>
      </trkpt>
      <trkpt lat="43.44306" lon="-0.36044">
        <ele>169.1</ele>
        <time>2021-10-14T07:51:02Z</time>
      </trkpt>
      <trkpt lat="43.44305" lon="-0.36042">
        <ele>169.7</ele>
        <time>2021-10-14T07:51:03Z</time>
      </trkpt>
      <trkpt lat="43.44305" lon="-0.36041">
        <ele>170.2</ele>
        <time>2021-10-14T07:51:04Z</time>
      </trkpt>
      <trkpt lat="43.44305" lon="-0.3604">
        <ele>171.1</ele>
        <time>2021-10-14T07:51:05Z</time>
      </trkpt>
      <trkpt lat="43.44305" lon="-0.36036">
        <ele>172</ele>
        <time>2021-10-14T07:51:07Z</time>
      </trkpt>
      <trkpt lat="43.44305" lon="-0.36034">
        <ele>172.2</ele>
        <time>2021-10-14T07:51:08Z</time>
      </trkpt>
      <trkpt lat="43.44304" lon="-0.36025">
        <ele>172</ele>
        <time>2021-10-14T07:51:11Z</time>
      </trkpt>
      <trkpt lat="43.44303" lon="-0.36022">
        <ele>172.7</ele>
        <time>2021-10-14T07:51:12Z</time>
      </trkpt>
      <trkpt lat="43.44298" lon="-0.36013">
        <ele>172.2</ele>
        <time>2021-10-14T07:51:15Z</time>
      </trkpt>
      <trkpt lat="43.44297" lon="-0.3601">
        <ele>172.1</ele>
        <time>2021-10-14T07:51:16Z</time>
      </trkpt>
      <trkpt lat="43.44291" lon="-0.35996">
        <ele>172.2</ele>
        <time>2021-10-14T07:51:20Z</time>
      </trkpt>
      <trkpt lat="43.44281" lon="-0.35978">
        <ele>172.3</ele>
        <time>2021-10-14T07:51:26Z</time>
      </trkpt>
      <trkpt lat="43.44271" lon="-0.35953">
        <ele>171.9</ele>
        <time>2021-10-14T07:51:33Z</time>
      </trkpt>
      <trkpt lat="43.44269" lon="-0.3595">
        <ele>172.1</ele>
        <time>2021-10-14T07:51:34Z</time>
      </trkpt>
      <trkpt lat="43.44268" lon="-0.35946">
        <ele>171.6</ele>
        <time>2021-10-14T07:51:35Z</time>
      </trkpt>
      <trkpt lat="43.44268" lon="-0.35942">
        <ele>171.4</ele>
        <time>2021-10-14T07:51:36Z</time>
      </trkpt>
      <trkpt lat="43.44268" lon="-0.35937">
        <ele>171.5</ele>
        <time>2021-10-14T07:51:37Z</time>
      </trkpt>
      <trkpt lat="43.44269" lon="-0.35933">
        <ele>170.8</ele>
        <time>2021-10-14T07:51:38Z</time>
      </trkpt>
      <trkpt lat="43.44271" lon="-0.35928">
        <ele>170.5</ele>
        <time>2021-10-14T07:51:39Z</time>
      </trkpt>
      <trkpt lat="43.44274" lon="-0.35924">
        <ele>170.3</ele>
        <time>2021-10-14T07:51:40Z</time>
      </trkpt>
      <trkpt lat="43.44279" lon="-0.35917">
        <ele>169.2</ele>
        <time>2021-10-14T07:51:42Z</time>
      </trkpt>
      <trkpt lat="43.44334" lon="-0.35863">
        <ele>169.3</ele>
        <time>2021-10-14T07:51:56Z</time>
      </trkpt>
      <trkpt lat="43.44345" lon="-0.35849">
        <ele>167.2</ele>
        <time>2021-10-14T07:51:59Z</time>
      </trkpt>
      <trkpt lat="43.44391" lon="-0.35801">
        <ele>166.3</ele>
        <time>2021-10-14T07:52:13Z</time>
      </trkpt>
      <trkpt lat="43.44394" lon="-0.35797">
        <ele>167.2</ele>
        <time>2021-10-14T07:52:14Z</time>
      </trkpt>
      <trkpt lat="43.44396" lon="-0.35793">
        <ele>167.2</ele>
        <time>2021-10-14T07:52:15Z</time>
      </trkpt>
      <trkpt lat="43.44403" lon="-0.35777">
        <ele>169.7</ele>
        <time>2021-10-14T07:52:20Z</time>
      </trkpt>
      <trkpt lat="43.44404" lon="-0.35772">
        <ele>169.1</ele>
        <time>2021-10-14T07:52:22Z</time>
      </trkpt>
      <trkpt lat="43.44405" lon="-0.35769">
        <ele>170.4</ele>
        <time>2021-10-14T07:52:23Z</time>
      </trkpt>
      <trkpt lat="43.44406" lon="-0.35763">
        <ele>170.3</ele>
        <time>2021-10-14T07:52:25Z</time>
      </trkpt>
      <trkpt lat="43.44407" lon="-0.3576">
        <ele>171.3</ele>
        <time>2021-10-14T07:52:26Z</time>
      </trkpt>
      <trkpt lat="43.44409" lon="-0.35753">
        <ele>171.2</ele>
        <time>2021-10-14T07:52:29Z</time>
      </trkpt>
      <trkpt lat="43.4441" lon="-0.35751">
        <ele>171.4</ele>
        <time>2021-10-14T07:52:30Z</time>
      </trkpt>
      <trkpt lat="43.4441" lon="-0.3575">
        <ele>171.1</ele>
        <time>2021-10-14T07:52:31Z</time>
      </trkpt>
      <trkpt lat="43.4441" lon="-0.3575">
        <ele>171.1</ele>
        <time>2021-10-14T07:52:32Z</time>
      </trkpt>
      <trkpt lat="43.4441" lon="-0.3575">
        <ele>171.4</ele>
        <time>2021-10-14T07:52:33Z</time>
      </trkpt>
      <trkpt lat="43.44409" lon="-0.3575">
        <ele>171.3</ele>
        <time>2021-10-14T07:52:34Z</time>
      </trkpt>
      <trkpt lat="43.44409" lon="-0.35752">
        <ele>171.2</ele>
        <time>2021-10-14T07:52:39Z</time>
      </trkpt>
      <trkpt lat="43.44409" lon="-0.35752">
        <ele>171.3</ele>
        <time>2021-10-14T07:52:40Z</time>
      </trkpt>
      <trkpt lat="43.44409" lon="-0.35752">
        <ele>171.3</ele>
        <time>2021-10-14T07:52:41Z</time>
      </trkpt>
      <trkpt lat="43.44409" lon="-0.35751">
        <ele>171</ele>
        <time>2021-10-14T07:52:42Z</time>
      </trkpt>
      <trkpt lat="43.4441" lon="-0.3575">
        <ele>172.4</ele>
        <time>2021-10-14T07:52:43Z</time>
      </trkpt>
      <trkpt lat="43.4441" lon="-0.35749">
        <ele>172.2</ele>
        <time>2021-10-14T07:52:44Z</time>
      </trkpt>
      <trkpt lat="43.44411" lon="-0.35747">
        <ele>171.9</ele>
        <time>2021-10-14T07:52:46Z</time>
      </trkpt>
      <trkpt lat="43.44411" lon="-0.35746">
        <ele>172.4</ele>
        <time>2021-10-14T07:52:48Z</time>
      </trkpt>
      <trkpt lat="43.44412" lon="-0.35745">
        <ele>171.8</ele>
        <time>2021-10-14T07:52:49Z</time>
      </trkpt>
      <trkpt lat="43.44412" lon="-0.35744">
        <ele>172.4</ele>
        <time>2021-10-14T07:52:50Z</time>
      </trkpt>
      <trkpt lat="43.44412" lon="-0.35744">
        <ele>172.1</ele>
        <time>2021-10-14T07:52:51Z</time>
      </trkpt>
      <trkpt lat="43.44413" lon="-0.35742">
        <ele>173.1</ele>
        <time>2021-10-14T07:52:53Z</time>
      </trkpt>
      <trkpt lat="43.44413" lon="-0.35742">
        <ele>173.2</ele>
        <time>2021-10-14T07:52:54Z</time>
      </trkpt>
      <trkpt lat="43.44414" lon="-0.35741">
        <ele>173.1</ele>
        <time>2021-10-14T07:52:55Z</time>
      </trkpt>
      <trkpt lat="43.44414" lon="-0.3574">
        <ele>173.2</ele>
        <time>2021-10-14T07:52:56Z</time>
      </trkpt>
      <trkpt lat="43.44414" lon="-0.3574">
        <ele>173.3</ele>
        <time>2021-10-14T07:52:57Z</time>
      </trkpt>
      <trkpt lat="43.44415" lon="-0.35738">
        <ele>174.1</ele>
        <time>2021-10-14T07:52:59Z</time>
      </trkpt>
      <trkpt lat="43.44416" lon="-0.35737">
        <ele>174.4</ele>
        <time>2021-10-14T07:53:00Z</time>
      </trkpt>
      <trkpt lat="43.44416" lon="-0.35737">
        <ele>173.9</ele>
        <time>2021-10-14T07:53:01Z</time>
      </trkpt>
      <trkpt lat="43.44417" lon="-0.35736">
        <ele>174.3</ele>
        <time>2021-10-14T07:53:02Z</time>
      </trkpt>
      <trkpt lat="43.44417" lon="-0.35735">
        <ele>174.1</ele>
        <time>2021-10-14T07:53:03Z</time>
      </trkpt>
      <trkpt lat="43.44417" lon="-0.35734">
        <ele>174.1</ele>
        <time>2021-10-14T07:53:04Z</time>
      </trkpt>
      <trkpt lat="43.44418" lon="-0.35733">
        <ele>175.2</ele>
        <time>2021-10-14T07:53:05Z</time>
      </trkpt>
      <trkpt lat="43.44418" lon="-0.35732">
        <ele>175.2</ele>
        <time>2021-10-14T07:53:06Z</time>
      </trkpt>
      <trkpt lat="43.44419" lon="-0.35732">
        <ele>175.3</ele>
        <time>2021-10-14T07:53:08Z</time>
      </trkpt>
      <trkpt lat="43.44419" lon="-0.35731">
        <ele>174.9</ele>
        <time>2021-10-14T07:53:09Z</time>
      </trkpt>
      <trkpt lat="43.44419" lon="-0.35731">
        <ele>174.8</ele>
        <time>2021-10-14T07:53:10Z</time>
      </trkpt>
      <trkpt lat="43.4442" lon="-0.35729">
        <ele>175.1</ele>
        <time>2021-10-14T07:53:11Z</time>
      </trkpt>
      <trkpt lat="43.44421" lon="-0.35726">
        <ele>175.6</ele>
        <time>2021-10-14T07:53:13Z</time>
      </trkpt>
      <trkpt lat="43.44421" lon="-0.35725">
        <ele>176.3</ele>
        <time>2021-10-14T07:53:14Z</time>
      </trkpt>
      <trkpt lat="43.44423" lon="-0.35722">
        <ele>176</ele>
        <time>2021-10-14T07:53:17Z</time>
      </trkpt>
      <trkpt lat="43.44424" lon="-0.35719">
        <ele>177.6</ele>
        <time>2021-10-14T07:53:19Z</time>
      </trkpt>
      <trkpt lat="43.44425" lon="-0.35717">
        <ele>177.4</ele>
        <time>2021-10-14T07:53:21Z</time>
      </trkpt>
      <trkpt lat="43.44426" lon="-0.35713">
        <ele>177.6</ele>
        <time>2021-10-14T07:53:25Z</time>
      </trkpt>
      <trkpt lat="43.44427" lon="-0.3571">
        <ele>177.4</ele>
        <time>2021-10-14T07:53:27Z</time>
      </trkpt>
      <trkpt lat="43.44428" lon="-0.35709">
        <ele>177</ele>
        <time>2021-10-14T07:53:28Z</time>
      </trkpt>
      <trkpt lat="43.44428" lon="-0.35708">
        <ele>177.3</ele>
        <time>2021-10-14T07:53:29Z</time>
      </trkpt>
      <trkpt lat="43.44429" lon="-0.35707">
        <ele>178.5</ele>
        <time>2021-10-14T07:53:30Z</time>
      </trkpt>
      <trkpt lat="43.44429" lon="-0.35706">
        <ele>177.8</ele>
        <time>2021-10-14T07:53:31Z</time>
      </trkpt>
      <trkpt lat="43.44429" lon="-0.35706">
        <ele>176.7</ele>
        <time>2021-10-14T07:53:32Z</time>
      </trkpt>
      <trkpt lat="43.44429" lon="-0.35705">
        <ele>177.2</ele>
        <time>2021-10-14T07:53:33Z</time>
      </trkpt>
      <trkpt lat="43.4443" lon="-0.35704">
        <ele>178.6</ele>
        <time>2021-10-14T07:53:34Z</time>
      </trkpt>
      <trkpt lat="43.4443" lon="-0.35704">
        <ele>178.3</ele>
        <time>2021-10-14T07:53:35Z</time>
      </trkpt>
      <trkpt lat="43.44431" lon="-0.35702">
        <ele>179.7</ele>
        <time>2021-10-14T07:53:36Z</time>
      </trkpt>
      <trkpt lat="43.44431" lon="-0.357">
        <ele>179</ele>
        <time>2021-10-14T07:53:37Z</time>
      </trkpt>
      <trkpt lat="43.44434" lon="-0.35694">
        <ele>179.5</ele>
        <time>2021-10-14T07:53:42Z</time>
      </trkpt>
      <trkpt lat="43.44435" lon="-0.35692">
        <ele>179.2</ele>
        <time>2021-10-14T07:53:44Z</time>
      </trkpt>
      <trkpt lat="43.44435" lon="-0.35691">
        <ele>179.1</ele>
        <time>2021-10-14T07:53:45Z</time>
      </trkpt>
      <trkpt lat="43.44436" lon="-0.3569">
        <ele>179</ele>
        <time>2021-10-14T07:53:46Z</time>
      </trkpt>
      <trkpt lat="43.44437" lon="-0.35688">
        <ele>180.3</ele>
        <time>2021-10-14T07:53:48Z</time>
      </trkpt>
      <trkpt lat="43.44438" lon="-0.35685">
        <ele>180.3</ele>
        <time>2021-10-14T07:53:50Z</time>
      </trkpt>
      <trkpt lat="43.44438" lon="-0.35684">
        <ele>181.2</ele>
        <time>2021-10-14T07:53:52Z</time>
      </trkpt>
      <trkpt lat="43.44438" lon="-0.35684">
        <ele>180.5</ele>
        <time>2021-10-14T07:53:53Z</time>
      </trkpt>
      <trkpt lat="43.44437" lon="-0.35683">
        <ele>181.1</ele>
        <time>2021-10-14T07:53:55Z</time>
      </trkpt>
      <trkpt lat="43.44437" lon="-0.35683">
        <ele>181.2</ele>
        <time>2021-10-14T07:53:56Z</time>
      </trkpt>
      <trkpt lat="43.44437" lon="-0.35683">
        <ele>180.7</ele>
        <time>2021-10-14T07:53:57Z</time>
      </trkpt>
      <trkpt lat="43.44437" lon="-0.35683">
        <ele>181.3</ele>
        <time>2021-10-14T07:53:58Z</time>
      </trkpt>
      <trkpt lat="43.44437" lon="-0.35682">
        <ele>181.1</ele>
        <time>2021-10-14T07:53:59Z</time>
      </trkpt>
      <trkpt lat="43.44437" lon="-0.35682">
        <ele>182.1</ele>
        <time>2021-10-14T07:54:00Z</time>
      </trkpt>
      <trkpt lat="43.44438" lon="-0.35679">
        <ele>182.5</ele>
        <time>2021-10-14T07:54:01Z</time>
      </trkpt>
      <trkpt lat="43.44439" lon="-0.35673">
        <ele>182</ele>
        <time>2021-10-14T07:54:04Z</time>
      </trkpt>
      <trkpt lat="43.4444" lon="-0.35672">
        <ele>182.2</ele>
        <time>2021-10-14T07:54:05Z</time>
      </trkpt>
      <trkpt lat="43.4444" lon="-0.35671">
        <ele>182.1</ele>
        <time>2021-10-14T07:54:06Z</time>
      </trkpt>
      <trkpt lat="43.44441" lon="-0.35669">
        <ele>181.6</ele>
        <time>2021-10-14T07:54:08Z</time>
      </trkpt>
      <trkpt lat="43.44441" lon="-0.35667">
        <ele>181.3</ele>
        <time>2021-10-14T07:54:10Z</time>
      </trkpt>
      <trkpt lat="43.44442" lon="-0.35665">
        <ele>181.3</ele>
        <time>2021-10-14T07:54:12Z</time>
      </trkpt>
      <trkpt lat="43.44442" lon="-0.35664">
        <ele>181.4</ele>
        <time>2021-10-14T07:54:13Z</time>
      </trkpt>
      <trkpt lat="43.44442" lon="-0.35664">
        <ele>181.1</ele>
        <time>2021-10-14T07:54:14Z</time>
      </trkpt>
      <trkpt lat="43.44443" lon="-0.35663">
        <ele>182.5</ele>
        <time>2021-10-14T07:54:15Z</time>
      </trkpt>
      <trkpt lat="43.44443" lon="-0.3566">
        <ele>182.3</ele>
        <time>2021-10-14T07:54:18Z</time>
      </trkpt>
      <trkpt lat="43.44444" lon="-0.35658">
        <ele>182.3</ele>
        <time>2021-10-14T07:54:20Z</time>
      </trkpt>
      <trkpt lat="43.44444" lon="-0.35657">
        <ele>182.4</ele>
        <time>2021-10-14T07:54:21Z</time>
      </trkpt>
      <trkpt lat="43.44444" lon="-0.35656">
        <ele>182.1</ele>
        <time>2021-10-14T07:54:22Z</time>
      </trkpt>
      <trkpt lat="43.44444" lon="-0.35656">
        <ele>182.1</ele>
        <time>2021-10-14T07:54:23Z</time>
      </trkpt>
      <trkpt lat="43.44444" lon="-0.35655">
        <ele>183.1</ele>
        <time>2021-10-14T07:54:24Z</time>
      </trkpt>
      <trkpt lat="43.44444" lon="-0.35655">
        <ele>182.1</ele>
        <time>2021-10-14T07:54:25Z</time>
      </trkpt>
      <trkpt lat="43.44444" lon="-0.35653">
        <ele>183.3</ele>
        <time>2021-10-14T07:54:26Z</time>
      </trkpt>
      <trkpt lat="43.44445" lon="-0.35653">
        <ele>183</ele>
        <time>2021-10-14T07:54:27Z</time>
      </trkpt>
      <trkpt lat="43.44445" lon="-0.35652">
        <ele>183.2</ele>
        <time>2021-10-14T07:54:28Z</time>
      </trkpt>
      <trkpt lat="43.44445" lon="-0.35651">
        <ele>184.2</ele>
        <time>2021-10-14T07:54:29Z</time>
      </trkpt>
      <trkpt lat="43.44445" lon="-0.35651">
        <ele>184.3</ele>
        <time>2021-10-14T07:54:30Z</time>
      </trkpt>
      <trkpt lat="43.44445" lon="-0.35651">
        <ele>184.2</ele>
        <time>2021-10-14T07:54:31Z</time>
      </trkpt>
      <trkpt lat="43.44445" lon="-0.35651">
        <ele>184.3</ele>
        <time>2021-10-14T07:54:32Z</time>
      </trkpt>
      <trkpt lat="43.44446" lon="-0.3565">
        <ele>184</ele>
        <time>2021-10-14T07:54:33Z</time>
      </trkpt>
      <trkpt lat="43.44446" lon="-0.3565">
        <ele>184.4</ele>
        <time>2021-10-14T07:54:34Z</time>
      </trkpt>
      <trkpt lat="43.44446" lon="-0.35649">
        <ele>184.3</ele>
        <time>2021-10-14T07:54:35Z</time>
      </trkpt>
      <trkpt lat="43.44446" lon="-0.35648">
        <ele>185.1</ele>
        <time>2021-10-14T07:54:36Z</time>
      </trkpt>
      <trkpt lat="43.44446" lon="-0.35647">
        <ele>184.6</ele>
        <time>2021-10-14T07:54:38Z</time>
      </trkpt>
      <trkpt lat="43.44446" lon="-0.35646">
        <ele>186.3</ele>
        <time>2021-10-14T07:54:39Z</time>
      </trkpt>
      <trkpt lat="43.44446" lon="-0.35644">
        <ele>186.8</ele>
        <time>2021-10-14T07:54:41Z</time>
      </trkpt>
      <trkpt lat="43.44446" lon="-0.35643">
        <ele>186.4</ele>
        <time>2021-10-14T07:54:42Z</time>
      </trkpt>
      <trkpt lat="43.44446" lon="-0.35642">
        <ele>186.1</ele>
        <time>2021-10-14T07:54:43Z</time>
      </trkpt>
      <trkpt lat="43.44447" lon="-0.3564">
        <ele>186.2</ele>
        <time>2021-10-14T07:54:45Z</time>
      </trkpt>
      <trkpt lat="43.44447" lon="-0.3564">
        <ele>186</ele>
        <time>2021-10-14T07:54:46Z</time>
      </trkpt>
      <trkpt lat="43.44447" lon="-0.35639">
        <ele>186.5</ele>
        <time>2021-10-14T07:54:47Z</time>
      </trkpt>
      <trkpt lat="43.44447" lon="-0.35639">
        <ele>187.3</ele>
        <time>2021-10-14T07:54:48Z</time>
      </trkpt>
      <trkpt lat="43.44447" lon="-0.35638">
        <ele>187.2</ele>
        <time>2021-10-14T07:54:49Z</time>
      </trkpt>
      <trkpt lat="43.44447" lon="-0.35638">
        <ele>187.3</ele>
        <time>2021-10-14T07:54:50Z</time>
      </trkpt>
      <trkpt lat="43.44447" lon="-0.35637">
        <ele>187.3</ele>
        <time>2021-10-14T07:54:51Z</time>
      </trkpt>
      <trkpt lat="43.44439" lon="-0.35633">
        <ele>188</ele>
        <time>2021-10-14T07:55:05Z</time>
      </trkpt>
      <trkpt lat="43.44438" lon="-0.35633">
        <ele>188.2</ele>
        <time>2021-10-14T07:55:06Z</time>
      </trkpt>
      <trkpt lat="43.44437" lon="-0.35634">
        <ele>188.4</ele>
        <time>2021-10-14T07:55:07Z</time>
      </trkpt>
      <trkpt lat="43.44437" lon="-0.35634">
        <ele>187.5</ele>
        <time>2021-10-14T07:55:08Z</time>
      </trkpt>
      <trkpt lat="43.44437" lon="-0.35635">
        <ele>186.7</ele>
        <time>2021-10-14T07:55:09Z</time>
      </trkpt>
      <trkpt lat="43.44437" lon="-0.35635">
        <ele>185.2</ele>
        <time>2021-10-14T07:55:10Z</time>
      </trkpt>
      <trkpt lat="43.44437" lon="-0.35635">
        <ele>185.5</ele>
        <time>2021-10-14T07:55:11Z</time>
      </trkpt>
      <trkpt lat="43.44437" lon="-0.35635">
        <ele>185.7</ele>
        <time>2021-10-14T07:55:13Z</time>
      </trkpt>
      <trkpt lat="43.44437" lon="-0.35635">
        <ele>185.2</ele>
        <time>2021-10-14T07:55:32Z</time>
      </trkpt>
      <trkpt lat="43.44436" lon="-0.35635">
        <ele>184.2</ele>
        <time>2021-10-14T07:55:33Z</time>
      </trkpt>
      <trkpt lat="43.44436" lon="-0.35635">
        <ele>184.2</ele>
        <time>2021-10-14T07:55:34Z</time>
      </trkpt>
      <trkpt lat="43.44435" lon="-0.35636">
        <ele>184.9</ele>
        <time>2021-10-14T07:55:35Z</time>
      </trkpt>
      <trkpt lat="43.44434" lon="-0.35637">
        <ele>185.1</ele>
        <time>2021-10-14T07:55:37Z</time>
      </trkpt>
      <trkpt lat="43.44433" lon="-0.35637">
        <ele>185.6</ele>
        <time>2021-10-14T07:55:38Z</time>
      </trkpt>
      <trkpt lat="43.44432" lon="-0.35637">
        <ele>185.3</ele>
        <time>2021-10-14T07:55:39Z</time>
      </trkpt>
      <trkpt lat="43.4443" lon="-0.35637">
        <ele>185.7</ele>
        <time>2021-10-14T07:55:42Z</time>
      </trkpt>
      <trkpt lat="43.44431" lon="-0.35637">
        <ele>186.3</ele>
        <time>2021-10-14T07:55:43Z</time>
      </trkpt>
      <trkpt lat="43.44431" lon="-0.35636">
        <ele>186.3</ele>
        <time>2021-10-14T07:55:44Z</time>
      </trkpt>
      <trkpt lat="43.44431" lon="-0.35636">
        <ele>186.3</ele>
        <time>2021-10-14T07:55:45Z</time>
      </trkpt>
      <trkpt lat="43.44431" lon="-0.35636">
        <ele>186.3</ele>
        <time>2021-10-14T07:55:47Z</time>
      </trkpt>
      <trkpt lat="43.44431" lon="-0.35636">
        <ele>186.5</ele>
        <time>2021-10-14T07:55:48Z</time>
      </trkpt>
      <trkpt lat="43.44431" lon="-0.35636">
        <ele>186.1</ele>
        <time>2021-10-14T07:56:55Z</time>
      </trkpt>
      <trkpt lat="43.44432" lon="-0.35638">
        <ele>188.2</ele>
        <time>2021-10-14T07:56:57Z</time>
      </trkpt>
      <trkpt lat="43.44432" lon="-0.35638">
        <ele>188.2</ele>
        <time>2021-10-14T07:56:59Z</time>
      </trkpt>
      <trkpt lat="43.44433" lon="-0.35638">
        <ele>188.4</ele>
        <time>2021-10-14T07:57:01Z</time>
      </trkpt>
      <trkpt lat="43.44433" lon="-0.35638">
        <ele>188.4</ele>
        <time>2021-10-14T07:57:03Z</time>
      </trkpt>
      <trkpt lat="43.44433" lon="-0.35638">
        <ele>188.1</ele>
        <time>2021-10-14T07:57:22Z</time>
      </trkpt>
      <trkpt lat="43.44433" lon="-0.35638">
        <ele>188</ele>
        <time>2021-10-14T07:57:23Z</time>
      </trkpt>
      <trkpt lat="43.44433" lon="-0.35638">
        <ele>188.5</ele>
        <time>2021-10-14T07:57:24Z</time>
      </trkpt>
      <trkpt lat="43.44433" lon="-0.35638">
        <ele>188</ele>
        <time>2021-10-14T07:57:25Z</time>
      </trkpt>
      <trkpt lat="43.44433" lon="-0.35638">
        <ele>188.4</ele>
        <time>2021-10-14T07:57:26Z</time>
      </trkpt>
      <trkpt lat="43.44433" lon="-0.35638">
        <ele>188.5</ele>
        <time>2021-10-14T07:57:27Z</time>
      </trkpt>
      <trkpt lat="43.44433" lon="-0.35638">
        <ele>188.3</ele>
        <time>2021-10-14T07:57:28Z</time>
      </trkpt>
      <trkpt lat="43.44433" lon="-0.35638">
        <ele>187.8</ele>
        <time>2021-10-14T07:57:29Z</time>
      </trkpt>
      <trkpt lat="43.44433" lon="-0.35638">
        <ele>188.1</ele>
        <time>2021-10-14T07:57:33Z</time>
      </trkpt>
      <trkpt lat="43.44433" lon="-0.35638">
        <ele>188.3</ele>
        <time>2021-10-14T07:57:47Z</time>
      </trkpt>
      <trkpt lat="43.44433" lon="-0.35638">
        <ele>187.4</ele>
        <time>2021-10-14T07:57:49Z</time>
      </trkpt>
      <trkpt lat="43.44433" lon="-0.35638">
        <ele>187.1</ele>
        <time>2021-10-14T07:57:50Z</time>
      </trkpt>
      <trkpt lat="43.44433" lon="-0.35638">
        <ele>186</ele>
        <time>2021-10-14T07:57:51Z</time>
      </trkpt>
      <trkpt lat="43.44432" lon="-0.35637">
        <ele>185.9</ele>
        <time>2021-10-14T07:57:52Z</time>
      </trkpt>
      <trkpt lat="43.4443" lon="-0.35637">
        <ele>184.7</ele>
        <time>2021-10-14T07:57:53Z</time>
      </trkpt>
      <trkpt lat="43.44429" lon="-0.35637">
        <ele>186.4</ele>
        <time>2021-10-14T07:57:54Z</time>
      </trkpt>
      <trkpt lat="43.44428" lon="-0.35638">
        <ele>186.5</ele>
        <time>2021-10-14T07:57:55Z</time>
      </trkpt>
      <trkpt lat="43.44428" lon="-0.35639">
        <ele>186.8</ele>
        <time>2021-10-14T07:57:56Z</time>
      </trkpt>
      <trkpt lat="43.44427" lon="-0.3564">
        <ele>187.4</ele>
        <time>2021-10-14T07:57:57Z</time>
      </trkpt>
      <trkpt lat="43.44427" lon="-0.3564">
        <ele>186.7</ele>
        <time>2021-10-14T07:57:58Z</time>
      </trkpt>
      <trkpt lat="43.44425" lon="-0.35642">
        <ele>187.5</ele>
        <time>2021-10-14T07:58:00Z</time>
      </trkpt>
      <trkpt lat="43.44424" lon="-0.35644">
        <ele>187</ele>
        <time>2021-10-14T07:58:02Z</time>
      </trkpt>
      <trkpt lat="43.44423" lon="-0.35644">
        <ele>187.6</ele>
        <time>2021-10-14T07:58:03Z</time>
      </trkpt>
      <trkpt lat="43.44422" lon="-0.35645">
        <ele>187.6</ele>
        <time>2021-10-14T07:58:04Z</time>
      </trkpt>
      <trkpt lat="43.44421" lon="-0.35646">
        <ele>187.1</ele>
        <time>2021-10-14T07:58:05Z</time>
      </trkpt>
      <trkpt lat="43.44417" lon="-0.35647">
        <ele>187.2</ele>
        <time>2021-10-14T07:58:10Z</time>
      </trkpt>
      <trkpt lat="43.44416" lon="-0.35649">
        <ele>187.3</ele>
        <time>2021-10-14T07:58:11Z</time>
      </trkpt>
      <trkpt lat="43.44413" lon="-0.35651">
        <ele>187.2</ele>
        <time>2021-10-14T07:58:13Z</time>
      </trkpt>
      <trkpt lat="43.4441" lon="-0.35654">
        <ele>188.3</ele>
        <time>2021-10-14T07:58:15Z</time>
      </trkpt>
      <trkpt lat="43.44408" lon="-0.35657">
        <ele>188.6</ele>
        <time>2021-10-14T07:58:16Z</time>
      </trkpt>
      <trkpt lat="43.44407" lon="-0.3566">
        <ele>187.2</ele>
        <time>2021-10-14T07:58:17Z</time>
      </trkpt>
      <trkpt lat="43.44404" lon="-0.35662">
        <ele>187</ele>
        <time>2021-10-14T07:58:18Z</time>
      </trkpt>
      <trkpt lat="43.44402" lon="-0.35664">
        <ele>187.2</ele>
        <time>2021-10-14T07:58:19Z</time>
      </trkpt>
      <trkpt lat="43.444" lon="-0.35664">
        <ele>187.6</ele>
        <time>2021-10-14T07:58:20Z</time>
      </trkpt>
      <trkpt lat="43.44398" lon="-0.35665">
        <ele>188.2</ele>
        <time>2021-10-14T07:58:21Z</time>
      </trkpt>
      <trkpt lat="43.44397" lon="-0.35666">
        <ele>188</ele>
        <time>2021-10-14T07:58:22Z</time>
      </trkpt>
      <trkpt lat="43.44395" lon="-0.35668">
        <ele>187.6</ele>
        <time>2021-10-14T07:58:23Z</time>
      </trkpt>
      <trkpt lat="43.44393" lon="-0.35669">
        <ele>188.1</ele>
        <time>2021-10-14T07:58:24Z</time>
      </trkpt>
      <trkpt lat="43.44391" lon="-0.35672">
        <ele>188.7</ele>
        <time>2021-10-14T07:58:25Z</time>
      </trkpt>
      <trkpt lat="43.44385" lon="-0.35676">
        <ele>188.3</ele>
        <time>2021-10-14T07:58:27Z</time>
      </trkpt>
      <trkpt lat="43.44372" lon="-0.3569">
        <ele>188.1</ele>
        <time>2021-10-14T07:58:31Z</time>
      </trkpt>
      <trkpt lat="43.44373" lon="-0.35692">
        <ele>187.3</ele>
        <time>2021-10-14T07:58:32Z</time>
      </trkpt>
      <trkpt lat="43.44371" lon="-0.35696">
        <ele>187.2</ele>
        <time>2021-10-14T07:58:33Z</time>
      </trkpt>
      <trkpt lat="43.44359" lon="-0.35704">
        <ele>187.2</ele>
        <time>2021-10-14T07:58:35Z</time>
      </trkpt>
      <trkpt lat="43.44284" lon="-0.35772">
        <ele>187.2</ele>
        <time>2021-10-14T07:58:51Z</time>
      </trkpt>
      <trkpt lat="43.44206" lon="-0.35845">
        <ele>188.3</ele>
        <time>2021-10-14T07:59:10Z</time>
      </trkpt>
      <trkpt lat="43.44173" lon="-0.35875">
        <ele>188.1</ele>
        <time>2021-10-14T07:59:20Z</time>
      </trkpt>
      <trkpt lat="43.44171" lon="-0.35876">
        <ele>188.2</ele>
        <time>2021-10-14T07:59:21Z</time>
      </trkpt>
      <trkpt lat="43.44167" lon="-0.35877">
        <ele>188.2</ele>
        <time>2021-10-14T07:59:23Z</time>
      </trkpt>
      <trkpt lat="43.44167" lon="-0.35878">
        <ele>188.2</ele>
        <time>2021-10-14T07:59:24Z</time>
      </trkpt>
      <trkpt lat="43.44166" lon="-0.35878">
        <ele>188.2</ele>
        <time>2021-10-14T07:59:25Z</time>
      </trkpt>
      <trkpt lat="43.44166" lon="-0.35878">
        <ele>188.1</ele>
        <time>2021-10-14T07:59:26Z</time>
      </trkpt>
      <trkpt lat="43.44166" lon="-0.35878">
        <ele>188.1</ele>
        <time>2021-10-14T07:59:27Z</time>
      </trkpt>
      <trkpt lat="43.44166" lon="-0.35878">
        <ele>188.4</ele>
        <time>2021-10-14T07:59:28Z</time>
      </trkpt>
      <trkpt lat="43.44164" lon="-0.3588">
        <ele>189.4</ele>
        <time>2021-10-14T07:59:31Z</time>
      </trkpt>
      <trkpt lat="43.44163" lon="-0.3588">
        <ele>189.3</ele>
        <time>2021-10-14T07:59:32Z</time>
      </trkpt>
      <trkpt lat="43.44162" lon="-0.3588">
        <ele>188.8</ele>
        <time>2021-10-14T07:59:33Z</time>
      </trkpt>
      <trkpt lat="43.44162" lon="-0.3588">
        <ele>189.4</ele>
        <time>2021-10-14T07:59:34Z</time>
      </trkpt>
      <trkpt lat="43.44159" lon="-0.35881">
        <ele>188.1</ele>
        <time>2021-10-14T07:59:37Z</time>
      </trkpt>
      <trkpt lat="43.44157" lon="-0.35882">
        <ele>188.2</ele>
        <time>2021-10-14T07:59:38Z</time>
      </trkpt>
      <trkpt lat="43.44155" lon="-0.35882">
        <ele>187.2</ele>
        <time>2021-10-14T07:59:39Z</time>
      </trkpt>
      <trkpt lat="43.44152" lon="-0.35883">
        <ele>187</ele>
        <time>2021-10-14T07:59:40Z</time>
      </trkpt>
      <trkpt lat="43.4415" lon="-0.35882">
        <ele>187.3</ele>
        <time>2021-10-14T07:59:41Z</time>
      </trkpt>
      <trkpt lat="43.44148" lon="-0.35879">
        <ele>187</ele>
        <time>2021-10-14T07:59:42Z</time>
      </trkpt>
      <trkpt lat="43.44146" lon="-0.35876">
        <ele>187.3</ele>
        <time>2021-10-14T07:59:43Z</time>
      </trkpt>
      <trkpt lat="43.44137" lon="-0.35866">
        <ele>186</ele>
        <time>2021-10-14T07:59:46Z</time>
      </trkpt>
      <trkpt lat="43.44135" lon="-0.35861">
        <ele>185.9</ele>
        <time>2021-10-14T07:59:47Z</time>
      </trkpt>
      <trkpt lat="43.44133" lon="-0.35855">
        <ele>186.5</ele>
        <time>2021-10-14T07:59:48Z</time>
      </trkpt>
      <trkpt lat="43.44084" lon="-0.35747">
        <ele>187.4</ele>
        <time>2021-10-14T08:00:05Z</time>
      </trkpt>
      <trkpt lat="43.44073" lon="-0.35728">
        <ele>188.2</ele>
        <time>2021-10-14T08:00:08Z</time>
      </trkpt>
      <trkpt lat="43.44057" lon="-0.35706">
        <ele>188.1</ele>
        <time>2021-10-14T08:00:12Z</time>
      </trkpt>
      <trkpt lat="43.43986" lon="-0.3562">
        <ele>187</ele>
        <time>2021-10-14T08:00:29Z</time>
      </trkpt>
      <trkpt lat="43.43972" lon="-0.35604">
        <ele>188</ele>
        <time>2021-10-14T08:00:33Z</time>
      </trkpt>
      <trkpt lat="43.43963" lon="-0.35591">
        <ele>188.2</ele>
        <time>2021-10-14T08:00:36Z</time>
      </trkpt>
      <trkpt lat="43.4396" lon="-0.35586">
        <ele>188.3</ele>
        <time>2021-10-14T08:00:37Z</time>
      </trkpt>
      <trkpt lat="43.43937" lon="-0.35534">
        <ele>190.2</ele>
        <time>2021-10-14T08:00:47Z</time>
      </trkpt>
      <trkpt lat="43.4393" lon="-0.35524">
        <ele>191.1</ele>
        <time>2021-10-14T08:00:50Z</time>
      </trkpt>
      <trkpt lat="43.43925" lon="-0.3552">
        <ele>191</ele>
        <time>2021-10-14T08:00:52Z</time>
      </trkpt>
      <trkpt lat="43.43924" lon="-0.35519">
        <ele>190.9</ele>
        <time>2021-10-14T08:00:53Z</time>
      </trkpt>
      <trkpt lat="43.43923" lon="-0.35518">
        <ele>191.4</ele>
        <time>2021-10-14T08:00:54Z</time>
      </trkpt>
      <trkpt lat="43.43924" lon="-0.35515">
        <ele>191.1</ele>
        <time>2021-10-14T08:00:55Z</time>
      </trkpt>
      <trkpt lat="43.43926" lon="-0.35515">
        <ele>191.3</ele>
        <time>2021-10-14T08:00:56Z</time>
      </trkpt>
      <trkpt lat="43.43928" lon="-0.35517">
        <ele>191.7</ele>
        <time>2021-10-14T08:00:57Z</time>
      </trkpt>
      <trkpt lat="43.43958" lon="-0.35581">
        <ele>192.3</ele>
        <time>2021-10-14T08:01:08Z</time>
      </trkpt>
      <trkpt lat="43.43962" lon="-0.35588">
        <ele>192.2</ele>
        <time>2021-10-14T08:01:09Z</time>
      </trkpt>
      <trkpt lat="43.44031" lon="-0.35671">
        <ele>190.3</ele>
        <time>2021-10-14T08:01:23Z</time>
      </trkpt>
      <trkpt lat="43.44042" lon="-0.35681">
        <ele>189.1</ele>
        <time>2021-10-14T08:01:25Z</time>
      </trkpt>
      <trkpt lat="43.44076" lon="-0.35721">
        <ele>189.4</ele>
        <time>2021-10-14T08:01:32Z</time>
      </trkpt>
      <trkpt lat="43.44103" lon="-0.35764">
        <ele>190.4</ele>
        <time>2021-10-14T08:01:39Z</time>
      </trkpt>
      <trkpt lat="43.44114" lon="-0.35785">
        <ele>190.1</ele>
        <time>2021-10-14T08:01:42Z</time>
      </trkpt>
      <trkpt lat="43.44117" lon="-0.35792">
        <ele>191.3</ele>
        <time>2021-10-14T08:01:43Z</time>
      </trkpt>
      <trkpt lat="43.44133" lon="-0.35845">
        <ele>190</ele>
        <time>2021-10-14T08:01:51Z</time>
      </trkpt>
      <trkpt lat="43.44139" lon="-0.35857">
        <ele>190.2</ele>
        <time>2021-10-14T08:01:53Z</time>
      </trkpt>
      <trkpt lat="43.44144" lon="-0.35869">
        <ele>189.5</ele>
        <time>2021-10-14T08:01:55Z</time>
      </trkpt>
      <trkpt lat="43.44146" lon="-0.35874">
        <ele>189.9</ele>
        <time>2021-10-14T08:01:56Z</time>
      </trkpt>
      <trkpt lat="43.4416" lon="-0.35899">
        <ele>190.4</ele>
        <time>2021-10-14T08:02:02Z</time>
      </trkpt>
      <trkpt lat="43.44168" lon="-0.35912">
        <ele>189</ele>
        <time>2021-10-14T08:02:05Z</time>
      </trkpt>
      <trkpt lat="43.44229" lon="-0.36012">
        <ele>182.1</ele>
        <time>2021-10-14T08:02:23Z</time>
      </trkpt>
      <trkpt lat="43.44248" lon="-0.36038">
        <ele>177</ele>
        <time>2021-10-14T08:02:27Z</time>
      </trkpt>
      <trkpt lat="43.44253" lon="-0.36044">
        <ele>176.2</ele>
        <time>2021-10-14T08:02:28Z</time>
      </trkpt>
      <trkpt lat="43.44258" lon="-0.36048">
        <ele>174.9</ele>
        <time>2021-10-14T08:02:29Z</time>
      </trkpt>
      <trkpt lat="43.44263" lon="-0.36052">
        <ele>174.3</ele>
        <time>2021-10-14T08:02:30Z</time>
      </trkpt>
      <trkpt lat="43.44268" lon="-0.36055">
        <ele>173.3</ele>
        <time>2021-10-14T08:02:31Z</time>
      </trkpt>
      <trkpt lat="43.44273" lon="-0.36056">
        <ele>173.9</ele>
        <time>2021-10-14T08:02:32Z</time>
      </trkpt>
      <trkpt lat="43.44286" lon="-0.36057">
        <ele>173.4</ele>
        <time>2021-10-14T08:02:35Z</time>
      </trkpt>
      <trkpt lat="43.44289" lon="-0.36057">
        <ele>173.3</ele>
        <time>2021-10-14T08:02:36Z</time>
      </trkpt>
      <trkpt lat="43.44292" lon="-0.36056">
        <ele>173.5</ele>
        <time>2021-10-14T08:02:37Z</time>
      </trkpt>
      <trkpt lat="43.44295" lon="-0.36055">
        <ele>173.5</ele>
        <time>2021-10-14T08:02:38Z</time>
      </trkpt>
      <trkpt lat="43.44298" lon="-0.36052">
        <ele>172.9</ele>
        <time>2021-10-14T08:02:39Z</time>
      </trkpt>
      <trkpt lat="43.443" lon="-0.36049">
        <ele>173.3</ele>
        <time>2021-10-14T08:02:40Z</time>
      </trkpt>
      <trkpt lat="43.44302" lon="-0.36046">
        <ele>172.9</ele>
        <time>2021-10-14T08:02:41Z</time>
      </trkpt>
      <trkpt lat="43.44304" lon="-0.36035">
        <ele>173.4</ele>
        <time>2021-10-14T08:02:44Z</time>
      </trkpt>
      <trkpt lat="43.44305" lon="-0.36034">
        <ele>173.4</ele>
        <time>2021-10-14T08:02:45Z</time>
      </trkpt>
      <trkpt lat="43.44307" lon="-0.36034">
        <ele>172.8</ele>
        <time>2021-10-14T08:02:46Z</time>
      </trkpt>
      <trkpt lat="43.44309" lon="-0.36037">
        <ele>172.6</ele>
        <time>2021-10-14T08:02:47Z</time>
      </trkpt>
      <trkpt lat="43.44308" lon="-0.3604">
        <ele>171.7</ele>
        <time>2021-10-14T08:02:48Z</time>
      </trkpt>
      <trkpt lat="43.44307" lon="-0.36043">
        <ele>172.1</ele>
        <time>2021-10-14T08:02:49Z</time>
      </trkpt>
      <trkpt lat="43.44306" lon="-0.36045">
        <ele>172.2</ele>
        <time>2021-10-14T08:02:50Z</time>
      </trkpt>
      <trkpt lat="43.44305" lon="-0.36046">
        <ele>172.2</ele>
        <time>2021-10-14T08:02:51Z</time>
      </trkpt>
      <trkpt lat="43.44303" lon="-0.36047">
        <ele>172.5</ele>
        <time>2021-10-14T08:02:52Z</time>
      </trkpt>
      <trkpt lat="43.44301" lon="-0.36046">
        <ele>172.2</ele>
        <time>2021-10-14T08:02:53Z</time>
      </trkpt>
      <trkpt lat="43.44299" lon="-0.36047">
        <ele>172.3</ele>
        <time>2021-10-14T08:02:54Z</time>
      </trkpt>
      <trkpt lat="43.44295" lon="-0.36051">
        <ele>171.8</ele>
        <time>2021-10-14T08:02:56Z</time>
      </trkpt>
      <trkpt lat="43.44293" lon="-0.36053">
        <ele>172.1</ele>
        <time>2021-10-14T08:02:57Z</time>
      </trkpt>
      <trkpt lat="43.4429" lon="-0.36055">
        <ele>172</ele>
        <time>2021-10-14T08:02:58Z</time>
      </trkpt>
      <trkpt lat="43.44288" lon="-0.36056">
        <ele>172.2</ele>
        <time>2021-10-14T08:02:59Z</time>
      </trkpt>
      <trkpt lat="43.44285" lon="-0.36057">
        <ele>172.3</ele>
        <time>2021-10-14T08:03:00Z</time>
      </trkpt>
      <trkpt lat="43.44283" lon="-0.36057">
        <ele>172.1</ele>
        <time>2021-10-14T08:03:01Z</time>
      </trkpt>
      <trkpt lat="43.44276" lon="-0.36056">
        <ele>172.1</ele>
        <time>2021-10-14T08:03:03Z</time>
      </trkpt>
      <trkpt lat="43.44271" lon="-0.36055">
        <ele>172.5</ele>
        <time>2021-10-14T08:03:05Z</time>
      </trkpt>
      <trkpt lat="43.44265" lon="-0.36053">
        <ele>172.4</ele>
        <time>2021-10-14T08:03:07Z</time>
      </trkpt>
      <trkpt lat="43.44263" lon="-0.36052">
        <ele>170.9</ele>
        <time>2021-10-14T08:03:08Z</time>
      </trkpt>
      <trkpt lat="43.44261" lon="-0.3605">
        <ele>171.1</ele>
        <time>2021-10-14T08:03:09Z</time>
      </trkpt>
      <trkpt lat="43.44259" lon="-0.36047">
        <ele>170.9</ele>
        <time>2021-10-14T08:03:10Z</time>
      </trkpt>
      <trkpt lat="43.44252" lon="-0.36041">
        <ele>171.3</ele>
        <time>2021-10-14T08:03:13Z</time>
      </trkpt>
      <trkpt lat="43.4425" lon="-0.36039">
        <ele>171.2</ele>
        <time>2021-10-14T08:03:14Z</time>
      </trkpt>
      <trkpt lat="43.44248" lon="-0.36037">
        <ele>171.2</ele>
        <time>2021-10-14T08:03:15Z</time>
      </trkpt>
      <trkpt lat="43.44246" lon="-0.36034">
        <ele>171.1</ele>
        <time>2021-10-14T08:03:16Z</time>
      </trkpt>
      <trkpt lat="43.44244" lon="-0.36032">
        <ele>171.2</ele>
        <time>2021-10-14T08:03:17Z</time>
      </trkpt>
      <trkpt lat="43.4424" lon="-0.36026">
        <ele>170.9</ele>
        <time>2021-10-14T08:03:19Z</time>
      </trkpt>
      <trkpt lat="43.44236" lon="-0.36021">
        <ele>171.2</ele>
        <time>2021-10-14T08:03:21Z</time>
      </trkpt>
      <trkpt lat="43.44232" lon="-0.36016">
        <ele>172</ele>
        <time>2021-10-14T08:03:23Z</time>
      </trkpt>
      <trkpt lat="43.4423" lon="-0.36013">
        <ele>172</ele>
        <time>2021-10-14T08:03:24Z</time>
      </trkpt>
      <trkpt lat="43.44227" lon="-0.36008">
        <ele>173.3</ele>
        <time>2021-10-14T08:03:26Z</time>
      </trkpt>
      <trkpt lat="43.44224" lon="-0.36003">
        <ele>173.2</ele>
        <time>2021-10-14T08:03:28Z</time>
      </trkpt>
      <trkpt lat="43.44222" lon="-0.35998">
        <ele>174.1</ele>
        <time>2021-10-14T08:03:30Z</time>
      </trkpt>
      <trkpt lat="43.44222" lon="-0.35999">
        <ele>174.2</ele>
        <time>2021-10-14T08:03:31Z</time>
      </trkpt>
      <trkpt lat="43.44222" lon="-0.36">
        <ele>174.2</ele>
        <time>2021-10-14T08:03:32Z</time>
      </trkpt>
      <trkpt lat="43.44214" lon="-0.35987">
        <ele>176.4</ele>
        <time>2021-10-14T08:03:36Z</time>
      </trkpt>
      <trkpt lat="43.44212" lon="-0.35984">
        <ele>176.6</ele>
        <time>2021-10-14T08:03:37Z</time>
      </trkpt>
      <trkpt lat="43.44211" lon="-0.35982">
        <ele>176.1</ele>
        <time>2021-10-14T08:03:38Z</time>
      </trkpt>
      <trkpt lat="43.44209" lon="-0.3598">
        <ele>176.4</ele>
        <time>2021-10-14T08:03:39Z</time>
      </trkpt>
      <trkpt lat="43.44205" lon="-0.35974">
        <ele>177.4</ele>
        <time>2021-10-14T08:03:42Z</time>
      </trkpt>
      <trkpt lat="43.44203" lon="-0.35971">
        <ele>177.2</ele>
        <time>2021-10-14T08:03:44Z</time>
      </trkpt>
      <trkpt lat="43.44199" lon="-0.35963">
        <ele>179.4</ele>
        <time>2021-10-14T08:03:48Z</time>
      </trkpt>
      <trkpt lat="43.44196" lon="-0.3596">
        <ele>180</ele>
        <time>2021-10-14T08:03:50Z</time>
      </trkpt>
      <trkpt lat="43.44195" lon="-0.35959">
        <ele>180.1</ele>
        <time>2021-10-14T08:03:51Z</time>
      </trkpt>
      <trkpt lat="43.44193" lon="-0.35954">
        <ele>180.1</ele>
        <time>2021-10-14T08:03:54Z</time>
      </trkpt>
      <trkpt lat="43.44192" lon="-0.35953">
        <ele>180.1</ele>
        <time>2021-10-14T08:03:55Z</time>
      </trkpt>
      <trkpt lat="43.44192" lon="-0.35951">
        <ele>181.3</ele>
        <time>2021-10-14T08:03:56Z</time>
      </trkpt>
      <trkpt lat="43.44191" lon="-0.35952">
        <ele>181.2</ele>
        <time>2021-10-14T08:03:57Z</time>
      </trkpt>
      <trkpt lat="43.44189" lon="-0.35948">
        <ele>182.4</ele>
        <time>2021-10-14T08:03:59Z</time>
      </trkpt>
      <trkpt lat="43.44188" lon="-0.35946">
        <ele>182.4</ele>
        <time>2021-10-14T08:04:00Z</time>
      </trkpt>
      <trkpt lat="43.44187" lon="-0.3594">
        <ele>182.3</ele>
        <time>2021-10-14T08:04:03Z</time>
      </trkpt>
      <trkpt lat="43.44185" lon="-0.35937">
        <ele>183.1</ele>
        <time>2021-10-14T08:04:05Z</time>
      </trkpt>
      <trkpt lat="43.44179" lon="-0.35925">
        <ele>183.2</ele>
        <time>2021-10-14T08:04:12Z</time>
      </trkpt>
      <trkpt lat="43.44178" lon="-0.35924">
        <ele>183.4</ele>
        <time>2021-10-14T08:04:13Z</time>
      </trkpt>
      <trkpt lat="43.44176" lon="-0.35922">
        <ele>183</ele>
        <time>2021-10-14T08:04:15Z</time>
      </trkpt>
      <trkpt lat="43.44174" lon="-0.35919">
        <ele>183</ele>
        <time>2021-10-14T08:04:17Z</time>
      </trkpt>
      <trkpt lat="43.44168" lon="-0.35911">
        <ele>184</ele>
        <time>2021-10-14T08:04:24Z</time>
      </trkpt>
      <trkpt lat="43.44166" lon="-0.35906">
        <ele>184.7</ele>
        <time>2021-10-14T08:04:27Z</time>
      </trkpt>
      <trkpt lat="43.44164" lon="-0.35903">
        <ele>184.4</ele>
        <time>2021-10-14T08:04:29Z</time>
      </trkpt>
      <trkpt lat="43.44163" lon="-0.35901">
        <ele>182.9</ele>
        <time>2021-10-14T08:04:30Z</time>
      </trkpt>
      <trkpt lat="43.44163" lon="-0.359">
        <ele>184.3</ele>
        <time>2021-10-14T08:04:31Z</time>
      </trkpt>
      <trkpt lat="43.44159" lon="-0.35895">
        <ele>185.9</ele>
        <time>2021-10-14T08:04:35Z</time>
      </trkpt>
      <trkpt lat="43.44158" lon="-0.35894">
        <ele>184.7</ele>
        <time>2021-10-14T08:04:36Z</time>
      </trkpt>
      <trkpt lat="43.44157" lon="-0.35893">
        <ele>184.8</ele>
        <time>2021-10-14T08:04:37Z</time>
      </trkpt>
      <trkpt lat="43.44156" lon="-0.35893">
        <ele>185.8</ele>
        <time>2021-10-14T08:04:38Z</time>
      </trkpt>
      <trkpt lat="43.44156" lon="-0.35891">
        <ele>185</ele>
        <time>2021-10-14T08:04:39Z</time>
      </trkpt>
      <trkpt lat="43.44155" lon="-0.3589">
        <ele>185.5</ele>
        <time>2021-10-14T08:04:40Z</time>
      </trkpt>
      <trkpt lat="43.44156" lon="-0.35889">
        <ele>186.2</ele>
        <time>2021-10-14T08:04:41Z</time>
      </trkpt>
      <trkpt lat="43.44157" lon="-0.35887">
        <ele>186.3</ele>
        <time>2021-10-14T08:04:42Z</time>
      </trkpt>
      <trkpt lat="43.44158" lon="-0.35884">
        <ele>186.4</ele>
        <time>2021-10-14T08:04:44Z</time>
      </trkpt>
      <trkpt lat="43.44159" lon="-0.35882">
        <ele>186.2</ele>
        <time>2021-10-14T08:04:45Z</time>
      </trkpt>
      <trkpt lat="43.4416" lon="-0.35882">
        <ele>186.5</ele>
        <time>2021-10-14T08:04:46Z</time>
      </trkpt>
      <trkpt lat="43.44159" lon="-0.35881">
        <ele>186</ele>
        <time>2021-10-14T08:04:47Z</time>
      </trkpt>
      <trkpt lat="43.44161" lon="-0.3588">
        <ele>187.2</ele>
        <time>2021-10-14T08:04:49Z</time>
      </trkpt>
      <trkpt lat="43.44163" lon="-0.35879">
        <ele>188.4</ele>
        <time>2021-10-14T08:04:51Z</time>
      </trkpt>
      <trkpt lat="43.44163" lon="-0.35879">
        <ele>188.5</ele>
        <time>2021-10-14T08:04:52Z</time>
      </trkpt>
      <trkpt lat="43.44163" lon="-0.35879">
        <ele>188.4</ele>
        <time>2021-10-14T08:04:53Z</time>
      </trkpt>
      <trkpt lat="43.44163" lon="-0.3588">
        <ele>187.1</ele>
        <time>2021-10-14T08:04:54Z</time>
      </trkpt>
      <trkpt lat="43.44163" lon="-0.3588">
        <ele>187.2</ele>
        <time>2021-10-14T08:04:55Z</time>
      </trkpt>
      <trkpt lat="43.44163" lon="-0.3588">
        <ele>187.3</ele>
        <time>2021-10-14T08:04:56Z</time>
      </trkpt>
      <trkpt lat="43.44163" lon="-0.35879">
        <ele>187.6</ele>
        <time>2021-10-14T08:04:57Z</time>
      </trkpt>
      <trkpt lat="43.44163" lon="-0.35879">
        <ele>188.3</ele>
        <time>2021-10-14T08:04:58Z</time>
      </trkpt>
      <trkpt lat="43.44164" lon="-0.35877">
        <ele>187</ele>
        <time>2021-10-14T08:05:00Z</time>
      </trkpt>
      <trkpt lat="43.44164" lon="-0.35877">
        <ele>186.9</ele>
        <time>2021-10-14T08:05:01Z</time>
      </trkpt>
      <trkpt lat="43.44164" lon="-0.35876">
        <ele>187.4</ele>
        <time>2021-10-14T08:05:02Z</time>
      </trkpt>
      <trkpt lat="43.44165" lon="-0.35876">
        <ele>186.9</ele>
        <time>2021-10-14T08:05:03Z</time>
      </trkpt>
      <trkpt lat="43.44165" lon="-0.35875">
        <ele>188.2</ele>
        <time>2021-10-14T08:05:04Z</time>
      </trkpt>
      <trkpt lat="43.44166" lon="-0.35875">
        <ele>188</ele>
        <time>2021-10-14T08:05:05Z</time>
      </trkpt>
      <trkpt lat="43.44166" lon="-0.35875">
        <ele>188.3</ele>
        <time>2021-10-14T08:05:06Z</time>
      </trkpt>
      <trkpt lat="43.44166" lon="-0.35875">
        <ele>186.6</ele>
        <time>2021-10-14T08:05:07Z</time>
      </trkpt>
      <trkpt lat="43.44166" lon="-0.35875">
        <ele>187</ele>
        <time>2021-10-14T08:05:08Z</time>
      </trkpt>
      <trkpt lat="43.44167" lon="-0.35875">
        <ele>187.6</ele>
        <time>2021-10-14T08:05:09Z</time>
      </trkpt>
      <trkpt lat="43.44168" lon="-0.35874">
        <ele>187.2</ele>
        <time>2021-10-14T08:05:10Z</time>
      </trkpt>
      <trkpt lat="43.44169" lon="-0.35872">
        <ele>187.5</ele>
        <time>2021-10-14T08:05:11Z</time>
      </trkpt>
      <trkpt lat="43.4417" lon="-0.35872">
        <ele>186.8</ele>
        <time>2021-10-14T08:05:12Z</time>
      </trkpt>
      <trkpt lat="43.44172" lon="-0.35871">
        <ele>187.3</ele>
        <time>2021-10-14T08:05:13Z</time>
      </trkpt>
      <trkpt lat="43.44174" lon="-0.35871">
        <ele>188.3</ele>
        <time>2021-10-14T08:05:14Z</time>
      </trkpt>
      <trkpt lat="43.44176" lon="-0.3587">
        <ele>188.8</ele>
        <time>2021-10-14T08:05:15Z</time>
      </trkpt>
      <trkpt lat="43.44177" lon="-0.35869">
        <ele>188.4</ele>
        <time>2021-10-14T08:05:16Z</time>
      </trkpt>
      <trkpt lat="43.44178" lon="-0.35867">
        <ele>188.4</ele>
        <time>2021-10-14T08:05:17Z</time>
      </trkpt>
      <trkpt lat="43.44182" lon="-0.35864">
        <ele>188.1</ele>
        <time>2021-10-14T08:05:19Z</time>
      </trkpt>
      <trkpt lat="43.44185" lon="-0.3586">
        <ele>188.3</ele>
        <time>2021-10-14T08:05:21Z</time>
      </trkpt>
      <trkpt lat="43.44186" lon="-0.35859">
        <ele>188.3</ele>
        <time>2021-10-14T08:05:22Z</time>
      </trkpt>
      <trkpt lat="43.44188" lon="-0.35857">
        <ele>189.1</ele>
        <time>2021-10-14T08:05:23Z</time>
      </trkpt>
      <trkpt lat="43.44222" lon="-0.35827">
        <ele>190.1</ele>
        <time>2021-10-14T08:05:36Z</time>
      </trkpt>
      <trkpt lat="43.44224" lon="-0.35829">
        <ele>190.4</ele>
        <time>2021-10-14T08:05:37Z</time>
      </trkpt>
      <trkpt lat="43.44227" lon="-0.35826">
        <ele>190.2</ele>
        <time>2021-10-14T08:05:38Z</time>
      </trkpt>
      <trkpt lat="43.44237" lon="-0.35813">
        <ele>189.4</ele>
        <time>2021-10-14T08:05:42Z</time>
      </trkpt>
      <trkpt lat="43.44271" lon="-0.3578">
        <ele>186</ele>
        <time>2021-10-14T08:05:55Z</time>
      </trkpt>
      <trkpt lat="43.44274" lon="-0.35778">
        <ele>186.3</ele>
        <time>2021-10-14T08:05:56Z</time>
      </trkpt>
      <trkpt lat="43.4429" lon="-0.35763">
        <ele>186.2</ele>
        <time>2021-10-14T08:06:01Z</time>
      </trkpt>
      <trkpt lat="43.44298" lon="-0.35757">
        <ele>186.3</ele>
        <time>2021-10-14T08:06:03Z</time>
      </trkpt>
      <trkpt lat="43.44302" lon="-0.35753">
        <ele>186.3</ele>
        <time>2021-10-14T08:06:04Z</time>
      </trkpt>
      <trkpt lat="43.44306" lon="-0.3575">
        <ele>186.1</ele>
        <time>2021-10-14T08:06:05Z</time>
      </trkpt>
      <trkpt lat="43.44382" lon="-0.3568">
        <ele>184.3</ele>
        <time>2021-10-14T08:06:25Z</time>
      </trkpt>
      <trkpt lat="43.44401" lon="-0.35663">
        <ele>185.1</ele>
        <time>2021-10-14T08:06:32Z</time>
      </trkpt>
      <trkpt lat="43.44402" lon="-0.35662">
        <ele>185.2</ele>
        <time>2021-10-14T08:06:33Z</time>
      </trkpt>
      <trkpt lat="43.44403" lon="-0.35661">
        <ele>185.3</ele>
        <time>2021-10-14T08:06:34Z</time>
      </trkpt>
      <trkpt lat="43.44403" lon="-0.35661">
        <ele>184.3</ele>
        <time>2021-10-14T08:06:35Z</time>
      </trkpt>
      <trkpt lat="43.44403" lon="-0.35661">
        <ele>184.3</ele>
        <time>2021-10-14T08:06:36Z</time>
      </trkpt>
      <trkpt lat="43.44402" lon="-0.35661">
        <ele>184.5</ele>
        <time>2021-10-14T08:06:38Z</time>
      </trkpt>
      <trkpt lat="43.44402" lon="-0.35661">
        <ele>184.5</ele>
        <time>2021-10-14T08:06:39Z</time>
      </trkpt>
      <trkpt lat="43.44402" lon="-0.35661">
        <ele>184.4</ele>
        <time>2021-10-14T08:06:42Z</time>
      </trkpt>
      <trkpt lat="43.44402" lon="-0.35661">
        <ele>184</ele>
        <time>2021-10-14T08:07:22Z</time>
      </trkpt>
      <trkpt lat="43.44402" lon="-0.35661">
        <ele>185.3</ele>
        <time>2021-10-14T08:07:23Z</time>
      </trkpt>
      <trkpt lat="43.44402" lon="-0.35661">
        <ele>184.3</ele>
        <time>2021-10-14T08:07:24Z</time>
      </trkpt>
      <trkpt lat="43.44402" lon="-0.35661">
        <ele>184.2</ele>
        <time>2021-10-14T08:07:25Z</time>
      </trkpt>
      <trkpt lat="43.44402" lon="-0.35661">
        <ele>185.2</ele>
        <time>2021-10-14T08:07:26Z</time>
      </trkpt>
      <trkpt lat="43.44401" lon="-0.35661">
        <ele>185.3</ele>
        <time>2021-10-14T08:07:27Z</time>
      </trkpt>
      <trkpt lat="43.44401" lon="-0.3566">
        <ele>185.3</ele>
        <time>2021-10-14T08:07:28Z</time>
      </trkpt>
      <trkpt lat="43.44401" lon="-0.35661">
        <ele>185.2</ele>
        <time>2021-10-14T08:07:29Z</time>
      </trkpt>
      <trkpt lat="43.44401" lon="-0.35661">
        <ele>185.3</ele>
        <time>2021-10-14T08:07:30Z</time>
      </trkpt>
      <trkpt lat="43.444" lon="-0.35661">
        <ele>184.8</ele>
        <time>2021-10-14T08:07:31Z</time>
      </trkpt>
      <trkpt lat="43.44397" lon="-0.35664">
        <ele>185.1</ele>
        <time>2021-10-14T08:07:33Z</time>
      </trkpt>
      <trkpt lat="43.44393" lon="-0.35667">
        <ele>184.3</ele>
        <time>2021-10-14T08:07:35Z</time>
      </trkpt>
      <trkpt lat="43.44317" lon="-0.35738">
        <ele>181.1</ele>
        <time>2021-10-14T08:08:06Z</time>
      </trkpt>
      <trkpt lat="43.44316" lon="-0.3574">
        <ele>181.2</ele>
        <time>2021-10-14T08:08:07Z</time>
      </trkpt>
      <trkpt lat="43.44316" lon="-0.35742">
        <ele>181.3</ele>
        <time>2021-10-14T08:08:08Z</time>
      </trkpt>
      <trkpt lat="43.44291" lon="-0.35761">
        <ele>180.9</ele>
        <time>2021-10-14T08:08:16Z</time>
      </trkpt>
      <trkpt lat="43.44249" lon="-0.35799">
        <ele>183</ele>
        <time>2021-10-14T08:08:31Z</time>
      </trkpt>
      <trkpt lat="43.44247" lon="-0.35798">
        <ele>183.3</ele>
        <time>2021-10-14T08:08:32Z</time>
      </trkpt>
      <trkpt lat="43.4421" lon="-0.35834">
        <ele>185.1</ele>
        <time>2021-10-14T08:08:44Z</time>
      </trkpt>
      <trkpt lat="43.44202" lon="-0.3584">
        <ele>184.4</ele>
        <time>2021-10-14T08:08:47Z</time>
      </trkpt>
      <trkpt lat="43.44196" lon="-0.35846">
        <ele>184.2</ele>
        <time>2021-10-14T08:08:50Z</time>
      </trkpt>
      <trkpt lat="43.44195" lon="-0.35849">
        <ele>184.1</ele>
        <time>2021-10-14T08:08:51Z</time>
      </trkpt>
      <trkpt lat="43.4419" lon="-0.35852">
        <ele>184</ele>
        <time>2021-10-14T08:08:53Z</time>
      </trkpt>
      <trkpt lat="43.44185" lon="-0.35856">
        <ele>184.3</ele>
        <time>2021-10-14T08:08:55Z</time>
      </trkpt>
      <trkpt lat="43.4418" lon="-0.35861">
        <ele>183.8</ele>
        <time>2021-10-14T08:08:57Z</time>
      </trkpt>
      <trkpt lat="43.44172" lon="-0.35868">
        <ele>185.4</ele>
        <time>2021-10-14T08:09:00Z</time>
      </trkpt>
      <trkpt lat="43.44165" lon="-0.35875">
        <ele>184.8</ele>
        <time>2021-10-14T08:09:03Z</time>
      </trkpt>
      <trkpt lat="43.44164" lon="-0.35876">
        <ele>185.1</ele>
        <time>2021-10-14T08:09:04Z</time>
      </trkpt>
      <trkpt lat="43.44163" lon="-0.35877">
        <ele>185.2</ele>
        <time>2021-10-14T08:09:05Z</time>
      </trkpt>
      <trkpt lat="43.44163" lon="-0.35877">
        <ele>185.6</ele>
        <time>2021-10-14T08:09:06Z</time>
      </trkpt>
      <trkpt lat="43.44164" lon="-0.35877">
        <ele>185.1</ele>
        <time>2021-10-14T08:09:07Z</time>
      </trkpt>
      <trkpt lat="43.44163" lon="-0.35877">
        <ele>185.4</ele>
        <time>2021-10-14T08:09:08Z</time>
      </trkpt>
      <trkpt lat="43.44163" lon="-0.35878">
        <ele>185.1</ele>
        <time>2021-10-14T08:09:09Z</time>
      </trkpt>
      <trkpt lat="43.44163" lon="-0.35878">
        <ele>185.3</ele>
        <time>2021-10-14T08:09:10Z</time>
      </trkpt>
      <trkpt lat="43.44163" lon="-0.35879">
        <ele>186.2</ele>
        <time>2021-10-14T08:09:12Z</time>
      </trkpt>
      <trkpt lat="43.44163" lon="-0.35879">
        <ele>186.2</ele>
        <time>2021-10-14T08:09:13Z</time>
      </trkpt>
      <trkpt lat="43.44163" lon="-0.35879">
        <ele>185.8</ele>
        <time>2021-10-14T08:09:14Z</time>
      </trkpt>
      <trkpt lat="43.44162" lon="-0.35879">
        <ele>187.2</ele>
        <time>2021-10-14T08:09:15Z</time>
      </trkpt>
      <trkpt lat="43.44162" lon="-0.35879">
        <ele>187.2</ele>
        <time>2021-10-14T08:09:16Z</time>
      </trkpt>
      <trkpt lat="43.44161" lon="-0.3588">
        <ele>187.5</ele>
        <time>2021-10-14T08:09:17Z</time>
      </trkpt>
      <trkpt lat="43.44161" lon="-0.3588">
        <ele>186.8</ele>
        <time>2021-10-14T08:09:18Z</time>
      </trkpt>
      <trkpt lat="43.44161" lon="-0.3588">
        <ele>187.3</ele>
        <time>2021-10-14T08:09:19Z</time>
      </trkpt>
      <trkpt lat="43.44161" lon="-0.3588">
        <ele>187.5</ele>
        <time>2021-10-14T08:09:20Z</time>
      </trkpt>
      <trkpt lat="43.44161" lon="-0.35881">
        <ele>188.4</ele>
        <time>2021-10-14T08:09:21Z</time>
      </trkpt>
      <trkpt lat="43.4416" lon="-0.35881">
        <ele>188.2</ele>
        <time>2021-10-14T08:09:22Z</time>
      </trkpt>
      <trkpt lat="43.44159" lon="-0.35882">
        <ele>187.2</ele>
        <time>2021-10-14T08:09:23Z</time>
      </trkpt>
      <trkpt lat="43.44157" lon="-0.35884">
        <ele>187.5</ele>
        <time>2021-10-14T08:09:24Z</time>
      </trkpt>
      <trkpt lat="43.44155" lon="-0.35883">
        <ele>187.2</ele>
        <time>2021-10-14T08:09:25Z</time>
      </trkpt>
      <trkpt lat="43.44153" lon="-0.35881">
        <ele>187</ele>
        <time>2021-10-14T08:09:26Z</time>
      </trkpt>
      <trkpt lat="43.44151" lon="-0.3588">
        <ele>187.4</ele>
        <time>2021-10-14T08:09:27Z</time>
      </trkpt>
      <trkpt lat="43.44149" lon="-0.35876">
        <ele>187.4</ele>
        <time>2021-10-14T08:09:29Z</time>
      </trkpt>
      <trkpt lat="43.44147" lon="-0.35874">
        <ele>187.4</ele>
        <time>2021-10-14T08:09:30Z</time>
      </trkpt>
      <trkpt lat="43.44146" lon="-0.35872">
        <ele>187.1</ele>
        <time>2021-10-14T08:09:31Z</time>
      </trkpt>
      <trkpt lat="43.4414" lon="-0.35864">
        <ele>187.3</ele>
        <time>2021-10-14T08:09:34Z</time>
      </trkpt>
      <trkpt lat="43.4413" lon="-0.35848">
        <ele>186.4</ele>
        <time>2021-10-14T08:09:39Z</time>
      </trkpt>
      <trkpt lat="43.44121" lon="-0.35829">
        <ele>186.4</ele>
        <time>2021-10-14T08:09:44Z</time>
      </trkpt>
      <trkpt lat="43.44118" lon="-0.35821">
        <ele>186.1</ele>
        <time>2021-10-14T08:09:46Z</time>
      </trkpt>
      <trkpt lat="43.44116" lon="-0.35819">
        <ele>186</ele>
        <time>2021-10-14T08:09:47Z</time>
      </trkpt>
      <trkpt lat="43.44109" lon="-0.35796">
        <ele>187</ele>
        <time>2021-10-14T08:09:52Z</time>
      </trkpt>
      <trkpt lat="43.44104" lon="-0.35785">
        <ele>187</ele>
        <time>2021-10-14T08:09:55Z</time>
      </trkpt>
      <trkpt lat="43.44101" lon="-0.35778">
        <ele>187.4</ele>
        <time>2021-10-14T08:09:57Z</time>
      </trkpt>
      <trkpt lat="43.44099" lon="-0.35775">
        <ele>187.2</ele>
        <time>2021-10-14T08:09:58Z</time>
      </trkpt>
      <trkpt lat="43.4409" lon="-0.35759">
        <ele>187.3</ele>
        <time>2021-10-14T08:10:03Z</time>
      </trkpt>
      <trkpt lat="43.44084" lon="-0.35746">
        <ele>186.9</ele>
        <time>2021-10-14T08:10:07Z</time>
      </trkpt>
      <trkpt lat="43.44082" lon="-0.35743">
        <ele>187</ele>
        <time>2021-10-14T08:10:08Z</time>
      </trkpt>
      <trkpt lat="43.4408" lon="-0.35741">
        <ele>187.4</ele>
        <time>2021-10-14T08:10:09Z</time>
      </trkpt>
      <trkpt lat="43.44076" lon="-0.35734">
        <ele>187</ele>
        <time>2021-10-14T08:10:11Z</time>
      </trkpt>
      <trkpt lat="43.44075" lon="-0.35734">
        <ele>187.2</ele>
        <time>2021-10-14T08:10:12Z</time>
      </trkpt>
      <trkpt lat="43.44065" lon="-0.35717">
        <ele>187</ele>
        <time>2021-10-14T08:10:16Z</time>
      </trkpt>
      <trkpt lat="43.44063" lon="-0.35713">
        <ele>187.3</ele>
        <time>2021-10-14T08:10:17Z</time>
      </trkpt>
      <trkpt lat="43.44056" lon="-0.35702">
        <ele>188.3</ele>
        <time>2021-10-14T08:10:20Z</time>
      </trkpt>
      <trkpt lat="43.44007" lon="-0.35647">
        <ele>188.2</ele>
        <time>2021-10-14T08:10:36Z</time>
      </trkpt>
      <trkpt lat="43.44008" lon="-0.35647">
        <ele>188.5</ele>
        <time>2021-10-14T08:10:37Z</time>
      </trkpt>
      <trkpt lat="43.43996" lon="-0.35634">
        <ele>187.9</ele>
        <time>2021-10-14T08:10:40Z</time>
      </trkpt>
      <trkpt lat="43.43955" lon="-0.35574">
        <ele>190.1</ele>
        <time>2021-10-14T08:10:55Z</time>
      </trkpt>
      <trkpt lat="43.43948" lon="-0.3556">
        <ele>190.2</ele>
        <time>2021-10-14T08:10:58Z</time>
      </trkpt>
      <trkpt lat="43.43942" lon="-0.35546">
        <ele>190.1</ele>
        <time>2021-10-14T08:11:01Z</time>
      </trkpt>
      <trkpt lat="43.43944" lon="-0.35542">
        <ele>191.4</ele>
        <time>2021-10-14T08:11:02Z</time>
      </trkpt>
      <trkpt lat="43.43941" lon="-0.35538">
        <ele>191.3</ele>
        <time>2021-10-14T08:11:03Z</time>
      </trkpt>
      <trkpt lat="43.43915" lon="-0.35503">
        <ele>192.4</ele>
        <time>2021-10-14T08:11:13Z</time>
      </trkpt>
      <trkpt lat="43.43873" lon="-0.35463">
        <ele>189</ele>
        <time>2021-10-14T08:11:26Z</time>
      </trkpt>
      <trkpt lat="43.43874" lon="-0.35461">
        <ele>189.3</ele>
        <time>2021-10-14T08:11:27Z</time>
      </trkpt>
      <trkpt lat="43.43872" lon="-0.35458">
        <ele>189.4</ele>
        <time>2021-10-14T08:11:28Z</time>
      </trkpt>
      <trkpt lat="43.43871" lon="-0.35455">
        <ele>189.1</ele>
        <time>2021-10-14T08:11:29Z</time>
      </trkpt>
      <trkpt lat="43.43872" lon="-0.35453">
        <ele>188.3</ele>
        <time>2021-10-14T08:11:30Z</time>
      </trkpt>
      <trkpt lat="43.43874" lon="-0.3545">
        <ele>188.1</ele>
        <time>2021-10-14T08:11:31Z</time>
      </trkpt>
      <trkpt lat="43.43876" lon="-0.35448">
        <ele>188.3</ele>
        <time>2021-10-14T08:11:33Z</time>
      </trkpt>
      <trkpt lat="43.43877" lon="-0.35447">
        <ele>188</ele>
        <time>2021-10-14T08:11:34Z</time>
      </trkpt>
      <trkpt lat="43.43878" lon="-0.35445">
        <ele>188.4</ele>
        <time>2021-10-14T08:11:35Z</time>
      </trkpt>
      <trkpt lat="43.43878" lon="-0.35443">
        <ele>188.2</ele>
        <time>2021-10-14T08:11:36Z</time>
      </trkpt>
      <trkpt lat="43.43878" lon="-0.35441">
        <ele>188.4</ele>
        <time>2021-10-14T08:11:37Z</time>
      </trkpt>
      <trkpt lat="43.43879" lon="-0.35438">
        <ele>188.2</ele>
        <time>2021-10-14T08:11:38Z</time>
      </trkpt>
      <trkpt lat="43.43879" lon="-0.35436">
        <ele>187.3</ele>
        <time>2021-10-14T08:11:39Z</time>
      </trkpt>
      <trkpt lat="43.43878" lon="-0.35429">
        <ele>187.2</ele>
        <time>2021-10-14T08:11:41Z</time>
      </trkpt>
      <trkpt lat="43.43877" lon="-0.35426">
        <ele>187.3</ele>
        <time>2021-10-14T08:11:42Z</time>
      </trkpt>
      <trkpt lat="43.43876" lon="-0.35423">
        <ele>187.2</ele>
        <time>2021-10-14T08:11:43Z</time>
      </trkpt>
      <trkpt lat="43.43875" lon="-0.35421">
        <ele>187.1</ele>
        <time>2021-10-14T08:11:44Z</time>
      </trkpt>
      <trkpt lat="43.43874" lon="-0.35416">
        <ele>186.2</ele>
        <time>2021-10-14T08:11:46Z</time>
      </trkpt>
      <trkpt lat="43.43873" lon="-0.35415">
        <ele>186.2</ele>
        <time>2021-10-14T08:11:47Z</time>
      </trkpt>
      <trkpt lat="43.43873" lon="-0.35415">
        <ele>186.5</ele>
        <time>2021-10-14T08:11:48Z</time>
      </trkpt>
      <trkpt lat="43.43873" lon="-0.35416">
        <ele>186</ele>
        <time>2021-10-14T08:11:49Z</time>
      </trkpt>
      <trkpt lat="43.43874" lon="-0.35416">
        <ele>186.2</ele>
        <time>2021-10-14T08:11:53Z</time>
      </trkpt>
      <trkpt lat="43.43874" lon="-0.35416">
        <ele>185.8</ele>
        <time>2021-10-14T08:11:54Z</time>
      </trkpt>
      <trkpt lat="43.43874" lon="-0.35416">
        <ele>186.3</ele>
        <time>2021-10-14T08:11:55Z</time>
      </trkpt>
      <trkpt lat="43.43874" lon="-0.35416">
        <ele>186.5</ele>
        <time>2021-10-14T08:13:33Z</time>
      </trkpt>
      <trkpt lat="43.43874" lon="-0.35416">
        <ele>186.2</ele>
        <time>2021-10-14T08:13:34Z</time>
      </trkpt>
      <trkpt lat="43.43874" lon="-0.35416">
        <ele>186.2</ele>
        <time>2021-10-14T08:13:35Z</time>
      </trkpt>
      <trkpt lat="43.43874" lon="-0.35416">
        <ele>186.5</ele>
        <time>2021-10-14T08:13:36Z</time>
      </trkpt>
      <trkpt lat="43.43874" lon="-0.35416">
        <ele>186.1</ele>
        <time>2021-10-14T08:13:37Z</time>
      </trkpt>
      <trkpt lat="43.43874" lon="-0.35416">
        <ele>186.3</ele>
        <time>2021-10-14T08:13:38Z</time>
      </trkpt>
      <trkpt lat="43.43874" lon="-0.35416">
        <ele>186.2</ele>
        <time>2021-10-14T08:13:59Z</time>
      </trkpt>
      <trkpt lat="43.43874" lon="-0.35415">
        <ele>186.4</ele>
        <time>2021-10-14T08:14:00Z</time>
      </trkpt>
      <trkpt lat="43.43874" lon="-0.35414">
        <ele>186.1</ele>
        <time>2021-10-14T08:14:01Z</time>
      </trkpt>
      <trkpt lat="43.43873" lon="-0.35412">
        <ele>187.1</ele>
        <time>2021-10-14T08:14:02Z</time>
      </trkpt>
      <trkpt lat="43.43871" lon="-0.35402">
        <ele>186</ele>
        <time>2021-10-14T08:14:07Z</time>
      </trkpt>
      <trkpt lat="43.4387" lon="-0.354">
        <ele>186.4</ele>
        <time>2021-10-14T08:14:08Z</time>
      </trkpt>
      <trkpt lat="43.4387" lon="-0.35398">
        <ele>186.2</ele>
        <time>2021-10-14T08:14:09Z</time>
      </trkpt>
      <trkpt lat="43.43869" lon="-0.35395">
        <ele>186.2</ele>
        <time>2021-10-14T08:14:10Z</time>
      </trkpt>
      <trkpt lat="43.43869" lon="-0.35393">
        <ele>186</ele>
        <time>2021-10-14T08:14:11Z</time>
      </trkpt>
      <trkpt lat="43.43869" lon="-0.35389">
        <ele>186.3</ele>
        <time>2021-10-14T08:14:12Z</time>
      </trkpt>
      <trkpt lat="43.43867" lon="-0.3538">
        <ele>185.8</ele>
        <time>2021-10-14T08:14:15Z</time>
      </trkpt>
      <trkpt lat="43.43866" lon="-0.35377">
        <ele>186.4</ele>
        <time>2021-10-14T08:14:16Z</time>
      </trkpt>
      <trkpt lat="43.43864" lon="-0.35369">
        <ele>185.2</ele>
        <time>2021-10-14T08:14:18Z</time>
      </trkpt>
      <trkpt lat="43.43859" lon="-0.35352">
        <ele>184.3</ele>
        <time>2021-10-14T08:14:22Z</time>
      </trkpt>
      <trkpt lat="43.43842" lon="-0.35314">
        <ele>184.7</ele>
        <time>2021-10-14T08:14:32Z</time>
      </trkpt>
      <trkpt lat="43.43824" lon="-0.35287">
        <ele>184.3</ele>
        <time>2021-10-14T08:14:41Z</time>
      </trkpt>
      <trkpt lat="43.43817" lon="-0.35271">
        <ele>185.2</ele>
        <time>2021-10-14T08:14:46Z</time>
      </trkpt>
      <trkpt lat="43.43815" lon="-0.35271">
        <ele>184.3</ele>
        <time>2021-10-14T08:14:47Z</time>
      </trkpt>
      <trkpt lat="43.43811" lon="-0.35252">
        <ele>184.6</ele>
        <time>2021-10-14T08:14:51Z</time>
      </trkpt>
      <trkpt lat="43.43809" lon="-0.35247">
        <ele>184.8</ele>
        <time>2021-10-14T08:14:52Z</time>
      </trkpt>
      <trkpt lat="43.43791" lon="-0.35213">
        <ele>183.9</ele>
        <time>2021-10-14T08:15:01Z</time>
      </trkpt>
      <trkpt lat="43.4377" lon="-0.35183">
        <ele>183</ele>
        <time>2021-10-14T08:15:10Z</time>
      </trkpt>
      <trkpt lat="43.43768" lon="-0.3518">
        <ele>182.4</ele>
        <time>2021-10-14T08:15:11Z</time>
      </trkpt>
      <trkpt lat="43.43769" lon="-0.35179">
        <ele>182</ele>
        <time>2021-10-14T08:15:12Z</time>
      </trkpt>
      <trkpt lat="43.43759" lon="-0.35158">
        <ele>181.6</ele>
        <time>2021-10-14T08:15:17Z</time>
      </trkpt>
      <trkpt lat="43.43757" lon="-0.35154">
        <ele>181.1</ele>
        <time>2021-10-14T08:15:18Z</time>
      </trkpt>
      <trkpt lat="43.43756" lon="-0.3515">
        <ele>181</ele>
        <time>2021-10-14T08:15:19Z</time>
      </trkpt>
      <trkpt lat="43.43738" lon="-0.35125">
        <ele>180.5</ele>
        <time>2021-10-14T08:15:27Z</time>
      </trkpt>
      <trkpt lat="43.43739" lon="-0.35124">
        <ele>180</ele>
        <time>2021-10-14T08:15:28Z</time>
      </trkpt>
      <trkpt lat="43.43725" lon="-0.3511">
        <ele>177.8</ele>
        <time>2021-10-14T08:15:33Z</time>
      </trkpt>
      <trkpt lat="43.43721" lon="-0.35104">
        <ele>178.1</ele>
        <time>2021-10-14T08:15:35Z</time>
      </trkpt>
      <trkpt lat="43.4372" lon="-0.35101">
        <ele>179.1</ele>
        <time>2021-10-14T08:15:36Z</time>
      </trkpt>
      <trkpt lat="43.43715" lon="-0.35081">
        <ele>182</ele>
        <time>2021-10-14T08:15:40Z</time>
      </trkpt>
      <trkpt lat="43.43712" lon="-0.35076">
        <ele>183.2</ele>
        <time>2021-10-14T08:15:41Z</time>
      </trkpt>
      <trkpt lat="43.4371" lon="-0.35072">
        <ele>183.1</ele>
        <time>2021-10-14T08:15:42Z</time>
      </trkpt>
      <trkpt lat="43.43707" lon="-0.35069">
        <ele>183.4</ele>
        <time>2021-10-14T08:15:43Z</time>
      </trkpt>
      <trkpt lat="43.43704" lon="-0.35068">
        <ele>183.1</ele>
        <time>2021-10-14T08:15:44Z</time>
      </trkpt>
      <trkpt lat="43.43702" lon="-0.35067">
        <ele>183.4</ele>
        <time>2021-10-14T08:15:45Z</time>
      </trkpt>
      <trkpt lat="43.437" lon="-0.35065">
        <ele>183</ele>
        <time>2021-10-14T08:15:46Z</time>
      </trkpt>
      <trkpt lat="43.43695" lon="-0.35062">
        <ele>183.3</ele>
        <time>2021-10-14T08:15:48Z</time>
      </trkpt>
      <trkpt lat="43.43692" lon="-0.3506">
        <ele>183.8</ele>
        <time>2021-10-14T08:15:49Z</time>
      </trkpt>
      <trkpt lat="43.43675" lon="-0.35047">
        <ele>185.1</ele>
        <time>2021-10-14T08:15:57Z</time>
      </trkpt>
      <trkpt lat="43.43673" lon="-0.35045">
        <ele>185.1</ele>
        <time>2021-10-14T08:15:58Z</time>
      </trkpt>
      <trkpt lat="43.43669" lon="-0.3504">
        <ele>184.6</ele>
        <time>2021-10-14T08:16:00Z</time>
      </trkpt>
      <trkpt lat="43.43667" lon="-0.35038">
        <ele>185.2</ele>
        <time>2021-10-14T08:16:01Z</time>
      </trkpt>
      <trkpt lat="43.43665" lon="-0.35037">
        <ele>185</ele>
        <time>2021-10-14T08:16:02Z</time>
      </trkpt>
      <trkpt lat="43.43662" lon="-0.35034">
        <ele>185.2</ele>
        <time>2021-10-14T08:16:03Z</time>
      </trkpt>
      <trkpt lat="43.43658" lon="-0.3503">
        <ele>185.9</ele>
        <time>2021-10-14T08:16:05Z</time>
      </trkpt>
      <trkpt lat="43.43656" lon="-0.35028">
        <ele>186.2</ele>
        <time>2021-10-14T08:16:06Z</time>
      </trkpt>
      <trkpt lat="43.43652" lon="-0.35021">
        <ele>186.5</ele>
        <time>2021-10-14T08:16:09Z</time>
      </trkpt>
      <trkpt lat="43.43651" lon="-0.35017">
        <ele>186.2</ele>
        <time>2021-10-14T08:16:10Z</time>
      </trkpt>
      <trkpt lat="43.43638" lon="-0.34959">
        <ele>184.7</ele>
        <time>2021-10-14T08:16:21Z</time>
      </trkpt>
      <trkpt lat="43.43636" lon="-0.34954">
        <ele>184</ele>
        <time>2021-10-14T08:16:22Z</time>
      </trkpt>
      <trkpt lat="43.43628" lon="-0.34942">
        <ele>185.5</ele>
        <time>2021-10-14T08:16:25Z</time>
      </trkpt>
      <trkpt lat="43.43626" lon="-0.34937">
        <ele>185</ele>
        <time>2021-10-14T08:16:26Z</time>
      </trkpt>
      <trkpt lat="43.43622" lon="-0.34934">
        <ele>185.6</ele>
        <time>2021-10-14T08:16:27Z</time>
      </trkpt>
      <trkpt lat="43.4362" lon="-0.34929">
        <ele>185.2</ele>
        <time>2021-10-14T08:16:28Z</time>
      </trkpt>
      <trkpt lat="43.43616" lon="-0.34919">
        <ele>186.2</ele>
        <time>2021-10-14T08:16:30Z</time>
      </trkpt>
      <trkpt lat="43.43609" lon="-0.34904">
        <ele>185.1</ele>
        <time>2021-10-14T08:16:33Z</time>
      </trkpt>
      <trkpt lat="43.43584" lon="-0.34862">
        <ele>186.2</ele>
        <time>2021-10-14T08:16:42Z</time>
      </trkpt>
      <trkpt lat="43.43569" lon="-0.34841">
        <ele>186.4</ele>
        <time>2021-10-14T08:16:46Z</time>
      </trkpt>
      <trkpt lat="43.43565" lon="-0.34838">
        <ele>186.1</ele>
        <time>2021-10-14T08:16:47Z</time>
      </trkpt>
      <trkpt lat="43.43553" lon="-0.34832">
        <ele>186.1</ele>
        <time>2021-10-14T08:16:51Z</time>
      </trkpt>
      <trkpt lat="43.43553" lon="-0.34833">
        <ele>186.1</ele>
        <time>2021-10-14T08:16:52Z</time>
      </trkpt>
      <trkpt lat="43.43537" lon="-0.34825">
        <ele>186.4</ele>
        <time>2021-10-14T08:16:57Z</time>
      </trkpt>
      <trkpt lat="43.43534" lon="-0.34824">
        <ele>187</ele>
        <time>2021-10-14T08:16:58Z</time>
      </trkpt>
      <trkpt lat="43.43526" lon="-0.3482">
        <ele>187.2</ele>
        <time>2021-10-14T08:17:00Z</time>
      </trkpt>
      <trkpt lat="43.43522" lon="-0.34818">
        <ele>187.3</ele>
        <time>2021-10-14T08:17:01Z</time>
      </trkpt>
      <trkpt lat="43.43519" lon="-0.34815">
        <ele>187.2</ele>
        <time>2021-10-14T08:17:02Z</time>
      </trkpt>
      <trkpt lat="43.43516" lon="-0.34812">
        <ele>187.5</ele>
        <time>2021-10-14T08:17:03Z</time>
      </trkpt>
      <trkpt lat="43.43513" lon="-0.34809">
        <ele>187.3</ele>
        <time>2021-10-14T08:17:04Z</time>
      </trkpt>
      <trkpt lat="43.43511" lon="-0.34805">
        <ele>187.3</ele>
        <time>2021-10-14T08:17:05Z</time>
      </trkpt>
      <trkpt lat="43.4351" lon="-0.34801">
        <ele>187.5</ele>
        <time>2021-10-14T08:17:06Z</time>
      </trkpt>
      <trkpt lat="43.43508" lon="-0.34796">
        <ele>186.1</ele>
        <time>2021-10-14T08:17:07Z</time>
      </trkpt>
      <trkpt lat="43.43505" lon="-0.34792">
        <ele>186</ele>
        <time>2021-10-14T08:17:08Z</time>
      </trkpt>
      <trkpt lat="43.43498" lon="-0.34778">
        <ele>184.4</ele>
        <time>2021-10-14T08:17:11Z</time>
      </trkpt>
      <trkpt lat="43.43494" lon="-0.34774">
        <ele>184.1</ele>
        <time>2021-10-14T08:17:12Z</time>
      </trkpt>
      <trkpt lat="43.43489" lon="-0.34771">
        <ele>183.7</ele>
        <time>2021-10-14T08:17:13Z</time>
      </trkpt>
      <trkpt lat="43.43484" lon="-0.34769">
        <ele>184.3</ele>
        <time>2021-10-14T08:17:14Z</time>
      </trkpt>
      <trkpt lat="43.4346" lon="-0.34766">
        <ele>184</ele>
        <time>2021-10-14T08:17:21Z</time>
      </trkpt>
      <trkpt lat="43.43437" lon="-0.34769">
        <ele>182.2</ele>
        <time>2021-10-14T08:17:27Z</time>
      </trkpt>
      <trkpt lat="43.4343" lon="-0.34771">
        <ele>182.2</ele>
        <time>2021-10-14T08:17:29Z</time>
      </trkpt>
      <trkpt lat="43.4342" lon="-0.34772">
        <ele>181.9</ele>
        <time>2021-10-14T08:17:32Z</time>
      </trkpt>
      <trkpt lat="43.43418" lon="-0.3477">
        <ele>182.3</ele>
        <time>2021-10-14T08:17:33Z</time>
      </trkpt>
      <trkpt lat="43.43416" lon="-0.34768">
        <ele>182.4</ele>
        <time>2021-10-14T08:17:34Z</time>
      </trkpt>
      <trkpt lat="43.43415" lon="-0.34766">
        <ele>182.1</ele>
        <time>2021-10-14T08:17:35Z</time>
      </trkpt>
      <trkpt lat="43.43414" lon="-0.34766">
        <ele>182</ele>
        <time>2021-10-14T08:17:36Z</time>
      </trkpt>
      <trkpt lat="43.43412" lon="-0.34766">
        <ele>182.2</ele>
        <time>2021-10-14T08:17:37Z</time>
      </trkpt>
      <trkpt lat="43.43409" lon="-0.34765">
        <ele>183.5</ele>
        <time>2021-10-14T08:17:38Z</time>
      </trkpt>
      <trkpt lat="43.43407" lon="-0.34763">
        <ele>183</ele>
        <time>2021-10-14T08:17:39Z</time>
      </trkpt>
      <trkpt lat="43.43406" lon="-0.34759">
        <ele>183</ele>
        <time>2021-10-14T08:17:40Z</time>
      </trkpt>
      <trkpt lat="43.43405" lon="-0.34755">
        <ele>183.3</ele>
        <time>2021-10-14T08:17:41Z</time>
      </trkpt>
      <trkpt lat="43.43404" lon="-0.34751">
        <ele>184.6</ele>
        <time>2021-10-14T08:17:42Z</time>
      </trkpt>
      <trkpt lat="43.43404" lon="-0.34743">
        <ele>184.4</ele>
        <time>2021-10-14T08:17:44Z</time>
      </trkpt>
      <trkpt lat="43.43409" lon="-0.34686">
        <ele>182</ele>
        <time>2021-10-14T08:17:55Z</time>
      </trkpt>
      <trkpt lat="43.43413" lon="-0.3466">
        <ele>182.4</ele>
        <time>2021-10-14T08:17:59Z</time>
      </trkpt>
      <trkpt lat="43.43419" lon="-0.34631">
        <ele>182.2</ele>
        <time>2021-10-14T08:18:04Z</time>
      </trkpt>
      <trkpt lat="43.43423" lon="-0.34595">
        <ele>182.2</ele>
        <time>2021-10-14T08:18:10Z</time>
      </trkpt>
      <trkpt lat="43.43423" lon="-0.34589">
        <ele>181.8</ele>
        <time>2021-10-14T08:18:11Z</time>
      </trkpt>
      <trkpt lat="43.43423" lon="-0.34582">
        <ele>182</ele>
        <time>2021-10-14T08:18:12Z</time>
      </trkpt>
      <trkpt lat="43.43418" lon="-0.34564">
        <ele>181.1</ele>
        <time>2021-10-14T08:18:15Z</time>
      </trkpt>
      <trkpt lat="43.43418" lon="-0.34559">
        <ele>181.4</ele>
        <time>2021-10-14T08:18:16Z</time>
      </trkpt>
      <trkpt lat="43.43419" lon="-0.34554">
        <ele>181.8</ele>
        <time>2021-10-14T08:18:17Z</time>
      </trkpt>
      <trkpt lat="43.43422" lon="-0.34551">
        <ele>182.2</ele>
        <time>2021-10-14T08:18:18Z</time>
      </trkpt>
      <trkpt lat="43.43426" lon="-0.34548">
        <ele>182.4</ele>
        <time>2021-10-14T08:18:19Z</time>
      </trkpt>
      <trkpt lat="43.43434" lon="-0.34545">
        <ele>183.2</ele>
        <time>2021-10-14T08:18:23Z</time>
      </trkpt>
      <trkpt lat="43.43434" lon="-0.34545">
        <ele>183.2</ele>
        <time>2021-10-14T08:18:24Z</time>
      </trkpt>
      <trkpt lat="43.43432" lon="-0.34545">
        <ele>183.3</ele>
        <time>2021-10-14T08:18:29Z</time>
      </trkpt>
      <trkpt lat="43.43432" lon="-0.34545">
        <ele>183</ele>
        <time>2021-10-14T08:18:30Z</time>
      </trkpt>
      <trkpt lat="43.43432" lon="-0.34545">
        <ele>183.1</ele>
        <time>2021-10-14T08:18:31Z</time>
      </trkpt>
      <trkpt lat="43.43432" lon="-0.34545">
        <ele>183</ele>
        <time>2021-10-14T08:19:04Z</time>
      </trkpt>
      <trkpt lat="43.43432" lon="-0.34545">
        <ele>183.9</ele>
        <time>2021-10-14T08:19:05Z</time>
      </trkpt>
      <trkpt lat="43.43433" lon="-0.34543">
        <ele>184.2</ele>
        <time>2021-10-14T08:19:07Z</time>
      </trkpt>
      <trkpt lat="43.43433" lon="-0.34543">
        <ele>183.9</ele>
        <time>2021-10-14T08:19:08Z</time>
      </trkpt>
      <trkpt lat="43.43433" lon="-0.34543">
        <ele>184.4</ele>
        <time>2021-10-14T08:19:09Z</time>
      </trkpt>
      <trkpt lat="43.43433" lon="-0.34542">
        <ele>184</ele>
        <time>2021-10-14T08:19:11Z</time>
      </trkpt>
      <trkpt lat="43.43433" lon="-0.34542">
        <ele>184.3</ele>
        <time>2021-10-14T08:19:12Z</time>
      </trkpt>
      <trkpt lat="43.43432" lon="-0.34542">
        <ele>184.2</ele>
        <time>2021-10-14T08:19:14Z</time>
      </trkpt>
      <trkpt lat="43.43432" lon="-0.34542">
        <ele>184.4</ele>
        <time>2021-10-14T08:19:15Z</time>
      </trkpt>
      <trkpt lat="43.43432" lon="-0.34542">
        <ele>184.3</ele>
        <time>2021-10-14T08:19:16Z</time>
      </trkpt>
      <trkpt lat="43.43432" lon="-0.34542">
        <ele>184.2</ele>
        <time>2021-10-14T08:19:17Z</time>
      </trkpt>
      <trkpt lat="43.43434" lon="-0.34542">
        <ele>183.8</ele>
        <time>2021-10-14T08:19:19Z</time>
      </trkpt>
      <trkpt lat="43.43434" lon="-0.34542">
        <ele>184.4</ele>
        <time>2021-10-14T08:19:20Z</time>
      </trkpt>
      <trkpt lat="43.43435" lon="-0.34542">
        <ele>184.4</ele>
        <time>2021-10-14T08:19:23Z</time>
      </trkpt>
      <trkpt lat="43.43435" lon="-0.34542">
        <ele>184.3</ele>
        <time>2021-10-14T08:19:24Z</time>
      </trkpt>
      <trkpt lat="43.43435" lon="-0.34542">
        <ele>184.3</ele>
        <time>2021-10-14T08:19:31Z</time>
      </trkpt>
      <trkpt lat="43.43435" lon="-0.34542">
        <ele>184</ele>
        <time>2021-10-14T08:19:32Z</time>
      </trkpt>
      <trkpt lat="43.4344" lon="-0.34544">
        <ele>184</ele>
        <time>2021-10-14T08:19:36Z</time>
      </trkpt>
      <trkpt lat="43.43442" lon="-0.34544">
        <ele>185.5</ele>
        <time>2021-10-14T08:19:37Z</time>
      </trkpt>
      <trkpt lat="43.43444" lon="-0.34543">
        <ele>185</ele>
        <time>2021-10-14T08:19:38Z</time>
      </trkpt>
      <trkpt lat="43.43448" lon="-0.3454">
        <ele>185.1</ele>
        <time>2021-10-14T08:19:40Z</time>
      </trkpt>
      <trkpt lat="43.43448" lon="-0.34538">
        <ele>185.1</ele>
        <time>2021-10-14T08:19:41Z</time>
      </trkpt>
      <trkpt lat="43.4345" lon="-0.34537">
        <ele>185.3</ele>
        <time>2021-10-14T08:19:42Z</time>
      </trkpt>
      <trkpt lat="43.43485" lon="-0.34529">
        <ele>185</ele>
        <time>2021-10-14T08:19:55Z</time>
      </trkpt>
      <trkpt lat="43.43488" lon="-0.34527">
        <ele>185.2</ele>
        <time>2021-10-14T08:19:56Z</time>
      </trkpt>
      <trkpt lat="43.43491" lon="-0.34526">
        <ele>185.3</ele>
        <time>2021-10-14T08:19:57Z</time>
      </trkpt>
      <trkpt lat="43.43494" lon="-0.34523">
        <ele>185.1</ele>
        <time>2021-10-14T08:19:58Z</time>
      </trkpt>
      <trkpt lat="43.435" lon="-0.34517">
        <ele>184.2</ele>
        <time>2021-10-14T08:20:00Z</time>
      </trkpt>
      <trkpt lat="43.43503" lon="-0.34514">
        <ele>184</ele>
        <time>2021-10-14T08:20:01Z</time>
      </trkpt>
      <trkpt lat="43.43525" lon="-0.34477">
        <ele>184.4</ele>
        <time>2021-10-14T08:20:11Z</time>
      </trkpt>
      <trkpt lat="43.43524" lon="-0.34476">
        <ele>184.1</ele>
        <time>2021-10-14T08:20:12Z</time>
      </trkpt>
      <trkpt lat="43.43529" lon="-0.3447">
        <ele>185</ele>
        <time>2021-10-14T08:20:14Z</time>
      </trkpt>
      <trkpt lat="43.43531" lon="-0.34468">
        <ele>185.2</ele>
        <time>2021-10-14T08:20:15Z</time>
      </trkpt>
      <trkpt lat="43.43531" lon="-0.34466">
        <ele>185.3</ele>
        <time>2021-10-14T08:20:16Z</time>
      </trkpt>
      <trkpt lat="43.43533" lon="-0.34468">
        <ele>184.2</ele>
        <time>2021-10-14T08:20:31Z</time>
      </trkpt>
      <trkpt lat="43.43533" lon="-0.34468">
        <ele>184.3</ele>
        <time>2021-10-14T08:20:32Z</time>
      </trkpt>
      <trkpt lat="43.43533" lon="-0.34468">
        <ele>184</ele>
        <time>2021-10-14T08:20:33Z</time>
      </trkpt>
      <trkpt lat="43.43533" lon="-0.34468">
        <ele>184.1</ele>
        <time>2021-10-14T08:20:35Z</time>
      </trkpt>
      <trkpt lat="43.43533" lon="-0.34468">
        <ele>184.5</ele>
        <time>2021-10-14T08:23:28Z</time>
      </trkpt>
      <trkpt lat="43.43534" lon="-0.34467">
        <ele>184.4</ele>
        <time>2021-10-14T08:23:29Z</time>
      </trkpt>
      <trkpt lat="43.43534" lon="-0.34466">
        <ele>184.4</ele>
        <time>2021-10-14T08:23:30Z</time>
      </trkpt>
      <trkpt lat="43.43534" lon="-0.34465">
        <ele>184.1</ele>
        <time>2021-10-14T08:23:32Z</time>
      </trkpt>
      <trkpt lat="43.43535" lon="-0.34465">
        <ele>184.7</ele>
        <time>2021-10-14T08:23:33Z</time>
      </trkpt>
      <trkpt lat="43.43535" lon="-0.34465">
        <ele>184.5</ele>
        <time>2021-10-14T08:23:34Z</time>
      </trkpt>
      <trkpt lat="43.43535" lon="-0.34465">
        <ele>183.9</ele>
        <time>2021-10-14T08:23:35Z</time>
      </trkpt>
      <trkpt lat="43.43535" lon="-0.34465">
        <ele>183.7</ele>
        <time>2021-10-14T08:23:36Z</time>
      </trkpt>
      <trkpt lat="43.43535" lon="-0.34466">
        <ele>183.9</ele>
        <time>2021-10-14T08:23:37Z</time>
      </trkpt>
      <trkpt lat="43.43535" lon="-0.34466">
        <ele>184</ele>
        <time>2021-10-14T08:23:38Z</time>
      </trkpt>
      <trkpt lat="43.43535" lon="-0.34466">
        <ele>184.3</ele>
        <time>2021-10-14T08:23:41Z</time>
      </trkpt>
      <trkpt lat="43.43535" lon="-0.34466">
        <ele>183.9</ele>
        <time>2021-10-14T08:24:05Z</time>
      </trkpt>
      <trkpt lat="43.43535" lon="-0.34467">
        <ele>182.5</ele>
        <time>2021-10-14T08:24:07Z</time>
      </trkpt>
      <trkpt lat="43.43535" lon="-0.34467">
        <ele>183.4</ele>
        <time>2021-10-14T08:24:08Z</time>
      </trkpt>
      <trkpt lat="43.43535" lon="-0.34467">
        <ele>183.1</ele>
        <time>2021-10-14T08:24:09Z</time>
      </trkpt>
      <trkpt lat="43.43535" lon="-0.34467">
        <ele>183.6</ele>
        <time>2021-10-14T08:24:10Z</time>
      </trkpt>
      <trkpt lat="43.43535" lon="-0.34467">
        <ele>183.2</ele>
        <time>2021-10-14T08:24:11Z</time>
      </trkpt>
      <trkpt lat="43.43535" lon="-0.34467">
        <ele>183</ele>
        <time>2021-10-14T08:24:14Z</time>
      </trkpt>
      <trkpt lat="43.43535" lon="-0.34467">
        <ele>183.7</ele>
        <time>2021-10-14T08:25:00Z</time>
      </trkpt>
      <trkpt lat="43.43535" lon="-0.34467">
        <ele>184.8</ele>
        <time>2021-10-14T08:25:01Z</time>
      </trkpt>
      <trkpt lat="43.43535" lon="-0.34466">
        <ele>184.9</ele>
        <time>2021-10-14T08:25:02Z</time>
      </trkpt>
      <trkpt lat="43.43536" lon="-0.34463">
        <ele>185</ele>
        <time>2021-10-14T08:25:03Z</time>
      </trkpt>
      <trkpt lat="43.43551" lon="-0.34442">
        <ele>187.2</ele>
        <time>2021-10-14T08:25:11Z</time>
      </trkpt>
      <trkpt lat="43.43553" lon="-0.3444">
        <ele>188.4</ele>
        <time>2021-10-14T08:25:12Z</time>
      </trkpt>
      <trkpt lat="43.43556" lon="-0.34439">
        <ele>188.6</ele>
        <time>2021-10-14T08:25:13Z</time>
      </trkpt>
      <trkpt lat="43.43558" lon="-0.34439">
        <ele>188.4</ele>
        <time>2021-10-14T08:25:14Z</time>
      </trkpt>
      <trkpt lat="43.43561" lon="-0.3444">
        <ele>188.6</ele>
        <time>2021-10-14T08:25:15Z</time>
      </trkpt>
      <trkpt lat="43.43569" lon="-0.34446">
        <ele>187</ele>
        <time>2021-10-14T08:25:19Z</time>
      </trkpt>
      <trkpt lat="43.43621" lon="-0.3452">
        <ele>178</ele>
        <time>2021-10-14T08:25:36Z</time>
      </trkpt>
      <trkpt lat="43.43632" lon="-0.34533">
        <ele>177.4</ele>
        <time>2021-10-14T08:25:39Z</time>
      </trkpt>
      <trkpt lat="43.4364" lon="-0.34543">
        <ele>175.9</ele>
        <time>2021-10-14T08:25:41Z</time>
      </trkpt>
      <trkpt lat="43.43659" lon="-0.34574">
        <ele>178.3</ele>
        <time>2021-10-14T08:25:47Z</time>
      </trkpt>
      <trkpt lat="43.43662" lon="-0.34576">
        <ele>177.7</ele>
        <time>2021-10-14T08:25:48Z</time>
      </trkpt>
      <trkpt lat="43.43668" lon="-0.34581">
        <ele>178.4</ele>
        <time>2021-10-14T08:25:50Z</time>
      </trkpt>
      <trkpt lat="43.43671" lon="-0.34583">
        <ele>178.1</ele>
        <time>2021-10-14T08:25:51Z</time>
      </trkpt>
      <trkpt lat="43.43688" lon="-0.34602">
        <ele>177.1</ele>
        <time>2021-10-14T08:25:56Z</time>
      </trkpt>
      <trkpt lat="43.43693" lon="-0.34606">
        <ele>177</ele>
        <time>2021-10-14T08:25:57Z</time>
      </trkpt>
      <trkpt lat="43.43698" lon="-0.34609">
        <ele>176.9</ele>
        <time>2021-10-14T08:25:58Z</time>
      </trkpt>
      <trkpt lat="43.43703" lon="-0.34613">
        <ele>177.3</ele>
        <time>2021-10-14T08:25:59Z</time>
      </trkpt>
      <trkpt lat="43.43707" lon="-0.34617">
        <ele>176.3</ele>
        <time>2021-10-14T08:26:00Z</time>
      </trkpt>
      <trkpt lat="43.43712" lon="-0.34622">
        <ele>176.1</ele>
        <time>2021-10-14T08:26:01Z</time>
      </trkpt>
      <trkpt lat="43.43719" lon="-0.34628">
        <ele>176</ele>
        <time>2021-10-14T08:26:03Z</time>
      </trkpt>
      <trkpt lat="43.43719" lon="-0.34628">
        <ele>176.1</ele>
        <time>2021-10-14T08:26:04Z</time>
      </trkpt>
      <trkpt lat="43.4374" lon="-0.34641">
        <ele>176.4</ele>
        <time>2021-10-14T08:26:09Z</time>
      </trkpt>
      <trkpt lat="43.43744" lon="-0.34645">
        <ele>176.4</ele>
        <time>2021-10-14T08:26:10Z</time>
      </trkpt>
      <trkpt lat="43.43747" lon="-0.3465">
        <ele>176.3</ele>
        <time>2021-10-14T08:26:11Z</time>
      </trkpt>
      <trkpt lat="43.43755" lon="-0.34662">
        <ele>176.4</ele>
        <time>2021-10-14T08:26:13Z</time>
      </trkpt>
      <trkpt lat="43.43792" lon="-0.3471">
        <ele>173.1</ele>
        <time>2021-10-14T08:26:22Z</time>
      </trkpt>
      <trkpt lat="43.43796" lon="-0.34713">
        <ele>173</ele>
        <time>2021-10-14T08:26:23Z</time>
      </trkpt>
      <trkpt lat="43.43796" lon="-0.34713">
        <ele>173.2</ele>
        <time>2021-10-14T08:26:24Z</time>
      </trkpt>
      <trkpt lat="43.43798" lon="-0.34715">
        <ele>173.4</ele>
        <time>2021-10-14T08:26:25Z</time>
      </trkpt>
      <trkpt lat="43.4382" lon="-0.34739">
        <ele>172.2</ele>
        <time>2021-10-14T08:26:30Z</time>
      </trkpt>
      <trkpt lat="43.43837" lon="-0.34764">
        <ele>171.6</ele>
        <time>2021-10-14T08:26:34Z</time>
      </trkpt>
      <trkpt lat="43.43842" lon="-0.34775">
        <ele>172.1</ele>
        <time>2021-10-14T08:26:36Z</time>
      </trkpt>
      <trkpt lat="43.43846" lon="-0.34779">
        <ele>172.2</ele>
        <time>2021-10-14T08:26:37Z</time>
      </trkpt>
      <trkpt lat="43.4385" lon="-0.34783">
        <ele>172.3</ele>
        <time>2021-10-14T08:26:38Z</time>
      </trkpt>
      <trkpt lat="43.43854" lon="-0.34786">
        <ele>172.1</ele>
        <time>2021-10-14T08:26:39Z</time>
      </trkpt>
      <trkpt lat="43.43868" lon="-0.34792">
        <ele>172.1</ele>
        <time>2021-10-14T08:26:42Z</time>
      </trkpt>
      <trkpt lat="43.43872" lon="-0.34795">
        <ele>173.5</ele>
        <time>2021-10-14T08:26:43Z</time>
      </trkpt>
      <trkpt lat="43.43876" lon="-0.348">
        <ele>173.2</ele>
        <time>2021-10-14T08:26:44Z</time>
      </trkpt>
      <trkpt lat="43.43881" lon="-0.34809">
        <ele>173.5</ele>
        <time>2021-10-14T08:26:46Z</time>
      </trkpt>
      <trkpt lat="43.43885" lon="-0.34812">
        <ele>173.2</ele>
        <time>2021-10-14T08:26:47Z</time>
      </trkpt>
      <trkpt lat="43.43905" lon="-0.34825">
        <ele>174.2</ele>
        <time>2021-10-14T08:26:52Z</time>
      </trkpt>
      <trkpt lat="43.43909" lon="-0.34829">
        <ele>174.3</ele>
        <time>2021-10-14T08:26:53Z</time>
      </trkpt>
      <trkpt lat="43.43913" lon="-0.34835">
        <ele>173.3</ele>
        <time>2021-10-14T08:26:54Z</time>
      </trkpt>
      <trkpt lat="43.43916" lon="-0.3484">
        <ele>173.1</ele>
        <time>2021-10-14T08:26:55Z</time>
      </trkpt>
      <trkpt lat="43.43917" lon="-0.34845">
        <ele>173.1</ele>
        <time>2021-10-14T08:26:56Z</time>
      </trkpt>
      <trkpt lat="43.43927" lon="-0.34876">
        <ele>173.2</ele>
        <time>2021-10-14T08:27:01Z</time>
      </trkpt>
      <trkpt lat="43.43933" lon="-0.34891">
        <ele>173.3</ele>
        <time>2021-10-14T08:27:04Z</time>
      </trkpt>
      <trkpt lat="43.43938" lon="-0.3491">
        <ele>171.2</ele>
        <time>2021-10-14T08:27:08Z</time>
      </trkpt>
      <trkpt lat="43.43939" lon="-0.34916">
        <ele>171.3</ele>
        <time>2021-10-14T08:27:09Z</time>
      </trkpt>
      <trkpt lat="43.43942" lon="-0.34922">
        <ele>171.2</ele>
        <time>2021-10-14T08:27:10Z</time>
      </trkpt>
      <trkpt lat="43.43962" lon="-0.34953">
        <ele>171.3</ele>
        <time>2021-10-14T08:27:15Z</time>
      </trkpt>
      <trkpt lat="43.43966" lon="-0.34958">
        <ele>171.5</ele>
        <time>2021-10-14T08:27:16Z</time>
      </trkpt>
      <trkpt lat="43.43971" lon="-0.34963">
        <ele>171.5</ele>
        <time>2021-10-14T08:27:17Z</time>
      </trkpt>
      <trkpt lat="43.43976" lon="-0.34966">
        <ele>171.2</ele>
        <time>2021-10-14T08:27:18Z</time>
      </trkpt>
      <trkpt lat="43.43986" lon="-0.3497">
        <ele>172.2</ele>
        <time>2021-10-14T08:27:20Z</time>
      </trkpt>
      <trkpt lat="43.43997" lon="-0.34978">
        <ele>171</ele>
        <time>2021-10-14T08:27:23Z</time>
      </trkpt>
      <trkpt lat="43.44006" lon="-0.34981">
        <ele>171.4</ele>
        <time>2021-10-14T08:27:25Z</time>
      </trkpt>
      <trkpt lat="43.44011" lon="-0.34982">
        <ele>170.2</ele>
        <time>2021-10-14T08:27:26Z</time>
      </trkpt>
      <trkpt lat="43.44015" lon="-0.34982">
        <ele>171.2</ele>
        <time>2021-10-14T08:27:27Z</time>
      </trkpt>
      <trkpt lat="43.44019" lon="-0.34982">
        <ele>171.2</ele>
        <time>2021-10-14T08:27:28Z</time>
      </trkpt>
      <trkpt lat="43.4403" lon="-0.34987">
        <ele>170.4</ele>
        <time>2021-10-14T08:27:31Z</time>
      </trkpt>
      <trkpt lat="43.44034" lon="-0.34989">
        <ele>170.3</ele>
        <time>2021-10-14T08:27:32Z</time>
      </trkpt>
      <trkpt lat="43.44083" lon="-0.35037">
        <ele>172.9</ele>
        <time>2021-10-14T08:27:45Z</time>
      </trkpt>
      <trkpt lat="43.44088" lon="-0.35045">
        <ele>172.3</ele>
        <time>2021-10-14T08:27:47Z</time>
      </trkpt>
      <trkpt lat="43.44091" lon="-0.35047">
        <ele>172.5</ele>
        <time>2021-10-14T08:27:48Z</time>
      </trkpt>
      <trkpt lat="43.44097" lon="-0.3505">
        <ele>171.5</ele>
        <time>2021-10-14T08:27:50Z</time>
      </trkpt>
      <trkpt lat="43.44099" lon="-0.3505">
        <ele>171.4</ele>
        <time>2021-10-14T08:27:51Z</time>
      </trkpt>
      <trkpt lat="43.44106" lon="-0.35049">
        <ele>171.2</ele>
        <time>2021-10-14T08:27:53Z</time>
      </trkpt>
      <trkpt lat="43.44112" lon="-0.3505">
        <ele>172.5</ele>
        <time>2021-10-14T08:27:55Z</time>
      </trkpt>
      <trkpt lat="43.44117" lon="-0.35052">
        <ele>172.1</ele>
        <time>2021-10-14T08:27:57Z</time>
      </trkpt>
      <trkpt lat="43.44117" lon="-0.35052">
        <ele>171.9</ele>
        <time>2021-10-14T08:27:58Z</time>
      </trkpt>
      <trkpt lat="43.44185" lon="-0.35092">
        <ele>167.7</ele>
        <time>2021-10-14T08:28:18Z</time>
      </trkpt>
      <trkpt lat="43.44189" lon="-0.35095">
        <ele>167.9</ele>
        <time>2021-10-14T08:28:19Z</time>
      </trkpt>
      <trkpt lat="43.44198" lon="-0.35108">
        <ele>168.4</ele>
        <time>2021-10-14T08:28:22Z</time>
      </trkpt>
      <trkpt lat="43.44203" lon="-0.35118">
        <ele>168.2</ele>
        <time>2021-10-14T08:28:24Z</time>
      </trkpt>
      <trkpt lat="43.4421" lon="-0.35134">
        <ele>168</ele>
        <time>2021-10-14T08:28:27Z</time>
      </trkpt>
      <trkpt lat="43.44219" lon="-0.35164">
        <ele>168.1</ele>
        <time>2021-10-14T08:28:32Z</time>
      </trkpt>
      <trkpt lat="43.44219" lon="-0.35175">
        <ele>169.5</ele>
        <time>2021-10-14T08:28:34Z</time>
      </trkpt>
      <trkpt lat="43.44221" lon="-0.3518">
        <ele>169.1</ele>
        <time>2021-10-14T08:28:35Z</time>
      </trkpt>
      <trkpt lat="43.44225" lon="-0.35186">
        <ele>169</ele>
        <time>2021-10-14T08:28:36Z</time>
      </trkpt>
      <trkpt lat="43.4424" lon="-0.35217">
        <ele>170.2</ele>
        <time>2021-10-14T08:28:49Z</time>
      </trkpt>
      <trkpt lat="43.4425" lon="-0.3523">
        <ele>172.4</ele>
        <time>2021-10-14T08:28:56Z</time>
      </trkpt>
      <trkpt lat="43.44251" lon="-0.35231">
        <ele>171.9</ele>
        <time>2021-10-14T08:28:57Z</time>
      </trkpt>
      <trkpt lat="43.44251" lon="-0.35233">
        <ele>172.1</ele>
        <time>2021-10-14T08:28:58Z</time>
      </trkpt>
      <trkpt lat="43.44252" lon="-0.35234">
        <ele>173.1</ele>
        <time>2021-10-14T08:28:59Z</time>
      </trkpt>
      <trkpt lat="43.44254" lon="-0.35235">
        <ele>172.8</ele>
        <time>2021-10-14T08:29:00Z</time>
      </trkpt>
      <trkpt lat="43.44257" lon="-0.35235">
        <ele>173.7</ele>
        <time>2021-10-14T08:29:01Z</time>
      </trkpt>
      <trkpt lat="43.44259" lon="-0.35236">
        <ele>173.5</ele>
        <time>2021-10-14T08:29:02Z</time>
      </trkpt>
      <trkpt lat="43.4426" lon="-0.35237">
        <ele>174.7</ele>
        <time>2021-10-14T08:29:03Z</time>
      </trkpt>
      <trkpt lat="43.44262" lon="-0.35238">
        <ele>174</ele>
        <time>2021-10-14T08:29:04Z</time>
      </trkpt>
      <trkpt lat="43.44264" lon="-0.3524">
        <ele>174</ele>
        <time>2021-10-14T08:29:06Z</time>
      </trkpt>
      <trkpt lat="43.44264" lon="-0.3524">
        <ele>174</ele>
        <time>2021-10-14T08:29:07Z</time>
      </trkpt>
      <trkpt lat="43.44264" lon="-0.3524">
        <ele>175.2</ele>
        <time>2021-10-14T08:29:08Z</time>
      </trkpt>
      <trkpt lat="43.44267" lon="-0.35242">
        <ele>175.7</ele>
        <time>2021-10-14T08:29:10Z</time>
      </trkpt>
      <trkpt lat="43.44271" lon="-0.35246">
        <ele>175.6</ele>
        <time>2021-10-14T08:29:13Z</time>
      </trkpt>
      <trkpt lat="43.44272" lon="-0.35247">
        <ele>176.7</ele>
        <time>2021-10-14T08:29:14Z</time>
      </trkpt>
      <trkpt lat="43.44277" lon="-0.3525">
        <ele>176.5</ele>
        <time>2021-10-14T08:29:17Z</time>
      </trkpt>
      <trkpt lat="43.44279" lon="-0.35251">
        <ele>175.8</ele>
        <time>2021-10-14T08:29:18Z</time>
      </trkpt>
      <trkpt lat="43.44283" lon="-0.35256">
        <ele>176.2</ele>
        <time>2021-10-14T08:29:21Z</time>
      </trkpt>
      <trkpt lat="43.44282" lon="-0.35257">
        <ele>177.5</ele>
        <time>2021-10-14T08:29:22Z</time>
      </trkpt>
      <trkpt lat="43.4429" lon="-0.35262">
        <ele>178.2</ele>
        <time>2021-10-14T08:29:26Z</time>
      </trkpt>
      <trkpt lat="43.44291" lon="-0.35263">
        <ele>177.9</ele>
        <time>2021-10-14T08:29:27Z</time>
      </trkpt>
      <trkpt lat="43.44291" lon="-0.35263">
        <ele>178.7</ele>
        <time>2021-10-14T08:29:28Z</time>
      </trkpt>
      <trkpt lat="43.44294" lon="-0.35267">
        <ele>178.2</ele>
        <time>2021-10-14T08:29:31Z</time>
      </trkpt>
      <trkpt lat="43.44297" lon="-0.3527">
        <ele>177.1</ele>
        <time>2021-10-14T08:29:33Z</time>
      </trkpt>
      <trkpt lat="43.44299" lon="-0.35271">
        <ele>177.2</ele>
        <time>2021-10-14T08:29:34Z</time>
      </trkpt>
      <trkpt lat="43.443" lon="-0.35272">
        <ele>177</ele>
        <time>2021-10-14T08:29:35Z</time>
      </trkpt>
      <trkpt lat="43.44301" lon="-0.35273">
        <ele>177.4</ele>
        <time>2021-10-14T08:29:36Z</time>
      </trkpt>
      <trkpt lat="43.44303" lon="-0.35276">
        <ele>177.5</ele>
        <time>2021-10-14T08:29:38Z</time>
      </trkpt>
      <trkpt lat="43.44305" lon="-0.35279">
        <ele>176.7</ele>
        <time>2021-10-14T08:29:40Z</time>
      </trkpt>
      <trkpt lat="43.44306" lon="-0.3528">
        <ele>176.7</ele>
        <time>2021-10-14T08:29:41Z</time>
      </trkpt>
      <trkpt lat="43.44307" lon="-0.35281">
        <ele>177.7</ele>
        <time>2021-10-14T08:29:42Z</time>
      </trkpt>
      <trkpt lat="43.44309" lon="-0.35284">
        <ele>178.5</ele>
        <time>2021-10-14T08:29:44Z</time>
      </trkpt>
      <trkpt lat="43.44311" lon="-0.35287">
        <ele>178</ele>
        <time>2021-10-14T08:29:46Z</time>
      </trkpt>
      <trkpt lat="43.44315" lon="-0.35293">
        <ele>178.2</ele>
        <time>2021-10-14T08:29:51Z</time>
      </trkpt>
      <trkpt lat="43.44331" lon="-0.3531">
        <ele>178.5</ele>
        <time>2021-10-14T08:30:05Z</time>
      </trkpt>
      <trkpt lat="43.44337" lon="-0.35316">
        <ele>180.1</ele>
        <time>2021-10-14T08:30:09Z</time>
      </trkpt>
      <trkpt lat="43.44339" lon="-0.35317">
        <ele>180.5</ele>
        <time>2021-10-14T08:30:10Z</time>
      </trkpt>
      <trkpt lat="43.44341" lon="-0.35318">
        <ele>180.2</ele>
        <time>2021-10-14T08:30:11Z</time>
      </trkpt>
      <trkpt lat="43.4434" lon="-0.35319">
        <ele>180.1</ele>
        <time>2021-10-14T08:30:12Z</time>
      </trkpt>
      <trkpt lat="43.44349" lon="-0.35323">
        <ele>181.2</ele>
        <time>2021-10-14T08:30:16Z</time>
      </trkpt>
      <trkpt lat="43.4435" lon="-0.35324">
        <ele>181</ele>
        <time>2021-10-14T08:30:17Z</time>
      </trkpt>
      <trkpt lat="43.44351" lon="-0.35324">
        <ele>181.2</ele>
        <time>2021-10-14T08:30:18Z</time>
      </trkpt>
      <trkpt lat="43.44351" lon="-0.35325">
        <ele>181.5</ele>
        <time>2021-10-14T08:30:19Z</time>
      </trkpt>
      <trkpt lat="43.44365" lon="-0.35334">
        <ele>182.8</ele>
        <time>2021-10-14T08:30:28Z</time>
      </trkpt>
      <trkpt lat="43.44367" lon="-0.35335">
        <ele>182</ele>
        <time>2021-10-14T08:30:29Z</time>
      </trkpt>
      <trkpt lat="43.44368" lon="-0.35336">
        <ele>181.9</ele>
        <time>2021-10-14T08:30:30Z</time>
      </trkpt>
      <trkpt lat="43.44369" lon="-0.35338">
        <ele>182.1</ele>
        <time>2021-10-14T08:30:31Z</time>
      </trkpt>
      <trkpt lat="43.44371" lon="-0.35339">
        <ele>181.8</ele>
        <time>2021-10-14T08:30:32Z</time>
      </trkpt>
      <trkpt lat="43.44377" lon="-0.35344">
        <ele>184.5</ele>
        <time>2021-10-14T08:30:36Z</time>
      </trkpt>
      <trkpt lat="43.44376" lon="-0.35345">
        <ele>184.1</ele>
        <time>2021-10-14T08:30:37Z</time>
      </trkpt>
      <trkpt lat="43.44381" lon="-0.35347">
        <ele>185.4</ele>
        <time>2021-10-14T08:30:40Z</time>
      </trkpt>
      <trkpt lat="43.44383" lon="-0.35349">
        <ele>185.3</ele>
        <time>2021-10-14T08:30:41Z</time>
      </trkpt>
      <trkpt lat="43.44385" lon="-0.35349">
        <ele>185.2</ele>
        <time>2021-10-14T08:30:42Z</time>
      </trkpt>
      <trkpt lat="43.44388" lon="-0.3535">
        <ele>186.1</ele>
        <time>2021-10-14T08:30:44Z</time>
      </trkpt>
      <trkpt lat="43.44402" lon="-0.35356">
        <ele>187.7</ele>
        <time>2021-10-14T08:30:53Z</time>
      </trkpt>
      <trkpt lat="43.44412" lon="-0.35359">
        <ele>188.6</ele>
        <time>2021-10-14T08:31:00Z</time>
      </trkpt>
      <trkpt lat="43.44413" lon="-0.3536">
        <ele>189.2</ele>
        <time>2021-10-14T08:31:01Z</time>
      </trkpt>
      <trkpt lat="43.44413" lon="-0.3536">
        <ele>189.2</ele>
        <time>2021-10-14T08:31:02Z</time>
      </trkpt>
      <trkpt lat="43.44413" lon="-0.3536">
        <ele>188.5</ele>
        <time>2021-10-14T08:31:03Z</time>
      </trkpt>
      <trkpt lat="43.44413" lon="-0.3536">
        <ele>188.9</ele>
        <time>2021-10-14T08:31:04Z</time>
      </trkpt>
      <trkpt lat="43.44414" lon="-0.35359">
        <ele>189.1</ele>
        <time>2021-10-14T08:31:05Z</time>
      </trkpt>
      <trkpt lat="43.44415" lon="-0.3536">
        <ele>190.1</ele>
        <time>2021-10-14T08:31:06Z</time>
      </trkpt>
      <trkpt lat="43.44416" lon="-0.3536">
        <ele>190.1</ele>
        <time>2021-10-14T08:31:07Z</time>
      </trkpt>
      <trkpt lat="43.44417" lon="-0.3536">
        <ele>190.9</ele>
        <time>2021-10-14T08:31:08Z</time>
      </trkpt>
      <trkpt lat="43.44422" lon="-0.35364">
        <ele>190.5</ele>
        <time>2021-10-14T08:31:12Z</time>
      </trkpt>
      <trkpt lat="43.44434" lon="-0.35374">
        <ele>192.2</ele>
        <time>2021-10-14T08:31:21Z</time>
      </trkpt>
      <trkpt lat="43.44436" lon="-0.35375">
        <ele>192.7</ele>
        <time>2021-10-14T08:31:22Z</time>
      </trkpt>
      <trkpt lat="43.44437" lon="-0.35375">
        <ele>192</ele>
        <time>2021-10-14T08:31:23Z</time>
      </trkpt>
      <trkpt lat="43.44439" lon="-0.35375">
        <ele>193.7</ele>
        <time>2021-10-14T08:31:24Z</time>
      </trkpt>
      <trkpt lat="43.4444" lon="-0.35374">
        <ele>193</ele>
        <time>2021-10-14T08:31:25Z</time>
      </trkpt>
      <trkpt lat="43.44441" lon="-0.35372">
        <ele>193</ele>
        <time>2021-10-14T08:31:26Z</time>
      </trkpt>
      <trkpt lat="43.44441" lon="-0.35372">
        <ele>193.5</ele>
        <time>2021-10-14T08:31:27Z</time>
      </trkpt>
      <trkpt lat="43.44441" lon="-0.35371">
        <ele>193</ele>
        <time>2021-10-14T08:31:29Z</time>
      </trkpt>
      <trkpt lat="43.44442" lon="-0.35371">
        <ele>194.2</ele>
        <time>2021-10-14T08:31:30Z</time>
      </trkpt>
      <trkpt lat="43.44443" lon="-0.3537">
        <ele>194.8</ele>
        <time>2021-10-14T08:31:31Z</time>
      </trkpt>
      <trkpt lat="43.44443" lon="-0.35367">
        <ele>194.4</ele>
        <time>2021-10-14T08:31:32Z</time>
      </trkpt>
      <trkpt lat="43.44442" lon="-0.35364">
        <ele>195.7</ele>
        <time>2021-10-14T08:31:34Z</time>
      </trkpt>
      <trkpt lat="43.44442" lon="-0.35363">
        <ele>195.4</ele>
        <time>2021-10-14T08:31:35Z</time>
      </trkpt>
      <trkpt lat="43.44441" lon="-0.35361">
        <ele>194.8</ele>
        <time>2021-10-14T08:31:37Z</time>
      </trkpt>
      <trkpt lat="43.44441" lon="-0.3536">
        <ele>195.9</ele>
        <time>2021-10-14T08:31:38Z</time>
      </trkpt>
      <trkpt lat="43.4444" lon="-0.35359">
        <ele>196</ele>
        <time>2021-10-14T08:31:39Z</time>
      </trkpt>
      <trkpt lat="43.44439" lon="-0.35359">
        <ele>195.1</ele>
        <time>2021-10-14T08:31:40Z</time>
      </trkpt>
      <trkpt lat="43.44438" lon="-0.35356">
        <ele>195.9</ele>
        <time>2021-10-14T08:31:43Z</time>
      </trkpt>
      <trkpt lat="43.44437" lon="-0.35355">
        <ele>197.1</ele>
        <time>2021-10-14T08:31:44Z</time>
      </trkpt>
      <trkpt lat="43.44436" lon="-0.35355">
        <ele>197.1</ele>
        <time>2021-10-14T08:31:45Z</time>
      </trkpt>
      <trkpt lat="43.44436" lon="-0.35354">
        <ele>197</ele>
        <time>2021-10-14T08:31:46Z</time>
      </trkpt>
      <trkpt lat="43.44436" lon="-0.35353">
        <ele>197.6</ele>
        <time>2021-10-14T08:31:47Z</time>
      </trkpt>
      <trkpt lat="43.44436" lon="-0.35352">
        <ele>198.8</ele>
        <time>2021-10-14T08:31:48Z</time>
      </trkpt>
      <trkpt lat="43.44435" lon="-0.35351">
        <ele>197.7</ele>
        <time>2021-10-14T08:31:49Z</time>
      </trkpt>
      <trkpt lat="43.44435" lon="-0.3535">
        <ele>197.9</ele>
        <time>2021-10-14T08:31:50Z</time>
      </trkpt>
      <trkpt lat="43.44434" lon="-0.35349">
        <ele>197.7</ele>
        <time>2021-10-14T08:31:51Z</time>
      </trkpt>
      <trkpt lat="43.44434" lon="-0.35349">
        <ele>198.4</ele>
        <time>2021-10-14T08:31:52Z</time>
      </trkpt>
      <trkpt lat="43.44433" lon="-0.35348">
        <ele>198.2</ele>
        <time>2021-10-14T08:31:54Z</time>
      </trkpt>
      <trkpt lat="43.44433" lon="-0.35348">
        <ele>197.9</ele>
        <time>2021-10-14T08:31:55Z</time>
      </trkpt>
      <trkpt lat="43.44427" lon="-0.35338">
        <ele>200.2</ele>
        <time>2021-10-14T08:32:02Z</time>
      </trkpt>
      <trkpt lat="43.44425" lon="-0.35336">
        <ele>199.3</ele>
        <time>2021-10-14T08:32:05Z</time>
      </trkpt>
      <trkpt lat="43.44424" lon="-0.35335">
        <ele>201.1</ele>
        <time>2021-10-14T08:32:06Z</time>
      </trkpt>
      <trkpt lat="43.44421" lon="-0.35329">
        <ele>201.9</ele>
        <time>2021-10-14T08:32:11Z</time>
      </trkpt>
      <trkpt lat="43.44421" lon="-0.35328">
        <ele>204.1</ele>
        <time>2021-10-14T08:32:12Z</time>
      </trkpt>
      <trkpt lat="43.4442" lon="-0.35327">
        <ele>203.9</ele>
        <time>2021-10-14T08:32:13Z</time>
      </trkpt>
      <trkpt lat="43.44419" lon="-0.35326">
        <ele>204.2</ele>
        <time>2021-10-14T08:32:14Z</time>
      </trkpt>
      <trkpt lat="43.44418" lon="-0.35326">
        <ele>205.4</ele>
        <time>2021-10-14T08:32:15Z</time>
      </trkpt>
      <trkpt lat="43.44417" lon="-0.35325">
        <ele>205.2</ele>
        <time>2021-10-14T08:32:16Z</time>
      </trkpt>
      <trkpt lat="43.44414" lon="-0.3532">
        <ele>207</ele>
        <time>2021-10-14T08:32:21Z</time>
      </trkpt>
      <trkpt lat="43.44412" lon="-0.35318">
        <ele>206.6</ele>
        <time>2021-10-14T08:32:23Z</time>
      </trkpt>
      <trkpt lat="43.44408" lon="-0.35313">
        <ele>206.9</ele>
        <time>2021-10-14T08:32:28Z</time>
      </trkpt>
      <trkpt lat="43.44406" lon="-0.3531">
        <ele>207.7</ele>
        <time>2021-10-14T08:32:31Z</time>
      </trkpt>
      <trkpt lat="43.44406" lon="-0.35309">
        <ele>208.8</ele>
        <time>2021-10-14T08:32:32Z</time>
      </trkpt>
      <trkpt lat="43.44404" lon="-0.35306">
        <ele>208.6</ele>
        <time>2021-10-14T08:32:34Z</time>
      </trkpt>
      <trkpt lat="43.444" lon="-0.35297">
        <ele>208.3</ele>
        <time>2021-10-14T08:32:40Z</time>
      </trkpt>
      <trkpt lat="43.44399" lon="-0.35297">
        <ele>207.1</ele>
        <time>2021-10-14T08:32:41Z</time>
      </trkpt>
      <trkpt lat="43.444" lon="-0.35296">
        <ele>206.7</ele>
        <time>2021-10-14T08:32:42Z</time>
      </trkpt>
      <trkpt lat="43.444" lon="-0.35294">
        <ele>207.8</ele>
        <time>2021-10-14T08:32:43Z</time>
      </trkpt>
      <trkpt lat="43.44399" lon="-0.35293">
        <ele>208</ele>
        <time>2021-10-14T08:32:44Z</time>
      </trkpt>
      <trkpt lat="43.44399" lon="-0.35292">
        <ele>208.2</ele>
        <time>2021-10-14T08:32:45Z</time>
      </trkpt>
      <trkpt lat="43.44398" lon="-0.35289">
        <ele>209.2</ele>
        <time>2021-10-14T08:32:46Z</time>
      </trkpt>
      <trkpt lat="43.44397" lon="-0.35287">
        <ele>210</ele>
        <time>2021-10-14T08:32:47Z</time>
      </trkpt>
      <trkpt lat="43.44397" lon="-0.35285">
        <ele>211.5</ele>
        <time>2021-10-14T08:32:48Z</time>
      </trkpt>
      <trkpt lat="43.44397" lon="-0.35283">
        <ele>211</ele>
        <time>2021-10-14T08:32:49Z</time>
      </trkpt>
      <trkpt lat="43.44397" lon="-0.35281">
        <ele>212.2</ele>
        <time>2021-10-14T08:32:50Z</time>
      </trkpt>
      <trkpt lat="43.44398" lon="-0.3528">
        <ele>213.5</ele>
        <time>2021-10-14T08:32:51Z</time>
      </trkpt>
      <trkpt lat="43.44398" lon="-0.35279">
        <ele>213.2</ele>
        <time>2021-10-14T08:32:52Z</time>
      </trkpt>
      <trkpt lat="43.44399" lon="-0.35279">
        <ele>213.3</ele>
        <time>2021-10-14T08:32:53Z</time>
      </trkpt>
      <trkpt lat="43.44399" lon="-0.35279">
        <ele>214.7</ele>
        <time>2021-10-14T08:32:54Z</time>
      </trkpt>
      <trkpt lat="43.444" lon="-0.3528">
        <ele>214.3</ele>
        <time>2021-10-14T08:32:56Z</time>
      </trkpt>
      <trkpt lat="43.44401" lon="-0.35281">
        <ele>215.5</ele>
        <time>2021-10-14T08:32:58Z</time>
      </trkpt>
      <trkpt lat="43.44402" lon="-0.35282">
        <ele>213.6</ele>
        <time>2021-10-14T08:32:59Z</time>
      </trkpt>
      <trkpt lat="43.44403" lon="-0.35282">
        <ele>215</ele>
        <time>2021-10-14T08:33:00Z</time>
      </trkpt>
      <trkpt lat="43.44404" lon="-0.35283">
        <ele>214.9</ele>
        <time>2021-10-14T08:33:01Z</time>
      </trkpt>
      <trkpt lat="43.44405" lon="-0.35284">
        <ele>215.1</ele>
        <time>2021-10-14T08:33:02Z</time>
      </trkpt>
      <trkpt lat="43.44406" lon="-0.35285">
        <ele>216.1</ele>
        <time>2021-10-14T08:33:04Z</time>
      </trkpt>
      <trkpt lat="43.44407" lon="-0.35286">
        <ele>216</ele>
        <time>2021-10-14T08:33:05Z</time>
      </trkpt>
      <trkpt lat="43.44407" lon="-0.35286">
        <ele>215</ele>
        <time>2021-10-14T08:33:06Z</time>
      </trkpt>
      <trkpt lat="43.44408" lon="-0.35286">
        <ele>216.3</ele>
        <time>2021-10-14T08:33:07Z</time>
      </trkpt>
      <trkpt lat="43.44408" lon="-0.35285">
        <ele>216</ele>
        <time>2021-10-14T08:33:08Z</time>
      </trkpt>
      <trkpt lat="43.44408" lon="-0.35285">
        <ele>214.4</ele>
        <time>2021-10-14T08:33:09Z</time>
      </trkpt>
      <trkpt lat="43.44409" lon="-0.35286">
        <ele>215.6</ele>
        <time>2021-10-14T08:33:10Z</time>
      </trkpt>
      <trkpt lat="43.44409" lon="-0.35285">
        <ele>215</ele>
        <time>2021-10-14T08:33:11Z</time>
      </trkpt>
      <trkpt lat="43.44419" lon="-0.3529">
        <ele>217.5</ele>
        <time>2021-10-14T08:33:25Z</time>
      </trkpt>
      <trkpt lat="43.44419" lon="-0.3529">
        <ele>217</ele>
        <time>2021-10-14T08:33:26Z</time>
      </trkpt>
      <trkpt lat="43.44419" lon="-0.3529">
        <ele>217.1</ele>
        <time>2021-10-14T08:33:27Z</time>
      </trkpt>
      <trkpt lat="43.44419" lon="-0.3529">
        <ele>216.8</ele>
        <time>2021-10-14T08:33:28Z</time>
      </trkpt>
      <trkpt lat="43.44419" lon="-0.3529">
        <ele>216.7</ele>
        <time>2021-10-14T08:33:29Z</time>
      </trkpt>
      <trkpt lat="43.44419" lon="-0.3529">
        <ele>217.2</ele>
        <time>2021-10-14T08:33:30Z</time>
      </trkpt>
      <trkpt lat="43.44419" lon="-0.3529">
        <ele>217.2</ele>
        <time>2021-10-14T08:33:32Z</time>
      </trkpt>
      <trkpt lat="43.44419" lon="-0.3529">
        <ele>217.2</ele>
        <time>2021-10-14T08:33:33Z</time>
      </trkpt>
      <trkpt lat="43.4442" lon="-0.35289">
        <ele>217.3</ele>
        <time>2021-10-14T08:33:34Z</time>
      </trkpt>
      <trkpt lat="43.4442" lon="-0.35289">
        <ele>217.2</ele>
        <time>2021-10-14T08:33:36Z</time>
      </trkpt>
      <trkpt lat="43.4442" lon="-0.35288">
        <ele>216.8</ele>
        <time>2021-10-14T08:33:37Z</time>
      </trkpt>
      <trkpt lat="43.44421" lon="-0.35288">
        <ele>216.7</ele>
        <time>2021-10-14T08:33:38Z</time>
      </trkpt>
      <trkpt lat="43.44421" lon="-0.35288">
        <ele>217.2</ele>
        <time>2021-10-14T08:33:39Z</time>
      </trkpt>
      <trkpt lat="43.4442" lon="-0.35288">
        <ele>217.5</ele>
        <time>2021-10-14T08:33:40Z</time>
      </trkpt>
      <trkpt lat="43.4442" lon="-0.35288">
        <ele>217.3</ele>
        <time>2021-10-14T08:33:42Z</time>
      </trkpt>
      <trkpt lat="43.4442" lon="-0.35289">
        <ele>217.4</ele>
        <time>2021-10-14T08:34:18Z</time>
      </trkpt>
      <trkpt lat="43.4442" lon="-0.3529">
        <ele>217</ele>
        <time>2021-10-14T08:34:19Z</time>
      </trkpt>
      <trkpt lat="43.44421" lon="-0.35291">
        <ele>218.9</ele>
        <time>2021-10-14T08:34:20Z</time>
      </trkpt>
      <trkpt lat="43.44422" lon="-0.35291">
        <ele>217.7</ele>
        <time>2021-10-14T08:34:22Z</time>
      </trkpt>
      <trkpt lat="43.44423" lon="-0.35291">
        <ele>219.2</ele>
        <time>2021-10-14T08:34:23Z</time>
      </trkpt>
      <trkpt lat="43.44424" lon="-0.35291">
        <ele>220.1</ele>
        <time>2021-10-14T08:34:24Z</time>
      </trkpt>
      <trkpt lat="43.44425" lon="-0.35292">
        <ele>219.7</ele>
        <time>2021-10-14T08:34:25Z</time>
      </trkpt>
      <trkpt lat="43.44427" lon="-0.35292">
        <ele>221.4</ele>
        <time>2021-10-14T08:34:26Z</time>
      </trkpt>
      <trkpt lat="43.44431" lon="-0.35293">
        <ele>223</ele>
        <time>2021-10-14T08:34:29Z</time>
      </trkpt>
      <trkpt lat="43.44439" lon="-0.35294">
        <ele>224.5</ele>
        <time>2021-10-14T08:34:34Z</time>
      </trkpt>
      <trkpt lat="43.4444" lon="-0.35295">
        <ele>223.8</ele>
        <time>2021-10-14T08:34:35Z</time>
      </trkpt>
      <trkpt lat="43.44443" lon="-0.35296">
        <ele>225.6</ele>
        <time>2021-10-14T08:34:37Z</time>
      </trkpt>
      <trkpt lat="43.44445" lon="-0.35296">
        <ele>225.6</ele>
        <time>2021-10-14T08:34:38Z</time>
      </trkpt>
      <trkpt lat="43.44456" lon="-0.35301">
        <ele>227.6</ele>
        <time>2021-10-14T08:34:46Z</time>
      </trkpt>
      <trkpt lat="43.44456" lon="-0.353">
        <ele>227.3</ele>
        <time>2021-10-14T08:34:47Z</time>
      </trkpt>
      <trkpt lat="43.44456" lon="-0.35301">
        <ele>228.6</ele>
        <time>2021-10-14T08:34:48Z</time>
      </trkpt>
      <trkpt lat="43.44458" lon="-0.35301">
        <ele>227.9</ele>
        <time>2021-10-14T08:34:50Z</time>
      </trkpt>
      <trkpt lat="43.4446" lon="-0.35304">
        <ele>228.3</ele>
        <time>2021-10-14T08:34:51Z</time>
      </trkpt>
      <trkpt lat="43.44461" lon="-0.35305">
        <ele>228.1</ele>
        <time>2021-10-14T08:34:52Z</time>
      </trkpt>
      <trkpt lat="43.44463" lon="-0.35306">
        <ele>229.5</ele>
        <time>2021-10-14T08:34:53Z</time>
      </trkpt>
      <trkpt lat="43.44466" lon="-0.35308">
        <ele>229.7</ele>
        <time>2021-10-14T08:34:55Z</time>
      </trkpt>
      <trkpt lat="43.44479" lon="-0.35315">
        <ele>230.6</ele>
        <time>2021-10-14T08:35:03Z</time>
      </trkpt>
      <trkpt lat="43.44484" lon="-0.35318">
        <ele>229.4</ele>
        <time>2021-10-14T08:35:06Z</time>
      </trkpt>
      <trkpt lat="43.44491" lon="-0.35322">
        <ele>230.3</ele>
        <time>2021-10-14T08:35:11Z</time>
      </trkpt>
      <trkpt lat="43.44491" lon="-0.35321">
        <ele>230.2</ele>
        <time>2021-10-14T08:35:12Z</time>
      </trkpt>
      <trkpt lat="43.44491" lon="-0.3532">
        <ele>230</ele>
        <time>2021-10-14T08:35:13Z</time>
      </trkpt>
      <trkpt lat="43.44496" lon="-0.35322">
        <ele>230</ele>
        <time>2021-10-14T08:35:15Z</time>
      </trkpt>
      <trkpt lat="43.44501" lon="-0.35326">
        <ele>230.2</ele>
        <time>2021-10-14T08:35:17Z</time>
      </trkpt>
      <trkpt lat="43.44506" lon="-0.35328">
        <ele>231.5</ele>
        <time>2021-10-14T08:35:20Z</time>
      </trkpt>
      <trkpt lat="43.4451" lon="-0.35331">
        <ele>231.6</ele>
        <time>2021-10-14T08:35:23Z</time>
      </trkpt>
      <trkpt lat="43.44511" lon="-0.35331">
        <ele>233.3</ele>
        <time>2021-10-14T08:35:24Z</time>
      </trkpt>
      <trkpt lat="43.44513" lon="-0.35332">
        <ele>232.6</ele>
        <time>2021-10-14T08:35:25Z</time>
      </trkpt>
      <trkpt lat="43.44515" lon="-0.35333">
        <ele>233</ele>
        <time>2021-10-14T08:35:26Z</time>
      </trkpt>
      <trkpt lat="43.44524" lon="-0.35338">
        <ele>234.1</ele>
        <time>2021-10-14T08:35:32Z</time>
      </trkpt>
      <trkpt lat="43.44528" lon="-0.35341">
        <ele>234.3</ele>
        <time>2021-10-14T08:35:35Z</time>
      </trkpt>
      <trkpt lat="43.44535" lon="-0.35344">
        <ele>235.5</ele>
        <time>2021-10-14T08:35:40Z</time>
      </trkpt>
      <trkpt lat="43.44536" lon="-0.35345">
        <ele>233</ele>
        <time>2021-10-14T08:35:41Z</time>
      </trkpt>
      <trkpt lat="43.44537" lon="-0.35346">
        <ele>234.6</ele>
        <time>2021-10-14T08:35:42Z</time>
      </trkpt>
      <trkpt lat="43.44538" lon="-0.35347">
        <ele>234.3</ele>
        <time>2021-10-14T08:35:43Z</time>
      </trkpt>
      <trkpt lat="43.4454" lon="-0.3535">
        <ele>235.1</ele>
        <time>2021-10-14T08:35:45Z</time>
      </trkpt>
      <trkpt lat="43.44541" lon="-0.35351">
        <ele>235.6</ele>
        <time>2021-10-14T08:35:46Z</time>
      </trkpt>
      <trkpt lat="43.44546" lon="-0.35356">
        <ele>233.8</ele>
        <time>2021-10-14T08:35:50Z</time>
      </trkpt>
      <trkpt lat="43.44548" lon="-0.35358">
        <ele>234.4</ele>
        <time>2021-10-14T08:35:52Z</time>
      </trkpt>
      <trkpt lat="43.44549" lon="-0.3536">
        <ele>235.5</ele>
        <time>2021-10-14T08:35:53Z</time>
      </trkpt>
      <trkpt lat="43.44551" lon="-0.35363">
        <ele>235.7</ele>
        <time>2021-10-14T08:35:55Z</time>
      </trkpt>
      <trkpt lat="43.44552" lon="-0.35364">
        <ele>235</ele>
        <time>2021-10-14T08:35:56Z</time>
      </trkpt>
      <trkpt lat="43.44554" lon="-0.35368">
        <ele>234.1</ele>
        <time>2021-10-14T08:35:58Z</time>
      </trkpt>
      <trkpt lat="43.44555" lon="-0.3537">
        <ele>234</ele>
        <time>2021-10-14T08:35:59Z</time>
      </trkpt>
      <trkpt lat="43.44557" lon="-0.35371">
        <ele>234.4</ele>
        <time>2021-10-14T08:36:00Z</time>
      </trkpt>
      <trkpt lat="43.44558" lon="-0.35373">
        <ele>234.4</ele>
        <time>2021-10-14T08:36:01Z</time>
      </trkpt>
      <trkpt lat="43.44559" lon="-0.35374">
        <ele>234</ele>
        <time>2021-10-14T08:36:02Z</time>
      </trkpt>
      <trkpt lat="43.4456" lon="-0.35376">
        <ele>234.4</ele>
        <time>2021-10-14T08:36:03Z</time>
      </trkpt>
      <trkpt lat="43.44561" lon="-0.35377">
        <ele>234.1</ele>
        <time>2021-10-14T08:36:04Z</time>
      </trkpt>
      <trkpt lat="43.44562" lon="-0.35378">
        <ele>233</ele>
        <time>2021-10-14T08:36:05Z</time>
      </trkpt>
      <trkpt lat="43.44565" lon="-0.35384">
        <ele>232.6</ele>
        <time>2021-10-14T08:36:08Z</time>
      </trkpt>
      <trkpt lat="43.44566" lon="-0.35385">
        <ele>231.9</ele>
        <time>2021-10-14T08:36:09Z</time>
      </trkpt>
      <trkpt lat="43.44567" lon="-0.35386">
        <ele>232.1</ele>
        <time>2021-10-14T08:36:10Z</time>
      </trkpt>
      <trkpt lat="43.44568" lon="-0.35386">
        <ele>232.9</ele>
        <time>2021-10-14T08:36:11Z</time>
      </trkpt>
      <trkpt lat="43.44569" lon="-0.35386">
        <ele>233.4</ele>
        <time>2021-10-14T08:36:12Z</time>
      </trkpt>
      <trkpt lat="43.4457" lon="-0.35386">
        <ele>233.3</ele>
        <time>2021-10-14T08:36:13Z</time>
      </trkpt>
      <trkpt lat="43.44571" lon="-0.35386">
        <ele>231.9</ele>
        <time>2021-10-14T08:36:14Z</time>
      </trkpt>
      <trkpt lat="43.44574" lon="-0.35385">
        <ele>232.9</ele>
        <time>2021-10-14T08:36:16Z</time>
      </trkpt>
      <trkpt lat="43.44575" lon="-0.35384">
        <ele>233.5</ele>
        <time>2021-10-14T08:36:17Z</time>
      </trkpt>
      <trkpt lat="43.44579" lon="-0.35382">
        <ele>233.2</ele>
        <time>2021-10-14T08:36:20Z</time>
      </trkpt>
      <trkpt lat="43.44581" lon="-0.35381">
        <ele>233.3</ele>
        <time>2021-10-14T08:36:21Z</time>
      </trkpt>
      <trkpt lat="43.44582" lon="-0.35379">
        <ele>233</ele>
        <time>2021-10-14T08:36:22Z</time>
      </trkpt>
      <trkpt lat="43.44583" lon="-0.35378">
        <ele>233.3</ele>
        <time>2021-10-14T08:36:23Z</time>
      </trkpt>
      <trkpt lat="43.44584" lon="-0.35377">
        <ele>234.4</ele>
        <time>2021-10-14T08:36:24Z</time>
      </trkpt>
      <trkpt lat="43.44585" lon="-0.35375">
        <ele>234.2</ele>
        <time>2021-10-14T08:36:25Z</time>
      </trkpt>
      <trkpt lat="43.44586" lon="-0.35374">
        <ele>234.2</ele>
        <time>2021-10-14T08:36:26Z</time>
      </trkpt>
      <trkpt lat="43.44586" lon="-0.35371">
        <ele>234.7</ele>
        <time>2021-10-14T08:36:27Z</time>
      </trkpt>
      <trkpt lat="43.44586" lon="-0.35369">
        <ele>234.4</ele>
        <time>2021-10-14T08:36:28Z</time>
      </trkpt>
      <trkpt lat="43.4459" lon="-0.35351">
        <ele>234.2</ele>
        <time>2021-10-14T08:36:35Z</time>
      </trkpt>
      <trkpt lat="43.44592" lon="-0.35347">
        <ele>234.2</ele>
        <time>2021-10-14T08:36:37Z</time>
      </trkpt>
      <trkpt lat="43.44597" lon="-0.35327">
        <ele>233</ele>
        <time>2021-10-14T08:36:43Z</time>
      </trkpt>
      <trkpt lat="43.44603" lon="-0.35309">
        <ele>233.1</ele>
        <time>2021-10-14T08:36:48Z</time>
      </trkpt>
      <trkpt lat="43.44605" lon="-0.35298">
        <ele>233.5</ele>
        <time>2021-10-14T08:36:51Z</time>
      </trkpt>
      <trkpt lat="43.44605" lon="-0.35298">
        <ele>232.2</ele>
        <time>2021-10-14T08:36:52Z</time>
      </trkpt>
      <trkpt lat="43.44604" lon="-0.35297">
        <ele>231.9</ele>
        <time>2021-10-14T08:36:53Z</time>
      </trkpt>
      <trkpt lat="43.44605" lon="-0.35292">
        <ele>231.7</ele>
        <time>2021-10-14T08:36:54Z</time>
      </trkpt>
      <trkpt lat="43.44607" lon="-0.35287">
        <ele>232.1</ele>
        <time>2021-10-14T08:36:55Z</time>
      </trkpt>
      <trkpt lat="43.44608" lon="-0.35283">
        <ele>232.7</ele>
        <time>2021-10-14T08:36:56Z</time>
      </trkpt>
      <trkpt lat="43.44609" lon="-0.35279">
        <ele>233.1</ele>
        <time>2021-10-14T08:36:57Z</time>
      </trkpt>
      <trkpt lat="43.44609" lon="-0.35274">
        <ele>233.6</ele>
        <time>2021-10-14T08:36:58Z</time>
      </trkpt>
      <trkpt lat="43.44608" lon="-0.35269">
        <ele>233</ele>
        <time>2021-10-14T08:36:59Z</time>
      </trkpt>
      <trkpt lat="43.44605" lon="-0.35261">
        <ele>233.1</ele>
        <time>2021-10-14T08:37:01Z</time>
      </trkpt>
      <trkpt lat="43.44605" lon="-0.3526">
        <ele>234.4</ele>
        <time>2021-10-14T08:37:02Z</time>
      </trkpt>
      <trkpt lat="43.44605" lon="-0.35258">
        <ele>233</ele>
        <time>2021-10-14T08:37:04Z</time>
      </trkpt>
      <trkpt lat="43.44605" lon="-0.35256">
        <ele>233.4</ele>
        <time>2021-10-14T08:37:05Z</time>
      </trkpt>
      <trkpt lat="43.44604" lon="-0.35253">
        <ele>234.2</ele>
        <time>2021-10-14T08:37:07Z</time>
      </trkpt>
      <trkpt lat="43.44603" lon="-0.35251">
        <ele>234.6</ele>
        <time>2021-10-14T08:37:08Z</time>
      </trkpt>
      <trkpt lat="43.44603" lon="-0.3525">
        <ele>234</ele>
        <time>2021-10-14T08:37:09Z</time>
      </trkpt>
      <trkpt lat="43.44603" lon="-0.35248">
        <ele>235.6</ele>
        <time>2021-10-14T08:37:10Z</time>
      </trkpt>
      <trkpt lat="43.44602" lon="-0.35246">
        <ele>235.3</ele>
        <time>2021-10-14T08:37:11Z</time>
      </trkpt>
      <trkpt lat="43.44602" lon="-0.35245">
        <ele>234.5</ele>
        <time>2021-10-14T08:37:12Z</time>
      </trkpt>
      <trkpt lat="43.44601" lon="-0.35244">
        <ele>234.4</ele>
        <time>2021-10-14T08:37:13Z</time>
      </trkpt>
      <trkpt lat="43.44601" lon="-0.35243">
        <ele>234.7</ele>
        <time>2021-10-14T08:37:14Z</time>
      </trkpt>
      <trkpt lat="43.446" lon="-0.35241">
        <ele>235.7</ele>
        <time>2021-10-14T08:37:15Z</time>
      </trkpt>
      <trkpt lat="43.44599" lon="-0.3524">
        <ele>235.2</ele>
        <time>2021-10-14T08:37:16Z</time>
      </trkpt>
      <trkpt lat="43.446" lon="-0.3524">
        <ele>235.3</ele>
        <time>2021-10-14T08:37:17Z</time>
      </trkpt>
      <trkpt lat="43.44598" lon="-0.35237">
        <ele>236</ele>
        <time>2021-10-14T08:37:19Z</time>
      </trkpt>
      <trkpt lat="43.44593" lon="-0.35223">
        <ele>236.6</ele>
        <time>2021-10-14T08:37:27Z</time>
      </trkpt>
      <trkpt lat="43.44592" lon="-0.3522">
        <ele>235.6</ele>
        <time>2021-10-14T08:37:29Z</time>
      </trkpt>
      <trkpt lat="43.44591" lon="-0.35219">
        <ele>236.2</ele>
        <time>2021-10-14T08:37:30Z</time>
      </trkpt>
      <trkpt lat="43.4459" lon="-0.35218">
        <ele>235.9</ele>
        <time>2021-10-14T08:37:31Z</time>
      </trkpt>
      <trkpt lat="43.44586" lon="-0.35212">
        <ele>236.8</ele>
        <time>2021-10-14T08:37:35Z</time>
      </trkpt>
      <trkpt lat="43.44582" lon="-0.35208">
        <ele>237.9</ele>
        <time>2021-10-14T08:37:38Z</time>
      </trkpt>
      <trkpt lat="43.44581" lon="-0.35208">
        <ele>236.2</ele>
        <time>2021-10-14T08:37:39Z</time>
      </trkpt>
      <trkpt lat="43.4458" lon="-0.35207">
        <ele>237</ele>
        <time>2021-10-14T08:37:40Z</time>
      </trkpt>
      <trkpt lat="43.44578" lon="-0.35205">
        <ele>238.6</ele>
        <time>2021-10-14T08:37:42Z</time>
      </trkpt>
      <trkpt lat="43.44577" lon="-0.35204">
        <ele>238.6</ele>
        <time>2021-10-14T08:37:43Z</time>
      </trkpt>
      <trkpt lat="43.44576" lon="-0.35203">
        <ele>237.7</ele>
        <time>2021-10-14T08:37:44Z</time>
      </trkpt>
      <trkpt lat="43.44575" lon="-0.35202">
        <ele>238.4</ele>
        <time>2021-10-14T08:37:45Z</time>
      </trkpt>
      <trkpt lat="43.44574" lon="-0.35201">
        <ele>237.8</ele>
        <time>2021-10-14T08:37:46Z</time>
      </trkpt>
      <trkpt lat="43.4457" lon="-0.35199">
        <ele>239.4</ele>
        <time>2021-10-14T08:37:50Z</time>
      </trkpt>
      <trkpt lat="43.44569" lon="-0.35198">
        <ele>238.3</ele>
        <time>2021-10-14T08:37:51Z</time>
      </trkpt>
      <trkpt lat="43.44567" lon="-0.35197">
        <ele>238.1</ele>
        <time>2021-10-14T08:37:52Z</time>
      </trkpt>
      <trkpt lat="43.44566" lon="-0.35196">
        <ele>239.3</ele>
        <time>2021-10-14T08:37:53Z</time>
      </trkpt>
      <trkpt lat="43.44565" lon="-0.35195">
        <ele>239.3</ele>
        <time>2021-10-14T08:37:54Z</time>
      </trkpt>
      <trkpt lat="43.44564" lon="-0.35193">
        <ele>238.5</ele>
        <time>2021-10-14T08:37:55Z</time>
      </trkpt>
      <trkpt lat="43.44563" lon="-0.35192">
        <ele>238.6</ele>
        <time>2021-10-14T08:37:56Z</time>
      </trkpt>
      <trkpt lat="43.44562" lon="-0.35191">
        <ele>238.9</ele>
        <time>2021-10-14T08:37:57Z</time>
      </trkpt>
      <trkpt lat="43.44561" lon="-0.35191">
        <ele>239</ele>
        <time>2021-10-14T08:37:58Z</time>
      </trkpt>
      <trkpt lat="43.44561" lon="-0.3519">
        <ele>238.8</ele>
        <time>2021-10-14T08:37:59Z</time>
      </trkpt>
      <trkpt lat="43.44558" lon="-0.35186">
        <ele>237.3</ele>
        <time>2021-10-14T08:38:01Z</time>
      </trkpt>
      <trkpt lat="43.44555" lon="-0.35182">
        <ele>239.5</ele>
        <time>2021-10-14T08:38:03Z</time>
      </trkpt>
      <trkpt lat="43.4455" lon="-0.35177">
        <ele>238.9</ele>
        <time>2021-10-14T08:38:06Z</time>
      </trkpt>
      <trkpt lat="43.44549" lon="-0.35177">
        <ele>239</ele>
        <time>2021-10-14T08:38:07Z</time>
      </trkpt>
      <trkpt lat="43.44548" lon="-0.35178">
        <ele>239.6</ele>
        <time>2021-10-14T08:38:08Z</time>
      </trkpt>
      <trkpt lat="43.4454" lon="-0.35168">
        <ele>237.7</ele>
        <time>2021-10-14T08:38:12Z</time>
      </trkpt>
      <trkpt lat="43.44538" lon="-0.35165">
        <ele>237.9</ele>
        <time>2021-10-14T08:38:13Z</time>
      </trkpt>
      <trkpt lat="43.44536" lon="-0.35163">
        <ele>238.1</ele>
        <time>2021-10-14T08:38:14Z</time>
      </trkpt>
      <trkpt lat="43.44533" lon="-0.35161">
        <ele>239.5</ele>
        <time>2021-10-14T08:38:16Z</time>
      </trkpt>
      <trkpt lat="43.44532" lon="-0.3516">
        <ele>239.3</ele>
        <time>2021-10-14T08:38:17Z</time>
      </trkpt>
      <trkpt lat="43.44531" lon="-0.3516">
        <ele>240.5</ele>
        <time>2021-10-14T08:38:18Z</time>
      </trkpt>
      <trkpt lat="43.44528" lon="-0.35159">
        <ele>238.9</ele>
        <time>2021-10-14T08:38:20Z</time>
      </trkpt>
      <trkpt lat="43.44527" lon="-0.35158">
        <ele>239.9</ele>
        <time>2021-10-14T08:38:21Z</time>
      </trkpt>
      <trkpt lat="43.44525" lon="-0.35158">
        <ele>239.3</ele>
        <time>2021-10-14T08:38:22Z</time>
      </trkpt>
      <trkpt lat="43.44524" lon="-0.35158">
        <ele>239.3</ele>
        <time>2021-10-14T08:38:23Z</time>
      </trkpt>
      <trkpt lat="43.44521" lon="-0.35157">
        <ele>240.2</ele>
        <time>2021-10-14T08:38:25Z</time>
      </trkpt>
      <trkpt lat="43.4452" lon="-0.35156">
        <ele>240.1</ele>
        <time>2021-10-14T08:38:26Z</time>
      </trkpt>
      <trkpt lat="43.44519" lon="-0.35157">
        <ele>241</ele>
        <time>2021-10-14T08:38:27Z</time>
      </trkpt>
      <trkpt lat="43.44517" lon="-0.35156">
        <ele>241.1</ele>
        <time>2021-10-14T08:38:29Z</time>
      </trkpt>
      <trkpt lat="43.44515" lon="-0.35156">
        <ele>241</ele>
        <time>2021-10-14T08:38:30Z</time>
      </trkpt>
      <trkpt lat="43.44514" lon="-0.35156">
        <ele>242.2</ele>
        <time>2021-10-14T08:38:31Z</time>
      </trkpt>
      <trkpt lat="43.44515" lon="-0.35155">
        <ele>242.4</ele>
        <time>2021-10-14T08:38:32Z</time>
      </trkpt>
      <trkpt lat="43.44513" lon="-0.35155">
        <ele>242.1</ele>
        <time>2021-10-14T08:38:33Z</time>
      </trkpt>
      <trkpt lat="43.44512" lon="-0.35155">
        <ele>243.6</ele>
        <time>2021-10-14T08:38:34Z</time>
      </trkpt>
      <trkpt lat="43.44511" lon="-0.35155">
        <ele>243.4</ele>
        <time>2021-10-14T08:38:35Z</time>
      </trkpt>
      <trkpt lat="43.44506" lon="-0.35155">
        <ele>243</ele>
        <time>2021-10-14T08:38:38Z</time>
      </trkpt>
      <trkpt lat="43.44502" lon="-0.35152">
        <ele>243.9</ele>
        <time>2021-10-14T08:38:42Z</time>
      </trkpt>
      <trkpt lat="43.44501" lon="-0.35152">
        <ele>244.3</ele>
        <time>2021-10-14T08:38:43Z</time>
      </trkpt>
      <trkpt lat="43.44491" lon="-0.35147">
        <ele>244.3</ele>
        <time>2021-10-14T08:38:52Z</time>
      </trkpt>
      <trkpt lat="43.44489" lon="-0.35145">
        <ele>244.1</ele>
        <time>2021-10-14T08:38:54Z</time>
      </trkpt>
      <trkpt lat="43.44486" lon="-0.35143">
        <ele>243</ele>
        <time>2021-10-14T08:38:56Z</time>
      </trkpt>
      <trkpt lat="43.44485" lon="-0.35142">
        <ele>244.1</ele>
        <time>2021-10-14T08:38:57Z</time>
      </trkpt>
      <trkpt lat="43.44483" lon="-0.35141">
        <ele>244.2</ele>
        <time>2021-10-14T08:38:58Z</time>
      </trkpt>
      <trkpt lat="43.44482" lon="-0.3514">
        <ele>243.1</ele>
        <time>2021-10-14T08:38:59Z</time>
      </trkpt>
      <trkpt lat="43.4448" lon="-0.35138">
        <ele>243</ele>
        <time>2021-10-14T08:39:01Z</time>
      </trkpt>
      <trkpt lat="43.44479" lon="-0.35138">
        <ele>243.9</ele>
        <time>2021-10-14T08:39:02Z</time>
      </trkpt>
      <trkpt lat="43.44478" lon="-0.35137">
        <ele>243.8</ele>
        <time>2021-10-14T08:39:03Z</time>
      </trkpt>
      <trkpt lat="43.44475" lon="-0.35135">
        <ele>242.7</ele>
        <time>2021-10-14T08:39:05Z</time>
      </trkpt>
      <trkpt lat="43.44471" lon="-0.35132">
        <ele>245</ele>
        <time>2021-10-14T08:39:08Z</time>
      </trkpt>
      <trkpt lat="43.44468" lon="-0.35131">
        <ele>245.5</ele>
        <time>2021-10-14T08:39:10Z</time>
      </trkpt>
      <trkpt lat="43.44467" lon="-0.3513">
        <ele>245.8</ele>
        <time>2021-10-14T08:39:11Z</time>
      </trkpt>
      <trkpt lat="43.44465" lon="-0.35129">
        <ele>246.5</ele>
        <time>2021-10-14T08:39:12Z</time>
      </trkpt>
      <trkpt lat="43.44463" lon="-0.35128">
        <ele>246.4</ele>
        <time>2021-10-14T08:39:13Z</time>
      </trkpt>
      <trkpt lat="43.44461" lon="-0.35126">
        <ele>245.3</ele>
        <time>2021-10-14T08:39:15Z</time>
      </trkpt>
      <trkpt lat="43.44457" lon="-0.35125">
        <ele>245.3</ele>
        <time>2021-10-14T08:39:17Z</time>
      </trkpt>
      <trkpt lat="43.44451" lon="-0.35121">
        <ele>243.5</ele>
        <time>2021-10-14T08:39:21Z</time>
      </trkpt>
      <trkpt lat="43.4445" lon="-0.3512">
        <ele>244.1</ele>
        <time>2021-10-14T08:39:22Z</time>
      </trkpt>
      <trkpt lat="43.44449" lon="-0.35118">
        <ele>244.9</ele>
        <time>2021-10-14T08:39:23Z</time>
      </trkpt>
      <trkpt lat="43.44448" lon="-0.35117">
        <ele>244.4</ele>
        <time>2021-10-14T08:39:24Z</time>
      </trkpt>
      <trkpt lat="43.44444" lon="-0.35116">
        <ele>245.7</ele>
        <time>2021-10-14T08:39:26Z</time>
      </trkpt>
      <trkpt lat="43.44434" lon="-0.35109">
        <ele>246</ele>
        <time>2021-10-14T08:39:32Z</time>
      </trkpt>
      <trkpt lat="43.44431" lon="-0.35106">
        <ele>245.1</ele>
        <time>2021-10-14T08:39:34Z</time>
      </trkpt>
      <trkpt lat="43.44427" lon="-0.35104">
        <ele>247.4</ele>
        <time>2021-10-14T08:39:39Z</time>
      </trkpt>
      <trkpt lat="43.44427" lon="-0.35103">
        <ele>247.2</ele>
        <time>2021-10-14T08:39:40Z</time>
      </trkpt>
      <trkpt lat="43.44427" lon="-0.35103">
        <ele>247.9</ele>
        <time>2021-10-14T08:39:41Z</time>
      </trkpt>
      <trkpt lat="43.44427" lon="-0.35103">
        <ele>247.2</ele>
        <time>2021-10-14T08:39:42Z</time>
      </trkpt>
      <trkpt lat="43.44427" lon="-0.35103">
        <ele>247.1</ele>
        <time>2021-10-14T08:39:43Z</time>
      </trkpt>
      <trkpt lat="43.44427" lon="-0.35103">
        <ele>247.5</ele>
        <time>2021-10-14T08:39:44Z</time>
      </trkpt>
      <trkpt lat="43.44427" lon="-0.35104">
        <ele>247.1</ele>
        <time>2021-10-14T08:39:45Z</time>
      </trkpt>
      <trkpt lat="43.44427" lon="-0.35104">
        <ele>246.9</ele>
        <time>2021-10-14T08:39:46Z</time>
      </trkpt>
      <trkpt lat="43.44427" lon="-0.35103">
        <ele>246.3</ele>
        <time>2021-10-14T08:39:49Z</time>
      </trkpt>
      <trkpt lat="43.44427" lon="-0.35103">
        <ele>247</ele>
        <time>2021-10-14T08:39:50Z</time>
      </trkpt>
      <trkpt lat="43.44427" lon="-0.35103">
        <ele>247.1</ele>
        <time>2021-10-14T08:40:21Z</time>
      </trkpt>
      <trkpt lat="43.44426" lon="-0.35104">
        <ele>247.1</ele>
        <time>2021-10-14T08:40:29Z</time>
      </trkpt>
      <trkpt lat="43.44426" lon="-0.35104">
        <ele>246.4</ele>
        <time>2021-10-14T08:41:59Z</time>
      </trkpt>
      <trkpt lat="43.44426" lon="-0.35104">
        <ele>247</ele>
        <time>2021-10-14T08:42:00Z</time>
      </trkpt>
      <trkpt lat="43.44426" lon="-0.35104">
        <ele>247.5</ele>
        <time>2021-10-14T08:42:01Z</time>
      </trkpt>
      <trkpt lat="43.44426" lon="-0.35104">
        <ele>247</ele>
        <time>2021-10-14T08:42:02Z</time>
      </trkpt>
      <trkpt lat="43.44426" lon="-0.35104">
        <ele>247.4</ele>
        <time>2021-10-14T08:42:03Z</time>
      </trkpt>
      <trkpt lat="43.44426" lon="-0.35104">
        <ele>247.1</ele>
        <time>2021-10-14T08:42:04Z</time>
      </trkpt>
      <trkpt lat="43.44426" lon="-0.35104">
        <ele>247.3</ele>
        <time>2021-10-14T08:42:05Z</time>
      </trkpt>
      <trkpt lat="43.44426" lon="-0.35104">
        <ele>247.7</ele>
        <time>2021-10-14T08:42:06Z</time>
      </trkpt>
      <trkpt lat="43.44426" lon="-0.35104">
        <ele>247.6</ele>
        <time>2021-10-14T08:42:07Z</time>
      </trkpt>
      <trkpt lat="43.44426" lon="-0.35104">
        <ele>247.6</ele>
        <time>2021-10-14T08:42:08Z</time>
      </trkpt>
      <trkpt lat="43.44426" lon="-0.35104">
        <ele>247.5</ele>
        <time>2021-10-14T08:42:09Z</time>
      </trkpt>
      <trkpt lat="43.44426" lon="-0.35104">
        <ele>247.8</ele>
        <time>2021-10-14T08:42:11Z</time>
      </trkpt>
      <trkpt lat="43.44425" lon="-0.35103">
        <ele>247.3</ele>
        <time>2021-10-14T08:46:19Z</time>
      </trkpt>
      <trkpt lat="43.44425" lon="-0.35103">
        <ele>246.9</ele>
        <time>2021-10-14T08:46:20Z</time>
      </trkpt>
      <trkpt lat="43.44425" lon="-0.35103">
        <ele>247</ele>
        <time>2021-10-14T08:46:21Z</time>
      </trkpt>
      <trkpt lat="43.44425" lon="-0.35103">
        <ele>247.3</ele>
        <time>2021-10-14T08:46:23Z</time>
      </trkpt>
      <trkpt lat="43.44425" lon="-0.35103">
        <ele>247.4</ele>
        <time>2021-10-14T08:46:31Z</time>
      </trkpt>
      <trkpt lat="43.44425" lon="-0.35104">
        <ele>249.3</ele>
        <time>2021-10-14T08:46:32Z</time>
      </trkpt>
      <trkpt lat="43.44425" lon="-0.35104">
        <ele>248.7</ele>
        <time>2021-10-14T08:46:33Z</time>
      </trkpt>
      <trkpt lat="43.44424" lon="-0.35103">
        <ele>249</ele>
        <time>2021-10-14T08:46:34Z</time>
      </trkpt>
      <trkpt lat="43.44425" lon="-0.35104">
        <ele>249.1</ele>
        <time>2021-10-14T08:46:35Z</time>
      </trkpt>
      <trkpt lat="43.44425" lon="-0.35104">
        <ele>250.1</ele>
        <time>2021-10-14T08:46:36Z</time>
      </trkpt>
      <trkpt lat="43.44425" lon="-0.35104">
        <ele>249</ele>
        <time>2021-10-14T08:46:37Z</time>
      </trkpt>
      <trkpt lat="43.44424" lon="-0.35104">
        <ele>248.6</ele>
        <time>2021-10-14T08:46:38Z</time>
      </trkpt>
      <trkpt lat="43.44424" lon="-0.35104">
        <ele>248.2</ele>
        <time>2021-10-14T08:46:39Z</time>
      </trkpt>
      <trkpt lat="43.44424" lon="-0.35104">
        <ele>250.1</ele>
        <time>2021-10-14T08:46:40Z</time>
      </trkpt>
      <trkpt lat="43.44424" lon="-0.35104">
        <ele>248</ele>
        <time>2021-10-14T08:46:41Z</time>
      </trkpt>
      <trkpt lat="43.44411" lon="-0.351">
        <ele>245.5</ele>
        <time>2021-10-14T08:46:50Z</time>
      </trkpt>
      <trkpt lat="43.44409" lon="-0.351">
        <ele>246.3</ele>
        <time>2021-10-14T08:46:51Z</time>
      </trkpt>
      <trkpt lat="43.44408" lon="-0.35099">
        <ele>246</ele>
        <time>2021-10-14T08:46:52Z</time>
      </trkpt>
      <trkpt lat="43.44396" lon="-0.35092">
        <ele>243.6</ele>
        <time>2021-10-14T08:46:58Z</time>
      </trkpt>
      <trkpt lat="43.44385" lon="-0.35084">
        <ele>243.7</ele>
        <time>2021-10-14T08:47:03Z</time>
      </trkpt>
      <trkpt lat="43.44381" lon="-0.3508">
        <ele>243.1</ele>
        <time>2021-10-14T08:47:05Z</time>
      </trkpt>
      <trkpt lat="43.44376" lon="-0.35076">
        <ele>244</ele>
        <time>2021-10-14T08:47:08Z</time>
      </trkpt>
      <trkpt lat="43.44374" lon="-0.35074">
        <ele>242.7</ele>
        <time>2021-10-14T08:47:09Z</time>
      </trkpt>
      <trkpt lat="43.44373" lon="-0.35072">
        <ele>244.9</ele>
        <time>2021-10-14T08:47:10Z</time>
      </trkpt>
      <trkpt lat="43.44372" lon="-0.35071">
        <ele>244.1</ele>
        <time>2021-10-14T08:47:11Z</time>
      </trkpt>
      <trkpt lat="43.44366" lon="-0.35066">
        <ele>244.1</ele>
        <time>2021-10-14T08:47:15Z</time>
      </trkpt>
      <trkpt lat="43.44365" lon="-0.35065">
        <ele>244.5</ele>
        <time>2021-10-14T08:47:16Z</time>
      </trkpt>
      <trkpt lat="43.44363" lon="-0.35065">
        <ele>244.2</ele>
        <time>2021-10-14T08:47:17Z</time>
      </trkpt>
      <trkpt lat="43.44362" lon="-0.35067">
        <ele>242.9</ele>
        <time>2021-10-14T08:47:18Z</time>
      </trkpt>
      <trkpt lat="43.44336" lon="-0.35035">
        <ele>239.6</ele>
        <time>2021-10-14T08:47:26Z</time>
      </trkpt>
      <trkpt lat="43.44323" lon="-0.35014">
        <ele>238.1</ele>
        <time>2021-10-14T08:47:30Z</time>
      </trkpt>
      <trkpt lat="43.44293" lon="-0.34957">
        <ele>237.3</ele>
        <time>2021-10-14T08:47:42Z</time>
      </trkpt>
      <trkpt lat="43.44282" lon="-0.34946">
        <ele>237.4</ele>
        <time>2021-10-14T08:47:46Z</time>
      </trkpt>
      <trkpt lat="43.44279" lon="-0.34942">
        <ele>237</ele>
        <time>2021-10-14T08:47:47Z</time>
      </trkpt>
      <trkpt lat="43.44276" lon="-0.34939">
        <ele>237.2</ele>
        <time>2021-10-14T08:47:48Z</time>
      </trkpt>
      <trkpt lat="43.44273" lon="-0.34936">
        <ele>237.2</ele>
        <time>2021-10-14T08:47:49Z</time>
      </trkpt>
      <trkpt lat="43.44223" lon="-0.34911">
        <ele>237.3</ele>
        <time>2021-10-14T08:48:03Z</time>
      </trkpt>
      <trkpt lat="43.44206" lon="-0.34896">
        <ele>238.3</ele>
        <time>2021-10-14T08:48:10Z</time>
      </trkpt>
      <trkpt lat="43.44195" lon="-0.34883">
        <ele>236.9</ele>
        <time>2021-10-14T08:48:15Z</time>
      </trkpt>
      <trkpt lat="43.44185" lon="-0.34873">
        <ele>237.1</ele>
        <time>2021-10-14T08:48:18Z</time>
      </trkpt>
      <trkpt lat="43.44109" lon="-0.34804">
        <ele>234.3</ele>
        <time>2021-10-14T08:48:37Z</time>
      </trkpt>
      <trkpt lat="43.44039" lon="-0.34721">
        <ele>234.1</ele>
        <time>2021-10-14T08:48:53Z</time>
      </trkpt>
      <trkpt lat="43.43981" lon="-0.34636">
        <ele>231.4</ele>
        <time>2021-10-14T08:49:09Z</time>
      </trkpt>
      <trkpt lat="43.43906" lon="-0.34556">
        <ele>234.3</ele>
        <time>2021-10-14T08:49:28Z</time>
      </trkpt>
      <trkpt lat="43.43828" lon="-0.3448">
        <ele>233.2</ele>
        <time>2021-10-14T08:49:43Z</time>
      </trkpt>
      <trkpt lat="43.4382" lon="-0.3447">
        <ele>233.3</ele>
        <time>2021-10-14T08:49:45Z</time>
      </trkpt>
      <trkpt lat="43.43757" lon="-0.34375">
        <ele>229.3</ele>
        <time>2021-10-14T08:50:00Z</time>
      </trkpt>
      <trkpt lat="43.43694" lon="-0.34277">
        <ele>227.2</ele>
        <time>2021-10-14T08:50:14Z</time>
      </trkpt>
      <trkpt lat="43.43642" lon="-0.34175">
        <ele>224.1</ele>
        <time>2021-10-14T08:50:27Z</time>
      </trkpt>
      <trkpt lat="43.43593" lon="-0.34064">
        <ele>221</ele>
        <time>2021-10-14T08:50:40Z</time>
      </trkpt>
      <trkpt lat="43.43583" lon="-0.34039">
        <ele>221.2</ele>
        <time>2021-10-14T08:50:43Z</time>
      </trkpt>
      <trkpt lat="43.43581" lon="-0.34031">
        <ele>221.2</ele>
        <time>2021-10-14T08:50:44Z</time>
      </trkpt>
      <trkpt lat="43.43579" lon="-0.34022">
        <ele>221.1</ele>
        <time>2021-10-14T08:50:45Z</time>
      </trkpt>
      <trkpt lat="43.43577" lon="-0.34014">
        <ele>220.9</ele>
        <time>2021-10-14T08:50:46Z</time>
      </trkpt>
      <trkpt lat="43.43574" lon="-0.34006">
        <ele>221</ele>
        <time>2021-10-14T08:50:47Z</time>
      </trkpt>
      <trkpt lat="43.43563" lon="-0.3397">
        <ele>221</ele>
        <time>2021-10-14T08:50:51Z</time>
      </trkpt>
      <trkpt lat="43.43517" lon="-0.33862">
        <ele>220</ele>
        <time>2021-10-14T08:51:04Z</time>
      </trkpt>
      <trkpt lat="43.43472" lon="-0.33749">
        <ele>219.3</ele>
        <time>2021-10-14T08:51:19Z</time>
      </trkpt>
      <trkpt lat="43.43447" lon="-0.33696">
        <ele>220.2</ele>
        <time>2021-10-14T08:51:27Z</time>
      </trkpt>
      <trkpt lat="43.43388" lon="-0.33602">
        <ele>223.3</ele>
        <time>2021-10-14T08:51:51Z</time>
      </trkpt>
      <trkpt lat="43.43325" lon="-0.3351">
        <ele>226.2</ele>
        <time>2021-10-14T08:52:17Z</time>
      </trkpt>
      <trkpt lat="43.43322" lon="-0.33508">
        <ele>226.4</ele>
        <time>2021-10-14T08:52:18Z</time>
      </trkpt>
      <trkpt lat="43.4332" lon="-0.33504">
        <ele>227.1</ele>
        <time>2021-10-14T08:52:19Z</time>
      </trkpt>
      <trkpt lat="43.43314" lon="-0.33493">
        <ele>226.9</ele>
        <time>2021-10-14T08:52:22Z</time>
      </trkpt>
      <trkpt lat="43.43311" lon="-0.3349">
        <ele>227.2</ele>
        <time>2021-10-14T08:52:23Z</time>
      </trkpt>
      <trkpt lat="43.43308" lon="-0.33487">
        <ele>228.1</ele>
        <time>2021-10-14T08:52:24Z</time>
      </trkpt>
      <trkpt lat="43.43305" lon="-0.33484">
        <ele>228.3</ele>
        <time>2021-10-14T08:52:25Z</time>
      </trkpt>
      <trkpt lat="43.4329" lon="-0.33473">
        <ele>227</ele>
        <time>2021-10-14T08:52:29Z</time>
      </trkpt>
      <trkpt lat="43.43281" lon="-0.33462">
        <ele>227.4</ele>
        <time>2021-10-14T08:52:32Z</time>
      </trkpt>
      <trkpt lat="43.43275" lon="-0.33455">
        <ele>227.4</ele>
        <time>2021-10-14T08:52:34Z</time>
      </trkpt>
      <trkpt lat="43.4327" lon="-0.33447">
        <ele>226.6</ele>
        <time>2021-10-14T08:52:36Z</time>
      </trkpt>
      <trkpt lat="43.43267" lon="-0.33443">
        <ele>227.8</ele>
        <time>2021-10-14T08:52:37Z</time>
      </trkpt>
      <trkpt lat="43.43266" lon="-0.33437">
        <ele>228.3</ele>
        <time>2021-10-14T08:52:38Z</time>
      </trkpt>
      <trkpt lat="43.43266" lon="-0.33431">
        <ele>226.8</ele>
        <time>2021-10-14T08:52:39Z</time>
      </trkpt>
      <trkpt lat="43.43266" lon="-0.33425">
        <ele>227.2</ele>
        <time>2021-10-14T08:52:40Z</time>
      </trkpt>
      <trkpt lat="43.43268" lon="-0.3342">
        <ele>227.2</ele>
        <time>2021-10-14T08:52:41Z</time>
      </trkpt>
      <trkpt lat="43.4327" lon="-0.33415">
        <ele>227.1</ele>
        <time>2021-10-14T08:52:42Z</time>
      </trkpt>
      <trkpt lat="43.43273" lon="-0.33411">
        <ele>227</ele>
        <time>2021-10-14T08:52:43Z</time>
      </trkpt>
      <trkpt lat="43.43276" lon="-0.33408">
        <ele>227.3</ele>
        <time>2021-10-14T08:52:44Z</time>
      </trkpt>
      <trkpt lat="43.4328" lon="-0.33406">
        <ele>227.4</ele>
        <time>2021-10-14T08:52:45Z</time>
      </trkpt>
      <trkpt lat="43.43283" lon="-0.33405">
        <ele>227.4</ele>
        <time>2021-10-14T08:52:46Z</time>
      </trkpt>
      <trkpt lat="43.43286" lon="-0.33402">
        <ele>227</ele>
        <time>2021-10-14T08:52:47Z</time>
      </trkpt>
      <trkpt lat="43.43292" lon="-0.3337">
        <ele>228.3</ele>
        <time>2021-10-14T08:53:03Z</time>
      </trkpt>
      <trkpt lat="43.43292" lon="-0.33369">
        <ele>228.1</ele>
        <time>2021-10-14T08:53:04Z</time>
      </trkpt>
      <trkpt lat="43.43292" lon="-0.33369">
        <ele>228.3</ele>
        <time>2021-10-14T08:53:05Z</time>
      </trkpt>
      <trkpt lat="43.43292" lon="-0.33369">
        <ele>228.6</ele>
        <time>2021-10-14T08:53:06Z</time>
      </trkpt>
      <trkpt lat="43.43292" lon="-0.3337">
        <ele>228.1</ele>
        <time>2021-10-14T08:53:07Z</time>
      </trkpt>
      <trkpt lat="43.43293" lon="-0.3337">
        <ele>227.8</ele>
        <time>2021-10-14T08:53:11Z</time>
      </trkpt>
      <trkpt lat="43.43296" lon="-0.33371">
        <ele>228.4</ele>
        <time>2021-10-14T08:53:17Z</time>
      </trkpt>
      <trkpt lat="43.43296" lon="-0.33371">
        <ele>228.2</ele>
        <time>2021-10-14T08:53:18Z</time>
      </trkpt>
      <trkpt lat="43.43296" lon="-0.33371">
        <ele>227.9</ele>
        <time>2021-10-14T08:53:19Z</time>
      </trkpt>
      <trkpt lat="43.43296" lon="-0.33371">
        <ele>228</ele>
        <time>2021-10-14T08:53:20Z</time>
      </trkpt>
      <trkpt lat="43.43296" lon="-0.33371">
        <ele>228.2</ele>
        <time>2021-10-14T08:53:38Z</time>
      </trkpt>
      <trkpt lat="43.43296" lon="-0.33371">
        <ele>227.9</ele>
        <time>2021-10-14T08:53:39Z</time>
      </trkpt>
      <trkpt lat="43.43296" lon="-0.33371">
        <ele>228.5</ele>
        <time>2021-10-14T08:53:40Z</time>
      </trkpt>
      <trkpt lat="43.43296" lon="-0.33371">
        <ele>228.5</ele>
        <time>2021-10-14T08:55:02Z</time>
      </trkpt>
      <trkpt lat="43.43296" lon="-0.3337">
        <ele>229</ele>
        <time>2021-10-14T08:55:03Z</time>
      </trkpt>
      <trkpt lat="43.43295" lon="-0.3337">
        <ele>229.2</ele>
        <time>2021-10-14T08:55:04Z</time>
      </trkpt>
      <trkpt lat="43.43294" lon="-0.33368">
        <ele>228.8</ele>
        <time>2021-10-14T08:55:06Z</time>
      </trkpt>
      <trkpt lat="43.43293" lon="-0.33366">
        <ele>230</ele>
        <time>2021-10-14T08:55:07Z</time>
      </trkpt>
      <trkpt lat="43.43293" lon="-0.33364">
        <ele>229.7</ele>
        <time>2021-10-14T08:55:08Z</time>
      </trkpt>
      <trkpt lat="43.43293" lon="-0.33363">
        <ele>229.3</ele>
        <time>2021-10-14T08:55:09Z</time>
      </trkpt>
      <trkpt lat="43.43293" lon="-0.33361">
        <ele>229</ele>
        <time>2021-10-14T08:55:10Z</time>
      </trkpt>
      <trkpt lat="43.43293" lon="-0.3336">
        <ele>229.3</ele>
        <time>2021-10-14T08:55:11Z</time>
      </trkpt>
      <trkpt lat="43.43293" lon="-0.33358">
        <ele>229.5</ele>
        <time>2021-10-14T08:55:12Z</time>
      </trkpt>
      <trkpt lat="43.43293" lon="-0.33354">
        <ele>230.7</ele>
        <time>2021-10-14T08:55:14Z</time>
      </trkpt>
      <trkpt lat="43.43294" lon="-0.33352">
        <ele>230.4</ele>
        <time>2021-10-14T08:55:15Z</time>
      </trkpt>
      <trkpt lat="43.43294" lon="-0.33351">
        <ele>229.9</ele>
        <time>2021-10-14T08:55:16Z</time>
      </trkpt>
      <trkpt lat="43.43295" lon="-0.3335">
        <ele>230</ele>
        <time>2021-10-14T08:55:17Z</time>
      </trkpt>
      <trkpt lat="43.43298" lon="-0.33347">
        <ele>229.9</ele>
        <time>2021-10-14T08:55:20Z</time>
      </trkpt>
      <trkpt lat="43.43299" lon="-0.33346">
        <ele>230.4</ele>
        <time>2021-10-14T08:55:21Z</time>
      </trkpt>
      <trkpt lat="43.433" lon="-0.33344">
        <ele>228.8</ele>
        <time>2021-10-14T08:55:22Z</time>
      </trkpt>
      <trkpt lat="43.43302" lon="-0.33343">
        <ele>230.7</ele>
        <time>2021-10-14T08:55:23Z</time>
      </trkpt>
      <trkpt lat="43.43361" lon="-0.33281">
        <ele>228.4</ele>
        <time>2021-10-14T08:55:45Z</time>
      </trkpt>
      <trkpt lat="43.43363" lon="-0.33277">
        <ele>227.2</ele>
        <time>2021-10-14T08:55:46Z</time>
      </trkpt>
      <trkpt lat="43.43363" lon="-0.33273">
        <ele>227.1</ele>
        <time>2021-10-14T08:55:47Z</time>
      </trkpt>
      <trkpt lat="43.43362" lon="-0.33269">
        <ele>226.1</ele>
        <time>2021-10-14T08:55:48Z</time>
      </trkpt>
      <trkpt lat="43.4336" lon="-0.33267">
        <ele>226.5</ele>
        <time>2021-10-14T08:55:49Z</time>
      </trkpt>
      <trkpt lat="43.43356" lon="-0.33266">
        <ele>226.2</ele>
        <time>2021-10-14T08:55:50Z</time>
      </trkpt>
      <trkpt lat="43.43352" lon="-0.33267">
        <ele>226.1</ele>
        <time>2021-10-14T08:55:51Z</time>
      </trkpt>
      <trkpt lat="43.43327" lon="-0.33266">
        <ele>224.2</ele>
        <time>2021-10-14T08:55:58Z</time>
      </trkpt>
      <trkpt lat="43.43301" lon="-0.33269">
        <ele>224.2</ele>
        <time>2021-10-14T08:56:04Z</time>
      </trkpt>
      <trkpt lat="43.43211" lon="-0.3327">
        <ele>226.1</ele>
        <time>2021-10-14T08:56:27Z</time>
      </trkpt>
      <trkpt lat="43.43202" lon="-0.33271">
        <ele>226.1</ele>
        <time>2021-10-14T08:56:29Z</time>
      </trkpt>
      <trkpt lat="43.43165" lon="-0.33267">
        <ele>226.8</ele>
        <time>2021-10-14T08:56:41Z</time>
      </trkpt>
      <trkpt lat="43.43106" lon="-0.33272">
        <ele>228.3</ele>
        <time>2021-10-14T08:56:57Z</time>
      </trkpt>
      <trkpt lat="43.43097" lon="-0.33275">
        <ele>229</ele>
        <time>2021-10-14T08:57:00Z</time>
      </trkpt>
      <trkpt lat="43.43087" lon="-0.33277">
        <ele>228.4</ele>
        <time>2021-10-14T08:57:04Z</time>
      </trkpt>
      <trkpt lat="43.43079" lon="-0.3328">
        <ele>228.2</ele>
        <time>2021-10-14T08:57:08Z</time>
      </trkpt>
      <trkpt lat="43.43077" lon="-0.33282">
        <ele>228.3</ele>
        <time>2021-10-14T08:57:09Z</time>
      </trkpt>
      <trkpt lat="43.43076" lon="-0.33283">
        <ele>228.2</ele>
        <time>2021-10-14T08:57:10Z</time>
      </trkpt>
      <trkpt lat="43.43075" lon="-0.33285">
        <ele>228.3</ele>
        <time>2021-10-14T08:57:11Z</time>
      </trkpt>
      <trkpt lat="43.43074" lon="-0.33286">
        <ele>228.4</ele>
        <time>2021-10-14T08:57:12Z</time>
      </trkpt>
      <trkpt lat="43.43048" lon="-0.33325">
        <ele>225.2</ele>
        <time>2021-10-14T08:57:25Z</time>
      </trkpt>
      <trkpt lat="43.4303" lon="-0.33347">
        <ele>223.2</ele>
        <time>2021-10-14T08:57:34Z</time>
      </trkpt>
      <trkpt lat="43.43028" lon="-0.33349">
        <ele>223.2</ele>
        <time>2021-10-14T08:57:35Z</time>
      </trkpt>
      <trkpt lat="43.43024" lon="-0.33351">
        <ele>224.4</ele>
        <time>2021-10-14T08:57:36Z</time>
      </trkpt>
      <trkpt lat="43.43021" lon="-0.33352">
        <ele>223.3</ele>
        <time>2021-10-14T08:57:37Z</time>
      </trkpt>
      <trkpt lat="43.43004" lon="-0.3335">
        <ele>223.8</ele>
        <time>2021-10-14T08:57:42Z</time>
      </trkpt>
      <trkpt lat="43.42977" lon="-0.33343">
        <ele>223.6</ele>
        <time>2021-10-14T08:57:50Z</time>
      </trkpt>
      <trkpt lat="43.42972" lon="-0.33341">
        <ele>224.1</ele>
        <time>2021-10-14T08:57:52Z</time>
      </trkpt>
      <trkpt lat="43.4295" lon="-0.33334">
        <ele>221.5</ele>
        <time>2021-10-14T08:58:00Z</time>
      </trkpt>
      <trkpt lat="43.42927" lon="-0.33332">
        <ele>220.5</ele>
        <time>2021-10-14T08:58:08Z</time>
      </trkpt>
      <trkpt lat="43.42921" lon="-0.33332">
        <ele>220.2</ele>
        <time>2021-10-14T08:58:10Z</time>
      </trkpt>
      <trkpt lat="43.42918" lon="-0.33332">
        <ele>219.9</ele>
        <time>2021-10-14T08:58:11Z</time>
      </trkpt>
      <trkpt lat="43.42916" lon="-0.33332">
        <ele>219.4</ele>
        <time>2021-10-14T08:58:12Z</time>
      </trkpt>
      <trkpt lat="43.42903" lon="-0.33331">
        <ele>216.8</ele>
        <time>2021-10-14T08:58:17Z</time>
      </trkpt>
      <trkpt lat="43.42898" lon="-0.33332">
        <ele>217.3</ele>
        <time>2021-10-14T08:58:19Z</time>
      </trkpt>
      <trkpt lat="43.42891" lon="-0.33333">
        <ele>216</ele>
        <time>2021-10-14T08:58:21Z</time>
      </trkpt>
      <trkpt lat="43.42831" lon="-0.33333">
        <ele>200.4</ele>
        <time>2021-10-14T08:58:35Z</time>
      </trkpt>
      <trkpt lat="43.42781" lon="-0.3334">
        <ele>195.6</ele>
        <time>2021-10-14T08:58:47Z</time>
      </trkpt>
      <trkpt lat="43.42771" lon="-0.33345">
        <ele>194.1</ele>
        <time>2021-10-14T08:58:50Z</time>
      </trkpt>
      <trkpt lat="43.42758" lon="-0.33353">
        <ele>193.5</ele>
        <time>2021-10-14T08:58:53Z</time>
      </trkpt>
      <trkpt lat="43.42744" lon="-0.33359">
        <ele>192</ele>
        <time>2021-10-14T08:58:56Z</time>
      </trkpt>
      <trkpt lat="43.42722" lon="-0.33362">
        <ele>193</ele>
        <time>2021-10-14T08:59:02Z</time>
      </trkpt>
      <trkpt lat="43.42713" lon="-0.33367">
        <ele>193.9</ele>
        <time>2021-10-14T08:59:06Z</time>
      </trkpt>
      <trkpt lat="43.4271" lon="-0.33368">
        <ele>194.4</ele>
        <time>2021-10-14T08:59:07Z</time>
      </trkpt>
      <trkpt lat="43.42708" lon="-0.3337">
        <ele>195.1</ele>
        <time>2021-10-14T08:59:08Z</time>
      </trkpt>
      <trkpt lat="43.42706" lon="-0.33373">
        <ele>195.1</ele>
        <time>2021-10-14T08:59:09Z</time>
      </trkpt>
      <trkpt lat="43.42705" lon="-0.33375">
        <ele>195.4</ele>
        <time>2021-10-14T08:59:10Z</time>
      </trkpt>
      <trkpt lat="43.42699" lon="-0.33386">
        <ele>193</ele>
        <time>2021-10-14T08:59:15Z</time>
      </trkpt>
      <trkpt lat="43.42698" lon="-0.33389">
        <ele>193.1</ele>
        <time>2021-10-14T08:59:16Z</time>
      </trkpt>
      <trkpt lat="43.42697" lon="-0.33393">
        <ele>191.9</ele>
        <time>2021-10-14T08:59:17Z</time>
      </trkpt>
      <trkpt lat="43.42696" lon="-0.33396">
        <ele>192.4</ele>
        <time>2021-10-14T08:59:18Z</time>
      </trkpt>
      <trkpt lat="43.42695" lon="-0.33406">
        <ele>192.2</ele>
        <time>2021-10-14T08:59:21Z</time>
      </trkpt>
      <trkpt lat="43.42695" lon="-0.33409">
        <ele>192</ele>
        <time>2021-10-14T08:59:22Z</time>
      </trkpt>
      <trkpt lat="43.42695" lon="-0.33412">
        <ele>192.2</ele>
        <time>2021-10-14T08:59:23Z</time>
      </trkpt>
      <trkpt lat="43.42696" lon="-0.33414">
        <ele>193</ele>
        <time>2021-10-14T08:59:24Z</time>
      </trkpt>
      <trkpt lat="43.42695" lon="-0.33417">
        <ele>193.5</ele>
        <time>2021-10-14T08:59:25Z</time>
      </trkpt>
      <trkpt lat="43.42695" lon="-0.3342">
        <ele>193.6</ele>
        <time>2021-10-14T08:59:26Z</time>
      </trkpt>
      <trkpt lat="43.42694" lon="-0.33422">
        <ele>194</ele>
        <time>2021-10-14T08:59:27Z</time>
      </trkpt>
      <trkpt lat="43.42693" lon="-0.33423">
        <ele>194.2</ele>
        <time>2021-10-14T08:59:28Z</time>
      </trkpt>
      <trkpt lat="43.42691" lon="-0.33423">
        <ele>194</ele>
        <time>2021-10-14T08:59:29Z</time>
      </trkpt>
      <trkpt lat="43.42684" lon="-0.33423">
        <ele>196.2</ele>
        <time>2021-10-14T08:59:32Z</time>
      </trkpt>
      <trkpt lat="43.42682" lon="-0.33423">
        <ele>196</ele>
        <time>2021-10-14T08:59:33Z</time>
      </trkpt>
      <trkpt lat="43.42675" lon="-0.33418">
        <ele>196.4</ele>
        <time>2021-10-14T08:59:37Z</time>
      </trkpt>
      <trkpt lat="43.4267" lon="-0.33415">
        <ele>197</ele>
        <time>2021-10-14T08:59:40Z</time>
      </trkpt>
      <trkpt lat="43.42651" lon="-0.33406">
        <ele>199.5</ele>
        <time>2021-10-14T08:59:49Z</time>
      </trkpt>
      <trkpt lat="43.42649" lon="-0.33406">
        <ele>199.7</ele>
        <time>2021-10-14T08:59:50Z</time>
      </trkpt>
      <trkpt lat="43.4264" lon="-0.33405">
        <ele>199.9</ele>
        <time>2021-10-14T08:59:54Z</time>
      </trkpt>
      <trkpt lat="43.42638" lon="-0.33405">
        <ele>199.8</ele>
        <time>2021-10-14T08:59:55Z</time>
      </trkpt>
      <trkpt lat="43.42633" lon="-0.33407">
        <ele>200</ele>
        <time>2021-10-14T08:59:58Z</time>
      </trkpt>
      <trkpt lat="43.42627" lon="-0.33408">
        <ele>201</ele>
        <time>2021-10-14T09:00:01Z</time>
      </trkpt>
      <trkpt lat="43.42624" lon="-0.33409">
        <ele>201.2</ele>
        <time>2021-10-14T09:00:03Z</time>
      </trkpt>
      <trkpt lat="43.42623" lon="-0.3341">
        <ele>199.9</ele>
        <time>2021-10-14T09:00:04Z</time>
      </trkpt>
      <trkpt lat="43.42603" lon="-0.33414">
        <ele>202.1</ele>
        <time>2021-10-14T09:00:16Z</time>
      </trkpt>
      <trkpt lat="43.42601" lon="-0.33414">
        <ele>201.2</ele>
        <time>2021-10-14T09:00:17Z</time>
      </trkpt>
      <trkpt lat="43.42594" lon="-0.33415">
        <ele>201.8</ele>
        <time>2021-10-14T09:00:21Z</time>
      </trkpt>
      <trkpt lat="43.42592" lon="-0.33415">
        <ele>201.8</ele>
        <time>2021-10-14T09:00:22Z</time>
      </trkpt>
      <trkpt lat="43.42585" lon="-0.33416">
        <ele>203.1</ele>
        <time>2021-10-14T09:00:25Z</time>
      </trkpt>
      <trkpt lat="43.42581" lon="-0.33418">
        <ele>203.6</ele>
        <time>2021-10-14T09:00:27Z</time>
      </trkpt>
      <trkpt lat="43.42577" lon="-0.33418">
        <ele>204.3</ele>
        <time>2021-10-14T09:00:29Z</time>
      </trkpt>
      <trkpt lat="43.42573" lon="-0.3342">
        <ele>203.9</ele>
        <time>2021-10-14T09:00:31Z</time>
      </trkpt>
      <trkpt lat="43.42566" lon="-0.33421">
        <ele>204.3</ele>
        <time>2021-10-14T09:00:34Z</time>
      </trkpt>
      <trkpt lat="43.42476" lon="-0.33443">
        <ele>206.8</ele>
        <time>2021-10-14T09:01:18Z</time>
      </trkpt>
      <trkpt lat="43.42473" lon="-0.33444">
        <ele>207.4</ele>
        <time>2021-10-14T09:01:19Z</time>
      </trkpt>
      <trkpt lat="43.42469" lon="-0.33447">
        <ele>207.7</ele>
        <time>2021-10-14T09:01:21Z</time>
      </trkpt>
      <trkpt lat="43.4246" lon="-0.33451">
        <ele>209.1</ele>
        <time>2021-10-14T09:01:25Z</time>
      </trkpt>
      <trkpt lat="43.42456" lon="-0.33454">
        <ele>209.1</ele>
        <time>2021-10-14T09:01:27Z</time>
      </trkpt>
      <trkpt lat="43.42453" lon="-0.33456">
        <ele>209.2</ele>
        <time>2021-10-14T09:01:28Z</time>
      </trkpt>
      <trkpt lat="43.42449" lon="-0.3346">
        <ele>210.6</ele>
        <time>2021-10-14T09:01:30Z</time>
      </trkpt>
      <trkpt lat="43.42447" lon="-0.33463">
        <ele>210.4</ele>
        <time>2021-10-14T09:01:31Z</time>
      </trkpt>
      <trkpt lat="43.42437" lon="-0.33481">
        <ele>211.1</ele>
        <time>2021-10-14T09:01:38Z</time>
      </trkpt>
      <trkpt lat="43.42436" lon="-0.33483">
        <ele>211</ele>
        <time>2021-10-14T09:01:39Z</time>
      </trkpt>
      <trkpt lat="43.42429" lon="-0.33489">
        <ele>211.2</ele>
        <time>2021-10-14T09:01:43Z</time>
      </trkpt>
      <trkpt lat="43.42424" lon="-0.33492">
        <ele>210.8</ele>
        <time>2021-10-14T09:01:46Z</time>
      </trkpt>
      <trkpt lat="43.42411" lon="-0.33499">
        <ele>214</ele>
        <time>2021-10-14T09:01:53Z</time>
      </trkpt>
      <trkpt lat="43.42409" lon="-0.33501">
        <ele>214.8</ele>
        <time>2021-10-14T09:01:55Z</time>
      </trkpt>
      <trkpt lat="43.42409" lon="-0.33501">
        <ele>214.6</ele>
        <time>2021-10-14T09:01:56Z</time>
      </trkpt>
      <trkpt lat="43.42405" lon="-0.33504">
        <ele>213.3</ele>
        <time>2021-10-14T09:01:59Z</time>
      </trkpt>
      <trkpt lat="43.42402" lon="-0.33506">
        <ele>213.5</ele>
        <time>2021-10-14T09:02:01Z</time>
      </trkpt>
      <trkpt lat="43.42399" lon="-0.33511">
        <ele>213.8</ele>
        <time>2021-10-14T09:02:04Z</time>
      </trkpt>
      <trkpt lat="43.42396" lon="-0.33515">
        <ele>212.9</ele>
        <time>2021-10-14T09:02:07Z</time>
      </trkpt>
      <trkpt lat="43.42395" lon="-0.33518">
        <ele>213</ele>
        <time>2021-10-14T09:02:09Z</time>
      </trkpt>
      <trkpt lat="43.42394" lon="-0.3352">
        <ele>213</ele>
        <time>2021-10-14T09:02:10Z</time>
      </trkpt>
      <trkpt lat="43.42393" lon="-0.33521">
        <ele>212.1</ele>
        <time>2021-10-14T09:02:11Z</time>
      </trkpt>
      <trkpt lat="43.42392" lon="-0.33523">
        <ele>212.1</ele>
        <time>2021-10-14T09:02:12Z</time>
      </trkpt>
      <trkpt lat="43.42391" lon="-0.33524">
        <ele>212.3</ele>
        <time>2021-10-14T09:02:13Z</time>
      </trkpt>
      <trkpt lat="43.42391" lon="-0.33526">
        <ele>210.7</ele>
        <time>2021-10-14T09:02:14Z</time>
      </trkpt>
      <trkpt lat="43.4239" lon="-0.33528">
        <ele>211.2</ele>
        <time>2021-10-14T09:02:15Z</time>
      </trkpt>
      <trkpt lat="43.4239" lon="-0.33529">
        <ele>211.2</ele>
        <time>2021-10-14T09:02:16Z</time>
      </trkpt>
      <trkpt lat="43.42389" lon="-0.3353">
        <ele>211.2</ele>
        <time>2021-10-14T09:02:17Z</time>
      </trkpt>
      <trkpt lat="43.42388" lon="-0.33531">
        <ele>210.8</ele>
        <time>2021-10-14T09:02:18Z</time>
      </trkpt>
      <trkpt lat="43.42386" lon="-0.33534">
        <ele>210.9</ele>
        <time>2021-10-14T09:02:20Z</time>
      </trkpt>
      <trkpt lat="43.42385" lon="-0.33535">
        <ele>210.9</ele>
        <time>2021-10-14T09:02:21Z</time>
      </trkpt>
      <trkpt lat="43.4238" lon="-0.33545">
        <ele>211.2</ele>
        <time>2021-10-14T09:02:27Z</time>
      </trkpt>
      <trkpt lat="43.42379" lon="-0.33548">
        <ele>212</ele>
        <time>2021-10-14T09:02:29Z</time>
      </trkpt>
      <trkpt lat="43.42378" lon="-0.3355">
        <ele>212.1</ele>
        <time>2021-10-14T09:02:30Z</time>
      </trkpt>
      <trkpt lat="43.42377" lon="-0.33551">
        <ele>212</ele>
        <time>2021-10-14T09:02:31Z</time>
      </trkpt>
      <trkpt lat="43.42376" lon="-0.33553">
        <ele>212.2</ele>
        <time>2021-10-14T09:02:33Z</time>
      </trkpt>
      <trkpt lat="43.42375" lon="-0.33555">
        <ele>212</ele>
        <time>2021-10-14T09:02:34Z</time>
      </trkpt>
      <trkpt lat="43.42374" lon="-0.33558">
        <ele>212</ele>
        <time>2021-10-14T09:02:36Z</time>
      </trkpt>
      <trkpt lat="43.42374" lon="-0.33559">
        <ele>212.4</ele>
        <time>2021-10-14T09:02:37Z</time>
      </trkpt>
      <trkpt lat="43.42373" lon="-0.3356">
        <ele>213.1</ele>
        <time>2021-10-14T09:02:38Z</time>
      </trkpt>
      <trkpt lat="43.4237" lon="-0.33565">
        <ele>213</ele>
        <time>2021-10-14T09:02:41Z</time>
      </trkpt>
      <trkpt lat="43.4237" lon="-0.33566">
        <ele>213.4</ele>
        <time>2021-10-14T09:02:42Z</time>
      </trkpt>
      <trkpt lat="43.42369" lon="-0.33568">
        <ele>213.3</ele>
        <time>2021-10-14T09:02:43Z</time>
      </trkpt>
      <trkpt lat="43.42368" lon="-0.3357">
        <ele>213.1</ele>
        <time>2021-10-14T09:02:44Z</time>
      </trkpt>
      <trkpt lat="43.42366" lon="-0.33572">
        <ele>213</ele>
        <time>2021-10-14T09:02:45Z</time>
      </trkpt>
      <trkpt lat="43.42365" lon="-0.33573">
        <ele>213.3</ele>
        <time>2021-10-14T09:02:46Z</time>
      </trkpt>
      <trkpt lat="43.42363" lon="-0.33578">
        <ele>214.6</ele>
        <time>2021-10-14T09:02:49Z</time>
      </trkpt>
      <trkpt lat="43.42362" lon="-0.33579">
        <ele>214</ele>
        <time>2021-10-14T09:02:50Z</time>
      </trkpt>
      <trkpt lat="43.42361" lon="-0.33582">
        <ele>214.3</ele>
        <time>2021-10-14T09:02:52Z</time>
      </trkpt>
      <trkpt lat="43.42359" lon="-0.33585">
        <ele>213.8</ele>
        <time>2021-10-14T09:02:54Z</time>
      </trkpt>
      <trkpt lat="43.42357" lon="-0.33588">
        <ele>214</ele>
        <time>2021-10-14T09:02:56Z</time>
      </trkpt>
      <trkpt lat="43.42354" lon="-0.33593">
        <ele>214.1</ele>
        <time>2021-10-14T09:02:59Z</time>
      </trkpt>
      <trkpt lat="43.42352" lon="-0.33598">
        <ele>214.8</ele>
        <time>2021-10-14T09:03:02Z</time>
      </trkpt>
      <trkpt lat="43.42346" lon="-0.33608">
        <ele>215.1</ele>
        <time>2021-10-14T09:03:08Z</time>
      </trkpt>
      <trkpt lat="43.42342" lon="-0.33616">
        <ele>215.1</ele>
        <time>2021-10-14T09:03:13Z</time>
      </trkpt>
      <trkpt lat="43.42338" lon="-0.33625">
        <ele>216.3</ele>
        <time>2021-10-14T09:03:19Z</time>
      </trkpt>
      <trkpt lat="43.42336" lon="-0.33627">
        <ele>215.8</ele>
        <time>2021-10-14T09:03:20Z</time>
      </trkpt>
      <trkpt lat="43.42335" lon="-0.33628">
        <ele>217.5</ele>
        <time>2021-10-14T09:03:21Z</time>
      </trkpt>
      <trkpt lat="43.42335" lon="-0.3363">
        <ele>217.3</ele>
        <time>2021-10-14T09:03:22Z</time>
      </trkpt>
      <trkpt lat="43.42334" lon="-0.33632">
        <ele>216.9</ele>
        <time>2021-10-14T09:03:23Z</time>
      </trkpt>
      <trkpt lat="43.42333" lon="-0.33634">
        <ele>218.5</ele>
        <time>2021-10-14T09:03:24Z</time>
      </trkpt>
      <trkpt lat="43.42333" lon="-0.33636">
        <ele>217.1</ele>
        <time>2021-10-14T09:03:25Z</time>
      </trkpt>
      <trkpt lat="43.42332" lon="-0.33637">
        <ele>218.2</ele>
        <time>2021-10-14T09:03:26Z</time>
      </trkpt>
      <trkpt lat="43.4233" lon="-0.33641">
        <ele>218.1</ele>
        <time>2021-10-14T09:03:28Z</time>
      </trkpt>
      <trkpt lat="43.42329" lon="-0.33642">
        <ele>218.4</ele>
        <time>2021-10-14T09:03:29Z</time>
      </trkpt>
      <trkpt lat="43.42326" lon="-0.33645">
        <ele>219.1</ele>
        <time>2021-10-14T09:03:31Z</time>
      </trkpt>
      <trkpt lat="43.42325" lon="-0.33648">
        <ele>219.1</ele>
        <time>2021-10-14T09:03:32Z</time>
      </trkpt>
      <trkpt lat="43.42323" lon="-0.33652">
        <ele>218.9</ele>
        <time>2021-10-14T09:03:34Z</time>
      </trkpt>
      <trkpt lat="43.42321" lon="-0.33657">
        <ele>220.5</ele>
        <time>2021-10-14T09:03:37Z</time>
      </trkpt>
      <trkpt lat="43.4232" lon="-0.33658">
        <ele>221</ele>
        <time>2021-10-14T09:03:38Z</time>
      </trkpt>
      <trkpt lat="43.42319" lon="-0.3366">
        <ele>221.1</ele>
        <time>2021-10-14T09:03:39Z</time>
      </trkpt>
      <trkpt lat="43.42318" lon="-0.33662">
        <ele>221.2</ele>
        <time>2021-10-14T09:03:40Z</time>
      </trkpt>
      <trkpt lat="43.42317" lon="-0.33664">
        <ele>220.9</ele>
        <time>2021-10-14T09:03:41Z</time>
      </trkpt>
      <trkpt lat="43.42315" lon="-0.33667">
        <ele>221.2</ele>
        <time>2021-10-14T09:03:43Z</time>
      </trkpt>
      <trkpt lat="43.42314" lon="-0.33668">
        <ele>221.1</ele>
        <time>2021-10-14T09:03:44Z</time>
      </trkpt>
      <trkpt lat="43.42311" lon="-0.33672">
        <ele>222.2</ele>
        <time>2021-10-14T09:03:47Z</time>
      </trkpt>
      <trkpt lat="43.42309" lon="-0.33675">
        <ele>221.3</ele>
        <time>2021-10-14T09:03:49Z</time>
      </trkpt>
      <trkpt lat="43.42308" lon="-0.33678">
        <ele>222.4</ele>
        <time>2021-10-14T09:03:51Z</time>
      </trkpt>
      <trkpt lat="43.42307" lon="-0.33681">
        <ele>222.3</ele>
        <time>2021-10-14T09:03:53Z</time>
      </trkpt>
      <trkpt lat="43.42302" lon="-0.33688">
        <ele>223.1</ele>
        <time>2021-10-14T09:03:59Z</time>
      </trkpt>
      <trkpt lat="43.423" lon="-0.33691">
        <ele>224.5</ele>
        <time>2021-10-14T09:04:01Z</time>
      </trkpt>
      <trkpt lat="43.42297" lon="-0.33695">
        <ele>224.1</ele>
        <time>2021-10-14T09:04:04Z</time>
      </trkpt>
      <trkpt lat="43.42296" lon="-0.33698">
        <ele>224.7</ele>
        <time>2021-10-14T09:04:06Z</time>
      </trkpt>
      <trkpt lat="43.42296" lon="-0.33699">
        <ele>224</ele>
        <time>2021-10-14T09:04:07Z</time>
      </trkpt>
      <trkpt lat="43.42295" lon="-0.33701">
        <ele>224.5</ele>
        <time>2021-10-14T09:04:08Z</time>
      </trkpt>
      <trkpt lat="43.42293" lon="-0.33706">
        <ele>225.3</ele>
        <time>2021-10-14T09:04:11Z</time>
      </trkpt>
      <trkpt lat="43.42277" lon="-0.33723">
        <ele>226.5</ele>
        <time>2021-10-14T09:04:25Z</time>
      </trkpt>
      <trkpt lat="43.42275" lon="-0.33726">
        <ele>226.3</ele>
        <time>2021-10-14T09:04:27Z</time>
      </trkpt>
      <trkpt lat="43.42272" lon="-0.3373">
        <ele>226.2</ele>
        <time>2021-10-14T09:04:30Z</time>
      </trkpt>
      <trkpt lat="43.42271" lon="-0.33731">
        <ele>226.2</ele>
        <time>2021-10-14T09:04:31Z</time>
      </trkpt>
      <trkpt lat="43.42266" lon="-0.33736">
        <ele>226.1</ele>
        <time>2021-10-14T09:04:34Z</time>
      </trkpt>
      <trkpt lat="43.4226" lon="-0.33746">
        <ele>227.8</ele>
        <time>2021-10-14T09:04:39Z</time>
      </trkpt>
      <trkpt lat="43.42258" lon="-0.33748">
        <ele>228.2</ele>
        <time>2021-10-14T09:04:40Z</time>
      </trkpt>
      <trkpt lat="43.42252" lon="-0.33754">
        <ele>229.3</ele>
        <time>2021-10-14T09:04:44Z</time>
      </trkpt>
      <trkpt lat="43.42246" lon="-0.33761">
        <ele>232.5</ele>
        <time>2021-10-14T09:04:48Z</time>
      </trkpt>
      <trkpt lat="43.4224" lon="-0.33766">
        <ele>233.4</ele>
        <time>2021-10-14T09:04:52Z</time>
      </trkpt>
      <trkpt lat="43.42238" lon="-0.33768">
        <ele>232.9</ele>
        <time>2021-10-14T09:04:53Z</time>
      </trkpt>
      <trkpt lat="43.42237" lon="-0.3377">
        <ele>232.9</ele>
        <time>2021-10-14T09:04:54Z</time>
      </trkpt>
      <trkpt lat="43.42231" lon="-0.33776">
        <ele>234.4</ele>
        <time>2021-10-14T09:04:58Z</time>
      </trkpt>
      <trkpt lat="43.42229" lon="-0.33777">
        <ele>235.3</ele>
        <time>2021-10-14T09:04:59Z</time>
      </trkpt>
      <trkpt lat="43.42228" lon="-0.33779">
        <ele>235.4</ele>
        <time>2021-10-14T09:05:00Z</time>
      </trkpt>
      <trkpt lat="43.4222" lon="-0.33785">
        <ele>238.4</ele>
        <time>2021-10-14T09:05:05Z</time>
      </trkpt>
      <trkpt lat="43.42216" lon="-0.3379">
        <ele>239.1</ele>
        <time>2021-10-14T09:05:08Z</time>
      </trkpt>
      <trkpt lat="43.42214" lon="-0.33791">
        <ele>240.2</ele>
        <time>2021-10-14T09:05:09Z</time>
      </trkpt>
      <trkpt lat="43.42212" lon="-0.33794">
        <ele>240.4</ele>
        <time>2021-10-14T09:05:11Z</time>
      </trkpt>
      <trkpt lat="43.4221" lon="-0.33795">
        <ele>240</ele>
        <time>2021-10-14T09:05:12Z</time>
      </trkpt>
      <trkpt lat="43.42209" lon="-0.33796">
        <ele>240</ele>
        <time>2021-10-14T09:05:13Z</time>
      </trkpt>
      <trkpt lat="43.42208" lon="-0.33797">
        <ele>241.3</ele>
        <time>2021-10-14T09:05:14Z</time>
      </trkpt>
      <trkpt lat="43.42206" lon="-0.33798">
        <ele>241.3</ele>
        <time>2021-10-14T09:05:15Z</time>
      </trkpt>
      <trkpt lat="43.42203" lon="-0.33801">
        <ele>241.1</ele>
        <time>2021-10-14T09:05:17Z</time>
      </trkpt>
      <trkpt lat="43.422" lon="-0.33803">
        <ele>241.6</ele>
        <time>2021-10-14T09:05:19Z</time>
      </trkpt>
      <trkpt lat="43.42199" lon="-0.33804">
        <ele>241.2</ele>
        <time>2021-10-14T09:05:20Z</time>
      </trkpt>
      <trkpt lat="43.42195" lon="-0.33807">
        <ele>241.9</ele>
        <time>2021-10-14T09:05:23Z</time>
      </trkpt>
      <trkpt lat="43.42194" lon="-0.33808">
        <ele>242</ele>
        <time>2021-10-14T09:05:24Z</time>
      </trkpt>
      <trkpt lat="43.42181" lon="-0.33818">
        <ele>243.8</ele>
        <time>2021-10-14T09:05:33Z</time>
      </trkpt>
      <trkpt lat="43.4218" lon="-0.3382">
        <ele>243.7</ele>
        <time>2021-10-14T09:05:34Z</time>
      </trkpt>
      <trkpt lat="43.4217" lon="-0.33829">
        <ele>244</ele>
        <time>2021-10-14T09:05:41Z</time>
      </trkpt>
      <trkpt lat="43.42166" lon="-0.33832">
        <ele>243.2</ele>
        <time>2021-10-14T09:05:44Z</time>
      </trkpt>
      <trkpt lat="43.42165" lon="-0.33832">
        <ele>243.5</ele>
        <time>2021-10-14T09:05:45Z</time>
      </trkpt>
      <trkpt lat="43.42164" lon="-0.33833">
        <ele>243.5</ele>
        <time>2021-10-14T09:05:46Z</time>
      </trkpt>
      <trkpt lat="43.42162" lon="-0.33834">
        <ele>244.2</ele>
        <time>2021-10-14T09:05:47Z</time>
      </trkpt>
      <trkpt lat="43.4216" lon="-0.33835">
        <ele>244.2</ele>
        <time>2021-10-14T09:05:49Z</time>
      </trkpt>
      <trkpt lat="43.42159" lon="-0.33836">
        <ele>244.5</ele>
        <time>2021-10-14T09:05:50Z</time>
      </trkpt>
      <trkpt lat="43.42157" lon="-0.33838">
        <ele>244</ele>
        <time>2021-10-14T09:05:52Z</time>
      </trkpt>
      <trkpt lat="43.42155" lon="-0.33839">
        <ele>245.3</ele>
        <time>2021-10-14T09:05:53Z</time>
      </trkpt>
      <trkpt lat="43.42153" lon="-0.33839">
        <ele>244.9</ele>
        <time>2021-10-14T09:05:54Z</time>
      </trkpt>
      <trkpt lat="43.42152" lon="-0.3384">
        <ele>245.8</ele>
        <time>2021-10-14T09:05:55Z</time>
      </trkpt>
      <trkpt lat="43.42146" lon="-0.33845">
        <ele>245.4</ele>
        <time>2021-10-14T09:06:00Z</time>
      </trkpt>
      <trkpt lat="43.42145" lon="-0.33846">
        <ele>244.6</ele>
        <time>2021-10-14T09:06:01Z</time>
      </trkpt>
      <trkpt lat="43.42143" lon="-0.33847">
        <ele>245</ele>
        <time>2021-10-14T09:06:02Z</time>
      </trkpt>
      <trkpt lat="43.42142" lon="-0.33847">
        <ele>245.2</ele>
        <time>2021-10-14T09:06:03Z</time>
      </trkpt>
      <trkpt lat="43.4214" lon="-0.33848">
        <ele>244.8</ele>
        <time>2021-10-14T09:06:04Z</time>
      </trkpt>
      <trkpt lat="43.42138" lon="-0.3385">
        <ele>246.2</ele>
        <time>2021-10-14T09:06:06Z</time>
      </trkpt>
      <trkpt lat="43.42137" lon="-0.33852">
        <ele>246.1</ele>
        <time>2021-10-14T09:06:07Z</time>
      </trkpt>
      <trkpt lat="43.42136" lon="-0.33853">
        <ele>246.4</ele>
        <time>2021-10-14T09:06:08Z</time>
      </trkpt>
      <trkpt lat="43.42131" lon="-0.33857">
        <ele>246.1</ele>
        <time>2021-10-14T09:06:12Z</time>
      </trkpt>
      <trkpt lat="43.4213" lon="-0.33857">
        <ele>247.1</ele>
        <time>2021-10-14T09:06:13Z</time>
      </trkpt>
      <trkpt lat="43.42127" lon="-0.3386">
        <ele>246.8</ele>
        <time>2021-10-14T09:06:16Z</time>
      </trkpt>
      <trkpt lat="43.42125" lon="-0.33862">
        <ele>247.9</ele>
        <time>2021-10-14T09:06:18Z</time>
      </trkpt>
      <trkpt lat="43.42117" lon="-0.33869">
        <ele>249.7</ele>
        <time>2021-10-14T09:06:24Z</time>
      </trkpt>
      <trkpt lat="43.42116" lon="-0.3387">
        <ele>250.4</ele>
        <time>2021-10-14T09:06:25Z</time>
      </trkpt>
      <trkpt lat="43.42115" lon="-0.33872">
        <ele>250.1</ele>
        <time>2021-10-14T09:06:26Z</time>
      </trkpt>
      <trkpt lat="43.42114" lon="-0.33874">
        <ele>251</ele>
        <time>2021-10-14T09:06:27Z</time>
      </trkpt>
      <trkpt lat="43.42113" lon="-0.33876">
        <ele>251.1</ele>
        <time>2021-10-14T09:06:28Z</time>
      </trkpt>
      <trkpt lat="43.42113" lon="-0.33877">
        <ele>251.2</ele>
        <time>2021-10-14T09:06:29Z</time>
      </trkpt>
      <trkpt lat="43.42112" lon="-0.33878">
        <ele>251.2</ele>
        <time>2021-10-14T09:06:30Z</time>
      </trkpt>
      <trkpt lat="43.4211" lon="-0.33878">
        <ele>251.3</ele>
        <time>2021-10-14T09:06:31Z</time>
      </trkpt>
      <trkpt lat="43.42109" lon="-0.33879">
        <ele>250.2</ele>
        <time>2021-10-14T09:06:32Z</time>
      </trkpt>
      <trkpt lat="43.42108" lon="-0.3388">
        <ele>251.3</ele>
        <time>2021-10-14T09:06:33Z</time>
      </trkpt>
      <trkpt lat="43.42105" lon="-0.33885">
        <ele>251.8</ele>
        <time>2021-10-14T09:06:37Z</time>
      </trkpt>
      <trkpt lat="43.42101" lon="-0.33889">
        <ele>253.8</ele>
        <time>2021-10-14T09:06:41Z</time>
      </trkpt>
      <trkpt lat="43.42101" lon="-0.33891">
        <ele>251.7</ele>
        <time>2021-10-14T09:06:42Z</time>
      </trkpt>
      <trkpt lat="43.421" lon="-0.33892">
        <ele>252.1</ele>
        <time>2021-10-14T09:06:43Z</time>
      </trkpt>
      <trkpt lat="43.42099" lon="-0.33893">
        <ele>252.3</ele>
        <time>2021-10-14T09:06:44Z</time>
      </trkpt>
      <trkpt lat="43.42097" lon="-0.33894">
        <ele>251.9</ele>
        <time>2021-10-14T09:06:45Z</time>
      </trkpt>
      <trkpt lat="43.42095" lon="-0.33897">
        <ele>251.6</ele>
        <time>2021-10-14T09:06:47Z</time>
      </trkpt>
      <trkpt lat="43.42094" lon="-0.33898">
        <ele>252.1</ele>
        <time>2021-10-14T09:06:48Z</time>
      </trkpt>
      <trkpt lat="43.42093" lon="-0.33899">
        <ele>252.3</ele>
        <time>2021-10-14T09:06:49Z</time>
      </trkpt>
      <trkpt lat="43.42091" lon="-0.33903">
        <ele>252.6</ele>
        <time>2021-10-14T09:06:52Z</time>
      </trkpt>
      <trkpt lat="43.4209" lon="-0.33905">
        <ele>252.3</ele>
        <time>2021-10-14T09:06:53Z</time>
      </trkpt>
      <trkpt lat="43.42087" lon="-0.33907">
        <ele>250.6</ele>
        <time>2021-10-14T09:06:56Z</time>
      </trkpt>
      <trkpt lat="43.42087" lon="-0.33909">
        <ele>250.9</ele>
        <time>2021-10-14T09:06:57Z</time>
      </trkpt>
      <trkpt lat="43.42086" lon="-0.3391">
        <ele>250.6</ele>
        <time>2021-10-14T09:06:58Z</time>
      </trkpt>
      <trkpt lat="43.42084" lon="-0.33913">
        <ele>250.2</ele>
        <time>2021-10-14T09:07:00Z</time>
      </trkpt>
      <trkpt lat="43.42082" lon="-0.33915">
        <ele>250.1</ele>
        <time>2021-10-14T09:07:01Z</time>
      </trkpt>
      <trkpt lat="43.42079" lon="-0.33919">
        <ele>250.1</ele>
        <time>2021-10-14T09:07:04Z</time>
      </trkpt>
      <trkpt lat="43.42077" lon="-0.33921">
        <ele>250.5</ele>
        <time>2021-10-14T09:07:05Z</time>
      </trkpt>
      <trkpt lat="43.42076" lon="-0.33923">
        <ele>250.1</ele>
        <time>2021-10-14T09:07:06Z</time>
      </trkpt>
      <trkpt lat="43.42075" lon="-0.33925">
        <ele>249.8</ele>
        <time>2021-10-14T09:07:07Z</time>
      </trkpt>
      <trkpt lat="43.42074" lon="-0.33927">
        <ele>250.3</ele>
        <time>2021-10-14T09:07:08Z</time>
      </trkpt>
      <trkpt lat="43.42073" lon="-0.33928">
        <ele>250.1</ele>
        <time>2021-10-14T09:07:09Z</time>
      </trkpt>
      <trkpt lat="43.42072" lon="-0.3393">
        <ele>251.4</ele>
        <time>2021-10-14T09:07:10Z</time>
      </trkpt>
      <trkpt lat="43.4207" lon="-0.33931">
        <ele>251</ele>
        <time>2021-10-14T09:07:11Z</time>
      </trkpt>
      <trkpt lat="43.42069" lon="-0.33932">
        <ele>251.3</ele>
        <time>2021-10-14T09:07:12Z</time>
      </trkpt>
      <trkpt lat="43.42068" lon="-0.33934">
        <ele>252.2</ele>
        <time>2021-10-14T09:07:13Z</time>
      </trkpt>
      <trkpt lat="43.42066" lon="-0.33936">
        <ele>253.4</ele>
        <time>2021-10-14T09:07:15Z</time>
      </trkpt>
      <trkpt lat="43.42065" lon="-0.33937">
        <ele>254.4</ele>
        <time>2021-10-14T09:07:16Z</time>
      </trkpt>
      <trkpt lat="43.42063" lon="-0.33939">
        <ele>254</ele>
        <time>2021-10-14T09:07:17Z</time>
      </trkpt>
      <trkpt lat="43.42058" lon="-0.33947">
        <ele>255.7</ele>
        <time>2021-10-14T09:07:22Z</time>
      </trkpt>
      <trkpt lat="43.42057" lon="-0.33948">
        <ele>255.5</ele>
        <time>2021-10-14T09:07:23Z</time>
      </trkpt>
      <trkpt lat="43.42056" lon="-0.3395">
        <ele>256.1</ele>
        <time>2021-10-14T09:07:24Z</time>
      </trkpt>
      <trkpt lat="43.42054" lon="-0.33957">
        <ele>256.1</ele>
        <time>2021-10-14T09:07:28Z</time>
      </trkpt>
      <trkpt lat="43.42053" lon="-0.33962">
        <ele>256.2</ele>
        <time>2021-10-14T09:07:31Z</time>
      </trkpt>
      <trkpt lat="43.42053" lon="-0.33966">
        <ele>257.3</ele>
        <time>2021-10-14T09:07:33Z</time>
      </trkpt>
      <trkpt lat="43.42052" lon="-0.33973">
        <ele>258.1</ele>
        <time>2021-10-14T09:07:36Z</time>
      </trkpt>
      <trkpt lat="43.42052" lon="-0.33977">
        <ele>259</ele>
        <time>2021-10-14T09:07:38Z</time>
      </trkpt>
      <trkpt lat="43.4205" lon="-0.33986">
        <ele>260.2</ele>
        <time>2021-10-14T09:07:42Z</time>
      </trkpt>
      <trkpt lat="43.42049" lon="-0.3399">
        <ele>261.2</ele>
        <time>2021-10-14T09:07:44Z</time>
      </trkpt>
      <trkpt lat="43.42048" lon="-0.33996">
        <ele>262</ele>
        <time>2021-10-14T09:07:47Z</time>
      </trkpt>
      <trkpt lat="43.42048" lon="-0.34004">
        <ele>263.3</ele>
        <time>2021-10-14T09:07:51Z</time>
      </trkpt>
      <trkpt lat="43.42047" lon="-0.34012">
        <ele>264</ele>
        <time>2021-10-14T09:07:55Z</time>
      </trkpt>
      <trkpt lat="43.42046" lon="-0.34014">
        <ele>263.9</ele>
        <time>2021-10-14T09:07:56Z</time>
      </trkpt>
      <trkpt lat="43.42046" lon="-0.34016">
        <ele>264</ele>
        <time>2021-10-14T09:07:57Z</time>
      </trkpt>
      <trkpt lat="43.42041" lon="-0.34038">
        <ele>262</ele>
        <time>2021-10-14T09:08:09Z</time>
      </trkpt>
      <trkpt lat="43.42039" lon="-0.34045">
        <ele>262.3</ele>
        <time>2021-10-14T09:08:13Z</time>
      </trkpt>
      <trkpt lat="43.42038" lon="-0.34046">
        <ele>261.9</ele>
        <time>2021-10-14T09:08:14Z</time>
      </trkpt>
      <trkpt lat="43.42038" lon="-0.34047">
        <ele>261.9</ele>
        <time>2021-10-14T09:08:15Z</time>
      </trkpt>
      <trkpt lat="43.42038" lon="-0.34049">
        <ele>262.3</ele>
        <time>2021-10-14T09:08:16Z</time>
      </trkpt>
      <trkpt lat="43.42037" lon="-0.3405">
        <ele>260.9</ele>
        <time>2021-10-14T09:08:17Z</time>
      </trkpt>
      <trkpt lat="43.42036" lon="-0.34052">
        <ele>261.1</ele>
        <time>2021-10-14T09:08:18Z</time>
      </trkpt>
      <trkpt lat="43.42035" lon="-0.34055">
        <ele>261</ele>
        <time>2021-10-14T09:08:20Z</time>
      </trkpt>
      <trkpt lat="43.42033" lon="-0.34061">
        <ele>261.3</ele>
        <time>2021-10-14T09:08:23Z</time>
      </trkpt>
      <trkpt lat="43.42033" lon="-0.34062">
        <ele>260.9</ele>
        <time>2021-10-14T09:08:24Z</time>
      </trkpt>
      <trkpt lat="43.42031" lon="-0.34068">
        <ele>259.9</ele>
        <time>2021-10-14T09:08:27Z</time>
      </trkpt>
      <trkpt lat="43.42029" lon="-0.34073">
        <ele>261.1</ele>
        <time>2021-10-14T09:08:30Z</time>
      </trkpt>
      <trkpt lat="43.42027" lon="-0.34077">
        <ele>260.9</ele>
        <time>2021-10-14T09:08:32Z</time>
      </trkpt>
      <trkpt lat="43.42025" lon="-0.3408">
        <ele>261</ele>
        <time>2021-10-14T09:08:34Z</time>
      </trkpt>
      <trkpt lat="43.42017" lon="-0.34092">
        <ele>261.2</ele>
        <time>2021-10-14T09:08:41Z</time>
      </trkpt>
      <trkpt lat="43.42015" lon="-0.34096">
        <ele>261.3</ele>
        <time>2021-10-14T09:08:43Z</time>
      </trkpt>
      <trkpt lat="43.42011" lon="-0.34102">
        <ele>261.3</ele>
        <time>2021-10-14T09:08:46Z</time>
      </trkpt>
      <trkpt lat="43.4201" lon="-0.34104">
        <ele>261.2</ele>
        <time>2021-10-14T09:08:47Z</time>
      </trkpt>
      <trkpt lat="43.4195" lon="-0.34201">
        <ele>266</ele>
        <time>2021-10-14T09:09:27Z</time>
      </trkpt>
      <trkpt lat="43.41929" lon="-0.34241">
        <ele>266.8</ele>
        <time>2021-10-14T09:09:40Z</time>
      </trkpt>
      <trkpt lat="43.41898" lon="-0.34329">
        <ele>267.4</ele>
        <time>2021-10-14T09:10:09Z</time>
      </trkpt>
      <trkpt lat="43.41896" lon="-0.34331">
        <ele>267</ele>
        <time>2021-10-14T09:10:10Z</time>
      </trkpt>
      <trkpt lat="43.41895" lon="-0.34332">
        <ele>268.4</ele>
        <time>2021-10-14T09:10:11Z</time>
      </trkpt>
      <trkpt lat="43.41893" lon="-0.34333">
        <ele>268.8</ele>
        <time>2021-10-14T09:10:12Z</time>
      </trkpt>
      <trkpt lat="43.4189" lon="-0.34332">
        <ele>268</ele>
        <time>2021-10-14T09:10:13Z</time>
      </trkpt>
      <trkpt lat="43.41874" lon="-0.34319">
        <ele>270.3</ele>
        <time>2021-10-14T09:10:21Z</time>
      </trkpt>
      <trkpt lat="43.41874" lon="-0.34319">
        <ele>271.1</ele>
        <time>2021-10-14T09:10:22Z</time>
      </trkpt>
      <trkpt lat="43.41874" lon="-0.34319">
        <ele>271.1</ele>
        <time>2021-10-14T09:10:23Z</time>
      </trkpt>
      <trkpt lat="43.41874" lon="-0.34319">
        <ele>270.9</ele>
        <time>2021-10-14T09:10:24Z</time>
      </trkpt>
      <trkpt lat="43.41875" lon="-0.34319">
        <ele>271.4</ele>
        <time>2021-10-14T09:10:25Z</time>
      </trkpt>
      <trkpt lat="43.41875" lon="-0.34319">
        <ele>271</ele>
        <time>2021-10-14T09:10:26Z</time>
      </trkpt>
      <trkpt lat="43.41875" lon="-0.34319">
        <ele>270.8</ele>
        <time>2021-10-14T09:10:28Z</time>
      </trkpt>
      <trkpt lat="43.41875" lon="-0.34319">
        <ele>271.2</ele>
        <time>2021-10-14T09:10:29Z</time>
      </trkpt>
      <trkpt lat="43.41875" lon="-0.34319">
        <ele>270.9</ele>
        <time>2021-10-14T09:11:41Z</time>
      </trkpt>
      <trkpt lat="43.41874" lon="-0.3432">
        <ele>272.4</ele>
        <time>2021-10-14T09:11:47Z</time>
      </trkpt>
      <trkpt lat="43.41874" lon="-0.3432">
        <ele>271.9</ele>
        <time>2021-10-14T09:12:38Z</time>
      </trkpt>
      <trkpt lat="43.41874" lon="-0.3432">
        <ele>271.3</ele>
        <time>2021-10-14T09:12:39Z</time>
      </trkpt>
      <trkpt lat="43.41872" lon="-0.34319">
        <ele>272.2</ele>
        <time>2021-10-14T09:12:41Z</time>
      </trkpt>
      <trkpt lat="43.41871" lon="-0.34318">
        <ele>272.3</ele>
        <time>2021-10-14T09:12:42Z</time>
      </trkpt>
      <trkpt lat="43.4187" lon="-0.34316">
        <ele>272.1</ele>
        <time>2021-10-14T09:12:43Z</time>
      </trkpt>
      <trkpt lat="43.41868" lon="-0.34314">
        <ele>272.8</ele>
        <time>2021-10-14T09:12:44Z</time>
      </trkpt>
      <trkpt lat="43.41865" lon="-0.34313">
        <ele>273</ele>
        <time>2021-10-14T09:12:45Z</time>
      </trkpt>
      <trkpt lat="43.41863" lon="-0.34311">
        <ele>273.3</ele>
        <time>2021-10-14T09:12:46Z</time>
      </trkpt>
      <trkpt lat="43.41858" lon="-0.34307">
        <ele>273.4</ele>
        <time>2021-10-14T09:12:48Z</time>
      </trkpt>
      <trkpt lat="43.4184" lon="-0.34293">
        <ele>274</ele>
        <time>2021-10-14T09:12:53Z</time>
      </trkpt>
      <trkpt lat="43.41827" lon="-0.34279">
        <ele>273.4</ele>
        <time>2021-10-14T09:12:56Z</time>
      </trkpt>
      <trkpt lat="43.41823" lon="-0.34273">
        <ele>273.4</ele>
        <time>2021-10-14T09:12:57Z</time>
      </trkpt>
      <trkpt lat="43.41819" lon="-0.34267">
        <ele>272.8</ele>
        <time>2021-10-14T09:12:58Z</time>
      </trkpt>
      <trkpt lat="43.41817" lon="-0.34261">
        <ele>274.2</ele>
        <time>2021-10-14T09:12:59Z</time>
      </trkpt>
      <trkpt lat="43.41813" lon="-0.34249">
        <ele>273.3</ele>
        <time>2021-10-14T09:13:01Z</time>
      </trkpt>
      <trkpt lat="43.4181" lon="-0.34234">
        <ele>273</ele>
        <time>2021-10-14T09:13:03Z</time>
      </trkpt>
      <trkpt lat="43.41808" lon="-0.34219">
        <ele>274</ele>
        <time>2021-10-14T09:13:05Z</time>
      </trkpt>
      <trkpt lat="43.418" lon="-0.34186">
        <ele>273</ele>
        <time>2021-10-14T09:13:10Z</time>
      </trkpt>
      <trkpt lat="43.41795" lon="-0.34174">
        <ele>273.1</ele>
        <time>2021-10-14T09:13:12Z</time>
      </trkpt>
      <trkpt lat="43.41793" lon="-0.34168">
        <ele>273</ele>
        <time>2021-10-14T09:13:13Z</time>
      </trkpt>
      <trkpt lat="43.41784" lon="-0.34154">
        <ele>273.3</ele>
        <time>2021-10-14T09:13:16Z</time>
      </trkpt>
      <trkpt lat="43.41781" lon="-0.34151">
        <ele>272.9</ele>
        <time>2021-10-14T09:13:17Z</time>
      </trkpt>
      <trkpt lat="43.41777" lon="-0.34148">
        <ele>273.1</ele>
        <time>2021-10-14T09:13:18Z</time>
      </trkpt>
      <trkpt lat="43.4177" lon="-0.34143">
        <ele>272.7</ele>
        <time>2021-10-14T09:13:20Z</time>
      </trkpt>
      <trkpt lat="43.41768" lon="-0.34144">
        <ele>272.7</ele>
        <time>2021-10-14T09:13:21Z</time>
      </trkpt>
      <trkpt lat="43.41766" lon="-0.34138">
        <ele>272.3</ele>
        <time>2021-10-14T09:13:22Z</time>
      </trkpt>
      <trkpt lat="43.41763" lon="-0.34133">
        <ele>272.2</ele>
        <time>2021-10-14T09:13:23Z</time>
      </trkpt>
      <trkpt lat="43.41754" lon="-0.34127">
        <ele>271.2</ele>
        <time>2021-10-14T09:13:25Z</time>
      </trkpt>
      <trkpt lat="43.4175" lon="-0.34125">
        <ele>271.3</ele>
        <time>2021-10-14T09:13:26Z</time>
      </trkpt>
      <trkpt lat="43.41746" lon="-0.34123">
        <ele>271.3</ele>
        <time>2021-10-14T09:13:27Z</time>
      </trkpt>
      <trkpt lat="43.41736" lon="-0.34115">
        <ele>270.6</ele>
        <time>2021-10-14T09:13:30Z</time>
      </trkpt>
      <trkpt lat="43.41731" lon="-0.3411">
        <ele>269.2</ele>
        <time>2021-10-14T09:13:32Z</time>
      </trkpt>
      <trkpt lat="43.41728" lon="-0.34108">
        <ele>269.2</ele>
        <time>2021-10-14T09:13:33Z</time>
      </trkpt>
      <trkpt lat="43.41723" lon="-0.34103">
        <ele>269</ele>
        <time>2021-10-14T09:13:35Z</time>
      </trkpt>
      <trkpt lat="43.41722" lon="-0.34104">
        <ele>268.2</ele>
        <time>2021-10-14T09:13:36Z</time>
      </trkpt>
      <trkpt lat="43.41722" lon="-0.34104">
        <ele>268.2</ele>
        <time>2021-10-14T09:13:37Z</time>
      </trkpt>
      <trkpt lat="43.41724" lon="-0.34103">
        <ele>268.1</ele>
        <time>2021-10-14T09:13:38Z</time>
      </trkpt>
      <trkpt lat="43.41724" lon="-0.34103">
        <ele>267.7</ele>
        <time>2021-10-14T09:13:39Z</time>
      </trkpt>
      <trkpt lat="43.41726" lon="-0.34105">
        <ele>269</ele>
        <time>2021-10-14T09:13:40Z</time>
      </trkpt>
      <trkpt lat="43.41726" lon="-0.34107">
        <ele>270</ele>
        <time>2021-10-14T09:13:41Z</time>
      </trkpt>
      <trkpt lat="43.41727" lon="-0.34108">
        <ele>269.3</ele>
        <time>2021-10-14T09:13:42Z</time>
      </trkpt>
      <trkpt lat="43.41727" lon="-0.34109">
        <ele>269.3</ele>
        <time>2021-10-14T09:13:42Z</time>
      </trkpt>
      <trkpt lat="43.41728" lon="-0.3411">
        <ele>269.8</ele>
        <time>2021-10-14T09:13:44Z</time>
      </trkpt>
      <trkpt lat="43.41729" lon="-0.34111">
        <ele>270.4</ele>
        <time>2021-10-14T09:13:45Z</time>
      </trkpt>
      <trkpt lat="43.41733" lon="-0.34113">
        <ele>269</ele>
        <time>2021-10-14T09:13:47Z</time>
      </trkpt>
      <trkpt lat="43.41734" lon="-0.34113">
        <ele>269</ele>
        <time>2021-10-14T09:13:48Z</time>
      </trkpt>
      <trkpt lat="43.41736" lon="-0.34114">
        <ele>269.4</ele>
        <time>2021-10-14T09:13:49Z</time>
      </trkpt>
      <trkpt lat="43.41738" lon="-0.34114">
        <ele>268</ele>
        <time>2021-10-14T09:13:49Z</time>
      </trkpt>
      <trkpt lat="43.41739" lon="-0.34116">
        <ele>268.4</ele>
        <time>2021-10-14T09:13:50Z</time>
      </trkpt>
      <trkpt lat="43.41741" lon="-0.34118">
        <ele>266.8</ele>
        <time>2021-10-14T09:13:52Z</time>
      </trkpt>
      <trkpt lat="43.41742" lon="-0.34119">
        <ele>266.8</ele>
        <time>2021-10-14T09:13:53Z</time>
      </trkpt>
      <trkpt lat="43.41744" lon="-0.34121">
        <ele>267</ele>
        <time>2021-10-14T09:13:54Z</time>
      </trkpt>
      <trkpt lat="43.41746" lon="-0.34122">
        <ele>266.1</ele>
        <time>2021-10-14T09:13:54Z</time>
      </trkpt>
      <trkpt lat="43.41747" lon="-0.34122">
        <ele>266.2</ele>
        <time>2021-10-14T09:13:55Z</time>
      </trkpt>
      <trkpt lat="43.41748" lon="-0.34123">
        <ele>266.2</ele>
        <time>2021-10-14T09:13:56Z</time>
      </trkpt>
      <trkpt lat="43.41751" lon="-0.34124">
        <ele>265.4</ele>
        <time>2021-10-14T09:13:57Z</time>
      </trkpt>
      <trkpt lat="43.41758" lon="-0.34129">
        <ele>264.2</ele>
        <time>2021-10-14T09:14:00Z</time>
      </trkpt>
      <trkpt lat="43.41763" lon="-0.34134">
        <ele>264.1</ele>
        <time>2021-10-14T09:14:02Z</time>
      </trkpt>
      <trkpt lat="43.41765" lon="-0.34136">
        <ele>263.3</ele>
        <time>2021-10-14T09:14:03Z</time>
      </trkpt>
      <trkpt lat="43.41768" lon="-0.34142">
        <ele>263.2</ele>
        <time>2021-10-14T09:14:05Z</time>
      </trkpt>
      <trkpt lat="43.41769" lon="-0.34145">
        <ele>263.3</ele>
        <time>2021-10-14T09:14:06Z</time>
      </trkpt>
      <trkpt lat="43.41769" lon="-0.34147">
        <ele>263.3</ele>
        <time>2021-10-14T09:14:07Z</time>
      </trkpt>
      <trkpt lat="43.41769" lon="-0.34149">
        <ele>263.4</ele>
        <time>2021-10-14T09:14:08Z</time>
      </trkpt>
      <trkpt lat="43.41767" lon="-0.34155">
        <ele>263.3</ele>
        <time>2021-10-14T09:14:10Z</time>
      </trkpt>
      <trkpt lat="43.41765" lon="-0.34158">
        <ele>263.3</ele>
        <time>2021-10-14T09:14:11Z</time>
      </trkpt>
      <trkpt lat="43.41763" lon="-0.3416">
        <ele>261.7</ele>
        <time>2021-10-14T09:14:12Z</time>
      </trkpt>
      <trkpt lat="43.41757" lon="-0.34165">
        <ele>262.3</ele>
        <time>2021-10-14T09:14:14Z</time>
      </trkpt>
      <trkpt lat="43.41755" lon="-0.34167">
        <ele>262.3</ele>
        <time>2021-10-14T09:14:15Z</time>
      </trkpt>
      <trkpt lat="43.41753" lon="-0.34171">
        <ele>262.4</ele>
        <time>2021-10-14T09:14:16Z</time>
      </trkpt>
      <trkpt lat="43.4175" lon="-0.34173">
        <ele>262.1</ele>
        <time>2021-10-14T09:14:18Z</time>
      </trkpt>
      <trkpt lat="43.41747" lon="-0.34177">
        <ele>262.4</ele>
        <time>2021-10-14T09:14:20Z</time>
      </trkpt>
      <trkpt lat="43.41746" lon="-0.34179">
        <ele>263.1</ele>
        <time>2021-10-14T09:14:21Z</time>
      </trkpt>
      <trkpt lat="43.41745" lon="-0.3418">
        <ele>263.1</ele>
        <time>2021-10-14T09:14:22Z</time>
      </trkpt>
      <trkpt lat="43.4173" lon="-0.34194">
        <ele>266.4</ele>
        <time>2021-10-14T09:14:31Z</time>
      </trkpt>
      <trkpt lat="43.41727" lon="-0.34199">
        <ele>266.1</ele>
        <time>2021-10-14T09:14:33Z</time>
      </trkpt>
      <trkpt lat="43.41721" lon="-0.34206">
        <ele>266</ele>
        <time>2021-10-14T09:14:37Z</time>
      </trkpt>
      <trkpt lat="43.4172" lon="-0.34207">
        <ele>267.3</ele>
        <time>2021-10-14T09:14:38Z</time>
      </trkpt>
      <trkpt lat="43.41714" lon="-0.34211">
        <ele>267.1</ele>
        <time>2021-10-14T09:14:40Z</time>
      </trkpt>
      <trkpt lat="43.41713" lon="-0.34212">
        <ele>267.5</ele>
        <time>2021-10-14T09:14:41Z</time>
      </trkpt>
      <trkpt lat="43.4171" lon="-0.34215">
        <ele>268.3</ele>
        <time>2021-10-14T09:14:43Z</time>
      </trkpt>
      <trkpt lat="43.41708" lon="-0.34218">
        <ele>267.4</ele>
        <time>2021-10-14T09:14:44Z</time>
      </trkpt>
      <trkpt lat="43.41705" lon="-0.34221">
        <ele>267.9</ele>
        <time>2021-10-14T09:14:46Z</time>
      </trkpt>
      <trkpt lat="43.41704" lon="-0.34222">
        <ele>269</ele>
        <time>2021-10-14T09:14:47Z</time>
      </trkpt>
      <trkpt lat="43.417" lon="-0.34226">
        <ele>269</ele>
        <time>2021-10-14T09:14:49Z</time>
      </trkpt>
      <trkpt lat="43.41692" lon="-0.34238">
        <ele>271.2</ele>
        <time>2021-10-14T09:14:53Z</time>
      </trkpt>
      <trkpt lat="43.41685" lon="-0.34244">
        <ele>272.3</ele>
        <time>2021-10-14T09:14:56Z</time>
      </trkpt>
      <trkpt lat="43.41684" lon="-0.34246">
        <ele>272.1</ele>
        <time>2021-10-14T09:14:56Z</time>
      </trkpt>
      <trkpt lat="43.4167" lon="-0.3426">
        <ele>272.8</ele>
        <time>2021-10-14T09:15:03Z</time>
      </trkpt>
      <trkpt lat="43.41668" lon="-0.34261">
        <ele>274.1</ele>
        <time>2021-10-14T09:15:04Z</time>
      </trkpt>
      <trkpt lat="43.41666" lon="-0.34265">
        <ele>274.1</ele>
        <time>2021-10-14T09:15:06Z</time>
      </trkpt>
      <trkpt lat="43.41665" lon="-0.34267">
        <ele>274.9</ele>
        <time>2021-10-14T09:15:07Z</time>
      </trkpt>
      <trkpt lat="43.41662" lon="-0.34269">
        <ele>275.7</ele>
        <time>2021-10-14T09:15:07Z</time>
      </trkpt>
      <trkpt lat="43.41658" lon="-0.34272">
        <ele>275.5</ele>
        <time>2021-10-14T09:15:09Z</time>
      </trkpt>
      <trkpt lat="43.41656" lon="-0.34273">
        <ele>275.5</ele>
        <time>2021-10-14T09:15:10Z</time>
      </trkpt>
      <trkpt lat="43.41654" lon="-0.34274">
        <ele>274.9</ele>
        <time>2021-10-14T09:15:11Z</time>
      </trkpt>
      <trkpt lat="43.41651" lon="-0.34273">
        <ele>275.4</ele>
        <time>2021-10-14T09:15:13Z</time>
      </trkpt>
      <trkpt lat="43.41649" lon="-0.34272">
        <ele>276.4</ele>
        <time>2021-10-14T09:15:14Z</time>
      </trkpt>
      <trkpt lat="43.41645" lon="-0.34268">
        <ele>276</ele>
        <time>2021-10-14T09:15:16Z</time>
      </trkpt>
      <trkpt lat="43.41643" lon="-0.34266">
        <ele>276.4</ele>
        <time>2021-10-14T09:15:17Z</time>
      </trkpt>
      <trkpt lat="43.41642" lon="-0.34265">
        <ele>276.4</ele>
        <time>2021-10-14T09:15:18Z</time>
      </trkpt>
      <trkpt lat="43.41642" lon="-0.34264">
        <ele>276.2</ele>
        <time>2021-10-14T09:15:19Z</time>
      </trkpt>
      <trkpt lat="43.4164" lon="-0.34263">
        <ele>276.3</ele>
        <time>2021-10-14T09:15:20Z</time>
      </trkpt>
      <trkpt lat="43.41637" lon="-0.34261">
        <ele>275.1</ele>
        <time>2021-10-14T09:15:23Z</time>
      </trkpt>
      <trkpt lat="43.41636" lon="-0.3426">
        <ele>276.1</ele>
        <time>2021-10-14T09:15:24Z</time>
      </trkpt>
      <trkpt lat="43.41633" lon="-0.34257">
        <ele>275.1</ele>
        <time>2021-10-14T09:15:26Z</time>
      </trkpt>
      <trkpt lat="43.41632" lon="-0.34256">
        <ele>275.1</ele>
        <time>2021-10-14T09:15:27Z</time>
      </trkpt>
      <trkpt lat="43.41607" lon="-0.34251">
        <ele>277.3</ele>
        <time>2021-10-14T09:15:33Z</time>
      </trkpt>
      <trkpt lat="43.41603" lon="-0.34249">
        <ele>277.8</ele>
        <time>2021-10-14T09:15:34Z</time>
      </trkpt>
      <trkpt lat="43.41601" lon="-0.34248">
        <ele>277.4</ele>
        <time>2021-10-14T09:15:35Z</time>
      </trkpt>
      <trkpt lat="43.4159" lon="-0.34239">
        <ele>277.9</ele>
        <time>2021-10-14T09:15:37Z</time>
      </trkpt>
      <trkpt lat="43.41562" lon="-0.34202">
        <ele>279.2</ele>
        <time>2021-10-14T09:15:48Z</time>
      </trkpt>
      <trkpt lat="43.41558" lon="-0.34199">
        <ele>278.8</ele>
        <time>2021-10-14T09:15:49Z</time>
      </trkpt>
      <trkpt lat="43.41555" lon="-0.34195">
        <ele>279.3</ele>
        <time>2021-10-14T09:15:51Z</time>
      </trkpt>
      <trkpt lat="43.41552" lon="-0.34192">
        <ele>279.3</ele>
        <time>2021-10-14T09:15:52Z</time>
      </trkpt>
      <trkpt lat="43.41548" lon="-0.34188">
        <ele>279.1</ele>
        <time>2021-10-14T09:15:53Z</time>
      </trkpt>
      <trkpt lat="43.41546" lon="-0.34186">
        <ele>279.1</ele>
        <time>2021-10-14T09:15:54Z</time>
      </trkpt>
      <trkpt lat="43.41536" lon="-0.34177">
        <ele>278.2</ele>
        <time>2021-10-14T09:15:57Z</time>
      </trkpt>
      <trkpt lat="43.4153" lon="-0.34169">
        <ele>278.2</ele>
        <time>2021-10-14T09:16:00Z</time>
      </trkpt>
      <trkpt lat="43.41522" lon="-0.34161">
        <ele>278.2</ele>
        <time>2021-10-14T09:16:03Z</time>
      </trkpt>
      <trkpt lat="43.41519" lon="-0.34157">
        <ele>278.2</ele>
        <time>2021-10-14T09:16:04Z</time>
      </trkpt>
      <trkpt lat="43.41518" lon="-0.34156">
        <ele>278.2</ele>
        <time>2021-10-14T09:16:05Z</time>
      </trkpt>
      <trkpt lat="43.41515" lon="-0.34154">
        <ele>276.9</ele>
        <time>2021-10-14T09:16:06Z</time>
      </trkpt>
      <trkpt lat="43.41512" lon="-0.34152">
        <ele>276.8</ele>
        <time>2021-10-14T09:16:07Z</time>
      </trkpt>
      <trkpt lat="43.41504" lon="-0.34143">
        <ele>277.1</ele>
        <time>2021-10-14T09:16:10Z</time>
      </trkpt>
      <trkpt lat="43.41501" lon="-0.3414">
        <ele>278</ele>
        <time>2021-10-14T09:16:11Z</time>
      </trkpt>
      <trkpt lat="43.41499" lon="-0.34138">
        <ele>277.1</ele>
        <time>2021-10-14T09:16:12Z</time>
      </trkpt>
      <trkpt lat="43.41498" lon="-0.34137">
        <ele>277.1</ele>
        <time>2021-10-14T09:16:13Z</time>
      </trkpt>
      <trkpt lat="43.41496" lon="-0.34139">
        <ele>277</ele>
        <time>2021-10-14T09:16:14Z</time>
      </trkpt>
      <trkpt lat="43.41494" lon="-0.34148">
        <ele>277.2</ele>
        <time>2021-10-14T09:16:16Z</time>
      </trkpt>
      <trkpt lat="43.41492" lon="-0.3415">
        <ele>277.5</ele>
        <time>2021-10-14T09:16:17Z</time>
      </trkpt>
      <trkpt lat="43.41488" lon="-0.34148">
        <ele>277.4</ele>
        <time>2021-10-14T09:16:18Z</time>
      </trkpt>
      <trkpt lat="43.41485" lon="-0.34146">
        <ele>277.2</ele>
        <time>2021-10-14T09:16:19Z</time>
      </trkpt>
      <trkpt lat="43.41478" lon="-0.34143">
        <ele>277.1</ele>
        <time>2021-10-14T09:16:21Z</time>
      </trkpt>
      <trkpt lat="43.41477" lon="-0.34142">
        <ele>278.3</ele>
        <time>2021-10-14T09:16:21Z</time>
      </trkpt>
      <trkpt lat="43.41475" lon="-0.34142">
        <ele>278.3</ele>
        <time>2021-10-14T09:16:22Z</time>
      </trkpt>
      <trkpt lat="43.41471" lon="-0.34143">
        <ele>278.3</ele>
        <time>2021-10-14T09:16:23Z</time>
      </trkpt>
      <trkpt lat="43.41468" lon="-0.34143">
        <ele>278.9</ele>
        <time>2021-10-14T09:16:24Z</time>
      </trkpt>
      <trkpt lat="43.41463" lon="-0.34143">
        <ele>278.9</ele>
        <time>2021-10-14T09:16:26Z</time>
      </trkpt>
      <trkpt lat="43.41461" lon="-0.34144">
        <ele>278.9</ele>
        <time>2021-10-14T09:16:27Z</time>
      </trkpt>
      <trkpt lat="43.41457" lon="-0.34146">
        <ele>279.4</ele>
        <time>2021-10-14T09:16:28Z</time>
      </trkpt>
      <trkpt lat="43.41451" lon="-0.34149">
        <ele>279.1</ele>
        <time>2021-10-14T09:16:30Z</time>
      </trkpt>
      <trkpt lat="43.41447" lon="-0.34151">
        <ele>279.1</ele>
        <time>2021-10-14T09:16:31Z</time>
      </trkpt>
      <trkpt lat="43.41444" lon="-0.34153">
        <ele>279.2</ele>
        <time>2021-10-14T09:16:32Z</time>
      </trkpt>
      <trkpt lat="43.41357" lon="-0.34202">
        <ele>277.9</ele>
        <time>2021-10-14T09:16:51Z</time>
      </trkpt>
      <trkpt lat="43.4135" lon="-0.34209">
        <ele>278.2</ele>
        <time>2021-10-14T09:16:53Z</time>
      </trkpt>
      <trkpt lat="43.41347" lon="-0.34213">
        <ele>278.3</ele>
        <time>2021-10-14T09:16:54Z</time>
      </trkpt>
      <trkpt lat="43.41345" lon="-0.34215">
        <ele>278.3</ele>
        <time>2021-10-14T09:16:55Z</time>
      </trkpt>
      <trkpt lat="43.41342" lon="-0.34219">
        <ele>278.1</ele>
        <time>2021-10-14T09:16:56Z</time>
      </trkpt>
      <trkpt lat="43.4134" lon="-0.34225">
        <ele>277.2</ele>
        <time>2021-10-14T09:16:57Z</time>
      </trkpt>
      <trkpt lat="43.41337" lon="-0.34234">
        <ele>276.2</ele>
        <time>2021-10-14T09:16:58Z</time>
      </trkpt>
      <trkpt lat="43.41325" lon="-0.34259">
        <ele>275.1</ele>
        <time>2021-10-14T09:17:02Z</time>
      </trkpt>
      <trkpt lat="43.41294" lon="-0.34298">
        <ele>273</ele>
        <time>2021-10-14T09:17:09Z</time>
      </trkpt>
      <trkpt lat="43.4129" lon="-0.34304">
        <ele>272.9</ele>
        <time>2021-10-14T09:17:10Z</time>
      </trkpt>
      <trkpt lat="43.41269" lon="-0.34331">
        <ele>270.2</ele>
        <time>2021-10-14T09:17:15Z</time>
      </trkpt>
      <trkpt lat="43.41255" lon="-0.34344">
        <ele>271.3</ele>
        <time>2021-10-14T09:17:18Z</time>
      </trkpt>
      <trkpt lat="43.41246" lon="-0.3435">
        <ele>272.2</ele>
        <time>2021-10-14T09:17:20Z</time>
      </trkpt>
      <trkpt lat="43.41237" lon="-0.34361">
        <ele>273.2</ele>
        <time>2021-10-14T09:17:23Z</time>
      </trkpt>
      <trkpt lat="43.41234" lon="-0.34363">
        <ele>273</ele>
        <time>2021-10-14T09:17:24Z</time>
      </trkpt>
      <trkpt lat="43.4123" lon="-0.34366">
        <ele>273.1</ele>
        <time>2021-10-14T09:17:25Z</time>
      </trkpt>
      <trkpt lat="43.41227" lon="-0.34366">
        <ele>273.2</ele>
        <time>2021-10-14T09:17:26Z</time>
      </trkpt>
      <trkpt lat="43.41224" lon="-0.34368">
        <ele>273.1</ele>
        <time>2021-10-14T09:17:27Z</time>
      </trkpt>
      <trkpt lat="43.41221" lon="-0.3437">
        <ele>273.3</ele>
        <time>2021-10-14T09:17:28Z</time>
      </trkpt>
      <trkpt lat="43.41219" lon="-0.34373">
        <ele>273.2</ele>
        <time>2021-10-14T09:17:29Z</time>
      </trkpt>
      <trkpt lat="43.41219" lon="-0.34375">
        <ele>273.1</ele>
        <time>2021-10-14T09:17:30Z</time>
      </trkpt>
      <trkpt lat="43.41216" lon="-0.34378">
        <ele>273.3</ele>
        <time>2021-10-14T09:17:31Z</time>
      </trkpt>
      <trkpt lat="43.41208" lon="-0.34382">
        <ele>273</ele>
        <time>2021-10-14T09:17:34Z</time>
      </trkpt>
      <trkpt lat="43.41204" lon="-0.34385">
        <ele>273.4</ele>
        <time>2021-10-14T09:17:35Z</time>
      </trkpt>
      <trkpt lat="43.412" lon="-0.34389">
        <ele>273.4</ele>
        <time>2021-10-14T09:17:37Z</time>
      </trkpt>
      <trkpt lat="43.41198" lon="-0.34392">
        <ele>273.3</ele>
        <time>2021-10-14T09:17:38Z</time>
      </trkpt>
      <trkpt lat="43.41195" lon="-0.34394">
        <ele>272.9</ele>
        <time>2021-10-14T09:17:40Z</time>
      </trkpt>
      <trkpt lat="43.41195" lon="-0.34394">
        <ele>272.4</ele>
        <time>2021-10-14T09:17:41Z</time>
      </trkpt>
      <trkpt lat="43.41197" lon="-0.34393">
        <ele>273.5</ele>
        <time>2021-10-14T09:17:44Z</time>
      </trkpt>
      <trkpt lat="43.41197" lon="-0.34393">
        <ele>273.1</ele>
        <time>2021-10-14T09:17:46Z</time>
      </trkpt>
      <trkpt lat="43.41197" lon="-0.34393">
        <ele>273</ele>
        <time>2021-10-14T09:17:47Z</time>
      </trkpt>
      <trkpt lat="43.41197" lon="-0.34393">
        <ele>273</ele>
        <time>2021-10-14T09:17:48Z</time>
      </trkpt>
      <trkpt lat="43.41197" lon="-0.34393">
        <ele>272.9</ele>
        <time>2021-10-14T09:17:49Z</time>
      </trkpt>
      <trkpt lat="43.41197" lon="-0.34393">
        <ele>272.9</ele>
        <time>2021-10-14T09:17:51Z</time>
      </trkpt>
      <trkpt lat="43.41197" lon="-0.34393">
        <ele>272.6</ele>
        <time>2021-10-14T09:17:53Z</time>
      </trkpt>
      <trkpt lat="43.41197" lon="-0.34393">
        <ele>272.7</ele>
        <time>2021-10-14T09:17:54Z</time>
      </trkpt>
      <trkpt lat="43.41197" lon="-0.34393">
        <ele>273.2</ele>
        <time>2021-10-14T09:17:56Z</time>
      </trkpt>
      <trkpt lat="43.41197" lon="-0.34393">
        <ele>272.9</ele>
        <time>2021-10-14T09:17:57Z</time>
      </trkpt>
      <trkpt lat="43.41197" lon="-0.34393">
        <ele>273.1</ele>
        <time>2021-10-14T09:17:59Z</time>
      </trkpt>
      <trkpt lat="43.41197" lon="-0.34393">
        <ele>273</ele>
        <time>2021-10-14T09:18:28Z</time>
      </trkpt>
      <trkpt lat="43.41196" lon="-0.34392">
        <ele>273</ele>
        <time>2021-10-14T09:18:29Z</time>
      </trkpt>
      <trkpt lat="43.41196" lon="-0.34393">
        <ele>272.5</ele>
        <time>2021-10-14T09:18:30Z</time>
      </trkpt>
      <trkpt lat="43.41194" lon="-0.34393">
        <ele>273</ele>
        <time>2021-10-14T09:18:31Z</time>
      </trkpt>
      <trkpt lat="43.41192" lon="-0.34394">
        <ele>272.9</ele>
        <time>2021-10-14T09:18:32Z</time>
      </trkpt>
      <trkpt lat="43.4119" lon="-0.34396">
        <ele>274.5</ele>
        <time>2021-10-14T09:18:33Z</time>
      </trkpt>
      <trkpt lat="43.41182" lon="-0.34401">
        <ele>274</ele>
        <time>2021-10-14T09:18:36Z</time>
      </trkpt>
      <trkpt lat="43.4118" lon="-0.34402">
        <ele>274</ele>
        <time>2021-10-14T09:18:37Z</time>
      </trkpt>
      <trkpt lat="43.41177" lon="-0.34404">
        <ele>274.2</ele>
        <time>2021-10-14T09:18:38Z</time>
      </trkpt>
      <trkpt lat="43.41174" lon="-0.34407">
        <ele>274.2</ele>
        <time>2021-10-14T09:18:39Z</time>
      </trkpt>
      <trkpt lat="43.41153" lon="-0.34421">
        <ele>274.1</ele>
        <time>2021-10-14T09:18:45Z</time>
      </trkpt>
      <trkpt lat="43.41147" lon="-0.34426">
        <ele>274</ele>
        <time>2021-10-14T09:18:46Z</time>
      </trkpt>
      <trkpt lat="43.41134" lon="-0.34435">
        <ele>273.3</ele>
        <time>2021-10-14T09:18:49Z</time>
      </trkpt>
      <trkpt lat="43.41026" lon="-0.34489">
        <ele>264.4</ele>
        <time>2021-10-14T09:19:12Z</time>
      </trkpt>
      <trkpt lat="43.41015" lon="-0.34497">
        <ele>263.9</ele>
        <time>2021-10-14T09:19:14Z</time>
      </trkpt>
      <trkpt lat="43.4101" lon="-0.34501">
        <ele>264</ele>
        <time>2021-10-14T09:19:15Z</time>
      </trkpt>
      <trkpt lat="43.41006" lon="-0.34506">
        <ele>263.2</ele>
        <time>2021-10-14T09:19:16Z</time>
      </trkpt>
      <trkpt lat="43.40979" lon="-0.3455">
        <ele>255</ele>
        <time>2021-10-14T09:19:24Z</time>
      </trkpt>
      <trkpt lat="43.40974" lon="-0.34555">
        <ele>253.1</ele>
        <time>2021-10-14T09:19:25Z</time>
      </trkpt>
      <trkpt lat="43.40969" lon="-0.34558">
        <ele>253.1</ele>
        <time>2021-10-14T09:19:26Z</time>
      </trkpt>
      <trkpt lat="43.40964" lon="-0.3456">
        <ele>252.4</ele>
        <time>2021-10-14T09:19:27Z</time>
      </trkpt>
      <trkpt lat="43.40872" lon="-0.3458">
        <ele>241.9</ele>
        <time>2021-10-14T09:19:41Z</time>
      </trkpt>
      <trkpt lat="43.40783" lon="-0.34605">
        <ele>235.2</ele>
        <time>2021-10-14T09:19:54Z</time>
      </trkpt>
      <trkpt lat="43.4077" lon="-0.34609">
        <ele>233</ele>
        <time>2021-10-14T09:19:56Z</time>
      </trkpt>
      <trkpt lat="43.40751" lon="-0.34617">
        <ele>232.3</ele>
        <time>2021-10-14T09:19:59Z</time>
      </trkpt>
      <trkpt lat="43.40728" lon="-0.3463">
        <ele>232.2</ele>
        <time>2021-10-14T09:20:04Z</time>
      </trkpt>
      <trkpt lat="43.4072" lon="-0.34636">
        <ele>231.1</ele>
        <time>2021-10-14T09:20:06Z</time>
      </trkpt>
      <trkpt lat="43.40716" lon="-0.3464">
        <ele>230.1</ele>
        <time>2021-10-14T09:20:07Z</time>
      </trkpt>
      <trkpt lat="43.40702" lon="-0.34655">
        <ele>226.1</ele>
        <time>2021-10-14T09:20:10Z</time>
      </trkpt>
      <trkpt lat="43.40697" lon="-0.34661">
        <ele>225.1</ele>
        <time>2021-10-14T09:20:11Z</time>
      </trkpt>
      <trkpt lat="43.40693" lon="-0.34668">
        <ele>225.1</ele>
        <time>2021-10-14T09:20:12Z</time>
      </trkpt>
      <trkpt lat="43.40663" lon="-0.34741">
        <ele>216.8</ele>
        <time>2021-10-14T09:20:21Z</time>
      </trkpt>
      <trkpt lat="43.40643" lon="-0.34812">
        <ele>211.6</ele>
        <time>2021-10-14T09:20:27Z</time>
      </trkpt>
      <trkpt lat="43.40639" lon="-0.34822">
        <ele>212.1</ele>
        <time>2021-10-14T09:20:28Z</time>
      </trkpt>
      <trkpt lat="43.40633" lon="-0.3483">
        <ele>211.1</ele>
        <time>2021-10-14T09:20:29Z</time>
      </trkpt>
      <trkpt lat="43.4056" lon="-0.34909">
        <ele>208.2</ele>
        <time>2021-10-14T09:20:41Z</time>
      </trkpt>
      <trkpt lat="43.40513" lon="-0.34965">
        <ele>205.1</ele>
        <time>2021-10-14T09:20:49Z</time>
      </trkpt>
      <trkpt lat="43.40507" lon="-0.34974">
        <ele>204.1</ele>
        <time>2021-10-14T09:20:50Z</time>
      </trkpt>
      <trkpt lat="43.40445" lon="-0.35075">
        <ele>205.3</ele>
        <time>2021-10-14T09:21:02Z</time>
      </trkpt>
      <trkpt lat="43.40441" lon="-0.3508">
        <ele>205.2</ele>
        <time>2021-10-14T09:21:03Z</time>
      </trkpt>
      <trkpt lat="43.40438" lon="-0.35084">
        <ele>204.8</ele>
        <time>2021-10-14T09:21:04Z</time>
      </trkpt>
      <trkpt lat="43.40433" lon="-0.35088">
        <ele>205.4</ele>
        <time>2021-10-14T09:21:05Z</time>
      </trkpt>
      <trkpt lat="43.40428" lon="-0.35091">
        <ele>205.1</ele>
        <time>2021-10-14T09:21:06Z</time>
      </trkpt>
      <trkpt lat="43.4037" lon="-0.35113">
        <ele>203.2</ele>
        <time>2021-10-14T09:21:14Z</time>
      </trkpt>
      <trkpt lat="43.40361" lon="-0.35114">
        <ele>203.1</ele>
        <time>2021-10-14T09:21:15Z</time>
      </trkpt>
      <trkpt lat="43.40353" lon="-0.35113">
        <ele>203.9</ele>
        <time>2021-10-14T09:21:16Z</time>
      </trkpt>
      <trkpt lat="43.40345" lon="-0.35112">
        <ele>202.3</ele>
        <time>2021-10-14T09:21:17Z</time>
      </trkpt>
      <trkpt lat="43.40253" lon="-0.35085">
        <ele>203.1</ele>
        <time>2021-10-14T09:21:28Z</time>
      </trkpt>
      <trkpt lat="43.4021" lon="-0.35074">
        <ele>202.9</ele>
        <time>2021-10-14T09:21:35Z</time>
      </trkpt>
      <trkpt lat="43.40205" lon="-0.35074">
        <ele>201.5</ele>
        <time>2021-10-14T09:21:36Z</time>
      </trkpt>
      <trkpt lat="43.402" lon="-0.35074">
        <ele>201.8</ele>
        <time>2021-10-14T09:21:37Z</time>
      </trkpt>
      <trkpt lat="43.40196" lon="-0.35077">
        <ele>202.1</ele>
        <time>2021-10-14T09:21:38Z</time>
      </trkpt>
      <trkpt lat="43.40194" lon="-0.3508">
        <ele>202.9</ele>
        <time>2021-10-14T09:21:39Z</time>
      </trkpt>
      <trkpt lat="43.40179" lon="-0.35097">
        <ele>203.5</ele>
        <time>2021-10-14T09:21:45Z</time>
      </trkpt>
      <trkpt lat="43.40179" lon="-0.35096">
        <ele>203.5</ele>
        <time>2021-10-14T09:21:46Z</time>
      </trkpt>
      <trkpt lat="43.40179" lon="-0.35096">
        <ele>202.2</ele>
        <time>2021-10-14T09:21:46Z</time>
      </trkpt>
      <trkpt lat="43.40173" lon="-0.35103">
        <ele>202.3</ele>
        <time>2021-10-14T09:21:49Z</time>
      </trkpt>
      <trkpt lat="43.4017" lon="-0.35104">
        <ele>202.3</ele>
        <time>2021-10-14T09:21:50Z</time>
      </trkpt>
      <trkpt lat="43.40169" lon="-0.35105">
        <ele>202.3</ele>
        <time>2021-10-14T09:21:50Z</time>
      </trkpt>
      <trkpt lat="43.40168" lon="-0.35106">
        <ele>201.8</ele>
        <time>2021-10-14T09:21:51Z</time>
      </trkpt>
      <trkpt lat="43.40166" lon="-0.35106">
        <ele>201.8</ele>
        <time>2021-10-14T09:21:52Z</time>
      </trkpt>
      <trkpt lat="43.40164" lon="-0.35106">
        <ele>202.2</ele>
        <time>2021-10-14T09:21:53Z</time>
      </trkpt>
      <trkpt lat="43.40163" lon="-0.35104">
        <ele>202.2</ele>
        <time>2021-10-14T09:21:54Z</time>
      </trkpt>
      <trkpt lat="43.40162" lon="-0.35101">
        <ele>201.3</ele>
        <time>2021-10-14T09:21:55Z</time>
      </trkpt>
      <trkpt lat="43.40161" lon="-0.351">
        <ele>201.3</ele>
        <time>2021-10-14T09:21:56Z</time>
      </trkpt>
      <trkpt lat="43.4016" lon="-0.35099">
        <ele>200.4</ele>
        <time>2021-10-14T09:21:57Z</time>
      </trkpt>
      <trkpt lat="43.40158" lon="-0.35097">
        <ele>199.8</ele>
        <time>2021-10-14T09:21:58Z</time>
      </trkpt>
      <trkpt lat="43.40156" lon="-0.35097">
        <ele>199.8</ele>
        <time>2021-10-14T09:21:59Z</time>
      </trkpt>
      <trkpt lat="43.40155" lon="-0.35099">
        <ele>200.2</ele>
        <time>2021-10-14T09:22:00Z</time>
      </trkpt>
      <trkpt lat="43.40153" lon="-0.35101">
        <ele>200</ele>
        <time>2021-10-14T09:22:01Z</time>
      </trkpt>
      <trkpt lat="43.40147" lon="-0.35104">
        <ele>199.9</ele>
        <time>2021-10-14T09:22:03Z</time>
      </trkpt>
      <trkpt lat="43.40143" lon="-0.35106">
        <ele>200.4</ele>
        <time>2021-10-14T09:22:05Z</time>
      </trkpt>
      <trkpt lat="43.40141" lon="-0.35108">
        <ele>199.8</ele>
        <time>2021-10-14T09:22:06Z</time>
      </trkpt>
      <trkpt lat="43.4014" lon="-0.3511">
        <ele>199.8</ele>
        <time>2021-10-14T09:22:07Z</time>
      </trkpt>
      <trkpt lat="43.4014" lon="-0.35111">
        <ele>199.9</ele>
        <time>2021-10-14T09:22:07Z</time>
      </trkpt>
      <trkpt lat="43.40137" lon="-0.35115">
        <ele>199.3</ele>
        <time>2021-10-14T09:22:10Z</time>
      </trkpt>
      <trkpt lat="43.40131" lon="-0.35129">
        <ele>198.9</ele>
        <time>2021-10-14T09:22:15Z</time>
      </trkpt>
      <trkpt lat="43.40128" lon="-0.35133">
        <ele>199.3</ele>
        <time>2021-10-14T09:22:16Z</time>
      </trkpt>
      <trkpt lat="43.40124" lon="-0.35138">
        <ele>199.2</ele>
        <time>2021-10-14T09:22:18Z</time>
      </trkpt>
      <trkpt lat="43.40115" lon="-0.35147">
        <ele>199.7</ele>
        <time>2021-10-14T09:22:21Z</time>
      </trkpt>
      <trkpt lat="43.40107" lon="-0.35157">
        <ele>199.3</ele>
        <time>2021-10-14T09:22:24Z</time>
      </trkpt>
      <trkpt lat="43.40105" lon="-0.35159">
        <ele>199.3</ele>
        <time>2021-10-14T09:22:25Z</time>
      </trkpt>
      <trkpt lat="43.40102" lon="-0.35161">
        <ele>198.5</ele>
        <time>2021-10-14T09:22:25Z</time>
      </trkpt>
      <trkpt lat="43.40097" lon="-0.35164">
        <ele>200.1</ele>
        <time>2021-10-14T09:22:26Z</time>
      </trkpt>
      <trkpt lat="43.40095" lon="-0.35164">
        <ele>200.1</ele>
        <time>2021-10-14T09:22:27Z</time>
      </trkpt>
      <trkpt lat="43.40091" lon="-0.35165">
        <ele>199</ele>
        <time>2021-10-14T09:22:28Z</time>
      </trkpt>
      <trkpt lat="43.40089" lon="-0.35165">
        <ele>198.9</ele>
        <time>2021-10-14T09:22:28Z</time>
      </trkpt>
      <trkpt lat="43.40086" lon="-0.35165">
        <ele>198.6</ele>
        <time>2021-10-14T09:22:30Z</time>
      </trkpt>
      <trkpt lat="43.40085" lon="-0.35166">
        <ele>199.5</ele>
        <time>2021-10-14T09:22:31Z</time>
      </trkpt>
      <trkpt lat="43.40084" lon="-0.35168">
        <ele>199.1</ele>
        <time>2021-10-14T09:22:31Z</time>
      </trkpt>
      <trkpt lat="43.40084" lon="-0.35169">
        <ele>198.6</ele>
        <time>2021-10-14T09:22:32Z</time>
      </trkpt>
      <trkpt lat="43.40082" lon="-0.3517">
        <ele>199</ele>
        <time>2021-10-14T09:22:33Z</time>
      </trkpt>
      <trkpt lat="43.40079" lon="-0.35171">
        <ele>199</ele>
        <time>2021-10-14T09:22:34Z</time>
      </trkpt>
      <trkpt lat="43.40077" lon="-0.35171">
        <ele>199</ele>
        <time>2021-10-14T09:22:34Z</time>
      </trkpt>
      <trkpt lat="43.40075" lon="-0.3517">
        <ele>200.4</ele>
        <time>2021-10-14T09:22:35Z</time>
      </trkpt>
      <trkpt lat="43.40073" lon="-0.3517">
        <ele>200.4</ele>
        <time>2021-10-14T09:22:36Z</time>
      </trkpt>
      <trkpt lat="43.4007" lon="-0.35171">
        <ele>198.9</ele>
        <time>2021-10-14T09:22:37Z</time>
      </trkpt>
      <trkpt lat="43.40068" lon="-0.35172">
        <ele>198.9</ele>
        <time>2021-10-14T09:22:38Z</time>
      </trkpt>
      <trkpt lat="43.40066" lon="-0.35174">
        <ele>199</ele>
        <time>2021-10-14T09:22:39Z</time>
      </trkpt>
      <trkpt lat="43.40064" lon="-0.35176">
        <ele>198.9</ele>
        <time>2021-10-14T09:22:40Z</time>
      </trkpt>
      <trkpt lat="43.40063" lon="-0.35178">
        <ele>198.9</ele>
        <time>2021-10-14T09:22:41Z</time>
      </trkpt>
      <trkpt lat="43.40061" lon="-0.35182">
        <ele>197.7</ele>
        <time>2021-10-14T09:22:42Z</time>
      </trkpt>
      <trkpt lat="43.4006" lon="-0.35186">
        <ele>197.8</ele>
        <time>2021-10-14T09:22:44Z</time>
      </trkpt>
      <trkpt lat="43.40057" lon="-0.35193">
        <ele>197.2</ele>
        <time>2021-10-14T09:22:46Z</time>
      </trkpt>
      <trkpt lat="43.40055" lon="-0.35199">
        <ele>198.3</ele>
        <time>2021-10-14T09:22:48Z</time>
      </trkpt>
      <trkpt lat="43.40054" lon="-0.35201">
        <ele>198.3</ele>
        <time>2021-10-14T09:22:49Z</time>
      </trkpt>
      <trkpt lat="43.40054" lon="-0.35203">
        <ele>198.1</ele>
        <time>2021-10-14T09:22:50Z</time>
      </trkpt>
      <trkpt lat="43.40053" lon="-0.35207">
        <ele>198</ele>
        <time>2021-10-14T09:22:51Z</time>
      </trkpt>
      <trkpt lat="43.40053" lon="-0.35209">
        <ele>198.3</ele>
        <time>2021-10-14T09:22:51Z</time>
      </trkpt>
      <trkpt lat="43.40053" lon="-0.35211">
        <ele>197.4</ele>
        <time>2021-10-14T09:22:52Z</time>
      </trkpt>
      <trkpt lat="43.40053" lon="-0.35213">
        <ele>197.1</ele>
        <time>2021-10-14T09:22:53Z</time>
      </trkpt>
      <trkpt lat="43.40053" lon="-0.35216">
        <ele>197.1</ele>
        <time>2021-10-14T09:22:54Z</time>
      </trkpt>
      <trkpt lat="43.40053" lon="-0.35218">
        <ele>197.1</ele>
        <time>2021-10-14T09:22:55Z</time>
      </trkpt>
      <trkpt lat="43.40052" lon="-0.3522">
        <ele>196.7</ele>
        <time>2021-10-14T09:22:56Z</time>
      </trkpt>
      <trkpt lat="43.40051" lon="-0.35222">
        <ele>196.6</ele>
        <time>2021-10-14T09:22:57Z</time>
      </trkpt>
      <trkpt lat="43.4005" lon="-0.35226">
        <ele>197.5</ele>
        <time>2021-10-14T09:22:58Z</time>
      </trkpt>
      <trkpt lat="43.40047" lon="-0.35229">
        <ele>197.3</ele>
        <time>2021-10-14T09:23:00Z</time>
      </trkpt>
      <trkpt lat="43.40042" lon="-0.35241">
        <ele>196.8</ele>
        <time>2021-10-14T09:23:03Z</time>
      </trkpt>
      <trkpt lat="43.40037" lon="-0.35257">
        <ele>196.4</ele>
        <time>2021-10-14T09:23:08Z</time>
      </trkpt>
      <trkpt lat="43.40036" lon="-0.3526">
        <ele>196.1</ele>
        <time>2021-10-14T09:23:08Z</time>
      </trkpt>
      <trkpt lat="43.40035" lon="-0.35262">
        <ele>195.8</ele>
        <time>2021-10-14T09:23:09Z</time>
      </trkpt>
      <trkpt lat="43.40034" lon="-0.35264">
        <ele>195.8</ele>
        <time>2021-10-14T09:23:10Z</time>
      </trkpt>
      <trkpt lat="43.4003" lon="-0.35271">
        <ele>196.8</ele>
        <time>2021-10-14T09:23:12Z</time>
      </trkpt>
      <trkpt lat="43.40028" lon="-0.35274">
        <ele>197.7</ele>
        <time>2021-10-14T09:23:13Z</time>
      </trkpt>
      <trkpt lat="43.40025" lon="-0.35277">
        <ele>197.1</ele>
        <time>2021-10-14T09:23:14Z</time>
      </trkpt>
      <trkpt lat="43.40023" lon="-0.35282">
        <ele>197.2</ele>
        <time>2021-10-14T09:23:16Z</time>
      </trkpt>
      <trkpt lat="43.40022" lon="-0.35284">
        <ele>196.4</ele>
        <time>2021-10-14T09:23:16Z</time>
      </trkpt>
      <trkpt lat="43.40019" lon="-0.35287">
        <ele>196.5</ele>
        <time>2021-10-14T09:23:17Z</time>
      </trkpt>
      <trkpt lat="43.40017" lon="-0.35291">
        <ele>196.1</ele>
        <time>2021-10-14T09:23:19Z</time>
      </trkpt>
      <trkpt lat="43.40016" lon="-0.35294">
        <ele>196</ele>
        <time>2021-10-14T09:23:20Z</time>
      </trkpt>
      <trkpt lat="43.39988" lon="-0.35331">
        <ele>196.5</ele>
        <time>2021-10-14T09:23:30Z</time>
      </trkpt>
      <trkpt lat="43.39981" lon="-0.35338">
        <ele>195.5</ele>
        <time>2021-10-14T09:23:32Z</time>
      </trkpt>
      <trkpt lat="43.39973" lon="-0.35348">
        <ele>195.8</ele>
        <time>2021-10-14T09:23:35Z</time>
      </trkpt>
      <trkpt lat="43.39972" lon="-0.3535">
        <ele>195.6</ele>
        <time>2021-10-14T09:23:36Z</time>
      </trkpt>
      <trkpt lat="43.39963" lon="-0.35361">
        <ele>196.4</ele>
        <time>2021-10-14T09:23:40Z</time>
      </trkpt>
      <trkpt lat="43.39962" lon="-0.35362">
        <ele>195.7</ele>
        <time>2021-10-14T09:23:41Z</time>
      </trkpt>
      <trkpt lat="43.39957" lon="-0.35365">
        <ele>195.8</ele>
        <time>2021-10-14T09:23:43Z</time>
      </trkpt>
      <trkpt lat="43.39954" lon="-0.35367">
        <ele>195.8</ele>
        <time>2021-10-14T09:23:44Z</time>
      </trkpt>
      <trkpt lat="43.39951" lon="-0.35368">
        <ele>196.3</ele>
        <time>2021-10-14T09:23:46Z</time>
      </trkpt>
      <trkpt lat="43.39949" lon="-0.35368">
        <ele>196.3</ele>
        <time>2021-10-14T09:23:47Z</time>
      </trkpt>
      <trkpt lat="43.39944" lon="-0.3537">
        <ele>196</ele>
        <time>2021-10-14T09:23:49Z</time>
      </trkpt>
      <trkpt lat="43.39936" lon="-0.35371">
        <ele>195.1</ele>
        <time>2021-10-14T09:23:53Z</time>
      </trkpt>
      <trkpt lat="43.39932" lon="-0.35371">
        <ele>195.3</ele>
        <time>2021-10-14T09:23:54Z</time>
      </trkpt>
      <trkpt lat="43.3993" lon="-0.35371">
        <ele>193.8</ele>
        <time>2021-10-14T09:23:55Z</time>
      </trkpt>
      <trkpt lat="43.39909" lon="-0.35372">
        <ele>194.6</ele>
        <time>2021-10-14T09:24:07Z</time>
      </trkpt>
      <trkpt lat="43.39906" lon="-0.35372">
        <ele>195.3</ele>
        <time>2021-10-14T09:24:08Z</time>
      </trkpt>
      <trkpt lat="43.39903" lon="-0.35372">
        <ele>195.6</ele>
        <time>2021-10-14T09:24:10Z</time>
      </trkpt>
      <trkpt lat="43.39901" lon="-0.35371">
        <ele>195.6</ele>
        <time>2021-10-14T09:24:11Z</time>
      </trkpt>
      <trkpt lat="43.39899" lon="-0.3537">
        <ele>197.1</ele>
        <time>2021-10-14T09:24:12Z</time>
      </trkpt>
      <trkpt lat="43.39897" lon="-0.35368">
        <ele>198.5</ele>
        <time>2021-10-14T09:24:13Z</time>
      </trkpt>
      <trkpt lat="43.39897" lon="-0.35366">
        <ele>198.5</ele>
        <time>2021-10-14T09:24:14Z</time>
      </trkpt>
      <trkpt lat="43.39896" lon="-0.35361">
        <ele>200.2</ele>
        <time>2021-10-14T09:24:16Z</time>
      </trkpt>
      <trkpt lat="43.39896" lon="-0.35359">
        <ele>200.6</ele>
        <time>2021-10-14T09:24:17Z</time>
      </trkpt>
      <trkpt lat="43.39897" lon="-0.35354">
        <ele>200.2</ele>
        <time>2021-10-14T09:24:18Z</time>
      </trkpt>
      <trkpt lat="43.39899" lon="-0.35345">
        <ele>199.8</ele>
        <time>2021-10-14T09:24:21Z</time>
      </trkpt>
      <trkpt lat="43.39905" lon="-0.35332">
        <ele>202.9</ele>
        <time>2021-10-14T09:24:26Z</time>
      </trkpt>
      <trkpt lat="43.39906" lon="-0.35326">
        <ele>204.7</ele>
        <time>2021-10-14T09:24:28Z</time>
      </trkpt>
      <trkpt lat="43.39908" lon="-0.3532">
        <ele>205.2</ele>
        <time>2021-10-14T09:24:31Z</time>
      </trkpt>
      <trkpt lat="43.39911" lon="-0.35314">
        <ele>205.8</ele>
        <time>2021-10-14T09:24:34Z</time>
      </trkpt>
      <trkpt lat="43.39912" lon="-0.35312">
        <ele>207.3</ele>
        <time>2021-10-14T09:24:35Z</time>
      </trkpt>
      <trkpt lat="43.39912" lon="-0.3531">
        <ele>207.2</ele>
        <time>2021-10-14T09:24:36Z</time>
      </trkpt>
      <trkpt lat="43.39913" lon="-0.35307">
        <ele>207.1</ele>
        <time>2021-10-14T09:24:37Z</time>
      </trkpt>
      <trkpt lat="43.39914" lon="-0.35302">
        <ele>208.4</ele>
        <time>2021-10-14T09:24:39Z</time>
      </trkpt>
      <trkpt lat="43.39916" lon="-0.35296">
        <ele>208.4</ele>
        <time>2021-10-14T09:24:42Z</time>
      </trkpt>
      <trkpt lat="43.39917" lon="-0.35293">
        <ele>208.1</ele>
        <time>2021-10-14T09:24:43Z</time>
      </trkpt>
      <trkpt lat="43.39918" lon="-0.35291">
        <ele>208.5</ele>
        <time>2021-10-14T09:24:44Z</time>
      </trkpt>
      <trkpt lat="43.39918" lon="-0.35288">
        <ele>208.5</ele>
        <time>2021-10-14T09:24:45Z</time>
      </trkpt>
      <trkpt lat="43.39918" lon="-0.35286">
        <ele>208.6</ele>
        <time>2021-10-14T09:24:46Z</time>
      </trkpt>
      <trkpt lat="43.39919" lon="-0.35284">
        <ele>208.6</ele>
        <time>2021-10-14T09:24:47Z</time>
      </trkpt>
      <trkpt lat="43.3992" lon="-0.35282">
        <ele>209.5</ele>
        <time>2021-10-14T09:24:48Z</time>
      </trkpt>
      <trkpt lat="43.39921" lon="-0.3528">
        <ele>209.4</ele>
        <time>2021-10-14T09:24:49Z</time>
      </trkpt>
      <trkpt lat="43.39922" lon="-0.35276">
        <ele>209.7</ele>
        <time>2021-10-14T09:24:51Z</time>
      </trkpt>
      <trkpt lat="43.39923" lon="-0.35274">
        <ele>210.4</ele>
        <time>2021-10-14T09:24:52Z</time>
      </trkpt>
      <trkpt lat="43.39923" lon="-0.35273">
        <ele>210.4</ele>
        <time>2021-10-14T09:24:53Z</time>
      </trkpt>
      <trkpt lat="43.39924" lon="-0.35271">
        <ele>211.4</ele>
        <time>2021-10-14T09:24:54Z</time>
      </trkpt>
      <trkpt lat="43.39925" lon="-0.35269">
        <ele>211.4</ele>
        <time>2021-10-14T09:24:55Z</time>
      </trkpt>
      <trkpt lat="43.39926" lon="-0.35265">
        <ele>211.3</ele>
        <time>2021-10-14T09:24:57Z</time>
      </trkpt>
      <trkpt lat="43.39926" lon="-0.35263">
        <ele>211.1</ele>
        <time>2021-10-14T09:24:58Z</time>
      </trkpt>
      <trkpt lat="43.39926" lon="-0.35261">
        <ele>211.1</ele>
        <time>2021-10-14T09:24:59Z</time>
      </trkpt>
      <trkpt lat="43.39927" lon="-0.35259">
        <ele>212</ele>
        <time>2021-10-14T09:25:00Z</time>
      </trkpt>
      <trkpt lat="43.39928" lon="-0.35258">
        <ele>212</ele>
        <time>2021-10-14T09:25:01Z</time>
      </trkpt>
      <trkpt lat="43.39928" lon="-0.35255">
        <ele>211.8</ele>
        <time>2021-10-14T09:25:02Z</time>
      </trkpt>
      <trkpt lat="43.3993" lon="-0.35249">
        <ele>213.2</ele>
        <time>2021-10-14T09:25:05Z</time>
      </trkpt>
      <trkpt lat="43.39931" lon="-0.35248">
        <ele>213.2</ele>
        <time>2021-10-14T09:25:06Z</time>
      </trkpt>
      <trkpt lat="43.39932" lon="-0.35246">
        <ele>213.6</ele>
        <time>2021-10-14T09:25:07Z</time>
      </trkpt>
      <trkpt lat="43.39932" lon="-0.35244">
        <ele>214.1</ele>
        <time>2021-10-14T09:25:08Z</time>
      </trkpt>
      <trkpt lat="43.39933" lon="-0.35242">
        <ele>214</ele>
        <time>2021-10-14T09:25:09Z</time>
      </trkpt>
      <trkpt lat="43.39933" lon="-0.3524">
        <ele>214</ele>
        <time>2021-10-14T09:25:10Z</time>
      </trkpt>
      <trkpt lat="43.39934" lon="-0.35239">
        <ele>213.7</ele>
        <time>2021-10-14T09:25:11Z</time>
      </trkpt>
      <trkpt lat="43.39935" lon="-0.35235">
        <ele>213.7</ele>
        <time>2021-10-14T09:25:13Z</time>
      </trkpt>
      <trkpt lat="43.39936" lon="-0.3523">
        <ele>214.9</ele>
        <time>2021-10-14T09:25:16Z</time>
      </trkpt>
      <trkpt lat="43.39936" lon="-0.35229">
        <ele>214.9</ele>
        <time>2021-10-14T09:25:17Z</time>
      </trkpt>
      <trkpt lat="43.39937" lon="-0.35227">
        <ele>215</ele>
        <time>2021-10-14T09:25:18Z</time>
      </trkpt>
      <trkpt lat="43.39938" lon="-0.35223">
        <ele>216.1</ele>
        <time>2021-10-14T09:25:20Z</time>
      </trkpt>
      <trkpt lat="43.39938" lon="-0.35222">
        <ele>216.1</ele>
        <time>2021-10-14T09:25:21Z</time>
      </trkpt>
      <trkpt lat="43.39939" lon="-0.3522">
        <ele>216.3</ele>
        <time>2021-10-14T09:25:22Z</time>
      </trkpt>
      <trkpt lat="43.3994" lon="-0.35218">
        <ele>215.9</ele>
        <time>2021-10-14T09:25:23Z</time>
      </trkpt>
      <trkpt lat="43.3994" lon="-0.35214">
        <ele>216.3</ele>
        <time>2021-10-14T09:25:25Z</time>
      </trkpt>
      <trkpt lat="43.39941" lon="-0.35213">
        <ele>215.6</ele>
        <time>2021-10-14T09:25:26Z</time>
      </trkpt>
      <trkpt lat="43.39943" lon="-0.35208">
        <ele>218.1</ele>
        <time>2021-10-14T09:25:29Z</time>
      </trkpt>
      <trkpt lat="43.39943" lon="-0.35207">
        <ele>218.2</ele>
        <time>2021-10-14T09:25:30Z</time>
      </trkpt>
      <trkpt lat="43.39942" lon="-0.35206">
        <ele>218.2</ele>
        <time>2021-10-14T09:25:31Z</time>
      </trkpt>
      <trkpt lat="43.39942" lon="-0.35205">
        <ele>217.8</ele>
        <time>2021-10-14T09:25:31Z</time>
      </trkpt>
      <trkpt lat="43.39943" lon="-0.35204">
        <ele>218.9</ele>
        <time>2021-10-14T09:25:32Z</time>
      </trkpt>
      <trkpt lat="43.39943" lon="-0.35202">
        <ele>218.9</ele>
        <time>2021-10-14T09:25:33Z</time>
      </trkpt>
      <trkpt lat="43.39944" lon="-0.35201">
        <ele>220.1</ele>
        <time>2021-10-14T09:25:34Z</time>
      </trkpt>
      <trkpt lat="43.39944" lon="-0.35199">
        <ele>219.8</ele>
        <time>2021-10-14T09:25:35Z</time>
      </trkpt>
      <trkpt lat="43.39946" lon="-0.35193">
        <ele>220.9</ele>
        <time>2021-10-14T09:25:39Z</time>
      </trkpt>
      <trkpt lat="43.39947" lon="-0.3519">
        <ele>221.1</ele>
        <time>2021-10-14T09:25:40Z</time>
      </trkpt>
      <trkpt lat="43.39948" lon="-0.35187">
        <ele>222.1</ele>
        <time>2021-10-14T09:25:42Z</time>
      </trkpt>
      <trkpt lat="43.39948" lon="-0.35185">
        <ele>222.4</ele>
        <time>2021-10-14T09:25:43Z</time>
      </trkpt>
      <trkpt lat="43.39949" lon="-0.35184">
        <ele>223.2</ele>
        <time>2021-10-14T09:25:44Z</time>
      </trkpt>
      <trkpt lat="43.39949" lon="-0.35183">
        <ele>223.2</ele>
        <time>2021-10-14T09:25:45Z</time>
      </trkpt>
      <trkpt lat="43.39949" lon="-0.35181">
        <ele>223.2</ele>
        <time>2021-10-14T09:25:45Z</time>
      </trkpt>
      <trkpt lat="43.39949" lon="-0.3518">
        <ele>224.2</ele>
        <time>2021-10-14T09:25:46Z</time>
      </trkpt>
      <trkpt lat="43.39951" lon="-0.35178">
        <ele>224.2</ele>
        <time>2021-10-14T09:25:48Z</time>
      </trkpt>
      <trkpt lat="43.39951" lon="-0.35174">
        <ele>224</ele>
        <time>2021-10-14T09:25:50Z</time>
      </trkpt>
      <trkpt lat="43.39953" lon="-0.3517">
        <ele>224.7</ele>
        <time>2021-10-14T09:25:52Z</time>
      </trkpt>
      <trkpt lat="43.39955" lon="-0.35164">
        <ele>225.9</ele>
        <time>2021-10-14T09:25:56Z</time>
      </trkpt>
      <trkpt lat="43.39955" lon="-0.35163">
        <ele>225.9</ele>
        <time>2021-10-14T09:25:57Z</time>
      </trkpt>
      <trkpt lat="43.39955" lon="-0.35161">
        <ele>227.4</ele>
        <time>2021-10-14T09:25:59Z</time>
      </trkpt>
      <trkpt lat="43.39956" lon="-0.35158">
        <ele>228</ele>
        <time>2021-10-14T09:26:00Z</time>
      </trkpt>
      <trkpt lat="43.39957" lon="-0.35156">
        <ele>228.2</ele>
        <time>2021-10-14T09:26:01Z</time>
      </trkpt>
      <trkpt lat="43.39958" lon="-0.35153">
        <ele>228.1</ele>
        <time>2021-10-14T09:26:03Z</time>
      </trkpt>
      <trkpt lat="43.39959" lon="-0.35151">
        <ele>228.3</ele>
        <time>2021-10-14T09:26:05Z</time>
      </trkpt>
      <trkpt lat="43.39965" lon="-0.35129">
        <ele>228</ele>
        <time>2021-10-14T09:26:16Z</time>
      </trkpt>
      <trkpt lat="43.39968" lon="-0.35125">
        <ele>228.1</ele>
        <time>2021-10-14T09:26:19Z</time>
      </trkpt>
      <trkpt lat="43.39968" lon="-0.35123">
        <ele>228.1</ele>
        <time>2021-10-14T09:26:20Z</time>
      </trkpt>
      <trkpt lat="43.39969" lon="-0.3512">
        <ele>229.1</ele>
        <time>2021-10-14T09:26:22Z</time>
      </trkpt>
      <trkpt lat="43.3997" lon="-0.35119">
        <ele>229.3</ele>
        <time>2021-10-14T09:26:23Z</time>
      </trkpt>
      <trkpt lat="43.3997" lon="-0.35117">
        <ele>229</ele>
        <time>2021-10-14T09:26:24Z</time>
      </trkpt>
      <trkpt lat="43.39971" lon="-0.35116">
        <ele>229.1</ele>
        <time>2021-10-14T09:26:25Z</time>
      </trkpt>
      <trkpt lat="43.39971" lon="-0.35114">
        <ele>229.2</ele>
        <time>2021-10-14T09:26:26Z</time>
      </trkpt>
      <trkpt lat="43.39972" lon="-0.35113">
        <ele>228.8</ele>
        <time>2021-10-14T09:26:27Z</time>
      </trkpt>
      <trkpt lat="43.39973" lon="-0.35111">
        <ele>228.1</ele>
        <time>2021-10-14T09:26:28Z</time>
      </trkpt>
      <trkpt lat="43.39973" lon="-0.3511">
        <ele>228.1</ele>
        <time>2021-10-14T09:26:29Z</time>
      </trkpt>
      <trkpt lat="43.39973" lon="-0.35109">
        <ele>227.8</ele>
        <time>2021-10-14T09:26:30Z</time>
      </trkpt>
      <trkpt lat="43.39975" lon="-0.35103">
        <ele>229.3</ele>
        <time>2021-10-14T09:26:33Z</time>
      </trkpt>
      <trkpt lat="43.39977" lon="-0.35098">
        <ele>227.5</ele>
        <time>2021-10-14T09:26:36Z</time>
      </trkpt>
      <trkpt lat="43.39977" lon="-0.35097">
        <ele>227.5</ele>
        <time>2021-10-14T09:26:37Z</time>
      </trkpt>
      <trkpt lat="43.39978" lon="-0.35095">
        <ele>228.6</ele>
        <time>2021-10-14T09:26:38Z</time>
      </trkpt>
      <trkpt lat="43.39978" lon="-0.35094">
        <ele>228.6</ele>
        <time>2021-10-14T09:26:39Z</time>
      </trkpt>
      <trkpt lat="43.39979" lon="-0.35093">
        <ele>227.9</ele>
        <time>2021-10-14T09:26:39Z</time>
      </trkpt>
      <trkpt lat="43.3998" lon="-0.35088">
        <ele>229.6</ele>
        <time>2021-10-14T09:26:43Z</time>
      </trkpt>
      <trkpt lat="43.39981" lon="-0.35086">
        <ele>230.4</ele>
        <time>2021-10-14T09:26:44Z</time>
      </trkpt>
      <trkpt lat="43.39982" lon="-0.35085">
        <ele>230.4</ele>
        <time>2021-10-14T09:26:45Z</time>
      </trkpt>
      <trkpt lat="43.39982" lon="-0.35084">
        <ele>230.7</ele>
        <time>2021-10-14T09:26:45Z</time>
      </trkpt>
      <trkpt lat="43.39984" lon="-0.35074">
        <ele>232.5</ele>
        <time>2021-10-14T09:26:51Z</time>
      </trkpt>
      <trkpt lat="43.39985" lon="-0.35071">
        <ele>233.4</ele>
        <time>2021-10-14T09:26:52Z</time>
      </trkpt>
      <trkpt lat="43.39985" lon="-0.3507">
        <ele>234</ele>
        <time>2021-10-14T09:26:53Z</time>
      </trkpt>
      <trkpt lat="43.39986" lon="-0.35068">
        <ele>234.2</ele>
        <time>2021-10-14T09:26:54Z</time>
      </trkpt>
      <trkpt lat="43.39986" lon="-0.35065">
        <ele>234.5</ele>
        <time>2021-10-14T09:26:55Z</time>
      </trkpt>
      <trkpt lat="43.39986" lon="-0.35063">
        <ele>233.7</ele>
        <time>2021-10-14T09:26:56Z</time>
      </trkpt>
      <trkpt lat="43.39987" lon="-0.35062">
        <ele>233.7</ele>
        <time>2021-10-14T09:26:57Z</time>
      </trkpt>
      <trkpt lat="43.39987" lon="-0.3506">
        <ele>235.1</ele>
        <time>2021-10-14T09:26:58Z</time>
      </trkpt>
      <trkpt lat="43.39987" lon="-0.35058">
        <ele>235.7</ele>
        <time>2021-10-14T09:26:59Z</time>
      </trkpt>
      <trkpt lat="43.39988" lon="-0.35056">
        <ele>235.8</ele>
        <time>2021-10-14T09:27:00Z</time>
      </trkpt>
      <trkpt lat="43.39989" lon="-0.35054">
        <ele>235.9</ele>
        <time>2021-10-14T09:27:01Z</time>
      </trkpt>
      <trkpt lat="43.3999" lon="-0.3505">
        <ele>236.1</ele>
        <time>2021-10-14T09:27:03Z</time>
      </trkpt>
      <trkpt lat="43.3999" lon="-0.35048">
        <ele>235.5</ele>
        <time>2021-10-14T09:27:04Z</time>
      </trkpt>
      <trkpt lat="43.3999" lon="-0.35046">
        <ele>235.9</ele>
        <time>2021-10-14T09:27:05Z</time>
      </trkpt>
      <trkpt lat="43.39991" lon="-0.35044">
        <ele>235.6</ele>
        <time>2021-10-14T09:27:06Z</time>
      </trkpt>
      <trkpt lat="43.39992" lon="-0.35043">
        <ele>234.9</ele>
        <time>2021-10-14T09:27:07Z</time>
      </trkpt>
      <trkpt lat="43.39992" lon="-0.35041">
        <ele>234.3</ele>
        <time>2021-10-14T09:27:08Z</time>
      </trkpt>
      <trkpt lat="43.39993" lon="-0.35034">
        <ele>234.4</ele>
        <time>2021-10-14T09:27:12Z</time>
      </trkpt>
      <trkpt lat="43.39994" lon="-0.35032">
        <ele>234</ele>
        <time>2021-10-14T09:27:13Z</time>
      </trkpt>
      <trkpt lat="43.39994" lon="-0.35028">
        <ele>235.3</ele>
        <time>2021-10-14T09:27:15Z</time>
      </trkpt>
      <trkpt lat="43.39994" lon="-0.35027">
        <ele>235.1</ele>
        <time>2021-10-14T09:27:15Z</time>
      </trkpt>
      <trkpt lat="43.39994" lon="-0.35024">
        <ele>236.3</ele>
        <time>2021-10-14T09:27:17Z</time>
      </trkpt>
      <trkpt lat="43.39995" lon="-0.35014">
        <ele>237.1</ele>
        <time>2021-10-14T09:27:21Z</time>
      </trkpt>
      <trkpt lat="43.39997" lon="-0.35008">
        <ele>237.2</ele>
        <time>2021-10-14T09:27:24Z</time>
      </trkpt>
      <trkpt lat="43.39998" lon="-0.34997">
        <ele>238.8</ele>
        <time>2021-10-14T09:27:30Z</time>
      </trkpt>
      <trkpt lat="43.39997" lon="-0.34995">
        <ele>238.5</ele>
        <time>2021-10-14T09:27:31Z</time>
      </trkpt>
      <trkpt lat="43.39998" lon="-0.34992">
        <ele>238.1</ele>
        <time>2021-10-14T09:27:32Z</time>
      </trkpt>
      <trkpt lat="43.39998" lon="-0.34988">
        <ele>238.6</ele>
        <time>2021-10-14T09:27:34Z</time>
      </trkpt>
      <trkpt lat="43.39998" lon="-0.34987">
        <ele>237.8</ele>
        <time>2021-10-14T09:27:35Z</time>
      </trkpt>
      <trkpt lat="43.39998" lon="-0.34986">
        <ele>237.9</ele>
        <time>2021-10-14T09:27:35Z</time>
      </trkpt>
      <trkpt lat="43.39998" lon="-0.3498">
        <ele>238.7</ele>
        <time>2021-10-14T09:27:38Z</time>
      </trkpt>
      <trkpt lat="43.39998" lon="-0.34977">
        <ele>239</ele>
        <time>2021-10-14T09:27:39Z</time>
      </trkpt>
      <trkpt lat="43.39999" lon="-0.34965">
        <ele>240</ele>
        <time>2021-10-14T09:27:44Z</time>
      </trkpt>
      <trkpt lat="43.39999" lon="-0.34962">
        <ele>240</ele>
        <time>2021-10-14T09:27:45Z</time>
      </trkpt>
      <trkpt lat="43.39999" lon="-0.3496">
        <ele>240.5</ele>
        <time>2021-10-14T09:27:46Z</time>
      </trkpt>
      <trkpt lat="43.39999" lon="-0.34955">
        <ele>240.3</ele>
        <time>2021-10-14T09:27:48Z</time>
      </trkpt>
      <trkpt lat="43.4" lon="-0.34949">
        <ele>239.8</ele>
        <time>2021-10-14T09:27:50Z</time>
      </trkpt>
      <trkpt lat="43.4" lon="-0.34947">
        <ele>239.8</ele>
        <time>2021-10-14T09:27:51Z</time>
      </trkpt>
      <trkpt lat="43.40001" lon="-0.34943">
        <ele>240.9</ele>
        <time>2021-10-14T09:27:52Z</time>
      </trkpt>
      <trkpt lat="43.40001" lon="-0.34938">
        <ele>240.9</ele>
        <time>2021-10-14T09:27:54Z</time>
      </trkpt>
      <trkpt lat="43.40001" lon="-0.34935">
        <ele>240.4</ele>
        <time>2021-10-14T09:27:55Z</time>
      </trkpt>
      <trkpt lat="43.40002" lon="-0.34932">
        <ele>240.9</ele>
        <time>2021-10-14T09:27:56Z</time>
      </trkpt>
      <trkpt lat="43.40002" lon="-0.34929">
        <ele>241</ele>
        <time>2021-10-14T09:27:57Z</time>
      </trkpt>
      <trkpt lat="43.40003" lon="-0.34924">
        <ele>241.4</ele>
        <time>2021-10-14T09:27:59Z</time>
      </trkpt>
      <trkpt lat="43.40003" lon="-0.34922">
        <ele>240.7</ele>
        <time>2021-10-14T09:28:00Z</time>
      </trkpt>
      <trkpt lat="43.40003" lon="-0.34917">
        <ele>241.2</ele>
        <time>2021-10-14T09:28:02Z</time>
      </trkpt>
      <trkpt lat="43.40004" lon="-0.34912">
        <ele>242.1</ele>
        <time>2021-10-14T09:28:04Z</time>
      </trkpt>
      <trkpt lat="43.40004" lon="-0.34899">
        <ele>240.8</ele>
        <time>2021-10-14T09:28:10Z</time>
      </trkpt>
      <trkpt lat="43.40004" lon="-0.34896">
        <ele>240.2</ele>
        <time>2021-10-14T09:28:11Z</time>
      </trkpt>
      <trkpt lat="43.40004" lon="-0.34894">
        <ele>240.4</ele>
        <time>2021-10-14T09:28:12Z</time>
      </trkpt>
      <trkpt lat="43.40004" lon="-0.34892">
        <ele>241.4</ele>
        <time>2021-10-14T09:28:13Z</time>
      </trkpt>
      <trkpt lat="43.40004" lon="-0.3489">
        <ele>241.4</ele>
        <time>2021-10-14T09:28:14Z</time>
      </trkpt>
      <trkpt lat="43.40004" lon="-0.34888">
        <ele>241</ele>
        <time>2021-10-14T09:28:14Z</time>
      </trkpt>
      <trkpt lat="43.40005" lon="-0.3488">
        <ele>239.6</ele>
        <time>2021-10-14T09:28:18Z</time>
      </trkpt>
      <trkpt lat="43.40005" lon="-0.34876">
        <ele>239.5</ele>
        <time>2021-10-14T09:28:19Z</time>
      </trkpt>
      <trkpt lat="43.40005" lon="-0.34874">
        <ele>238.9</ele>
        <time>2021-10-14T09:28:20Z</time>
      </trkpt>
      <trkpt lat="43.40005" lon="-0.34872">
        <ele>238.8</ele>
        <time>2021-10-14T09:28:21Z</time>
      </trkpt>
      <trkpt lat="43.40005" lon="-0.3487">
        <ele>238.8</ele>
        <time>2021-10-14T09:28:22Z</time>
      </trkpt>
      <trkpt lat="43.40005" lon="-0.34867">
        <ele>237.6</ele>
        <time>2021-10-14T09:28:23Z</time>
      </trkpt>
      <trkpt lat="43.40005" lon="-0.34861">
        <ele>238.3</ele>
        <time>2021-10-14T09:28:25Z</time>
      </trkpt>
      <trkpt lat="43.40005" lon="-0.34859">
        <ele>237.8</ele>
        <time>2021-10-14T09:28:26Z</time>
      </trkpt>
      <trkpt lat="43.40005" lon="-0.34856">
        <ele>238</ele>
        <time>2021-10-14T09:28:27Z</time>
      </trkpt>
      <trkpt lat="43.40005" lon="-0.34849">
        <ele>237.9</ele>
        <time>2021-10-14T09:28:30Z</time>
      </trkpt>
      <trkpt lat="43.40005" lon="-0.34847">
        <ele>237.9</ele>
        <time>2021-10-14T09:28:31Z</time>
      </trkpt>
      <trkpt lat="43.40004" lon="-0.34843">
        <ele>239.4</ele>
        <time>2021-10-14T09:28:32Z</time>
      </trkpt>
      <trkpt lat="43.40004" lon="-0.3484">
        <ele>239.1</ele>
        <time>2021-10-14T09:28:33Z</time>
      </trkpt>
      <trkpt lat="43.40004" lon="-0.34838">
        <ele>239.1</ele>
        <time>2021-10-14T09:28:34Z</time>
      </trkpt>
      <trkpt lat="43.40004" lon="-0.34832">
        <ele>238.4</ele>
        <time>2021-10-14T09:28:36Z</time>
      </trkpt>
      <trkpt lat="43.40002" lon="-0.3482">
        <ele>239.7</ele>
        <time>2021-10-14T09:28:41Z</time>
      </trkpt>
      <trkpt lat="43.40002" lon="-0.34816">
        <ele>239.9</ele>
        <time>2021-10-14T09:28:43Z</time>
      </trkpt>
      <trkpt lat="43.40001" lon="-0.34808">
        <ele>241</ele>
        <time>2021-10-14T09:28:46Z</time>
      </trkpt>
      <trkpt lat="43.4" lon="-0.34806">
        <ele>240.5</ele>
        <time>2021-10-14T09:28:47Z</time>
      </trkpt>
      <trkpt lat="43.39997" lon="-0.34793">
        <ele>241.3</ele>
        <time>2021-10-14T09:28:53Z</time>
      </trkpt>
      <trkpt lat="43.39996" lon="-0.34789">
        <ele>242.4</ele>
        <time>2021-10-14T09:28:55Z</time>
      </trkpt>
      <trkpt lat="43.39994" lon="-0.34783">
        <ele>242</ele>
        <time>2021-10-14T09:28:57Z</time>
      </trkpt>
      <trkpt lat="43.39993" lon="-0.34779">
        <ele>241.9</ele>
        <time>2021-10-14T09:28:59Z</time>
      </trkpt>
      <trkpt lat="43.39992" lon="-0.34777">
        <ele>241.9</ele>
        <time>2021-10-14T09:29:00Z</time>
      </trkpt>
      <trkpt lat="43.39991" lon="-0.34775">
        <ele>242.7</ele>
        <time>2021-10-14T09:29:01Z</time>
      </trkpt>
      <trkpt lat="43.39991" lon="-0.34773">
        <ele>243.1</ele>
        <time>2021-10-14T09:29:02Z</time>
      </trkpt>
      <trkpt lat="43.39989" lon="-0.34764">
        <ele>244</ele>
        <time>2021-10-14T09:29:06Z</time>
      </trkpt>
      <trkpt lat="43.39987" lon="-0.3476">
        <ele>244.2</ele>
        <time>2021-10-14T09:29:07Z</time>
      </trkpt>
      <trkpt lat="43.39987" lon="-0.34758">
        <ele>244.6</ele>
        <time>2021-10-14T09:29:08Z</time>
      </trkpt>
      <trkpt lat="43.39986" lon="-0.34756">
        <ele>244.2</ele>
        <time>2021-10-14T09:29:09Z</time>
      </trkpt>
      <trkpt lat="43.39985" lon="-0.34754">
        <ele>245.4</ele>
        <time>2021-10-14T09:29:10Z</time>
      </trkpt>
      <trkpt lat="43.39985" lon="-0.34753">
        <ele>245.4</ele>
        <time>2021-10-14T09:29:11Z</time>
      </trkpt>
      <trkpt lat="43.39984" lon="-0.34751">
        <ele>244.8</ele>
        <time>2021-10-14T09:29:11Z</time>
      </trkpt>
      <trkpt lat="43.39982" lon="-0.34743">
        <ele>244.8</ele>
        <time>2021-10-14T09:29:15Z</time>
      </trkpt>
      <trkpt lat="43.39982" lon="-0.34742">
        <ele>246.1</ele>
        <time>2021-10-14T09:29:16Z</time>
      </trkpt>
      <trkpt lat="43.3998" lon="-0.34737">
        <ele>246</ele>
        <time>2021-10-14T09:29:18Z</time>
      </trkpt>
      <trkpt lat="43.39979" lon="-0.34735">
        <ele>245.9</ele>
        <time>2021-10-14T09:29:19Z</time>
      </trkpt>
      <trkpt lat="43.39978" lon="-0.34733">
        <ele>246.1</ele>
        <time>2021-10-14T09:29:20Z</time>
      </trkpt>
      <trkpt lat="43.39977" lon="-0.34731">
        <ele>246.4</ele>
        <time>2021-10-14T09:29:21Z</time>
      </trkpt>
      <trkpt lat="43.39976" lon="-0.34726">
        <ele>246.1</ele>
        <time>2021-10-14T09:29:23Z</time>
      </trkpt>
      <trkpt lat="43.39975" lon="-0.34722">
        <ele>246.4</ele>
        <time>2021-10-14T09:29:25Z</time>
      </trkpt>
      <trkpt lat="43.39973" lon="-0.34717">
        <ele>247.4</ele>
        <time>2021-10-14T09:29:27Z</time>
      </trkpt>
      <trkpt lat="43.39972" lon="-0.34712">
        <ele>246.9</ele>
        <time>2021-10-14T09:29:29Z</time>
      </trkpt>
      <trkpt lat="43.39971" lon="-0.34707">
        <ele>247.4</ele>
        <time>2021-10-14T09:29:31Z</time>
      </trkpt>
      <trkpt lat="43.39969" lon="-0.34701">
        <ele>247.8</ele>
        <time>2021-10-14T09:29:33Z</time>
      </trkpt>
      <trkpt lat="43.39966" lon="-0.34694">
        <ele>246.8</ele>
        <time>2021-10-14T09:29:36Z</time>
      </trkpt>
      <trkpt lat="43.39964" lon="-0.3469">
        <ele>248.4</ele>
        <time>2021-10-14T09:29:38Z</time>
      </trkpt>
      <trkpt lat="43.39963" lon="-0.34688">
        <ele>248.4</ele>
        <time>2021-10-14T09:29:39Z</time>
      </trkpt>
      <trkpt lat="43.39963" lon="-0.34686">
        <ele>248.2</ele>
        <time>2021-10-14T09:29:40Z</time>
      </trkpt>
      <trkpt lat="43.3996" lon="-0.34682">
        <ele>250.3</ele>
        <time>2021-10-14T09:29:42Z</time>
      </trkpt>
      <trkpt lat="43.39959" lon="-0.3468">
        <ele>251.2</ele>
        <time>2021-10-14T09:29:43Z</time>
      </trkpt>
      <trkpt lat="43.39959" lon="-0.34678">
        <ele>251.2</ele>
        <time>2021-10-14T09:29:44Z</time>
      </trkpt>
      <trkpt lat="43.39956" lon="-0.34674">
        <ele>250.6</ele>
        <time>2021-10-14T09:29:46Z</time>
      </trkpt>
      <trkpt lat="43.39955" lon="-0.34672">
        <ele>250.9</ele>
        <time>2021-10-14T09:29:46Z</time>
      </trkpt>
      <trkpt lat="43.39954" lon="-0.34669">
        <ele>251.3</ele>
        <time>2021-10-14T09:29:48Z</time>
      </trkpt>
      <trkpt lat="43.39952" lon="-0.34667">
        <ele>250.5</ele>
        <time>2021-10-14T09:29:49Z</time>
      </trkpt>
      <trkpt lat="43.39951" lon="-0.34665">
        <ele>251.2</ele>
        <time>2021-10-14T09:29:50Z</time>
      </trkpt>
      <trkpt lat="43.3995" lon="-0.34663">
        <ele>251.6</ele>
        <time>2021-10-14T09:29:51Z</time>
      </trkpt>
      <trkpt lat="43.39947" lon="-0.34658">
        <ele>251.9</ele>
        <time>2021-10-14T09:29:54Z</time>
      </trkpt>
      <trkpt lat="43.39946" lon="-0.34655">
        <ele>252.7</ele>
        <time>2021-10-14T09:29:55Z</time>
      </trkpt>
      <trkpt lat="43.39943" lon="-0.3465">
        <ele>251.9</ele>
        <time>2021-10-14T09:29:58Z</time>
      </trkpt>
      <trkpt lat="43.39942" lon="-0.34644">
        <ele>252</ele>
        <time>2021-10-14T09:30:00Z</time>
      </trkpt>
      <trkpt lat="43.3994" lon="-0.34641">
        <ele>252.1</ele>
        <time>2021-10-14T09:30:01Z</time>
      </trkpt>
      <trkpt lat="43.3994" lon="-0.3464">
        <ele>252.8</ele>
        <time>2021-10-14T09:30:02Z</time>
      </trkpt>
      <trkpt lat="43.39939" lon="-0.34638">
        <ele>253</ele>
        <time>2021-10-14T09:30:03Z</time>
      </trkpt>
      <trkpt lat="43.39937" lon="-0.34636">
        <ele>253.1</ele>
        <time>2021-10-14T09:30:04Z</time>
      </trkpt>
      <trkpt lat="43.39936" lon="-0.34634">
        <ele>253.1</ele>
        <time>2021-10-14T09:30:05Z</time>
      </trkpt>
      <trkpt lat="43.39936" lon="-0.34632">
        <ele>252.8</ele>
        <time>2021-10-14T09:30:05Z</time>
      </trkpt>
      <trkpt lat="43.39926" lon="-0.34608">
        <ele>252.4</ele>
        <time>2021-10-14T09:30:11Z</time>
      </trkpt>
      <trkpt lat="43.39924" lon="-0.34604">
        <ele>252.4</ele>
        <time>2021-10-14T09:30:12Z</time>
      </trkpt>
      <trkpt lat="43.39922" lon="-0.34601">
        <ele>251.2</ele>
        <time>2021-10-14T09:30:13Z</time>
      </trkpt>
      <trkpt lat="43.39917" lon="-0.346">
        <ele>250.1</ele>
        <time>2021-10-14T09:30:14Z</time>
      </trkpt>
      <trkpt lat="43.39913" lon="-0.34599">
        <ele>250.1</ele>
        <time>2021-10-14T09:30:15Z</time>
      </trkpt>
      <trkpt lat="43.39911" lon="-0.34599">
        <ele>250.1</ele>
        <time>2021-10-14T09:30:15Z</time>
      </trkpt>
      <trkpt lat="43.39909" lon="-0.34597">
        <ele>249.9</ele>
        <time>2021-10-14T09:30:16Z</time>
      </trkpt>
      <trkpt lat="43.39908" lon="-0.34597">
        <ele>249.7</ele>
        <time>2021-10-14T09:30:17Z</time>
      </trkpt>
      <trkpt lat="43.39907" lon="-0.34598">
        <ele>250</ele>
        <time>2021-10-14T09:30:18Z</time>
      </trkpt>
      <trkpt lat="43.39905" lon="-0.34598">
        <ele>250</ele>
        <time>2021-10-14T09:30:19Z</time>
      </trkpt>
      <trkpt lat="43.39902" lon="-0.34595">
        <ele>250.3</ele>
        <time>2021-10-14T09:30:20Z</time>
      </trkpt>
      <trkpt lat="43.39901" lon="-0.34594">
        <ele>249</ele>
        <time>2021-10-14T09:30:21Z</time>
      </trkpt>
      <trkpt lat="43.39898" lon="-0.34594">
        <ele>249</ele>
        <time>2021-10-14T09:30:22Z</time>
      </trkpt>
      <trkpt lat="43.39896" lon="-0.34594">
        <ele>250.2</ele>
        <time>2021-10-14T09:30:23Z</time>
      </trkpt>
      <trkpt lat="43.3989" lon="-0.34597">
        <ele>250</ele>
        <time>2021-10-14T09:30:25Z</time>
      </trkpt>
      <trkpt lat="43.39872" lon="-0.3461">
        <ele>249.2</ele>
        <time>2021-10-14T09:30:32Z</time>
      </trkpt>
      <trkpt lat="43.39865" lon="-0.34617">
        <ele>248.9</ele>
        <time>2021-10-14T09:30:35Z</time>
      </trkpt>
      <trkpt lat="43.39849" lon="-0.34638">
        <ele>247.8</ele>
        <time>2021-10-14T09:30:41Z</time>
      </trkpt>
      <trkpt lat="43.39844" lon="-0.34647">
        <ele>246.8</ele>
        <time>2021-10-14T09:30:43Z</time>
      </trkpt>
      <trkpt lat="43.39839" lon="-0.34654">
        <ele>246</ele>
        <time>2021-10-14T09:30:45Z</time>
      </trkpt>
      <trkpt lat="43.39836" lon="-0.34657">
        <ele>245.8</ele>
        <time>2021-10-14T09:30:46Z</time>
      </trkpt>
      <trkpt lat="43.39832" lon="-0.34663">
        <ele>245.3</ele>
        <time>2021-10-14T09:30:48Z</time>
      </trkpt>
      <trkpt lat="43.39831" lon="-0.34666">
        <ele>244.2</ele>
        <time>2021-10-14T09:30:48Z</time>
      </trkpt>
      <trkpt lat="43.39821" lon="-0.34679">
        <ele>241.8</ele>
        <time>2021-10-14T09:30:51Z</time>
      </trkpt>
      <trkpt lat="43.3982" lon="-0.34682">
        <ele>243</ele>
        <time>2021-10-14T09:30:52Z</time>
      </trkpt>
      <trkpt lat="43.39801" lon="-0.34706">
        <ele>240.1</ele>
        <time>2021-10-14T09:30:58Z</time>
      </trkpt>
      <trkpt lat="43.39797" lon="-0.3471">
        <ele>239.8</ele>
        <time>2021-10-14T09:30:59Z</time>
      </trkpt>
      <trkpt lat="43.39795" lon="-0.34711">
        <ele>239.8</ele>
        <time>2021-10-14T09:30:59Z</time>
      </trkpt>
      <trkpt lat="43.39785" lon="-0.34721">
        <ele>239.9</ele>
        <time>2021-10-14T09:31:03Z</time>
      </trkpt>
      <trkpt lat="43.39779" lon="-0.34725">
        <ele>239.8</ele>
        <time>2021-10-14T09:31:05Z</time>
      </trkpt>
      <trkpt lat="43.39776" lon="-0.34726">
        <ele>240.2</ele>
        <time>2021-10-14T09:31:06Z</time>
      </trkpt>
      <trkpt lat="43.39763" lon="-0.3473">
        <ele>240</ele>
        <time>2021-10-14T09:31:11Z</time>
      </trkpt>
      <trkpt lat="43.39759" lon="-0.34731">
        <ele>239.8</ele>
        <time>2021-10-14T09:31:12Z</time>
      </trkpt>
      <trkpt lat="43.39755" lon="-0.3473">
        <ele>240.4</ele>
        <time>2021-10-14T09:31:14Z</time>
      </trkpt>
      <trkpt lat="43.39753" lon="-0.34729">
        <ele>240.1</ele>
        <time>2021-10-14T09:31:14Z</time>
      </trkpt>
      <trkpt lat="43.39746" lon="-0.34728">
        <ele>238.8</ele>
        <time>2021-10-14T09:31:17Z</time>
      </trkpt>
      <trkpt lat="43.3974" lon="-0.34725">
        <ele>239.3</ele>
        <time>2021-10-14T09:31:19Z</time>
      </trkpt>
      <trkpt lat="43.39737" lon="-0.34724">
        <ele>239</ele>
        <time>2021-10-14T09:31:20Z</time>
      </trkpt>
      <trkpt lat="43.39718" lon="-0.34722">
        <ele>237.4</ele>
        <time>2021-10-14T09:31:27Z</time>
      </trkpt>
      <trkpt lat="43.39714" lon="-0.34723">
        <ele>236.3</ele>
        <time>2021-10-14T09:31:29Z</time>
      </trkpt>
      <trkpt lat="43.39704" lon="-0.34722">
        <ele>233.9</ele>
        <time>2021-10-14T09:31:33Z</time>
      </trkpt>
      <trkpt lat="43.39702" lon="-0.34722">
        <ele>233.8</ele>
        <time>2021-10-14T09:31:34Z</time>
      </trkpt>
      <trkpt lat="43.39701" lon="-0.34722">
        <ele>233.8</ele>
        <time>2021-10-14T09:31:35Z</time>
      </trkpt>
      <trkpt lat="43.39696" lon="-0.34723">
        <ele>232.7</ele>
        <time>2021-10-14T09:31:36Z</time>
      </trkpt>
      <trkpt lat="43.39694" lon="-0.34723">
        <ele>232.6</ele>
        <time>2021-10-14T09:31:37Z</time>
      </trkpt>
      <trkpt lat="43.39691" lon="-0.34722">
        <ele>231.6</ele>
        <time>2021-10-14T09:31:38Z</time>
      </trkpt>
      <trkpt lat="43.39676" lon="-0.34721">
        <ele>229.2</ele>
        <time>2021-10-14T09:31:43Z</time>
      </trkpt>
      <trkpt lat="43.39674" lon="-0.34721">
        <ele>227.8</ele>
        <time>2021-10-14T09:31:43Z</time>
      </trkpt>
      <trkpt lat="43.39672" lon="-0.34721">
        <ele>228.1</ele>
        <time>2021-10-14T09:31:44Z</time>
      </trkpt>
      <trkpt lat="43.39668" lon="-0.34719">
        <ele>227</ele>
        <time>2021-10-14T09:31:46Z</time>
      </trkpt>
      <trkpt lat="43.39653" lon="-0.34717">
        <ele>223.2</ele>
        <time>2021-10-14T09:31:51Z</time>
      </trkpt>
      <trkpt lat="43.39646" lon="-0.34718">
        <ele>221.9</ele>
        <time>2021-10-14T09:31:53Z</time>
      </trkpt>
      <trkpt lat="43.39641" lon="-0.34717">
        <ele>220</ele>
        <time>2021-10-14T09:31:55Z</time>
      </trkpt>
      <trkpt lat="43.39637" lon="-0.34717">
        <ele>218.9</ele>
        <time>2021-10-14T09:31:57Z</time>
      </trkpt>
      <trkpt lat="43.39633" lon="-0.34717">
        <ele>218.8</ele>
        <time>2021-10-14T09:31:58Z</time>
      </trkpt>
      <trkpt lat="43.39632" lon="-0.34717">
        <ele>218</ele>
        <time>2021-10-14T09:31:59Z</time>
      </trkpt>
      <trkpt lat="43.39631" lon="-0.34717">
        <ele>218</ele>
        <time>2021-10-14T09:32:00Z</time>
      </trkpt>
      <trkpt lat="43.39629" lon="-0.34716">
        <ele>217.7</ele>
        <time>2021-10-14T09:32:01Z</time>
      </trkpt>
      <trkpt lat="43.39627" lon="-0.34716">
        <ele>217.7</ele>
        <time>2021-10-14T09:32:02Z</time>
      </trkpt>
      <trkpt lat="43.39625" lon="-0.34716">
        <ele>218.3</ele>
        <time>2021-10-14T09:32:03Z</time>
      </trkpt>
      <trkpt lat="43.39587" lon="-0.34709">
        <ele>215.1</ele>
        <time>2021-10-14T09:32:14Z</time>
      </trkpt>
      <trkpt lat="43.39583" lon="-0.34707">
        <ele>215.1</ele>
        <time>2021-10-14T09:32:15Z</time>
      </trkpt>
      <trkpt lat="43.39571" lon="-0.34699">
        <ele>213.8</ele>
        <time>2021-10-14T09:32:19Z</time>
      </trkpt>
      <trkpt lat="43.39568" lon="-0.34696">
        <ele>214</ele>
        <time>2021-10-14T09:32:20Z</time>
      </trkpt>
      <trkpt lat="43.39565" lon="-0.34692">
        <ele>213.1</ele>
        <time>2021-10-14T09:32:22Z</time>
      </trkpt>
      <trkpt lat="43.39563" lon="-0.34689">
        <ele>212.8</ele>
        <time>2021-10-14T09:32:23Z</time>
      </trkpt>
      <trkpt lat="43.39562" lon="-0.34688">
        <ele>213</ele>
        <time>2021-10-14T09:32:23Z</time>
      </trkpt>
      <trkpt lat="43.3956" lon="-0.34685">
        <ele>212.2</ele>
        <time>2021-10-14T09:32:25Z</time>
      </trkpt>
      <trkpt lat="43.39559" lon="-0.34683">
        <ele>212.7</ele>
        <time>2021-10-14T09:32:26Z</time>
      </trkpt>
      <trkpt lat="43.39558" lon="-0.34682">
        <ele>212.7</ele>
        <time>2021-10-14T09:32:27Z</time>
      </trkpt>
      <trkpt lat="43.39555" lon="-0.3468">
        <ele>211.8</ele>
        <time>2021-10-14T09:32:28Z</time>
      </trkpt>
      <trkpt lat="43.39554" lon="-0.3468">
        <ele>212.4</ele>
        <time>2021-10-14T09:32:28Z</time>
      </trkpt>
      <trkpt lat="43.39553" lon="-0.3468">
        <ele>211</ele>
        <time>2021-10-14T09:32:29Z</time>
      </trkpt>
      <trkpt lat="43.3955" lon="-0.34678">
        <ele>211.2</ele>
        <time>2021-10-14T09:32:30Z</time>
      </trkpt>
      <trkpt lat="43.39543" lon="-0.34673">
        <ele>211</ele>
        <time>2021-10-14T09:32:32Z</time>
      </trkpt>
      <trkpt lat="43.39537" lon="-0.3467">
        <ele>211.4</ele>
        <time>2021-10-14T09:32:33Z</time>
      </trkpt>
      <trkpt lat="43.39533" lon="-0.34667">
        <ele>210.9</ele>
        <time>2021-10-14T09:32:34Z</time>
      </trkpt>
      <trkpt lat="43.39517" lon="-0.34659">
        <ele>212.1</ele>
        <time>2021-10-14T09:32:38Z</time>
      </trkpt>
      <trkpt lat="43.39504" lon="-0.34654">
        <ele>210.3</ele>
        <time>2021-10-14T09:32:43Z</time>
      </trkpt>
      <trkpt lat="43.39499" lon="-0.34652">
        <ele>210.6</ele>
        <time>2021-10-14T09:32:45Z</time>
      </trkpt>
      <trkpt lat="43.39496" lon="-0.34649">
        <ele>211.3</ele>
        <time>2021-10-14T09:32:46Z</time>
      </trkpt>
      <trkpt lat="43.39495" lon="-0.34648">
        <ele>211.3</ele>
        <time>2021-10-14T09:32:47Z</time>
      </trkpt>
      <trkpt lat="43.39493" lon="-0.34646">
        <ele>211.4</ele>
        <time>2021-10-14T09:32:48Z</time>
      </trkpt>
      <trkpt lat="43.3949" lon="-0.34642">
        <ele>210.9</ele>
        <time>2021-10-14T09:32:50Z</time>
      </trkpt>
      <trkpt lat="43.39487" lon="-0.3464">
        <ele>211.2</ele>
        <time>2021-10-14T09:32:51Z</time>
      </trkpt>
      <trkpt lat="43.3948" lon="-0.34633">
        <ele>211.2</ele>
        <time>2021-10-14T09:32:54Z</time>
      </trkpt>
      <trkpt lat="43.39477" lon="-0.3463">
        <ele>211.2</ele>
        <time>2021-10-14T09:32:55Z</time>
      </trkpt>
      <trkpt lat="43.39476" lon="-0.34627">
        <ele>210.9</ele>
        <time>2021-10-14T09:32:56Z</time>
      </trkpt>
      <trkpt lat="43.39474" lon="-0.34625">
        <ele>210.8</ele>
        <time>2021-10-14T09:32:56Z</time>
      </trkpt>
      <trkpt lat="43.39467" lon="-0.34618">
        <ele>210.3</ele>
        <time>2021-10-14T09:32:59Z</time>
      </trkpt>
      <trkpt lat="43.39465" lon="-0.34615">
        <ele>211.1</ele>
        <time>2021-10-14T09:33:00Z</time>
      </trkpt>
      <trkpt lat="43.3946" lon="-0.34607">
        <ele>212.2</ele>
        <time>2021-10-14T09:33:02Z</time>
      </trkpt>
      <trkpt lat="43.39449" lon="-0.34593">
        <ele>211.3</ele>
        <time>2021-10-14T09:33:06Z</time>
      </trkpt>
      <trkpt lat="43.39447" lon="-0.3459">
        <ele>210.7</ele>
        <time>2021-10-14T09:33:07Z</time>
      </trkpt>
      <trkpt lat="43.3944" lon="-0.34585">
        <ele>212.9</ele>
        <time>2021-10-14T09:33:09Z</time>
      </trkpt>
      <trkpt lat="43.39438" lon="-0.34584">
        <ele>213</ele>
        <time>2021-10-14T09:33:09Z</time>
      </trkpt>
      <trkpt lat="43.39429" lon="-0.34589">
        <ele>213.1</ele>
        <time>2021-10-14T09:33:11Z</time>
      </trkpt>
      <trkpt lat="43.39423" lon="-0.34593">
        <ele>212.8</ele>
        <time>2021-10-14T09:33:12Z</time>
      </trkpt>
      <trkpt lat="43.39376" lon="-0.34651">
        <ele>206.3</ele>
        <time>2021-10-14T09:33:21Z</time>
      </trkpt>
      <trkpt lat="43.39292" lon="-0.34717">
        <ele>202.1</ele>
        <time>2021-10-14T09:33:32Z</time>
      </trkpt>
      <trkpt lat="43.39231" lon="-0.34755">
        <ele>201</ele>
        <time>2021-10-14T09:33:41Z</time>
      </trkpt>
      <trkpt lat="43.39226" lon="-0.34759">
        <ele>201.1</ele>
        <time>2021-10-14T09:33:42Z</time>
      </trkpt>
      <trkpt lat="43.39222" lon="-0.34764">
        <ele>201.2</ele>
        <time>2021-10-14T09:33:43Z</time>
      </trkpt>
      <trkpt lat="43.39219" lon="-0.34769">
        <ele>202</ele>
        <time>2021-10-14T09:33:44Z</time>
      </trkpt>
      <trkpt lat="43.39218" lon="-0.34773">
        <ele>201.2</ele>
        <time>2021-10-14T09:33:45Z</time>
      </trkpt>
      <trkpt lat="43.39217" lon="-0.34778">
        <ele>201.9</ele>
        <time>2021-10-14T09:33:46Z</time>
      </trkpt>
      <trkpt lat="43.39217" lon="-0.34787">
        <ele>202.2</ele>
        <time>2021-10-14T09:33:48Z</time>
      </trkpt>
      <trkpt lat="43.39217" lon="-0.34792">
        <ele>202</ele>
        <time>2021-10-14T09:33:49Z</time>
      </trkpt>
      <trkpt lat="43.39216" lon="-0.34797">
        <ele>202</ele>
        <time>2021-10-14T09:33:50Z</time>
      </trkpt>
      <trkpt lat="43.39214" lon="-0.348">
        <ele>202.1</ele>
        <time>2021-10-14T09:33:51Z</time>
      </trkpt>
      <trkpt lat="43.39213" lon="-0.34801">
        <ele>201.8</ele>
        <time>2021-10-14T09:33:52Z</time>
      </trkpt>
      <trkpt lat="43.39212" lon="-0.348">
        <ele>201.9</ele>
        <time>2021-10-14T09:33:53Z</time>
      </trkpt>
      <trkpt lat="43.39206" lon="-0.34796">
        <ele>201.9</ele>
        <time>2021-10-14T09:33:55Z</time>
      </trkpt>
      <trkpt lat="43.39206" lon="-0.34795">
        <ele>202.4</ele>
        <time>2021-10-14T09:33:56Z</time>
      </trkpt>
      <trkpt lat="43.39205" lon="-0.34794">
        <ele>202.1</ele>
        <time>2021-10-14T09:33:57Z</time>
      </trkpt>
      <trkpt lat="43.39204" lon="-0.34793">
        <ele>201.9</ele>
        <time>2021-10-14T09:33:59Z</time>
      </trkpt>
      <trkpt lat="43.39204" lon="-0.34793">
        <ele>202.2</ele>
        <time>2021-10-14T09:34:00Z</time>
      </trkpt>
      <trkpt lat="43.39204" lon="-0.34793">
        <ele>201.8</ele>
        <time>2021-10-14T09:34:01Z</time>
      </trkpt>
      <trkpt lat="43.39204" lon="-0.34792">
        <ele>202.3</ele>
        <time>2021-10-14T09:34:02Z</time>
      </trkpt>
      <trkpt lat="43.39204" lon="-0.34792">
        <ele>202.3</ele>
        <time>2021-10-14T09:34:03Z</time>
      </trkpt>
      <trkpt lat="43.39204" lon="-0.34792">
        <ele>201.9</ele>
        <time>2021-10-14T09:34:04Z</time>
      </trkpt>
      <trkpt lat="43.39204" lon="-0.34792">
        <ele>202.3</ele>
        <time>2021-10-14T09:34:05Z</time>
      </trkpt>
      <trkpt lat="43.39204" lon="-0.34792">
        <ele>202</ele>
        <time>2021-10-14T09:34:06Z</time>
      </trkpt>
      <trkpt lat="43.39204" lon="-0.34792">
        <ele>202</ele>
        <time>2021-10-14T09:34:08Z</time>
      </trkpt>
      <trkpt lat="43.39204" lon="-0.34792">
        <ele>202.3</ele>
        <time>2021-10-14T09:34:09Z</time>
      </trkpt>
      <trkpt lat="43.39204" lon="-0.34792">
        <ele>202.1</ele>
        <time>2021-10-14T09:34:10Z</time>
      </trkpt>
      <trkpt lat="43.39204" lon="-0.34792">
        <ele>202</ele>
        <time>2021-10-14T09:34:12Z</time>
      </trkpt>
      <trkpt lat="43.39204" lon="-0.34792">
        <ele>201.8</ele>
        <time>2021-10-14T09:34:13Z</time>
      </trkpt>
      <trkpt lat="43.39204" lon="-0.34792">
        <ele>202.3</ele>
        <time>2021-10-14T09:34:14Z</time>
      </trkpt>
      <trkpt lat="43.39204" lon="-0.34792">
        <ele>202.3</ele>
        <time>2021-10-14T09:34:15Z</time>
      </trkpt>
      <trkpt lat="43.39204" lon="-0.34791">
        <ele>201.9</ele>
        <time>2021-10-14T09:34:17Z</time>
      </trkpt>
      <trkpt lat="43.39204" lon="-0.34791">
        <ele>202</ele>
        <time>2021-10-14T09:34:18Z</time>
      </trkpt>
      <trkpt lat="43.39203" lon="-0.34791">
        <ele>202.1</ele>
        <time>2021-10-14T09:34:20Z</time>
      </trkpt>
      <trkpt lat="43.39203" lon="-0.34791">
        <ele>201.9</ele>
        <time>2021-10-14T09:34:21Z</time>
      </trkpt>
      <trkpt lat="43.39203" lon="-0.34791">
        <ele>201.8</ele>
        <time>2021-10-14T09:34:22Z</time>
      </trkpt>
      <trkpt lat="43.39203" lon="-0.34791">
        <ele>201.7</ele>
        <time>2021-10-14T09:34:44Z</time>
      </trkpt>
      <trkpt lat="43.39203" lon="-0.34791">
        <ele>201.7</ele>
        <time>2021-10-14T09:34:46Z</time>
      </trkpt>
      <trkpt lat="43.39203" lon="-0.34791">
        <ele>202</ele>
        <time>2021-10-14T09:34:47Z</time>
      </trkpt>
      <trkpt lat="43.39203" lon="-0.34791">
        <ele>202</ele>
        <time>2021-10-14T09:34:48Z</time>
      </trkpt>
      <trkpt lat="43.39203" lon="-0.34791">
        <ele>201.6</ele>
        <time>2021-10-14T09:35:47Z</time>
      </trkpt>
      <trkpt lat="43.39203" lon="-0.34788">
        <ele>202.3</ele>
        <time>2021-10-14T09:35:49Z</time>
      </trkpt>
      <trkpt lat="43.39203" lon="-0.34787">
        <ele>200.8</ele>
        <time>2021-10-14T09:35:50Z</time>
      </trkpt>
      <trkpt lat="43.39202" lon="-0.34785">
        <ele>201.3</ele>
        <time>2021-10-14T09:35:51Z</time>
      </trkpt>
      <trkpt lat="43.39201" lon="-0.34784">
        <ele>200.9</ele>
        <time>2021-10-14T09:35:52Z</time>
      </trkpt>
      <trkpt lat="43.39199" lon="-0.34782">
        <ele>201.7</ele>
        <time>2021-10-14T09:35:53Z</time>
      </trkpt>
      <trkpt lat="43.39198" lon="-0.34781">
        <ele>201.2</ele>
        <time>2021-10-14T09:35:54Z</time>
      </trkpt>
      <trkpt lat="43.39198" lon="-0.3478">
        <ele>201.2</ele>
        <time>2021-10-14T09:35:55Z</time>
      </trkpt>
      <trkpt lat="43.39198" lon="-0.34779">
        <ele>201.3</ele>
        <time>2021-10-14T09:35:56Z</time>
      </trkpt>
      <trkpt lat="43.3919" lon="-0.34773">
        <ele>201.1</ele>
        <time>2021-10-14T09:35:59Z</time>
      </trkpt>
      <trkpt lat="43.39187" lon="-0.34771">
        <ele>201.4</ele>
        <time>2021-10-14T09:36:01Z</time>
      </trkpt>
      <trkpt lat="43.39185" lon="-0.3477">
        <ele>201.1</ele>
        <time>2021-10-14T09:36:01Z</time>
      </trkpt>
      <trkpt lat="43.39184" lon="-0.34769">
        <ele>201.1</ele>
        <time>2021-10-14T09:36:02Z</time>
      </trkpt>
      <trkpt lat="43.39183" lon="-0.34768">
        <ele>200.8</ele>
        <time>2021-10-14T09:36:03Z</time>
      </trkpt>
      <trkpt lat="43.39179" lon="-0.34762">
        <ele>201.2</ele>
        <time>2021-10-14T09:36:05Z</time>
      </trkpt>
      <trkpt lat="43.39173" lon="-0.34747">
        <ele>201.5</ele>
        <time>2021-10-14T09:36:09Z</time>
      </trkpt>
      <trkpt lat="43.39172" lon="-0.34744">
        <ele>200.5</ele>
        <time>2021-10-14T09:36:10Z</time>
      </trkpt>
      <trkpt lat="43.39172" lon="-0.34741">
        <ele>202</ele>
        <time>2021-10-14T09:36:10Z</time>
      </trkpt>
      <trkpt lat="43.39169" lon="-0.34729">
        <ele>203.1</ele>
        <time>2021-10-14T09:36:13Z</time>
      </trkpt>
      <trkpt lat="43.39165" lon="-0.34712">
        <ele>203.3</ele>
        <time>2021-10-14T09:36:17Z</time>
      </trkpt>
      <trkpt lat="43.39156" lon="-0.3469">
        <ele>202.1</ele>
        <time>2021-10-14T09:36:23Z</time>
      </trkpt>
      <trkpt lat="43.39149" lon="-0.34676">
        <ele>201.2</ele>
        <time>2021-10-14T09:36:27Z</time>
      </trkpt>
      <trkpt lat="43.39142" lon="-0.34659">
        <ele>201.6</ele>
        <time>2021-10-14T09:36:32Z</time>
      </trkpt>
      <trkpt lat="43.39136" lon="-0.34646">
        <ele>201.8</ele>
        <time>2021-10-14T09:36:36Z</time>
      </trkpt>
      <trkpt lat="43.39133" lon="-0.34639">
        <ele>202.6</ele>
        <time>2021-10-14T09:36:38Z</time>
      </trkpt>
      <trkpt lat="43.39129" lon="-0.34631">
        <ele>202.1</ele>
        <time>2021-10-14T09:36:40Z</time>
      </trkpt>
      <trkpt lat="43.39126" lon="-0.34622">
        <ele>202.3</ele>
        <time>2021-10-14T09:36:43Z</time>
      </trkpt>
      <trkpt lat="43.39124" lon="-0.34618">
        <ele>201.3</ele>
        <time>2021-10-14T09:36:44Z</time>
      </trkpt>
      <trkpt lat="43.39121" lon="-0.34611">
        <ele>201.8</ele>
        <time>2021-10-14T09:36:46Z</time>
      </trkpt>
      <trkpt lat="43.39119" lon="-0.34608">
        <ele>201.9</ele>
        <time>2021-10-14T09:36:48Z</time>
      </trkpt>
      <trkpt lat="43.39118" lon="-0.34605">
        <ele>201.7</ele>
        <time>2021-10-14T09:36:49Z</time>
      </trkpt>
      <trkpt lat="43.39117" lon="-0.34603">
        <ele>202</ele>
        <time>2021-10-14T09:36:50Z</time>
      </trkpt>
      <trkpt lat="43.39115" lon="-0.34596">
        <ele>201.2</ele>
        <time>2021-10-14T09:36:53Z</time>
      </trkpt>
      <trkpt lat="43.39115" lon="-0.34594">
        <ele>201.5</ele>
        <time>2021-10-14T09:36:54Z</time>
      </trkpt>
      <trkpt lat="43.39113" lon="-0.34573">
        <ele>202.6</ele>
        <time>2021-10-14T09:37:00Z</time>
      </trkpt>
      <trkpt lat="43.39112" lon="-0.34571">
        <ele>202.9</ele>
        <time>2021-10-14T09:37:02Z</time>
      </trkpt>
      <trkpt lat="43.3911" lon="-0.34568">
        <ele>204.2</ele>
        <time>2021-10-14T09:37:03Z</time>
      </trkpt>
      <trkpt lat="43.3911" lon="-0.34567">
        <ele>204.2</ele>
        <time>2021-10-14T09:37:04Z</time>
      </trkpt>
      <trkpt lat="43.39108" lon="-0.34566">
        <ele>203.8</ele>
        <time>2021-10-14T09:37:05Z</time>
      </trkpt>
      <trkpt lat="43.39106" lon="-0.34566">
        <ele>204</ele>
        <time>2021-10-14T09:37:06Z</time>
      </trkpt>
      <trkpt lat="43.39104" lon="-0.34566">
        <ele>203.5</ele>
        <time>2021-10-14T09:37:07Z</time>
      </trkpt>
      <trkpt lat="43.39101" lon="-0.34568">
        <ele>203.6</ele>
        <time>2021-10-14T09:37:09Z</time>
      </trkpt>
      <trkpt lat="43.39099" lon="-0.34569">
        <ele>204.2</ele>
        <time>2021-10-14T09:37:10Z</time>
      </trkpt>
      <trkpt lat="43.39098" lon="-0.3457">
        <ele>204.5</ele>
        <time>2021-10-14T09:37:11Z</time>
      </trkpt>
      <trkpt lat="43.39096" lon="-0.34575">
        <ele>205.3</ele>
        <time>2021-10-14T09:37:13Z</time>
      </trkpt>
      <trkpt lat="43.39097" lon="-0.34576">
        <ele>204.1</ele>
        <time>2021-10-14T09:37:13Z</time>
      </trkpt>
      <trkpt lat="43.39096" lon="-0.34581">
        <ele>204</ele>
        <time>2021-10-14T09:37:16Z</time>
      </trkpt>
      <trkpt lat="43.39096" lon="-0.34582">
        <ele>204.5</ele>
        <time>2021-10-14T09:37:16Z</time>
      </trkpt>
      <trkpt lat="43.39096" lon="-0.34588">
        <ele>203.6</ele>
        <time>2021-10-14T09:37:19Z</time>
      </trkpt>
      <trkpt lat="43.39096" lon="-0.34589">
        <ele>203.4</ele>
        <time>2021-10-14T09:37:20Z</time>
      </trkpt>
      <trkpt lat="43.39095" lon="-0.34592">
        <ele>203</ele>
        <time>2021-10-14T09:37:21Z</time>
      </trkpt>
      <trkpt lat="43.39095" lon="-0.34594">
        <ele>202.9</ele>
        <time>2021-10-14T09:37:22Z</time>
      </trkpt>
      <trkpt lat="43.39094" lon="-0.34595">
        <ele>204</ele>
        <time>2021-10-14T09:37:23Z</time>
      </trkpt>
      <trkpt lat="43.39095" lon="-0.34596">
        <ele>203.1</ele>
        <time>2021-10-14T09:37:23Z</time>
      </trkpt>
      <trkpt lat="43.39095" lon="-0.34597">
        <ele>203.1</ele>
        <time>2021-10-14T09:37:24Z</time>
      </trkpt>
      <trkpt lat="43.39095" lon="-0.34598">
        <ele>204</ele>
        <time>2021-10-14T09:37:24Z</time>
      </trkpt>
      <trkpt lat="43.39095" lon="-0.34603">
        <ele>203.9</ele>
        <time>2021-10-14T09:37:27Z</time>
      </trkpt>
      <trkpt lat="43.39095" lon="-0.34604">
        <ele>203.9</ele>
        <time>2021-10-14T09:37:27Z</time>
      </trkpt>
      <trkpt lat="43.39094" lon="-0.34607">
        <ele>204.3</ele>
        <time>2021-10-14T09:37:29Z</time>
      </trkpt>
      <trkpt lat="43.39094" lon="-0.34608">
        <ele>204.8</ele>
        <time>2021-10-14T09:37:30Z</time>
      </trkpt>
      <trkpt lat="43.39094" lon="-0.34609">
        <ele>205.2</ele>
        <time>2021-10-14T09:37:30Z</time>
      </trkpt>
      <trkpt lat="43.39094" lon="-0.34611">
        <ele>204.6</ele>
        <time>2021-10-14T09:37:31Z</time>
      </trkpt>
      <trkpt lat="43.39094" lon="-0.34612">
        <ele>204.6</ele>
        <time>2021-10-14T09:37:32Z</time>
      </trkpt>
      <trkpt lat="43.39094" lon="-0.34614">
        <ele>205.1</ele>
        <time>2021-10-14T09:37:33Z</time>
      </trkpt>
      <trkpt lat="43.39093" lon="-0.34616">
        <ele>205.3</ele>
        <time>2021-10-14T09:37:34Z</time>
      </trkpt>
      <trkpt lat="43.39093" lon="-0.34618">
        <ele>205</ele>
        <time>2021-10-14T09:37:35Z</time>
      </trkpt>
      <trkpt lat="43.39093" lon="-0.34619">
        <ele>205</ele>
        <time>2021-10-14T09:37:36Z</time>
      </trkpt>
      <trkpt lat="43.39092" lon="-0.3462">
        <ele>205.2</ele>
        <time>2021-10-14T09:37:36Z</time>
      </trkpt>
      <trkpt lat="43.39092" lon="-0.34621">
        <ele>205.2</ele>
        <time>2021-10-14T09:37:37Z</time>
      </trkpt>
      <trkpt lat="43.39092" lon="-0.34623">
        <ele>204.6</ele>
        <time>2021-10-14T09:37:38Z</time>
      </trkpt>
      <trkpt lat="43.39091" lon="-0.34624">
        <ele>205.2</ele>
        <time>2021-10-14T09:37:39Z</time>
      </trkpt>
      <trkpt lat="43.3909" lon="-0.34627">
        <ele>205</ele>
        <time>2021-10-14T09:37:41Z</time>
      </trkpt>
      <trkpt lat="43.39089" lon="-0.34628">
        <ele>205.4</ele>
        <time>2021-10-14T09:37:41Z</time>
      </trkpt>
      <trkpt lat="43.39088" lon="-0.34629">
        <ele>203.3</ele>
        <time>2021-10-14T09:37:42Z</time>
      </trkpt>
      <trkpt lat="43.39084" lon="-0.34632">
        <ele>203.5</ele>
        <time>2021-10-14T09:37:45Z</time>
      </trkpt>
      <trkpt lat="43.39083" lon="-0.34632">
        <ele>205.2</ele>
        <time>2021-10-14T09:37:46Z</time>
      </trkpt>
      <trkpt lat="43.39081" lon="-0.34633">
        <ele>204.9</ele>
        <time>2021-10-14T09:37:47Z</time>
      </trkpt>
      <trkpt lat="43.3908" lon="-0.34633">
        <ele>204.9</ele>
        <time>2021-10-14T09:37:48Z</time>
      </trkpt>
      <trkpt lat="43.39079" lon="-0.34633">
        <ele>205.3</ele>
        <time>2021-10-14T09:37:49Z</time>
      </trkpt>
      <trkpt lat="43.39075" lon="-0.34631">
        <ele>208</ele>
        <time>2021-10-14T09:37:52Z</time>
      </trkpt>
      <trkpt lat="43.39072" lon="-0.34629">
        <ele>209.3</ele>
        <time>2021-10-14T09:37:54Z</time>
      </trkpt>
      <trkpt lat="43.39071" lon="-0.34628">
        <ele>209.2</ele>
        <time>2021-10-14T09:37:54Z</time>
      </trkpt>
      <trkpt lat="43.3907" lon="-0.34626">
        <ele>210.2</ele>
        <time>2021-10-14T09:37:56Z</time>
      </trkpt>
      <trkpt lat="43.39069" lon="-0.34625">
        <ele>210.3</ele>
        <time>2021-10-14T09:37:57Z</time>
      </trkpt>
      <trkpt lat="43.39068" lon="-0.34623">
        <ele>211.5</ele>
        <time>2021-10-14T09:37:58Z</time>
      </trkpt>
      <trkpt lat="43.39065" lon="-0.34621">
        <ele>211.9</ele>
        <time>2021-10-14T09:38:01Z</time>
      </trkpt>
      <trkpt lat="43.39063" lon="-0.34618">
        <ele>212.1</ele>
        <time>2021-10-14T09:38:03Z</time>
      </trkpt>
      <trkpt lat="43.39062" lon="-0.34617">
        <ele>213.6</ele>
        <time>2021-10-14T09:38:04Z</time>
      </trkpt>
      <trkpt lat="43.39061" lon="-0.34615">
        <ele>213.6</ele>
        <time>2021-10-14T09:38:05Z</time>
      </trkpt>
      <trkpt lat="43.3906" lon="-0.34614">
        <ele>213.8</ele>
        <time>2021-10-14T09:38:06Z</time>
      </trkpt>
      <trkpt lat="43.39059" lon="-0.34613">
        <ele>213.8</ele>
        <time>2021-10-14T09:38:07Z</time>
      </trkpt>
      <trkpt lat="43.39059" lon="-0.34613">
        <ele>214</ele>
        <time>2021-10-14T09:38:08Z</time>
      </trkpt>
      <trkpt lat="43.39058" lon="-0.34612">
        <ele>214</ele>
        <time>2021-10-14T09:38:08Z</time>
      </trkpt>
      <trkpt lat="43.39056" lon="-0.34607">
        <ele>214.7</ele>
        <time>2021-10-14T09:38:12Z</time>
      </trkpt>
      <trkpt lat="43.39055" lon="-0.34605">
        <ele>214.8</ele>
        <time>2021-10-14T09:38:14Z</time>
      </trkpt>
      <trkpt lat="43.39054" lon="-0.34604">
        <ele>214.7</ele>
        <time>2021-10-14T09:38:14Z</time>
      </trkpt>
      <trkpt lat="43.39054" lon="-0.34604">
        <ele>214.7</ele>
        <time>2021-10-14T09:38:15Z</time>
      </trkpt>
      <trkpt lat="43.39054" lon="-0.34604">
        <ele>214.7</ele>
        <time>2021-10-14T09:38:16Z</time>
      </trkpt>
      <trkpt lat="43.39054" lon="-0.34604">
        <ele>214.9</ele>
        <time>2021-10-14T09:38:17Z</time>
      </trkpt>
      <trkpt lat="43.39053" lon="-0.34601">
        <ele>215.5</ele>
        <time>2021-10-14T09:38:19Z</time>
      </trkpt>
      <trkpt lat="43.39051" lon="-0.34595">
        <ele>215.1</ele>
        <time>2021-10-14T09:38:22Z</time>
      </trkpt>
      <trkpt lat="43.39051" lon="-0.34594">
        <ele>215.3</ele>
        <time>2021-10-14T09:38:22Z</time>
      </trkpt>
      <trkpt lat="43.39051" lon="-0.34592">
        <ele>214.9</ele>
        <time>2021-10-14T09:38:23Z</time>
      </trkpt>
      <trkpt lat="43.3905" lon="-0.34589">
        <ele>214.5</ele>
        <time>2021-10-14T09:38:25Z</time>
      </trkpt>
      <trkpt lat="43.3905" lon="-0.34589">
        <ele>214.5</ele>
        <time>2021-10-14T09:38:26Z</time>
      </trkpt>
      <trkpt lat="43.39049" lon="-0.34586">
        <ele>214.9</ele>
        <time>2021-10-14T09:38:27Z</time>
      </trkpt>
      <trkpt lat="43.39049" lon="-0.34585">
        <ele>214.9</ele>
        <time>2021-10-14T09:38:28Z</time>
      </trkpt>
      <trkpt lat="43.39048" lon="-0.34583">
        <ele>214.9</ele>
        <time>2021-10-14T09:38:29Z</time>
      </trkpt>
      <trkpt lat="43.39047" lon="-0.34582">
        <ele>215</ele>
        <time>2021-10-14T09:38:30Z</time>
      </trkpt>
      <trkpt lat="43.39047" lon="-0.34581">
        <ele>216.3</ele>
        <time>2021-10-14T09:38:31Z</time>
      </trkpt>
      <trkpt lat="43.39046" lon="-0.34578">
        <ele>218.3</ele>
        <time>2021-10-14T09:38:33Z</time>
      </trkpt>
      <trkpt lat="43.39044" lon="-0.34574">
        <ele>218.4</ele>
        <time>2021-10-14T09:38:36Z</time>
      </trkpt>
      <trkpt lat="43.39043" lon="-0.34571">
        <ele>218.2</ele>
        <time>2021-10-14T09:38:38Z</time>
      </trkpt>
      <trkpt lat="43.39042" lon="-0.34569">
        <ele>217.8</ele>
        <time>2021-10-14T09:38:39Z</time>
      </trkpt>
      <trkpt lat="43.39041" lon="-0.34567">
        <ele>218.1</ele>
        <time>2021-10-14T09:38:40Z</time>
      </trkpt>
      <trkpt lat="43.3904" lon="-0.34564">
        <ele>217.7</ele>
        <time>2021-10-14T09:38:42Z</time>
      </trkpt>
      <trkpt lat="43.3904" lon="-0.34562">
        <ele>218.2</ele>
        <time>2021-10-14T09:38:43Z</time>
      </trkpt>
      <trkpt lat="43.3904" lon="-0.3456">
        <ele>218.2</ele>
        <time>2021-10-14T09:38:44Z</time>
      </trkpt>
      <trkpt lat="43.3904" lon="-0.34559">
        <ele>218.1</ele>
        <time>2021-10-14T09:38:44Z</time>
      </trkpt>
      <trkpt lat="43.39039" lon="-0.34558">
        <ele>218.1</ele>
        <time>2021-10-14T09:38:45Z</time>
      </trkpt>
      <trkpt lat="43.3904" lon="-0.34556">
        <ele>218.2</ele>
        <time>2021-10-14T09:38:46Z</time>
      </trkpt>
      <trkpt lat="43.39039" lon="-0.34555">
        <ele>217.7</ele>
        <time>2021-10-14T09:38:46Z</time>
      </trkpt>
      <trkpt lat="43.39038" lon="-0.3455">
        <ele>218.1</ele>
        <time>2021-10-14T09:38:49Z</time>
      </trkpt>
      <trkpt lat="43.39038" lon="-0.34547">
        <ele>219</ele>
        <time>2021-10-14T09:38:50Z</time>
      </trkpt>
      <trkpt lat="43.39039" lon="-0.34545">
        <ele>219</ele>
        <time>2021-10-14T09:38:51Z</time>
      </trkpt>
      <trkpt lat="43.3904" lon="-0.34544">
        <ele>219.2</ele>
        <time>2021-10-14T09:38:52Z</time>
      </trkpt>
      <trkpt lat="43.39041" lon="-0.34542">
        <ele>217.7</ele>
        <time>2021-10-14T09:38:53Z</time>
      </trkpt>
      <trkpt lat="43.39043" lon="-0.3454">
        <ele>219.2</ele>
        <time>2021-10-14T09:38:54Z</time>
      </trkpt>
      <trkpt lat="43.39045" lon="-0.34539">
        <ele>218.9</ele>
        <time>2021-10-14T09:38:55Z</time>
      </trkpt>
      <trkpt lat="43.39046" lon="-0.3454">
        <ele>218.7</ele>
        <time>2021-10-14T09:38:55Z</time>
      </trkpt>
      <trkpt lat="43.39048" lon="-0.3454">
        <ele>219.7</ele>
        <time>2021-10-14T09:38:56Z</time>
      </trkpt>
      <trkpt lat="43.39049" lon="-0.3454">
        <ele>220.2</ele>
        <time>2021-10-14T09:38:57Z</time>
      </trkpt>
      <trkpt lat="43.39051" lon="-0.3454">
        <ele>220</ele>
        <time>2021-10-14T09:38:58Z</time>
      </trkpt>
      <trkpt lat="43.39053" lon="-0.34539">
        <ele>219.4</ele>
        <time>2021-10-14T09:38:59Z</time>
      </trkpt>
      <trkpt lat="43.39053" lon="-0.34538">
        <ele>219.7</ele>
        <time>2021-10-14T09:39:00Z</time>
      </trkpt>
      <trkpt lat="43.39052" lon="-0.34538">
        <ele>220.3</ele>
        <time>2021-10-14T09:39:01Z</time>
      </trkpt>
      <trkpt lat="43.39052" lon="-0.34538">
        <ele>220.4</ele>
        <time>2021-10-14T09:39:02Z</time>
      </trkpt>
      <trkpt lat="43.39052" lon="-0.34538">
        <ele>219.1</ele>
        <time>2021-10-14T09:39:03Z</time>
      </trkpt>
      <trkpt lat="43.39052" lon="-0.34539">
        <ele>218.8</ele>
        <time>2021-10-14T09:39:05Z</time>
      </trkpt>
      <trkpt lat="43.39052" lon="-0.34539">
        <ele>219.2</ele>
        <time>2021-10-14T09:39:06Z</time>
      </trkpt>
      <trkpt lat="43.39052" lon="-0.34539">
        <ele>219.7</ele>
        <time>2021-10-14T09:39:07Z</time>
      </trkpt>
      <trkpt lat="43.39052" lon="-0.34539">
        <ele>219</ele>
        <time>2021-10-14T09:39:08Z</time>
      </trkpt>
      <trkpt lat="43.39052" lon="-0.34539">
        <ele>218.8</ele>
        <time>2021-10-14T09:39:09Z</time>
      </trkpt>
      <trkpt lat="43.39052" lon="-0.34539">
        <ele>219.5</ele>
        <time>2021-10-14T09:39:10Z</time>
      </trkpt>
      <trkpt lat="43.39052" lon="-0.34539">
        <ele>219</ele>
        <time>2021-10-14T09:39:11Z</time>
      </trkpt>
      <trkpt lat="43.39052" lon="-0.34539">
        <ele>219.1</ele>
        <time>2021-10-14T09:39:13Z</time>
      </trkpt>
      <trkpt lat="43.39052" lon="-0.34539">
        <ele>218.9</ele>
        <time>2021-10-14T09:39:14Z</time>
      </trkpt>
      <trkpt lat="43.39052" lon="-0.34539">
        <ele>218.7</ele>
        <time>2021-10-14T09:39:15Z</time>
      </trkpt>
      <trkpt lat="43.39052" lon="-0.34539">
        <ele>219.4</ele>
        <time>2021-10-14T09:39:16Z</time>
      </trkpt>
      <trkpt lat="43.39052" lon="-0.34539">
        <ele>218.8</ele>
        <time>2021-10-14T09:39:17Z</time>
      </trkpt>
      <trkpt lat="43.39051" lon="-0.34539">
        <ele>219</ele>
        <time>2021-10-14T09:39:21Z</time>
      </trkpt>
      <trkpt lat="43.39051" lon="-0.34539">
        <ele>219.3</ele>
        <time>2021-10-14T09:39:23Z</time>
      </trkpt>
      <trkpt lat="43.39051" lon="-0.34539">
        <ele>219.5</ele>
        <time>2021-10-14T09:40:25Z</time>
      </trkpt>
      <trkpt lat="43.39052" lon="-0.34539">
        <ele>220.1</ele>
        <time>2021-10-14T09:40:26Z</time>
      </trkpt>
      <trkpt lat="43.39052" lon="-0.34539">
        <ele>220.6</ele>
        <time>2021-10-14T09:40:27Z</time>
      </trkpt>
      <trkpt lat="43.39053" lon="-0.34538">
        <ele>220.3</ele>
        <time>2021-10-14T09:40:28Z</time>
      </trkpt>
      <trkpt lat="43.39057" lon="-0.34536">
        <ele>219.8</ele>
        <time>2021-10-14T09:40:30Z</time>
      </trkpt>
      <trkpt lat="43.39064" lon="-0.34531">
        <ele>220</ele>
        <time>2021-10-14T09:40:33Z</time>
      </trkpt>
      <trkpt lat="43.39063" lon="-0.34531">
        <ele>220</ele>
        <time>2021-10-14T09:40:34Z</time>
      </trkpt>
      <trkpt lat="43.39066" lon="-0.34528">
        <ele>220.1</ele>
        <time>2021-10-14T09:40:35Z</time>
      </trkpt>
      <trkpt lat="43.39089" lon="-0.34516">
        <ele>220.4</ele>
        <time>2021-10-14T09:40:41Z</time>
      </trkpt>
      <trkpt lat="43.39091" lon="-0.34516">
        <ele>220</ele>
        <time>2021-10-14T09:40:42Z</time>
      </trkpt>
      <trkpt lat="43.39094" lon="-0.34514">
        <ele>219.5</ele>
        <time>2021-10-14T09:40:43Z</time>
      </trkpt>
      <trkpt lat="43.39101" lon="-0.34509">
        <ele>219.6</ele>
        <time>2021-10-14T09:40:45Z</time>
      </trkpt>
      <trkpt lat="43.39118" lon="-0.34499">
        <ele>218.5</ele>
        <time>2021-10-14T09:40:50Z</time>
      </trkpt>
      <trkpt lat="43.39123" lon="-0.34497">
        <ele>220.2</ele>
        <time>2021-10-14T09:40:51Z</time>
      </trkpt>
      <trkpt lat="43.39126" lon="-0.34497">
        <ele>219</ele>
        <time>2021-10-14T09:40:52Z</time>
      </trkpt>
      <trkpt lat="43.39128" lon="-0.34497">
        <ele>218.8</ele>
        <time>2021-10-14T09:40:53Z</time>
      </trkpt>
      <trkpt lat="43.3913" lon="-0.34495">
        <ele>218.8</ele>
        <time>2021-10-14T09:40:54Z</time>
      </trkpt>
      <trkpt lat="43.39132" lon="-0.34493">
        <ele>218.1</ele>
        <time>2021-10-14T09:40:54Z</time>
      </trkpt>
      <trkpt lat="43.39136" lon="-0.34489">
        <ele>219.2</ele>
        <time>2021-10-14T09:40:56Z</time>
      </trkpt>
      <trkpt lat="43.39223" lon="-0.34439">
        <ele>219.9</ele>
        <time>2021-10-14T09:41:17Z</time>
      </trkpt>
      <trkpt lat="43.39308" lon="-0.3439">
        <ele>220.1</ele>
        <time>2021-10-14T09:41:37Z</time>
      </trkpt>
      <trkpt lat="43.3933" lon="-0.34378">
        <ele>220</ele>
        <time>2021-10-14T09:41:43Z</time>
      </trkpt>
      <trkpt lat="43.39332" lon="-0.34378">
        <ele>220</ele>
        <time>2021-10-14T09:41:44Z</time>
      </trkpt>
      <trkpt lat="43.39335" lon="-0.34378">
        <ele>220.1</ele>
        <time>2021-10-14T09:41:45Z</time>
      </trkpt>
      <trkpt lat="43.39341" lon="-0.34372">
        <ele>219.9</ele>
        <time>2021-10-14T09:41:47Z</time>
      </trkpt>
      <trkpt lat="43.39344" lon="-0.3437">
        <ele>220.1</ele>
        <time>2021-10-14T09:41:48Z</time>
      </trkpt>
      <trkpt lat="43.39349" lon="-0.34367">
        <ele>219</ele>
        <time>2021-10-14T09:41:50Z</time>
      </trkpt>
      <trkpt lat="43.39351" lon="-0.34366">
        <ele>218.9</ele>
        <time>2021-10-14T09:41:51Z</time>
      </trkpt>
      <trkpt lat="43.39352" lon="-0.34363">
        <ele>218.9</ele>
        <time>2021-10-14T09:41:52Z</time>
      </trkpt>
      <trkpt lat="43.39353" lon="-0.34361">
        <ele>218.8</ele>
        <time>2021-10-14T09:41:52Z</time>
      </trkpt>
      <trkpt lat="43.39353" lon="-0.34358">
        <ele>218.9</ele>
        <time>2021-10-14T09:41:53Z</time>
      </trkpt>
      <trkpt lat="43.39352" lon="-0.34357">
        <ele>218.9</ele>
        <time>2021-10-14T09:41:53Z</time>
      </trkpt>
      <trkpt lat="43.39349" lon="-0.34354">
        <ele>219.1</ele>
        <time>2021-10-14T09:41:54Z</time>
      </trkpt>
      <trkpt lat="43.39347" lon="-0.34351">
        <ele>219.5</ele>
        <time>2021-10-14T09:41:56Z</time>
      </trkpt>
      <trkpt lat="43.39346" lon="-0.3435">
        <ele>218.9</ele>
        <time>2021-10-14T09:41:57Z</time>
      </trkpt>
      <trkpt lat="43.39345" lon="-0.34348">
        <ele>219.2</ele>
        <time>2021-10-14T09:41:58Z</time>
      </trkpt>
      <trkpt lat="43.39344" lon="-0.34346">
        <ele>218.9</ele>
        <time>2021-10-14T09:41:58Z</time>
      </trkpt>
      <trkpt lat="43.39344" lon="-0.34344">
        <ele>218.9</ele>
        <time>2021-10-14T09:41:59Z</time>
      </trkpt>
      <trkpt lat="43.39343" lon="-0.34343">
        <ele>219.2</ele>
        <time>2021-10-14T09:42:00Z</time>
      </trkpt>
      <trkpt lat="43.39342" lon="-0.34339">
        <ele>218.8</ele>
        <time>2021-10-14T09:42:01Z</time>
      </trkpt>
      <trkpt lat="43.3934" lon="-0.34336">
        <ele>218.8</ele>
        <time>2021-10-14T09:42:02Z</time>
      </trkpt>
      <trkpt lat="43.39339" lon="-0.34333">
        <ele>218.8</ele>
        <time>2021-10-14T09:42:03Z</time>
      </trkpt>
      <trkpt lat="43.39339" lon="-0.3433">
        <ele>218.9</ele>
        <time>2021-10-14T09:42:04Z</time>
      </trkpt>
      <trkpt lat="43.39338" lon="-0.34328">
        <ele>218.3</ele>
        <time>2021-10-14T09:42:05Z</time>
      </trkpt>
      <trkpt lat="43.39336" lon="-0.34325">
        <ele>219.1</ele>
        <time>2021-10-14T09:42:06Z</time>
      </trkpt>
      <trkpt lat="43.39335" lon="-0.34323">
        <ele>219.1</ele>
        <time>2021-10-14T09:42:07Z</time>
      </trkpt>
      <trkpt lat="43.39334" lon="-0.3432">
        <ele>217.9</ele>
        <time>2021-10-14T09:42:07Z</time>
      </trkpt>
      <trkpt lat="43.39334" lon="-0.34319">
        <ele>218.5</ele>
        <time>2021-10-14T09:42:08Z</time>
      </trkpt>
      <trkpt lat="43.39331" lon="-0.34315">
        <ele>218.5</ele>
        <time>2021-10-14T09:42:09Z</time>
      </trkpt>
      <trkpt lat="43.3933" lon="-0.34313">
        <ele>217.8</ele>
        <time>2021-10-14T09:42:10Z</time>
      </trkpt>
      <trkpt lat="43.39329" lon="-0.3431">
        <ele>217.8</ele>
        <time>2021-10-14T09:42:11Z</time>
      </trkpt>
      <trkpt lat="43.39329" lon="-0.34307">
        <ele>218.2</ele>
        <time>2021-10-14T09:42:11Z</time>
      </trkpt>
      <trkpt lat="43.39329" lon="-0.34305">
        <ele>217.8</ele>
        <time>2021-10-14T09:42:12Z</time>
      </trkpt>
      <trkpt lat="43.3932" lon="-0.34276">
        <ele>218.2</ele>
        <time>2021-10-14T09:42:19Z</time>
      </trkpt>
      <trkpt lat="43.39313" lon="-0.34236">
        <ele>219.2</ele>
        <time>2021-10-14T09:42:26Z</time>
      </trkpt>
      <trkpt lat="43.39313" lon="-0.34229">
        <ele>219</ele>
        <time>2021-10-14T09:42:27Z</time>
      </trkpt>
      <trkpt lat="43.39315" lon="-0.34127">
        <ele>217.9</ele>
        <time>2021-10-14T09:42:42Z</time>
      </trkpt>
      <trkpt lat="43.39317" lon="-0.34122">
        <ele>218</ele>
        <time>2021-10-14T09:42:43Z</time>
      </trkpt>
      <trkpt lat="43.39324" lon="-0.34105">
        <ele>217</ele>
        <time>2021-10-14T09:42:46Z</time>
      </trkpt>
      <trkpt lat="43.3933" lon="-0.34087">
        <ele>217.2</ele>
        <time>2021-10-14T09:42:49Z</time>
      </trkpt>
      <trkpt lat="43.39335" lon="-0.34075">
        <ele>217.1</ele>
        <time>2021-10-14T09:42:51Z</time>
      </trkpt>
      <trkpt lat="43.39337" lon="-0.34069">
        <ele>216.4</ele>
        <time>2021-10-14T09:42:52Z</time>
      </trkpt>
      <trkpt lat="43.39337" lon="-0.34062">
        <ele>215.8</ele>
        <time>2021-10-14T09:42:53Z</time>
      </trkpt>
      <trkpt lat="43.39335" lon="-0.34055">
        <ele>214.7</ele>
        <time>2021-10-14T09:42:54Z</time>
      </trkpt>
      <trkpt lat="43.39333" lon="-0.34049">
        <ele>215.3</ele>
        <time>2021-10-14T09:42:55Z</time>
      </trkpt>
      <trkpt lat="43.39329" lon="-0.34044">
        <ele>215.2</ele>
        <time>2021-10-14T09:42:56Z</time>
      </trkpt>
      <trkpt lat="43.39325" lon="-0.34039">
        <ele>214.6</ele>
        <time>2021-10-14T09:42:57Z</time>
      </trkpt>
      <trkpt lat="43.3932" lon="-0.34035">
        <ele>215.1</ele>
        <time>2021-10-14T09:42:58Z</time>
      </trkpt>
      <trkpt lat="43.39315" lon="-0.34034">
        <ele>215.3</ele>
        <time>2021-10-14T09:42:59Z</time>
      </trkpt>
      <trkpt lat="43.3931" lon="-0.34036">
        <ele>216.2</ele>
        <time>2021-10-14T09:43:00Z</time>
      </trkpt>
      <trkpt lat="43.39266" lon="-0.34058">
        <ele>217</ele>
        <time>2021-10-14T09:43:09Z</time>
      </trkpt>
      <trkpt lat="43.39262" lon="-0.34058">
        <ele>217.2</ele>
        <time>2021-10-14T09:43:10Z</time>
      </trkpt>
      <trkpt lat="43.39257" lon="-0.34058">
        <ele>218.1</ele>
        <time>2021-10-14T09:43:11Z</time>
      </trkpt>
      <trkpt lat="43.39247" lon="-0.34055">
        <ele>218</ele>
        <time>2021-10-14T09:43:13Z</time>
      </trkpt>
      <trkpt lat="43.39224" lon="-0.34042">
        <ele>217.9</ele>
        <time>2021-10-14T09:43:18Z</time>
      </trkpt>
      <trkpt lat="43.39215" lon="-0.34035">
        <ele>217.9</ele>
        <time>2021-10-14T09:43:20Z</time>
      </trkpt>
      <trkpt lat="43.39211" lon="-0.34031">
        <ele>216.9</ele>
        <time>2021-10-14T09:43:21Z</time>
      </trkpt>
      <trkpt lat="43.39178" lon="-0.33993">
        <ele>218.1</ele>
        <time>2021-10-14T09:43:29Z</time>
      </trkpt>
      <trkpt lat="43.39172" lon="-0.33983">
        <ele>218.1</ele>
        <time>2021-10-14T09:43:31Z</time>
      </trkpt>
      <trkpt lat="43.39169" lon="-0.33977">
        <ele>218</ele>
        <time>2021-10-14T09:43:32Z</time>
      </trkpt>
      <trkpt lat="43.39165" lon="-0.33965">
        <ele>219.1</ele>
        <time>2021-10-14T09:43:34Z</time>
      </trkpt>
      <trkpt lat="43.39162" lon="-0.3396">
        <ele>219.1</ele>
        <time>2021-10-14T09:43:35Z</time>
      </trkpt>
      <trkpt lat="43.39159" lon="-0.33957">
        <ele>219</ele>
        <time>2021-10-14T09:43:36Z</time>
      </trkpt>
      <trkpt lat="43.39153" lon="-0.3395">
        <ele>219.2</ele>
        <time>2021-10-14T09:43:38Z</time>
      </trkpt>
      <trkpt lat="43.39126" lon="-0.33903">
        <ele>218.8</ele>
        <time>2021-10-14T09:43:47Z</time>
      </trkpt>
      <trkpt lat="43.39124" lon="-0.33897">
        <ele>219.1</ele>
        <time>2021-10-14T09:43:48Z</time>
      </trkpt>
      <trkpt lat="43.39122" lon="-0.33891">
        <ele>219.3</ele>
        <time>2021-10-14T09:43:49Z</time>
      </trkpt>
      <trkpt lat="43.39122" lon="-0.33885">
        <ele>219.3</ele>
        <time>2021-10-14T09:43:50Z</time>
      </trkpt>
      <trkpt lat="43.39122" lon="-0.33882">
        <ele>219.3</ele>
        <time>2021-10-14T09:43:51Z</time>
      </trkpt>
      <trkpt lat="43.39121" lon="-0.33877">
        <ele>218.8</ele>
        <time>2021-10-14T09:43:52Z</time>
      </trkpt>
      <trkpt lat="43.39123" lon="-0.33869">
        <ele>218.8</ele>
        <time>2021-10-14T09:43:54Z</time>
      </trkpt>
      <trkpt lat="43.39123" lon="-0.33865">
        <ele>219.1</ele>
        <time>2021-10-14T09:43:55Z</time>
      </trkpt>
      <trkpt lat="43.39122" lon="-0.33862">
        <ele>218.7</ele>
        <time>2021-10-14T09:43:55Z</time>
      </trkpt>
      <trkpt lat="43.39122" lon="-0.3386">
        <ele>218.7</ele>
        <time>2021-10-14T09:43:56Z</time>
      </trkpt>
      <trkpt lat="43.39121" lon="-0.33858">
        <ele>217.9</ele>
        <time>2021-10-14T09:43:57Z</time>
      </trkpt>
      <trkpt lat="43.39069" lon="-0.33754">
        <ele>220.6</ele>
        <time>2021-10-14T09:44:17Z</time>
      </trkpt>
      <trkpt lat="43.39061" lon="-0.33736">
        <ele>222.4</ele>
        <time>2021-10-14T09:44:20Z</time>
      </trkpt>
      <trkpt lat="43.39057" lon="-0.3373">
        <ele>221.9</ele>
        <time>2021-10-14T09:44:21Z</time>
      </trkpt>
      <trkpt lat="43.3905" lon="-0.33718">
        <ele>222.8</ele>
        <time>2021-10-14T09:44:23Z</time>
      </trkpt>
      <trkpt lat="43.39037" lon="-0.33689">
        <ele>221.9</ele>
        <time>2021-10-14T09:44:28Z</time>
      </trkpt>
      <trkpt lat="43.39036" lon="-0.33685">
        <ele>222</ele>
        <time>2021-10-14T09:44:29Z</time>
      </trkpt>
      <trkpt lat="43.39034" lon="-0.33679">
        <ele>221.9</ele>
        <time>2021-10-14T09:44:30Z</time>
      </trkpt>
      <trkpt lat="43.39028" lon="-0.33637">
        <ele>221</ele>
        <time>2021-10-14T09:44:36Z</time>
      </trkpt>
      <trkpt lat="43.39028" lon="-0.33574">
        <ele>219</ele>
        <time>2021-10-14T09:44:46Z</time>
      </trkpt>
      <trkpt lat="43.39027" lon="-0.33568">
        <ele>218.8</ele>
        <time>2021-10-14T09:44:47Z</time>
      </trkpt>
      <trkpt lat="43.39025" lon="-0.33564">
        <ele>219.4</ele>
        <time>2021-10-14T09:44:48Z</time>
      </trkpt>
      <trkpt lat="43.39021" lon="-0.33559">
        <ele>219.1</ele>
        <time>2021-10-14T09:44:49Z</time>
      </trkpt>
      <trkpt lat="43.39013" lon="-0.33551">
        <ele>219.3</ele>
        <time>2021-10-14T09:44:51Z</time>
      </trkpt>
      <trkpt lat="43.38982" lon="-0.33531">
        <ele>219.4</ele>
        <time>2021-10-14T09:44:58Z</time>
      </trkpt>
      <trkpt lat="43.38979" lon="-0.33531">
        <ele>219</ele>
        <time>2021-10-14T09:44:59Z</time>
      </trkpt>
      <trkpt lat="43.38976" lon="-0.33528">
        <ele>219</ele>
        <time>2021-10-14T09:45:00Z</time>
      </trkpt>
      <trkpt lat="43.38954" lon="-0.33511">
        <ele>219.1</ele>
        <time>2021-10-14T09:45:05Z</time>
      </trkpt>
      <trkpt lat="43.3895" lon="-0.33507">
        <ele>219.8</ele>
        <time>2021-10-14T09:45:06Z</time>
      </trkpt>
      <trkpt lat="43.38944" lon="-0.33502">
        <ele>219.6</ele>
        <time>2021-10-14T09:45:08Z</time>
      </trkpt>
      <trkpt lat="43.38941" lon="-0.33499">
        <ele>218.9</ele>
        <time>2021-10-14T09:45:09Z</time>
      </trkpt>
      <trkpt lat="43.38937" lon="-0.33496">
        <ele>219.1</ele>
        <time>2021-10-14T09:45:10Z</time>
      </trkpt>
      <trkpt lat="43.38915" lon="-0.33465">
        <ele>220.1</ele>
        <time>2021-10-14T09:45:16Z</time>
      </trkpt>
      <trkpt lat="43.38905" lon="-0.3345">
        <ele>220.3</ele>
        <time>2021-10-14T09:45:19Z</time>
      </trkpt>
      <trkpt lat="43.38898" lon="-0.33436">
        <ele>219.8</ele>
        <time>2021-10-14T09:45:22Z</time>
      </trkpt>
      <trkpt lat="43.38897" lon="-0.33432">
        <ele>220</ele>
        <time>2021-10-14T09:45:23Z</time>
      </trkpt>
      <trkpt lat="43.38896" lon="-0.33429">
        <ele>220</ele>
        <time>2021-10-14T09:45:24Z</time>
      </trkpt>
      <trkpt lat="43.38872" lon="-0.33394">
        <ele>220.2</ele>
        <time>2021-10-14T09:45:31Z</time>
      </trkpt>
      <trkpt lat="43.38869" lon="-0.33392">
        <ele>220.2</ele>
        <time>2021-10-14T09:45:32Z</time>
      </trkpt>
      <trkpt lat="43.38867" lon="-0.33393">
        <ele>220.2</ele>
        <time>2021-10-14T09:45:33Z</time>
      </trkpt>
      <trkpt lat="43.38864" lon="-0.33387">
        <ele>219.9</ele>
        <time>2021-10-14T09:45:34Z</time>
      </trkpt>
      <trkpt lat="43.38862" lon="-0.33382">
        <ele>219.9</ele>
        <time>2021-10-14T09:45:35Z</time>
      </trkpt>
      <trkpt lat="43.3886" lon="-0.3338">
        <ele>220.1</ele>
        <time>2021-10-14T09:45:35Z</time>
      </trkpt>
      <trkpt lat="43.38857" lon="-0.33378">
        <ele>220.1</ele>
        <time>2021-10-14T09:45:36Z</time>
      </trkpt>
      <trkpt lat="43.38854" lon="-0.33377">
        <ele>220</ele>
        <time>2021-10-14T09:45:37Z</time>
      </trkpt>
      <trkpt lat="43.38844" lon="-0.33377">
        <ele>219</ele>
        <time>2021-10-14T09:45:40Z</time>
      </trkpt>
      <trkpt lat="43.3884" lon="-0.33378">
        <ele>219.2</ele>
        <time>2021-10-14T09:45:41Z</time>
      </trkpt>
      <trkpt lat="43.38836" lon="-0.33379">
        <ele>219</ele>
        <time>2021-10-14T09:45:42Z</time>
      </trkpt>
      <trkpt lat="43.38828" lon="-0.33384">
        <ele>218</ele>
        <time>2021-10-14T09:45:44Z</time>
      </trkpt>
      <trkpt lat="43.38825" lon="-0.33386">
        <ele>218</ele>
        <time>2021-10-14T09:45:45Z</time>
      </trkpt>
      <trkpt lat="43.38822" lon="-0.33388">
        <ele>217.9</ele>
        <time>2021-10-14T09:45:46Z</time>
      </trkpt>
      <trkpt lat="43.3882" lon="-0.3339">
        <ele>219.1</ele>
        <time>2021-10-14T09:45:46Z</time>
      </trkpt>
      <trkpt lat="43.38813" lon="-0.33397">
        <ele>219.2</ele>
        <time>2021-10-14T09:45:49Z</time>
      </trkpt>
      <trkpt lat="43.38811" lon="-0.33399">
        <ele>219.2</ele>
        <time>2021-10-14T09:45:50Z</time>
      </trkpt>
      <trkpt lat="43.38808" lon="-0.33402">
        <ele>218.7</ele>
        <time>2021-10-14T09:45:51Z</time>
      </trkpt>
      <trkpt lat="43.38802" lon="-0.33405">
        <ele>217.6</ele>
        <time>2021-10-14T09:45:53Z</time>
      </trkpt>
      <trkpt lat="43.3878" lon="-0.33425">
        <ele>217.4</ele>
        <time>2021-10-14T09:46:00Z</time>
      </trkpt>
      <trkpt lat="43.38775" lon="-0.33432">
        <ele>217</ele>
        <time>2021-10-14T09:46:02Z</time>
      </trkpt>
      <trkpt lat="43.3877" lon="-0.33436">
        <ele>216.6</ele>
        <time>2021-10-14T09:46:03Z</time>
      </trkpt>
      <trkpt lat="43.38726" lon="-0.335">
        <ele>212.7</ele>
        <time>2021-10-14T09:46:20Z</time>
      </trkpt>
      <trkpt lat="43.38723" lon="-0.33505">
        <ele>211.8</ele>
        <time>2021-10-14T09:46:21Z</time>
      </trkpt>
      <trkpt lat="43.38722" lon="-0.33509">
        <ele>211.8</ele>
        <time>2021-10-14T09:46:22Z</time>
      </trkpt>
      <trkpt lat="43.3872" lon="-0.33517">
        <ele>212.3</ele>
        <time>2021-10-14T09:46:23Z</time>
      </trkpt>
      <trkpt lat="43.38721" lon="-0.33521">
        <ele>212.3</ele>
        <time>2021-10-14T09:46:24Z</time>
      </trkpt>
      <trkpt lat="43.38722" lon="-0.33529">
        <ele>212.5</ele>
        <time>2021-10-14T09:46:25Z</time>
      </trkpt>
      <trkpt lat="43.38728" lon="-0.33543">
        <ele>213.1</ele>
        <time>2021-10-14T09:46:28Z</time>
      </trkpt>
      <trkpt lat="43.38731" lon="-0.33552">
        <ele>213.3</ele>
        <time>2021-10-14T09:46:30Z</time>
      </trkpt>
      <trkpt lat="43.38739" lon="-0.33565">
        <ele>213</ele>
        <time>2021-10-14T09:46:33Z</time>
      </trkpt>
      <trkpt lat="43.38741" lon="-0.33567">
        <ele>213</ele>
        <time>2021-10-14T09:46:34Z</time>
      </trkpt>
      <trkpt lat="43.38748" lon="-0.33572">
        <ele>213</ele>
        <time>2021-10-14T09:46:36Z</time>
      </trkpt>
      <trkpt lat="43.3875" lon="-0.33574">
        <ele>213.1</ele>
        <time>2021-10-14T09:46:37Z</time>
      </trkpt>
      <trkpt lat="43.38756" lon="-0.33577">
        <ele>213.3</ele>
        <time>2021-10-14T09:46:39Z</time>
      </trkpt>
      <trkpt lat="43.38759" lon="-0.3358">
        <ele>213</ele>
        <time>2021-10-14T09:46:40Z</time>
      </trkpt>
      <trkpt lat="43.38761" lon="-0.33581">
        <ele>213</ele>
        <time>2021-10-14T09:46:41Z</time>
      </trkpt>
      <trkpt lat="43.38762" lon="-0.33584">
        <ele>212.5</ele>
        <time>2021-10-14T09:46:42Z</time>
      </trkpt>
      <trkpt lat="43.38765" lon="-0.33598">
        <ele>212.3</ele>
        <time>2021-10-14T09:46:46Z</time>
      </trkpt>
      <trkpt lat="43.38766" lon="-0.33601">
        <ele>212.9</ele>
        <time>2021-10-14T09:46:47Z</time>
      </trkpt>
      <trkpt lat="43.38764" lon="-0.33622">
        <ele>212.2</ele>
        <time>2021-10-14T09:46:55Z</time>
      </trkpt>
      <trkpt lat="43.38765" lon="-0.33634">
        <ele>212.1</ele>
        <time>2021-10-14T09:47:00Z</time>
      </trkpt>
      <trkpt lat="43.38766" lon="-0.33637">
        <ele>212.1</ele>
        <time>2021-10-14T09:47:01Z</time>
      </trkpt>
      <trkpt lat="43.38766" lon="-0.33638">
        <ele>212.5</ele>
        <time>2021-10-14T09:47:01Z</time>
      </trkpt>
      <trkpt lat="43.38768" lon="-0.33645">
        <ele>213.2</ele>
        <time>2021-10-14T09:47:04Z</time>
      </trkpt>
      <trkpt lat="43.38772" lon="-0.33654">
        <ele>212.5</ele>
        <time>2021-10-14T09:47:07Z</time>
      </trkpt>
      <trkpt lat="43.38773" lon="-0.33655">
        <ele>212.5</ele>
        <time>2021-10-14T09:47:08Z</time>
      </trkpt>
      <trkpt lat="43.38774" lon="-0.33658">
        <ele>211.8</ele>
        <time>2021-10-14T09:47:08Z</time>
      </trkpt>
      <trkpt lat="43.38775" lon="-0.33663">
        <ele>213.2</ele>
        <time>2021-10-14T09:47:10Z</time>
      </trkpt>
      <trkpt lat="43.38775" lon="-0.33665">
        <ele>213.9</ele>
        <time>2021-10-14T09:47:11Z</time>
      </trkpt>
      <trkpt lat="43.38776" lon="-0.33666">
        <ele>215.4</ele>
        <time>2021-10-14T09:47:12Z</time>
      </trkpt>
      <trkpt lat="43.38776" lon="-0.33671">
        <ele>216.9</ele>
        <time>2021-10-14T09:47:13Z</time>
      </trkpt>
      <trkpt lat="43.38777" lon="-0.33672">
        <ele>216.9</ele>
        <time>2021-10-14T09:47:14Z</time>
      </trkpt>
      <trkpt lat="43.38777" lon="-0.33674">
        <ele>217.8</ele>
        <time>2021-10-14T09:47:15Z</time>
      </trkpt>
      <trkpt lat="43.38777" lon="-0.33677">
        <ele>217.7</ele>
        <time>2021-10-14T09:47:16Z</time>
      </trkpt>
      <trkpt lat="43.38778" lon="-0.33679">
        <ele>217.7</ele>
        <time>2021-10-14T09:47:17Z</time>
      </trkpt>
      <trkpt lat="43.38778" lon="-0.3368">
        <ele>218.9</ele>
        <time>2021-10-14T09:47:18Z</time>
      </trkpt>
      <trkpt lat="43.38778" lon="-0.33684">
        <ele>219.2</ele>
        <time>2021-10-14T09:47:19Z</time>
      </trkpt>
      <trkpt lat="43.38777" lon="-0.33685">
        <ele>219.2</ele>
        <time>2021-10-14T09:47:19Z</time>
      </trkpt>
      <trkpt lat="43.38777" lon="-0.33686">
        <ele>219.2</ele>
        <time>2021-10-14T09:47:20Z</time>
      </trkpt>
      <trkpt lat="43.38775" lon="-0.33689">
        <ele>219.1</ele>
        <time>2021-10-14T09:47:21Z</time>
      </trkpt>
      <trkpt lat="43.38773" lon="-0.33693">
        <ele>220.1</ele>
        <time>2021-10-14T09:47:23Z</time>
      </trkpt>
      <trkpt lat="43.38772" lon="-0.33694">
        <ele>221</ele>
        <time>2021-10-14T09:47:24Z</time>
      </trkpt>
      <trkpt lat="43.38771" lon="-0.33695">
        <ele>221</ele>
        <time>2021-10-14T09:47:25Z</time>
      </trkpt>
      <trkpt lat="43.38771" lon="-0.33697">
        <ele>219.9</ele>
        <time>2021-10-14T09:47:26Z</time>
      </trkpt>
      <trkpt lat="43.38771" lon="-0.337">
        <ele>219.7</ele>
        <time>2021-10-14T09:47:27Z</time>
      </trkpt>
      <trkpt lat="43.38771" lon="-0.33702">
        <ele>219.9</ele>
        <time>2021-10-14T09:47:28Z</time>
      </trkpt>
      <trkpt lat="43.38771" lon="-0.33704">
        <ele>220</ele>
        <time>2021-10-14T09:47:29Z</time>
      </trkpt>
      <trkpt lat="43.38771" lon="-0.33705">
        <ele>220</ele>
        <time>2021-10-14T09:47:30Z</time>
      </trkpt>
      <trkpt lat="43.38771" lon="-0.33708">
        <ele>221.3</ele>
        <time>2021-10-14T09:47:31Z</time>
      </trkpt>
      <trkpt lat="43.38769" lon="-0.33712">
        <ele>220.7</ele>
        <time>2021-10-14T09:47:33Z</time>
      </trkpt>
      <trkpt lat="43.38769" lon="-0.33713">
        <ele>220.7</ele>
        <time>2021-10-14T09:47:34Z</time>
      </trkpt>
      <trkpt lat="43.38768" lon="-0.33715">
        <ele>221.4</ele>
        <time>2021-10-14T09:47:35Z</time>
      </trkpt>
      <trkpt lat="43.38768" lon="-0.33716">
        <ele>221.4</ele>
        <time>2021-10-14T09:47:36Z</time>
      </trkpt>
      <trkpt lat="43.38767" lon="-0.33718">
        <ele>221.4</ele>
        <time>2021-10-14T09:47:37Z</time>
      </trkpt>
      <trkpt lat="43.38767" lon="-0.33721">
        <ele>222</ele>
        <time>2021-10-14T09:47:38Z</time>
      </trkpt>
      <trkpt lat="43.38766" lon="-0.33728">
        <ele>221.9</ele>
        <time>2021-10-14T09:47:42Z</time>
      </trkpt>
      <trkpt lat="43.38765" lon="-0.3373">
        <ele>223.2</ele>
        <time>2021-10-14T09:47:43Z</time>
      </trkpt>
      <trkpt lat="43.38764" lon="-0.33735">
        <ele>223.5</ele>
        <time>2021-10-14T09:47:46Z</time>
      </trkpt>
      <trkpt lat="43.38763" lon="-0.33737">
        <ele>223</ele>
        <time>2021-10-14T09:47:47Z</time>
      </trkpt>
      <trkpt lat="43.38763" lon="-0.33738">
        <ele>223</ele>
        <time>2021-10-14T09:47:48Z</time>
      </trkpt>
      <trkpt lat="43.38762" lon="-0.3374">
        <ele>222.8</ele>
        <time>2021-10-14T09:47:49Z</time>
      </trkpt>
      <trkpt lat="43.38762" lon="-0.33741">
        <ele>223.3</ele>
        <time>2021-10-14T09:47:50Z</time>
      </trkpt>
      <trkpt lat="43.38761" lon="-0.33742">
        <ele>223.3</ele>
        <time>2021-10-14T09:47:51Z</time>
      </trkpt>
      <trkpt lat="43.38761" lon="-0.33743">
        <ele>224.6</ele>
        <time>2021-10-14T09:47:52Z</time>
      </trkpt>
      <trkpt lat="43.3876" lon="-0.33749">
        <ele>223.9</ele>
        <time>2021-10-14T09:47:55Z</time>
      </trkpt>
      <trkpt lat="43.3876" lon="-0.3375">
        <ele>224.1</ele>
        <time>2021-10-14T09:47:56Z</time>
      </trkpt>
      <trkpt lat="43.3876" lon="-0.33752">
        <ele>224.1</ele>
        <time>2021-10-14T09:47:57Z</time>
      </trkpt>
      <trkpt lat="43.3876" lon="-0.33753">
        <ele>224.6</ele>
        <time>2021-10-14T09:47:58Z</time>
      </trkpt>
      <trkpt lat="43.38759" lon="-0.33756">
        <ele>226</ele>
        <time>2021-10-14T09:48:00Z</time>
      </trkpt>
      <trkpt lat="43.38758" lon="-0.33758">
        <ele>226</ele>
        <time>2021-10-14T09:48:02Z</time>
      </trkpt>
      <trkpt lat="43.38757" lon="-0.33759">
        <ele>226.3</ele>
        <time>2021-10-14T09:48:03Z</time>
      </trkpt>
      <trkpt lat="43.38757" lon="-0.33761">
        <ele>227</ele>
        <time>2021-10-14T09:48:04Z</time>
      </trkpt>
      <trkpt lat="43.38757" lon="-0.33762">
        <ele>227</ele>
        <time>2021-10-14T09:48:05Z</time>
      </trkpt>
      <trkpt lat="43.38757" lon="-0.33764">
        <ele>226.8</ele>
        <time>2021-10-14T09:48:06Z</time>
      </trkpt>
      <trkpt lat="43.38756" lon="-0.33769">
        <ele>227.2</ele>
        <time>2021-10-14T09:48:09Z</time>
      </trkpt>
      <trkpt lat="43.38755" lon="-0.33771">
        <ele>226.8</ele>
        <time>2021-10-14T09:48:10Z</time>
      </trkpt>
      <trkpt lat="43.38755" lon="-0.33773">
        <ele>227.8</ele>
        <time>2021-10-14T09:48:12Z</time>
      </trkpt>
      <trkpt lat="43.38755" lon="-0.33775">
        <ele>228.2</ele>
        <time>2021-10-14T09:48:13Z</time>
      </trkpt>
      <trkpt lat="43.38755" lon="-0.33776">
        <ele>228.8</ele>
        <time>2021-10-14T09:48:14Z</time>
      </trkpt>
      <trkpt lat="43.38755" lon="-0.33778">
        <ele>229.7</ele>
        <time>2021-10-14T09:48:15Z</time>
      </trkpt>
      <trkpt lat="43.38754" lon="-0.3378">
        <ele>230.3</ele>
        <time>2021-10-14T09:48:17Z</time>
      </trkpt>
      <trkpt lat="43.38753" lon="-0.33785">
        <ele>230.4</ele>
        <time>2021-10-14T09:48:20Z</time>
      </trkpt>
      <trkpt lat="43.38754" lon="-0.33785">
        <ele>230.2</ele>
        <time>2021-10-14T09:48:21Z</time>
      </trkpt>
      <trkpt lat="43.38754" lon="-0.33785">
        <ele>230.2</ele>
        <time>2021-10-14T09:48:22Z</time>
      </trkpt>
      <trkpt lat="43.38754" lon="-0.33785">
        <ele>230</ele>
        <time>2021-10-14T09:48:23Z</time>
      </trkpt>
      <trkpt lat="43.38753" lon="-0.33786">
        <ele>230.1</ele>
        <time>2021-10-14T09:48:24Z</time>
      </trkpt>
      <trkpt lat="43.38753" lon="-0.33788">
        <ele>230.5</ele>
        <time>2021-10-14T09:48:25Z</time>
      </trkpt>
      <trkpt lat="43.38753" lon="-0.33793">
        <ele>231.4</ele>
        <time>2021-10-14T09:48:27Z</time>
      </trkpt>
      <trkpt lat="43.38752" lon="-0.33794">
        <ele>231.4</ele>
        <time>2021-10-14T09:48:28Z</time>
      </trkpt>
      <trkpt lat="43.38752" lon="-0.33794">
        <ele>231.4</ele>
        <time>2021-10-14T09:48:29Z</time>
      </trkpt>
      <trkpt lat="43.38752" lon="-0.33794">
        <ele>231.6</ele>
        <time>2021-10-14T09:48:30Z</time>
      </trkpt>
      <trkpt lat="43.38752" lon="-0.33795">
        <ele>231.6</ele>
        <time>2021-10-14T09:48:31Z</time>
      </trkpt>
      <trkpt lat="43.38751" lon="-0.33801">
        <ele>232.2</ele>
        <time>2021-10-14T09:48:34Z</time>
      </trkpt>
      <trkpt lat="43.38751" lon="-0.33805">
        <ele>232.4</ele>
        <time>2021-10-14T09:48:36Z</time>
      </trkpt>
      <trkpt lat="43.3875" lon="-0.33807">
        <ele>231.6</ele>
        <time>2021-10-14T09:48:37Z</time>
      </trkpt>
      <trkpt lat="43.38751" lon="-0.33809">
        <ele>233.1</ele>
        <time>2021-10-14T09:48:38Z</time>
      </trkpt>
      <trkpt lat="43.3875" lon="-0.33811">
        <ele>232.8</ele>
        <time>2021-10-14T09:48:39Z</time>
      </trkpt>
      <trkpt lat="43.3875" lon="-0.33813">
        <ele>233.2</ele>
        <time>2021-10-14T09:48:40Z</time>
      </trkpt>
      <trkpt lat="43.38749" lon="-0.33814">
        <ele>232.8</ele>
        <time>2021-10-14T09:48:41Z</time>
      </trkpt>
      <trkpt lat="43.38749" lon="-0.33817">
        <ele>232.4</ele>
        <time>2021-10-14T09:48:43Z</time>
      </trkpt>
      <trkpt lat="43.38749" lon="-0.33819">
        <ele>232.4</ele>
        <time>2021-10-14T09:48:44Z</time>
      </trkpt>
      <trkpt lat="43.38749" lon="-0.33823">
        <ele>233.9</ele>
        <time>2021-10-14T09:48:46Z</time>
      </trkpt>
      <trkpt lat="43.38749" lon="-0.33825">
        <ele>234.6</ele>
        <time>2021-10-14T09:48:48Z</time>
      </trkpt>
      <trkpt lat="43.38749" lon="-0.33826">
        <ele>235.9</ele>
        <time>2021-10-14T09:48:49Z</time>
      </trkpt>
      <trkpt lat="43.38748" lon="-0.33827">
        <ele>235.9</ele>
        <time>2021-10-14T09:48:50Z</time>
      </trkpt>
      <trkpt lat="43.38748" lon="-0.33828">
        <ele>235.6</ele>
        <time>2021-10-14T09:48:51Z</time>
      </trkpt>
      <trkpt lat="43.38747" lon="-0.3383">
        <ele>237.3</ele>
        <time>2021-10-14T09:48:52Z</time>
      </trkpt>
      <trkpt lat="43.38747" lon="-0.33831">
        <ele>238.2</ele>
        <time>2021-10-14T09:48:53Z</time>
      </trkpt>
      <trkpt lat="43.38747" lon="-0.33834">
        <ele>237.8</ele>
        <time>2021-10-14T09:48:55Z</time>
      </trkpt>
      <trkpt lat="43.38747" lon="-0.33835">
        <ele>237.8</ele>
        <time>2021-10-14T09:48:56Z</time>
      </trkpt>
      <trkpt lat="43.38745" lon="-0.3384">
        <ele>240.2</ele>
        <time>2021-10-14T09:48:59Z</time>
      </trkpt>
      <trkpt lat="43.38744" lon="-0.33843">
        <ele>238.9</ele>
        <time>2021-10-14T09:49:01Z</time>
      </trkpt>
      <trkpt lat="43.38743" lon="-0.33847">
        <ele>239.5</ele>
        <time>2021-10-14T09:49:03Z</time>
      </trkpt>
      <trkpt lat="43.38743" lon="-0.33848">
        <ele>239.5</ele>
        <time>2021-10-14T09:49:04Z</time>
      </trkpt>
      <trkpt lat="43.38742" lon="-0.3385">
        <ele>239.8</ele>
        <time>2021-10-14T09:49:05Z</time>
      </trkpt>
      <trkpt lat="43.38742" lon="-0.33852">
        <ele>240.2</ele>
        <time>2021-10-14T09:49:06Z</time>
      </trkpt>
      <trkpt lat="43.38742" lon="-0.33853">
        <ele>240.2</ele>
        <time>2021-10-14T09:49:07Z</time>
      </trkpt>
      <trkpt lat="43.38741" lon="-0.33855">
        <ele>240.1</ele>
        <time>2021-10-14T09:49:08Z</time>
      </trkpt>
      <trkpt lat="43.38737" lon="-0.33868">
        <ele>239.3</ele>
        <time>2021-10-14T09:49:16Z</time>
      </trkpt>
      <trkpt lat="43.38737" lon="-0.3387">
        <ele>238.9</ele>
        <time>2021-10-14T09:49:17Z</time>
      </trkpt>
      <trkpt lat="43.38736" lon="-0.33872">
        <ele>239.1</ele>
        <time>2021-10-14T09:49:18Z</time>
      </trkpt>
      <trkpt lat="43.38736" lon="-0.33873">
        <ele>239.1</ele>
        <time>2021-10-14T09:49:18Z</time>
      </trkpt>
      <trkpt lat="43.38735" lon="-0.33875">
        <ele>238.9</ele>
        <time>2021-10-14T09:49:20Z</time>
      </trkpt>
      <trkpt lat="43.38734" lon="-0.33877">
        <ele>239.3</ele>
        <time>2021-10-14T09:49:21Z</time>
      </trkpt>
      <trkpt lat="43.38734" lon="-0.33878">
        <ele>239.3</ele>
        <time>2021-10-14T09:49:22Z</time>
      </trkpt>
      <trkpt lat="43.38733" lon="-0.3388">
        <ele>239.3</ele>
        <time>2021-10-14T09:49:23Z</time>
      </trkpt>
      <trkpt lat="43.3873" lon="-0.33887">
        <ele>239.7</ele>
        <time>2021-10-14T09:49:28Z</time>
      </trkpt>
      <trkpt lat="43.38729" lon="-0.33888">
        <ele>239.4</ele>
        <time>2021-10-14T09:49:29Z</time>
      </trkpt>
      <trkpt lat="43.38729" lon="-0.33889">
        <ele>239.4</ele>
        <time>2021-10-14T09:49:30Z</time>
      </trkpt>
      <trkpt lat="43.38728" lon="-0.33891">
        <ele>240.1</ele>
        <time>2021-10-14T09:49:31Z</time>
      </trkpt>
      <trkpt lat="43.38727" lon="-0.33894">
        <ele>240.2</ele>
        <time>2021-10-14T09:49:33Z</time>
      </trkpt>
      <trkpt lat="43.38724" lon="-0.33897">
        <ele>240.2</ele>
        <time>2021-10-14T09:49:35Z</time>
      </trkpt>
      <trkpt lat="43.38723" lon="-0.33899">
        <ele>240</ele>
        <time>2021-10-14T09:49:37Z</time>
      </trkpt>
      <trkpt lat="43.38722" lon="-0.33901">
        <ele>239.8</ele>
        <time>2021-10-14T09:49:38Z</time>
      </trkpt>
      <trkpt lat="43.38722" lon="-0.33902">
        <ele>240.6</ele>
        <time>2021-10-14T09:49:39Z</time>
      </trkpt>
      <trkpt lat="43.3872" lon="-0.33907">
        <ele>240.6</ele>
        <time>2021-10-14T09:49:42Z</time>
      </trkpt>
      <trkpt lat="43.38719" lon="-0.33911">
        <ele>240.1</ele>
        <time>2021-10-14T09:49:44Z</time>
      </trkpt>
      <trkpt lat="43.38719" lon="-0.33912">
        <ele>240.3</ele>
        <time>2021-10-14T09:49:45Z</time>
      </trkpt>
      <trkpt lat="43.38717" lon="-0.33915">
        <ele>239.7</ele>
        <time>2021-10-14T09:49:47Z</time>
      </trkpt>
      <trkpt lat="43.38716" lon="-0.33916">
        <ele>239.8</ele>
        <time>2021-10-14T09:49:48Z</time>
      </trkpt>
      <trkpt lat="43.38715" lon="-0.33918">
        <ele>240.2</ele>
        <time>2021-10-14T09:49:49Z</time>
      </trkpt>
      <trkpt lat="43.38715" lon="-0.3392">
        <ele>239.7</ele>
        <time>2021-10-14T09:49:50Z</time>
      </trkpt>
      <trkpt lat="43.38714" lon="-0.33921">
        <ele>240.4</ele>
        <time>2021-10-14T09:49:51Z</time>
      </trkpt>
      <trkpt lat="43.38713" lon="-0.33922">
        <ele>240.4</ele>
        <time>2021-10-14T09:49:52Z</time>
      </trkpt>
      <trkpt lat="43.38713" lon="-0.33923">
        <ele>239.8</ele>
        <time>2021-10-14T09:49:53Z</time>
      </trkpt>
      <trkpt lat="43.38712" lon="-0.33925">
        <ele>241.6</ele>
        <time>2021-10-14T09:49:54Z</time>
      </trkpt>
      <trkpt lat="43.38711" lon="-0.33927">
        <ele>240.7</ele>
        <time>2021-10-14T09:49:56Z</time>
      </trkpt>
      <trkpt lat="43.38709" lon="-0.33929">
        <ele>240.5</ele>
        <time>2021-10-14T09:49:58Z</time>
      </trkpt>
      <trkpt lat="43.38708" lon="-0.33932">
        <ele>242</ele>
        <time>2021-10-14T09:50:00Z</time>
      </trkpt>
      <trkpt lat="43.38707" lon="-0.33933">
        <ele>242.1</ele>
        <time>2021-10-14T09:50:01Z</time>
      </trkpt>
      <trkpt lat="43.38706" lon="-0.33934">
        <ele>241.6</ele>
        <time>2021-10-14T09:50:02Z</time>
      </trkpt>
      <trkpt lat="43.38705" lon="-0.33936">
        <ele>241.6</ele>
        <time>2021-10-14T09:50:03Z</time>
      </trkpt>
      <trkpt lat="43.38705" lon="-0.33937">
        <ele>242.3</ele>
        <time>2021-10-14T09:50:04Z</time>
      </trkpt>
      <trkpt lat="43.38703" lon="-0.33939">
        <ele>241.6</ele>
        <time>2021-10-14T09:50:06Z</time>
      </trkpt>
      <trkpt lat="43.38703" lon="-0.33941">
        <ele>242.3</ele>
        <time>2021-10-14T09:50:07Z</time>
      </trkpt>
      <trkpt lat="43.38702" lon="-0.33942">
        <ele>241.9</ele>
        <time>2021-10-14T09:50:08Z</time>
      </trkpt>
      <trkpt lat="43.38699" lon="-0.33945">
        <ele>241</ele>
        <time>2021-10-14T09:50:11Z</time>
      </trkpt>
      <trkpt lat="43.38699" lon="-0.33947">
        <ele>242.3</ele>
        <time>2021-10-14T09:50:12Z</time>
      </trkpt>
      <trkpt lat="43.38699" lon="-0.33949">
        <ele>242</ele>
        <time>2021-10-14T09:50:13Z</time>
      </trkpt>
      <trkpt lat="43.38699" lon="-0.33951">
        <ele>242.3</ele>
        <time>2021-10-14T09:50:14Z</time>
      </trkpt>
      <trkpt lat="43.38699" lon="-0.33952">
        <ele>242.5</ele>
        <time>2021-10-14T09:50:15Z</time>
      </trkpt>
      <trkpt lat="43.38698" lon="-0.33954">
        <ele>242.7</ele>
        <time>2021-10-14T09:50:16Z</time>
      </trkpt>
      <trkpt lat="43.38697" lon="-0.33955">
        <ele>242.7</ele>
        <time>2021-10-14T09:50:17Z</time>
      </trkpt>
      <trkpt lat="43.38696" lon="-0.33956">
        <ele>243.2</ele>
        <time>2021-10-14T09:50:18Z</time>
      </trkpt>
      <trkpt lat="43.38695" lon="-0.33957">
        <ele>243.2</ele>
        <time>2021-10-14T09:50:19Z</time>
      </trkpt>
      <trkpt lat="43.38694" lon="-0.33958">
        <ele>243.7</ele>
        <time>2021-10-14T09:50:20Z</time>
      </trkpt>
      <trkpt lat="43.38693" lon="-0.33959">
        <ele>243.7</ele>
        <time>2021-10-14T09:50:21Z</time>
      </trkpt>
      <trkpt lat="43.38693" lon="-0.33961">
        <ele>244.1</ele>
        <time>2021-10-14T09:50:22Z</time>
      </trkpt>
      <trkpt lat="43.38691" lon="-0.33964">
        <ele>244.4</ele>
        <time>2021-10-14T09:50:25Z</time>
      </trkpt>
      <trkpt lat="43.38691" lon="-0.33966">
        <ele>244.1</ele>
        <time>2021-10-14T09:50:26Z</time>
      </trkpt>
      <trkpt lat="43.38691" lon="-0.33967">
        <ele>244.2</ele>
        <time>2021-10-14T09:50:27Z</time>
      </trkpt>
      <trkpt lat="43.3869" lon="-0.33968">
        <ele>244.3</ele>
        <time>2021-10-14T09:50:28Z</time>
      </trkpt>
      <trkpt lat="43.3869" lon="-0.3397">
        <ele>243.9</ele>
        <time>2021-10-14T09:50:29Z</time>
      </trkpt>
      <trkpt lat="43.3869" lon="-0.33971">
        <ele>243.9</ele>
        <time>2021-10-14T09:50:30Z</time>
      </trkpt>
      <trkpt lat="43.3869" lon="-0.33972">
        <ele>244.3</ele>
        <time>2021-10-14T09:50:30Z</time>
      </trkpt>
      <trkpt lat="43.3869" lon="-0.33973">
        <ele>244</ele>
        <time>2021-10-14T09:50:32Z</time>
      </trkpt>
      <trkpt lat="43.38689" lon="-0.33974">
        <ele>243.5</ele>
        <time>2021-10-14T09:50:32Z</time>
      </trkpt>
      <trkpt lat="43.38688" lon="-0.33976">
        <ele>244.7</ele>
        <time>2021-10-14T09:50:33Z</time>
      </trkpt>
      <trkpt lat="43.38688" lon="-0.33976">
        <ele>244.9</ele>
        <time>2021-10-14T09:50:34Z</time>
      </trkpt>
      <trkpt lat="43.38687" lon="-0.33979">
        <ele>244.9</ele>
        <time>2021-10-14T09:50:36Z</time>
      </trkpt>
      <trkpt lat="43.38687" lon="-0.3398">
        <ele>244</ele>
        <time>2021-10-14T09:50:37Z</time>
      </trkpt>
      <trkpt lat="43.38687" lon="-0.3398">
        <ele>245.2</ele>
        <time>2021-10-14T09:50:38Z</time>
      </trkpt>
      <trkpt lat="43.38687" lon="-0.33979">
        <ele>244.5</ele>
        <time>2021-10-14T09:50:40Z</time>
      </trkpt>
      <trkpt lat="43.38687" lon="-0.33979">
        <ele>244.9</ele>
        <time>2021-10-14T09:50:41Z</time>
      </trkpt>
      <trkpt lat="43.38688" lon="-0.3398">
        <ele>245.3</ele>
        <time>2021-10-14T09:50:42Z</time>
      </trkpt>
      <trkpt lat="43.38688" lon="-0.3398">
        <ele>244.9</ele>
        <time>2021-10-14T09:50:43Z</time>
      </trkpt>
      <trkpt lat="43.38688" lon="-0.3398">
        <ele>245.4</ele>
        <time>2021-10-14T09:50:44Z</time>
      </trkpt>
      <trkpt lat="43.38688" lon="-0.3398">
        <ele>245.1</ele>
        <time>2021-10-14T09:50:45Z</time>
      </trkpt>
      <trkpt lat="43.38688" lon="-0.33979">
        <ele>245.2</ele>
        <time>2021-10-14T09:50:46Z</time>
      </trkpt>
      <trkpt lat="43.38688" lon="-0.3398">
        <ele>244.5</ele>
        <time>2021-10-14T09:50:47Z</time>
      </trkpt>
      <trkpt lat="43.38688" lon="-0.33979">
        <ele>245.1</ele>
        <time>2021-10-14T09:50:48Z</time>
      </trkpt>
      <trkpt lat="43.38688" lon="-0.33979">
        <ele>245.2</ele>
        <time>2021-10-14T09:50:49Z</time>
      </trkpt>
      <trkpt lat="43.38688" lon="-0.33979">
        <ele>244.8</ele>
        <time>2021-10-14T09:50:50Z</time>
      </trkpt>
      <trkpt lat="43.38688" lon="-0.33979">
        <ele>245.3</ele>
        <time>2021-10-14T09:50:51Z</time>
      </trkpt>
      <trkpt lat="43.38688" lon="-0.33979">
        <ele>245.1</ele>
        <time>2021-10-14T09:50:52Z</time>
      </trkpt>
      <trkpt lat="43.38688" lon="-0.33979">
        <ele>245.4</ele>
        <time>2021-10-14T09:50:53Z</time>
      </trkpt>
      <trkpt lat="43.38688" lon="-0.33979">
        <ele>245.2</ele>
        <time>2021-10-14T09:50:54Z</time>
      </trkpt>
      <trkpt lat="43.38688" lon="-0.33979">
        <ele>245</ele>
        <time>2021-10-14T09:50:56Z</time>
      </trkpt>
      <trkpt lat="43.38688" lon="-0.33979">
        <ele>245.2</ele>
        <time>2021-10-14T09:51:01Z</time>
      </trkpt>
      <trkpt lat="43.38688" lon="-0.33979">
        <ele>245.2</ele>
        <time>2021-10-14T09:51:19Z</time>
      </trkpt>
      <trkpt lat="43.38688" lon="-0.33979">
        <ele>245.6</ele>
        <time>2021-10-14T09:51:20Z</time>
      </trkpt>
      <trkpt lat="43.38688" lon="-0.33979">
        <ele>246.1</ele>
        <time>2021-10-14T09:51:21Z</time>
      </trkpt>
      <trkpt lat="43.38688" lon="-0.33979">
        <ele>246.4</ele>
        <time>2021-10-14T09:51:22Z</time>
      </trkpt>
      <trkpt lat="43.38688" lon="-0.33979">
        <ele>245.9</ele>
        <time>2021-10-14T09:51:24Z</time>
      </trkpt>
      <trkpt lat="43.38688" lon="-0.33979">
        <ele>246.1</ele>
        <time>2021-10-14T09:51:25Z</time>
      </trkpt>
      <trkpt lat="43.38688" lon="-0.33979">
        <ele>246.4</ele>
        <time>2021-10-14T09:52:59Z</time>
      </trkpt>
      <trkpt lat="43.38688" lon="-0.33979">
        <ele>245.8</ele>
        <time>2021-10-14T09:53:01Z</time>
      </trkpt>
      <trkpt lat="43.38688" lon="-0.33979">
        <ele>245.3</ele>
        <time>2021-10-14T09:53:39Z</time>
      </trkpt>
      <trkpt lat="43.38688" lon="-0.3398">
        <ele>246.8</ele>
        <time>2021-10-14T09:53:40Z</time>
      </trkpt>
      <trkpt lat="43.38688" lon="-0.33981">
        <ele>247.1</ele>
        <time>2021-10-14T09:53:41Z</time>
      </trkpt>
      <trkpt lat="43.38688" lon="-0.33983">
        <ele>247.3</ele>
        <time>2021-10-14T09:53:42Z</time>
      </trkpt>
      <trkpt lat="43.38688" lon="-0.33984">
        <ele>247.3</ele>
        <time>2021-10-14T09:53:43Z</time>
      </trkpt>
      <trkpt lat="43.38687" lon="-0.33986">
        <ele>247.2</ele>
        <time>2021-10-14T09:53:44Z</time>
      </trkpt>
      <trkpt lat="43.38687" lon="-0.33987">
        <ele>247.2</ele>
        <time>2021-10-14T09:53:44Z</time>
      </trkpt>
      <trkpt lat="43.38686" lon="-0.33988">
        <ele>246.8</ele>
        <time>2021-10-14T09:53:45Z</time>
      </trkpt>
      <trkpt lat="43.38685" lon="-0.33989">
        <ele>247.3</ele>
        <time>2021-10-14T09:53:46Z</time>
      </trkpt>
      <trkpt lat="43.38685" lon="-0.3399">
        <ele>247.3</ele>
        <time>2021-10-14T09:53:47Z</time>
      </trkpt>
      <trkpt lat="43.38684" lon="-0.33991">
        <ele>247.9</ele>
        <time>2021-10-14T09:53:48Z</time>
      </trkpt>
      <trkpt lat="43.38683" lon="-0.33992">
        <ele>247.9</ele>
        <time>2021-10-14T09:53:49Z</time>
      </trkpt>
      <trkpt lat="43.38683" lon="-0.33993">
        <ele>246.1</ele>
        <time>2021-10-14T09:53:50Z</time>
      </trkpt>
      <trkpt lat="43.38682" lon="-0.33994">
        <ele>245.6</ele>
        <time>2021-10-14T09:53:51Z</time>
      </trkpt>
      <trkpt lat="43.38681" lon="-0.33995">
        <ele>246.1</ele>
        <time>2021-10-14T09:53:52Z</time>
      </trkpt>
      <trkpt lat="43.3868" lon="-0.33997">
        <ele>246.1</ele>
        <time>2021-10-14T09:53:53Z</time>
      </trkpt>
      <trkpt lat="43.38679" lon="-0.33998">
        <ele>246.1</ele>
        <time>2021-10-14T09:53:54Z</time>
      </trkpt>
      <trkpt lat="43.38678" lon="-0.34">
        <ele>245.7</ele>
        <time>2021-10-14T09:53:55Z</time>
      </trkpt>
      <trkpt lat="43.38678" lon="-0.34002">
        <ele>246.2</ele>
        <time>2021-10-14T09:53:56Z</time>
      </trkpt>
      <trkpt lat="43.38677" lon="-0.34004">
        <ele>247</ele>
        <time>2021-10-14T09:53:57Z</time>
      </trkpt>
      <trkpt lat="43.38677" lon="-0.34005">
        <ele>247</ele>
        <time>2021-10-14T09:53:58Z</time>
      </trkpt>
      <trkpt lat="43.38676" lon="-0.34008">
        <ele>246.7</ele>
        <time>2021-10-14T09:53:59Z</time>
      </trkpt>
      <trkpt lat="43.38675" lon="-0.34011">
        <ele>248.2</ele>
        <time>2021-10-14T09:54:01Z</time>
      </trkpt>
      <trkpt lat="43.38675" lon="-0.34012">
        <ele>248.2</ele>
        <time>2021-10-14T09:54:02Z</time>
      </trkpt>
      <trkpt lat="43.38674" lon="-0.34014">
        <ele>248.5</ele>
        <time>2021-10-14T09:54:03Z</time>
      </trkpt>
      <trkpt lat="43.38673" lon="-0.34017">
        <ele>247.7</ele>
        <time>2021-10-14T09:54:05Z</time>
      </trkpt>
      <trkpt lat="43.38672" lon="-0.34021">
        <ele>247</ele>
        <time>2021-10-14T09:54:07Z</time>
      </trkpt>
      <trkpt lat="43.38671" lon="-0.34022">
        <ele>246.6</ele>
        <time>2021-10-14T09:54:08Z</time>
      </trkpt>
      <trkpt lat="43.38668" lon="-0.34026">
        <ele>246.4</ele>
        <time>2021-10-14T09:54:11Z</time>
      </trkpt>
      <trkpt lat="43.38667" lon="-0.34027">
        <ele>245.3</ele>
        <time>2021-10-14T09:54:12Z</time>
      </trkpt>
      <trkpt lat="43.38665" lon="-0.34031">
        <ele>245</ele>
        <time>2021-10-14T09:54:14Z</time>
      </trkpt>
      <trkpt lat="43.38663" lon="-0.34035">
        <ele>244.7</ele>
        <time>2021-10-14T09:54:16Z</time>
      </trkpt>
      <trkpt lat="43.38661" lon="-0.3404">
        <ele>246</ele>
        <time>2021-10-14T09:54:18Z</time>
      </trkpt>
      <trkpt lat="43.3866" lon="-0.34044">
        <ele>246.3</ele>
        <time>2021-10-14T09:54:19Z</time>
      </trkpt>
      <trkpt lat="43.38653" lon="-0.34056">
        <ele>247.2</ele>
        <time>2021-10-14T09:54:24Z</time>
      </trkpt>
      <trkpt lat="43.38651" lon="-0.34061">
        <ele>246.7</ele>
        <time>2021-10-14T09:54:26Z</time>
      </trkpt>
      <trkpt lat="43.3865" lon="-0.34063">
        <ele>246.7</ele>
        <time>2021-10-14T09:54:27Z</time>
      </trkpt>
      <trkpt lat="43.3865" lon="-0.34064">
        <ele>246.7</ele>
        <time>2021-10-14T09:54:28Z</time>
      </trkpt>
      <trkpt lat="43.3865" lon="-0.34066">
        <ele>248.1</ele>
        <time>2021-10-14T09:54:29Z</time>
      </trkpt>
      <trkpt lat="43.3865" lon="-0.34068">
        <ele>246.5</ele>
        <time>2021-10-14T09:54:30Z</time>
      </trkpt>
      <trkpt lat="43.38649" lon="-0.3407">
        <ele>246.6</ele>
        <time>2021-10-14T09:54:30Z</time>
      </trkpt>
      <trkpt lat="43.3865" lon="-0.34077">
        <ele>245.7</ele>
        <time>2021-10-14T09:54:33Z</time>
      </trkpt>
      <trkpt lat="43.3865" lon="-0.3408">
        <ele>245.7</ele>
        <time>2021-10-14T09:54:34Z</time>
      </trkpt>
      <trkpt lat="43.38651" lon="-0.34086">
        <ele>245.9</ele>
        <time>2021-10-14T09:54:35Z</time>
      </trkpt>
      <trkpt lat="43.38652" lon="-0.34098">
        <ele>246.2</ele>
        <time>2021-10-14T09:54:38Z</time>
      </trkpt>
      <trkpt lat="43.38653" lon="-0.34103">
        <ele>246.2</ele>
        <time>2021-10-14T09:54:39Z</time>
      </trkpt>
      <trkpt lat="43.38655" lon="-0.3411">
        <ele>246.3</ele>
        <time>2021-10-14T09:54:41Z</time>
      </trkpt>
      <trkpt lat="43.38656" lon="-0.34113">
        <ele>247.1</ele>
        <time>2021-10-14T09:54:41Z</time>
      </trkpt>
      <trkpt lat="43.38658" lon="-0.34114">
        <ele>247</ele>
        <time>2021-10-14T09:54:42Z</time>
      </trkpt>
      <trkpt lat="43.3867" lon="-0.34129">
        <ele>248.2</ele>
        <time>2021-10-14T09:54:50Z</time>
      </trkpt>
      <trkpt lat="43.38673" lon="-0.34132">
        <ele>247.6</ele>
        <time>2021-10-14T09:54:52Z</time>
      </trkpt>
      <trkpt lat="43.38674" lon="-0.34134">
        <ele>247.9</ele>
        <time>2021-10-14T09:54:53Z</time>
      </trkpt>
      <trkpt lat="43.38677" lon="-0.34136">
        <ele>248</ele>
        <time>2021-10-14T09:54:54Z</time>
      </trkpt>
      <trkpt lat="43.38686" lon="-0.34142">
        <ele>247.3</ele>
        <time>2021-10-14T09:54:58Z</time>
      </trkpt>
      <trkpt lat="43.38694" lon="-0.34147">
        <ele>248</ele>
        <time>2021-10-14T09:55:02Z</time>
      </trkpt>
      <trkpt lat="43.38696" lon="-0.34148">
        <ele>248.5</ele>
        <time>2021-10-14T09:55:03Z</time>
      </trkpt>
      <trkpt lat="43.387" lon="-0.3415">
        <ele>247.4</ele>
        <time>2021-10-14T09:55:05Z</time>
      </trkpt>
      <trkpt lat="43.38705" lon="-0.34152">
        <ele>247</ele>
        <time>2021-10-14T09:55:07Z</time>
      </trkpt>
      <trkpt lat="43.38708" lon="-0.34153">
        <ele>248</ele>
        <time>2021-10-14T09:55:08Z</time>
      </trkpt>
      <trkpt lat="43.38711" lon="-0.34154">
        <ele>247.3</ele>
        <time>2021-10-14T09:55:09Z</time>
      </trkpt>
      <trkpt lat="43.38712" lon="-0.34154">
        <ele>248.3</ele>
        <time>2021-10-14T09:55:10Z</time>
      </trkpt>
      <trkpt lat="43.38715" lon="-0.34156">
        <ele>248.5</ele>
        <time>2021-10-14T09:55:11Z</time>
      </trkpt>
      <trkpt lat="43.38725" lon="-0.34159">
        <ele>247.5</ele>
        <time>2021-10-14T09:55:15Z</time>
      </trkpt>
      <trkpt lat="43.38726" lon="-0.3416">
        <ele>249.1</ele>
        <time>2021-10-14T09:55:15Z</time>
      </trkpt>
      <trkpt lat="43.38727" lon="-0.34161">
        <ele>249.4</ele>
        <time>2021-10-14T09:55:16Z</time>
      </trkpt>
      <trkpt lat="43.3873" lon="-0.34162">
        <ele>250.2</ele>
        <time>2021-10-14T09:55:17Z</time>
      </trkpt>
      <trkpt lat="43.38731" lon="-0.34163">
        <ele>250.2</ele>
        <time>2021-10-14T09:55:18Z</time>
      </trkpt>
      <trkpt lat="43.38737" lon="-0.34167">
        <ele>250.8</ele>
        <time>2021-10-14T09:55:21Z</time>
      </trkpt>
      <trkpt lat="43.38739" lon="-0.3417">
        <ele>251</ele>
        <time>2021-10-14T09:55:22Z</time>
      </trkpt>
      <trkpt lat="43.38743" lon="-0.34175">
        <ele>251.4</ele>
        <time>2021-10-14T09:55:24Z</time>
      </trkpt>
      <trkpt lat="43.38744" lon="-0.34177">
        <ele>251.4</ele>
        <time>2021-10-14T09:55:25Z</time>
      </trkpt>
      <trkpt lat="43.3875" lon="-0.34184">
        <ele>251.1</ele>
        <time>2021-10-14T09:55:28Z</time>
      </trkpt>
      <trkpt lat="43.38754" lon="-0.3419">
        <ele>251.1</ele>
        <time>2021-10-14T09:55:30Z</time>
      </trkpt>
      <trkpt lat="43.38758" lon="-0.34198">
        <ele>249.3</ele>
        <time>2021-10-14T09:55:33Z</time>
      </trkpt>
      <trkpt lat="43.38764" lon="-0.34207">
        <ele>249.4</ele>
        <time>2021-10-14T09:55:37Z</time>
      </trkpt>
      <trkpt lat="43.38773" lon="-0.34223">
        <ele>253.7</ele>
        <time>2021-10-14T09:55:41Z</time>
      </trkpt>
      <trkpt lat="43.38782" lon="-0.34245">
        <ele>254.9</ele>
        <time>2021-10-14T09:55:46Z</time>
      </trkpt>
      <trkpt lat="43.38785" lon="-0.34252">
        <ele>255.2</ele>
        <time>2021-10-14T09:55:48Z</time>
      </trkpt>
      <trkpt lat="43.38787" lon="-0.34258">
        <ele>255.1</ele>
        <time>2021-10-14T09:55:49Z</time>
      </trkpt>
      <trkpt lat="43.38793" lon="-0.3428">
        <ele>254.9</ele>
        <time>2021-10-14T09:55:54Z</time>
      </trkpt>
      <trkpt lat="43.38795" lon="-0.3429">
        <ele>256.2</ele>
        <time>2021-10-14T09:55:56Z</time>
      </trkpt>
      <trkpt lat="43.38798" lon="-0.34304">
        <ele>254.8</ele>
        <time>2021-10-14T09:56:00Z</time>
      </trkpt>
      <trkpt lat="43.38801" lon="-0.34337">
        <ele>256.5</ele>
        <time>2021-10-14T09:56:07Z</time>
      </trkpt>
      <trkpt lat="43.38801" lon="-0.34347">
        <ele>256.6</ele>
        <time>2021-10-14T09:56:09Z</time>
      </trkpt>
      <trkpt lat="43.38798" lon="-0.34392">
        <ele>257.9</ele>
        <time>2021-10-14T09:56:17Z</time>
      </trkpt>
      <trkpt lat="43.38798" lon="-0.34397">
        <ele>258</ele>
        <time>2021-10-14T09:56:18Z</time>
      </trkpt>
      <trkpt lat="43.38799" lon="-0.34416">
        <ele>258.1</ele>
        <time>2021-10-14T09:56:21Z</time>
      </trkpt>
      <trkpt lat="43.38798" lon="-0.34419">
        <ele>258.1</ele>
        <time>2021-10-14T09:56:22Z</time>
      </trkpt>
      <trkpt lat="43.38796" lon="-0.34421">
        <ele>258</ele>
        <time>2021-10-14T09:56:22Z</time>
      </trkpt>
      <trkpt lat="43.38795" lon="-0.34424">
        <ele>258.1</ele>
        <time>2021-10-14T09:56:23Z</time>
      </trkpt>
      <trkpt lat="43.38796" lon="-0.3443">
        <ele>258.1</ele>
        <time>2021-10-14T09:56:24Z</time>
      </trkpt>
      <trkpt lat="43.38797" lon="-0.34434">
        <ele>258.1</ele>
        <time>2021-10-14T09:56:25Z</time>
      </trkpt>
      <trkpt lat="43.38799" lon="-0.34443">
        <ele>258.5</ele>
        <time>2021-10-14T09:56:26Z</time>
      </trkpt>
      <trkpt lat="43.388" lon="-0.34458">
        <ele>257.5</ele>
        <time>2021-10-14T09:56:30Z</time>
      </trkpt>
      <trkpt lat="43.38801" lon="-0.34461">
        <ele>257.7</ele>
        <time>2021-10-14T09:56:31Z</time>
      </trkpt>
      <trkpt lat="43.38801" lon="-0.34468">
        <ele>256.9</ele>
        <time>2021-10-14T09:56:33Z</time>
      </trkpt>
      <trkpt lat="43.38801" lon="-0.34472">
        <ele>256.7</ele>
        <time>2021-10-14T09:56:34Z</time>
      </trkpt>
      <trkpt lat="43.38803" lon="-0.34476">
        <ele>257.9</ele>
        <time>2021-10-14T09:56:36Z</time>
      </trkpt>
      <trkpt lat="43.38803" lon="-0.34479">
        <ele>257.2</ele>
        <time>2021-10-14T09:56:37Z</time>
      </trkpt>
      <trkpt lat="43.38803" lon="-0.34482">
        <ele>256.7</ele>
        <time>2021-10-14T09:56:38Z</time>
      </trkpt>
      <trkpt lat="43.38805" lon="-0.34488">
        <ele>257.1</ele>
        <time>2021-10-14T09:56:40Z</time>
      </trkpt>
      <trkpt lat="43.38805" lon="-0.34491">
        <ele>258.1</ele>
        <time>2021-10-14T09:56:41Z</time>
      </trkpt>
      <trkpt lat="43.38807" lon="-0.34497">
        <ele>258.3</ele>
        <time>2021-10-14T09:56:43Z</time>
      </trkpt>
      <trkpt lat="43.38807" lon="-0.34499">
        <ele>257.7</ele>
        <time>2021-10-14T09:56:44Z</time>
      </trkpt>
      <trkpt lat="43.38808" lon="-0.34503">
        <ele>258</ele>
        <time>2021-10-14T09:56:45Z</time>
      </trkpt>
      <trkpt lat="43.38808" lon="-0.34505">
        <ele>258</ele>
        <time>2021-10-14T09:56:46Z</time>
      </trkpt>
      <trkpt lat="43.38809" lon="-0.34507">
        <ele>258.7</ele>
        <time>2021-10-14T09:56:47Z</time>
      </trkpt>
      <trkpt lat="43.38813" lon="-0.34517">
        <ele>260.1</ele>
        <time>2021-10-14T09:56:51Z</time>
      </trkpt>
      <trkpt lat="43.38815" lon="-0.3452">
        <ele>260</ele>
        <time>2021-10-14T09:56:52Z</time>
      </trkpt>
      <trkpt lat="43.38815" lon="-0.34523">
        <ele>260.3</ele>
        <time>2021-10-14T09:56:53Z</time>
      </trkpt>
      <trkpt lat="43.38816" lon="-0.34525">
        <ele>260.3</ele>
        <time>2021-10-14T09:56:54Z</time>
      </trkpt>
      <trkpt lat="43.38828" lon="-0.34557">
        <ele>260.3</ele>
        <time>2021-10-14T09:57:05Z</time>
      </trkpt>
      <trkpt lat="43.38831" lon="-0.34565">
        <ele>261</ele>
        <time>2021-10-14T09:57:08Z</time>
      </trkpt>
      <trkpt lat="43.38831" lon="-0.34566">
        <ele>260.7</ele>
        <time>2021-10-14T09:57:08Z</time>
      </trkpt>
      <trkpt lat="43.38845" lon="-0.34607">
        <ele>261.8</ele>
        <time>2021-10-14T09:57:24Z</time>
      </trkpt>
      <trkpt lat="43.38846" lon="-0.34612">
        <ele>261.5</ele>
        <time>2021-10-14T09:57:26Z</time>
      </trkpt>
      <trkpt lat="43.38847" lon="-0.34616">
        <ele>261.8</ele>
        <time>2021-10-14T09:57:27Z</time>
      </trkpt>
      <trkpt lat="43.38847" lon="-0.3462">
        <ele>262</ele>
        <time>2021-10-14T09:57:28Z</time>
      </trkpt>
      <trkpt lat="43.38846" lon="-0.34629">
        <ele>263.1</ele>
        <time>2021-10-14T09:57:31Z</time>
      </trkpt>
      <trkpt lat="43.38844" lon="-0.3464">
        <ele>261.6</ele>
        <time>2021-10-14T09:57:35Z</time>
      </trkpt>
      <trkpt lat="43.38838" lon="-0.34666">
        <ele>263.1</ele>
        <time>2021-10-14T09:57:45Z</time>
      </trkpt>
      <trkpt lat="43.38838" lon="-0.34668">
        <ele>263.5</ele>
        <time>2021-10-14T09:57:46Z</time>
      </trkpt>
      <trkpt lat="43.38837" lon="-0.34677">
        <ele>264.1</ele>
        <time>2021-10-14T09:57:50Z</time>
      </trkpt>
      <trkpt lat="43.38837" lon="-0.34679">
        <ele>263.8</ele>
        <time>2021-10-14T09:57:51Z</time>
      </trkpt>
      <trkpt lat="43.38837" lon="-0.3468">
        <ele>264.3</ele>
        <time>2021-10-14T09:57:51Z</time>
      </trkpt>
      <trkpt lat="43.38836" lon="-0.34685">
        <ele>265.4</ele>
        <time>2021-10-14T09:57:53Z</time>
      </trkpt>
      <trkpt lat="43.38836" lon="-0.34686">
        <ele>265.8</ele>
        <time>2021-10-14T09:57:54Z</time>
      </trkpt>
      <trkpt lat="43.38835" lon="-0.34691">
        <ele>264.4</ele>
        <time>2021-10-14T09:57:56Z</time>
      </trkpt>
      <trkpt lat="43.38831" lon="-0.34701">
        <ele>265.2</ele>
        <time>2021-10-14T09:58:00Z</time>
      </trkpt>
      <trkpt lat="43.3883" lon="-0.34704">
        <ele>264.9</ele>
        <time>2021-10-14T09:58:00Z</time>
      </trkpt>
      <trkpt lat="43.38827" lon="-0.34713">
        <ele>265.8</ele>
        <time>2021-10-14T09:58:04Z</time>
      </trkpt>
      <trkpt lat="43.38824" lon="-0.34717">
        <ele>265.5</ele>
        <time>2021-10-14T09:58:05Z</time>
      </trkpt>
      <trkpt lat="43.38822" lon="-0.34723">
        <ele>264.7</ele>
        <time>2021-10-14T09:58:08Z</time>
      </trkpt>
      <trkpt lat="43.38819" lon="-0.34727">
        <ele>265.7</ele>
        <time>2021-10-14T09:58:09Z</time>
      </trkpt>
      <trkpt lat="43.38815" lon="-0.34734">
        <ele>265.3</ele>
        <time>2021-10-14T09:58:13Z</time>
      </trkpt>
      <trkpt lat="43.38814" lon="-0.34736">
        <ele>265.3</ele>
        <time>2021-10-14T09:58:14Z</time>
      </trkpt>
      <trkpt lat="43.38812" lon="-0.3474">
        <ele>263.7</ele>
        <time>2021-10-14T09:58:16Z</time>
      </trkpt>
      <trkpt lat="43.38811" lon="-0.34741">
        <ele>263</ele>
        <time>2021-10-14T09:58:16Z</time>
      </trkpt>
      <trkpt lat="43.38807" lon="-0.34748">
        <ele>263.1</ele>
        <time>2021-10-14T09:58:20Z</time>
      </trkpt>
      <trkpt lat="43.38805" lon="-0.34752">
        <ele>263.7</ele>
        <time>2021-10-14T09:58:22Z</time>
      </trkpt>
      <trkpt lat="43.38804" lon="-0.34755">
        <ele>263.3</ele>
        <time>2021-10-14T09:58:23Z</time>
      </trkpt>
      <trkpt lat="43.38803" lon="-0.34757">
        <ele>263.3</ele>
        <time>2021-10-14T09:58:24Z</time>
      </trkpt>
      <trkpt lat="43.38802" lon="-0.34761">
        <ele>263.1</ele>
        <time>2021-10-14T09:58:26Z</time>
      </trkpt>
      <trkpt lat="43.38801" lon="-0.34764">
        <ele>264.3</ele>
        <time>2021-10-14T09:58:27Z</time>
      </trkpt>
      <trkpt lat="43.38801" lon="-0.34768">
        <ele>263.3</ele>
        <time>2021-10-14T09:58:28Z</time>
      </trkpt>
      <trkpt lat="43.388" lon="-0.34773">
        <ele>265.1</ele>
        <time>2021-10-14T09:58:30Z</time>
      </trkpt>
      <trkpt lat="43.388" lon="-0.34775">
        <ele>266</ele>
        <time>2021-10-14T09:58:30Z</time>
      </trkpt>
      <trkpt lat="43.38799" lon="-0.34779">
        <ele>266.3</ele>
        <time>2021-10-14T09:58:32Z</time>
      </trkpt>
      <trkpt lat="43.38799" lon="-0.34781">
        <ele>266</ele>
        <time>2021-10-14T09:58:32Z</time>
      </trkpt>
      <trkpt lat="43.38799" lon="-0.34786">
        <ele>267.1</ele>
        <time>2021-10-14T09:58:34Z</time>
      </trkpt>
      <trkpt lat="43.38798" lon="-0.3479">
        <ele>267.1</ele>
        <time>2021-10-14T09:58:35Z</time>
      </trkpt>
      <trkpt lat="43.38797" lon="-0.34794">
        <ele>267.6</ele>
        <time>2021-10-14T09:58:37Z</time>
      </trkpt>
      <trkpt lat="43.38796" lon="-0.34798">
        <ele>268.9</ele>
        <time>2021-10-14T09:58:38Z</time>
      </trkpt>
      <trkpt lat="43.38795" lon="-0.34808">
        <ele>268.8</ele>
        <time>2021-10-14T09:58:42Z</time>
      </trkpt>
      <trkpt lat="43.38786" lon="-0.34849">
        <ele>269.5</ele>
        <time>2021-10-14T09:58:54Z</time>
      </trkpt>
      <trkpt lat="43.38785" lon="-0.34856">
        <ele>269.9</ele>
        <time>2021-10-14T09:58:56Z</time>
      </trkpt>
      <trkpt lat="43.38784" lon="-0.34862">
        <ele>269.1</ele>
        <time>2021-10-14T09:58:58Z</time>
      </trkpt>
      <trkpt lat="43.38776" lon="-0.34884">
        <ele>271.3</ele>
        <time>2021-10-14T09:59:04Z</time>
      </trkpt>
      <trkpt lat="43.38775" lon="-0.34886">
        <ele>271.1</ele>
        <time>2021-10-14T09:59:05Z</time>
      </trkpt>
      <trkpt lat="43.38774" lon="-0.34889">
        <ele>271.1</ele>
        <time>2021-10-14T09:59:06Z</time>
      </trkpt>
      <trkpt lat="43.38771" lon="-0.34897">
        <ele>269.6</ele>
        <time>2021-10-14T09:59:07Z</time>
      </trkpt>
      <trkpt lat="43.3876" lon="-0.34926">
        <ele>275.1</ele>
        <time>2021-10-14T09:59:13Z</time>
      </trkpt>
      <trkpt lat="43.38754" lon="-0.34936">
        <ele>274.3</ele>
        <time>2021-10-14T09:59:16Z</time>
      </trkpt>
      <trkpt lat="43.38752" lon="-0.34943">
        <ele>273.3</ele>
        <time>2021-10-14T09:59:17Z</time>
      </trkpt>
      <trkpt lat="43.38749" lon="-0.34946">
        <ele>272.8</ele>
        <time>2021-10-14T09:59:18Z</time>
      </trkpt>
      <trkpt lat="43.38746" lon="-0.34949">
        <ele>274.2</ele>
        <time>2021-10-14T09:59:19Z</time>
      </trkpt>
      <trkpt lat="43.38744" lon="-0.3495">
        <ele>274.1</ele>
        <time>2021-10-14T09:59:19Z</time>
      </trkpt>
      <trkpt lat="43.38742" lon="-0.34951">
        <ele>275.1</ele>
        <time>2021-10-14T09:59:20Z</time>
      </trkpt>
      <trkpt lat="43.38739" lon="-0.34951">
        <ele>274.5</ele>
        <time>2021-10-14T09:59:21Z</time>
      </trkpt>
      <trkpt lat="43.38736" lon="-0.3495">
        <ele>274.5</ele>
        <time>2021-10-14T09:59:22Z</time>
      </trkpt>
      <trkpt lat="43.38733" lon="-0.34949">
        <ele>274.7</ele>
        <time>2021-10-14T09:59:23Z</time>
      </trkpt>
      <trkpt lat="43.38731" lon="-0.34947">
        <ele>275.3</ele>
        <time>2021-10-14T09:59:24Z</time>
      </trkpt>
      <trkpt lat="43.38729" lon="-0.34946">
        <ele>274.8</ele>
        <time>2021-10-14T09:59:24Z</time>
      </trkpt>
      <trkpt lat="43.38726" lon="-0.34945">
        <ele>275.5</ele>
        <time>2021-10-14T09:59:25Z</time>
      </trkpt>
      <trkpt lat="43.38723" lon="-0.34944">
        <ele>275.2</ele>
        <time>2021-10-14T09:59:27Z</time>
      </trkpt>
      <trkpt lat="43.3872" lon="-0.34943">
        <ele>274.1</ele>
        <time>2021-10-14T09:59:28Z</time>
      </trkpt>
      <trkpt lat="43.38713" lon="-0.3494">
        <ele>273.9</ele>
        <time>2021-10-14T09:59:30Z</time>
      </trkpt>
      <trkpt lat="43.38711" lon="-0.3494">
        <ele>273.9</ele>
        <time>2021-10-14T09:59:31Z</time>
      </trkpt>
      <trkpt lat="43.38709" lon="-0.3494">
        <ele>273.3</ele>
        <time>2021-10-14T09:59:31Z</time>
      </trkpt>
      <trkpt lat="43.38707" lon="-0.34941">
        <ele>273.3</ele>
        <time>2021-10-14T09:59:32Z</time>
      </trkpt>
      <trkpt lat="43.38705" lon="-0.34943">
        <ele>272.6</ele>
        <time>2021-10-14T09:59:33Z</time>
      </trkpt>
      <trkpt lat="43.38705" lon="-0.34948">
        <ele>273.2</ele>
        <time>2021-10-14T09:59:34Z</time>
      </trkpt>
      <trkpt lat="43.38705" lon="-0.34952">
        <ele>272.8</ele>
        <time>2021-10-14T09:59:34Z</time>
      </trkpt>
      <trkpt lat="43.38705" lon="-0.34955">
        <ele>272.8</ele>
        <time>2021-10-14T09:59:35Z</time>
      </trkpt>
      <trkpt lat="43.38702" lon="-0.34989">
        <ele>275.1</ele>
        <time>2021-10-14T09:59:41Z</time>
      </trkpt>
      <trkpt lat="43.38702" lon="-0.34995">
        <ele>276.1</ele>
        <time>2021-10-14T09:59:42Z</time>
      </trkpt>
      <trkpt lat="43.38697" lon="-0.3502">
        <ele>277.3</ele>
        <time>2021-10-14T09:59:46Z</time>
      </trkpt>
      <trkpt lat="43.38697" lon="-0.35024">
        <ele>277.3</ele>
        <time>2021-10-14T09:59:47Z</time>
      </trkpt>
      <trkpt lat="43.38693" lon="-0.35055">
        <ele>277.6</ele>
        <time>2021-10-14T09:59:53Z</time>
      </trkpt>
      <trkpt lat="43.38691" lon="-0.35064">
        <ele>278.1</ele>
        <time>2021-10-14T09:59:55Z</time>
      </trkpt>
      <trkpt lat="43.38692" lon="-0.35068">
        <ele>277.9</ele>
        <time>2021-10-14T09:59:56Z</time>
      </trkpt>
      <trkpt lat="43.38692" lon="-0.35071">
        <ele>277.8</ele>
        <time>2021-10-14T09:59:57Z</time>
      </trkpt>
      <trkpt lat="43.38691" lon="-0.35074">
        <ele>277.9</ele>
        <time>2021-10-14T09:59:58Z</time>
      </trkpt>
      <trkpt lat="43.38691" lon="-0.35075">
        <ele>278.3</ele>
        <time>2021-10-14T09:59:59Z</time>
      </trkpt>
      <trkpt lat="43.38691" lon="-0.35074">
        <ele>277.9</ele>
        <time>2021-10-14T10:00:00Z</time>
      </trkpt>
      <trkpt lat="43.38691" lon="-0.35073">
        <ele>277.7</ele>
        <time>2021-10-14T10:00:01Z</time>
      </trkpt>
      <trkpt lat="43.38691" lon="-0.35071">
        <ele>278</ele>
        <time>2021-10-14T10:00:04Z</time>
      </trkpt>
      <trkpt lat="43.38691" lon="-0.35071">
        <ele>278.2</ele>
        <time>2021-10-14T10:00:05Z</time>
      </trkpt>
      <trkpt lat="43.38691" lon="-0.35071">
        <ele>278.2</ele>
        <time>2021-10-14T10:00:06Z</time>
      </trkpt>
      <trkpt lat="43.38691" lon="-0.35071">
        <ele>278.1</ele>
        <time>2021-10-14T10:00:07Z</time>
      </trkpt>
      <trkpt lat="43.38691" lon="-0.35071">
        <ele>278.3</ele>
        <time>2021-10-14T10:00:08Z</time>
      </trkpt>
      <trkpt lat="43.38692" lon="-0.35071">
        <ele>278.1</ele>
        <time>2021-10-14T10:00:09Z</time>
      </trkpt>
      <trkpt lat="43.38692" lon="-0.35071">
        <ele>277.9</ele>
        <time>2021-10-14T10:00:10Z</time>
      </trkpt>
      <trkpt lat="43.38692" lon="-0.35071">
        <ele>278</ele>
        <time>2021-10-14T10:00:11Z</time>
      </trkpt>
      <trkpt lat="43.38692" lon="-0.35071">
        <ele>278.5</ele>
        <time>2021-10-14T10:00:12Z</time>
      </trkpt>
      <trkpt lat="43.38692" lon="-0.35071">
        <ele>278.3</ele>
        <time>2021-10-14T10:00:13Z</time>
      </trkpt>
      <trkpt lat="43.38692" lon="-0.35071">
        <ele>278</ele>
        <time>2021-10-14T10:00:14Z</time>
      </trkpt>
      <trkpt lat="43.38692" lon="-0.35071">
        <ele>278.2</ele>
        <time>2021-10-14T10:00:15Z</time>
      </trkpt>
      <trkpt lat="43.38692" lon="-0.35071">
        <ele>278.2</ele>
        <time>2021-10-14T10:00:16Z</time>
      </trkpt>
      <trkpt lat="43.38692" lon="-0.35071">
        <ele>277.7</ele>
        <time>2021-10-14T10:00:17Z</time>
      </trkpt>
      <trkpt lat="43.38692" lon="-0.35071">
        <ele>277.8</ele>
        <time>2021-10-14T10:00:44Z</time>
      </trkpt>
      <trkpt lat="43.38691" lon="-0.35071">
        <ele>277.8</ele>
        <time>2021-10-14T10:00:45Z</time>
      </trkpt>
      <trkpt lat="43.38691" lon="-0.35073">
        <ele>278</ele>
        <time>2021-10-14T10:00:46Z</time>
      </trkpt>
      <trkpt lat="43.38691" lon="-0.35075">
        <ele>278.4</ele>
        <time>2021-10-14T10:00:47Z</time>
      </trkpt>
      <trkpt lat="43.38691" lon="-0.35078">
        <ele>278</ele>
        <time>2021-10-14T10:00:48Z</time>
      </trkpt>
      <trkpt lat="43.38691" lon="-0.35081">
        <ele>278.1</ele>
        <time>2021-10-14T10:00:49Z</time>
      </trkpt>
      <trkpt lat="43.38691" lon="-0.35085">
        <ele>278.2</ele>
        <time>2021-10-14T10:00:50Z</time>
      </trkpt>
      <trkpt lat="43.3869" lon="-0.35091">
        <ele>277.8</ele>
        <time>2021-10-14T10:00:52Z</time>
      </trkpt>
      <trkpt lat="43.38689" lon="-0.35095">
        <ele>278.1</ele>
        <time>2021-10-14T10:00:53Z</time>
      </trkpt>
      <trkpt lat="43.38687" lon="-0.35105">
        <ele>277.9</ele>
        <time>2021-10-14T10:00:55Z</time>
      </trkpt>
      <trkpt lat="43.38686" lon="-0.35109">
        <ele>277.9</ele>
        <time>2021-10-14T10:00:56Z</time>
      </trkpt>
      <trkpt lat="43.38677" lon="-0.35133">
        <ele>278</ele>
        <time>2021-10-14T10:01:01Z</time>
      </trkpt>
      <trkpt lat="43.38676" lon="-0.35139">
        <ele>278.1</ele>
        <time>2021-10-14T10:01:02Z</time>
      </trkpt>
      <trkpt lat="43.38674" lon="-0.35156">
        <ele>278.2</ele>
        <time>2021-10-14T10:01:05Z</time>
      </trkpt>
      <trkpt lat="43.38673" lon="-0.3516">
        <ele>277.9</ele>
        <time>2021-10-14T10:01:05Z</time>
      </trkpt>
      <trkpt lat="43.38672" lon="-0.35174">
        <ele>277.1</ele>
        <time>2021-10-14T10:01:08Z</time>
      </trkpt>
      <trkpt lat="43.38668" lon="-0.3519">
        <ele>277.7</ele>
        <time>2021-10-14T10:01:12Z</time>
      </trkpt>
      <trkpt lat="43.38667" lon="-0.35193">
        <ele>276.7</ele>
        <time>2021-10-14T10:01:13Z</time>
      </trkpt>
      <trkpt lat="43.38667" lon="-0.352">
        <ele>277.1</ele>
        <time>2021-10-14T10:01:15Z</time>
      </trkpt>
      <trkpt lat="43.38666" lon="-0.35206">
        <ele>276.9</ele>
        <time>2021-10-14T10:01:16Z</time>
      </trkpt>
      <trkpt lat="43.38642" lon="-0.3525">
        <ele>275.9</ele>
        <time>2021-10-14T10:01:24Z</time>
      </trkpt>
      <trkpt lat="43.3864" lon="-0.35255">
        <ele>276.1</ele>
        <time>2021-10-14T10:01:25Z</time>
      </trkpt>
      <trkpt lat="43.38638" lon="-0.35261">
        <ele>276.2</ele>
        <time>2021-10-14T10:01:26Z</time>
      </trkpt>
      <trkpt lat="43.38637" lon="-0.35268">
        <ele>274.8</ele>
        <time>2021-10-14T10:01:27Z</time>
      </trkpt>
      <trkpt lat="43.38637" lon="-0.35274">
        <ele>275.8</ele>
        <time>2021-10-14T10:01:28Z</time>
      </trkpt>
      <trkpt lat="43.38637" lon="-0.35281">
        <ele>276.3</ele>
        <time>2021-10-14T10:01:29Z</time>
      </trkpt>
      <trkpt lat="43.38655" lon="-0.35408">
        <ele>280.1</ele>
        <time>2021-10-14T10:01:47Z</time>
      </trkpt>
      <trkpt lat="43.38657" lon="-0.35439">
        <ele>279.1</ele>
        <time>2021-10-14T10:01:51Z</time>
      </trkpt>
      <trkpt lat="43.38657" lon="-0.35447">
        <ele>279</ele>
        <time>2021-10-14T10:01:52Z</time>
      </trkpt>
      <trkpt lat="43.38657" lon="-0.35454">
        <ele>278.9</ele>
        <time>2021-10-14T10:01:53Z</time>
      </trkpt>
      <trkpt lat="43.38655" lon="-0.35474">
        <ele>278.8</ele>
        <time>2021-10-14T10:01:56Z</time>
      </trkpt>
      <trkpt lat="43.38654" lon="-0.35476">
        <ele>278.9</ele>
        <time>2021-10-14T10:01:57Z</time>
      </trkpt>
      <trkpt lat="43.38653" lon="-0.35479">
        <ele>278.9</ele>
        <time>2021-10-14T10:01:58Z</time>
      </trkpt>
      <trkpt lat="43.38651" lon="-0.3548">
        <ele>279.3</ele>
        <time>2021-10-14T10:01:59Z</time>
      </trkpt>
      <trkpt lat="43.3865" lon="-0.35483">
        <ele>277.9</ele>
        <time>2021-10-14T10:02:00Z</time>
      </trkpt>
      <trkpt lat="43.3865" lon="-0.35485">
        <ele>278.1</ele>
        <time>2021-10-14T10:02:01Z</time>
      </trkpt>
      <trkpt lat="43.3865" lon="-0.35488">
        <ele>277.9</ele>
        <time>2021-10-14T10:02:02Z</time>
      </trkpt>
      <trkpt lat="43.3865" lon="-0.35492">
        <ele>277.9</ele>
        <time>2021-10-14T10:02:03Z</time>
      </trkpt>
      <trkpt lat="43.3865" lon="-0.35494">
        <ele>278</ele>
        <time>2021-10-14T10:02:04Z</time>
      </trkpt>
      <trkpt lat="43.38652" lon="-0.35496">
        <ele>278</ele>
        <time>2021-10-14T10:02:05Z</time>
      </trkpt>
      <trkpt lat="43.38654" lon="-0.35498">
        <ele>277</ele>
        <time>2021-10-14T10:02:06Z</time>
      </trkpt>
      <trkpt lat="43.38655" lon="-0.35501">
        <ele>277</ele>
        <time>2021-10-14T10:02:07Z</time>
      </trkpt>
      <trkpt lat="43.38656" lon="-0.35503">
        <ele>277</ele>
        <time>2021-10-14T10:02:07Z</time>
      </trkpt>
      <trkpt lat="43.38656" lon="-0.35504">
        <ele>277.1</ele>
        <time>2021-10-14T10:02:08Z</time>
      </trkpt>
      <trkpt lat="43.38656" lon="-0.35506">
        <ele>277.1</ele>
        <time>2021-10-14T10:02:08Z</time>
      </trkpt>
      <trkpt lat="43.38648" lon="-0.35541">
        <ele>275.2</ele>
        <time>2021-10-14T10:02:13Z</time>
      </trkpt>
      <trkpt lat="43.38647" lon="-0.3555">
        <ele>273.9</ele>
        <time>2021-10-14T10:02:14Z</time>
      </trkpt>
      <trkpt lat="43.38647" lon="-0.3556">
        <ele>273.8</ele>
        <time>2021-10-14T10:02:15Z</time>
      </trkpt>
      <trkpt lat="43.38647" lon="-0.35569">
        <ele>274.2</ele>
        <time>2021-10-14T10:02:16Z</time>
      </trkpt>
      <trkpt lat="43.3865" lon="-0.3559">
        <ele>274</ele>
        <time>2021-10-14T10:02:18Z</time>
      </trkpt>
      <trkpt lat="43.38652" lon="-0.35599">
        <ele>274.1</ele>
        <time>2021-10-14T10:02:19Z</time>
      </trkpt>
      <trkpt lat="43.38657" lon="-0.35606">
        <ele>273.2</ele>
        <time>2021-10-14T10:02:20Z</time>
      </trkpt>
      <trkpt lat="43.38662" lon="-0.35611">
        <ele>273</ele>
        <time>2021-10-14T10:02:21Z</time>
      </trkpt>
      <trkpt lat="43.38665" lon="-0.35617">
        <ele>274</ele>
        <time>2021-10-14T10:02:22Z</time>
      </trkpt>
      <trkpt lat="43.38666" lon="-0.35623">
        <ele>274</ele>
        <time>2021-10-14T10:02:23Z</time>
      </trkpt>
      <trkpt lat="43.38666" lon="-0.3563">
        <ele>274.1</ele>
        <time>2021-10-14T10:02:24Z</time>
      </trkpt>
      <trkpt lat="43.38666" lon="-0.35635">
        <ele>274.1</ele>
        <time>2021-10-14T10:02:25Z</time>
      </trkpt>
      <trkpt lat="43.38664" lon="-0.35639">
        <ele>274.1</ele>
        <time>2021-10-14T10:02:26Z</time>
      </trkpt>
      <trkpt lat="43.38662" lon="-0.35642">
        <ele>274</ele>
        <time>2021-10-14T10:02:27Z</time>
      </trkpt>
      <trkpt lat="43.38659" lon="-0.35646">
        <ele>273.7</ele>
        <time>2021-10-14T10:02:28Z</time>
      </trkpt>
      <trkpt lat="43.38659" lon="-0.3565">
        <ele>274</ele>
        <time>2021-10-14T10:02:29Z</time>
      </trkpt>
      <trkpt lat="43.38659" lon="-0.35657">
        <ele>273.7</ele>
        <time>2021-10-14T10:02:31Z</time>
      </trkpt>
      <trkpt lat="43.38661" lon="-0.35658">
        <ele>274.1</ele>
        <time>2021-10-14T10:02:31Z</time>
      </trkpt>
      <trkpt lat="43.38661" lon="-0.35663">
        <ele>274.1</ele>
        <time>2021-10-14T10:02:33Z</time>
      </trkpt>
      <trkpt lat="43.38661" lon="-0.35666">
        <ele>274.1</ele>
        <time>2021-10-14T10:02:34Z</time>
      </trkpt>
      <trkpt lat="43.38661" lon="-0.35666">
        <ele>273</ele>
        <time>2021-10-14T10:02:35Z</time>
      </trkpt>
      <trkpt lat="43.38661" lon="-0.35664">
        <ele>272.9</ele>
        <time>2021-10-14T10:02:36Z</time>
      </trkpt>
      <trkpt lat="43.38661" lon="-0.35664">
        <ele>272.9</ele>
        <time>2021-10-14T10:02:37Z</time>
      </trkpt>
      <trkpt lat="43.38661" lon="-0.35664">
        <ele>273.1</ele>
        <time>2021-10-14T10:02:38Z</time>
      </trkpt>
      <trkpt lat="43.38661" lon="-0.35664">
        <ele>273.1</ele>
        <time>2021-10-14T10:02:39Z</time>
      </trkpt>
      <trkpt lat="43.3866" lon="-0.35664">
        <ele>273.1</ele>
        <time>2021-10-14T10:02:41Z</time>
      </trkpt>
      <trkpt lat="43.3866" lon="-0.35664">
        <ele>272.9</ele>
        <time>2021-10-14T10:02:42Z</time>
      </trkpt>
      <trkpt lat="43.3866" lon="-0.35664">
        <ele>272.8</ele>
        <time>2021-10-14T10:02:43Z</time>
      </trkpt>
      <trkpt lat="43.3866" lon="-0.35664">
        <ele>273.4</ele>
        <time>2021-10-14T10:02:47Z</time>
      </trkpt>
      <trkpt lat="43.3866" lon="-0.35664">
        <ele>273</ele>
        <time>2021-10-14T10:02:48Z</time>
      </trkpt>
      <trkpt lat="43.3866" lon="-0.35664">
        <ele>273.4</ele>
        <time>2021-10-14T10:02:49Z</time>
      </trkpt>
      <trkpt lat="43.3866" lon="-0.35664">
        <ele>273.1</ele>
        <time>2021-10-14T10:02:50Z</time>
      </trkpt>
      <trkpt lat="43.3866" lon="-0.35664">
        <ele>273.3</ele>
        <time>2021-10-14T10:02:52Z</time>
      </trkpt>
      <trkpt lat="43.3866" lon="-0.35664">
        <ele>273.3</ele>
        <time>2021-10-14T10:02:53Z</time>
      </trkpt>
      <trkpt lat="43.3866" lon="-0.35664">
        <ele>273</ele>
        <time>2021-10-14T10:02:56Z</time>
      </trkpt>
      <trkpt lat="43.3866" lon="-0.35664">
        <ele>272.6</ele>
        <time>2021-10-14T10:02:57Z</time>
      </trkpt>
      <trkpt lat="43.3866" lon="-0.35664">
        <ele>273</ele>
        <time>2021-10-14T10:02:58Z</time>
      </trkpt>
      <trkpt lat="43.3866" lon="-0.35664">
        <ele>273.1</ele>
        <time>2021-10-14T10:02:59Z</time>
      </trkpt>
      <trkpt lat="43.3866" lon="-0.35664">
        <ele>273.1</ele>
        <time>2021-10-14T10:03:06Z</time>
      </trkpt>
      <trkpt lat="43.38659" lon="-0.35663">
        <ele>273.2</ele>
        <time>2021-10-14T10:03:07Z</time>
      </trkpt>
      <trkpt lat="43.38659" lon="-0.35663">
        <ele>272.8</ele>
        <time>2021-10-14T10:03:08Z</time>
      </trkpt>
      <trkpt lat="43.38658" lon="-0.35663">
        <ele>271.9</ele>
        <time>2021-10-14T10:03:09Z</time>
      </trkpt>
      <trkpt lat="43.38658" lon="-0.35663">
        <ele>271.8</ele>
        <time>2021-10-14T10:03:10Z</time>
      </trkpt>
      <trkpt lat="43.38658" lon="-0.35663">
        <ele>272.4</ele>
        <time>2021-10-14T10:03:11Z</time>
      </trkpt>
      <trkpt lat="43.38658" lon="-0.35663">
        <ele>271.7</ele>
        <time>2021-10-14T10:03:13Z</time>
      </trkpt>
      <trkpt lat="43.38658" lon="-0.35663">
        <ele>272</ele>
        <time>2021-10-14T10:03:14Z</time>
      </trkpt>
      <trkpt lat="43.38658" lon="-0.35663">
        <ele>272.3</ele>
        <time>2021-10-14T10:03:16Z</time>
      </trkpt>
      <trkpt lat="43.38658" lon="-0.35663">
        <ele>271.9</ele>
        <time>2021-10-14T10:03:26Z</time>
      </trkpt>
      <trkpt lat="43.38658" lon="-0.35663">
        <ele>272.8</ele>
        <time>2021-10-14T10:03:27Z</time>
      </trkpt>
      <trkpt lat="43.38658" lon="-0.35663">
        <ele>273.3</ele>
        <time>2021-10-14T10:03:28Z</time>
      </trkpt>
      <trkpt lat="43.38658" lon="-0.35663">
        <ele>272.9</ele>
        <time>2021-10-14T10:03:29Z</time>
      </trkpt>
      <trkpt lat="43.38657" lon="-0.35664">
        <ele>273</ele>
        <time>2021-10-14T10:03:30Z</time>
      </trkpt>
      <trkpt lat="43.38657" lon="-0.35664">
        <ele>273.1</ele>
        <time>2021-10-14T10:03:32Z</time>
      </trkpt>
      <trkpt lat="43.38657" lon="-0.35665">
        <ele>273</ele>
        <time>2021-10-14T10:03:33Z</time>
      </trkpt>
      <trkpt lat="43.38657" lon="-0.35665">
        <ele>273.5</ele>
        <time>2021-10-14T10:03:34Z</time>
      </trkpt>
      <trkpt lat="43.38657" lon="-0.35665">
        <ele>273</ele>
        <time>2021-10-14T10:03:35Z</time>
      </trkpt>
      <trkpt lat="43.38657" lon="-0.35665">
        <ele>273.2</ele>
        <time>2021-10-14T10:03:36Z</time>
      </trkpt>
      <trkpt lat="43.38657" lon="-0.35665">
        <ele>273.6</ele>
        <time>2021-10-14T10:03:37Z</time>
      </trkpt>
      <trkpt lat="43.38657" lon="-0.35665">
        <ele>272.6</ele>
        <time>2021-10-14T10:03:38Z</time>
      </trkpt>
      <trkpt lat="43.38657" lon="-0.35665">
        <ele>273.4</ele>
        <time>2021-10-14T10:03:39Z</time>
      </trkpt>
      <trkpt lat="43.38657" lon="-0.35665">
        <ele>273.1</ele>
        <time>2021-10-14T10:03:40Z</time>
      </trkpt>
      <trkpt lat="43.38657" lon="-0.35665">
        <ele>273.1</ele>
        <time>2021-10-14T10:03:41Z</time>
      </trkpt>
      <trkpt lat="43.38658" lon="-0.35665">
        <ele>272.5</ele>
        <time>2021-10-14T10:03:42Z</time>
      </trkpt>
      <trkpt lat="43.38658" lon="-0.35665">
        <ele>274.3</ele>
        <time>2021-10-14T10:03:43Z</time>
      </trkpt>
      <trkpt lat="43.38658" lon="-0.35667">
        <ele>273.6</ele>
        <time>2021-10-14T10:03:45Z</time>
      </trkpt>
      <trkpt lat="43.38659" lon="-0.35667">
        <ele>274.5</ele>
        <time>2021-10-14T10:03:46Z</time>
      </trkpt>
      <trkpt lat="43.38659" lon="-0.35668">
        <ele>273.1</ele>
        <time>2021-10-14T10:03:47Z</time>
      </trkpt>
      <trkpt lat="43.38659" lon="-0.35668">
        <ele>274.6</ele>
        <time>2021-10-14T10:03:48Z</time>
      </trkpt>
      <trkpt lat="43.38659" lon="-0.35668">
        <ele>274.5</ele>
        <time>2021-10-14T10:03:49Z</time>
      </trkpt>
      <trkpt lat="43.38659" lon="-0.35668">
        <ele>273.9</ele>
        <time>2021-10-14T10:03:50Z</time>
      </trkpt>
      <trkpt lat="43.38659" lon="-0.35669">
        <ele>273.6</ele>
        <time>2021-10-14T10:03:51Z</time>
      </trkpt>
      <trkpt lat="43.38659" lon="-0.35669">
        <ele>273.5</ele>
        <time>2021-10-14T10:03:52Z</time>
      </trkpt>
      <trkpt lat="43.38659" lon="-0.35669">
        <ele>274.1</ele>
        <time>2021-10-14T10:03:54Z</time>
      </trkpt>
      <trkpt lat="43.38659" lon="-0.35669">
        <ele>274.3</ele>
        <time>2021-10-14T10:04:17Z</time>
      </trkpt>
      <trkpt lat="43.38658" lon="-0.35669">
        <ele>272</ele>
        <time>2021-10-14T10:04:18Z</time>
      </trkpt>
      <trkpt lat="43.38658" lon="-0.3567">
        <ele>271.8</ele>
        <time>2021-10-14T10:04:19Z</time>
      </trkpt>
      <trkpt lat="43.38657" lon="-0.3567">
        <ele>272.4</ele>
        <time>2021-10-14T10:04:20Z</time>
      </trkpt>
      <trkpt lat="43.38657" lon="-0.3567">
        <ele>271.4</ele>
        <time>2021-10-14T10:04:21Z</time>
      </trkpt>
      <trkpt lat="43.38658" lon="-0.3567">
        <ele>272.2</ele>
        <time>2021-10-14T10:04:22Z</time>
      </trkpt>
      <trkpt lat="43.38658" lon="-0.3567">
        <ele>272.2</ele>
        <time>2021-10-14T10:04:23Z</time>
      </trkpt>
      <trkpt lat="43.38658" lon="-0.35671">
        <ele>271.8</ele>
        <time>2021-10-14T10:04:24Z</time>
      </trkpt>
      <trkpt lat="43.38658" lon="-0.35671">
        <ele>271.2</ele>
        <time>2021-10-14T10:04:25Z</time>
      </trkpt>
      <trkpt lat="43.38658" lon="-0.35671">
        <ele>272.1</ele>
        <time>2021-10-14T10:04:26Z</time>
      </trkpt>
      <trkpt lat="43.38658" lon="-0.35671">
        <ele>271.5</ele>
        <time>2021-10-14T10:04:27Z</time>
      </trkpt>
      <trkpt lat="43.38658" lon="-0.35669">
        <ele>271.6</ele>
        <time>2021-10-14T10:04:29Z</time>
      </trkpt>
      <trkpt lat="43.38657" lon="-0.35668">
        <ele>270.8</ele>
        <time>2021-10-14T10:04:30Z</time>
      </trkpt>
      <trkpt lat="43.38657" lon="-0.35667">
        <ele>270.2</ele>
        <time>2021-10-14T10:04:31Z</time>
      </trkpt>
      <trkpt lat="43.38657" lon="-0.35667">
        <ele>270.5</ele>
        <time>2021-10-14T10:04:32Z</time>
      </trkpt>
      <trkpt lat="43.38658" lon="-0.35664">
        <ele>264.8</ele>
        <time>2021-10-14T10:04:51Z</time>
      </trkpt>
      <trkpt lat="43.38658" lon="-0.35664">
        <ele>265.4</ele>
        <time>2021-10-14T10:04:52Z</time>
      </trkpt>
      <trkpt lat="43.38658" lon="-0.35664">
        <ele>265.6</ele>
        <time>2021-10-14T10:04:53Z</time>
      </trkpt>
      <trkpt lat="43.38658" lon="-0.35664">
        <ele>264.7</ele>
        <time>2021-10-14T10:04:54Z</time>
      </trkpt>
      <trkpt lat="43.38658" lon="-0.35664">
        <ele>262.9</ele>
        <time>2021-10-14T10:04:56Z</time>
      </trkpt>
      <trkpt lat="43.38658" lon="-0.35665">
        <ele>263.7</ele>
        <time>2021-10-14T10:04:57Z</time>
      </trkpt>
      <trkpt lat="43.38658" lon="-0.35665">
        <ele>264.3</ele>
        <time>2021-10-14T10:04:58Z</time>
      </trkpt>
      <trkpt lat="43.38658" lon="-0.35665">
        <ele>263.6</ele>
        <time>2021-10-14T10:04:59Z</time>
      </trkpt>
      <trkpt lat="43.38658" lon="-0.35665">
        <ele>263.9</ele>
        <time>2021-10-14T10:05:01Z</time>
      </trkpt>
      <trkpt lat="43.38658" lon="-0.35665">
        <ele>264</ele>
        <time>2021-10-14T10:05:03Z</time>
      </trkpt>
      <trkpt lat="43.38658" lon="-0.35665">
        <ele>263.8</ele>
        <time>2021-10-14T10:09:46Z</time>
      </trkpt>
      <trkpt lat="43.38659" lon="-0.35667">
        <ele>267.7</ele>
        <time>2021-10-14T10:09:47Z</time>
      </trkpt>
      <trkpt lat="43.38659" lon="-0.35668">
        <ele>267.1</ele>
        <time>2021-10-14T10:09:48Z</time>
      </trkpt>
      <trkpt lat="43.3866" lon="-0.3567">
        <ele>268.6</ele>
        <time>2021-10-14T10:09:49Z</time>
      </trkpt>
      <trkpt lat="43.38663" lon="-0.35673">
        <ele>268.2</ele>
        <time>2021-10-14T10:09:50Z</time>
      </trkpt>
      <trkpt lat="43.38664" lon="-0.35675">
        <ele>267.6</ele>
        <time>2021-10-14T10:09:51Z</time>
      </trkpt>
      <trkpt lat="43.38664" lon="-0.35678">
        <ele>268.7</ele>
        <time>2021-10-14T10:09:52Z</time>
      </trkpt>
      <trkpt lat="43.38665" lon="-0.3568">
        <ele>269.9</ele>
        <time>2021-10-14T10:09:53Z</time>
      </trkpt>
      <trkpt lat="43.38666" lon="-0.35682">
        <ele>269.5</ele>
        <time>2021-10-14T10:09:54Z</time>
      </trkpt>
      <trkpt lat="43.38672" lon="-0.35687">
        <ele>271.6</ele>
        <time>2021-10-14T10:09:58Z</time>
      </trkpt>
      <trkpt lat="43.38673" lon="-0.35688">
        <ele>270.6</ele>
        <time>2021-10-14T10:09:59Z</time>
      </trkpt>
      <trkpt lat="43.38675" lon="-0.35689">
        <ele>271.6</ele>
        <time>2021-10-14T10:10:00Z</time>
      </trkpt>
      <trkpt lat="43.38676" lon="-0.35689">
        <ele>271.8</ele>
        <time>2021-10-14T10:10:01Z</time>
      </trkpt>
      <trkpt lat="43.38679" lon="-0.35688">
        <ele>273.6</ele>
        <time>2021-10-14T10:10:03Z</time>
      </trkpt>
      <trkpt lat="43.3868" lon="-0.35688">
        <ele>274</ele>
        <time>2021-10-14T10:10:04Z</time>
      </trkpt>
      <trkpt lat="43.38682" lon="-0.35689">
        <ele>274.3</ele>
        <time>2021-10-14T10:10:05Z</time>
      </trkpt>
      <trkpt lat="43.38683" lon="-0.3569">
        <ele>274.1</ele>
        <time>2021-10-14T10:10:06Z</time>
      </trkpt>
      <trkpt lat="43.38685" lon="-0.35691">
        <ele>273.8</ele>
        <time>2021-10-14T10:10:07Z</time>
      </trkpt>
      <trkpt lat="43.38686" lon="-0.35692">
        <ele>275.7</ele>
        <time>2021-10-14T10:10:08Z</time>
      </trkpt>
      <trkpt lat="43.38687" lon="-0.35694">
        <ele>275.6</ele>
        <time>2021-10-14T10:10:09Z</time>
      </trkpt>
      <trkpt lat="43.38688" lon="-0.35697">
        <ele>275.1</ele>
        <time>2021-10-14T10:10:10Z</time>
      </trkpt>
      <trkpt lat="43.38689" lon="-0.35699">
        <ele>275.1</ele>
        <time>2021-10-14T10:10:11Z</time>
      </trkpt>
      <trkpt lat="43.38696" lon="-0.35707">
        <ele>275.7</ele>
        <time>2021-10-14T10:10:14Z</time>
      </trkpt>
      <trkpt lat="43.38696" lon="-0.35707">
        <ele>274.2</ele>
        <time>2021-10-14T10:10:15Z</time>
      </trkpt>
      <trkpt lat="43.38695" lon="-0.3571">
        <ele>274.4</ele>
        <time>2021-10-14T10:10:16Z</time>
      </trkpt>
      <trkpt lat="43.38712" lon="-0.35726">
        <ele>273.7</ele>
        <time>2021-10-14T10:10:21Z</time>
      </trkpt>
      <trkpt lat="43.38715" lon="-0.35728">
        <ele>274.1</ele>
        <time>2021-10-14T10:10:22Z</time>
      </trkpt>
      <trkpt lat="43.38718" lon="-0.35729">
        <ele>274.2</ele>
        <time>2021-10-14T10:10:23Z</time>
      </trkpt>
      <trkpt lat="43.38723" lon="-0.35729">
        <ele>273.1</ele>
        <time>2021-10-14T10:10:25Z</time>
      </trkpt>
      <trkpt lat="43.38725" lon="-0.35729">
        <ele>272.7</ele>
        <time>2021-10-14T10:10:26Z</time>
      </trkpt>
      <trkpt lat="43.38727" lon="-0.3573">
        <ele>274</ele>
        <time>2021-10-14T10:10:27Z</time>
      </trkpt>
      <trkpt lat="43.38729" lon="-0.35731">
        <ele>273.7</ele>
        <time>2021-10-14T10:10:28Z</time>
      </trkpt>
      <trkpt lat="43.3878" lon="-0.35793">
        <ele>275.4</ele>
        <time>2021-10-14T10:10:49Z</time>
      </trkpt>
      <trkpt lat="43.3878" lon="-0.35794">
        <ele>274.4</ele>
        <time>2021-10-14T10:10:50Z</time>
      </trkpt>
      <trkpt lat="43.38783" lon="-0.35796">
        <ele>275.2</ele>
        <time>2021-10-14T10:10:51Z</time>
      </trkpt>
      <trkpt lat="43.38786" lon="-0.358">
        <ele>275</ele>
        <time>2021-10-14T10:10:52Z</time>
      </trkpt>
      <trkpt lat="43.388" lon="-0.35823">
        <ele>274.4</ele>
        <time>2021-10-14T10:10:59Z</time>
      </trkpt>
      <trkpt lat="43.38804" lon="-0.35827">
        <ele>273.9</ele>
        <time>2021-10-14T10:11:01Z</time>
      </trkpt>
      <trkpt lat="43.38807" lon="-0.35829">
        <ele>273.8</ele>
        <time>2021-10-14T10:11:02Z</time>
      </trkpt>
      <trkpt lat="43.38809" lon="-0.35831">
        <ele>273.9</ele>
        <time>2021-10-14T10:11:03Z</time>
      </trkpt>
      <trkpt lat="43.3881" lon="-0.35834">
        <ele>274.1</ele>
        <time>2021-10-14T10:11:04Z</time>
      </trkpt>
      <trkpt lat="43.38812" lon="-0.35836">
        <ele>274</ele>
        <time>2021-10-14T10:11:05Z</time>
      </trkpt>
      <trkpt lat="43.38814" lon="-0.35838">
        <ele>273.9</ele>
        <time>2021-10-14T10:11:06Z</time>
      </trkpt>
      <trkpt lat="43.38816" lon="-0.35839">
        <ele>272.6</ele>
        <time>2021-10-14T10:11:07Z</time>
      </trkpt>
      <trkpt lat="43.38818" lon="-0.35842">
        <ele>273.7</ele>
        <time>2021-10-14T10:11:08Z</time>
      </trkpt>
      <trkpt lat="43.3882" lon="-0.35844">
        <ele>273.4</ele>
        <time>2021-10-14T10:11:09Z</time>
      </trkpt>
      <trkpt lat="43.38823" lon="-0.35848">
        <ele>273.1</ele>
        <time>2021-10-14T10:11:11Z</time>
      </trkpt>
      <trkpt lat="43.38823" lon="-0.3585">
        <ele>271.9</ele>
        <time>2021-10-14T10:11:12Z</time>
      </trkpt>
      <trkpt lat="43.38823" lon="-0.35852">
        <ele>271.8</ele>
        <time>2021-10-14T10:11:13Z</time>
      </trkpt>
      <trkpt lat="43.38822" lon="-0.35854">
        <ele>273</ele>
        <time>2021-10-14T10:11:14Z</time>
      </trkpt>
      <trkpt lat="43.38822" lon="-0.35854">
        <ele>271.7</ele>
        <time>2021-10-14T10:11:15Z</time>
      </trkpt>
      <trkpt lat="43.38818" lon="-0.35861">
        <ele>272.4</ele>
        <time>2021-10-14T10:11:18Z</time>
      </trkpt>
      <trkpt lat="43.38818" lon="-0.35862">
        <ele>271.3</ele>
        <time>2021-10-14T10:11:19Z</time>
      </trkpt>
      <trkpt lat="43.38818" lon="-0.35863">
        <ele>271.2</ele>
        <time>2021-10-14T10:11:20Z</time>
      </trkpt>
      <trkpt lat="43.38818" lon="-0.35864">
        <ele>272.2</ele>
        <time>2021-10-14T10:11:21Z</time>
      </trkpt>
      <trkpt lat="43.38818" lon="-0.35864">
        <ele>272.4</ele>
        <time>2021-10-14T10:11:22Z</time>
      </trkpt>
      <trkpt lat="43.38819" lon="-0.35863">
        <ele>272.1</ele>
        <time>2021-10-14T10:11:24Z</time>
      </trkpt>
      <trkpt lat="43.38819" lon="-0.35863">
        <ele>272</ele>
        <time>2021-10-14T10:11:26Z</time>
      </trkpt>
      <trkpt lat="43.38819" lon="-0.35863">
        <ele>272.1</ele>
        <time>2021-10-14T10:11:27Z</time>
      </trkpt>
      <trkpt lat="43.38818" lon="-0.35868">
        <ele>271.7</ele>
        <time>2021-10-14T10:11:39Z</time>
      </trkpt>
      <trkpt lat="43.38818" lon="-0.3587">
        <ele>271.2</ele>
        <time>2021-10-14T10:11:40Z</time>
      </trkpt>
      <trkpt lat="43.38818" lon="-0.35874">
        <ele>270.8</ele>
        <time>2021-10-14T10:11:42Z</time>
      </trkpt>
      <trkpt lat="43.38818" lon="-0.35876">
        <ele>270.2</ele>
        <time>2021-10-14T10:11:43Z</time>
      </trkpt>
      <trkpt lat="43.38818" lon="-0.35879">
        <ele>270.1</ele>
        <time>2021-10-14T10:11:44Z</time>
      </trkpt>
      <trkpt lat="43.38817" lon="-0.35883">
        <ele>268.9</ele>
        <time>2021-10-14T10:11:46Z</time>
      </trkpt>
      <trkpt lat="43.38816" lon="-0.35891">
        <ele>268.1</ele>
        <time>2021-10-14T10:11:50Z</time>
      </trkpt>
      <trkpt lat="43.38817" lon="-0.35901">
        <ele>266.9</ele>
        <time>2021-10-14T10:11:54Z</time>
      </trkpt>
      <trkpt lat="43.38816" lon="-0.35903">
        <ele>266.9</ele>
        <time>2021-10-14T10:11:55Z</time>
      </trkpt>
      <trkpt lat="43.38815" lon="-0.35907">
        <ele>265.8</ele>
        <time>2021-10-14T10:11:57Z</time>
      </trkpt>
      <trkpt lat="43.38814" lon="-0.35911">
        <ele>266.3</ele>
        <time>2021-10-14T10:11:59Z</time>
      </trkpt>
      <trkpt lat="43.38813" lon="-0.35913">
        <ele>264.8</ele>
        <time>2021-10-14T10:12:00Z</time>
      </trkpt>
      <trkpt lat="43.3881" lon="-0.35918">
        <ele>264.2</ele>
        <time>2021-10-14T10:12:02Z</time>
      </trkpt>
      <trkpt lat="43.38809" lon="-0.3592">
        <ele>264.4</ele>
        <time>2021-10-14T10:12:03Z</time>
      </trkpt>
      <trkpt lat="43.38808" lon="-0.35922">
        <ele>263.6</ele>
        <time>2021-10-14T10:12:04Z</time>
      </trkpt>
      <trkpt lat="43.38809" lon="-0.35922">
        <ele>263.2</ele>
        <time>2021-10-14T10:12:05Z</time>
      </trkpt>
      <trkpt lat="43.38796" lon="-0.35947">
        <ele>260.6</ele>
        <time>2021-10-14T10:12:15Z</time>
      </trkpt>
      <trkpt lat="43.38796" lon="-0.35949">
        <ele>259.1</ele>
        <time>2021-10-14T10:12:16Z</time>
      </trkpt>
      <trkpt lat="43.38796" lon="-0.35961">
        <ele>257.1</ele>
        <time>2021-10-14T10:12:21Z</time>
      </trkpt>
      <trkpt lat="43.38796" lon="-0.3596">
        <ele>257.3</ele>
        <time>2021-10-14T10:12:22Z</time>
      </trkpt>
      <trkpt lat="43.38795" lon="-0.35963">
        <ele>255.8</ele>
        <time>2021-10-14T10:12:23Z</time>
      </trkpt>
      <trkpt lat="43.38794" lon="-0.35966">
        <ele>254.9</ele>
        <time>2021-10-14T10:12:24Z</time>
      </trkpt>
      <trkpt lat="43.38793" lon="-0.35969">
        <ele>255.6</ele>
        <time>2021-10-14T10:12:25Z</time>
      </trkpt>
      <trkpt lat="43.38791" lon="-0.35971">
        <ele>255.3</ele>
        <time>2021-10-14T10:12:26Z</time>
      </trkpt>
      <trkpt lat="43.38775" lon="-0.35979">
        <ele>252.7</ele>
        <time>2021-10-14T10:12:31Z</time>
      </trkpt>
      <trkpt lat="43.38719" lon="-0.36017">
        <ele>243.3</ele>
        <time>2021-10-14T10:12:48Z</time>
      </trkpt>
      <trkpt lat="43.38701" lon="-0.36037">
        <ele>242.4</ele>
        <time>2021-10-14T10:12:54Z</time>
      </trkpt>
      <trkpt lat="43.38701" lon="-0.3604">
        <ele>241.4</ele>
        <time>2021-10-14T10:12:55Z</time>
      </trkpt>
      <trkpt lat="43.38698" lon="-0.36044">
        <ele>240.4</ele>
        <time>2021-10-14T10:12:56Z</time>
      </trkpt>
      <trkpt lat="43.38616" lon="-0.36114">
        <ele>226.1</ele>
        <time>2021-10-14T10:13:19Z</time>
      </trkpt>
      <trkpt lat="43.38616" lon="-0.36117">
        <ele>225.8</ele>
        <time>2021-10-14T10:13:20Z</time>
      </trkpt>
      <trkpt lat="43.38556" lon="-0.36156">
        <ele>221.9</ele>
        <time>2021-10-14T10:13:38Z</time>
      </trkpt>
      <trkpt lat="43.38551" lon="-0.36158">
        <ele>222.5</ele>
        <time>2021-10-14T10:13:40Z</time>
      </trkpt>
      <trkpt lat="43.38546" lon="-0.3616">
        <ele>222</ele>
        <time>2021-10-14T10:13:42Z</time>
      </trkpt>
      <trkpt lat="43.38544" lon="-0.36161">
        <ele>222.6</ele>
        <time>2021-10-14T10:13:43Z</time>
      </trkpt>
      <trkpt lat="43.38543" lon="-0.36163">
        <ele>221.8</ele>
        <time>2021-10-14T10:13:44Z</time>
      </trkpt>
      <trkpt lat="43.38544" lon="-0.36164">
        <ele>221.6</ele>
        <time>2021-10-14T10:13:45Z</time>
      </trkpt>
      <trkpt lat="43.38545" lon="-0.36167">
        <ele>222.2</ele>
        <time>2021-10-14T10:13:46Z</time>
      </trkpt>
      <trkpt lat="43.38546" lon="-0.36167">
        <ele>222.6</ele>
        <time>2021-10-14T10:13:47Z</time>
      </trkpt>
      <trkpt lat="43.38547" lon="-0.36168">
        <ele>222.7</ele>
        <time>2021-10-14T10:13:48Z</time>
      </trkpt>
      <trkpt lat="43.38548" lon="-0.36167">
        <ele>223.1</ele>
        <time>2021-10-14T10:13:49Z</time>
      </trkpt>
      <trkpt lat="43.3855" lon="-0.36168">
        <ele>223.3</ele>
        <time>2021-10-14T10:13:50Z</time>
      </trkpt>
      <trkpt lat="43.38551" lon="-0.36169">
        <ele>224.9</ele>
        <time>2021-10-14T10:13:51Z</time>
      </trkpt>
      <trkpt lat="43.38552" lon="-0.3617">
        <ele>224</ele>
        <time>2021-10-14T10:13:52Z</time>
      </trkpt>
      <trkpt lat="43.38557" lon="-0.36174">
        <ele>223.2</ele>
        <time>2021-10-14T10:13:54Z</time>
      </trkpt>
      <trkpt lat="43.3856" lon="-0.36177">
        <ele>222.5</ele>
        <time>2021-10-14T10:13:55Z</time>
      </trkpt>
      <trkpt lat="43.38564" lon="-0.36182">
        <ele>220.8</ele>
        <time>2021-10-14T10:13:56Z</time>
      </trkpt>
      <trkpt lat="43.38566" lon="-0.36188">
        <ele>219</ele>
        <time>2021-10-14T10:13:57Z</time>
      </trkpt>
      <trkpt lat="43.38566" lon="-0.36194">
        <ele>219.8</ele>
        <time>2021-10-14T10:13:58Z</time>
      </trkpt>
      <trkpt lat="43.38566" lon="-0.36199">
        <ele>218.7</ele>
        <time>2021-10-14T10:13:59Z</time>
      </trkpt>
      <trkpt lat="43.38565" lon="-0.36201">
        <ele>219.1</ele>
        <time>2021-10-14T10:14:00Z</time>
      </trkpt>
      <trkpt lat="43.38562" lon="-0.36202">
        <ele>218.3</ele>
        <time>2021-10-14T10:14:01Z</time>
      </trkpt>
      <trkpt lat="43.3856" lon="-0.36203">
        <ele>217.5</ele>
        <time>2021-10-14T10:14:02Z</time>
      </trkpt>
      <trkpt lat="43.38558" lon="-0.36205">
        <ele>217.7</ele>
        <time>2021-10-14T10:14:03Z</time>
      </trkpt>
      <trkpt lat="43.38557" lon="-0.36207">
        <ele>218.1</ele>
        <time>2021-10-14T10:14:04Z</time>
      </trkpt>
      <trkpt lat="43.38553" lon="-0.36212">
        <ele>217.4</ele>
        <time>2021-10-14T10:14:06Z</time>
      </trkpt>
      <trkpt lat="43.38549" lon="-0.36219">
        <ele>216.8</ele>
        <time>2021-10-14T10:14:09Z</time>
      </trkpt>
      <trkpt lat="43.38549" lon="-0.36218">
        <ele>217</ele>
        <time>2021-10-14T10:14:10Z</time>
      </trkpt>
      <trkpt lat="43.38541" lon="-0.36227">
        <ele>216.5</ele>
        <time>2021-10-14T10:14:14Z</time>
      </trkpt>
      <trkpt lat="43.38539" lon="-0.36229">
        <ele>217.5</ele>
        <time>2021-10-14T10:14:15Z</time>
      </trkpt>
      <trkpt lat="43.38529" lon="-0.36235">
        <ele>217.9</ele>
        <time>2021-10-14T10:14:20Z</time>
      </trkpt>
      <trkpt lat="43.38525" lon="-0.36236">
        <ele>219.4</ele>
        <time>2021-10-14T10:14:22Z</time>
      </trkpt>
      <trkpt lat="43.38523" lon="-0.36237">
        <ele>219</ele>
        <time>2021-10-14T10:14:23Z</time>
      </trkpt>
      <trkpt lat="43.38521" lon="-0.36238">
        <ele>219.1</ele>
        <time>2021-10-14T10:14:24Z</time>
      </trkpt>
      <trkpt lat="43.38514" lon="-0.36239">
        <ele>219.4</ele>
        <time>2021-10-14T10:14:29Z</time>
      </trkpt>
      <trkpt lat="43.38513" lon="-0.36239">
        <ele>218.5</ele>
        <time>2021-10-14T10:14:30Z</time>
      </trkpt>
      <trkpt lat="43.3851" lon="-0.36239">
        <ele>218.8</ele>
        <time>2021-10-14T10:14:32Z</time>
      </trkpt>
      <trkpt lat="43.38509" lon="-0.36239">
        <ele>218</ele>
        <time>2021-10-14T10:14:33Z</time>
      </trkpt>
      <trkpt lat="43.38508" lon="-0.36238">
        <ele>217.8</ele>
        <time>2021-10-14T10:14:34Z</time>
      </trkpt>
      <trkpt lat="43.38508" lon="-0.36239">
        <ele>219.2</ele>
        <time>2021-10-14T10:14:35Z</time>
      </trkpt>
      <trkpt lat="43.38503" lon="-0.36239">
        <ele>219.8</ele>
        <time>2021-10-14T10:14:38Z</time>
      </trkpt>
      <trkpt lat="43.385" lon="-0.36239">
        <ele>220</ele>
        <time>2021-10-14T10:14:39Z</time>
      </trkpt>
      <trkpt lat="43.38497" lon="-0.36239">
        <ele>219.9</ele>
        <time>2021-10-14T10:14:40Z</time>
      </trkpt>
      <trkpt lat="43.38495" lon="-0.36239">
        <ele>220</ele>
        <time>2021-10-14T10:14:41Z</time>
      </trkpt>
      <trkpt lat="43.38493" lon="-0.36241">
        <ele>220.2</ele>
        <time>2021-10-14T10:14:42Z</time>
      </trkpt>
      <trkpt lat="43.3849" lon="-0.36244">
        <ele>219.7</ele>
        <time>2021-10-14T10:14:44Z</time>
      </trkpt>
      <trkpt lat="43.38489" lon="-0.36245">
        <ele>219.3</ele>
        <time>2021-10-14T10:14:45Z</time>
      </trkpt>
      <trkpt lat="43.38486" lon="-0.36245">
        <ele>219.3</ele>
        <time>2021-10-14T10:14:47Z</time>
      </trkpt>
      <trkpt lat="43.38485" lon="-0.36245">
        <ele>218.8</ele>
        <time>2021-10-14T10:14:48Z</time>
      </trkpt>
      <trkpt lat="43.38483" lon="-0.36245">
        <ele>218.6</ele>
        <time>2021-10-14T10:14:50Z</time>
      </trkpt>
      <trkpt lat="43.38473" lon="-0.36245">
        <ele>217.9</ele>
        <time>2021-10-14T10:14:55Z</time>
      </trkpt>
      <trkpt lat="43.3847" lon="-0.36245">
        <ele>218.2</ele>
        <time>2021-10-14T10:14:56Z</time>
      </trkpt>
      <trkpt lat="43.38467" lon="-0.36246">
        <ele>218.1</ele>
        <time>2021-10-14T10:14:57Z</time>
      </trkpt>
      <trkpt lat="43.38463" lon="-0.36247">
        <ele>218.3</ele>
        <time>2021-10-14T10:14:58Z</time>
      </trkpt>
      <trkpt lat="43.38461" lon="-0.36249">
        <ele>217.8</ele>
        <time>2021-10-14T10:14:59Z</time>
      </trkpt>
      <trkpt lat="43.38458" lon="-0.3625">
        <ele>219.1</ele>
        <time>2021-10-14T10:15:00Z</time>
      </trkpt>
      <trkpt lat="43.38457" lon="-0.36254">
        <ele>219.4</ele>
        <time>2021-10-14T10:15:01Z</time>
      </trkpt>
      <trkpt lat="43.38456" lon="-0.36262">
        <ele>219</ele>
        <time>2021-10-14T10:15:03Z</time>
      </trkpt>
      <trkpt lat="43.38455" lon="-0.36265">
        <ele>219.2</ele>
        <time>2021-10-14T10:15:04Z</time>
      </trkpt>
      <trkpt lat="43.38454" lon="-0.36268">
        <ele>219</ele>
        <time>2021-10-14T10:15:05Z</time>
      </trkpt>
      <trkpt lat="43.38453" lon="-0.3627">
        <ele>219.9</ele>
        <time>2021-10-14T10:15:06Z</time>
      </trkpt>
      <trkpt lat="43.38451" lon="-0.36272">
        <ele>220.5</ele>
        <time>2021-10-14T10:15:07Z</time>
      </trkpt>
      <trkpt lat="43.38449" lon="-0.36274">
        <ele>219.8</ele>
        <time>2021-10-14T10:15:08Z</time>
      </trkpt>
      <trkpt lat="43.38447" lon="-0.36275">
        <ele>219.3</ele>
        <time>2021-10-14T10:15:09Z</time>
      </trkpt>
      <trkpt lat="43.38444" lon="-0.36276">
        <ele>219.4</ele>
        <time>2021-10-14T10:15:10Z</time>
      </trkpt>
      <trkpt lat="43.38442" lon="-0.36276">
        <ele>220.5</ele>
        <time>2021-10-14T10:15:11Z</time>
      </trkpt>
      <trkpt lat="43.3844" lon="-0.36276">
        <ele>219.8</ele>
        <time>2021-10-14T10:15:12Z</time>
      </trkpt>
      <trkpt lat="43.38438" lon="-0.36277">
        <ele>220.1</ele>
        <time>2021-10-14T10:15:13Z</time>
      </trkpt>
      <trkpt lat="43.38434" lon="-0.36278">
        <ele>219.7</ele>
        <time>2021-10-14T10:15:15Z</time>
      </trkpt>
      <trkpt lat="43.38431" lon="-0.36277">
        <ele>220</ele>
        <time>2021-10-14T10:15:16Z</time>
      </trkpt>
      <trkpt lat="43.38427" lon="-0.36275">
        <ele>220.1</ele>
        <time>2021-10-14T10:15:17Z</time>
      </trkpt>
      <trkpt lat="43.3842" lon="-0.36269">
        <ele>220.5</ele>
        <time>2021-10-14T10:15:19Z</time>
      </trkpt>
      <trkpt lat="43.38417" lon="-0.36266">
        <ele>219.8</ele>
        <time>2021-10-14T10:15:20Z</time>
      </trkpt>
      <trkpt lat="43.38414" lon="-0.36265">
        <ele>220.2</ele>
        <time>2021-10-14T10:15:21Z</time>
      </trkpt>
      <trkpt lat="43.38411" lon="-0.36265">
        <ele>219.1</ele>
        <time>2021-10-14T10:15:22Z</time>
      </trkpt>
      <trkpt lat="43.38406" lon="-0.36265">
        <ele>217.9</ele>
        <time>2021-10-14T10:15:24Z</time>
      </trkpt>
      <trkpt lat="43.38404" lon="-0.36267">
        <ele>217.3</ele>
        <time>2021-10-14T10:15:25Z</time>
      </trkpt>
      <trkpt lat="43.38397" lon="-0.36267">
        <ele>216.2</ele>
        <time>2021-10-14T10:15:28Z</time>
      </trkpt>
      <trkpt lat="43.38394" lon="-0.36267">
        <ele>215</ele>
        <time>2021-10-14T10:15:29Z</time>
      </trkpt>
      <trkpt lat="43.38389" lon="-0.36267">
        <ele>214.1</ele>
        <time>2021-10-14T10:15:31Z</time>
      </trkpt>
      <trkpt lat="43.38381" lon="-0.36269">
        <ele>212.8</ele>
        <time>2021-10-14T10:15:34Z</time>
      </trkpt>
      <trkpt lat="43.38378" lon="-0.36269">
        <ele>212.9</ele>
        <time>2021-10-14T10:15:35Z</time>
      </trkpt>
      <trkpt lat="43.38376" lon="-0.36266">
        <ele>213.2</ele>
        <time>2021-10-14T10:15:36Z</time>
      </trkpt>
      <trkpt lat="43.38374" lon="-0.36263">
        <ele>213.5</ele>
        <time>2021-10-14T10:15:37Z</time>
      </trkpt>
      <trkpt lat="43.38373" lon="-0.36258">
        <ele>212.1</ele>
        <time>2021-10-14T10:15:38Z</time>
      </trkpt>
      <trkpt lat="43.3837" lon="-0.36241">
        <ele>210.9</ele>
        <time>2021-10-14T10:15:42Z</time>
      </trkpt>
      <trkpt lat="43.38369" lon="-0.36236">
        <ele>210</ele>
        <time>2021-10-14T10:15:43Z</time>
      </trkpt>
      <trkpt lat="43.38365" lon="-0.36227">
        <ele>208.9</ele>
        <time>2021-10-14T10:15:45Z</time>
      </trkpt>
      <trkpt lat="43.38359" lon="-0.36214">
        <ele>209</ele>
        <time>2021-10-14T10:15:49Z</time>
      </trkpt>
      <trkpt lat="43.38358" lon="-0.36216">
        <ele>209.1</ele>
        <time>2021-10-14T10:15:50Z</time>
      </trkpt>
      <trkpt lat="43.38357" lon="-0.36214">
        <ele>209.5</ele>
        <time>2021-10-14T10:15:51Z</time>
      </trkpt>
      <trkpt lat="43.38358" lon="-0.36213">
        <ele>208.9</ele>
        <time>2021-10-14T10:15:53Z</time>
      </trkpt>
      <trkpt lat="43.38358" lon="-0.36213">
        <ele>208.8</ele>
        <time>2021-10-14T10:15:55Z</time>
      </trkpt>
      <trkpt lat="43.38358" lon="-0.36213">
        <ele>209.1</ele>
        <time>2021-10-14T10:15:59Z</time>
      </trkpt>
      <trkpt lat="43.38358" lon="-0.36213">
        <ele>208.8</ele>
        <time>2021-10-14T10:16:24Z</time>
      </trkpt>
      <trkpt lat="43.38358" lon="-0.36213">
        <ele>208.7</ele>
        <time>2021-10-14T10:16:25Z</time>
      </trkpt>
      <trkpt lat="43.38358" lon="-0.36213">
        <ele>208.9</ele>
        <time>2021-10-14T10:16:26Z</time>
      </trkpt>
      <trkpt lat="43.38359" lon="-0.36214">
        <ele>209.7</ele>
        <time>2021-10-14T10:16:27Z</time>
      </trkpt>
      <trkpt lat="43.38359" lon="-0.36214">
        <ele>208.9</ele>
        <time>2021-10-14T10:16:28Z</time>
      </trkpt>
      <trkpt lat="43.38359" lon="-0.36214">
        <ele>208.9</ele>
        <time>2021-10-14T10:16:31Z</time>
      </trkpt>
      <trkpt lat="43.38359" lon="-0.36214">
        <ele>209.6</ele>
        <time>2021-10-14T10:17:42Z</time>
      </trkpt>
      <trkpt lat="43.3836" lon="-0.36212">
        <ele>209.1</ele>
        <time>2021-10-14T10:17:43Z</time>
      </trkpt>
      <trkpt lat="43.3836" lon="-0.3621">
        <ele>209.3</ele>
        <time>2021-10-14T10:17:44Z</time>
      </trkpt>
      <trkpt lat="43.3836" lon="-0.36208">
        <ele>208.9</ele>
        <time>2021-10-14T10:17:45Z</time>
      </trkpt>
      <trkpt lat="43.38359" lon="-0.36206">
        <ele>209</ele>
        <time>2021-10-14T10:17:46Z</time>
      </trkpt>
      <trkpt lat="43.38358" lon="-0.36204">
        <ele>208.9</ele>
        <time>2021-10-14T10:17:47Z</time>
      </trkpt>
      <trkpt lat="43.38355" lon="-0.36203">
        <ele>209.2</ele>
        <time>2021-10-14T10:17:48Z</time>
      </trkpt>
      <trkpt lat="43.38353" lon="-0.36202">
        <ele>208.9</ele>
        <time>2021-10-14T10:17:49Z</time>
      </trkpt>
      <trkpt lat="43.3835" lon="-0.36202">
        <ele>209.1</ele>
        <time>2021-10-14T10:17:50Z</time>
      </trkpt>
      <trkpt lat="43.3834" lon="-0.36207">
        <ele>208.5</ele>
        <time>2021-10-14T10:17:54Z</time>
      </trkpt>
      <trkpt lat="43.38338" lon="-0.36208">
        <ele>209.7</ele>
        <time>2021-10-14T10:17:55Z</time>
      </trkpt>
      <trkpt lat="43.38335" lon="-0.36208">
        <ele>207.7</ele>
        <time>2021-10-14T10:17:56Z</time>
      </trkpt>
      <trkpt lat="43.38333" lon="-0.36205">
        <ele>208</ele>
        <time>2021-10-14T10:17:57Z</time>
      </trkpt>
      <trkpt lat="43.38331" lon="-0.36202">
        <ele>208.6</ele>
        <time>2021-10-14T10:17:58Z</time>
      </trkpt>
      <trkpt lat="43.3833" lon="-0.36198">
        <ele>209.2</ele>
        <time>2021-10-14T10:17:59Z</time>
      </trkpt>
      <trkpt lat="43.38329" lon="-0.36189">
        <ele>210.3</ele>
        <time>2021-10-14T10:18:01Z</time>
      </trkpt>
      <trkpt lat="43.38323" lon="-0.36169">
        <ele>210.9</ele>
        <time>2021-10-14T10:18:06Z</time>
      </trkpt>
      <trkpt lat="43.38322" lon="-0.36167">
        <ele>210.7</ele>
        <time>2021-10-14T10:18:07Z</time>
      </trkpt>
      <trkpt lat="43.3832" lon="-0.36167">
        <ele>210.9</ele>
        <time>2021-10-14T10:18:08Z</time>
      </trkpt>
      <trkpt lat="43.38316" lon="-0.36167">
        <ele>210</ele>
        <time>2021-10-14T10:18:10Z</time>
      </trkpt>
      <trkpt lat="43.38311" lon="-0.36167">
        <ele>210</ele>
        <time>2021-10-14T10:18:12Z</time>
      </trkpt>
      <trkpt lat="43.383" lon="-0.36168">
        <ele>208.8</ele>
        <time>2021-10-14T10:18:16Z</time>
      </trkpt>
      <trkpt lat="43.38294" lon="-0.36171">
        <ele>208.6</ele>
        <time>2021-10-14T10:18:18Z</time>
      </trkpt>
      <trkpt lat="43.3829" lon="-0.36172">
        <ele>207.8</ele>
        <time>2021-10-14T10:18:19Z</time>
      </trkpt>
      <trkpt lat="43.3829" lon="-0.36174">
        <ele>206.5</ele>
        <time>2021-10-14T10:18:20Z</time>
      </trkpt>
      <trkpt lat="43.38289" lon="-0.36175">
        <ele>207.9</ele>
        <time>2021-10-14T10:18:21Z</time>
      </trkpt>
      <trkpt lat="43.38279" lon="-0.3618">
        <ele>208</ele>
        <time>2021-10-14T10:18:23Z</time>
      </trkpt>
      <trkpt lat="43.38268" lon="-0.36187">
        <ele>208.1</ele>
        <time>2021-10-14T10:18:25Z</time>
      </trkpt>
      <trkpt lat="43.38264" lon="-0.3619">
        <ele>208.5</ele>
        <time>2021-10-14T10:18:26Z</time>
      </trkpt>
      <trkpt lat="43.38254" lon="-0.36199">
        <ele>206.4</ele>
        <time>2021-10-14T10:18:29Z</time>
      </trkpt>
      <trkpt lat="43.38251" lon="-0.36204">
        <ele>205.8</ele>
        <time>2021-10-14T10:18:30Z</time>
      </trkpt>
      <trkpt lat="43.38233" lon="-0.36233">
        <ele>204.8</ele>
        <time>2021-10-14T10:18:35Z</time>
      </trkpt>
      <trkpt lat="43.38227" lon="-0.36247">
        <ele>206.2</ele>
        <time>2021-10-14T10:18:37Z</time>
      </trkpt>
      <trkpt lat="43.38225" lon="-0.36255">
        <ele>204.9</ele>
        <time>2021-10-14T10:18:38Z</time>
      </trkpt>
      <trkpt lat="43.3822" lon="-0.36286">
        <ele>205.2</ele>
        <time>2021-10-14T10:18:42Z</time>
      </trkpt>
      <trkpt lat="43.38218" lon="-0.36293">
        <ele>204</ele>
        <time>2021-10-14T10:18:43Z</time>
      </trkpt>
      <trkpt lat="43.38216" lon="-0.36299">
        <ele>204.3</ele>
        <time>2021-10-14T10:18:44Z</time>
      </trkpt>
      <trkpt lat="43.38214" lon="-0.36306">
        <ele>203.9</ele>
        <time>2021-10-14T10:18:45Z</time>
      </trkpt>
      <trkpt lat="43.38211" lon="-0.36313">
        <ele>204.4</ele>
        <time>2021-10-14T10:18:46Z</time>
      </trkpt>
      <trkpt lat="43.38208" lon="-0.36318">
        <ele>203.5</ele>
        <time>2021-10-14T10:18:47Z</time>
      </trkpt>
      <trkpt lat="43.38205" lon="-0.36323">
        <ele>204.6</ele>
        <time>2021-10-14T10:18:48Z</time>
      </trkpt>
      <trkpt lat="43.38194" lon="-0.36336">
        <ele>204.1</ele>
        <time>2021-10-14T10:18:51Z</time>
      </trkpt>
      <trkpt lat="43.3819" lon="-0.3634">
        <ele>204.2</ele>
        <time>2021-10-14T10:18:52Z</time>
      </trkpt>
      <trkpt lat="43.38147" lon="-0.36371">
        <ele>200.9</ele>
        <time>2021-10-14T10:19:03Z</time>
      </trkpt>
      <trkpt lat="43.38135" lon="-0.36378">
        <ele>200.6</ele>
        <time>2021-10-14T10:19:06Z</time>
      </trkpt>
      <trkpt lat="43.38127" lon="-0.36385">
        <ele>201.2</ele>
        <time>2021-10-14T10:19:08Z</time>
      </trkpt>
      <trkpt lat="43.38123" lon="-0.36387">
        <ele>201</ele>
        <time>2021-10-14T10:19:09Z</time>
      </trkpt>
      <trkpt lat="43.38118" lon="-0.36387">
        <ele>200.2</ele>
        <time>2021-10-14T10:19:10Z</time>
      </trkpt>
      <trkpt lat="43.38114" lon="-0.36386">
        <ele>200.1</ele>
        <time>2021-10-14T10:19:11Z</time>
      </trkpt>
      <trkpt lat="43.3811" lon="-0.36387">
        <ele>200.1</ele>
        <time>2021-10-14T10:19:12Z</time>
      </trkpt>
      <trkpt lat="43.38106" lon="-0.36388">
        <ele>200.1</ele>
        <time>2021-10-14T10:19:13Z</time>
      </trkpt>
      <trkpt lat="43.38102" lon="-0.3639">
        <ele>199.9</ele>
        <time>2021-10-14T10:19:14Z</time>
      </trkpt>
      <trkpt lat="43.38082" lon="-0.3641">
        <ele>200.7</ele>
        <time>2021-10-14T10:19:20Z</time>
      </trkpt>
      <trkpt lat="43.38069" lon="-0.36429">
        <ele>200.5</ele>
        <time>2021-10-14T10:19:25Z</time>
      </trkpt>
      <trkpt lat="43.38068" lon="-0.36432">
        <ele>199.9</ele>
        <time>2021-10-14T10:19:26Z</time>
      </trkpt>
      <trkpt lat="43.38068" lon="-0.36435">
        <ele>199.9</ele>
        <time>2021-10-14T10:19:27Z</time>
      </trkpt>
      <trkpt lat="43.38067" lon="-0.36438">
        <ele>198.8</ele>
        <time>2021-10-14T10:19:28Z</time>
      </trkpt>
      <trkpt lat="43.38067" lon="-0.36442">
        <ele>200.3</ele>
        <time>2021-10-14T10:19:29Z</time>
      </trkpt>
      <trkpt lat="43.3807" lon="-0.36453">
        <ele>198.9</ele>
        <time>2021-10-14T10:19:31Z</time>
      </trkpt>
      <trkpt lat="43.38071" lon="-0.36457">
        <ele>198.9</ele>
        <time>2021-10-14T10:19:32Z</time>
      </trkpt>
      <trkpt lat="43.38069" lon="-0.3646">
        <ele>199</ele>
        <time>2021-10-14T10:19:33Z</time>
      </trkpt>
      <trkpt lat="43.38063" lon="-0.36464">
        <ele>199.4</ele>
        <time>2021-10-14T10:19:35Z</time>
      </trkpt>
      <trkpt lat="43.38057" lon="-0.3647">
        <ele>198.5</ele>
        <time>2021-10-14T10:19:37Z</time>
      </trkpt>
      <trkpt lat="43.38046" lon="-0.36483">
        <ele>198</ele>
        <time>2021-10-14T10:19:40Z</time>
      </trkpt>
      <trkpt lat="43.38033" lon="-0.36496">
        <ele>197</ele>
        <time>2021-10-14T10:19:43Z</time>
      </trkpt>
      <trkpt lat="43.3797" lon="-0.36586">
        <ele>194.4</ele>
        <time>2021-10-14T10:19:57Z</time>
      </trkpt>
      <trkpt lat="43.37907" lon="-0.36678">
        <ele>194.3</ele>
        <time>2021-10-14T10:20:12Z</time>
      </trkpt>
      <trkpt lat="43.379" lon="-0.36689">
        <ele>194.3</ele>
        <time>2021-10-14T10:20:14Z</time>
      </trkpt>
      <trkpt lat="43.37892" lon="-0.36698">
        <ele>193.9</ele>
        <time>2021-10-14T10:20:16Z</time>
      </trkpt>
      <trkpt lat="43.37889" lon="-0.36703">
        <ele>192.9</ele>
        <time>2021-10-14T10:20:17Z</time>
      </trkpt>
      <trkpt lat="43.37876" lon="-0.36725">
        <ele>192.9</ele>
        <time>2021-10-14T10:20:21Z</time>
      </trkpt>
      <trkpt lat="43.37872" lon="-0.36729">
        <ele>193.1</ele>
        <time>2021-10-14T10:20:22Z</time>
      </trkpt>
      <trkpt lat="43.37869" lon="-0.36733">
        <ele>192.9</ele>
        <time>2021-10-14T10:20:23Z</time>
      </trkpt>
      <trkpt lat="43.37865" lon="-0.36737">
        <ele>193.2</ele>
        <time>2021-10-14T10:20:24Z</time>
      </trkpt>
      <trkpt lat="43.37862" lon="-0.36741">
        <ele>193.1</ele>
        <time>2021-10-14T10:20:25Z</time>
      </trkpt>
      <trkpt lat="43.37858" lon="-0.36752">
        <ele>193.1</ele>
        <time>2021-10-14T10:20:28Z</time>
      </trkpt>
      <trkpt lat="43.37857" lon="-0.36755">
        <ele>193.4</ele>
        <time>2021-10-14T10:20:29Z</time>
      </trkpt>
      <trkpt lat="43.37857" lon="-0.36758">
        <ele>193.5</ele>
        <time>2021-10-14T10:20:30Z</time>
      </trkpt>
      <trkpt lat="43.37858" lon="-0.36761">
        <ele>193</ele>
        <time>2021-10-14T10:20:31Z</time>
      </trkpt>
      <trkpt lat="43.37859" lon="-0.36762">
        <ele>193.1</ele>
        <time>2021-10-14T10:20:32Z</time>
      </trkpt>
      <trkpt lat="43.3786" lon="-0.36767">
        <ele>192.9</ele>
        <time>2021-10-14T10:20:34Z</time>
      </trkpt>
      <trkpt lat="43.37861" lon="-0.36769">
        <ele>192.9</ele>
        <time>2021-10-14T10:20:35Z</time>
      </trkpt>
      <trkpt lat="43.37862" lon="-0.36771">
        <ele>193</ele>
        <time>2021-10-14T10:20:36Z</time>
      </trkpt>
      <trkpt lat="43.37863" lon="-0.36773">
        <ele>193</ele>
        <time>2021-10-14T10:20:37Z</time>
      </trkpt>
      <trkpt lat="43.37864" lon="-0.36775">
        <ele>192.8</ele>
        <time>2021-10-14T10:20:38Z</time>
      </trkpt>
      <trkpt lat="43.37865" lon="-0.36777">
        <ele>193</ele>
        <time>2021-10-14T10:20:39Z</time>
      </trkpt>
      <trkpt lat="43.37867" lon="-0.36783">
        <ele>193.3</ele>
        <time>2021-10-14T10:20:41Z</time>
      </trkpt>
      <trkpt lat="43.37901" lon="-0.36903">
        <ele>193</ele>
        <time>2021-10-14T10:21:06Z</time>
      </trkpt>
      <trkpt lat="43.37915" lon="-0.36948">
        <ele>192</ele>
        <time>2021-10-14T10:21:14Z</time>
      </trkpt>
      <trkpt lat="43.37918" lon="-0.36951">
        <ele>192</ele>
        <time>2021-10-14T10:21:15Z</time>
      </trkpt>
      <trkpt lat="43.37919" lon="-0.36956">
        <ele>192.1</ele>
        <time>2021-10-14T10:21:16Z</time>
      </trkpt>
      <trkpt lat="43.3792" lon="-0.36968">
        <ele>191.9</ele>
        <time>2021-10-14T10:21:18Z</time>
      </trkpt>
      <trkpt lat="43.3792" lon="-0.36974">
        <ele>192.1</ele>
        <time>2021-10-14T10:21:19Z</time>
      </trkpt>
      <trkpt lat="43.37921" lon="-0.3698">
        <ele>192.1</ele>
        <time>2021-10-14T10:21:20Z</time>
      </trkpt>
      <trkpt lat="43.37923" lon="-0.36991">
        <ele>193</ele>
        <time>2021-10-14T10:21:22Z</time>
      </trkpt>
      <trkpt lat="43.37926" lon="-0.37002">
        <ele>192.2</ele>
        <time>2021-10-14T10:21:24Z</time>
      </trkpt>
      <trkpt lat="43.37927" lon="-0.37007">
        <ele>192</ele>
        <time>2021-10-14T10:21:25Z</time>
      </trkpt>
      <trkpt lat="43.37927" lon="-0.37013">
        <ele>192.1</ele>
        <time>2021-10-14T10:21:26Z</time>
      </trkpt>
      <trkpt lat="43.37919" lon="-0.37063">
        <ele>194.3</ele>
        <time>2021-10-14T10:21:37Z</time>
      </trkpt>
      <trkpt lat="43.3792" lon="-0.37065">
        <ele>194</ele>
        <time>2021-10-14T10:21:38Z</time>
      </trkpt>
      <trkpt lat="43.37919" lon="-0.37067">
        <ele>193.9</ele>
        <time>2021-10-14T10:21:39Z</time>
      </trkpt>
      <trkpt lat="43.37919" lon="-0.37068">
        <ele>194.9</ele>
        <time>2021-10-14T10:21:40Z</time>
      </trkpt>
      <trkpt lat="43.37918" lon="-0.37071">
        <ele>195.2</ele>
        <time>2021-10-14T10:21:42Z</time>
      </trkpt>
      <trkpt lat="43.37916" lon="-0.37073">
        <ele>194.4</ele>
        <time>2021-10-14T10:21:43Z</time>
      </trkpt>
      <trkpt lat="43.37913" lon="-0.37073">
        <ele>194.4</ele>
        <time>2021-10-14T10:21:44Z</time>
      </trkpt>
      <trkpt lat="43.37909" lon="-0.37072">
        <ele>193.7</ele>
        <time>2021-10-14T10:21:45Z</time>
      </trkpt>
      <trkpt lat="43.37895" lon="-0.3707">
        <ele>193.1</ele>
        <time>2021-10-14T10:21:49Z</time>
      </trkpt>
      <trkpt lat="43.37871" lon="-0.37072">
        <ele>191.5</ele>
        <time>2021-10-14T10:21:55Z</time>
      </trkpt>
      <trkpt lat="43.37866" lon="-0.37072">
        <ele>191.7</ele>
        <time>2021-10-14T10:21:56Z</time>
      </trkpt>
      <trkpt lat="43.37851" lon="-0.37073">
        <ele>193.1</ele>
        <time>2021-10-14T10:22:00Z</time>
      </trkpt>
      <trkpt lat="43.37848" lon="-0.37073">
        <ele>193.3</ele>
        <time>2021-10-14T10:22:01Z</time>
      </trkpt>
      <trkpt lat="43.37846" lon="-0.37075">
        <ele>191.7</ele>
        <time>2021-10-14T10:22:02Z</time>
      </trkpt>
      <trkpt lat="43.37844" lon="-0.37078">
        <ele>193.4</ele>
        <time>2021-10-14T10:22:03Z</time>
      </trkpt>
      <trkpt lat="43.37843" lon="-0.37082">
        <ele>192</ele>
        <time>2021-10-14T10:22:04Z</time>
      </trkpt>
      <trkpt lat="43.37845" lon="-0.37086">
        <ele>192.1</ele>
        <time>2021-10-14T10:22:05Z</time>
      </trkpt>
      <trkpt lat="43.37844" lon="-0.37091">
        <ele>192.1</ele>
        <time>2021-10-14T10:22:06Z</time>
      </trkpt>
      <trkpt lat="43.37842" lon="-0.37103">
        <ele>191.8</ele>
        <time>2021-10-14T10:22:08Z</time>
      </trkpt>
      <trkpt lat="43.3784" lon="-0.37115">
        <ele>193</ele>
        <time>2021-10-14T10:22:10Z</time>
      </trkpt>
      <trkpt lat="43.37838" lon="-0.37127">
        <ele>192</ele>
        <time>2021-10-14T10:22:12Z</time>
      </trkpt>
      <trkpt lat="43.37831" lon="-0.3718">
        <ele>193.4</ele>
        <time>2021-10-14T10:22:22Z</time>
      </trkpt>
      <trkpt lat="43.3783" lon="-0.37184">
        <ele>192.9</ele>
        <time>2021-10-14T10:22:23Z</time>
      </trkpt>
      <trkpt lat="43.37827" lon="-0.37188">
        <ele>193.1</ele>
        <time>2021-10-14T10:22:24Z</time>
      </trkpt>
      <trkpt lat="43.37825" lon="-0.37191">
        <ele>192.9</ele>
        <time>2021-10-14T10:22:25Z</time>
      </trkpt>
      <trkpt lat="43.37823" lon="-0.37193">
        <ele>193</ele>
        <time>2021-10-14T10:22:26Z</time>
      </trkpt>
      <trkpt lat="43.37815" lon="-0.37198">
        <ele>192.5</ele>
        <time>2021-10-14T10:22:29Z</time>
      </trkpt>
      <trkpt lat="43.37814" lon="-0.37196">
        <ele>192.7</ele>
        <time>2021-10-14T10:22:30Z</time>
      </trkpt>
      <trkpt lat="43.37804" lon="-0.37201">
        <ele>193.6</ele>
        <time>2021-10-14T10:22:33Z</time>
      </trkpt>
      <trkpt lat="43.37799" lon="-0.37206">
        <ele>191.8</ele>
        <time>2021-10-14T10:22:35Z</time>
      </trkpt>
      <trkpt lat="43.37796" lon="-0.37208">
        <ele>192.1</ele>
        <time>2021-10-14T10:22:36Z</time>
      </trkpt>
      <trkpt lat="43.37794" lon="-0.37211">
        <ele>192.2</ele>
        <time>2021-10-14T10:22:37Z</time>
      </trkpt>
      <trkpt lat="43.37792" lon="-0.37214">
        <ele>192.1</ele>
        <time>2021-10-14T10:22:38Z</time>
      </trkpt>
      <trkpt lat="43.37789" lon="-0.37217">
        <ele>192</ele>
        <time>2021-10-14T10:22:39Z</time>
      </trkpt>
      <trkpt lat="43.37787" lon="-0.37219">
        <ele>191.3</ele>
        <time>2021-10-14T10:22:40Z</time>
      </trkpt>
      <trkpt lat="43.37781" lon="-0.37219">
        <ele>191.9</ele>
        <time>2021-10-14T10:22:42Z</time>
      </trkpt>
      <trkpt lat="43.37773" lon="-0.37221">
        <ele>190.7</ele>
        <time>2021-10-14T10:22:45Z</time>
      </trkpt>
      <trkpt lat="43.37756" lon="-0.37222">
        <ele>190.8</ele>
        <time>2021-10-14T10:22:50Z</time>
      </trkpt>
      <trkpt lat="43.37747" lon="-0.3722">
        <ele>191.1</ele>
        <time>2021-10-14T10:22:52Z</time>
      </trkpt>
      <trkpt lat="43.37738" lon="-0.37218">
        <ele>191</ele>
        <time>2021-10-14T10:22:54Z</time>
      </trkpt>
      <trkpt lat="43.37737" lon="-0.37215">
        <ele>191.2</ele>
        <time>2021-10-14T10:22:55Z</time>
      </trkpt>
      <trkpt lat="43.37734" lon="-0.37218">
        <ele>190.9</ele>
        <time>2021-10-14T10:22:56Z</time>
      </trkpt>
      <trkpt lat="43.37732" lon="-0.37223">
        <ele>191.2</ele>
        <time>2021-10-14T10:22:57Z</time>
      </trkpt>
      <trkpt lat="43.37732" lon="-0.37228">
        <ele>190.1</ele>
        <time>2021-10-14T10:22:58Z</time>
      </trkpt>
      <trkpt lat="43.37732" lon="-0.37234">
        <ele>190</ele>
        <time>2021-10-14T10:22:59Z</time>
      </trkpt>
      <trkpt lat="43.37729" lon="-0.37251">
        <ele>191.3</ele>
        <time>2021-10-14T10:23:02Z</time>
      </trkpt>
      <trkpt lat="43.37728" lon="-0.37256">
        <ele>191</ele>
        <time>2021-10-14T10:23:03Z</time>
      </trkpt>
      <trkpt lat="43.37726" lon="-0.3726">
        <ele>190.7</ele>
        <time>2021-10-14T10:23:04Z</time>
      </trkpt>
      <trkpt lat="43.37724" lon="-0.37263">
        <ele>190.9</ele>
        <time>2021-10-14T10:23:05Z</time>
      </trkpt>
      <trkpt lat="43.37718" lon="-0.37268">
        <ele>191.9</ele>
        <time>2021-10-14T10:23:07Z</time>
      </trkpt>
      <trkpt lat="43.37716" lon="-0.3727">
        <ele>191.7</ele>
        <time>2021-10-14T10:23:08Z</time>
      </trkpt>
      <trkpt lat="43.37714" lon="-0.37273">
        <ele>191.9</ele>
        <time>2021-10-14T10:23:09Z</time>
      </trkpt>
      <trkpt lat="43.37713" lon="-0.37275">
        <ele>192.1</ele>
        <time>2021-10-14T10:23:10Z</time>
      </trkpt>
      <trkpt lat="43.3771" lon="-0.37282">
        <ele>191.5</ele>
        <time>2021-10-14T10:23:12Z</time>
      </trkpt>
      <trkpt lat="43.37708" lon="-0.37285">
        <ele>192.1</ele>
        <time>2021-10-14T10:23:13Z</time>
      </trkpt>
      <trkpt lat="43.37706" lon="-0.37287">
        <ele>192.2</ele>
        <time>2021-10-14T10:23:14Z</time>
      </trkpt>
      <trkpt lat="43.37703" lon="-0.37289">
        <ele>191.8</ele>
        <time>2021-10-14T10:23:15Z</time>
      </trkpt>
      <trkpt lat="43.377" lon="-0.37291">
        <ele>192.3</ele>
        <time>2021-10-14T10:23:16Z</time>
      </trkpt>
      <trkpt lat="43.37699" lon="-0.37294">
        <ele>191.8</ele>
        <time>2021-10-14T10:23:17Z</time>
      </trkpt>
      <trkpt lat="43.37698" lon="-0.37297">
        <ele>192.4</ele>
        <time>2021-10-14T10:23:18Z</time>
      </trkpt>
      <trkpt lat="43.37698" lon="-0.373">
        <ele>191.9</ele>
        <time>2021-10-14T10:23:19Z</time>
      </trkpt>
      <trkpt lat="43.37698" lon="-0.37299">
        <ele>191.8</ele>
        <time>2021-10-14T10:23:20Z</time>
      </trkpt>
      <trkpt lat="43.37707" lon="-0.37312">
        <ele>193.8</ele>
        <time>2021-10-14T10:23:23Z</time>
      </trkpt>
      <trkpt lat="43.37712" lon="-0.37323">
        <ele>195.2</ele>
        <time>2021-10-14T10:23:24Z</time>
      </trkpt>
      <trkpt lat="43.37717" lon="-0.37331">
        <ele>195.3</ele>
        <time>2021-10-14T10:23:26Z</time>
      </trkpt>
      <trkpt lat="43.37719" lon="-0.37335">
        <ele>194.6</ele>
        <time>2021-10-14T10:23:27Z</time>
      </trkpt>
      <trkpt lat="43.37723" lon="-0.37338">
        <ele>195.5</ele>
        <time>2021-10-14T10:23:28Z</time>
      </trkpt>
      <trkpt lat="43.37727" lon="-0.37341">
        <ele>194.7</ele>
        <time>2021-10-14T10:23:29Z</time>
      </trkpt>
      <trkpt lat="43.37731" lon="-0.37344">
        <ele>194.5</ele>
        <time>2021-10-14T10:23:30Z</time>
      </trkpt>
      <trkpt lat="43.37735" lon="-0.37345">
        <ele>194.2</ele>
        <time>2021-10-14T10:23:31Z</time>
      </trkpt>
      <trkpt lat="43.37757" lon="-0.3735">
        <ele>193.8</ele>
        <time>2021-10-14T10:23:36Z</time>
      </trkpt>
      <trkpt lat="43.37773" lon="-0.37355">
        <ele>194.2</ele>
        <time>2021-10-14T10:23:40Z</time>
      </trkpt>
      <trkpt lat="43.37776" lon="-0.37357">
        <ele>194</ele>
        <time>2021-10-14T10:23:41Z</time>
      </trkpt>
      <trkpt lat="43.37785" lon="-0.37363">
        <ele>193.5</ele>
        <time>2021-10-14T10:23:44Z</time>
      </trkpt>
      <trkpt lat="43.37783" lon="-0.37365">
        <ele>194</ele>
        <time>2021-10-14T10:23:45Z</time>
      </trkpt>
      <trkpt lat="43.37785" lon="-0.37366">
        <ele>193.9</ele>
        <time>2021-10-14T10:23:46Z</time>
      </trkpt>
      <trkpt lat="43.37787" lon="-0.37366">
        <ele>194.1</ele>
        <time>2021-10-14T10:23:47Z</time>
      </trkpt>
      <trkpt lat="43.3779" lon="-0.37365">
        <ele>194.2</ele>
        <time>2021-10-14T10:23:48Z</time>
      </trkpt>
      <trkpt lat="43.37795" lon="-0.37362">
        <ele>193.6</ele>
        <time>2021-10-14T10:23:49Z</time>
      </trkpt>
      <trkpt lat="43.37798" lon="-0.3736">
        <ele>194.1</ele>
        <time>2021-10-14T10:23:50Z</time>
      </trkpt>
      <trkpt lat="43.37802" lon="-0.3736">
        <ele>193.8</ele>
        <time>2021-10-14T10:23:51Z</time>
      </trkpt>
      <trkpt lat="43.37807" lon="-0.37361">
        <ele>195.3</ele>
        <time>2021-10-14T10:23:52Z</time>
      </trkpt>
      <trkpt lat="43.37811" lon="-0.37363">
        <ele>194.2</ele>
        <time>2021-10-14T10:23:53Z</time>
      </trkpt>
      <trkpt lat="43.37815" lon="-0.37366">
        <ele>194.1</ele>
        <time>2021-10-14T10:23:54Z</time>
      </trkpt>
      <trkpt lat="43.37818" lon="-0.37369">
        <ele>193.9</ele>
        <time>2021-10-14T10:23:55Z</time>
      </trkpt>
      <trkpt lat="43.37823" lon="-0.37378">
        <ele>193</ele>
        <time>2021-10-14T10:23:57Z</time>
      </trkpt>
      <trkpt lat="43.37825" lon="-0.37383">
        <ele>192.9</ele>
        <time>2021-10-14T10:23:58Z</time>
      </trkpt>
      <trkpt lat="43.37827" lon="-0.37389">
        <ele>192.3</ele>
        <time>2021-10-14T10:23:59Z</time>
      </trkpt>
      <trkpt lat="43.37828" lon="-0.37395">
        <ele>191.6</ele>
        <time>2021-10-14T10:24:00Z</time>
      </trkpt>
      <trkpt lat="43.3783" lon="-0.37399">
        <ele>191.8</ele>
        <time>2021-10-14T10:24:01Z</time>
      </trkpt>
      <trkpt lat="43.37845" lon="-0.37416">
        <ele>194</ele>
        <time>2021-10-14T10:24:05Z</time>
      </trkpt>
      <trkpt lat="43.37848" lon="-0.37421">
        <ele>193.9</ele>
        <time>2021-10-14T10:24:06Z</time>
      </trkpt>
      <trkpt lat="43.37851" lon="-0.37427">
        <ele>192.8</ele>
        <time>2021-10-14T10:24:07Z</time>
      </trkpt>
      <trkpt lat="43.37856" lon="-0.3744">
        <ele>193.5</ele>
        <time>2021-10-14T10:24:09Z</time>
      </trkpt>
      <trkpt lat="43.37858" lon="-0.37446">
        <ele>192.1</ele>
        <time>2021-10-14T10:24:10Z</time>
      </trkpt>
      <trkpt lat="43.3786" lon="-0.37451">
        <ele>192.2</ele>
        <time>2021-10-14T10:24:11Z</time>
      </trkpt>
      <trkpt lat="43.37859" lon="-0.37458">
        <ele>192</ele>
        <time>2021-10-14T10:24:12Z</time>
      </trkpt>
      <trkpt lat="43.37858" lon="-0.37465">
        <ele>191.2</ele>
        <time>2021-10-14T10:24:13Z</time>
      </trkpt>
      <trkpt lat="43.37857" lon="-0.37471">
        <ele>192.1</ele>
        <time>2021-10-14T10:24:14Z</time>
      </trkpt>
      <trkpt lat="43.37858" lon="-0.37478">
        <ele>191.8</ele>
        <time>2021-10-14T10:24:15Z</time>
      </trkpt>
      <trkpt lat="43.37867" lon="-0.37501">
        <ele>187.9</ele>
        <time>2021-10-14T10:24:19Z</time>
      </trkpt>
      <trkpt lat="43.37878" lon="-0.37513">
        <ele>188.1</ele>
        <time>2021-10-14T10:24:22Z</time>
      </trkpt>
      <trkpt lat="43.37889" lon="-0.37529">
        <ele>189.3</ele>
        <time>2021-10-14T10:24:25Z</time>
      </trkpt>
      <trkpt lat="43.37896" lon="-0.37539">
        <ele>189.3</ele>
        <time>2021-10-14T10:24:27Z</time>
      </trkpt>
      <trkpt lat="43.379" lon="-0.37543">
        <ele>189.3</ele>
        <time>2021-10-14T10:24:28Z</time>
      </trkpt>
      <trkpt lat="43.37928" lon="-0.37556">
        <ele>191</ele>
        <time>2021-10-14T10:24:34Z</time>
      </trkpt>
      <trkpt lat="43.3794" lon="-0.37565">
        <ele>191</ele>
        <time>2021-10-14T10:24:37Z</time>
      </trkpt>
      <trkpt lat="43.37945" lon="-0.37567">
        <ele>190.6</ele>
        <time>2021-10-14T10:24:38Z</time>
      </trkpt>
      <trkpt lat="43.3795" lon="-0.37568">
        <ele>192.1</ele>
        <time>2021-10-14T10:24:39Z</time>
      </trkpt>
      <trkpt lat="43.37955" lon="-0.37567">
        <ele>192.2</ele>
        <time>2021-10-14T10:24:40Z</time>
      </trkpt>
      <trkpt lat="43.3796" lon="-0.37564">
        <ele>192.3</ele>
        <time>2021-10-14T10:24:41Z</time>
      </trkpt>
      <trkpt lat="43.3797" lon="-0.37553">
        <ele>192.2</ele>
        <time>2021-10-14T10:24:43Z</time>
      </trkpt>
      <trkpt lat="43.37974" lon="-0.3755">
        <ele>190.7</ele>
        <time>2021-10-14T10:24:44Z</time>
      </trkpt>
      <trkpt lat="43.37978" lon="-0.3755">
        <ele>191</ele>
        <time>2021-10-14T10:24:45Z</time>
      </trkpt>
      <trkpt lat="43.37983" lon="-0.37552">
        <ele>191.4</ele>
        <time>2021-10-14T10:24:46Z</time>
      </trkpt>
      <trkpt lat="43.37986" lon="-0.37556">
        <ele>190.8</ele>
        <time>2021-10-14T10:24:47Z</time>
      </trkpt>
      <trkpt lat="43.37989" lon="-0.37561">
        <ele>190.8</ele>
        <time>2021-10-14T10:24:48Z</time>
      </trkpt>
      <trkpt lat="43.37994" lon="-0.37566">
        <ele>191.3</ele>
        <time>2021-10-14T10:24:49Z</time>
      </trkpt>
      <trkpt lat="43.38002" lon="-0.37573">
        <ele>189.9</ele>
        <time>2021-10-14T10:24:51Z</time>
      </trkpt>
      <trkpt lat="43.38007" lon="-0.37577">
        <ele>190.3</ele>
        <time>2021-10-14T10:24:52Z</time>
      </trkpt>
      <trkpt lat="43.38011" lon="-0.3758">
        <ele>189.5</ele>
        <time>2021-10-14T10:24:53Z</time>
      </trkpt>
      <trkpt lat="43.38039" lon="-0.37589">
        <ele>188.7</ele>
        <time>2021-10-14T10:24:59Z</time>
      </trkpt>
      <trkpt lat="43.38042" lon="-0.37592">
        <ele>188.8</ele>
        <time>2021-10-14T10:25:00Z</time>
      </trkpt>
      <trkpt lat="43.38044" lon="-0.37595">
        <ele>188.7</ele>
        <time>2021-10-14T10:25:01Z</time>
      </trkpt>
      <trkpt lat="43.38046" lon="-0.37599">
        <ele>188.8</ele>
        <time>2021-10-14T10:25:02Z</time>
      </trkpt>
      <trkpt lat="43.38048" lon="-0.37603">
        <ele>188.5</ele>
        <time>2021-10-14T10:25:03Z</time>
      </trkpt>
      <trkpt lat="43.3805" lon="-0.37606">
        <ele>188.7</ele>
        <time>2021-10-14T10:25:04Z</time>
      </trkpt>
      <trkpt lat="43.38052" lon="-0.37608">
        <ele>189.3</ele>
        <time>2021-10-14T10:25:05Z</time>
      </trkpt>
      <trkpt lat="43.38053" lon="-0.3761">
        <ele>189.9</ele>
        <time>2021-10-14T10:25:06Z</time>
      </trkpt>
      <trkpt lat="43.38055" lon="-0.37612">
        <ele>189.9</ele>
        <time>2021-10-14T10:25:07Z</time>
      </trkpt>
      <trkpt lat="43.38056" lon="-0.37613">
        <ele>190.2</ele>
        <time>2021-10-14T10:25:08Z</time>
      </trkpt>
      <trkpt lat="43.38058" lon="-0.37616">
        <ele>190.2</ele>
        <time>2021-10-14T10:25:09Z</time>
      </trkpt>
      <trkpt lat="43.38059" lon="-0.37619">
        <ele>189.9</ele>
        <time>2021-10-14T10:25:10Z</time>
      </trkpt>
      <trkpt lat="43.3806" lon="-0.37622">
        <ele>190.1</ele>
        <time>2021-10-14T10:25:11Z</time>
      </trkpt>
      <trkpt lat="43.38061" lon="-0.37624">
        <ele>190</ele>
        <time>2021-10-14T10:25:12Z</time>
      </trkpt>
      <trkpt lat="43.38062" lon="-0.37625">
        <ele>189.7</ele>
        <time>2021-10-14T10:25:13Z</time>
      </trkpt>
      <trkpt lat="43.38062" lon="-0.37625">
        <ele>190.4</ele>
        <time>2021-10-14T10:25:14Z</time>
      </trkpt>
      <trkpt lat="43.38063" lon="-0.37624">
        <ele>189.3</ele>
        <time>2021-10-14T10:25:15Z</time>
      </trkpt>
      <trkpt lat="43.38063" lon="-0.37624">
        <ele>190</ele>
        <time>2021-10-14T10:25:16Z</time>
      </trkpt>
      <trkpt lat="43.38063" lon="-0.37624">
        <ele>190.5</ele>
        <time>2021-10-14T10:25:17Z</time>
      </trkpt>
      <trkpt lat="43.38063" lon="-0.37624">
        <ele>190.5</ele>
        <time>2021-10-14T10:25:18Z</time>
      </trkpt>
      <trkpt lat="43.38063" lon="-0.37624">
        <ele>189.8</ele>
        <time>2021-10-14T10:25:19Z</time>
      </trkpt>
      <trkpt lat="43.38063" lon="-0.37624">
        <ele>190.8</ele>
        <time>2021-10-14T10:25:21Z</time>
      </trkpt>
      <trkpt lat="43.38063" lon="-0.37624">
        <ele>190.6</ele>
        <time>2021-10-14T10:25:22Z</time>
      </trkpt>
      <trkpt lat="43.38063" lon="-0.37624">
        <ele>190.6</ele>
        <time>2021-10-14T10:25:24Z</time>
      </trkpt>
      <trkpt lat="43.38064" lon="-0.37623">
        <ele>189.8</ele>
        <time>2021-10-14T10:25:27Z</time>
      </trkpt>
      <trkpt lat="43.38064" lon="-0.37623">
        <ele>190</ele>
        <time>2021-10-14T10:25:28Z</time>
      </trkpt>
      <trkpt lat="43.38064" lon="-0.37623">
        <ele>190</ele>
        <time>2021-10-14T10:25:30Z</time>
      </trkpt>
      <trkpt lat="43.38064" lon="-0.37623">
        <ele>189.8</ele>
        <time>2021-10-14T10:25:47Z</time>
      </trkpt>
      <trkpt lat="43.38064" lon="-0.37623">
        <ele>190.9</ele>
        <time>2021-10-14T10:25:48Z</time>
      </trkpt>
      <trkpt lat="43.38063" lon="-0.37623">
        <ele>191.4</ele>
        <time>2021-10-14T10:25:50Z</time>
      </trkpt>
      <trkpt lat="43.38063" lon="-0.37622">
        <ele>190.9</ele>
        <time>2021-10-14T10:25:54Z</time>
      </trkpt>
      <trkpt lat="43.38063" lon="-0.37622">
        <ele>190.5</ele>
        <time>2021-10-14T10:25:59Z</time>
      </trkpt>
      <trkpt lat="43.38063" lon="-0.37623">
        <ele>191.2</ele>
        <time>2021-10-14T10:26:00Z</time>
      </trkpt>
      <trkpt lat="43.38063" lon="-0.37623">
        <ele>191.1</ele>
        <time>2021-10-14T10:26:01Z</time>
      </trkpt>
      <trkpt lat="43.38063" lon="-0.37623">
        <ele>190.9</ele>
        <time>2021-10-14T10:26:02Z</time>
      </trkpt>
      <trkpt lat="43.38063" lon="-0.37623">
        <ele>191.2</ele>
        <time>2021-10-14T10:26:03Z</time>
      </trkpt>
      <trkpt lat="43.38063" lon="-0.37623">
        <ele>191.4</ele>
        <time>2021-10-14T10:26:05Z</time>
      </trkpt>
      <trkpt lat="43.38063" lon="-0.37623">
        <ele>191.5</ele>
        <time>2021-10-14T10:26:08Z</time>
      </trkpt>
      <trkpt lat="43.38063" lon="-0.37623">
        <ele>189.9</ele>
        <time>2021-10-14T10:26:11Z</time>
      </trkpt>
      <trkpt lat="43.38063" lon="-0.37623">
        <ele>189.7</ele>
        <time>2021-10-14T10:26:12Z</time>
      </trkpt>
      <trkpt lat="43.38063" lon="-0.37623">
        <ele>189.4</ele>
        <time>2021-10-14T10:26:14Z</time>
      </trkpt>
      <trkpt lat="43.38063" lon="-0.37623">
        <ele>190.3</ele>
        <time>2021-10-14T10:26:26Z</time>
      </trkpt>
      <trkpt lat="43.38063" lon="-0.37624">
        <ele>190.1</ele>
        <time>2021-10-14T10:26:27Z</time>
      </trkpt>
      <trkpt lat="43.38064" lon="-0.37626">
        <ele>188.5</ele>
        <time>2021-10-14T10:26:28Z</time>
      </trkpt>
      <trkpt lat="43.38066" lon="-0.37629">
        <ele>188.8</ele>
        <time>2021-10-14T10:26:29Z</time>
      </trkpt>
      <trkpt lat="43.38069" lon="-0.37633">
        <ele>188.9</ele>
        <time>2021-10-14T10:26:30Z</time>
      </trkpt>
      <trkpt lat="43.3809" lon="-0.37657">
        <ele>189.1</ele>
        <time>2021-10-14T10:26:36Z</time>
      </trkpt>
      <trkpt lat="43.38137" lon="-0.37726">
        <ele>185.9</ele>
        <time>2021-10-14T10:26:49Z</time>
      </trkpt>
      <trkpt lat="43.38139" lon="-0.37732">
        <ele>186</ele>
        <time>2021-10-14T10:26:50Z</time>
      </trkpt>
      <trkpt lat="43.38142" lon="-0.37738">
        <ele>185.8</ele>
        <time>2021-10-14T10:26:51Z</time>
      </trkpt>
      <trkpt lat="43.38148" lon="-0.37747">
        <ele>186</ele>
        <time>2021-10-14T10:26:53Z</time>
      </trkpt>
      <trkpt lat="43.38151" lon="-0.37752">
        <ele>186.1</ele>
        <time>2021-10-14T10:26:54Z</time>
      </trkpt>
      <trkpt lat="43.38154" lon="-0.37756">
        <ele>186</ele>
        <time>2021-10-14T10:26:55Z</time>
      </trkpt>
      <trkpt lat="43.38185" lon="-0.37786">
        <ele>185</ele>
        <time>2021-10-14T10:27:03Z</time>
      </trkpt>
      <trkpt lat="43.38188" lon="-0.3779">
        <ele>186.4</ele>
        <time>2021-10-14T10:27:04Z</time>
      </trkpt>
      <trkpt lat="43.3819" lon="-0.37795">
        <ele>184.8</ele>
        <time>2021-10-14T10:27:05Z</time>
      </trkpt>
      <trkpt lat="43.38192" lon="-0.378">
        <ele>186</ele>
        <time>2021-10-14T10:27:06Z</time>
      </trkpt>
      <trkpt lat="43.38195" lon="-0.37807">
        <ele>186.1</ele>
        <time>2021-10-14T10:27:08Z</time>
      </trkpt>
      <trkpt lat="43.38196" lon="-0.37808">
        <ele>185.9</ele>
        <time>2021-10-14T10:27:09Z</time>
      </trkpt>
      <trkpt lat="43.38198" lon="-0.37809">
        <ele>186.2</ele>
        <time>2021-10-14T10:27:10Z</time>
      </trkpt>
      <trkpt lat="43.382" lon="-0.37807">
        <ele>187.2</ele>
        <time>2021-10-14T10:27:11Z</time>
      </trkpt>
      <trkpt lat="43.38202" lon="-0.37803">
        <ele>186.9</ele>
        <time>2021-10-14T10:27:12Z</time>
      </trkpt>
      <trkpt lat="43.38203" lon="-0.37801">
        <ele>187.5</ele>
        <time>2021-10-14T10:27:13Z</time>
      </trkpt>
      <trkpt lat="43.38205" lon="-0.37799">
        <ele>186.9</ele>
        <time>2021-10-14T10:27:14Z</time>
      </trkpt>
      <trkpt lat="43.38208" lon="-0.37799">
        <ele>186.6</ele>
        <time>2021-10-14T10:27:15Z</time>
      </trkpt>
      <trkpt lat="43.3821" lon="-0.378">
        <ele>187.6</ele>
        <time>2021-10-14T10:27:16Z</time>
      </trkpt>
      <trkpt lat="43.38215" lon="-0.37806">
        <ele>186.6</ele>
        <time>2021-10-14T10:27:18Z</time>
      </trkpt>
      <trkpt lat="43.38223" lon="-0.37814">
        <ele>186.7</ele>
        <time>2021-10-14T10:27:21Z</time>
      </trkpt>
      <trkpt lat="43.38236" lon="-0.37825">
        <ele>187.4</ele>
        <time>2021-10-14T10:27:25Z</time>
      </trkpt>
      <trkpt lat="43.3824" lon="-0.37828">
        <ele>186.9</ele>
        <time>2021-10-14T10:27:26Z</time>
      </trkpt>
      <trkpt lat="43.38243" lon="-0.3783">
        <ele>187.8</ele>
        <time>2021-10-14T10:27:27Z</time>
      </trkpt>
      <trkpt lat="43.38246" lon="-0.37832">
        <ele>188.3</ele>
        <time>2021-10-14T10:27:28Z</time>
      </trkpt>
      <trkpt lat="43.38249" lon="-0.37834">
        <ele>187.5</ele>
        <time>2021-10-14T10:27:29Z</time>
      </trkpt>
      <trkpt lat="43.38268" lon="-0.37858">
        <ele>188</ele>
        <time>2021-10-14T10:27:35Z</time>
      </trkpt>
      <trkpt lat="43.38269" lon="-0.37863">
        <ele>188.1</ele>
        <time>2021-10-14T10:27:36Z</time>
      </trkpt>
      <trkpt lat="43.3827" lon="-0.37869">
        <ele>186.9</ele>
        <time>2021-10-14T10:27:37Z</time>
      </trkpt>
      <trkpt lat="43.3827" lon="-0.37875">
        <ele>186.8</ele>
        <time>2021-10-14T10:27:38Z</time>
      </trkpt>
      <trkpt lat="43.38271" lon="-0.37887">
        <ele>187.9</ele>
        <time>2021-10-14T10:27:40Z</time>
      </trkpt>
      <trkpt lat="43.38272" lon="-0.37893">
        <ele>186.7</ele>
        <time>2021-10-14T10:27:41Z</time>
      </trkpt>
      <trkpt lat="43.38273" lon="-0.37899">
        <ele>186.7</ele>
        <time>2021-10-14T10:27:42Z</time>
      </trkpt>
      <trkpt lat="43.38277" lon="-0.3791">
        <ele>186</ele>
        <time>2021-10-14T10:27:44Z</time>
      </trkpt>
      <trkpt lat="43.3828" lon="-0.37916">
        <ele>185.9</ele>
        <time>2021-10-14T10:27:45Z</time>
      </trkpt>
      <trkpt lat="43.38283" lon="-0.37922">
        <ele>186.2</ele>
        <time>2021-10-14T10:27:46Z</time>
      </trkpt>
      <trkpt lat="43.38302" lon="-0.37945">
        <ele>185.9</ele>
        <time>2021-10-14T10:27:51Z</time>
      </trkpt>
      <trkpt lat="43.38305" lon="-0.3795">
        <ele>185.8</ele>
        <time>2021-10-14T10:27:52Z</time>
      </trkpt>
      <trkpt lat="43.38306" lon="-0.37956">
        <ele>186.1</ele>
        <time>2021-10-14T10:27:53Z</time>
      </trkpt>
      <trkpt lat="43.38306" lon="-0.37964">
        <ele>186.8</ele>
        <time>2021-10-14T10:27:54Z</time>
      </trkpt>
      <trkpt lat="43.38303" lon="-0.37981">
        <ele>187</ele>
        <time>2021-10-14T10:27:57Z</time>
      </trkpt>
      <trkpt lat="43.38302" lon="-0.37987">
        <ele>186.2</ele>
        <time>2021-10-14T10:27:58Z</time>
      </trkpt>
      <trkpt lat="43.38302" lon="-0.37993">
        <ele>186.6</ele>
        <time>2021-10-14T10:27:59Z</time>
      </trkpt>
      <trkpt lat="43.38304" lon="-0.37999">
        <ele>186.1</ele>
        <time>2021-10-14T10:28:00Z</time>
      </trkpt>
      <trkpt lat="43.38306" lon="-0.38004">
        <ele>186.1</ele>
        <time>2021-10-14T10:28:01Z</time>
      </trkpt>
      <trkpt lat="43.38308" lon="-0.38008">
        <ele>185.4</ele>
        <time>2021-10-14T10:28:02Z</time>
      </trkpt>
      <trkpt lat="43.38311" lon="-0.38011">
        <ele>185.7</ele>
        <time>2021-10-14T10:28:03Z</time>
      </trkpt>
      <trkpt lat="43.38315" lon="-0.38013">
        <ele>186.4</ele>
        <time>2021-10-14T10:28:04Z</time>
      </trkpt>
      <trkpt lat="43.38323" lon="-0.38015">
        <ele>186.6</ele>
        <time>2021-10-14T10:28:06Z</time>
      </trkpt>
      <trkpt lat="43.38326" lon="-0.38016">
        <ele>187</ele>
        <time>2021-10-14T10:28:07Z</time>
      </trkpt>
      <trkpt lat="43.38329" lon="-0.38019">
        <ele>186.4</ele>
        <time>2021-10-14T10:28:08Z</time>
      </trkpt>
      <trkpt lat="43.3833" lon="-0.38022">
        <ele>187.4</ele>
        <time>2021-10-14T10:28:09Z</time>
      </trkpt>
      <trkpt lat="43.38329" lon="-0.38026">
        <ele>187.8</ele>
        <time>2021-10-14T10:28:10Z</time>
      </trkpt>
      <trkpt lat="43.38329" lon="-0.3803">
        <ele>188.6</ele>
        <time>2021-10-14T10:28:11Z</time>
      </trkpt>
      <trkpt lat="43.38329" lon="-0.38034">
        <ele>188.5</ele>
        <time>2021-10-14T10:28:12Z</time>
      </trkpt>
      <trkpt lat="43.3833" lon="-0.38037">
        <ele>188.2</ele>
        <time>2021-10-14T10:28:13Z</time>
      </trkpt>
      <trkpt lat="43.38332" lon="-0.38039">
        <ele>187.7</ele>
        <time>2021-10-14T10:28:14Z</time>
      </trkpt>
      <trkpt lat="43.38334" lon="-0.3804">
        <ele>188.2</ele>
        <time>2021-10-14T10:28:15Z</time>
      </trkpt>
      <trkpt lat="43.38336" lon="-0.3804">
        <ele>188.3</ele>
        <time>2021-10-14T10:28:16Z</time>
      </trkpt>
      <trkpt lat="43.38337" lon="-0.3804">
        <ele>188.5</ele>
        <time>2021-10-14T10:28:17Z</time>
      </trkpt>
      <trkpt lat="43.38338" lon="-0.38039">
        <ele>189</ele>
        <time>2021-10-14T10:28:18Z</time>
      </trkpt>
      <trkpt lat="43.38339" lon="-0.38039">
        <ele>189.1</ele>
        <time>2021-10-14T10:28:19Z</time>
      </trkpt>
      <trkpt lat="43.38339" lon="-0.38039">
        <ele>188.6</ele>
        <time>2021-10-14T10:28:20Z</time>
      </trkpt>
      <trkpt lat="43.38339" lon="-0.38038">
        <ele>188.8</ele>
        <time>2021-10-14T10:28:21Z</time>
      </trkpt>
      <trkpt lat="43.38339" lon="-0.38038">
        <ele>189.1</ele>
        <time>2021-10-14T10:28:22Z</time>
      </trkpt>
      <trkpt lat="43.38339" lon="-0.38037">
        <ele>188.5</ele>
        <time>2021-10-14T10:28:23Z</time>
      </trkpt>
      <trkpt lat="43.38339" lon="-0.38037">
        <ele>189.5</ele>
        <time>2021-10-14T10:28:24Z</time>
      </trkpt>
      <trkpt lat="43.38339" lon="-0.38038">
        <ele>190.4</ele>
        <time>2021-10-14T10:28:25Z</time>
      </trkpt>
      <trkpt lat="43.38339" lon="-0.38038">
        <ele>190.3</ele>
        <time>2021-10-14T10:28:26Z</time>
      </trkpt>
      <trkpt lat="43.3834" lon="-0.38039">
        <ele>190.2</ele>
        <time>2021-10-14T10:28:27Z</time>
      </trkpt>
      <trkpt lat="43.38341" lon="-0.38046">
        <ele>190.7</ele>
        <time>2021-10-14T10:28:29Z</time>
      </trkpt>
      <trkpt lat="43.38341" lon="-0.38048">
        <ele>189.9</ele>
        <time>2021-10-14T10:28:30Z</time>
      </trkpt>
      <trkpt lat="43.38342" lon="-0.3805">
        <ele>189.7</ele>
        <time>2021-10-14T10:28:31Z</time>
      </trkpt>
      <trkpt lat="43.38342" lon="-0.38052">
        <ele>191.1</ele>
        <time>2021-10-14T10:28:32Z</time>
      </trkpt>
      <trkpt lat="43.38342" lon="-0.38052">
        <ele>190.4</ele>
        <time>2021-10-14T10:28:33Z</time>
      </trkpt>
      <trkpt lat="43.38343" lon="-0.38052">
        <ele>190.8</ele>
        <time>2021-10-14T10:28:34Z</time>
      </trkpt>
      <trkpt lat="43.38343" lon="-0.38051">
        <ele>191.2</ele>
        <time>2021-10-14T10:28:35Z</time>
      </trkpt>
      <trkpt lat="43.38343" lon="-0.38051">
        <ele>189.7</ele>
        <time>2021-10-14T10:28:36Z</time>
      </trkpt>
      <trkpt lat="43.38343" lon="-0.38052">
        <ele>189.3</ele>
        <time>2021-10-14T10:28:37Z</time>
      </trkpt>
      <trkpt lat="43.38344" lon="-0.38055">
        <ele>191.1</ele>
        <time>2021-10-14T10:28:38Z</time>
      </trkpt>
      <trkpt lat="43.38345" lon="-0.38059">
        <ele>190.9</ele>
        <time>2021-10-14T10:28:39Z</time>
      </trkpt>
      <trkpt lat="43.38346" lon="-0.38061">
        <ele>190.9</ele>
        <time>2021-10-14T10:28:40Z</time>
      </trkpt>
      <trkpt lat="43.38348" lon="-0.38063">
        <ele>190.7</ele>
        <time>2021-10-14T10:28:41Z</time>
      </trkpt>
      <trkpt lat="43.38349" lon="-0.38064">
        <ele>191</ele>
        <time>2021-10-14T10:28:42Z</time>
      </trkpt>
      <trkpt lat="43.3835" lon="-0.38066">
        <ele>190.8</ele>
        <time>2021-10-14T10:28:44Z</time>
      </trkpt>
      <trkpt lat="43.3835" lon="-0.38068">
        <ele>190</ele>
        <time>2021-10-14T10:28:45Z</time>
      </trkpt>
      <trkpt lat="43.3835" lon="-0.38068">
        <ele>190</ele>
        <time>2021-10-14T10:28:46Z</time>
      </trkpt>
      <trkpt lat="43.3835" lon="-0.38068">
        <ele>190.2</ele>
        <time>2021-10-14T10:28:47Z</time>
      </trkpt>
      <trkpt lat="43.38351" lon="-0.38068">
        <ele>190</ele>
        <time>2021-10-14T10:28:48Z</time>
      </trkpt>
      <trkpt lat="43.38351" lon="-0.3807">
        <ele>189.9</ele>
        <time>2021-10-14T10:28:49Z</time>
      </trkpt>
      <trkpt lat="43.38352" lon="-0.38073">
        <ele>189.7</ele>
        <time>2021-10-14T10:28:50Z</time>
      </trkpt>
      <trkpt lat="43.38353" lon="-0.38075">
        <ele>189.9</ele>
        <time>2021-10-14T10:28:51Z</time>
      </trkpt>
      <trkpt lat="43.38355" lon="-0.38076">
        <ele>188.6</ele>
        <time>2021-10-14T10:28:52Z</time>
      </trkpt>
      <trkpt lat="43.38356" lon="-0.38077">
        <ele>188.6</ele>
        <time>2021-10-14T10:28:53Z</time>
      </trkpt>
      <trkpt lat="43.38358" lon="-0.3808">
        <ele>189.3</ele>
        <time>2021-10-14T10:28:54Z</time>
      </trkpt>
      <trkpt lat="43.38359" lon="-0.38082">
        <ele>189.1</ele>
        <time>2021-10-14T10:28:55Z</time>
      </trkpt>
      <trkpt lat="43.38374" lon="-0.38101">
        <ele>189</ele>
        <time>2021-10-14T10:29:03Z</time>
      </trkpt>
      <trkpt lat="43.3838" lon="-0.38107">
        <ele>187.6</ele>
        <time>2021-10-14T10:29:06Z</time>
      </trkpt>
      <trkpt lat="43.38381" lon="-0.38109">
        <ele>187.6</ele>
        <time>2021-10-14T10:29:07Z</time>
      </trkpt>
      <trkpt lat="43.38383" lon="-0.38111">
        <ele>188.4</ele>
        <time>2021-10-14T10:29:08Z</time>
      </trkpt>
      <trkpt lat="43.38384" lon="-0.38113">
        <ele>188.2</ele>
        <time>2021-10-14T10:29:09Z</time>
      </trkpt>
      <trkpt lat="43.38384" lon="-0.38115">
        <ele>188.2</ele>
        <time>2021-10-14T10:29:10Z</time>
      </trkpt>
      <trkpt lat="43.38383" lon="-0.38117">
        <ele>188.3</ele>
        <time>2021-10-14T10:29:11Z</time>
      </trkpt>
      <trkpt lat="43.38387" lon="-0.38122">
        <ele>187.9</ele>
        <time>2021-10-14T10:29:13Z</time>
      </trkpt>
      <trkpt lat="43.38389" lon="-0.38124">
        <ele>188.1</ele>
        <time>2021-10-14T10:29:14Z</time>
      </trkpt>
      <trkpt lat="43.38392" lon="-0.38129">
        <ele>188.1</ele>
        <time>2021-10-14T10:29:16Z</time>
      </trkpt>
      <trkpt lat="43.38393" lon="-0.38131">
        <ele>187.9</ele>
        <time>2021-10-14T10:29:17Z</time>
      </trkpt>
      <trkpt lat="43.38395" lon="-0.38134">
        <ele>187.8</ele>
        <time>2021-10-14T10:29:19Z</time>
      </trkpt>
      <trkpt lat="43.38397" lon="-0.38139">
        <ele>188</ele>
        <time>2021-10-14T10:29:22Z</time>
      </trkpt>
      <trkpt lat="43.38398" lon="-0.3814">
        <ele>188.1</ele>
        <time>2021-10-14T10:29:23Z</time>
      </trkpt>
      <trkpt lat="43.38399" lon="-0.38142">
        <ele>187.9</ele>
        <time>2021-10-14T10:29:24Z</time>
      </trkpt>
      <trkpt lat="43.384" lon="-0.38143">
        <ele>188.2</ele>
        <time>2021-10-14T10:29:25Z</time>
      </trkpt>
      <trkpt lat="43.38401" lon="-0.38144">
        <ele>188</ele>
        <time>2021-10-14T10:29:26Z</time>
      </trkpt>
      <trkpt lat="43.38402" lon="-0.38146">
        <ele>187.7</ele>
        <time>2021-10-14T10:29:27Z</time>
      </trkpt>
      <trkpt lat="43.38402" lon="-0.38147">
        <ele>187.6</ele>
        <time>2021-10-14T10:29:28Z</time>
      </trkpt>
      <trkpt lat="43.38405" lon="-0.38155">
        <ele>186.7</ele>
        <time>2021-10-14T10:29:32Z</time>
      </trkpt>
      <trkpt lat="43.38406" lon="-0.38157">
        <ele>186.6</ele>
        <time>2021-10-14T10:29:33Z</time>
      </trkpt>
      <trkpt lat="43.38407" lon="-0.3816">
        <ele>186.8</ele>
        <time>2021-10-14T10:29:34Z</time>
      </trkpt>
      <trkpt lat="43.38411" lon="-0.38174">
        <ele>185.6</ele>
        <time>2021-10-14T10:29:38Z</time>
      </trkpt>
      <trkpt lat="43.38417" lon="-0.38201">
        <ele>185.9</ele>
        <time>2021-10-14T10:29:48Z</time>
      </trkpt>
      <trkpt lat="43.38423" lon="-0.38221">
        <ele>185.8</ele>
        <time>2021-10-14T10:29:56Z</time>
      </trkpt>
      <trkpt lat="43.38425" lon="-0.38226">
        <ele>186.6</ele>
        <time>2021-10-14T10:29:58Z</time>
      </trkpt>
      <trkpt lat="43.38425" lon="-0.38228">
        <ele>186.8</ele>
        <time>2021-10-14T10:29:59Z</time>
      </trkpt>
      <trkpt lat="43.38426" lon="-0.38228">
        <ele>187</ele>
        <time>2021-10-14T10:30:00Z</time>
      </trkpt>
      <trkpt lat="43.38431" lon="-0.38249">
        <ele>187</ele>
        <time>2021-10-14T10:30:07Z</time>
      </trkpt>
      <trkpt lat="43.38432" lon="-0.38255">
        <ele>187.2</ele>
        <time>2021-10-14T10:30:09Z</time>
      </trkpt>
      <trkpt lat="43.38432" lon="-0.38258">
        <ele>186.9</ele>
        <time>2021-10-14T10:30:10Z</time>
      </trkpt>
      <trkpt lat="43.38432" lon="-0.38261">
        <ele>186.7</ele>
        <time>2021-10-14T10:30:11Z</time>
      </trkpt>
      <trkpt lat="43.38432" lon="-0.38265">
        <ele>186.1</ele>
        <time>2021-10-14T10:30:12Z</time>
      </trkpt>
      <trkpt lat="43.38431" lon="-0.38268">
        <ele>187.3</ele>
        <time>2021-10-14T10:30:13Z</time>
      </trkpt>
      <trkpt lat="43.3843" lon="-0.38287">
        <ele>187.2</ele>
        <time>2021-10-14T10:30:20Z</time>
      </trkpt>
      <trkpt lat="43.38431" lon="-0.38293">
        <ele>185.8</ele>
        <time>2021-10-14T10:30:22Z</time>
      </trkpt>
      <trkpt lat="43.38432" lon="-0.38298">
        <ele>186.3</ele>
        <time>2021-10-14T10:30:24Z</time>
      </trkpt>
      <trkpt lat="43.38431" lon="-0.38299">
        <ele>186.9</ele>
        <time>2021-10-14T10:30:25Z</time>
      </trkpt>
      <trkpt lat="43.38433" lon="-0.38299">
        <ele>187.4</ele>
        <time>2021-10-14T10:30:26Z</time>
      </trkpt>
      <trkpt lat="43.38434" lon="-0.38299">
        <ele>188.1</ele>
        <time>2021-10-14T10:30:27Z</time>
      </trkpt>
      <trkpt lat="43.38443" lon="-0.38293">
        <ele>188.6</ele>
        <time>2021-10-14T10:30:32Z</time>
      </trkpt>
      <trkpt lat="43.38458" lon="-0.38285">
        <ele>190.2</ele>
        <time>2021-10-14T10:30:40Z</time>
      </trkpt>
      <trkpt lat="43.38473" lon="-0.38281">
        <ele>188</ele>
        <time>2021-10-14T10:30:45Z</time>
      </trkpt>
      <trkpt lat="43.38476" lon="-0.38281">
        <ele>189.6</ele>
        <time>2021-10-14T10:30:46Z</time>
      </trkpt>
      <trkpt lat="43.38486" lon="-0.38283">
        <ele>190.7</ele>
        <time>2021-10-14T10:30:49Z</time>
      </trkpt>
      <trkpt lat="43.38487" lon="-0.38285">
        <ele>189.4</ele>
        <time>2021-10-14T10:30:50Z</time>
      </trkpt>
      <trkpt lat="43.38507" lon="-0.38284">
        <ele>191</ele>
        <time>2021-10-14T10:30:55Z</time>
      </trkpt>
      <trkpt lat="43.38533" lon="-0.38286">
        <ele>187.6</ele>
        <time>2021-10-14T10:31:01Z</time>
      </trkpt>
      <trkpt lat="43.38559" lon="-0.38291">
        <ele>188.2</ele>
        <time>2021-10-14T10:31:07Z</time>
      </trkpt>
      <trkpt lat="43.38575" lon="-0.38297">
        <ele>187.5</ele>
        <time>2021-10-14T10:31:11Z</time>
      </trkpt>
      <trkpt lat="43.38663" lon="-0.38318">
        <ele>187.2</ele>
        <time>2021-10-14T10:31:31Z</time>
      </trkpt>
      <trkpt lat="43.38668" lon="-0.38318">
        <ele>186.8</ele>
        <time>2021-10-14T10:31:32Z</time>
      </trkpt>
      <trkpt lat="43.38668" lon="-0.38319">
        <ele>187.1</ele>
        <time>2021-10-14T10:31:33Z</time>
      </trkpt>
      <trkpt lat="43.38716" lon="-0.38314">
        <ele>186.7</ele>
        <time>2021-10-14T10:31:43Z</time>
      </trkpt>
      <trkpt lat="43.3872" lon="-0.38315">
        <ele>187.4</ele>
        <time>2021-10-14T10:31:44Z</time>
      </trkpt>
      <trkpt lat="43.38724" lon="-0.38315">
        <ele>186.8</ele>
        <time>2021-10-14T10:31:45Z</time>
      </trkpt>
      <trkpt lat="43.38729" lon="-0.38314">
        <ele>188.1</ele>
        <time>2021-10-14T10:31:47Z</time>
      </trkpt>
      <trkpt lat="43.38738" lon="-0.38315">
        <ele>189.3</ele>
        <time>2021-10-14T10:31:51Z</time>
      </trkpt>
      <trkpt lat="43.38757" lon="-0.38313">
        <ele>189.7</ele>
        <time>2021-10-14T10:31:59Z</time>
      </trkpt>
      <trkpt lat="43.38768" lon="-0.38307">
        <ele>191</ele>
        <time>2021-10-14T10:32:04Z</time>
      </trkpt>
      <trkpt lat="43.38769" lon="-0.38308">
        <ele>190.9</ele>
        <time>2021-10-14T10:32:05Z</time>
      </trkpt>
      <trkpt lat="43.38772" lon="-0.38307">
        <ele>191</ele>
        <time>2021-10-14T10:32:06Z</time>
      </trkpt>
      <trkpt lat="43.3878" lon="-0.383">
        <ele>190.8</ele>
        <time>2021-10-14T10:32:09Z</time>
      </trkpt>
      <trkpt lat="43.38783" lon="-0.38299">
        <ele>191.2</ele>
        <time>2021-10-14T10:32:10Z</time>
      </trkpt>
      <trkpt lat="43.38785" lon="-0.38297">
        <ele>190.9</ele>
        <time>2021-10-14T10:32:11Z</time>
      </trkpt>
      <trkpt lat="43.38792" lon="-0.38291">
        <ele>192.2</ele>
        <time>2021-10-14T10:32:14Z</time>
      </trkpt>
      <trkpt lat="43.38838" lon="-0.38261">
        <ele>191.9</ele>
        <time>2021-10-14T10:32:29Z</time>
      </trkpt>
      <trkpt lat="43.38839" lon="-0.38261">
        <ele>192.3</ele>
        <time>2021-10-14T10:32:30Z</time>
      </trkpt>
      <trkpt lat="43.38858" lon="-0.38247">
        <ele>192</ele>
        <time>2021-10-14T10:32:34Z</time>
      </trkpt>
      <trkpt lat="43.38862" lon="-0.38243">
        <ele>192.1</ele>
        <time>2021-10-14T10:32:35Z</time>
      </trkpt>
      <trkpt lat="43.38871" lon="-0.38232">
        <ele>192.1</ele>
        <time>2021-10-14T10:32:38Z</time>
      </trkpt>
      <trkpt lat="43.38873" lon="-0.3823">
        <ele>191.9</ele>
        <time>2021-10-14T10:32:39Z</time>
      </trkpt>
      <trkpt lat="43.38875" lon="-0.38231">
        <ele>192.1</ele>
        <time>2021-10-14T10:32:40Z</time>
      </trkpt>
      <trkpt lat="43.38879" lon="-0.38233">
        <ele>192.3</ele>
        <time>2021-10-14T10:32:42Z</time>
      </trkpt>
      <trkpt lat="43.38882" lon="-0.38233">
        <ele>192.2</ele>
        <time>2021-10-14T10:32:43Z</time>
      </trkpt>
      <trkpt lat="43.38887" lon="-0.38228">
        <ele>191.9</ele>
        <time>2021-10-14T10:32:45Z</time>
      </trkpt>
      <trkpt lat="43.38901" lon="-0.38218">
        <ele>192.1</ele>
        <time>2021-10-14T10:32:50Z</time>
      </trkpt>
      <trkpt lat="43.38904" lon="-0.38217">
        <ele>192</ele>
        <time>2021-10-14T10:32:51Z</time>
      </trkpt>
      <trkpt lat="43.38907" lon="-0.38215">
        <ele>192.9</ele>
        <time>2021-10-14T10:32:52Z</time>
      </trkpt>
      <trkpt lat="43.38916" lon="-0.38213">
        <ele>193.1</ele>
        <time>2021-10-14T10:32:55Z</time>
      </trkpt>
      <trkpt lat="43.3892" lon="-0.38213">
        <ele>191.8</ele>
        <time>2021-10-14T10:32:56Z</time>
      </trkpt>
      <trkpt lat="43.38923" lon="-0.38215">
        <ele>192</ele>
        <time>2021-10-14T10:32:57Z</time>
      </trkpt>
      <trkpt lat="43.3893" lon="-0.38216">
        <ele>193</ele>
        <time>2021-10-14T10:32:59Z</time>
      </trkpt>
      <trkpt lat="43.38934" lon="-0.38216">
        <ele>193</ele>
        <time>2021-10-14T10:33:00Z</time>
      </trkpt>
      <trkpt lat="43.38941" lon="-0.38215">
        <ele>192.9</ele>
        <time>2021-10-14T10:33:02Z</time>
      </trkpt>
      <trkpt lat="43.38969" lon="-0.38217">
        <ele>194.1</ele>
        <time>2021-10-14T10:33:10Z</time>
      </trkpt>
      <trkpt lat="43.38973" lon="-0.38218">
        <ele>192.9</ele>
        <time>2021-10-14T10:33:11Z</time>
      </trkpt>
      <trkpt lat="43.38976" lon="-0.38221">
        <ele>192.7</ele>
        <time>2021-10-14T10:33:12Z</time>
      </trkpt>
      <trkpt lat="43.38999" lon="-0.38253">
        <ele>191.8</ele>
        <time>2021-10-14T10:33:19Z</time>
      </trkpt>
      <trkpt lat="43.39039" lon="-0.38326">
        <ele>190.7</ele>
        <time>2021-10-14T10:33:31Z</time>
      </trkpt>
      <trkpt lat="43.39056" lon="-0.38378">
        <ele>188.9</ele>
        <time>2021-10-14T10:33:40Z</time>
      </trkpt>
      <trkpt lat="43.39093" lon="-0.38493">
        <ele>189.3</ele>
        <time>2021-10-14T10:33:57Z</time>
      </trkpt>
      <trkpt lat="43.39099" lon="-0.38506">
        <ele>189.1</ele>
        <time>2021-10-14T10:33:59Z</time>
      </trkpt>
      <trkpt lat="43.39117" lon="-0.38541">
        <ele>189.9</ele>
        <time>2021-10-14T10:34:05Z</time>
      </trkpt>
      <trkpt lat="43.39121" lon="-0.38546">
        <ele>189.9</ele>
        <time>2021-10-14T10:34:06Z</time>
      </trkpt>
      <trkpt lat="43.39132" lon="-0.3856">
        <ele>188.8</ele>
        <time>2021-10-14T10:34:09Z</time>
      </trkpt>
      <trkpt lat="43.39145" lon="-0.38573">
        <ele>188.9</ele>
        <time>2021-10-14T10:34:12Z</time>
      </trkpt>
      <trkpt lat="43.39154" lon="-0.38587">
        <ele>188.2</ele>
        <time>2021-10-14T10:34:15Z</time>
      </trkpt>
      <trkpt lat="43.3916" lon="-0.38598">
        <ele>188.2</ele>
        <time>2021-10-14T10:34:17Z</time>
      </trkpt>
      <trkpt lat="43.39164" lon="-0.38604">
        <ele>187.8</ele>
        <time>2021-10-14T10:34:18Z</time>
      </trkpt>
      <trkpt lat="43.39177" lon="-0.38618">
        <ele>188.2</ele>
        <time>2021-10-14T10:34:21Z</time>
      </trkpt>
      <trkpt lat="43.39225" lon="-0.38664">
        <ele>187.9</ele>
        <time>2021-10-14T10:34:32Z</time>
      </trkpt>
      <trkpt lat="43.39286" lon="-0.38711">
        <ele>187</ele>
        <time>2021-10-14T10:34:45Z</time>
      </trkpt>
      <trkpt lat="43.39291" lon="-0.38718">
        <ele>187.4</ele>
        <time>2021-10-14T10:34:47Z</time>
      </trkpt>
      <trkpt lat="43.39294" lon="-0.3872">
        <ele>187.2</ele>
        <time>2021-10-14T10:34:48Z</time>
      </trkpt>
      <trkpt lat="43.39297" lon="-0.38722">
        <ele>186.8</ele>
        <time>2021-10-14T10:34:50Z</time>
      </trkpt>
      <trkpt lat="43.39298" lon="-0.38723">
        <ele>187.6</ele>
        <time>2021-10-14T10:34:51Z</time>
      </trkpt>
      <trkpt lat="43.39298" lon="-0.38724">
        <ele>188.1</ele>
        <time>2021-10-14T10:34:52Z</time>
      </trkpt>
      <trkpt lat="43.39297" lon="-0.38728">
        <ele>188.1</ele>
        <time>2021-10-14T10:34:54Z</time>
      </trkpt>
      <trkpt lat="43.39296" lon="-0.38729">
        <ele>188</ele>
        <time>2021-10-14T10:34:55Z</time>
      </trkpt>
      <trkpt lat="43.39295" lon="-0.38731">
        <ele>188.7</ele>
        <time>2021-10-14T10:34:56Z</time>
      </trkpt>
      <trkpt lat="43.39292" lon="-0.38735">
        <ele>187.8</ele>
        <time>2021-10-14T10:34:59Z</time>
      </trkpt>
      <trkpt lat="43.39292" lon="-0.38735">
        <ele>187.7</ele>
        <time>2021-10-14T10:35:00Z</time>
      </trkpt>
      <trkpt lat="43.39292" lon="-0.38734">
        <ele>188.1</ele>
        <time>2021-10-14T10:35:01Z</time>
      </trkpt>
      <trkpt lat="43.39293" lon="-0.38734">
        <ele>188.2</ele>
        <time>2021-10-14T10:35:05Z</time>
      </trkpt>
      <trkpt lat="43.39293" lon="-0.38734">
        <ele>188.2</ele>
        <time>2021-10-14T10:35:40Z</time>
      </trkpt>
      <trkpt lat="43.39293" lon="-0.38734">
        <ele>187.9</ele>
        <time>2021-10-14T10:35:41Z</time>
      </trkpt>
      <trkpt lat="43.39292" lon="-0.38735">
        <ele>188.4</ele>
        <time>2021-10-14T10:35:42Z</time>
      </trkpt>
      <trkpt lat="43.39292" lon="-0.38736">
        <ele>187.3</ele>
        <time>2021-10-14T10:35:43Z</time>
      </trkpt>
      <trkpt lat="43.39291" lon="-0.38737">
        <ele>188.3</ele>
        <time>2021-10-14T10:35:44Z</time>
      </trkpt>
      <trkpt lat="43.39291" lon="-0.38737">
        <ele>188.2</ele>
        <time>2021-10-14T10:35:45Z</time>
      </trkpt>
      <trkpt lat="43.39291" lon="-0.38737">
        <ele>188.1</ele>
        <time>2021-10-14T10:35:46Z</time>
      </trkpt>
      <trkpt lat="43.39291" lon="-0.38737">
        <ele>188.1</ele>
        <time>2021-10-14T10:35:47Z</time>
      </trkpt>
      <trkpt lat="43.39292" lon="-0.38736">
        <ele>187.9</ele>
        <time>2021-10-14T10:35:48Z</time>
      </trkpt>
      <trkpt lat="43.39292" lon="-0.38736">
        <ele>187.6</ele>
        <time>2021-10-14T10:35:49Z</time>
      </trkpt>
      <trkpt lat="43.39292" lon="-0.38736">
        <ele>188.3</ele>
        <time>2021-10-14T10:35:50Z</time>
      </trkpt>
      <trkpt lat="43.39292" lon="-0.38736">
        <ele>188</ele>
        <time>2021-10-14T10:35:51Z</time>
      </trkpt>
      <trkpt lat="43.39292" lon="-0.38736">
        <ele>188.2</ele>
        <time>2021-10-14T10:36:09Z</time>
      </trkpt>
      <trkpt lat="43.39289" lon="-0.3874">
        <ele>187.5</ele>
        <time>2021-10-14T10:36:12Z</time>
      </trkpt>
      <trkpt lat="43.39274" lon="-0.38768">
        <ele>191</ele>
        <time>2021-10-14T10:36:22Z</time>
      </trkpt>
      <trkpt lat="43.39269" lon="-0.38782">
        <ele>189.8</ele>
        <time>2021-10-14T10:36:26Z</time>
      </trkpt>
      <trkpt lat="43.39224" lon="-0.38872">
        <ele>188.1</ele>
        <time>2021-10-14T10:36:42Z</time>
      </trkpt>
      <trkpt lat="43.39219" lon="-0.38884">
        <ele>187.2</ele>
        <time>2021-10-14T10:36:44Z</time>
      </trkpt>
      <trkpt lat="43.39209" lon="-0.38906">
        <ele>188</ele>
        <time>2021-10-14T10:36:48Z</time>
      </trkpt>
      <trkpt lat="43.39207" lon="-0.38912">
        <ele>188.5</ele>
        <time>2021-10-14T10:36:49Z</time>
      </trkpt>
      <trkpt lat="43.39205" lon="-0.38918">
        <ele>187.9</ele>
        <time>2021-10-14T10:36:50Z</time>
      </trkpt>
      <trkpt lat="43.39205" lon="-0.38924">
        <ele>188.1</ele>
        <time>2021-10-14T10:36:51Z</time>
      </trkpt>
      <trkpt lat="43.39205" lon="-0.38929">
        <ele>187.4</ele>
        <time>2021-10-14T10:36:52Z</time>
      </trkpt>
      <trkpt lat="43.39205" lon="-0.38935">
        <ele>186.9</ele>
        <time>2021-10-14T10:36:53Z</time>
      </trkpt>
      <trkpt lat="43.39206" lon="-0.3894">
        <ele>186.6</ele>
        <time>2021-10-14T10:36:54Z</time>
      </trkpt>
      <trkpt lat="43.39208" lon="-0.38945">
        <ele>186</ele>
        <time>2021-10-14T10:36:55Z</time>
      </trkpt>
      <trkpt lat="43.3921" lon="-0.38949">
        <ele>186.3</ele>
        <time>2021-10-14T10:36:56Z</time>
      </trkpt>
      <trkpt lat="43.39213" lon="-0.38953">
        <ele>186.2</ele>
        <time>2021-10-14T10:36:57Z</time>
      </trkpt>
      <trkpt lat="43.39216" lon="-0.38957">
        <ele>184.7</ele>
        <time>2021-10-14T10:36:58Z</time>
      </trkpt>
      <trkpt lat="43.39219" lon="-0.38959">
        <ele>185.2</ele>
        <time>2021-10-14T10:36:59Z</time>
      </trkpt>
      <trkpt lat="43.39224" lon="-0.38959">
        <ele>184.3</ele>
        <time>2021-10-14T10:37:00Z</time>
      </trkpt>
      <trkpt lat="43.39227" lon="-0.38959">
        <ele>183.1</ele>
        <time>2021-10-14T10:37:01Z</time>
      </trkpt>
      <trkpt lat="43.3923" lon="-0.38959">
        <ele>183.1</ele>
        <time>2021-10-14T10:37:02Z</time>
      </trkpt>
      <trkpt lat="43.39235" lon="-0.38959">
        <ele>183.2</ele>
        <time>2021-10-14T10:37:05Z</time>
      </trkpt>
      <trkpt lat="43.3924" lon="-0.38959">
        <ele>183.5</ele>
        <time>2021-10-14T10:37:08Z</time>
      </trkpt>
      <trkpt lat="43.39243" lon="-0.38958">
        <ele>183.4</ele>
        <time>2021-10-14T10:37:10Z</time>
      </trkpt>
      <trkpt lat="43.39245" lon="-0.38958">
        <ele>183.2</ele>
        <time>2021-10-14T10:37:11Z</time>
      </trkpt>
      <trkpt lat="43.39247" lon="-0.38959">
        <ele>182.9</ele>
        <time>2021-10-14T10:37:13Z</time>
      </trkpt>
      <trkpt lat="43.39248" lon="-0.38959">
        <ele>183.4</ele>
        <time>2021-10-14T10:37:14Z</time>
      </trkpt>
      <trkpt lat="43.39251" lon="-0.38959">
        <ele>182.4</ele>
        <time>2021-10-14T10:37:16Z</time>
      </trkpt>
      <trkpt lat="43.39253" lon="-0.38958">
        <ele>183.2</ele>
        <time>2021-10-14T10:37:18Z</time>
      </trkpt>
      <trkpt lat="43.39255" lon="-0.38958">
        <ele>183.5</ele>
        <time>2021-10-14T10:37:19Z</time>
      </trkpt>
      <trkpt lat="43.39256" lon="-0.38958">
        <ele>182.6</ele>
        <time>2021-10-14T10:37:20Z</time>
      </trkpt>
      <trkpt lat="43.39258" lon="-0.38959">
        <ele>182.8</ele>
        <time>2021-10-14T10:37:22Z</time>
      </trkpt>
      <trkpt lat="43.39259" lon="-0.38959">
        <ele>183.1</ele>
        <time>2021-10-14T10:37:23Z</time>
      </trkpt>
      <trkpt lat="43.3926" lon="-0.3896">
        <ele>183.2</ele>
        <time>2021-10-14T10:37:24Z</time>
      </trkpt>
      <trkpt lat="43.39263" lon="-0.38962">
        <ele>183.5</ele>
        <time>2021-10-14T10:37:26Z</time>
      </trkpt>
      <trkpt lat="43.39265" lon="-0.38963">
        <ele>183.2</ele>
        <time>2021-10-14T10:37:27Z</time>
      </trkpt>
      <trkpt lat="43.39267" lon="-0.38963">
        <ele>184.3</ele>
        <time>2021-10-14T10:37:28Z</time>
      </trkpt>
      <trkpt lat="43.39269" lon="-0.38963">
        <ele>183.3</ele>
        <time>2021-10-14T10:37:29Z</time>
      </trkpt>
      <trkpt lat="43.39271" lon="-0.38964">
        <ele>184.1</ele>
        <time>2021-10-14T10:37:30Z</time>
      </trkpt>
      <trkpt lat="43.39272" lon="-0.38964">
        <ele>182.7</ele>
        <time>2021-10-14T10:37:31Z</time>
      </trkpt>
      <trkpt lat="43.39273" lon="-0.38965">
        <ele>182.7</ele>
        <time>2021-10-14T10:37:32Z</time>
      </trkpt>
      <trkpt lat="43.39274" lon="-0.38967">
        <ele>183</ele>
        <time>2021-10-14T10:37:33Z</time>
      </trkpt>
      <trkpt lat="43.39274" lon="-0.38969">
        <ele>182.7</ele>
        <time>2021-10-14T10:37:34Z</time>
      </trkpt>
      <trkpt lat="43.39277" lon="-0.38976">
        <ele>186.3</ele>
        <time>2021-10-14T10:37:50Z</time>
      </trkpt>
      <trkpt lat="43.39276" lon="-0.38975">
        <ele>187</ele>
        <time>2021-10-14T10:37:52Z</time>
      </trkpt>
      <trkpt lat="43.39273" lon="-0.38977">
        <ele>187.7</ele>
        <time>2021-10-14T10:37:54Z</time>
      </trkpt>
      <trkpt lat="43.39272" lon="-0.38978">
        <ele>188.1</ele>
        <time>2021-10-14T10:37:55Z</time>
      </trkpt>
      <trkpt lat="43.39272" lon="-0.3898">
        <ele>189.6</ele>
        <time>2021-10-14T10:37:56Z</time>
      </trkpt>
      <trkpt lat="43.39272" lon="-0.38986">
        <ele>188.9</ele>
        <time>2021-10-14T10:37:58Z</time>
      </trkpt>
      <trkpt lat="43.39272" lon="-0.38989">
        <ele>188.1</ele>
        <time>2021-10-14T10:37:59Z</time>
      </trkpt>
      <trkpt lat="43.39272" lon="-0.38994">
        <ele>188.1</ele>
        <time>2021-10-14T10:38:01Z</time>
      </trkpt>
      <trkpt lat="43.39273" lon="-0.38996">
        <ele>186.4</ele>
        <time>2021-10-14T10:38:02Z</time>
      </trkpt>
      <trkpt lat="43.39274" lon="-0.38999">
        <ele>186.4</ele>
        <time>2021-10-14T10:38:03Z</time>
      </trkpt>
      <trkpt lat="43.39277" lon="-0.39006">
        <ele>186.3</ele>
        <time>2021-10-14T10:38:05Z</time>
      </trkpt>
      <trkpt lat="43.39278" lon="-0.39009">
        <ele>186.2</ele>
        <time>2021-10-14T10:38:06Z</time>
      </trkpt>
      <trkpt lat="43.39281" lon="-0.39012">
        <ele>186.1</ele>
        <time>2021-10-14T10:38:07Z</time>
      </trkpt>
      <trkpt lat="43.39287" lon="-0.39016">
        <ele>186.4</ele>
        <time>2021-10-14T10:38:09Z</time>
      </trkpt>
      <trkpt lat="43.3929" lon="-0.39019">
        <ele>186.3</ele>
        <time>2021-10-14T10:38:10Z</time>
      </trkpt>
      <trkpt lat="43.39294" lon="-0.39027">
        <ele>186.3</ele>
        <time>2021-10-14T10:38:12Z</time>
      </trkpt>
      <trkpt lat="43.39296" lon="-0.3903">
        <ele>185.5</ele>
        <time>2021-10-14T10:38:13Z</time>
      </trkpt>
      <trkpt lat="43.39315" lon="-0.39041">
        <ele>184.6</ele>
        <time>2021-10-14T10:38:19Z</time>
      </trkpt>
      <trkpt lat="43.39318" lon="-0.39043">
        <ele>183.7</ele>
        <time>2021-10-14T10:38:20Z</time>
      </trkpt>
      <trkpt lat="43.39329" lon="-0.39048">
        <ele>185.1</ele>
        <time>2021-10-14T10:38:23Z</time>
      </trkpt>
      <trkpt lat="43.39337" lon="-0.3905">
        <ele>184.1</ele>
        <time>2021-10-14T10:38:25Z</time>
      </trkpt>
      <trkpt lat="43.39341" lon="-0.3905">
        <ele>183.9</ele>
        <time>2021-10-14T10:38:26Z</time>
      </trkpt>
      <trkpt lat="43.39345" lon="-0.3905">
        <ele>183.2</ele>
        <time>2021-10-14T10:38:27Z</time>
      </trkpt>
      <trkpt lat="43.39362" lon="-0.39044">
        <ele>182.7</ele>
        <time>2021-10-14T10:38:31Z</time>
      </trkpt>
      <trkpt lat="43.39366" lon="-0.39042">
        <ele>183.1</ele>
        <time>2021-10-14T10:38:32Z</time>
      </trkpt>
      <trkpt lat="43.39369" lon="-0.39038">
        <ele>183.1</ele>
        <time>2021-10-14T10:38:33Z</time>
      </trkpt>
      <trkpt lat="43.39372" lon="-0.39034">
        <ele>183.1</ele>
        <time>2021-10-14T10:38:34Z</time>
      </trkpt>
      <trkpt lat="43.39385" lon="-0.39021">
        <ele>184.1</ele>
        <time>2021-10-14T10:38:38Z</time>
      </trkpt>
      <trkpt lat="43.39389" lon="-0.3902">
        <ele>183.8</ele>
        <time>2021-10-14T10:38:39Z</time>
      </trkpt>
      <trkpt lat="43.39395" lon="-0.39013">
        <ele>184.3</ele>
        <time>2021-10-14T10:38:41Z</time>
      </trkpt>
      <trkpt lat="43.39397" lon="-0.39012">
        <ele>184</ele>
        <time>2021-10-14T10:38:42Z</time>
      </trkpt>
      <trkpt lat="43.394" lon="-0.39013">
        <ele>183.7</ele>
        <time>2021-10-14T10:38:43Z</time>
      </trkpt>
      <trkpt lat="43.39401" lon="-0.39016">
        <ele>184.4</ele>
        <time>2021-10-14T10:38:44Z</time>
      </trkpt>
      <trkpt lat="43.39402" lon="-0.39017">
        <ele>184.4</ele>
        <time>2021-10-14T10:38:45Z</time>
      </trkpt>
      <trkpt lat="43.39404" lon="-0.39019">
        <ele>185.3</ele>
        <time>2021-10-14T10:38:46Z</time>
      </trkpt>
      <trkpt lat="43.39406" lon="-0.39021">
        <ele>185.3</ele>
        <time>2021-10-14T10:38:47Z</time>
      </trkpt>
      <trkpt lat="43.39407" lon="-0.39023">
        <ele>184.7</ele>
        <time>2021-10-14T10:38:48Z</time>
      </trkpt>
      <trkpt lat="43.39408" lon="-0.39028">
        <ele>185.2</ele>
        <time>2021-10-14T10:38:49Z</time>
      </trkpt>
      <trkpt lat="43.3941" lon="-0.39033">
        <ele>185.8</ele>
        <time>2021-10-14T10:38:50Z</time>
      </trkpt>
      <trkpt lat="43.39412" lon="-0.39036">
        <ele>186</ele>
        <time>2021-10-14T10:38:51Z</time>
      </trkpt>
      <trkpt lat="43.39415" lon="-0.39038">
        <ele>186.9</ele>
        <time>2021-10-14T10:38:52Z</time>
      </trkpt>
      <trkpt lat="43.39417" lon="-0.39041">
        <ele>185.5</ele>
        <time>2021-10-14T10:38:53Z</time>
      </trkpt>
      <trkpt lat="43.39418" lon="-0.39044">
        <ele>185.9</ele>
        <time>2021-10-14T10:38:54Z</time>
      </trkpt>
      <trkpt lat="43.3942" lon="-0.39049">
        <ele>186</ele>
        <time>2021-10-14T10:38:55Z</time>
      </trkpt>
      <trkpt lat="43.3942" lon="-0.39054">
        <ele>186.9</ele>
        <time>2021-10-14T10:38:56Z</time>
      </trkpt>
      <trkpt lat="43.39419" lon="-0.39058">
        <ele>187</ele>
        <time>2021-10-14T10:38:57Z</time>
      </trkpt>
      <trkpt lat="43.39418" lon="-0.39063">
        <ele>187</ele>
        <time>2021-10-14T10:38:58Z</time>
      </trkpt>
      <trkpt lat="43.39417" lon="-0.39077">
        <ele>186.1</ele>
        <time>2021-10-14T10:39:01Z</time>
      </trkpt>
      <trkpt lat="43.39417" lon="-0.39082">
        <ele>185.7</ele>
        <time>2021-10-14T10:39:02Z</time>
      </trkpt>
      <trkpt lat="43.39417" lon="-0.39086">
        <ele>185.9</ele>
        <time>2021-10-14T10:39:03Z</time>
      </trkpt>
      <trkpt lat="43.39423" lon="-0.39105">
        <ele>185.9</ele>
        <time>2021-10-14T10:39:06Z</time>
      </trkpt>
      <trkpt lat="43.39431" lon="-0.39121">
        <ele>187.1</ele>
        <time>2021-10-14T10:39:09Z</time>
      </trkpt>
      <trkpt lat="43.39433" lon="-0.39123">
        <ele>185.9</ele>
        <time>2021-10-14T10:39:10Z</time>
      </trkpt>
      <trkpt lat="43.39437" lon="-0.39131">
        <ele>186.4</ele>
        <time>2021-10-14T10:39:11Z</time>
      </trkpt>
      <trkpt lat="43.39443" lon="-0.39142">
        <ele>186.1</ele>
        <time>2021-10-14T10:39:13Z</time>
      </trkpt>
      <trkpt lat="43.39459" lon="-0.39165">
        <ele>185.8</ele>
        <time>2021-10-14T10:39:18Z</time>
      </trkpt>
      <trkpt lat="43.39462" lon="-0.39171">
        <ele>186.1</ele>
        <time>2021-10-14T10:39:19Z</time>
      </trkpt>
      <trkpt lat="43.39466" lon="-0.3919">
        <ele>185.9</ele>
        <time>2021-10-14T10:39:22Z</time>
      </trkpt>
      <trkpt lat="43.39473" lon="-0.39216">
        <ele>185.1</ele>
        <time>2021-10-14T10:39:28Z</time>
      </trkpt>
      <trkpt lat="43.39475" lon="-0.3922">
        <ele>185.1</ele>
        <time>2021-10-14T10:39:29Z</time>
      </trkpt>
      <trkpt lat="43.39485" lon="-0.39235">
        <ele>184.3</ele>
        <time>2021-10-14T10:39:33Z</time>
      </trkpt>
      <trkpt lat="43.39488" lon="-0.39238">
        <ele>184.1</ele>
        <time>2021-10-14T10:39:34Z</time>
      </trkpt>
      <trkpt lat="43.3949" lon="-0.39237">
        <ele>183.4</ele>
        <time>2021-10-14T10:39:35Z</time>
      </trkpt>
      <trkpt lat="43.395" lon="-0.3925">
        <ele>181.9</ele>
        <time>2021-10-14T10:39:38Z</time>
      </trkpt>
      <trkpt lat="43.39504" lon="-0.39254">
        <ele>181.9</ele>
        <time>2021-10-14T10:39:39Z</time>
      </trkpt>
      <trkpt lat="43.39507" lon="-0.39256">
        <ele>182.2</ele>
        <time>2021-10-14T10:39:40Z</time>
      </trkpt>
      <trkpt lat="43.39511" lon="-0.39257">
        <ele>182.1</ele>
        <time>2021-10-14T10:39:41Z</time>
      </trkpt>
      <trkpt lat="43.39514" lon="-0.39256">
        <ele>182.2</ele>
        <time>2021-10-14T10:39:42Z</time>
      </trkpt>
      <trkpt lat="43.39517" lon="-0.39255">
        <ele>182.1</ele>
        <time>2021-10-14T10:39:43Z</time>
      </trkpt>
      <trkpt lat="43.3952" lon="-0.39251">
        <ele>182.1</ele>
        <time>2021-10-14T10:39:44Z</time>
      </trkpt>
      <trkpt lat="43.39528" lon="-0.39239">
        <ele>182.2</ele>
        <time>2021-10-14T10:39:47Z</time>
      </trkpt>
      <trkpt lat="43.39532" lon="-0.39229">
        <ele>182.1</ele>
        <time>2021-10-14T10:39:49Z</time>
      </trkpt>
      <trkpt lat="43.39534" lon="-0.39225">
        <ele>182</ele>
        <time>2021-10-14T10:39:50Z</time>
      </trkpt>
      <trkpt lat="43.39537" lon="-0.39223">
        <ele>181.8</ele>
        <time>2021-10-14T10:39:51Z</time>
      </trkpt>
      <trkpt lat="43.39539" lon="-0.39223">
        <ele>183.2</ele>
        <time>2021-10-14T10:39:52Z</time>
      </trkpt>
      <trkpt lat="43.39541" lon="-0.39225">
        <ele>183.3</ele>
        <time>2021-10-14T10:39:53Z</time>
      </trkpt>
      <trkpt lat="43.39545" lon="-0.39234">
        <ele>184.3</ele>
        <time>2021-10-14T10:39:55Z</time>
      </trkpt>
      <trkpt lat="43.39549" lon="-0.39241">
        <ele>184</ele>
        <time>2021-10-14T10:39:57Z</time>
      </trkpt>
      <trkpt lat="43.39551" lon="-0.39246">
        <ele>184</ele>
        <time>2021-10-14T10:39:58Z</time>
      </trkpt>
      <trkpt lat="43.39553" lon="-0.39251">
        <ele>182.7</ele>
        <time>2021-10-14T10:39:59Z</time>
      </trkpt>
      <trkpt lat="43.39556" lon="-0.39256">
        <ele>183.4</ele>
        <time>2021-10-14T10:40:00Z</time>
      </trkpt>
      <trkpt lat="43.396" lon="-0.39301">
        <ele>184</ele>
        <time>2021-10-14T10:40:12Z</time>
      </trkpt>
      <trkpt lat="43.39604" lon="-0.39303">
        <ele>183.8</ele>
        <time>2021-10-14T10:40:13Z</time>
      </trkpt>
      <trkpt lat="43.39611" lon="-0.39306">
        <ele>185.1</ele>
        <time>2021-10-14T10:40:15Z</time>
      </trkpt>
      <trkpt lat="43.39615" lon="-0.39306">
        <ele>185.5</ele>
        <time>2021-10-14T10:40:16Z</time>
      </trkpt>
      <trkpt lat="43.39618" lon="-0.39306">
        <ele>185.1</ele>
        <time>2021-10-14T10:40:17Z</time>
      </trkpt>
      <trkpt lat="43.39621" lon="-0.39306">
        <ele>185.3</ele>
        <time>2021-10-14T10:40:18Z</time>
      </trkpt>
      <trkpt lat="43.39624" lon="-0.39304">
        <ele>184.3</ele>
        <time>2021-10-14T10:40:19Z</time>
      </trkpt>
      <trkpt lat="43.39629" lon="-0.39296">
        <ele>184.9</ele>
        <time>2021-10-14T10:40:21Z</time>
      </trkpt>
      <trkpt lat="43.39632" lon="-0.3929">
        <ele>185.2</ele>
        <time>2021-10-14T10:40:22Z</time>
      </trkpt>
      <trkpt lat="43.39634" lon="-0.39284">
        <ele>184.8</ele>
        <time>2021-10-14T10:40:23Z</time>
      </trkpt>
      <trkpt lat="43.39635" lon="-0.39277">
        <ele>184.5</ele>
        <time>2021-10-14T10:40:24Z</time>
      </trkpt>
      <trkpt lat="43.39636" lon="-0.39271">
        <ele>184.7</ele>
        <time>2021-10-14T10:40:25Z</time>
      </trkpt>
      <trkpt lat="43.39636" lon="-0.39266">
        <ele>184.7</ele>
        <time>2021-10-14T10:40:26Z</time>
      </trkpt>
      <trkpt lat="43.39637" lon="-0.39261">
        <ele>183.6</ele>
        <time>2021-10-14T10:40:27Z</time>
      </trkpt>
      <trkpt lat="43.3964" lon="-0.39258">
        <ele>184.2</ele>
        <time>2021-10-14T10:40:28Z</time>
      </trkpt>
      <trkpt lat="43.39644" lon="-0.39257">
        <ele>184</ele>
        <time>2021-10-14T10:40:29Z</time>
      </trkpt>
      <trkpt lat="43.39648" lon="-0.39258">
        <ele>183.9</ele>
        <time>2021-10-14T10:40:30Z</time>
      </trkpt>
      <trkpt lat="43.39653" lon="-0.3926">
        <ele>182.9</ele>
        <time>2021-10-14T10:40:31Z</time>
      </trkpt>
      <trkpt lat="43.39657" lon="-0.39266">
        <ele>182.9</ele>
        <time>2021-10-14T10:40:32Z</time>
      </trkpt>
      <trkpt lat="43.39662" lon="-0.39286">
        <ele>184.7</ele>
        <time>2021-10-14T10:40:35Z</time>
      </trkpt>
      <trkpt lat="43.39665" lon="-0.3929">
        <ele>184.4</ele>
        <time>2021-10-14T10:40:36Z</time>
      </trkpt>
      <trkpt lat="43.39668" lon="-0.39294">
        <ele>182.8</ele>
        <time>2021-10-14T10:40:37Z</time>
      </trkpt>
      <trkpt lat="43.39671" lon="-0.39296">
        <ele>184.1</ele>
        <time>2021-10-14T10:40:38Z</time>
      </trkpt>
      <trkpt lat="43.39674" lon="-0.393">
        <ele>184.4</ele>
        <time>2021-10-14T10:40:39Z</time>
      </trkpt>
      <trkpt lat="43.39685" lon="-0.39322">
        <ele>183.4</ele>
        <time>2021-10-14T10:40:43Z</time>
      </trkpt>
      <trkpt lat="43.39694" lon="-0.39337">
        <ele>183.4</ele>
        <time>2021-10-14T10:40:46Z</time>
      </trkpt>
      <trkpt lat="43.39701" lon="-0.39344">
        <ele>182.9</ele>
        <time>2021-10-14T10:40:48Z</time>
      </trkpt>
      <trkpt lat="43.39707" lon="-0.39353">
        <ele>183</ele>
        <time>2021-10-14T10:40:50Z</time>
      </trkpt>
      <trkpt lat="43.39711" lon="-0.39357">
        <ele>182.9</ele>
        <time>2021-10-14T10:40:51Z</time>
      </trkpt>
      <trkpt lat="43.39716" lon="-0.3936">
        <ele>182.7</ele>
        <time>2021-10-14T10:40:52Z</time>
      </trkpt>
      <trkpt lat="43.39721" lon="-0.39362">
        <ele>181.8</ele>
        <time>2021-10-14T10:40:53Z</time>
      </trkpt>
      <trkpt lat="43.39726" lon="-0.39363">
        <ele>182.1</ele>
        <time>2021-10-14T10:40:54Z</time>
      </trkpt>
      <trkpt lat="43.39731" lon="-0.39363">
        <ele>182.3</ele>
        <time>2021-10-14T10:40:55Z</time>
      </trkpt>
      <trkpt lat="43.39795" lon="-0.39324">
        <ele>182.7</ele>
        <time>2021-10-14T10:41:09Z</time>
      </trkpt>
      <trkpt lat="43.39805" lon="-0.39321">
        <ele>183</ele>
        <time>2021-10-14T10:41:11Z</time>
      </trkpt>
      <trkpt lat="43.39853" lon="-0.39295">
        <ele>183.1</ele>
        <time>2021-10-14T10:41:23Z</time>
      </trkpt>
      <trkpt lat="43.39856" lon="-0.39294">
        <ele>182.2</ele>
        <time>2021-10-14T10:41:24Z</time>
      </trkpt>
      <trkpt lat="43.39858" lon="-0.39295">
        <ele>181.9</ele>
        <time>2021-10-14T10:41:25Z</time>
      </trkpt>
      <trkpt lat="43.3986" lon="-0.39296">
        <ele>182</ele>
        <time>2021-10-14T10:41:26Z</time>
      </trkpt>
      <trkpt lat="43.39862" lon="-0.39299">
        <ele>182.4</ele>
        <time>2021-10-14T10:41:27Z</time>
      </trkpt>
      <trkpt lat="43.3987" lon="-0.39313">
        <ele>182.1</ele>
        <time>2021-10-14T10:41:30Z</time>
      </trkpt>
      <trkpt lat="43.39873" lon="-0.39317">
        <ele>182.1</ele>
        <time>2021-10-14T10:41:31Z</time>
      </trkpt>
      <trkpt lat="43.39876" lon="-0.3932">
        <ele>183.1</ele>
        <time>2021-10-14T10:41:32Z</time>
      </trkpt>
      <trkpt lat="43.3988" lon="-0.39323">
        <ele>183</ele>
        <time>2021-10-14T10:41:33Z</time>
      </trkpt>
      <trkpt lat="43.39884" lon="-0.39323">
        <ele>184.3</ele>
        <time>2021-10-14T10:41:34Z</time>
      </trkpt>
      <trkpt lat="43.39887" lon="-0.39323">
        <ele>184</ele>
        <time>2021-10-14T10:41:35Z</time>
      </trkpt>
      <trkpt lat="43.3989" lon="-0.39322">
        <ele>183.5</ele>
        <time>2021-10-14T10:41:36Z</time>
      </trkpt>
      <trkpt lat="43.39898" lon="-0.39318">
        <ele>185.1</ele>
        <time>2021-10-14T10:41:39Z</time>
      </trkpt>
      <trkpt lat="43.39907" lon="-0.39312">
        <ele>185.8</ele>
        <time>2021-10-14T10:41:44Z</time>
      </trkpt>
      <trkpt lat="43.39909" lon="-0.3931">
        <ele>186.1</ele>
        <time>2021-10-14T10:41:45Z</time>
      </trkpt>
      <trkpt lat="43.39911" lon="-0.39308">
        <ele>186.3</ele>
        <time>2021-10-14T10:41:46Z</time>
      </trkpt>
      <trkpt lat="43.39915" lon="-0.39305">
        <ele>186.6</ele>
        <time>2021-10-14T10:41:48Z</time>
      </trkpt>
      <trkpt lat="43.39917" lon="-0.39303">
        <ele>186.2</ele>
        <time>2021-10-14T10:41:49Z</time>
      </trkpt>
      <trkpt lat="43.39928" lon="-0.3929">
        <ele>187.1</ele>
        <time>2021-10-14T10:41:54Z</time>
      </trkpt>
      <trkpt lat="43.3993" lon="-0.39287">
        <ele>187.1</ele>
        <time>2021-10-14T10:41:55Z</time>
      </trkpt>
      <trkpt lat="43.39932" lon="-0.39286">
        <ele>187.4</ele>
        <time>2021-10-14T10:41:56Z</time>
      </trkpt>
      <trkpt lat="43.39937" lon="-0.39283">
        <ele>187.6</ele>
        <time>2021-10-14T10:41:58Z</time>
      </trkpt>
      <trkpt lat="43.3994" lon="-0.39283">
        <ele>188.2</ele>
        <time>2021-10-14T10:41:59Z</time>
      </trkpt>
      <trkpt lat="43.39943" lon="-0.39284">
        <ele>188.3</ele>
        <time>2021-10-14T10:42:00Z</time>
      </trkpt>
      <trkpt lat="43.39949" lon="-0.39287">
        <ele>189</ele>
        <time>2021-10-14T10:42:02Z</time>
      </trkpt>
      <trkpt lat="43.39951" lon="-0.39289">
        <ele>189</ele>
        <time>2021-10-14T10:42:03Z</time>
      </trkpt>
      <trkpt lat="43.39954" lon="-0.39291">
        <ele>189.1</ele>
        <time>2021-10-14T10:42:04Z</time>
      </trkpt>
      <trkpt lat="43.39953" lon="-0.39291">
        <ele>189.1</ele>
        <time>2021-10-14T10:42:05Z</time>
      </trkpt>
      <trkpt lat="43.39959" lon="-0.39296">
        <ele>190.2</ele>
        <time>2021-10-14T10:42:07Z</time>
      </trkpt>
      <trkpt lat="43.39962" lon="-0.39298">
        <ele>190.9</ele>
        <time>2021-10-14T10:42:08Z</time>
      </trkpt>
      <trkpt lat="43.39965" lon="-0.39301">
        <ele>191.3</ele>
        <time>2021-10-14T10:42:09Z</time>
      </trkpt>
      <trkpt lat="43.39967" lon="-0.39303">
        <ele>191.1</ele>
        <time>2021-10-14T10:42:10Z</time>
      </trkpt>
      <trkpt lat="43.39969" lon="-0.39304">
        <ele>191.1</ele>
        <time>2021-10-14T10:42:11Z</time>
      </trkpt>
      <trkpt lat="43.39971" lon="-0.39306">
        <ele>190.7</ele>
        <time>2021-10-14T10:42:12Z</time>
      </trkpt>
      <trkpt lat="43.39973" lon="-0.39306">
        <ele>191.3</ele>
        <time>2021-10-14T10:42:13Z</time>
      </trkpt>
      <trkpt lat="43.39976" lon="-0.39305">
        <ele>192.2</ele>
        <time>2021-10-14T10:42:14Z</time>
      </trkpt>
      <trkpt lat="43.40016" lon="-0.39279">
        <ele>191.9</ele>
        <time>2021-10-14T10:42:29Z</time>
      </trkpt>
      <trkpt lat="43.40018" lon="-0.39275">
        <ele>191.9</ele>
        <time>2021-10-14T10:42:30Z</time>
      </trkpt>
      <trkpt lat="43.40028" lon="-0.39269">
        <ele>192.4</ele>
        <time>2021-10-14T10:42:33Z</time>
      </trkpt>
      <trkpt lat="43.40031" lon="-0.39267">
        <ele>191.9</ele>
        <time>2021-10-14T10:42:34Z</time>
      </trkpt>
      <trkpt lat="43.40037" lon="-0.39263">
        <ele>192.3</ele>
        <time>2021-10-14T10:42:36Z</time>
      </trkpt>
      <trkpt lat="43.40051" lon="-0.39247">
        <ele>190.1</ele>
        <time>2021-10-14T10:42:41Z</time>
      </trkpt>
      <trkpt lat="43.40057" lon="-0.39243">
        <ele>190.1</ele>
        <time>2021-10-14T10:42:43Z</time>
      </trkpt>
      <trkpt lat="43.40071" lon="-0.39234">
        <ele>188.6</ele>
        <time>2021-10-14T10:42:47Z</time>
      </trkpt>
      <trkpt lat="43.40084" lon="-0.39223">
        <ele>189.9</ele>
        <time>2021-10-14T10:42:51Z</time>
      </trkpt>
      <trkpt lat="43.4009" lon="-0.39216">
        <ele>190.1</ele>
        <time>2021-10-14T10:42:54Z</time>
      </trkpt>
      <trkpt lat="43.40091" lon="-0.39214">
        <ele>190.2</ele>
        <time>2021-10-14T10:42:55Z</time>
      </trkpt>
      <trkpt lat="43.40097" lon="-0.39217">
        <ele>190.2</ele>
        <time>2021-10-14T10:42:57Z</time>
      </trkpt>
      <trkpt lat="43.401" lon="-0.39219">
        <ele>189.7</ele>
        <time>2021-10-14T10:42:58Z</time>
      </trkpt>
      <trkpt lat="43.40104" lon="-0.39222">
        <ele>190.8</ele>
        <time>2021-10-14T10:42:59Z</time>
      </trkpt>
      <trkpt lat="43.40155" lon="-0.39296">
        <ele>188</ele>
        <time>2021-10-14T10:43:15Z</time>
      </trkpt>
      <trkpt lat="43.40159" lon="-0.39301">
        <ele>188.2</ele>
        <time>2021-10-14T10:43:16Z</time>
      </trkpt>
      <trkpt lat="43.40238" lon="-0.39372">
        <ele>187.9</ele>
        <time>2021-10-14T10:43:34Z</time>
      </trkpt>
      <trkpt lat="43.40269" lon="-0.39411">
        <ele>187.2</ele>
        <time>2021-10-14T10:43:42Z</time>
      </trkpt>
      <trkpt lat="43.40273" lon="-0.39413">
        <ele>187.1</ele>
        <time>2021-10-14T10:43:43Z</time>
      </trkpt>
      <trkpt lat="43.40277" lon="-0.39414">
        <ele>188.1</ele>
        <time>2021-10-14T10:43:44Z</time>
      </trkpt>
      <trkpt lat="43.4028" lon="-0.39409">
        <ele>188.6</ele>
        <time>2021-10-14T10:43:45Z</time>
      </trkpt>
      <trkpt lat="43.40283" lon="-0.39394">
        <ele>188.2</ele>
        <time>2021-10-14T10:43:47Z</time>
      </trkpt>
      <trkpt lat="43.40305" lon="-0.39326">
        <ele>189</ele>
        <time>2021-10-14T10:43:58Z</time>
      </trkpt>
      <trkpt lat="43.40312" lon="-0.39312">
        <ele>190.2</ele>
        <time>2021-10-14T10:44:01Z</time>
      </trkpt>
      <trkpt lat="43.40318" lon="-0.39303">
        <ele>190</ele>
        <time>2021-10-14T10:44:03Z</time>
      </trkpt>
      <trkpt lat="43.40333" lon="-0.3927">
        <ele>191.2</ele>
        <time>2021-10-14T10:44:10Z</time>
      </trkpt>
      <trkpt lat="43.40366" lon="-0.39221">
        <ele>192.2</ele>
        <time>2021-10-14T10:44:22Z</time>
      </trkpt>
      <trkpt lat="43.40369" lon="-0.39218">
        <ele>192</ele>
        <time>2021-10-14T10:44:23Z</time>
      </trkpt>
      <trkpt lat="43.40372" lon="-0.39215">
        <ele>192</ele>
        <time>2021-10-14T10:44:24Z</time>
      </trkpt>
      <trkpt lat="43.40377" lon="-0.39211">
        <ele>192</ele>
        <time>2021-10-14T10:44:26Z</time>
      </trkpt>
      <trkpt lat="43.40417" lon="-0.3917">
        <ele>196.2</ele>
        <time>2021-10-14T10:44:45Z</time>
      </trkpt>
      <trkpt lat="43.40419" lon="-0.39168">
        <ele>196.2</ele>
        <time>2021-10-14T10:44:46Z</time>
      </trkpt>
      <trkpt lat="43.40424" lon="-0.39155">
        <ele>197.2</ele>
        <time>2021-10-14T10:44:52Z</time>
      </trkpt>
      <trkpt lat="43.40425" lon="-0.39153">
        <ele>197.2</ele>
        <time>2021-10-14T10:44:53Z</time>
      </trkpt>
      <trkpt lat="43.40428" lon="-0.39149">
        <ele>197.8</ele>
        <time>2021-10-14T10:44:55Z</time>
      </trkpt>
      <trkpt lat="43.4043" lon="-0.39146">
        <ele>198</ele>
        <time>2021-10-14T10:44:57Z</time>
      </trkpt>
      <trkpt lat="43.40432" lon="-0.39142">
        <ele>199.1</ele>
        <time>2021-10-14T10:44:59Z</time>
      </trkpt>
      <trkpt lat="43.40432" lon="-0.39142">
        <ele>199.2</ele>
        <time>2021-10-14T10:45:00Z</time>
      </trkpt>
      <trkpt lat="43.40433" lon="-0.39141">
        <ele>199</ele>
        <time>2021-10-14T10:45:01Z</time>
      </trkpt>
      <trkpt lat="43.40435" lon="-0.39139">
        <ele>199.2</ele>
        <time>2021-10-14T10:45:02Z</time>
      </trkpt>
      <trkpt lat="43.40436" lon="-0.39136">
        <ele>199.3</ele>
        <time>2021-10-14T10:45:03Z</time>
      </trkpt>
      <trkpt lat="43.40453" lon="-0.39115">
        <ele>203</ele>
        <time>2021-10-14T10:45:18Z</time>
      </trkpt>
      <trkpt lat="43.40454" lon="-0.39114">
        <ele>203.1</ele>
        <time>2021-10-14T10:45:19Z</time>
      </trkpt>
      <trkpt lat="43.40456" lon="-0.39113">
        <ele>202.9</ele>
        <time>2021-10-14T10:45:20Z</time>
      </trkpt>
      <trkpt lat="43.40457" lon="-0.39113">
        <ele>203.3</ele>
        <time>2021-10-14T10:45:21Z</time>
      </trkpt>
      <trkpt lat="43.40458" lon="-0.39112">
        <ele>203.1</ele>
        <time>2021-10-14T10:45:22Z</time>
      </trkpt>
      <trkpt lat="43.4046" lon="-0.39111">
        <ele>203.9</ele>
        <time>2021-10-14T10:45:23Z</time>
      </trkpt>
      <trkpt lat="43.40459" lon="-0.39111">
        <ele>204.2</ele>
        <time>2021-10-14T10:45:24Z</time>
      </trkpt>
      <trkpt lat="43.40462" lon="-0.39107">
        <ele>204.3</ele>
        <time>2021-10-14T10:45:26Z</time>
      </trkpt>
      <trkpt lat="43.40465" lon="-0.39103">
        <ele>205.1</ele>
        <time>2021-10-14T10:45:29Z</time>
      </trkpt>
      <trkpt lat="43.40469" lon="-0.39097">
        <ele>206.4</ele>
        <time>2021-10-14T10:45:34Z</time>
      </trkpt>
      <trkpt lat="43.40476" lon="-0.3907">
        <ele>205</ele>
        <time>2021-10-14T10:45:50Z</time>
      </trkpt>
      <trkpt lat="43.40476" lon="-0.39068">
        <ele>204.5</ele>
        <time>2021-10-14T10:45:51Z</time>
      </trkpt>
      <trkpt lat="43.40476" lon="-0.39066">
        <ele>204.2</ele>
        <time>2021-10-14T10:45:52Z</time>
      </trkpt>
      <trkpt lat="43.40475" lon="-0.39064">
        <ele>204.6</ele>
        <time>2021-10-14T10:45:53Z</time>
      </trkpt>
      <trkpt lat="43.40474" lon="-0.39063">
        <ele>205.3</ele>
        <time>2021-10-14T10:45:54Z</time>
      </trkpt>
      <trkpt lat="43.40473" lon="-0.39062">
        <ele>206.2</ele>
        <time>2021-10-14T10:45:55Z</time>
      </trkpt>
      <trkpt lat="43.40472" lon="-0.39061">
        <ele>206</ele>
        <time>2021-10-14T10:45:56Z</time>
      </trkpt>
      <trkpt lat="43.40472" lon="-0.3906">
        <ele>206.1</ele>
        <time>2021-10-14T10:45:57Z</time>
      </trkpt>
      <trkpt lat="43.40472" lon="-0.3906">
        <ele>205.7</ele>
        <time>2021-10-14T10:45:58Z</time>
      </trkpt>
      <trkpt lat="43.40472" lon="-0.3906">
        <ele>206.5</ele>
        <time>2021-10-14T10:45:59Z</time>
      </trkpt>
      <trkpt lat="43.40472" lon="-0.3906">
        <ele>206.1</ele>
        <time>2021-10-14T10:46:00Z</time>
      </trkpt>
      <trkpt lat="43.40472" lon="-0.3906">
        <ele>206.6</ele>
        <time>2021-10-14T10:46:01Z</time>
      </trkpt>
      <trkpt lat="43.40472" lon="-0.3906">
        <ele>206.1</ele>
        <time>2021-10-14T10:46:02Z</time>
      </trkpt>
      <trkpt lat="43.40472" lon="-0.3906">
        <ele>206.4</ele>
        <time>2021-10-14T10:46:03Z</time>
      </trkpt>
      <trkpt lat="43.40472" lon="-0.3906">
        <ele>206.5</ele>
        <time>2021-10-14T10:46:04Z</time>
      </trkpt>
      <trkpt lat="43.40472" lon="-0.39059">
        <ele>207.1</ele>
        <time>2021-10-14T10:46:05Z</time>
      </trkpt>
      <trkpt lat="43.40471" lon="-0.39059">
        <ele>208.1</ele>
        <time>2021-10-14T10:46:06Z</time>
      </trkpt>
      <trkpt lat="43.4047" lon="-0.39059">
        <ele>208.7</ele>
        <time>2021-10-14T10:46:07Z</time>
      </trkpt>
      <trkpt lat="43.4047" lon="-0.39059">
        <ele>209.5</ele>
        <time>2021-10-14T10:46:08Z</time>
      </trkpt>
      <trkpt lat="43.40469" lon="-0.39059">
        <ele>209.1</ele>
        <time>2021-10-14T10:46:09Z</time>
      </trkpt>
      <trkpt lat="43.40469" lon="-0.3906">
        <ele>209.1</ele>
        <time>2021-10-14T10:46:10Z</time>
      </trkpt>
      <trkpt lat="43.40468" lon="-0.3906">
        <ele>211.2</ele>
        <time>2021-10-14T10:46:11Z</time>
      </trkpt>
      <trkpt lat="43.40467" lon="-0.39061">
        <ele>212.1</ele>
        <time>2021-10-14T10:46:12Z</time>
      </trkpt>
      <trkpt lat="43.40468" lon="-0.39061">
        <ele>211.6</ele>
        <time>2021-10-14T10:46:14Z</time>
      </trkpt>
      <trkpt lat="43.40468" lon="-0.39061">
        <ele>212.7</ele>
        <time>2021-10-14T10:46:16Z</time>
      </trkpt>
      <trkpt lat="43.40468" lon="-0.39061">
        <ele>212.4</ele>
        <time>2021-10-14T10:46:18Z</time>
      </trkpt>
      <trkpt lat="43.40468" lon="-0.39061">
        <ele>211.7</ele>
        <time>2021-10-14T10:46:19Z</time>
      </trkpt>
      <trkpt lat="43.40468" lon="-0.39061">
        <ele>212.5</ele>
        <time>2021-10-14T10:47:25Z</time>
      </trkpt>
      <trkpt lat="43.40468" lon="-0.39061">
        <ele>212.3</ele>
        <time>2021-10-14T10:47:26Z</time>
      </trkpt>
      <trkpt lat="43.40468" lon="-0.39061">
        <ele>211.9</ele>
        <time>2021-10-14T10:47:27Z</time>
      </trkpt>
      <trkpt lat="43.40468" lon="-0.39061">
        <ele>212.4</ele>
        <time>2021-10-14T10:47:28Z</time>
      </trkpt>
      <trkpt lat="43.40468" lon="-0.39061">
        <ele>212.6</ele>
        <time>2021-10-14T10:47:32Z</time>
      </trkpt>
      <trkpt lat="43.40468" lon="-0.39062">
        <ele>212.4</ele>
        <time>2021-10-14T10:47:34Z</time>
      </trkpt>
      <trkpt lat="43.40468" lon="-0.39062">
        <ele>212.4</ele>
        <time>2021-10-14T10:47:35Z</time>
      </trkpt>
      <trkpt lat="43.40468" lon="-0.39062">
        <ele>212.2</ele>
        <time>2021-10-14T10:47:36Z</time>
      </trkpt>
      <trkpt lat="43.40467" lon="-0.3906">
        <ele>212</ele>
        <time>2021-10-14T10:47:41Z</time>
      </trkpt>
      <trkpt lat="43.40466" lon="-0.39059">
        <ele>212.4</ele>
        <time>2021-10-14T10:47:42Z</time>
      </trkpt>
      <trkpt lat="43.40465" lon="-0.39058">
        <ele>210.9</ele>
        <time>2021-10-14T10:47:44Z</time>
      </trkpt>
      <trkpt lat="43.40466" lon="-0.39058">
        <ele>210.4</ele>
        <time>2021-10-14T10:47:46Z</time>
      </trkpt>
      <trkpt lat="43.40466" lon="-0.39058">
        <ele>211.3</ele>
        <time>2021-10-14T10:47:52Z</time>
      </trkpt>
      <trkpt lat="43.40466" lon="-0.39058">
        <ele>211</ele>
        <time>2021-10-14T10:48:04Z</time>
      </trkpt>
      <trkpt lat="43.40466" lon="-0.39058">
        <ele>211.6</ele>
        <time>2021-10-14T10:48:05Z</time>
      </trkpt>
      <trkpt lat="43.40464" lon="-0.39057">
        <ele>211.1</ele>
        <time>2021-10-14T10:48:07Z</time>
      </trkpt>
      <trkpt lat="43.40463" lon="-0.39057">
        <ele>212</ele>
        <time>2021-10-14T10:48:08Z</time>
      </trkpt>
      <trkpt lat="43.40463" lon="-0.39057">
        <ele>211.6</ele>
        <time>2021-10-14T10:48:09Z</time>
      </trkpt>
      <trkpt lat="43.40463" lon="-0.39057">
        <ele>212.2</ele>
        <time>2021-10-14T10:48:10Z</time>
      </trkpt>
      <trkpt lat="43.40462" lon="-0.39056">
        <ele>212.3</ele>
        <time>2021-10-14T10:48:11Z</time>
      </trkpt>
      <trkpt lat="43.40461" lon="-0.39055">
        <ele>212</ele>
        <time>2021-10-14T10:48:12Z</time>
      </trkpt>
      <trkpt lat="43.4046" lon="-0.39054">
        <ele>212.3</ele>
        <time>2021-10-14T10:48:13Z</time>
      </trkpt>
      <trkpt lat="43.40459" lon="-0.39053">
        <ele>212.1</ele>
        <time>2021-10-14T10:48:14Z</time>
      </trkpt>
      <trkpt lat="43.40459" lon="-0.39053">
        <ele>211.9</ele>
        <time>2021-10-14T10:48:15Z</time>
      </trkpt>
      <trkpt lat="43.40459" lon="-0.39052">
        <ele>212.2</ele>
        <time>2021-10-14T10:48:16Z</time>
      </trkpt>
      <trkpt lat="43.40457" lon="-0.3905">
        <ele>212.3</ele>
        <time>2021-10-14T10:48:18Z</time>
      </trkpt>
      <trkpt lat="43.40456" lon="-0.39049">
        <ele>212.1</ele>
        <time>2021-10-14T10:48:19Z</time>
      </trkpt>
      <trkpt lat="43.40455" lon="-0.39049">
        <ele>211.9</ele>
        <time>2021-10-14T10:48:20Z</time>
      </trkpt>
      <trkpt lat="43.40455" lon="-0.39048">
        <ele>212.3</ele>
        <time>2021-10-14T10:48:21Z</time>
      </trkpt>
      <trkpt lat="43.40455" lon="-0.39048">
        <ele>212.3</ele>
        <time>2021-10-14T10:48:22Z</time>
      </trkpt>
      <trkpt lat="43.40454" lon="-0.39046">
        <ele>211.5</ele>
        <time>2021-10-14T10:48:24Z</time>
      </trkpt>
      <trkpt lat="43.40454" lon="-0.39046">
        <ele>210.5</ele>
        <time>2021-10-14T10:48:25Z</time>
      </trkpt>
      <trkpt lat="43.40454" lon="-0.39046">
        <ele>212.3</ele>
        <time>2021-10-14T10:48:26Z</time>
      </trkpt>
      <trkpt lat="43.40454" lon="-0.39047">
        <ele>211.6</ele>
        <time>2021-10-14T10:48:27Z</time>
      </trkpt>
      <trkpt lat="43.40454" lon="-0.39047">
        <ele>212.3</ele>
        <time>2021-10-14T10:48:28Z</time>
      </trkpt>
      <trkpt lat="43.40454" lon="-0.39047">
        <ele>212.4</ele>
        <time>2021-10-14T10:48:29Z</time>
      </trkpt>
      <trkpt lat="43.40454" lon="-0.39047">
        <ele>212</ele>
        <time>2021-10-14T10:48:48Z</time>
      </trkpt>
      <trkpt lat="43.40454" lon="-0.39047">
        <ele>212</ele>
        <time>2021-10-14T10:48:55Z</time>
      </trkpt>
      <trkpt lat="43.40454" lon="-0.39047">
        <ele>212.2</ele>
        <time>2021-10-14T10:48:56Z</time>
      </trkpt>
      <trkpt lat="43.40455" lon="-0.39047">
        <ele>212.1</ele>
        <time>2021-10-14T10:48:57Z</time>
      </trkpt>
      <trkpt lat="43.40455" lon="-0.39047">
        <ele>211.7</ele>
        <time>2021-10-14T10:48:58Z</time>
      </trkpt>
      <trkpt lat="43.40455" lon="-0.39048">
        <ele>211</ele>
        <time>2021-10-14T10:48:59Z</time>
      </trkpt>
      <trkpt lat="43.40455" lon="-0.39048">
        <ele>211</ele>
        <time>2021-10-14T10:49:00Z</time>
      </trkpt>
      <trkpt lat="43.40455" lon="-0.39048">
        <ele>210.9</ele>
        <time>2021-10-14T10:49:01Z</time>
      </trkpt>
      <trkpt lat="43.40455" lon="-0.39048">
        <ele>211.1</ele>
        <time>2021-10-14T10:49:02Z</time>
      </trkpt>
      <trkpt lat="43.40455" lon="-0.39048">
        <ele>210.5</ele>
        <time>2021-10-14T10:49:03Z</time>
      </trkpt>
      <trkpt lat="43.40455" lon="-0.39048">
        <ele>210.9</ele>
        <time>2021-10-14T10:49:04Z</time>
      </trkpt>
      <trkpt lat="43.40455" lon="-0.39048">
        <ele>210.9</ele>
        <time>2021-10-14T10:49:05Z</time>
      </trkpt>
    </trkseg>
  </trk>
</gpx>